<?xml version="1.0" encoding="UTF-8" standalone="no" ?>
<gpx xmlns="http://www.topografix.com/GPX/1/1" xmlns:xsi="http://www.w3.org/2001/XMLSchema-instance" xsi:schemaLocation="http://www.topografix.com/GPX/1/1 http://www.topografix.com/GPX/1/1/gpx.xsd" version="1.1" creator="VisuGPX - https://www.visugpx.com">
  <metadata>
    <name>Col de l'Iseran</name>
  </metadata>
  <trk>
    <name><![CDATA[Col de l'Iseran A/R depuis Bellentre]]></name>
    <trkseg>
      <trkpt lat="45.57698" lon="6.73615">
        <ele>738.4</ele>
        <time>2020-08-08T07:11:54Z</time>
      </trkpt>
      <trkpt lat="45.57701" lon="6.73643">
        <ele>738.5</ele>
        <time>2020-08-08T07:11:57Z</time>
      </trkpt>
      <trkpt lat="45.577" lon="6.73657">
        <ele>738.5</ele>
        <time>2020-08-08T07:11:58Z</time>
      </trkpt>
      <trkpt lat="45.57697" lon="6.73675">
        <ele>738.7</ele>
        <time>2020-08-08T07:12:00Z</time>
      </trkpt>
      <trkpt lat="45.57696" lon="6.73683">
        <ele>738.7</ele>
        <time>2020-08-08T07:12:01Z</time>
      </trkpt>
      <trkpt lat="45.57691" lon="6.737">
        <ele>739</ele>
        <time>2020-08-08T07:12:03Z</time>
      </trkpt>
      <trkpt lat="45.57684" lon="6.73711">
        <ele>739.2</ele>
        <time>2020-08-08T07:12:05Z</time>
      </trkpt>
      <trkpt lat="45.57681" lon="6.73714">
        <ele>739.4</ele>
        <time>2020-08-08T07:12:06Z</time>
      </trkpt>
      <trkpt lat="45.57675" lon="6.7372">
        <ele>739.6</ele>
        <time>2020-08-08T07:12:07Z</time>
      </trkpt>
      <trkpt lat="45.57681" lon="6.7372">
        <ele>739.8</ele>
        <time>2020-08-08T07:12:10Z</time>
      </trkpt>
      <trkpt lat="45.57685" lon="6.73721">
        <ele>740.2</ele>
        <time>2020-08-08T07:12:11Z</time>
      </trkpt>
      <trkpt lat="45.5768" lon="6.73747">
        <ele>740.1</ele>
        <time>2020-08-08T07:12:13Z</time>
      </trkpt>
      <trkpt lat="45.57675" lon="6.73763">
        <ele>739.9</ele>
        <time>2020-08-08T07:12:15Z</time>
      </trkpt>
      <trkpt lat="45.5767" lon="6.73771">
        <ele>739.8</ele>
        <time>2020-08-08T07:12:16Z</time>
      </trkpt>
      <trkpt lat="45.57663" lon="6.73789">
        <ele>739.6</ele>
        <time>2020-08-08T07:12:18Z</time>
      </trkpt>
      <trkpt lat="45.5766" lon="6.73798">
        <ele>739.6</ele>
        <time>2020-08-08T07:12:19Z</time>
      </trkpt>
      <trkpt lat="45.57658" lon="6.73807">
        <ele>739.6</ele>
        <time>2020-08-08T07:12:20Z</time>
      </trkpt>
      <trkpt lat="45.57654" lon="6.73824">
        <ele>739.6</ele>
        <time>2020-08-08T07:12:22Z</time>
      </trkpt>
      <trkpt lat="45.57652" lon="6.73832">
        <ele>739.6</ele>
        <time>2020-08-08T07:12:23Z</time>
      </trkpt>
      <trkpt lat="45.57651" lon="6.73841">
        <ele>739.6</ele>
        <time>2020-08-08T07:12:24Z</time>
      </trkpt>
      <trkpt lat="45.5765" lon="6.7386">
        <ele>739.5</ele>
        <time>2020-08-08T07:12:26Z</time>
      </trkpt>
      <trkpt lat="45.5765" lon="6.73879">
        <ele>739.4</ele>
        <time>2020-08-08T07:12:28Z</time>
      </trkpt>
      <trkpt lat="45.5765" lon="6.73899">
        <ele>739.4</ele>
        <time>2020-08-08T07:12:30Z</time>
      </trkpt>
      <trkpt lat="45.5765" lon="6.73908">
        <ele>739.4</ele>
        <time>2020-08-08T07:12:31Z</time>
      </trkpt>
      <trkpt lat="45.57652" lon="6.73927">
        <ele>739.5</ele>
        <time>2020-08-08T07:12:33Z</time>
      </trkpt>
      <trkpt lat="45.57652" lon="6.73937">
        <ele>739.6</ele>
        <time>2020-08-08T07:12:34Z</time>
      </trkpt>
      <trkpt lat="45.57654" lon="6.73956">
        <ele>739.8</ele>
        <time>2020-08-08T07:12:36Z</time>
      </trkpt>
      <trkpt lat="45.57656" lon="6.73965">
        <ele>739.9</ele>
        <time>2020-08-08T07:12:37Z</time>
      </trkpt>
      <trkpt lat="45.57658" lon="6.73974">
        <ele>740.1</ele>
        <time>2020-08-08T07:12:38Z</time>
      </trkpt>
      <trkpt lat="45.57663" lon="6.73991">
        <ele>740.4</ele>
        <time>2020-08-08T07:12:40Z</time>
      </trkpt>
      <trkpt lat="45.57666" lon="6.73999">
        <ele>740.7</ele>
        <time>2020-08-08T07:12:41Z</time>
      </trkpt>
      <trkpt lat="45.57671" lon="6.74013">
        <ele>741.1</ele>
        <time>2020-08-08T07:12:43Z</time>
      </trkpt>
      <trkpt lat="45.57673" lon="6.7402">
        <ele>741.3</ele>
        <time>2020-08-08T07:12:44Z</time>
      </trkpt>
      <trkpt lat="45.57676" lon="6.7403">
        <ele>741.7</ele>
        <time>2020-08-08T07:12:46Z</time>
      </trkpt>
      <trkpt lat="45.57677" lon="6.74036">
        <ele>741.9</ele>
        <time>2020-08-08T07:12:47Z</time>
      </trkpt>
      <trkpt lat="45.5768" lon="6.74051">
        <ele>742.4</ele>
        <time>2020-08-08T07:12:49Z</time>
      </trkpt>
      <trkpt lat="45.57686" lon="6.74071">
        <ele>743.1</ele>
        <time>2020-08-08T07:12:51Z</time>
      </trkpt>
      <trkpt lat="45.57687" lon="6.74076">
        <ele>743.3</ele>
        <time>2020-08-08T07:12:55Z</time>
      </trkpt>
      <trkpt lat="45.57693" lon="6.74083">
        <ele>743.6</ele>
        <time>2020-08-08T07:12:57Z</time>
      </trkpt>
      <trkpt lat="45.5771" lon="6.74103">
        <ele>744.3</ele>
        <time>2020-08-08T07:13:00Z</time>
      </trkpt>
      <trkpt lat="45.57715" lon="6.74107">
        <ele>744.5</ele>
        <time>2020-08-08T07:13:01Z</time>
      </trkpt>
      <trkpt lat="45.57724" lon="6.74114">
        <ele>744.9</ele>
        <time>2020-08-08T07:13:03Z</time>
      </trkpt>
      <trkpt lat="45.57729" lon="6.74115">
        <ele>745.1</ele>
        <time>2020-08-08T07:13:04Z</time>
      </trkpt>
      <trkpt lat="45.57738" lon="6.74116">
        <ele>745.5</ele>
        <time>2020-08-08T07:13:06Z</time>
      </trkpt>
      <trkpt lat="45.57742" lon="6.74118">
        <ele>745.8</ele>
        <time>2020-08-08T07:13:07Z</time>
      </trkpt>
      <trkpt lat="45.57742" lon="6.74123">
        <ele>745.9</ele>
        <time>2020-08-08T07:13:08Z</time>
      </trkpt>
      <trkpt lat="45.5775" lon="6.74126">
        <ele>746.3</ele>
        <time>2020-08-08T07:13:10Z</time>
      </trkpt>
      <trkpt lat="45.57759" lon="6.74128">
        <ele>746.6</ele>
        <time>2020-08-08T07:13:13Z</time>
      </trkpt>
      <trkpt lat="45.57773" lon="6.74134">
        <ele>746.5</ele>
        <time>2020-08-08T07:13:15Z</time>
      </trkpt>
      <trkpt lat="45.57777" lon="6.74136">
        <ele>746.4</ele>
        <time>2020-08-08T07:13:16Z</time>
      </trkpt>
      <trkpt lat="45.57785" lon="6.74139">
        <ele>746</ele>
        <time>2020-08-08T07:13:19Z</time>
      </trkpt>
      <trkpt lat="45.57791" lon="6.74142">
        <ele>745.6</ele>
        <time>2020-08-08T07:13:20Z</time>
      </trkpt>
      <trkpt lat="45.57798" lon="6.74146">
        <ele>745.2</ele>
        <time>2020-08-08T07:13:21Z</time>
      </trkpt>
      <trkpt lat="45.57812" lon="6.74152">
        <ele>744.1</ele>
        <time>2020-08-08T07:13:23Z</time>
      </trkpt>
      <trkpt lat="45.57828" lon="6.74151">
        <ele>743.2</ele>
        <time>2020-08-08T07:13:25Z</time>
      </trkpt>
      <trkpt lat="45.57844" lon="6.74144">
        <ele>742.8</ele>
        <time>2020-08-08T07:13:27Z</time>
      </trkpt>
      <trkpt lat="45.57859" lon="6.74137">
        <ele>742.8</ele>
        <time>2020-08-08T07:13:29Z</time>
      </trkpt>
      <trkpt lat="45.57866" lon="6.74134">
        <ele>742.8</ele>
        <time>2020-08-08T07:13:30Z</time>
      </trkpt>
      <trkpt lat="45.5788" lon="6.74129">
        <ele>742.8</ele>
        <time>2020-08-08T07:13:32Z</time>
      </trkpt>
      <trkpt lat="45.57888" lon="6.74126">
        <ele>742.8</ele>
        <time>2020-08-08T07:13:33Z</time>
      </trkpt>
      <trkpt lat="45.57895" lon="6.74123">
        <ele>742.9</ele>
        <time>2020-08-08T07:13:34Z</time>
      </trkpt>
      <trkpt lat="45.57903" lon="6.7412">
        <ele>742.9</ele>
        <time>2020-08-08T07:13:35Z</time>
      </trkpt>
      <trkpt lat="45.57917" lon="6.74112">
        <ele>743.1</ele>
        <time>2020-08-08T07:13:37Z</time>
      </trkpt>
      <trkpt lat="45.57924" lon="6.74108">
        <ele>743.1</ele>
        <time>2020-08-08T07:13:38Z</time>
      </trkpt>
      <trkpt lat="45.57937" lon="6.74101">
        <ele>743.3</ele>
        <time>2020-08-08T07:13:40Z</time>
      </trkpt>
      <trkpt lat="45.57944" lon="6.741">
        <ele>743.3</ele>
        <time>2020-08-08T07:13:41Z</time>
      </trkpt>
      <trkpt lat="45.57957" lon="6.741">
        <ele>743.5</ele>
        <time>2020-08-08T07:13:43Z</time>
      </trkpt>
      <trkpt lat="45.57971" lon="6.74101">
        <ele>743.7</ele>
        <time>2020-08-08T07:13:45Z</time>
      </trkpt>
      <trkpt lat="45.57977" lon="6.74101">
        <ele>743.8</ele>
        <time>2020-08-08T07:13:46Z</time>
      </trkpt>
      <trkpt lat="45.57983" lon="6.74102">
        <ele>743.9</ele>
        <time>2020-08-08T07:13:47Z</time>
      </trkpt>
      <trkpt lat="45.57995" lon="6.74104">
        <ele>744.1</ele>
        <time>2020-08-08T07:13:49Z</time>
      </trkpt>
      <trkpt lat="45.58008" lon="6.74107">
        <ele>744.3</ele>
        <time>2020-08-08T07:13:51Z</time>
      </trkpt>
      <trkpt lat="45.5802" lon="6.7411">
        <ele>744.5</ele>
        <time>2020-08-08T07:13:53Z</time>
      </trkpt>
      <trkpt lat="45.58026" lon="6.74113">
        <ele>744.6</ele>
        <time>2020-08-08T07:13:54Z</time>
      </trkpt>
      <trkpt lat="45.58032" lon="6.74117">
        <ele>744.7</ele>
        <time>2020-08-08T07:13:55Z</time>
      </trkpt>
      <trkpt lat="45.58044" lon="6.74122">
        <ele>744.8</ele>
        <time>2020-08-08T07:13:57Z</time>
      </trkpt>
      <trkpt lat="45.58051" lon="6.74125">
        <ele>744.9</ele>
        <time>2020-08-08T07:13:58Z</time>
      </trkpt>
      <trkpt lat="45.58062" lon="6.74131">
        <ele>745.1</ele>
        <time>2020-08-08T07:14:00Z</time>
      </trkpt>
      <trkpt lat="45.58068" lon="6.74135">
        <ele>745.2</ele>
        <time>2020-08-08T07:14:01Z</time>
      </trkpt>
      <trkpt lat="45.58073" lon="6.74141">
        <ele>745.4</ele>
        <time>2020-08-08T07:14:02Z</time>
      </trkpt>
      <trkpt lat="45.58082" lon="6.74154">
        <ele>745.6</ele>
        <time>2020-08-08T07:14:04Z</time>
      </trkpt>
      <trkpt lat="45.58085" lon="6.74161">
        <ele>745.7</ele>
        <time>2020-08-08T07:14:05Z</time>
      </trkpt>
      <trkpt lat="45.58091" lon="6.74177">
        <ele>745.8</ele>
        <time>2020-08-08T07:14:07Z</time>
      </trkpt>
      <trkpt lat="45.58096" lon="6.74193">
        <ele>745.8</ele>
        <time>2020-08-08T07:14:09Z</time>
      </trkpt>
      <trkpt lat="45.58102" lon="6.74211">
        <ele>745.9</ele>
        <time>2020-08-08T07:14:11Z</time>
      </trkpt>
      <trkpt lat="45.58105" lon="6.74219">
        <ele>746</ele>
        <time>2020-08-08T07:14:12Z</time>
      </trkpt>
      <trkpt lat="45.58111" lon="6.74235">
        <ele>746.2</ele>
        <time>2020-08-08T07:14:14Z</time>
      </trkpt>
      <trkpt lat="45.58114" lon="6.74243">
        <ele>746.3</ele>
        <time>2020-08-08T07:14:15Z</time>
      </trkpt>
      <trkpt lat="45.58116" lon="6.74251">
        <ele>746.4</ele>
        <time>2020-08-08T07:14:16Z</time>
      </trkpt>
      <trkpt lat="45.58119" lon="6.74267">
        <ele>746.7</ele>
        <time>2020-08-08T07:14:18Z</time>
      </trkpt>
      <trkpt lat="45.5812" lon="6.74275">
        <ele>746.7</ele>
        <time>2020-08-08T07:14:19Z</time>
      </trkpt>
      <trkpt lat="45.58119" lon="6.7429">
        <ele>746.8</ele>
        <time>2020-08-08T07:14:21Z</time>
      </trkpt>
      <trkpt lat="45.58119" lon="6.74299">
        <ele>746.7</ele>
        <time>2020-08-08T07:14:22Z</time>
      </trkpt>
      <trkpt lat="45.5812" lon="6.74309">
        <ele>746.7</ele>
        <time>2020-08-08T07:14:23Z</time>
      </trkpt>
      <trkpt lat="45.58126" lon="6.74327">
        <ele>746.6</ele>
        <time>2020-08-08T07:14:25Z</time>
      </trkpt>
      <trkpt lat="45.5813" lon="6.74335">
        <ele>746.6</ele>
        <time>2020-08-08T07:14:26Z</time>
      </trkpt>
      <trkpt lat="45.58138" lon="6.74353">
        <ele>746.6</ele>
        <time>2020-08-08T07:14:28Z</time>
      </trkpt>
      <trkpt lat="45.58146" lon="6.7437">
        <ele>746.6</ele>
        <time>2020-08-08T07:14:30Z</time>
      </trkpt>
      <trkpt lat="45.58149" lon="6.74378">
        <ele>746.6</ele>
        <time>2020-08-08T07:14:31Z</time>
      </trkpt>
      <trkpt lat="45.58156" lon="6.74395">
        <ele>746.7</ele>
        <time>2020-08-08T07:14:33Z</time>
      </trkpt>
      <trkpt lat="45.5816" lon="6.74403">
        <ele>746.7</ele>
        <time>2020-08-08T07:14:34Z</time>
      </trkpt>
      <trkpt lat="45.58163" lon="6.74411">
        <ele>746.8</ele>
        <time>2020-08-08T07:14:35Z</time>
      </trkpt>
      <trkpt lat="45.58167" lon="6.7442">
        <ele>746.8</ele>
        <time>2020-08-08T07:14:36Z</time>
      </trkpt>
      <trkpt lat="45.58175" lon="6.74435">
        <ele>746.8</ele>
        <time>2020-08-08T07:14:38Z</time>
      </trkpt>
      <trkpt lat="45.58183" lon="6.74449">
        <ele>746.9</ele>
        <time>2020-08-08T07:14:40Z</time>
      </trkpt>
      <trkpt lat="45.58186" lon="6.74457">
        <ele>746.9</ele>
        <time>2020-08-08T07:14:41Z</time>
      </trkpt>
      <trkpt lat="45.5819" lon="6.74474">
        <ele>747</ele>
        <time>2020-08-08T07:14:43Z</time>
      </trkpt>
      <trkpt lat="45.5819" lon="6.74483">
        <ele>747</ele>
        <time>2020-08-08T07:14:44Z</time>
      </trkpt>
      <trkpt lat="45.5819" lon="6.74492">
        <ele>747</ele>
        <time>2020-08-08T07:14:45Z</time>
      </trkpt>
      <trkpt lat="45.58191" lon="6.74502">
        <ele>747.1</ele>
        <time>2020-08-08T07:14:46Z</time>
      </trkpt>
      <trkpt lat="45.58193" lon="6.74521">
        <ele>747.2</ele>
        <time>2020-08-08T07:14:48Z</time>
      </trkpt>
      <trkpt lat="45.58194" lon="6.74531">
        <ele>747.3</ele>
        <time>2020-08-08T07:14:49Z</time>
      </trkpt>
      <trkpt lat="45.58198" lon="6.74548">
        <ele>747.4</ele>
        <time>2020-08-08T07:14:51Z</time>
      </trkpt>
      <trkpt lat="45.58201" lon="6.74563">
        <ele>747.5</ele>
        <time>2020-08-08T07:14:53Z</time>
      </trkpt>
      <trkpt lat="45.58207" lon="6.7458">
        <ele>747.6</ele>
        <time>2020-08-08T07:14:55Z</time>
      </trkpt>
      <trkpt lat="45.58212" lon="6.74592">
        <ele>747.7</ele>
        <time>2020-08-08T07:14:57Z</time>
      </trkpt>
      <trkpt lat="45.58215" lon="6.74599">
        <ele>747.8</ele>
        <time>2020-08-08T07:14:58Z</time>
      </trkpt>
      <trkpt lat="45.5822" lon="6.74613">
        <ele>748.1</ele>
        <time>2020-08-08T07:15:00Z</time>
      </trkpt>
      <trkpt lat="45.58224" lon="6.74631">
        <ele>748.3</ele>
        <time>2020-08-08T07:15:02Z</time>
      </trkpt>
      <trkpt lat="45.5823" lon="6.74646">
        <ele>748.5</ele>
        <time>2020-08-08T07:15:04Z</time>
      </trkpt>
      <trkpt lat="45.58238" lon="6.74659">
        <ele>748.6</ele>
        <time>2020-08-08T07:15:06Z</time>
      </trkpt>
      <trkpt lat="45.58247" lon="6.74671">
        <ele>748.7</ele>
        <time>2020-08-08T07:15:08Z</time>
      </trkpt>
      <trkpt lat="45.58253" lon="6.74676">
        <ele>748.7</ele>
        <time>2020-08-08T07:15:09Z</time>
      </trkpt>
      <trkpt lat="45.58259" lon="6.74681">
        <ele>748.7</ele>
        <time>2020-08-08T07:15:10Z</time>
      </trkpt>
      <trkpt lat="45.58269" lon="6.74692">
        <ele>748.8</ele>
        <time>2020-08-08T07:15:12Z</time>
      </trkpt>
      <trkpt lat="45.58273" lon="6.74697">
        <ele>748.8</ele>
        <time>2020-08-08T07:15:13Z</time>
      </trkpt>
      <trkpt lat="45.58278" lon="6.74702">
        <ele>748.8</ele>
        <time>2020-08-08T07:15:14Z</time>
      </trkpt>
      <trkpt lat="45.58283" lon="6.74708">
        <ele>748.9</ele>
        <time>2020-08-08T07:15:15Z</time>
      </trkpt>
      <trkpt lat="45.58293" lon="6.74719">
        <ele>748.9</ele>
        <time>2020-08-08T07:15:17Z</time>
      </trkpt>
      <trkpt lat="45.58303" lon="6.74731">
        <ele>749</ele>
        <time>2020-08-08T07:15:19Z</time>
      </trkpt>
      <trkpt lat="45.58313" lon="6.74741">
        <ele>749.2</ele>
        <time>2020-08-08T07:15:21Z</time>
      </trkpt>
      <trkpt lat="45.58324" lon="6.74749">
        <ele>749.4</ele>
        <time>2020-08-08T07:15:23Z</time>
      </trkpt>
      <trkpt lat="45.58336" lon="6.74755">
        <ele>749.5</ele>
        <time>2020-08-08T07:15:25Z</time>
      </trkpt>
      <trkpt lat="45.58342" lon="6.74759">
        <ele>749.5</ele>
        <time>2020-08-08T07:15:26Z</time>
      </trkpt>
      <trkpt lat="45.58347" lon="6.74762">
        <ele>749.5</ele>
        <time>2020-08-08T07:15:27Z</time>
      </trkpt>
      <trkpt lat="45.58359" lon="6.74771">
        <ele>749.5</ele>
        <time>2020-08-08T07:15:29Z</time>
      </trkpt>
      <trkpt lat="45.58365" lon="6.74775">
        <ele>749.5</ele>
        <time>2020-08-08T07:15:30Z</time>
      </trkpt>
      <trkpt lat="45.58371" lon="6.74779">
        <ele>749.5</ele>
        <time>2020-08-08T07:15:31Z</time>
      </trkpt>
      <trkpt lat="45.58384" lon="6.74783">
        <ele>749.3</ele>
        <time>2020-08-08T07:15:33Z</time>
      </trkpt>
      <trkpt lat="45.58397" lon="6.74785">
        <ele>749.3</ele>
        <time>2020-08-08T07:15:35Z</time>
      </trkpt>
      <trkpt lat="45.58404" lon="6.74786">
        <ele>749.3</ele>
        <time>2020-08-08T07:15:36Z</time>
      </trkpt>
      <trkpt lat="45.58418" lon="6.74787">
        <ele>749.4</ele>
        <time>2020-08-08T07:15:38Z</time>
      </trkpt>
      <trkpt lat="45.58431" lon="6.7479">
        <ele>749.5</ele>
        <time>2020-08-08T07:15:40Z</time>
      </trkpt>
      <trkpt lat="45.58443" lon="6.74793">
        <ele>749.7</ele>
        <time>2020-08-08T07:15:42Z</time>
      </trkpt>
      <trkpt lat="45.58457" lon="6.74795">
        <ele>749.8</ele>
        <time>2020-08-08T07:15:44Z</time>
      </trkpt>
      <trkpt lat="45.58464" lon="6.74796">
        <ele>749.9</ele>
        <time>2020-08-08T07:15:45Z</time>
      </trkpt>
      <trkpt lat="45.58471" lon="6.74798">
        <ele>750</ele>
        <time>2020-08-08T07:15:46Z</time>
      </trkpt>
      <trkpt lat="45.58485" lon="6.74802">
        <ele>750.3</ele>
        <time>2020-08-08T07:15:48Z</time>
      </trkpt>
      <trkpt lat="45.58497" lon="6.74808">
        <ele>750.7</ele>
        <time>2020-08-08T07:15:50Z</time>
      </trkpt>
      <trkpt lat="45.58503" lon="6.74811">
        <ele>750.8</ele>
        <time>2020-08-08T07:15:51Z</time>
      </trkpt>
      <trkpt lat="45.58511" lon="6.74822">
        <ele>750.9</ele>
        <time>2020-08-08T07:15:53Z</time>
      </trkpt>
      <trkpt lat="45.58514" lon="6.74829">
        <ele>751</ele>
        <time>2020-08-08T07:15:54Z</time>
      </trkpt>
      <trkpt lat="45.58522" lon="6.74841">
        <ele>751.1</ele>
        <time>2020-08-08T07:15:56Z</time>
      </trkpt>
      <trkpt lat="45.58534" lon="6.74847">
        <ele>751.2</ele>
        <time>2020-08-08T07:15:58Z</time>
      </trkpt>
      <trkpt lat="45.58547" lon="6.74851">
        <ele>751.4</ele>
        <time>2020-08-08T07:16:00Z</time>
      </trkpt>
      <trkpt lat="45.58559" lon="6.74854">
        <ele>751.5</ele>
        <time>2020-08-08T07:16:02Z</time>
      </trkpt>
      <trkpt lat="45.58565" lon="6.74856">
        <ele>751.5</ele>
        <time>2020-08-08T07:16:03Z</time>
      </trkpt>
      <trkpt lat="45.58576" lon="6.74862">
        <ele>751.7</ele>
        <time>2020-08-08T07:16:05Z</time>
      </trkpt>
      <trkpt lat="45.58581" lon="6.74866">
        <ele>751.7</ele>
        <time>2020-08-08T07:16:06Z</time>
      </trkpt>
      <trkpt lat="45.58586" lon="6.74871">
        <ele>751.8</ele>
        <time>2020-08-08T07:16:07Z</time>
      </trkpt>
      <trkpt lat="45.5859" lon="6.74877">
        <ele>751.9</ele>
        <time>2020-08-08T07:16:08Z</time>
      </trkpt>
      <trkpt lat="45.58595" lon="6.74883">
        <ele>751.9</ele>
        <time>2020-08-08T07:16:09Z</time>
      </trkpt>
      <trkpt lat="45.58605" lon="6.74891">
        <ele>752</ele>
        <time>2020-08-08T07:16:11Z</time>
      </trkpt>
      <trkpt lat="45.58612" lon="6.74894">
        <ele>752</ele>
        <time>2020-08-08T07:16:12Z</time>
      </trkpt>
      <trkpt lat="45.58618" lon="6.74896">
        <ele>752.1</ele>
        <time>2020-08-08T07:16:13Z</time>
      </trkpt>
      <trkpt lat="45.58624" lon="6.74897">
        <ele>752.1</ele>
        <time>2020-08-08T07:16:14Z</time>
      </trkpt>
      <trkpt lat="45.58637" lon="6.74898">
        <ele>752.1</ele>
        <time>2020-08-08T07:16:16Z</time>
      </trkpt>
      <trkpt lat="45.5865" lon="6.74899">
        <ele>752.1</ele>
        <time>2020-08-08T07:16:18Z</time>
      </trkpt>
      <trkpt lat="45.58656" lon="6.74899">
        <ele>752.1</ele>
        <time>2020-08-08T07:16:19Z</time>
      </trkpt>
      <trkpt lat="45.58663" lon="6.74899">
        <ele>752.1</ele>
        <time>2020-08-08T07:16:20Z</time>
      </trkpt>
      <trkpt lat="45.58676" lon="6.74897">
        <ele>752.1</ele>
        <time>2020-08-08T07:16:22Z</time>
      </trkpt>
      <trkpt lat="45.58689" lon="6.749">
        <ele>752</ele>
        <time>2020-08-08T07:16:24Z</time>
      </trkpt>
      <trkpt lat="45.58702" lon="6.74902">
        <ele>752.1</ele>
        <time>2020-08-08T07:16:26Z</time>
      </trkpt>
      <trkpt lat="45.58709" lon="6.74902">
        <ele>752.2</ele>
        <time>2020-08-08T07:16:27Z</time>
      </trkpt>
      <trkpt lat="45.58716" lon="6.74902">
        <ele>752.3</ele>
        <time>2020-08-08T07:16:28Z</time>
      </trkpt>
      <trkpt lat="45.58728" lon="6.749">
        <ele>752.5</ele>
        <time>2020-08-08T07:16:30Z</time>
      </trkpt>
      <trkpt lat="45.58739" lon="6.749">
        <ele>752.6</ele>
        <time>2020-08-08T07:16:32Z</time>
      </trkpt>
      <trkpt lat="45.58746" lon="6.74901">
        <ele>752.7</ele>
        <time>2020-08-08T07:16:33Z</time>
      </trkpt>
      <trkpt lat="45.58751" lon="6.74903">
        <ele>752.7</ele>
        <time>2020-08-08T07:16:34Z</time>
      </trkpt>
      <trkpt lat="45.58763" lon="6.74908">
        <ele>752.8</ele>
        <time>2020-08-08T07:16:36Z</time>
      </trkpt>
      <trkpt lat="45.5877" lon="6.7491">
        <ele>752.8</ele>
        <time>2020-08-08T07:16:37Z</time>
      </trkpt>
      <trkpt lat="45.58785" lon="6.74912">
        <ele>752.9</ele>
        <time>2020-08-08T07:16:39Z</time>
      </trkpt>
      <trkpt lat="45.58799" lon="6.74912">
        <ele>753.1</ele>
        <time>2020-08-08T07:16:41Z</time>
      </trkpt>
      <trkpt lat="45.58806" lon="6.74912">
        <ele>753.2</ele>
        <time>2020-08-08T07:16:42Z</time>
      </trkpt>
      <trkpt lat="45.58819" lon="6.74911">
        <ele>753.3</ele>
        <time>2020-08-08T07:16:44Z</time>
      </trkpt>
      <trkpt lat="45.58832" lon="6.7491">
        <ele>753.4</ele>
        <time>2020-08-08T07:16:46Z</time>
      </trkpt>
      <trkpt lat="45.58839" lon="6.74909">
        <ele>753.5</ele>
        <time>2020-08-08T07:16:47Z</time>
      </trkpt>
      <trkpt lat="45.58852" lon="6.74907">
        <ele>753.8</ele>
        <time>2020-08-08T07:16:49Z</time>
      </trkpt>
      <trkpt lat="45.58866" lon="6.7491">
        <ele>754.1</ele>
        <time>2020-08-08T07:16:51Z</time>
      </trkpt>
      <trkpt lat="45.58872" lon="6.74911">
        <ele>754.2</ele>
        <time>2020-08-08T07:16:52Z</time>
      </trkpt>
      <trkpt lat="45.58885" lon="6.74908">
        <ele>754.4</ele>
        <time>2020-08-08T07:16:54Z</time>
      </trkpt>
      <trkpt lat="45.58897" lon="6.74907">
        <ele>754.6</ele>
        <time>2020-08-08T07:16:56Z</time>
      </trkpt>
      <trkpt lat="45.58909" lon="6.74911">
        <ele>754.8</ele>
        <time>2020-08-08T07:16:58Z</time>
      </trkpt>
      <trkpt lat="45.58915" lon="6.74913">
        <ele>754.9</ele>
        <time>2020-08-08T07:16:59Z</time>
      </trkpt>
      <trkpt lat="45.58921" lon="6.74915">
        <ele>755</ele>
        <time>2020-08-08T07:17:00Z</time>
      </trkpt>
      <trkpt lat="45.58933" lon="6.74915">
        <ele>755.2</ele>
        <time>2020-08-08T07:17:02Z</time>
      </trkpt>
      <trkpt lat="45.58943" lon="6.74916">
        <ele>755.3</ele>
        <time>2020-08-08T07:17:04Z</time>
      </trkpt>
      <trkpt lat="45.58948" lon="6.74919">
        <ele>755.4</ele>
        <time>2020-08-08T07:17:05Z</time>
      </trkpt>
      <trkpt lat="45.5896" lon="6.74928">
        <ele>755.7</ele>
        <time>2020-08-08T07:17:07Z</time>
      </trkpt>
      <trkpt lat="45.58966" lon="6.74933">
        <ele>755.8</ele>
        <time>2020-08-08T07:17:08Z</time>
      </trkpt>
      <trkpt lat="45.58971" lon="6.74937">
        <ele>755.9</ele>
        <time>2020-08-08T07:17:09Z</time>
      </trkpt>
      <trkpt lat="45.58982" lon="6.74944">
        <ele>756.1</ele>
        <time>2020-08-08T07:17:11Z</time>
      </trkpt>
      <trkpt lat="45.58988" lon="6.74947">
        <ele>756.2</ele>
        <time>2020-08-08T07:17:12Z</time>
      </trkpt>
      <trkpt lat="45.58993" lon="6.7495">
        <ele>756.3</ele>
        <time>2020-08-08T07:17:13Z</time>
      </trkpt>
      <trkpt lat="45.59004" lon="6.74954">
        <ele>756.4</ele>
        <time>2020-08-08T07:17:15Z</time>
      </trkpt>
      <trkpt lat="45.59015" lon="6.74957">
        <ele>756.3</ele>
        <time>2020-08-08T07:17:17Z</time>
      </trkpt>
      <trkpt lat="45.59027" lon="6.74961">
        <ele>756.2</ele>
        <time>2020-08-08T07:17:19Z</time>
      </trkpt>
      <trkpt lat="45.59034" lon="6.74963">
        <ele>756.1</ele>
        <time>2020-08-08T07:17:20Z</time>
      </trkpt>
      <trkpt lat="45.59046" lon="6.74972">
        <ele>756</ele>
        <time>2020-08-08T07:17:22Z</time>
      </trkpt>
      <trkpt lat="45.59052" lon="6.74979">
        <ele>756.1</ele>
        <time>2020-08-08T07:17:23Z</time>
      </trkpt>
      <trkpt lat="45.59061" lon="6.74995">
        <ele>756.1</ele>
        <time>2020-08-08T07:17:25Z</time>
      </trkpt>
      <trkpt lat="45.59073" lon="6.75004">
        <ele>756.1</ele>
        <time>2020-08-08T07:17:27Z</time>
      </trkpt>
      <trkpt lat="45.59081" lon="6.75005">
        <ele>756.1</ele>
        <time>2020-08-08T07:17:28Z</time>
      </trkpt>
      <trkpt lat="45.59095" lon="6.75005">
        <ele>756.2</ele>
        <time>2020-08-08T07:17:30Z</time>
      </trkpt>
      <trkpt lat="45.5911" lon="6.75005">
        <ele>756.4</ele>
        <time>2020-08-08T07:17:32Z</time>
      </trkpt>
      <trkpt lat="45.59123" lon="6.75007">
        <ele>756.5</ele>
        <time>2020-08-08T07:17:34Z</time>
      </trkpt>
      <trkpt lat="45.59137" lon="6.75008">
        <ele>756.6</ele>
        <time>2020-08-08T07:17:36Z</time>
      </trkpt>
      <trkpt lat="45.5915" lon="6.7501">
        <ele>756.8</ele>
        <time>2020-08-08T07:17:38Z</time>
      </trkpt>
      <trkpt lat="45.59163" lon="6.75013">
        <ele>757.1</ele>
        <time>2020-08-08T07:17:40Z</time>
      </trkpt>
      <trkpt lat="45.59169" lon="6.75017">
        <ele>757.2</ele>
        <time>2020-08-08T07:17:41Z</time>
      </trkpt>
      <trkpt lat="45.5918" lon="6.75026">
        <ele>757.4</ele>
        <time>2020-08-08T07:17:43Z</time>
      </trkpt>
      <trkpt lat="45.59191" lon="6.75038">
        <ele>757.5</ele>
        <time>2020-08-08T07:17:45Z</time>
      </trkpt>
      <trkpt lat="45.592" lon="6.75051">
        <ele>757.7</ele>
        <time>2020-08-08T07:17:47Z</time>
      </trkpt>
      <trkpt lat="45.59211" lon="6.75064">
        <ele>757.7</ele>
        <time>2020-08-08T07:17:49Z</time>
      </trkpt>
      <trkpt lat="45.59221" lon="6.75075">
        <ele>758</ele>
        <time>2020-08-08T07:17:51Z</time>
      </trkpt>
      <trkpt lat="45.59226" lon="6.75081">
        <ele>758.2</ele>
        <time>2020-08-08T07:17:52Z</time>
      </trkpt>
      <trkpt lat="45.59231" lon="6.75087">
        <ele>758.3</ele>
        <time>2020-08-08T07:17:53Z</time>
      </trkpt>
      <trkpt lat="45.59236" lon="6.75093">
        <ele>758.4</ele>
        <time>2020-08-08T07:17:54Z</time>
      </trkpt>
      <trkpt lat="45.59245" lon="6.75104">
        <ele>758.7</ele>
        <time>2020-08-08T07:17:56Z</time>
      </trkpt>
      <trkpt lat="45.5925" lon="6.7511">
        <ele>758.8</ele>
        <time>2020-08-08T07:17:57Z</time>
      </trkpt>
      <trkpt lat="45.59257" lon="6.75125">
        <ele>759.1</ele>
        <time>2020-08-08T07:17:59Z</time>
      </trkpt>
      <trkpt lat="45.59261" lon="6.75132">
        <ele>759.2</ele>
        <time>2020-08-08T07:18:00Z</time>
      </trkpt>
      <trkpt lat="45.59271" lon="6.75146">
        <ele>759.6</ele>
        <time>2020-08-08T07:18:02Z</time>
      </trkpt>
      <trkpt lat="45.59276" lon="6.75151">
        <ele>759.8</ele>
        <time>2020-08-08T07:18:03Z</time>
      </trkpt>
      <trkpt lat="45.59287" lon="6.75156">
        <ele>760</ele>
        <time>2020-08-08T07:18:05Z</time>
      </trkpt>
      <trkpt lat="45.59293" lon="6.75157">
        <ele>760</ele>
        <time>2020-08-08T07:18:06Z</time>
      </trkpt>
      <trkpt lat="45.59305" lon="6.75159">
        <ele>760.2</ele>
        <time>2020-08-08T07:18:08Z</time>
      </trkpt>
      <trkpt lat="45.59311" lon="6.75161">
        <ele>760.2</ele>
        <time>2020-08-08T07:18:09Z</time>
      </trkpt>
      <trkpt lat="45.59317" lon="6.75163">
        <ele>760.3</ele>
        <time>2020-08-08T07:18:10Z</time>
      </trkpt>
      <trkpt lat="45.59323" lon="6.75166">
        <ele>760.3</ele>
        <time>2020-08-08T07:18:11Z</time>
      </trkpt>
      <trkpt lat="45.59335" lon="6.75172">
        <ele>760.4</ele>
        <time>2020-08-08T07:18:13Z</time>
      </trkpt>
      <trkpt lat="45.59347" lon="6.75179">
        <ele>760.4</ele>
        <time>2020-08-08T07:18:15Z</time>
      </trkpt>
      <trkpt lat="45.59359" lon="6.75186">
        <ele>760.5</ele>
        <time>2020-08-08T07:18:17Z</time>
      </trkpt>
      <trkpt lat="45.59371" lon="6.75191">
        <ele>760.7</ele>
        <time>2020-08-08T07:18:19Z</time>
      </trkpt>
      <trkpt lat="45.59377" lon="6.75192">
        <ele>760.8</ele>
        <time>2020-08-08T07:18:20Z</time>
      </trkpt>
      <trkpt lat="45.59383" lon="6.75193">
        <ele>760.8</ele>
        <time>2020-08-08T07:18:21Z</time>
      </trkpt>
      <trkpt lat="45.5939" lon="6.75194">
        <ele>760.8</ele>
        <time>2020-08-08T07:18:22Z</time>
      </trkpt>
      <trkpt lat="45.59402" lon="6.75198">
        <ele>760.7</ele>
        <time>2020-08-08T07:18:24Z</time>
      </trkpt>
      <trkpt lat="45.59408" lon="6.75202">
        <ele>760.6</ele>
        <time>2020-08-08T07:18:25Z</time>
      </trkpt>
      <trkpt lat="45.5942" lon="6.75214">
        <ele>760.5</ele>
        <time>2020-08-08T07:18:27Z</time>
      </trkpt>
      <trkpt lat="45.59424" lon="6.75222">
        <ele>760.5</ele>
        <time>2020-08-08T07:18:28Z</time>
      </trkpt>
      <trkpt lat="45.59428" lon="6.7523">
        <ele>760.5</ele>
        <time>2020-08-08T07:18:29Z</time>
      </trkpt>
      <trkpt lat="45.59436" lon="6.75246">
        <ele>760.6</ele>
        <time>2020-08-08T07:18:31Z</time>
      </trkpt>
      <trkpt lat="45.5944" lon="6.75255">
        <ele>760.7</ele>
        <time>2020-08-08T07:18:32Z</time>
      </trkpt>
      <trkpt lat="45.59449" lon="6.75269">
        <ele>760.7</ele>
        <time>2020-08-08T07:18:34Z</time>
      </trkpt>
      <trkpt lat="45.59454" lon="6.75276">
        <ele>760.8</ele>
        <time>2020-08-08T07:18:35Z</time>
      </trkpt>
      <trkpt lat="45.59459" lon="6.75283">
        <ele>760.8</ele>
        <time>2020-08-08T07:18:36Z</time>
      </trkpt>
      <trkpt lat="45.59469" lon="6.75295">
        <ele>761</ele>
        <time>2020-08-08T07:18:38Z</time>
      </trkpt>
      <trkpt lat="45.59479" lon="6.75306">
        <ele>761.3</ele>
        <time>2020-08-08T07:18:40Z</time>
      </trkpt>
      <trkpt lat="45.59484" lon="6.75311">
        <ele>761.5</ele>
        <time>2020-08-08T07:18:41Z</time>
      </trkpt>
      <trkpt lat="45.59494" lon="6.75321">
        <ele>761.7</ele>
        <time>2020-08-08T07:18:43Z</time>
      </trkpt>
      <trkpt lat="45.59499" lon="6.75326">
        <ele>761.9</ele>
        <time>2020-08-08T07:18:44Z</time>
      </trkpt>
      <trkpt lat="45.59507" lon="6.75337">
        <ele>762.2</ele>
        <time>2020-08-08T07:18:46Z</time>
      </trkpt>
      <trkpt lat="45.59511" lon="6.75343">
        <ele>762.3</ele>
        <time>2020-08-08T07:18:47Z</time>
      </trkpt>
      <trkpt lat="45.5952" lon="6.75354">
        <ele>762.5</ele>
        <time>2020-08-08T07:18:49Z</time>
      </trkpt>
      <trkpt lat="45.59529" lon="6.75365">
        <ele>762.7</ele>
        <time>2020-08-08T07:18:51Z</time>
      </trkpt>
      <trkpt lat="45.59539" lon="6.75376">
        <ele>763</ele>
        <time>2020-08-08T07:18:53Z</time>
      </trkpt>
      <trkpt lat="45.59549" lon="6.75386">
        <ele>763.2</ele>
        <time>2020-08-08T07:18:55Z</time>
      </trkpt>
      <trkpt lat="45.59555" lon="6.7539">
        <ele>763.3</ele>
        <time>2020-08-08T07:18:56Z</time>
      </trkpt>
      <trkpt lat="45.5956" lon="6.75393">
        <ele>763.4</ele>
        <time>2020-08-08T07:18:57Z</time>
      </trkpt>
      <trkpt lat="45.59566" lon="6.75396">
        <ele>763.5</ele>
        <time>2020-08-08T07:18:58Z</time>
      </trkpt>
      <trkpt lat="45.59575" lon="6.75408">
        <ele>763.6</ele>
        <time>2020-08-08T07:19:00Z</time>
      </trkpt>
      <trkpt lat="45.59579" lon="6.75415">
        <ele>763.7</ele>
        <time>2020-08-08T07:19:01Z</time>
      </trkpt>
      <trkpt lat="45.59589" lon="6.75425">
        <ele>763.7</ele>
        <time>2020-08-08T07:19:03Z</time>
      </trkpt>
      <trkpt lat="45.59595" lon="6.75426">
        <ele>763.7</ele>
        <time>2020-08-08T07:19:04Z</time>
      </trkpt>
      <trkpt lat="45.59608" lon="6.75429">
        <ele>763.7</ele>
        <time>2020-08-08T07:19:06Z</time>
      </trkpt>
      <trkpt lat="45.59614" lon="6.75431">
        <ele>763.7</ele>
        <time>2020-08-08T07:19:07Z</time>
      </trkpt>
      <trkpt lat="45.59626" lon="6.75438">
        <ele>763.6</ele>
        <time>2020-08-08T07:19:09Z</time>
      </trkpt>
      <trkpt lat="45.59636" lon="6.75446">
        <ele>763.5</ele>
        <time>2020-08-08T07:19:11Z</time>
      </trkpt>
      <trkpt lat="45.59642" lon="6.7545">
        <ele>763.5</ele>
        <time>2020-08-08T07:19:12Z</time>
      </trkpt>
      <trkpt lat="45.59649" lon="6.75454">
        <ele>763.5</ele>
        <time>2020-08-08T07:19:13Z</time>
      </trkpt>
      <trkpt lat="45.5966" lon="6.75462">
        <ele>763.5</ele>
        <time>2020-08-08T07:19:15Z</time>
      </trkpt>
      <trkpt lat="45.59671" lon="6.75471">
        <ele>763.7</ele>
        <time>2020-08-08T07:19:17Z</time>
      </trkpt>
      <trkpt lat="45.59677" lon="6.75476">
        <ele>763.8</ele>
        <time>2020-08-08T07:19:18Z</time>
      </trkpt>
      <trkpt lat="45.5969" lon="6.75486">
        <ele>764</ele>
        <time>2020-08-08T07:19:20Z</time>
      </trkpt>
      <trkpt lat="45.59705" lon="6.7549">
        <ele>764.2</ele>
        <time>2020-08-08T07:19:22Z</time>
      </trkpt>
      <trkpt lat="45.59718" lon="6.7549">
        <ele>764.3</ele>
        <time>2020-08-08T07:19:24Z</time>
      </trkpt>
      <trkpt lat="45.5973" lon="6.75496">
        <ele>764.4</ele>
        <time>2020-08-08T07:19:26Z</time>
      </trkpt>
      <trkpt lat="45.59736" lon="6.75503">
        <ele>764.4</ele>
        <time>2020-08-08T07:19:27Z</time>
      </trkpt>
      <trkpt lat="45.59741" lon="6.7551">
        <ele>764.4</ele>
        <time>2020-08-08T07:19:28Z</time>
      </trkpt>
      <trkpt lat="45.59749" lon="6.75525">
        <ele>764.5</ele>
        <time>2020-08-08T07:19:30Z</time>
      </trkpt>
      <trkpt lat="45.59754" lon="6.75533">
        <ele>764.6</ele>
        <time>2020-08-08T07:19:31Z</time>
      </trkpt>
      <trkpt lat="45.59762" lon="6.75548">
        <ele>764.8</ele>
        <time>2020-08-08T07:19:33Z</time>
      </trkpt>
      <trkpt lat="45.59769" lon="6.75564">
        <ele>765.1</ele>
        <time>2020-08-08T07:19:35Z</time>
      </trkpt>
      <trkpt lat="45.59773" lon="6.75572">
        <ele>765.2</ele>
        <time>2020-08-08T07:19:36Z</time>
      </trkpt>
      <trkpt lat="45.59776" lon="6.7558">
        <ele>765.4</ele>
        <time>2020-08-08T07:19:37Z</time>
      </trkpt>
      <trkpt lat="45.59782" lon="6.75595">
        <ele>765.8</ele>
        <time>2020-08-08T07:19:39Z</time>
      </trkpt>
      <trkpt lat="45.59788" lon="6.7561">
        <ele>766.1</ele>
        <time>2020-08-08T07:19:41Z</time>
      </trkpt>
      <trkpt lat="45.59793" lon="6.75624">
        <ele>766.4</ele>
        <time>2020-08-08T07:19:43Z</time>
      </trkpt>
      <trkpt lat="45.59796" lon="6.75631">
        <ele>766.5</ele>
        <time>2020-08-08T07:19:44Z</time>
      </trkpt>
      <trkpt lat="45.59801" lon="6.75645">
        <ele>766.8</ele>
        <time>2020-08-08T07:19:46Z</time>
      </trkpt>
      <trkpt lat="45.59801" lon="6.75654">
        <ele>767</ele>
        <time>2020-08-08T07:19:47Z</time>
      </trkpt>
      <trkpt lat="45.59801" lon="6.75662">
        <ele>767.2</ele>
        <time>2020-08-08T07:19:48Z</time>
      </trkpt>
      <trkpt lat="45.59801" lon="6.75679">
        <ele>767.4</ele>
        <time>2020-08-08T07:19:50Z</time>
      </trkpt>
      <trkpt lat="45.59801" lon="6.75687">
        <ele>767.6</ele>
        <time>2020-08-08T07:19:51Z</time>
      </trkpt>
      <trkpt lat="45.59802" lon="6.75703">
        <ele>767.8</ele>
        <time>2020-08-08T07:19:53Z</time>
      </trkpt>
      <trkpt lat="45.59803" lon="6.75711">
        <ele>767.9</ele>
        <time>2020-08-08T07:19:54Z</time>
      </trkpt>
      <trkpt lat="45.59805" lon="6.75719">
        <ele>768</ele>
        <time>2020-08-08T07:19:55Z</time>
      </trkpt>
      <trkpt lat="45.59809" lon="6.75734">
        <ele>768.3</ele>
        <time>2020-08-08T07:19:57Z</time>
      </trkpt>
      <trkpt lat="45.59818" lon="6.75745">
        <ele>768.6</ele>
        <time>2020-08-08T07:19:59Z</time>
      </trkpt>
      <trkpt lat="45.59827" lon="6.75754">
        <ele>769</ele>
        <time>2020-08-08T07:20:01Z</time>
      </trkpt>
      <trkpt lat="45.59831" lon="6.7576">
        <ele>769.2</ele>
        <time>2020-08-08T07:20:02Z</time>
      </trkpt>
      <trkpt lat="45.59836" lon="6.75774">
        <ele>769.7</ele>
        <time>2020-08-08T07:20:04Z</time>
      </trkpt>
      <trkpt lat="45.59838" lon="6.75789">
        <ele>770</ele>
        <time>2020-08-08T07:20:06Z</time>
      </trkpt>
      <trkpt lat="45.59841" lon="6.75802">
        <ele>770.3</ele>
        <time>2020-08-08T07:20:08Z</time>
      </trkpt>
      <trkpt lat="45.59845" lon="6.75807">
        <ele>770.5</ele>
        <time>2020-08-08T07:20:09Z</time>
      </trkpt>
      <trkpt lat="45.59854" lon="6.75813">
        <ele>770.8</ele>
        <time>2020-08-08T07:20:11Z</time>
      </trkpt>
      <trkpt lat="45.59863" lon="6.7582">
        <ele>771.1</ele>
        <time>2020-08-08T07:20:13Z</time>
      </trkpt>
      <trkpt lat="45.59871" lon="6.75832">
        <ele>771.4</ele>
        <time>2020-08-08T07:20:15Z</time>
      </trkpt>
      <trkpt lat="45.59874" lon="6.75837">
        <ele>771.6</ele>
        <time>2020-08-08T07:20:16Z</time>
      </trkpt>
      <trkpt lat="45.59881" lon="6.7585">
        <ele>772.1</ele>
        <time>2020-08-08T07:20:18Z</time>
      </trkpt>
      <trkpt lat="45.59886" lon="6.75862">
        <ele>772.6</ele>
        <time>2020-08-08T07:20:20Z</time>
      </trkpt>
      <trkpt lat="45.59888" lon="6.75868">
        <ele>772.8</ele>
        <time>2020-08-08T07:20:21Z</time>
      </trkpt>
      <trkpt lat="45.59892" lon="6.75881">
        <ele>773.3</ele>
        <time>2020-08-08T07:20:23Z</time>
      </trkpt>
      <trkpt lat="45.59898" lon="6.75892">
        <ele>773.6</ele>
        <time>2020-08-08T07:20:25Z</time>
      </trkpt>
      <trkpt lat="45.59907" lon="6.75894">
        <ele>773.8</ele>
        <time>2020-08-08T07:20:27Z</time>
      </trkpt>
      <trkpt lat="45.59918" lon="6.7589">
        <ele>773.7</ele>
        <time>2020-08-08T07:20:29Z</time>
      </trkpt>
      <trkpt lat="45.59923" lon="6.75888">
        <ele>773.7</ele>
        <time>2020-08-08T07:20:30Z</time>
      </trkpt>
      <trkpt lat="45.59928" lon="6.75886">
        <ele>773.6</ele>
        <time>2020-08-08T07:20:31Z</time>
      </trkpt>
      <trkpt lat="45.59934" lon="6.75888">
        <ele>773.4</ele>
        <time>2020-08-08T07:20:32Z</time>
      </trkpt>
      <trkpt lat="45.59947" lon="6.75901">
        <ele>773.4</ele>
        <time>2020-08-08T07:20:34Z</time>
      </trkpt>
      <trkpt lat="45.59953" lon="6.7591">
        <ele>774</ele>
        <time>2020-08-08T07:20:35Z</time>
      </trkpt>
      <trkpt lat="45.59957" lon="6.75916">
        <ele>774.6</ele>
        <time>2020-08-08T07:20:36Z</time>
      </trkpt>
      <trkpt lat="45.59963" lon="6.7593">
        <ele>775.5</ele>
        <time>2020-08-08T07:20:38Z</time>
      </trkpt>
      <trkpt lat="45.59966" lon="6.75943">
        <ele>776.1</ele>
        <time>2020-08-08T07:20:40Z</time>
      </trkpt>
      <trkpt lat="45.59969" lon="6.75946">
        <ele>776.2</ele>
        <time>2020-08-08T07:20:41Z</time>
      </trkpt>
      <trkpt lat="45.59979" lon="6.75952">
        <ele>776.4</ele>
        <time>2020-08-08T07:20:43Z</time>
      </trkpt>
      <trkpt lat="45.59984" lon="6.75954">
        <ele>776.4</ele>
        <time>2020-08-08T07:20:44Z</time>
      </trkpt>
      <trkpt lat="45.59994" lon="6.75963">
        <ele>776.4</ele>
        <time>2020-08-08T07:20:46Z</time>
      </trkpt>
      <trkpt lat="45.60002" lon="6.75974">
        <ele>776.3</ele>
        <time>2020-08-08T07:20:48Z</time>
      </trkpt>
      <trkpt lat="45.6001" lon="6.75985">
        <ele>776.3</ele>
        <time>2020-08-08T07:20:50Z</time>
      </trkpt>
      <trkpt lat="45.60015" lon="6.7599">
        <ele>776.4</ele>
        <time>2020-08-08T07:20:51Z</time>
      </trkpt>
      <trkpt lat="45.60019" lon="6.75995">
        <ele>776.4</ele>
        <time>2020-08-08T07:20:52Z</time>
      </trkpt>
      <trkpt lat="45.60028" lon="6.76005">
        <ele>776.4</ele>
        <time>2020-08-08T07:20:54Z</time>
      </trkpt>
      <trkpt lat="45.60032" lon="6.76011">
        <ele>776.4</ele>
        <time>2020-08-08T07:20:55Z</time>
      </trkpt>
      <trkpt lat="45.60042" lon="6.76021">
        <ele>776.4</ele>
        <time>2020-08-08T07:20:57Z</time>
      </trkpt>
      <trkpt lat="45.60051" lon="6.76034">
        <ele>776.5</ele>
        <time>2020-08-08T07:20:59Z</time>
      </trkpt>
      <trkpt lat="45.60058" lon="6.76049">
        <ele>776.6</ele>
        <time>2020-08-08T07:21:01Z</time>
      </trkpt>
      <trkpt lat="45.60064" lon="6.76063">
        <ele>776.6</ele>
        <time>2020-08-08T07:21:03Z</time>
      </trkpt>
      <trkpt lat="45.60068" lon="6.7607">
        <ele>776.6</ele>
        <time>2020-08-08T07:21:04Z</time>
      </trkpt>
      <trkpt lat="45.60074" lon="6.76086">
        <ele>776.5</ele>
        <time>2020-08-08T07:21:06Z</time>
      </trkpt>
      <trkpt lat="45.60076" lon="6.76096">
        <ele>776.5</ele>
        <time>2020-08-08T07:21:07Z</time>
      </trkpt>
      <trkpt lat="45.60075" lon="6.76115">
        <ele>776.7</ele>
        <time>2020-08-08T07:21:09Z</time>
      </trkpt>
      <trkpt lat="45.60074" lon="6.76124">
        <ele>776.9</ele>
        <time>2020-08-08T07:21:10Z</time>
      </trkpt>
      <trkpt lat="45.60073" lon="6.76133">
        <ele>777.2</ele>
        <time>2020-08-08T07:21:11Z</time>
      </trkpt>
      <trkpt lat="45.60073" lon="6.7614">
        <ele>777.4</ele>
        <time>2020-08-08T07:21:12Z</time>
      </trkpt>
      <trkpt lat="45.60073" lon="6.76155">
        <ele>777.7</ele>
        <time>2020-08-08T07:21:14Z</time>
      </trkpt>
      <trkpt lat="45.60074" lon="6.76163">
        <ele>777.8</ele>
        <time>2020-08-08T07:21:15Z</time>
      </trkpt>
      <trkpt lat="45.60075" lon="6.76179">
        <ele>777.9</ele>
        <time>2020-08-08T07:21:17Z</time>
      </trkpt>
      <trkpt lat="45.60076" lon="6.76187">
        <ele>777.9</ele>
        <time>2020-08-08T07:21:18Z</time>
      </trkpt>
      <trkpt lat="45.60077" lon="6.76195">
        <ele>777.9</ele>
        <time>2020-08-08T07:21:19Z</time>
      </trkpt>
      <trkpt lat="45.60081" lon="6.76213">
        <ele>777.9</ele>
        <time>2020-08-08T07:21:21Z</time>
      </trkpt>
      <trkpt lat="45.60084" lon="6.7623">
        <ele>778</ele>
        <time>2020-08-08T07:21:23Z</time>
      </trkpt>
      <trkpt lat="45.60089" lon="6.76248">
        <ele>778</ele>
        <time>2020-08-08T07:21:25Z</time>
      </trkpt>
      <trkpt lat="45.6009" lon="6.76256">
        <ele>778</ele>
        <time>2020-08-08T07:21:26Z</time>
      </trkpt>
      <trkpt lat="45.6009" lon="6.76265">
        <ele>778</ele>
        <time>2020-08-08T07:21:27Z</time>
      </trkpt>
      <trkpt lat="45.60086" lon="6.76283">
        <ele>778</ele>
        <time>2020-08-08T07:21:29Z</time>
      </trkpt>
      <trkpt lat="45.60083" lon="6.763">
        <ele>778.1</ele>
        <time>2020-08-08T07:21:31Z</time>
      </trkpt>
      <trkpt lat="45.60083" lon="6.76318">
        <ele>778.2</ele>
        <time>2020-08-08T07:21:33Z</time>
      </trkpt>
      <trkpt lat="45.60086" lon="6.76335">
        <ele>778.3</ele>
        <time>2020-08-08T07:21:35Z</time>
      </trkpt>
      <trkpt lat="45.60089" lon="6.7635">
        <ele>778.5</ele>
        <time>2020-08-08T07:21:37Z</time>
      </trkpt>
      <trkpt lat="45.60089" lon="6.76359">
        <ele>778.6</ele>
        <time>2020-08-08T07:21:38Z</time>
      </trkpt>
      <trkpt lat="45.60087" lon="6.76376">
        <ele>778.9</ele>
        <time>2020-08-08T07:21:40Z</time>
      </trkpt>
      <trkpt lat="45.60086" lon="6.76385">
        <ele>779.1</ele>
        <time>2020-08-08T07:21:41Z</time>
      </trkpt>
      <trkpt lat="45.60087" lon="6.76402">
        <ele>779.5</ele>
        <time>2020-08-08T07:21:43Z</time>
      </trkpt>
      <trkpt lat="45.60088" lon="6.76411">
        <ele>779.7</ele>
        <time>2020-08-08T07:21:44Z</time>
      </trkpt>
      <trkpt lat="45.60092" lon="6.76426">
        <ele>780.2</ele>
        <time>2020-08-08T07:21:46Z</time>
      </trkpt>
      <trkpt lat="45.60094" lon="6.76433">
        <ele>780.5</ele>
        <time>2020-08-08T07:21:47Z</time>
      </trkpt>
      <trkpt lat="45.60095" lon="6.76448">
        <ele>781</ele>
        <time>2020-08-08T07:21:49Z</time>
      </trkpt>
      <trkpt lat="45.60096" lon="6.76463">
        <ele>781.5</ele>
        <time>2020-08-08T07:21:51Z</time>
      </trkpt>
      <trkpt lat="45.60099" lon="6.76477">
        <ele>781.9</ele>
        <time>2020-08-08T07:21:53Z</time>
      </trkpt>
      <trkpt lat="45.60103" lon="6.76483">
        <ele>782.2</ele>
        <time>2020-08-08T07:21:54Z</time>
      </trkpt>
      <trkpt lat="45.60109" lon="6.76494">
        <ele>782.7</ele>
        <time>2020-08-08T07:21:56Z</time>
      </trkpt>
      <trkpt lat="45.60113" lon="6.76499">
        <ele>782.9</ele>
        <time>2020-08-08T07:21:57Z</time>
      </trkpt>
      <trkpt lat="45.60116" lon="6.76504">
        <ele>783.2</ele>
        <time>2020-08-08T07:21:58Z</time>
      </trkpt>
      <trkpt lat="45.60121" lon="6.76515">
        <ele>783.7</ele>
        <time>2020-08-08T07:22:00Z</time>
      </trkpt>
      <trkpt lat="45.60128" lon="6.76525">
        <ele>784.3</ele>
        <time>2020-08-08T07:22:02Z</time>
      </trkpt>
      <trkpt lat="45.60131" lon="6.76531">
        <ele>784.6</ele>
        <time>2020-08-08T07:22:03Z</time>
      </trkpt>
      <trkpt lat="45.60135" lon="6.76537">
        <ele>784.8</ele>
        <time>2020-08-08T07:22:04Z</time>
      </trkpt>
      <trkpt lat="45.60138" lon="6.76542">
        <ele>785</ele>
        <time>2020-08-08T07:22:05Z</time>
      </trkpt>
      <trkpt lat="45.60141" lon="6.76548">
        <ele>785.3</ele>
        <time>2020-08-08T07:22:06Z</time>
      </trkpt>
      <trkpt lat="45.60144" lon="6.76554">
        <ele>785.4</ele>
        <time>2020-08-08T07:22:07Z</time>
      </trkpt>
      <trkpt lat="45.60152" lon="6.76565">
        <ele>785.7</ele>
        <time>2020-08-08T07:22:09Z</time>
      </trkpt>
      <trkpt lat="45.60156" lon="6.76571">
        <ele>785.8</ele>
        <time>2020-08-08T07:22:10Z</time>
      </trkpt>
      <trkpt lat="45.60161" lon="6.76585">
        <ele>786</ele>
        <time>2020-08-08T07:22:12Z</time>
      </trkpt>
      <trkpt lat="45.60163" lon="6.76591">
        <ele>786</ele>
        <time>2020-08-08T07:22:13Z</time>
      </trkpt>
      <trkpt lat="45.60165" lon="6.76598">
        <ele>786</ele>
        <time>2020-08-08T07:22:14Z</time>
      </trkpt>
      <trkpt lat="45.6017" lon="6.76612">
        <ele>785.7</ele>
        <time>2020-08-08T07:22:16Z</time>
      </trkpt>
      <trkpt lat="45.60173" lon="6.76618">
        <ele>785.6</ele>
        <time>2020-08-08T07:22:17Z</time>
      </trkpt>
      <trkpt lat="45.60184" lon="6.7663">
        <ele>785.2</ele>
        <time>2020-08-08T07:22:19Z</time>
      </trkpt>
      <trkpt lat="45.60191" lon="6.76636">
        <ele>785</ele>
        <time>2020-08-08T07:22:20Z</time>
      </trkpt>
      <trkpt lat="45.60204" lon="6.76642">
        <ele>784.7</ele>
        <time>2020-08-08T07:22:22Z</time>
      </trkpt>
      <trkpt lat="45.6021" lon="6.76645">
        <ele>784.7</ele>
        <time>2020-08-08T07:22:23Z</time>
      </trkpt>
      <trkpt lat="45.60222" lon="6.7665">
        <ele>784.8</ele>
        <time>2020-08-08T07:22:25Z</time>
      </trkpt>
      <trkpt lat="45.60227" lon="6.76652">
        <ele>784.8</ele>
        <time>2020-08-08T07:22:26Z</time>
      </trkpt>
      <trkpt lat="45.60238" lon="6.76658">
        <ele>784.8</ele>
        <time>2020-08-08T07:22:28Z</time>
      </trkpt>
      <trkpt lat="45.60249" lon="6.76666">
        <ele>785.2</ele>
        <time>2020-08-08T07:22:30Z</time>
      </trkpt>
      <trkpt lat="45.60254" lon="6.76672">
        <ele>785.7</ele>
        <time>2020-08-08T07:22:31Z</time>
      </trkpt>
      <trkpt lat="45.60266" lon="6.76681">
        <ele>786.6</ele>
        <time>2020-08-08T07:22:33Z</time>
      </trkpt>
      <trkpt lat="45.60282" lon="6.76693">
        <ele>787.4</ele>
        <time>2020-08-08T07:22:36Z</time>
      </trkpt>
      <trkpt lat="45.60286" lon="6.76697">
        <ele>787.6</ele>
        <time>2020-08-08T07:22:37Z</time>
      </trkpt>
      <trkpt lat="45.60291" lon="6.76697">
        <ele>788</ele>
        <time>2020-08-08T07:22:38Z</time>
      </trkpt>
      <trkpt lat="45.60296" lon="6.76697">
        <ele>788.4</ele>
        <time>2020-08-08T07:22:39Z</time>
      </trkpt>
      <trkpt lat="45.60302" lon="6.76698">
        <ele>789</ele>
        <time>2020-08-08T07:22:41Z</time>
      </trkpt>
      <trkpt lat="45.60307" lon="6.76699">
        <ele>789.4</ele>
        <time>2020-08-08T07:22:43Z</time>
      </trkpt>
      <trkpt lat="45.60308" lon="6.76697">
        <ele>789.2</ele>
        <time>2020-08-08T07:22:45Z</time>
      </trkpt>
      <trkpt lat="45.60301" lon="6.76694">
        <ele>788.6</ele>
        <time>2020-08-08T07:22:47Z</time>
      </trkpt>
      <trkpt lat="45.60297" lon="6.76693">
        <ele>788.3</ele>
        <time>2020-08-08T07:22:48Z</time>
      </trkpt>
      <trkpt lat="45.60293" lon="6.76689">
        <ele>788</ele>
        <time>2020-08-08T07:22:50Z</time>
      </trkpt>
      <trkpt lat="45.60289" lon="6.76686">
        <ele>787.8</ele>
        <time>2020-08-08T07:22:51Z</time>
      </trkpt>
      <trkpt lat="45.6028" lon="6.76682">
        <ele>787.1</ele>
        <time>2020-08-08T07:22:53Z</time>
      </trkpt>
      <trkpt lat="45.60276" lon="6.76679">
        <ele>787.7</ele>
        <time>2020-08-08T07:22:55Z</time>
      </trkpt>
      <trkpt lat="45.60277" lon="6.76672">
        <ele>789.1</ele>
        <time>2020-08-08T07:22:57Z</time>
      </trkpt>
      <trkpt lat="45.60278" lon="6.76669">
        <ele>789.1</ele>
        <time>2020-08-08T07:22:58Z</time>
      </trkpt>
      <trkpt lat="45.60285" lon="6.76659">
        <ele>789.2</ele>
        <time>2020-08-08T07:23:01Z</time>
      </trkpt>
      <trkpt lat="45.6029" lon="6.76648">
        <ele>789.4</ele>
        <time>2020-08-08T07:23:03Z</time>
      </trkpt>
      <trkpt lat="45.60294" lon="6.7664">
        <ele>789.4</ele>
        <time>2020-08-08T07:23:04Z</time>
      </trkpt>
      <trkpt lat="45.60298" lon="6.7663">
        <ele>789.5</ele>
        <time>2020-08-08T07:23:05Z</time>
      </trkpt>
      <trkpt lat="45.60299" lon="6.76625">
        <ele>789.5</ele>
        <time>2020-08-08T07:23:07Z</time>
      </trkpt>
      <trkpt lat="45.60307" lon="6.76612">
        <ele>789.7</ele>
        <time>2020-08-08T07:23:09Z</time>
      </trkpt>
      <trkpt lat="45.60309" lon="6.76605">
        <ele>789.8</ele>
        <time>2020-08-08T07:23:10Z</time>
      </trkpt>
      <trkpt lat="45.60312" lon="6.76601">
        <ele>789.9</ele>
        <time>2020-08-08T07:23:12Z</time>
      </trkpt>
      <trkpt lat="45.60318" lon="6.76593">
        <ele>790.2</ele>
        <time>2020-08-08T07:23:14Z</time>
      </trkpt>
      <trkpt lat="45.60322" lon="6.76592">
        <ele>790.3</ele>
        <time>2020-08-08T07:23:16Z</time>
      </trkpt>
      <trkpt lat="45.60322" lon="6.76593">
        <ele>790.4</ele>
        <time>2020-08-08T07:23:19Z</time>
      </trkpt>
      <trkpt lat="45.60322" lon="6.76594">
        <ele>790.4</ele>
        <time>2020-08-08T07:23:20Z</time>
      </trkpt>
      <trkpt lat="45.60322" lon="6.76596">
        <ele>790.5</ele>
        <time>2020-08-08T07:23:21Z</time>
      </trkpt>
      <trkpt lat="45.60315" lon="6.76597">
        <ele>790.8</ele>
        <time>2020-08-08T07:23:23Z</time>
      </trkpt>
      <trkpt lat="45.60311" lon="6.766">
        <ele>791</ele>
        <time>2020-08-08T07:23:24Z</time>
      </trkpt>
      <trkpt lat="45.60306" lon="6.76607">
        <ele>791.4</ele>
        <time>2020-08-08T07:23:26Z</time>
      </trkpt>
      <trkpt lat="45.60312" lon="6.76617">
        <ele>791.8</ele>
        <time>2020-08-08T07:23:28Z</time>
      </trkpt>
      <trkpt lat="45.60318" lon="6.7662">
        <ele>792.1</ele>
        <time>2020-08-08T07:23:31Z</time>
      </trkpt>
      <trkpt lat="45.60329" lon="6.76633">
        <ele>792.8</ele>
        <time>2020-08-08T07:23:33Z</time>
      </trkpt>
      <trkpt lat="45.60333" lon="6.76638">
        <ele>793</ele>
        <time>2020-08-08T07:23:35Z</time>
      </trkpt>
      <trkpt lat="45.60336" lon="6.76642">
        <ele>793.1</ele>
        <time>2020-08-08T07:23:37Z</time>
      </trkpt>
      <trkpt lat="45.6034" lon="6.76648">
        <ele>793.2</ele>
        <time>2020-08-08T07:23:39Z</time>
      </trkpt>
      <trkpt lat="45.60344" lon="6.76653">
        <ele>793.3</ele>
        <time>2020-08-08T07:23:40Z</time>
      </trkpt>
      <trkpt lat="45.60346" lon="6.76657">
        <ele>793.2</ele>
        <time>2020-08-08T07:23:42Z</time>
      </trkpt>
      <trkpt lat="45.6035" lon="6.76662">
        <ele>793.2</ele>
        <time>2020-08-08T07:23:43Z</time>
      </trkpt>
      <trkpt lat="45.60353" lon="6.76665">
        <ele>793.1</ele>
        <time>2020-08-08T07:23:45Z</time>
      </trkpt>
      <trkpt lat="45.60357" lon="6.76669">
        <ele>792.9</ele>
        <time>2020-08-08T07:23:46Z</time>
      </trkpt>
      <trkpt lat="45.6036" lon="6.76673">
        <ele>792.7</ele>
        <time>2020-08-08T07:23:47Z</time>
      </trkpt>
      <trkpt lat="45.60362" lon="6.76676">
        <ele>792.5</ele>
        <time>2020-08-08T07:23:49Z</time>
      </trkpt>
      <trkpt lat="45.60365" lon="6.76679">
        <ele>792.3</ele>
        <time>2020-08-08T07:23:50Z</time>
      </trkpt>
      <trkpt lat="45.60368" lon="6.76682">
        <ele>792.2</ele>
        <time>2020-08-08T07:23:51Z</time>
      </trkpt>
      <trkpt lat="45.60372" lon="6.76688">
        <ele>791.9</ele>
        <time>2020-08-08T07:23:53Z</time>
      </trkpt>
      <trkpt lat="45.60374" lon="6.76693">
        <ele>791.7</ele>
        <time>2020-08-08T07:23:54Z</time>
      </trkpt>
      <trkpt lat="45.60377" lon="6.76704">
        <ele>791.4</ele>
        <time>2020-08-08T07:23:55Z</time>
      </trkpt>
      <trkpt lat="45.60382" lon="6.76719">
        <ele>791.3</ele>
        <time>2020-08-08T07:23:57Z</time>
      </trkpt>
      <trkpt lat="45.60386" lon="6.76734">
        <ele>791.3</ele>
        <time>2020-08-08T07:23:59Z</time>
      </trkpt>
      <trkpt lat="45.60397" lon="6.76752">
        <ele>791.6</ele>
        <time>2020-08-08T07:24:01Z</time>
      </trkpt>
      <trkpt lat="45.6041" lon="6.76764">
        <ele>791.8</ele>
        <time>2020-08-08T07:24:03Z</time>
      </trkpt>
      <trkpt lat="45.60421" lon="6.76771">
        <ele>792</ele>
        <time>2020-08-08T07:24:05Z</time>
      </trkpt>
      <trkpt lat="45.6043" lon="6.76779">
        <ele>792.3</ele>
        <time>2020-08-08T07:24:07Z</time>
      </trkpt>
      <trkpt lat="45.60441" lon="6.76789">
        <ele>792.6</ele>
        <time>2020-08-08T07:24:09Z</time>
      </trkpt>
      <trkpt lat="45.60451" lon="6.768">
        <ele>792.9</ele>
        <time>2020-08-08T07:24:11Z</time>
      </trkpt>
      <trkpt lat="45.6046" lon="6.76811">
        <ele>793.3</ele>
        <time>2020-08-08T07:24:13Z</time>
      </trkpt>
      <trkpt lat="45.60469" lon="6.7682">
        <ele>793.6</ele>
        <time>2020-08-08T07:24:15Z</time>
      </trkpt>
      <trkpt lat="45.60473" lon="6.76826">
        <ele>793.7</ele>
        <time>2020-08-08T07:24:16Z</time>
      </trkpt>
      <trkpt lat="45.60481" lon="6.76835">
        <ele>794</ele>
        <time>2020-08-08T07:24:18Z</time>
      </trkpt>
      <trkpt lat="45.6049" lon="6.76844">
        <ele>794.3</ele>
        <time>2020-08-08T07:24:20Z</time>
      </trkpt>
      <trkpt lat="45.60499" lon="6.76854">
        <ele>794.6</ele>
        <time>2020-08-08T07:24:22Z</time>
      </trkpt>
      <trkpt lat="45.60508" lon="6.76865">
        <ele>794.9</ele>
        <time>2020-08-08T07:24:24Z</time>
      </trkpt>
      <trkpt lat="45.60512" lon="6.76872">
        <ele>795.1</ele>
        <time>2020-08-08T07:24:25Z</time>
      </trkpt>
      <trkpt lat="45.60518" lon="6.76886">
        <ele>795.4</ele>
        <time>2020-08-08T07:24:27Z</time>
      </trkpt>
      <trkpt lat="45.60524" lon="6.76899">
        <ele>795.8</ele>
        <time>2020-08-08T07:24:29Z</time>
      </trkpt>
      <trkpt lat="45.60527" lon="6.76906">
        <ele>796</ele>
        <time>2020-08-08T07:24:30Z</time>
      </trkpt>
      <trkpt lat="45.60529" lon="6.76919">
        <ele>796.4</ele>
        <time>2020-08-08T07:24:32Z</time>
      </trkpt>
      <trkpt lat="45.60531" lon="6.76925">
        <ele>796.6</ele>
        <time>2020-08-08T07:24:33Z</time>
      </trkpt>
      <trkpt lat="45.60534" lon="6.76938">
        <ele>796.9</ele>
        <time>2020-08-08T07:24:35Z</time>
      </trkpt>
      <trkpt lat="45.60537" lon="6.76945">
        <ele>797</ele>
        <time>2020-08-08T07:24:36Z</time>
      </trkpt>
      <trkpt lat="45.6054" lon="6.76951">
        <ele>797.2</ele>
        <time>2020-08-08T07:24:37Z</time>
      </trkpt>
      <trkpt lat="45.60548" lon="6.76961">
        <ele>797.6</ele>
        <time>2020-08-08T07:24:39Z</time>
      </trkpt>
      <trkpt lat="45.60556" lon="6.76971">
        <ele>798</ele>
        <time>2020-08-08T07:24:41Z</time>
      </trkpt>
      <trkpt lat="45.60559" lon="6.76975">
        <ele>798.2</ele>
        <time>2020-08-08T07:24:42Z</time>
      </trkpt>
      <trkpt lat="45.60566" lon="6.7698">
        <ele>798.5</ele>
        <time>2020-08-08T07:24:44Z</time>
      </trkpt>
      <trkpt lat="45.60571" lon="6.76985">
        <ele>798.9</ele>
        <time>2020-08-08T07:24:46Z</time>
      </trkpt>
      <trkpt lat="45.60574" lon="6.76987">
        <ele>799.1</ele>
        <time>2020-08-08T07:24:47Z</time>
      </trkpt>
      <trkpt lat="45.60579" lon="6.76989">
        <ele>799.4</ele>
        <time>2020-08-08T07:24:49Z</time>
      </trkpt>
      <trkpt lat="45.60589" lon="6.76991">
        <ele>800.2</ele>
        <time>2020-08-08T07:24:51Z</time>
      </trkpt>
      <trkpt lat="45.60593" lon="6.76992">
        <ele>800.5</ele>
        <time>2020-08-08T07:24:54Z</time>
      </trkpt>
      <trkpt lat="45.60592" lon="6.76991">
        <ele>800.6</ele>
        <time>2020-08-08T07:24:55Z</time>
      </trkpt>
      <trkpt lat="45.60595" lon="6.7699">
        <ele>800.8</ele>
        <time>2020-08-08T07:24:57Z</time>
      </trkpt>
      <trkpt lat="45.60599" lon="6.76992">
        <ele>801.1</ele>
        <time>2020-08-08T07:24:59Z</time>
      </trkpt>
      <trkpt lat="45.60601" lon="6.76993">
        <ele>801.3</ele>
        <time>2020-08-08T07:25:00Z</time>
      </trkpt>
      <trkpt lat="45.60608" lon="6.76997">
        <ele>801.7</ele>
        <time>2020-08-08T07:25:02Z</time>
      </trkpt>
      <trkpt lat="45.60616" lon="6.77006">
        <ele>802</ele>
        <time>2020-08-08T07:25:05Z</time>
      </trkpt>
      <trkpt lat="45.60619" lon="6.77012">
        <ele>802</ele>
        <time>2020-08-08T07:25:06Z</time>
      </trkpt>
      <trkpt lat="45.60622" lon="6.77017">
        <ele>802.2</ele>
        <time>2020-08-08T07:25:07Z</time>
      </trkpt>
      <trkpt lat="45.60625" lon="6.77023">
        <ele>802.4</ele>
        <time>2020-08-08T07:25:08Z</time>
      </trkpt>
      <trkpt lat="45.60628" lon="6.77029">
        <ele>802.5</ele>
        <time>2020-08-08T07:25:10Z</time>
      </trkpt>
      <trkpt lat="45.60634" lon="6.77035">
        <ele>802.7</ele>
        <time>2020-08-08T07:25:11Z</time>
      </trkpt>
      <trkpt lat="45.60639" lon="6.77039">
        <ele>802.9</ele>
        <time>2020-08-08T07:25:13Z</time>
      </trkpt>
      <trkpt lat="45.60642" lon="6.77041">
        <ele>803</ele>
        <time>2020-08-08T07:25:15Z</time>
      </trkpt>
      <trkpt lat="45.60648" lon="6.77048">
        <ele>803.2</ele>
        <time>2020-08-08T07:25:16Z</time>
      </trkpt>
      <trkpt lat="45.60653" lon="6.77052">
        <ele>803.3</ele>
        <time>2020-08-08T07:25:18Z</time>
      </trkpt>
      <trkpt lat="45.60662" lon="6.77056">
        <ele>803.6</ele>
        <time>2020-08-08T07:25:20Z</time>
      </trkpt>
      <trkpt lat="45.60674" lon="6.7706">
        <ele>803.9</ele>
        <time>2020-08-08T07:25:21Z</time>
      </trkpt>
      <trkpt lat="45.60685" lon="6.77064">
        <ele>804.1</ele>
        <time>2020-08-08T07:25:24Z</time>
      </trkpt>
      <trkpt lat="45.60691" lon="6.77066">
        <ele>804.2</ele>
        <time>2020-08-08T07:25:27Z</time>
      </trkpt>
      <trkpt lat="45.60702" lon="6.77071">
        <ele>804.2</ele>
        <time>2020-08-08T07:25:29Z</time>
      </trkpt>
      <trkpt lat="45.60707" lon="6.77074">
        <ele>804.2</ele>
        <time>2020-08-08T07:25:30Z</time>
      </trkpt>
      <trkpt lat="45.60717" lon="6.77078">
        <ele>804.2</ele>
        <time>2020-08-08T07:25:32Z</time>
      </trkpt>
      <trkpt lat="45.60722" lon="6.7708">
        <ele>804.2</ele>
        <time>2020-08-08T07:25:33Z</time>
      </trkpt>
      <trkpt lat="45.60727" lon="6.77083">
        <ele>804.3</ele>
        <time>2020-08-08T07:25:34Z</time>
      </trkpt>
      <trkpt lat="45.60737" lon="6.77089">
        <ele>804.3</ele>
        <time>2020-08-08T07:25:36Z</time>
      </trkpt>
      <trkpt lat="45.60747" lon="6.77095">
        <ele>804.4</ele>
        <time>2020-08-08T07:25:38Z</time>
      </trkpt>
      <trkpt lat="45.60752" lon="6.77099">
        <ele>804.5</ele>
        <time>2020-08-08T07:25:39Z</time>
      </trkpt>
      <trkpt lat="45.60761" lon="6.77106">
        <ele>804.7</ele>
        <time>2020-08-08T07:25:41Z</time>
      </trkpt>
      <trkpt lat="45.6077" lon="6.77112">
        <ele>805</ele>
        <time>2020-08-08T07:25:43Z</time>
      </trkpt>
      <trkpt lat="45.60774" lon="6.77115">
        <ele>805.1</ele>
        <time>2020-08-08T07:25:44Z</time>
      </trkpt>
      <trkpt lat="45.60783" lon="6.77121">
        <ele>805.2</ele>
        <time>2020-08-08T07:25:46Z</time>
      </trkpt>
      <trkpt lat="45.60788" lon="6.77124">
        <ele>805.3</ele>
        <time>2020-08-08T07:25:47Z</time>
      </trkpt>
      <trkpt lat="45.60792" lon="6.77126">
        <ele>805.4</ele>
        <time>2020-08-08T07:25:48Z</time>
      </trkpt>
      <trkpt lat="45.60797" lon="6.77129">
        <ele>805.5</ele>
        <time>2020-08-08T07:25:49Z</time>
      </trkpt>
      <trkpt lat="45.60807" lon="6.77134">
        <ele>805.7</ele>
        <time>2020-08-08T07:25:51Z</time>
      </trkpt>
      <trkpt lat="45.60811" lon="6.77136">
        <ele>805.8</ele>
        <time>2020-08-08T07:25:52Z</time>
      </trkpt>
      <trkpt lat="45.60821" lon="6.77139">
        <ele>806</ele>
        <time>2020-08-08T07:25:54Z</time>
      </trkpt>
      <trkpt lat="45.60831" lon="6.77142">
        <ele>806.2</ele>
        <time>2020-08-08T07:25:56Z</time>
      </trkpt>
      <trkpt lat="45.60836" lon="6.77143">
        <ele>806.3</ele>
        <time>2020-08-08T07:25:57Z</time>
      </trkpt>
      <trkpt lat="45.60846" lon="6.77146">
        <ele>806.4</ele>
        <time>2020-08-08T07:25:59Z</time>
      </trkpt>
      <trkpt lat="45.60858" lon="6.7715">
        <ele>806.6</ele>
        <time>2020-08-08T07:26:01Z</time>
      </trkpt>
      <trkpt lat="45.60869" lon="6.77154">
        <ele>806.8</ele>
        <time>2020-08-08T07:26:03Z</time>
      </trkpt>
      <trkpt lat="45.6088" lon="6.77158">
        <ele>807</ele>
        <time>2020-08-08T07:26:05Z</time>
      </trkpt>
      <trkpt lat="45.60886" lon="6.7716">
        <ele>807.1</ele>
        <time>2020-08-08T07:26:06Z</time>
      </trkpt>
      <trkpt lat="45.60898" lon="6.77165">
        <ele>807.5</ele>
        <time>2020-08-08T07:26:08Z</time>
      </trkpt>
      <trkpt lat="45.60903" lon="6.77167">
        <ele>807.7</ele>
        <time>2020-08-08T07:26:09Z</time>
      </trkpt>
      <trkpt lat="45.60915" lon="6.77171">
        <ele>808.2</ele>
        <time>2020-08-08T07:26:11Z</time>
      </trkpt>
      <trkpt lat="45.60925" lon="6.77174">
        <ele>808.6</ele>
        <time>2020-08-08T07:26:13Z</time>
      </trkpt>
      <trkpt lat="45.60934" lon="6.77177">
        <ele>808.9</ele>
        <time>2020-08-08T07:26:15Z</time>
      </trkpt>
      <trkpt lat="45.60944" lon="6.7718">
        <ele>809.2</ele>
        <time>2020-08-08T07:26:17Z</time>
      </trkpt>
      <trkpt lat="45.60949" lon="6.77181">
        <ele>809.3</ele>
        <time>2020-08-08T07:26:18Z</time>
      </trkpt>
      <trkpt lat="45.60959" lon="6.77184">
        <ele>809.4</ele>
        <time>2020-08-08T07:26:20Z</time>
      </trkpt>
      <trkpt lat="45.60968" lon="6.77187">
        <ele>809.4</ele>
        <time>2020-08-08T07:26:22Z</time>
      </trkpt>
      <trkpt lat="45.60978" lon="6.77192">
        <ele>809.4</ele>
        <time>2020-08-08T07:26:24Z</time>
      </trkpt>
      <trkpt lat="45.60984" lon="6.77194">
        <ele>809.3</ele>
        <time>2020-08-08T07:26:25Z</time>
      </trkpt>
      <trkpt lat="45.60995" lon="6.77198">
        <ele>809.3</ele>
        <time>2020-08-08T07:26:27Z</time>
      </trkpt>
      <trkpt lat="45.61006" lon="6.77199">
        <ele>809.4</ele>
        <time>2020-08-08T07:26:29Z</time>
      </trkpt>
      <trkpt lat="45.61018" lon="6.77201">
        <ele>809.5</ele>
        <time>2020-08-08T07:26:31Z</time>
      </trkpt>
      <trkpt lat="45.61023" lon="6.77202">
        <ele>809.5</ele>
        <time>2020-08-08T07:26:32Z</time>
      </trkpt>
      <trkpt lat="45.61029" lon="6.77204">
        <ele>809.6</ele>
        <time>2020-08-08T07:26:33Z</time>
      </trkpt>
      <trkpt lat="45.61035" lon="6.77207">
        <ele>809.7</ele>
        <time>2020-08-08T07:26:34Z</time>
      </trkpt>
      <trkpt lat="45.61045" lon="6.77213">
        <ele>809.8</ele>
        <time>2020-08-08T07:26:36Z</time>
      </trkpt>
      <trkpt lat="45.61055" lon="6.77219">
        <ele>809.9</ele>
        <time>2020-08-08T07:26:38Z</time>
      </trkpt>
      <trkpt lat="45.6106" lon="6.77222">
        <ele>810</ele>
        <time>2020-08-08T07:26:39Z</time>
      </trkpt>
      <trkpt lat="45.61066" lon="6.77225">
        <ele>810</ele>
        <time>2020-08-08T07:26:40Z</time>
      </trkpt>
      <trkpt lat="45.61076" lon="6.77233">
        <ele>810.2</ele>
        <time>2020-08-08T07:26:42Z</time>
      </trkpt>
      <trkpt lat="45.61082" lon="6.77237">
        <ele>810.2</ele>
        <time>2020-08-08T07:26:43Z</time>
      </trkpt>
      <trkpt lat="45.61087" lon="6.77241">
        <ele>810.3</ele>
        <time>2020-08-08T07:26:44Z</time>
      </trkpt>
      <trkpt lat="45.61092" lon="6.77244">
        <ele>810.3</ele>
        <time>2020-08-08T07:26:45Z</time>
      </trkpt>
      <trkpt lat="45.61103" lon="6.77252">
        <ele>810.3</ele>
        <time>2020-08-08T07:26:47Z</time>
      </trkpt>
      <trkpt lat="45.61108" lon="6.77256">
        <ele>810.3</ele>
        <time>2020-08-08T07:26:48Z</time>
      </trkpt>
      <trkpt lat="45.61113" lon="6.7726">
        <ele>810.3</ele>
        <time>2020-08-08T07:26:49Z</time>
      </trkpt>
      <trkpt lat="45.61122" lon="6.77271">
        <ele>810.3</ele>
        <time>2020-08-08T07:26:51Z</time>
      </trkpt>
      <trkpt lat="45.61127" lon="6.77276">
        <ele>810.3</ele>
        <time>2020-08-08T07:26:52Z</time>
      </trkpt>
      <trkpt lat="45.61136" lon="6.77288">
        <ele>810.2</ele>
        <time>2020-08-08T07:26:54Z</time>
      </trkpt>
      <trkpt lat="45.61141" lon="6.77293">
        <ele>810.1</ele>
        <time>2020-08-08T07:26:55Z</time>
      </trkpt>
      <trkpt lat="45.61146" lon="6.77299">
        <ele>810</ele>
        <time>2020-08-08T07:26:56Z</time>
      </trkpt>
      <trkpt lat="45.61151" lon="6.77305">
        <ele>809.9</ele>
        <time>2020-08-08T07:26:57Z</time>
      </trkpt>
      <trkpt lat="45.61156" lon="6.7731">
        <ele>809.8</ele>
        <time>2020-08-08T07:26:58Z</time>
      </trkpt>
      <trkpt lat="45.61164" lon="6.77321">
        <ele>809.7</ele>
        <time>2020-08-08T07:27:00Z</time>
      </trkpt>
      <trkpt lat="45.61166" lon="6.77329">
        <ele>809.7</ele>
        <time>2020-08-08T07:27:01Z</time>
      </trkpt>
      <trkpt lat="45.61167" lon="6.77345">
        <ele>809.7</ele>
        <time>2020-08-08T07:27:03Z</time>
      </trkpt>
      <trkpt lat="45.6117" lon="6.77353">
        <ele>809.7</ele>
        <time>2020-08-08T07:27:05Z</time>
      </trkpt>
      <trkpt lat="45.61174" lon="6.77355">
        <ele>809.6</ele>
        <time>2020-08-08T07:27:07Z</time>
      </trkpt>
      <trkpt lat="45.61178" lon="6.77356">
        <ele>809.6</ele>
        <time>2020-08-08T07:27:08Z</time>
      </trkpt>
      <trkpt lat="45.6118" lon="6.77357">
        <ele>809.6</ele>
        <time>2020-08-08T07:27:09Z</time>
      </trkpt>
      <trkpt lat="45.61185" lon="6.77358">
        <ele>809.5</ele>
        <time>2020-08-08T07:27:11Z</time>
      </trkpt>
      <trkpt lat="45.61189" lon="6.77361">
        <ele>809.4</ele>
        <time>2020-08-08T07:27:12Z</time>
      </trkpt>
      <trkpt lat="45.61192" lon="6.7736">
        <ele>809.4</ele>
        <time>2020-08-08T07:27:13Z</time>
      </trkpt>
      <trkpt lat="45.61196" lon="6.77364">
        <ele>809.3</ele>
        <time>2020-08-08T07:27:15Z</time>
      </trkpt>
      <trkpt lat="45.61206" lon="6.77375">
        <ele>809.1</ele>
        <time>2020-08-08T07:27:17Z</time>
      </trkpt>
      <trkpt lat="45.61214" lon="6.77387">
        <ele>809</ele>
        <time>2020-08-08T07:27:19Z</time>
      </trkpt>
      <trkpt lat="45.6122" lon="6.77399">
        <ele>808.9</ele>
        <time>2020-08-08T07:27:21Z</time>
      </trkpt>
      <trkpt lat="45.61227" lon="6.77411">
        <ele>808.7</ele>
        <time>2020-08-08T07:27:23Z</time>
      </trkpt>
      <trkpt lat="45.61231" lon="6.77418">
        <ele>808.6</ele>
        <time>2020-08-08T07:27:24Z</time>
      </trkpt>
      <trkpt lat="45.61239" lon="6.77432">
        <ele>808.4</ele>
        <time>2020-08-08T07:27:26Z</time>
      </trkpt>
      <trkpt lat="45.61245" lon="6.77445">
        <ele>808.4</ele>
        <time>2020-08-08T07:27:28Z</time>
      </trkpt>
      <trkpt lat="45.61252" lon="6.77459">
        <ele>808.4</ele>
        <time>2020-08-08T07:27:30Z</time>
      </trkpt>
      <trkpt lat="45.61257" lon="6.77474">
        <ele>808.5</ele>
        <time>2020-08-08T07:27:32Z</time>
      </trkpt>
      <trkpt lat="45.61259" lon="6.77482">
        <ele>808.5</ele>
        <time>2020-08-08T07:27:33Z</time>
      </trkpt>
      <trkpt lat="45.61265" lon="6.77495">
        <ele>808.6</ele>
        <time>2020-08-08T07:27:35Z</time>
      </trkpt>
      <trkpt lat="45.61273" lon="6.77506">
        <ele>808.6</ele>
        <time>2020-08-08T07:27:37Z</time>
      </trkpt>
      <trkpt lat="45.61278" lon="6.7751">
        <ele>808.6</ele>
        <time>2020-08-08T07:27:38Z</time>
      </trkpt>
      <trkpt lat="45.61283" lon="6.77514">
        <ele>808.7</ele>
        <time>2020-08-08T07:27:39Z</time>
      </trkpt>
      <trkpt lat="45.61294" lon="6.7752">
        <ele>808.7</ele>
        <time>2020-08-08T07:27:41Z</time>
      </trkpt>
      <trkpt lat="45.613" lon="6.77523">
        <ele>808.7</ele>
        <time>2020-08-08T07:27:42Z</time>
      </trkpt>
      <trkpt lat="45.61305" lon="6.77527">
        <ele>808.6</ele>
        <time>2020-08-08T07:27:43Z</time>
      </trkpt>
      <trkpt lat="45.61311" lon="6.77531">
        <ele>808.6</ele>
        <time>2020-08-08T07:27:44Z</time>
      </trkpt>
      <trkpt lat="45.6132" lon="6.77541">
        <ele>808.6</ele>
        <time>2020-08-08T07:27:46Z</time>
      </trkpt>
      <trkpt lat="45.61329" lon="6.77552">
        <ele>808.6</ele>
        <time>2020-08-08T07:27:48Z</time>
      </trkpt>
      <trkpt lat="45.61339" lon="6.77561">
        <ele>808.5</ele>
        <time>2020-08-08T07:27:50Z</time>
      </trkpt>
      <trkpt lat="45.61345" lon="6.77565">
        <ele>808.5</ele>
        <time>2020-08-08T07:27:51Z</time>
      </trkpt>
      <trkpt lat="45.61357" lon="6.77569">
        <ele>808.4</ele>
        <time>2020-08-08T07:27:53Z</time>
      </trkpt>
      <trkpt lat="45.61363" lon="6.77571">
        <ele>808.4</ele>
        <time>2020-08-08T07:27:54Z</time>
      </trkpt>
      <trkpt lat="45.61369" lon="6.77573">
        <ele>808.4</ele>
        <time>2020-08-08T07:27:55Z</time>
      </trkpt>
      <trkpt lat="45.61381" lon="6.77573">
        <ele>808.4</ele>
        <time>2020-08-08T07:27:57Z</time>
      </trkpt>
      <trkpt lat="45.61387" lon="6.77573">
        <ele>808.3</ele>
        <time>2020-08-08T07:27:58Z</time>
      </trkpt>
      <trkpt lat="45.61398" lon="6.77573">
        <ele>808.3</ele>
        <time>2020-08-08T07:28:00Z</time>
      </trkpt>
      <trkpt lat="45.61409" lon="6.77571">
        <ele>808.3</ele>
        <time>2020-08-08T07:28:02Z</time>
      </trkpt>
      <trkpt lat="45.61419" lon="6.77565">
        <ele>808.3</ele>
        <time>2020-08-08T07:28:04Z</time>
      </trkpt>
      <trkpt lat="45.61431" lon="6.7756">
        <ele>808.3</ele>
        <time>2020-08-08T07:28:06Z</time>
      </trkpt>
      <trkpt lat="45.61438" lon="6.77558">
        <ele>808.3</ele>
        <time>2020-08-08T07:28:07Z</time>
      </trkpt>
      <trkpt lat="45.61451" lon="6.77553">
        <ele>808.5</ele>
        <time>2020-08-08T07:28:09Z</time>
      </trkpt>
      <trkpt lat="45.61463" lon="6.77548">
        <ele>808.5</ele>
        <time>2020-08-08T07:28:11Z</time>
      </trkpt>
      <trkpt lat="45.61469" lon="6.77545">
        <ele>808.5</ele>
        <time>2020-08-08T07:28:12Z</time>
      </trkpt>
      <trkpt lat="45.61475" lon="6.77542">
        <ele>808.6</ele>
        <time>2020-08-08T07:28:13Z</time>
      </trkpt>
      <trkpt lat="45.61481" lon="6.7754">
        <ele>808.6</ele>
        <time>2020-08-08T07:28:14Z</time>
      </trkpt>
      <trkpt lat="45.61492" lon="6.77536">
        <ele>808.6</ele>
        <time>2020-08-08T07:28:16Z</time>
      </trkpt>
      <trkpt lat="45.61503" lon="6.77532">
        <ele>808.7</ele>
        <time>2020-08-08T07:28:18Z</time>
      </trkpt>
      <trkpt lat="45.61509" lon="6.7753">
        <ele>808.7</ele>
        <time>2020-08-08T07:28:19Z</time>
      </trkpt>
      <trkpt lat="45.6152" lon="6.77523">
        <ele>808.8</ele>
        <time>2020-08-08T07:28:21Z</time>
      </trkpt>
      <trkpt lat="45.61526" lon="6.7752">
        <ele>808.7</ele>
        <time>2020-08-08T07:28:22Z</time>
      </trkpt>
      <trkpt lat="45.61538" lon="6.77516">
        <ele>808.7</ele>
        <time>2020-08-08T07:28:24Z</time>
      </trkpt>
      <trkpt lat="45.61549" lon="6.77511">
        <ele>808.7</ele>
        <time>2020-08-08T07:28:26Z</time>
      </trkpt>
      <trkpt lat="45.61555" lon="6.77509">
        <ele>808.7</ele>
        <time>2020-08-08T07:28:27Z</time>
      </trkpt>
      <trkpt lat="45.61566" lon="6.77504">
        <ele>808.7</ele>
        <time>2020-08-08T07:28:29Z</time>
      </trkpt>
      <trkpt lat="45.61571" lon="6.77502">
        <ele>808.7</ele>
        <time>2020-08-08T07:28:30Z</time>
      </trkpt>
      <trkpt lat="45.61577" lon="6.77499">
        <ele>808.7</ele>
        <time>2020-08-08T07:28:31Z</time>
      </trkpt>
      <trkpt lat="45.61588" lon="6.77496">
        <ele>808.8</ele>
        <time>2020-08-08T07:28:33Z</time>
      </trkpt>
      <trkpt lat="45.61594" lon="6.77496">
        <ele>808.9</ele>
        <time>2020-08-08T07:28:34Z</time>
      </trkpt>
      <trkpt lat="45.616" lon="6.77496">
        <ele>808.9</ele>
        <time>2020-08-08T07:28:35Z</time>
      </trkpt>
      <trkpt lat="45.6161" lon="6.77497">
        <ele>809</ele>
        <time>2020-08-08T07:28:37Z</time>
      </trkpt>
      <trkpt lat="45.61615" lon="6.77498">
        <ele>809</ele>
        <time>2020-08-08T07:28:38Z</time>
      </trkpt>
      <trkpt lat="45.61626" lon="6.77499">
        <ele>808.9</ele>
        <time>2020-08-08T07:28:40Z</time>
      </trkpt>
      <trkpt lat="45.61639" lon="6.77497">
        <ele>808.7</ele>
        <time>2020-08-08T07:28:42Z</time>
      </trkpt>
      <trkpt lat="45.61651" lon="6.77494">
        <ele>808.5</ele>
        <time>2020-08-08T07:28:44Z</time>
      </trkpt>
      <trkpt lat="45.61657" lon="6.77491">
        <ele>808.4</ele>
        <time>2020-08-08T07:28:45Z</time>
      </trkpt>
      <trkpt lat="45.61669" lon="6.77484">
        <ele>808.3</ele>
        <time>2020-08-08T07:28:47Z</time>
      </trkpt>
      <trkpt lat="45.61682" lon="6.77476">
        <ele>808.4</ele>
        <time>2020-08-08T07:28:49Z</time>
      </trkpt>
      <trkpt lat="45.61688" lon="6.77471">
        <ele>808.4</ele>
        <time>2020-08-08T07:28:50Z</time>
      </trkpt>
      <trkpt lat="45.61694" lon="6.77466">
        <ele>808.5</ele>
        <time>2020-08-08T07:28:51Z</time>
      </trkpt>
      <trkpt lat="45.61705" lon="6.77458">
        <ele>808.6</ele>
        <time>2020-08-08T07:28:53Z</time>
      </trkpt>
      <trkpt lat="45.61717" lon="6.77453">
        <ele>808.7</ele>
        <time>2020-08-08T07:28:55Z</time>
      </trkpt>
      <trkpt lat="45.61723" lon="6.77452">
        <ele>808.8</ele>
        <time>2020-08-08T07:28:56Z</time>
      </trkpt>
      <trkpt lat="45.61736" lon="6.7745">
        <ele>808.8</ele>
        <time>2020-08-08T07:28:58Z</time>
      </trkpt>
      <trkpt lat="45.61742" lon="6.77448">
        <ele>808.7</ele>
        <time>2020-08-08T07:28:59Z</time>
      </trkpt>
      <trkpt lat="45.61754" lon="6.77442">
        <ele>808.6</ele>
        <time>2020-08-08T07:29:01Z</time>
      </trkpt>
      <trkpt lat="45.61766" lon="6.77433">
        <ele>808.6</ele>
        <time>2020-08-08T07:29:03Z</time>
      </trkpt>
      <trkpt lat="45.61772" lon="6.77427">
        <ele>808.7</ele>
        <time>2020-08-08T07:29:04Z</time>
      </trkpt>
      <trkpt lat="45.61784" lon="6.77417">
        <ele>808.7</ele>
        <time>2020-08-08T07:29:06Z</time>
      </trkpt>
      <trkpt lat="45.61789" lon="6.77412">
        <ele>808.7</ele>
        <time>2020-08-08T07:29:07Z</time>
      </trkpt>
      <trkpt lat="45.618" lon="6.77402">
        <ele>808.6</ele>
        <time>2020-08-08T07:29:09Z</time>
      </trkpt>
      <trkpt lat="45.61806" lon="6.77397">
        <ele>808.6</ele>
        <time>2020-08-08T07:29:10Z</time>
      </trkpt>
      <trkpt lat="45.61816" lon="6.77388">
        <ele>808.6</ele>
        <time>2020-08-08T07:29:12Z</time>
      </trkpt>
      <trkpt lat="45.61825" lon="6.77381">
        <ele>808.7</ele>
        <time>2020-08-08T07:29:14Z</time>
      </trkpt>
      <trkpt lat="45.61835" lon="6.77379">
        <ele>808.7</ele>
        <time>2020-08-08T07:29:16Z</time>
      </trkpt>
      <trkpt lat="45.61839" lon="6.77383">
        <ele>808.8</ele>
        <time>2020-08-08T07:29:17Z</time>
      </trkpt>
      <trkpt lat="45.61843" lon="6.774">
        <ele>808.9</ele>
        <time>2020-08-08T07:29:19Z</time>
      </trkpt>
      <trkpt lat="45.61846" lon="6.77418">
        <ele>808.9</ele>
        <time>2020-08-08T07:29:21Z</time>
      </trkpt>
      <trkpt lat="45.61848" lon="6.77426">
        <ele>808.9</ele>
        <time>2020-08-08T07:29:22Z</time>
      </trkpt>
      <trkpt lat="45.6185" lon="6.77435">
        <ele>808.9</ele>
        <time>2020-08-08T07:29:23Z</time>
      </trkpt>
      <trkpt lat="45.61855" lon="6.77452">
        <ele>808.9</ele>
        <time>2020-08-08T07:29:25Z</time>
      </trkpt>
      <trkpt lat="45.61859" lon="6.7747">
        <ele>808.9</ele>
        <time>2020-08-08T07:29:27Z</time>
      </trkpt>
      <trkpt lat="45.61864" lon="6.77487">
        <ele>809</ele>
        <time>2020-08-08T07:29:29Z</time>
      </trkpt>
      <trkpt lat="45.61866" lon="6.77495">
        <ele>809</ele>
        <time>2020-08-08T07:29:30Z</time>
      </trkpt>
      <trkpt lat="45.6187" lon="6.7751">
        <ele>809</ele>
        <time>2020-08-08T07:29:32Z</time>
      </trkpt>
      <trkpt lat="45.61871" lon="6.77516">
        <ele>809.1</ele>
        <time>2020-08-08T07:29:33Z</time>
      </trkpt>
      <trkpt lat="45.61875" lon="6.77528">
        <ele>809.1</ele>
        <time>2020-08-08T07:29:35Z</time>
      </trkpt>
      <trkpt lat="45.61876" lon="6.77532">
        <ele>809.1</ele>
        <time>2020-08-08T07:29:36Z</time>
      </trkpt>
      <trkpt lat="45.61877" lon="6.77537">
        <ele>809.1</ele>
        <time>2020-08-08T07:29:37Z</time>
      </trkpt>
      <trkpt lat="45.61878" lon="6.77538">
        <ele>809.1</ele>
        <time>2020-08-08T07:29:38Z</time>
      </trkpt>
      <trkpt lat="45.61878" lon="6.77542">
        <ele>809.1</ele>
        <time>2020-08-08T07:29:40Z</time>
      </trkpt>
      <trkpt lat="45.61879" lon="6.77543">
        <ele>809.1</ele>
        <time>2020-08-08T07:29:41Z</time>
      </trkpt>
      <trkpt lat="45.61879" lon="6.77544">
        <ele>809.1</ele>
        <time>2020-08-08T07:29:42Z</time>
      </trkpt>
      <trkpt lat="45.6188" lon="6.77545">
        <ele>809.1</ele>
        <time>2020-08-08T07:29:44Z</time>
      </trkpt>
      <trkpt lat="45.6188" lon="6.77544">
        <ele>809.1</ele>
        <time>2020-08-08T07:29:46Z</time>
      </trkpt>
      <trkpt lat="45.61879" lon="6.77544">
        <ele>809.1</ele>
        <time>2020-08-08T07:29:47Z</time>
      </trkpt>
      <trkpt lat="45.61879" lon="6.77543">
        <ele>809.1</ele>
        <time>2020-08-08T07:29:49Z</time>
      </trkpt>
      <trkpt lat="45.61879" lon="6.77543">
        <ele>809.1</ele>
        <time>2020-08-08T07:29:51Z</time>
      </trkpt>
      <trkpt lat="45.61879" lon="6.77544">
        <ele>809.1</ele>
        <time>2020-08-08T07:29:53Z</time>
      </trkpt>
      <trkpt lat="45.61878" lon="6.77548">
        <ele>809.1</ele>
        <time>2020-08-08T07:29:56Z</time>
      </trkpt>
      <trkpt lat="45.61874" lon="6.77552">
        <ele>809.1</ele>
        <time>2020-08-08T07:29:59Z</time>
      </trkpt>
      <trkpt lat="45.61871" lon="6.77556">
        <ele>809.1</ele>
        <time>2020-08-08T07:30:01Z</time>
      </trkpt>
      <trkpt lat="45.61868" lon="6.77561">
        <ele>809</ele>
        <time>2020-08-08T07:30:03Z</time>
      </trkpt>
      <trkpt lat="45.61864" lon="6.77571">
        <ele>809</ele>
        <time>2020-08-08T07:30:05Z</time>
      </trkpt>
      <trkpt lat="45.61859" lon="6.77587">
        <ele>809</ele>
        <time>2020-08-08T07:30:07Z</time>
      </trkpt>
      <trkpt lat="45.61852" lon="6.77607">
        <ele>809</ele>
        <time>2020-08-08T07:30:09Z</time>
      </trkpt>
      <trkpt lat="45.6185" lon="6.77615">
        <ele>809</ele>
        <time>2020-08-08T07:30:10Z</time>
      </trkpt>
      <trkpt lat="45.61848" lon="6.77629">
        <ele>809.2</ele>
        <time>2020-08-08T07:30:12Z</time>
      </trkpt>
      <trkpt lat="45.61847" lon="6.77643">
        <ele>809.3</ele>
        <time>2020-08-08T07:30:14Z</time>
      </trkpt>
      <trkpt lat="45.61846" lon="6.77651">
        <ele>809.4</ele>
        <time>2020-08-08T07:30:15Z</time>
      </trkpt>
      <trkpt lat="45.61844" lon="6.77666">
        <ele>809.6</ele>
        <time>2020-08-08T07:30:17Z</time>
      </trkpt>
      <trkpt lat="45.61843" lon="6.77673">
        <ele>809.6</ele>
        <time>2020-08-08T07:30:18Z</time>
      </trkpt>
      <trkpt lat="45.61842" lon="6.77681">
        <ele>809.6</ele>
        <time>2020-08-08T07:30:19Z</time>
      </trkpt>
      <trkpt lat="45.6184" lon="6.77694">
        <ele>809.7</ele>
        <time>2020-08-08T07:30:21Z</time>
      </trkpt>
      <trkpt lat="45.61839" lon="6.77701">
        <ele>809.7</ele>
        <time>2020-08-08T07:30:22Z</time>
      </trkpt>
      <trkpt lat="45.61837" lon="6.77715">
        <ele>809.7</ele>
        <time>2020-08-08T07:30:24Z</time>
      </trkpt>
      <trkpt lat="45.61835" lon="6.77722">
        <ele>809.7</ele>
        <time>2020-08-08T07:30:25Z</time>
      </trkpt>
      <trkpt lat="45.61834" lon="6.7773">
        <ele>809.7</ele>
        <time>2020-08-08T07:30:26Z</time>
      </trkpt>
      <trkpt lat="45.61832" lon="6.77747">
        <ele>809.6</ele>
        <time>2020-08-08T07:30:28Z</time>
      </trkpt>
      <trkpt lat="45.61831" lon="6.77756">
        <ele>809.6</ele>
        <time>2020-08-08T07:30:29Z</time>
      </trkpt>
      <trkpt lat="45.61829" lon="6.77773">
        <ele>809.5</ele>
        <time>2020-08-08T07:30:31Z</time>
      </trkpt>
      <trkpt lat="45.61827" lon="6.77783">
        <ele>809.6</ele>
        <time>2020-08-08T07:30:32Z</time>
      </trkpt>
      <trkpt lat="45.61825" lon="6.778">
        <ele>809.6</ele>
        <time>2020-08-08T07:30:34Z</time>
      </trkpt>
      <trkpt lat="45.61824" lon="6.77808">
        <ele>809.6</ele>
        <time>2020-08-08T07:30:35Z</time>
      </trkpt>
      <trkpt lat="45.61823" lon="6.77817">
        <ele>809.7</ele>
        <time>2020-08-08T07:30:36Z</time>
      </trkpt>
      <trkpt lat="45.61821" lon="6.77834">
        <ele>809.7</ele>
        <time>2020-08-08T07:30:38Z</time>
      </trkpt>
      <trkpt lat="45.61819" lon="6.77851">
        <ele>809.8</ele>
        <time>2020-08-08T07:30:40Z</time>
      </trkpt>
      <trkpt lat="45.61816" lon="6.77868">
        <ele>809.8</ele>
        <time>2020-08-08T07:30:42Z</time>
      </trkpt>
      <trkpt lat="45.61815" lon="6.77877">
        <ele>809.8</ele>
        <time>2020-08-08T07:30:43Z</time>
      </trkpt>
      <trkpt lat="45.61813" lon="6.77893">
        <ele>809.8</ele>
        <time>2020-08-08T07:30:45Z</time>
      </trkpt>
      <trkpt lat="45.6181" lon="6.7791">
        <ele>809.8</ele>
        <time>2020-08-08T07:30:47Z</time>
      </trkpt>
      <trkpt lat="45.61809" lon="6.77919">
        <ele>809.8</ele>
        <time>2020-08-08T07:30:48Z</time>
      </trkpt>
      <trkpt lat="45.61807" lon="6.77936">
        <ele>809.8</ele>
        <time>2020-08-08T07:30:50Z</time>
      </trkpt>
      <trkpt lat="45.61806" lon="6.77945">
        <ele>809.8</ele>
        <time>2020-08-08T07:30:51Z</time>
      </trkpt>
      <trkpt lat="45.61805" lon="6.77961">
        <ele>809.8</ele>
        <time>2020-08-08T07:30:53Z</time>
      </trkpt>
      <trkpt lat="45.61803" lon="6.77975">
        <ele>809.8</ele>
        <time>2020-08-08T07:30:55Z</time>
      </trkpt>
      <trkpt lat="45.61796" lon="6.77985">
        <ele>809.8</ele>
        <time>2020-08-08T07:30:57Z</time>
      </trkpt>
      <trkpt lat="45.61792" lon="6.7799">
        <ele>809.8</ele>
        <time>2020-08-08T07:30:58Z</time>
      </trkpt>
      <trkpt lat="45.61782" lon="6.77999">
        <ele>809.7</ele>
        <time>2020-08-08T07:31:00Z</time>
      </trkpt>
      <trkpt lat="45.61771" lon="6.78008">
        <ele>809.7</ele>
        <time>2020-08-08T07:31:02Z</time>
      </trkpt>
      <trkpt lat="45.61766" lon="6.78013">
        <ele>809.7</ele>
        <time>2020-08-08T07:31:03Z</time>
      </trkpt>
      <trkpt lat="45.61754" lon="6.78022">
        <ele>809.8</ele>
        <time>2020-08-08T07:31:05Z</time>
      </trkpt>
      <trkpt lat="45.61749" lon="6.78026">
        <ele>809.8</ele>
        <time>2020-08-08T07:31:06Z</time>
      </trkpt>
      <trkpt lat="45.61738" lon="6.78034">
        <ele>809.7</ele>
        <time>2020-08-08T07:31:08Z</time>
      </trkpt>
      <trkpt lat="45.61727" lon="6.78043">
        <ele>809.7</ele>
        <time>2020-08-08T07:31:10Z</time>
      </trkpt>
      <trkpt lat="45.61716" lon="6.78051">
        <ele>809.7</ele>
        <time>2020-08-08T07:31:12Z</time>
      </trkpt>
      <trkpt lat="45.61707" lon="6.7806">
        <ele>809.6</ele>
        <time>2020-08-08T07:31:14Z</time>
      </trkpt>
      <trkpt lat="45.61705" lon="6.78066">
        <ele>809.6</ele>
        <time>2020-08-08T07:31:15Z</time>
      </trkpt>
      <trkpt lat="45.61704" lon="6.78074">
        <ele>809.6</ele>
        <time>2020-08-08T07:31:16Z</time>
      </trkpt>
      <trkpt lat="45.61704" lon="6.78092">
        <ele>809.5</ele>
        <time>2020-08-08T07:31:18Z</time>
      </trkpt>
      <trkpt lat="45.61705" lon="6.78101">
        <ele>809.5</ele>
        <time>2020-08-08T07:31:19Z</time>
      </trkpt>
      <trkpt lat="45.61705" lon="6.78111">
        <ele>809.4</ele>
        <time>2020-08-08T07:31:20Z</time>
      </trkpt>
      <trkpt lat="45.61706" lon="6.7812">
        <ele>809.4</ele>
        <time>2020-08-08T07:31:21Z</time>
      </trkpt>
      <trkpt lat="45.61706" lon="6.7813">
        <ele>809.4</ele>
        <time>2020-08-08T07:31:22Z</time>
      </trkpt>
      <trkpt lat="45.61707" lon="6.78148">
        <ele>809.4</ele>
        <time>2020-08-08T07:31:24Z</time>
      </trkpt>
      <trkpt lat="45.61707" lon="6.78167">
        <ele>809.4</ele>
        <time>2020-08-08T07:31:26Z</time>
      </trkpt>
      <trkpt lat="45.61708" lon="6.78186">
        <ele>809.4</ele>
        <time>2020-08-08T07:31:28Z</time>
      </trkpt>
      <trkpt lat="45.61709" lon="6.78204">
        <ele>809.4</ele>
        <time>2020-08-08T07:31:30Z</time>
      </trkpt>
      <trkpt lat="45.61709" lon="6.78212">
        <ele>809.4</ele>
        <time>2020-08-08T07:31:31Z</time>
      </trkpt>
      <trkpt lat="45.61711" lon="6.78229">
        <ele>809.4</ele>
        <time>2020-08-08T07:31:33Z</time>
      </trkpt>
      <trkpt lat="45.61712" lon="6.78237">
        <ele>809.4</ele>
        <time>2020-08-08T07:31:34Z</time>
      </trkpt>
      <trkpt lat="45.61715" lon="6.78254">
        <ele>809.4</ele>
        <time>2020-08-08T07:31:36Z</time>
      </trkpt>
      <trkpt lat="45.6172" lon="6.78271">
        <ele>809.5</ele>
        <time>2020-08-08T07:31:38Z</time>
      </trkpt>
      <trkpt lat="45.61722" lon="6.7828">
        <ele>809.5</ele>
        <time>2020-08-08T07:31:39Z</time>
      </trkpt>
      <trkpt lat="45.61724" lon="6.78289">
        <ele>809.5</ele>
        <time>2020-08-08T07:31:40Z</time>
      </trkpt>
      <trkpt lat="45.61728" lon="6.78308">
        <ele>809.5</ele>
        <time>2020-08-08T07:31:42Z</time>
      </trkpt>
      <trkpt lat="45.6173" lon="6.78317">
        <ele>809.6</ele>
        <time>2020-08-08T07:31:43Z</time>
      </trkpt>
      <trkpt lat="45.61734" lon="6.78335">
        <ele>809.7</ele>
        <time>2020-08-08T07:31:45Z</time>
      </trkpt>
      <trkpt lat="45.61737" lon="6.78343">
        <ele>809.7</ele>
        <time>2020-08-08T07:31:46Z</time>
      </trkpt>
      <trkpt lat="45.6174" lon="6.78351">
        <ele>809.8</ele>
        <time>2020-08-08T07:31:47Z</time>
      </trkpt>
      <trkpt lat="45.61749" lon="6.78364">
        <ele>810.1</ele>
        <time>2020-08-08T07:31:49Z</time>
      </trkpt>
      <trkpt lat="45.61754" lon="6.78369">
        <ele>810.3</ele>
        <time>2020-08-08T07:31:50Z</time>
      </trkpt>
      <trkpt lat="45.61766" lon="6.78374">
        <ele>810.6</ele>
        <time>2020-08-08T07:31:52Z</time>
      </trkpt>
      <trkpt lat="45.61772" lon="6.78377">
        <ele>810.6</ele>
        <time>2020-08-08T07:31:53Z</time>
      </trkpt>
      <trkpt lat="45.61783" lon="6.78384">
        <ele>811</ele>
        <time>2020-08-08T07:31:55Z</time>
      </trkpt>
      <trkpt lat="45.61793" lon="6.78391">
        <ele>811.2</ele>
        <time>2020-08-08T07:31:57Z</time>
      </trkpt>
      <trkpt lat="45.61799" lon="6.78395">
        <ele>811.4</ele>
        <time>2020-08-08T07:31:58Z</time>
      </trkpt>
      <trkpt lat="45.6181" lon="6.78402">
        <ele>811.6</ele>
        <time>2020-08-08T07:32:00Z</time>
      </trkpt>
      <trkpt lat="45.6182" lon="6.78409">
        <ele>811.8</ele>
        <time>2020-08-08T07:32:02Z</time>
      </trkpt>
      <trkpt lat="45.61831" lon="6.78414">
        <ele>812</ele>
        <time>2020-08-08T07:32:04Z</time>
      </trkpt>
      <trkpt lat="45.61836" lon="6.78417">
        <ele>812.1</ele>
        <time>2020-08-08T07:32:05Z</time>
      </trkpt>
      <trkpt lat="45.61846" lon="6.78427">
        <ele>812.4</ele>
        <time>2020-08-08T07:32:07Z</time>
      </trkpt>
      <trkpt lat="45.61854" lon="6.78441">
        <ele>812.6</ele>
        <time>2020-08-08T07:32:09Z</time>
      </trkpt>
      <trkpt lat="45.61858" lon="6.78448">
        <ele>812.7</ele>
        <time>2020-08-08T07:32:10Z</time>
      </trkpt>
      <trkpt lat="45.61866" lon="6.78462">
        <ele>812.8</ele>
        <time>2020-08-08T07:32:12Z</time>
      </trkpt>
      <trkpt lat="45.6187" lon="6.78469">
        <ele>812.9</ele>
        <time>2020-08-08T07:32:13Z</time>
      </trkpt>
      <trkpt lat="45.61878" lon="6.7848">
        <ele>812.9</ele>
        <time>2020-08-08T07:32:15Z</time>
      </trkpt>
      <trkpt lat="45.61889" lon="6.78486">
        <ele>813</ele>
        <time>2020-08-08T07:32:17Z</time>
      </trkpt>
      <trkpt lat="45.619" lon="6.78488">
        <ele>813</ele>
        <time>2020-08-08T07:32:19Z</time>
      </trkpt>
      <trkpt lat="45.61911" lon="6.78491">
        <ele>813</ele>
        <time>2020-08-08T07:32:21Z</time>
      </trkpt>
      <trkpt lat="45.61922" lon="6.78497">
        <ele>813.1</ele>
        <time>2020-08-08T07:32:23Z</time>
      </trkpt>
      <trkpt lat="45.61932" lon="6.78503">
        <ele>813.1</ele>
        <time>2020-08-08T07:32:25Z</time>
      </trkpt>
      <trkpt lat="45.61938" lon="6.78506">
        <ele>813.1</ele>
        <time>2020-08-08T07:32:26Z</time>
      </trkpt>
      <trkpt lat="45.61944" lon="6.78509">
        <ele>813.1</ele>
        <time>2020-08-08T07:32:27Z</time>
      </trkpt>
      <trkpt lat="45.6195" lon="6.78512">
        <ele>813.2</ele>
        <time>2020-08-08T07:32:28Z</time>
      </trkpt>
      <trkpt lat="45.61963" lon="6.78517">
        <ele>813.3</ele>
        <time>2020-08-08T07:32:30Z</time>
      </trkpt>
      <trkpt lat="45.61974" lon="6.7852">
        <ele>813.4</ele>
        <time>2020-08-08T07:32:32Z</time>
      </trkpt>
      <trkpt lat="45.6198" lon="6.78521">
        <ele>813.6</ele>
        <time>2020-08-08T07:32:33Z</time>
      </trkpt>
      <trkpt lat="45.61985" lon="6.78523">
        <ele>813.7</ele>
        <time>2020-08-08T07:32:34Z</time>
      </trkpt>
      <trkpt lat="45.61997" lon="6.78526">
        <ele>813.9</ele>
        <time>2020-08-08T07:32:36Z</time>
      </trkpt>
      <trkpt lat="45.62009" lon="6.78529">
        <ele>814.2</ele>
        <time>2020-08-08T07:32:38Z</time>
      </trkpt>
      <trkpt lat="45.62014" lon="6.7853">
        <ele>814.4</ele>
        <time>2020-08-08T07:32:39Z</time>
      </trkpt>
      <trkpt lat="45.62025" lon="6.78532">
        <ele>814.6</ele>
        <time>2020-08-08T07:32:41Z</time>
      </trkpt>
      <trkpt lat="45.62033" lon="6.78535">
        <ele>814.8</ele>
        <time>2020-08-08T07:32:43Z</time>
      </trkpt>
      <trkpt lat="45.62042" lon="6.78538">
        <ele>814.9</ele>
        <time>2020-08-08T07:32:45Z</time>
      </trkpt>
      <trkpt lat="45.62049" lon="6.7854">
        <ele>815.1</ele>
        <time>2020-08-08T07:32:47Z</time>
      </trkpt>
      <trkpt lat="45.62059" lon="6.78542">
        <ele>815.3</ele>
        <time>2020-08-08T07:32:49Z</time>
      </trkpt>
      <trkpt lat="45.62065" lon="6.78544">
        <ele>815.4</ele>
        <time>2020-08-08T07:32:50Z</time>
      </trkpt>
      <trkpt lat="45.62071" lon="6.78546">
        <ele>815.5</ele>
        <time>2020-08-08T07:32:51Z</time>
      </trkpt>
      <trkpt lat="45.62076" lon="6.7855">
        <ele>815.7</ele>
        <time>2020-08-08T07:32:52Z</time>
      </trkpt>
      <trkpt lat="45.62087" lon="6.7856">
        <ele>815.9</ele>
        <time>2020-08-08T07:32:54Z</time>
      </trkpt>
      <trkpt lat="45.62094" lon="6.78561">
        <ele>816</ele>
        <time>2020-08-08T07:32:55Z</time>
      </trkpt>
      <trkpt lat="45.621" lon="6.78562">
        <ele>816.1</ele>
        <time>2020-08-08T07:32:56Z</time>
      </trkpt>
      <trkpt lat="45.6211" lon="6.78564">
        <ele>816.3</ele>
        <time>2020-08-08T07:32:58Z</time>
      </trkpt>
      <trkpt lat="45.62121" lon="6.78566">
        <ele>816.5</ele>
        <time>2020-08-08T07:33:00Z</time>
      </trkpt>
      <trkpt lat="45.62133" lon="6.78568">
        <ele>816.7</ele>
        <time>2020-08-08T07:33:02Z</time>
      </trkpt>
      <trkpt lat="45.62138" lon="6.78569">
        <ele>816.8</ele>
        <time>2020-08-08T07:33:03Z</time>
      </trkpt>
      <trkpt lat="45.62149" lon="6.78571">
        <ele>817.1</ele>
        <time>2020-08-08T07:33:05Z</time>
      </trkpt>
      <trkpt lat="45.6216" lon="6.78573">
        <ele>817.3</ele>
        <time>2020-08-08T07:33:07Z</time>
      </trkpt>
      <trkpt lat="45.62165" lon="6.78574">
        <ele>817.4</ele>
        <time>2020-08-08T07:33:08Z</time>
      </trkpt>
      <trkpt lat="45.6217" lon="6.78575">
        <ele>817.5</ele>
        <time>2020-08-08T07:33:09Z</time>
      </trkpt>
      <trkpt lat="45.6218" lon="6.78577">
        <ele>817.7</ele>
        <time>2020-08-08T07:33:11Z</time>
      </trkpt>
      <trkpt lat="45.6219" lon="6.78578">
        <ele>817.9</ele>
        <time>2020-08-08T07:33:13Z</time>
      </trkpt>
      <trkpt lat="45.62195" lon="6.78579">
        <ele>818.1</ele>
        <time>2020-08-08T07:33:14Z</time>
      </trkpt>
      <trkpt lat="45.62204" lon="6.7858">
        <ele>818.3</ele>
        <time>2020-08-08T07:33:16Z</time>
      </trkpt>
      <trkpt lat="45.62211" lon="6.78581">
        <ele>818.5</ele>
        <time>2020-08-08T07:33:18Z</time>
      </trkpt>
      <trkpt lat="45.62215" lon="6.78582">
        <ele>818.6</ele>
        <time>2020-08-08T07:33:19Z</time>
      </trkpt>
      <trkpt lat="45.62222" lon="6.78585">
        <ele>818.8</ele>
        <time>2020-08-08T07:33:21Z</time>
      </trkpt>
      <trkpt lat="45.62226" lon="6.78589">
        <ele>818.9</ele>
        <time>2020-08-08T07:33:22Z</time>
      </trkpt>
      <trkpt lat="45.62227" lon="6.78592">
        <ele>818.9</ele>
        <time>2020-08-08T07:33:23Z</time>
      </trkpt>
      <trkpt lat="45.62226" lon="6.786">
        <ele>819</ele>
        <time>2020-08-08T07:33:25Z</time>
      </trkpt>
      <trkpt lat="45.62219" lon="6.78615">
        <ele>819.2</ele>
        <time>2020-08-08T07:33:27Z</time>
      </trkpt>
      <trkpt lat="45.62213" lon="6.78629">
        <ele>819.4</ele>
        <time>2020-08-08T07:33:29Z</time>
      </trkpt>
      <trkpt lat="45.62209" lon="6.78643">
        <ele>819.7</ele>
        <time>2020-08-08T07:33:31Z</time>
      </trkpt>
      <trkpt lat="45.62206" lon="6.7865">
        <ele>819.8</ele>
        <time>2020-08-08T07:33:32Z</time>
      </trkpt>
      <trkpt lat="45.62201" lon="6.78668">
        <ele>820.2</ele>
        <time>2020-08-08T07:33:34Z</time>
      </trkpt>
      <trkpt lat="45.62199" lon="6.78674">
        <ele>820.3</ele>
        <time>2020-08-08T07:33:36Z</time>
      </trkpt>
      <trkpt lat="45.62197" lon="6.78681">
        <ele>820.3</ele>
        <time>2020-08-08T07:33:38Z</time>
      </trkpt>
      <trkpt lat="45.62194" lon="6.78689">
        <ele>820.4</ele>
        <time>2020-08-08T07:33:40Z</time>
      </trkpt>
      <trkpt lat="45.62191" lon="6.78697">
        <ele>820.4</ele>
        <time>2020-08-08T07:33:42Z</time>
      </trkpt>
      <trkpt lat="45.62189" lon="6.787">
        <ele>820.4</ele>
        <time>2020-08-08T07:33:43Z</time>
      </trkpt>
      <trkpt lat="45.62185" lon="6.78709">
        <ele>820.4</ele>
        <time>2020-08-08T07:33:45Z</time>
      </trkpt>
      <trkpt lat="45.6218" lon="6.78718">
        <ele>820.4</ele>
        <time>2020-08-08T07:33:46Z</time>
      </trkpt>
      <trkpt lat="45.62174" lon="6.78728">
        <ele>820.4</ele>
        <time>2020-08-08T07:33:48Z</time>
      </trkpt>
      <trkpt lat="45.62167" lon="6.78739">
        <ele>820.3</ele>
        <time>2020-08-08T07:33:50Z</time>
      </trkpt>
      <trkpt lat="45.62163" lon="6.78745">
        <ele>820.4</ele>
        <time>2020-08-08T07:33:51Z</time>
      </trkpt>
      <trkpt lat="45.62157" lon="6.78756">
        <ele>820.4</ele>
        <time>2020-08-08T07:33:53Z</time>
      </trkpt>
      <trkpt lat="45.62156" lon="6.78759">
        <ele>820.3</ele>
        <time>2020-08-08T07:33:54Z</time>
      </trkpt>
      <trkpt lat="45.62156" lon="6.78762">
        <ele>820.3</ele>
        <time>2020-08-08T07:33:56Z</time>
      </trkpt>
      <trkpt lat="45.62155" lon="6.78763">
        <ele>820.3</ele>
        <time>2020-08-08T07:33:57Z</time>
      </trkpt>
      <trkpt lat="45.62152" lon="6.78765">
        <ele>820.2</ele>
        <time>2020-08-08T07:33:59Z</time>
      </trkpt>
      <trkpt lat="45.62153" lon="6.78764">
        <ele>820.2</ele>
        <time>2020-08-08T07:34:01Z</time>
      </trkpt>
      <trkpt lat="45.62153" lon="6.78764">
        <ele>820.1</ele>
        <time>2020-08-08T07:34:02Z</time>
      </trkpt>
      <trkpt lat="45.62153" lon="6.78764">
        <ele>820.1</ele>
        <time>2020-08-08T07:34:04Z</time>
      </trkpt>
      <trkpt lat="45.62153" lon="6.78763">
        <ele>820</ele>
        <time>2020-08-08T07:34:05Z</time>
      </trkpt>
      <trkpt lat="45.62154" lon="6.78764">
        <ele>820</ele>
        <time>2020-08-08T07:34:06Z</time>
      </trkpt>
      <trkpt lat="45.62153" lon="6.78765">
        <ele>820</ele>
        <time>2020-08-08T07:34:08Z</time>
      </trkpt>
      <trkpt lat="45.62155" lon="6.78767">
        <ele>820</ele>
        <time>2020-08-08T07:34:10Z</time>
      </trkpt>
      <trkpt lat="45.62153" lon="6.78772">
        <ele>819.9</ele>
        <time>2020-08-08T07:35:12Z</time>
      </trkpt>
      <trkpt lat="45.62153" lon="6.78777">
        <ele>819.8</ele>
        <time>2020-08-08T07:35:14Z</time>
      </trkpt>
      <trkpt lat="45.62154" lon="6.7878">
        <ele>819.8</ele>
        <time>2020-08-08T07:35:15Z</time>
      </trkpt>
      <trkpt lat="45.62156" lon="6.78787">
        <ele>819.8</ele>
        <time>2020-08-08T07:35:17Z</time>
      </trkpt>
      <trkpt lat="45.62157" lon="6.78791">
        <ele>819.8</ele>
        <time>2020-08-08T07:35:18Z</time>
      </trkpt>
      <trkpt lat="45.62156" lon="6.78792">
        <ele>819.8</ele>
        <time>2020-08-08T07:35:19Z</time>
      </trkpt>
      <trkpt lat="45.62156" lon="6.78793">
        <ele>819.7</ele>
        <time>2020-08-08T07:35:20Z</time>
      </trkpt>
      <trkpt lat="45.62154" lon="6.78796">
        <ele>819.7</ele>
        <time>2020-08-08T07:35:21Z</time>
      </trkpt>
      <trkpt lat="45.62148" lon="6.78806">
        <ele>819.6</ele>
        <time>2020-08-08T07:35:24Z</time>
      </trkpt>
      <trkpt lat="45.62143" lon="6.78814">
        <ele>819.5</ele>
        <time>2020-08-08T07:35:25Z</time>
      </trkpt>
      <trkpt lat="45.62138" lon="6.78821">
        <ele>819.4</ele>
        <time>2020-08-08T07:35:26Z</time>
      </trkpt>
      <trkpt lat="45.62133" lon="6.78827">
        <ele>819.3</ele>
        <time>2020-08-08T07:35:27Z</time>
      </trkpt>
      <trkpt lat="45.62128" lon="6.78832">
        <ele>819.1</ele>
        <time>2020-08-08T07:35:28Z</time>
      </trkpt>
      <trkpt lat="45.62118" lon="6.78843">
        <ele>818.5</ele>
        <time>2020-08-08T07:35:30Z</time>
      </trkpt>
      <trkpt lat="45.62106" lon="6.78852">
        <ele>817.9</ele>
        <time>2020-08-08T07:35:32Z</time>
      </trkpt>
      <trkpt lat="45.62095" lon="6.78861">
        <ele>817.2</ele>
        <time>2020-08-08T07:35:34Z</time>
      </trkpt>
      <trkpt lat="45.62082" lon="6.78869">
        <ele>816.5</ele>
        <time>2020-08-08T07:35:36Z</time>
      </trkpt>
      <trkpt lat="45.62068" lon="6.78876">
        <ele>815.8</ele>
        <time>2020-08-08T07:35:38Z</time>
      </trkpt>
      <trkpt lat="45.62055" lon="6.7888">
        <ele>815.1</ele>
        <time>2020-08-08T07:35:40Z</time>
      </trkpt>
      <trkpt lat="45.62049" lon="6.78882">
        <ele>814.8</ele>
        <time>2020-08-08T07:35:41Z</time>
      </trkpt>
      <trkpt lat="45.62044" lon="6.78884">
        <ele>814.6</ele>
        <time>2020-08-08T07:35:42Z</time>
      </trkpt>
      <trkpt lat="45.62039" lon="6.78884">
        <ele>814.5</ele>
        <time>2020-08-08T07:35:43Z</time>
      </trkpt>
      <trkpt lat="45.62034" lon="6.78889">
        <ele>814.5</ele>
        <time>2020-08-08T07:35:45Z</time>
      </trkpt>
      <trkpt lat="45.62032" lon="6.78894">
        <ele>814.5</ele>
        <time>2020-08-08T07:35:46Z</time>
      </trkpt>
      <trkpt lat="45.62032" lon="6.78909">
        <ele>814.4</ele>
        <time>2020-08-08T07:35:48Z</time>
      </trkpt>
      <trkpt lat="45.62034" lon="6.78916">
        <ele>814.4</ele>
        <time>2020-08-08T07:35:49Z</time>
      </trkpt>
      <trkpt lat="45.62038" lon="6.78929">
        <ele>814.4</ele>
        <time>2020-08-08T07:35:51Z</time>
      </trkpt>
      <trkpt lat="45.62041" lon="6.78937">
        <ele>814.6</ele>
        <time>2020-08-08T07:35:52Z</time>
      </trkpt>
      <trkpt lat="45.62046" lon="6.7895">
        <ele>814.8</ele>
        <time>2020-08-08T07:35:54Z</time>
      </trkpt>
      <trkpt lat="45.62048" lon="6.78957">
        <ele>814.9</ele>
        <time>2020-08-08T07:35:55Z</time>
      </trkpt>
      <trkpt lat="45.62052" lon="6.7897">
        <ele>815.3</ele>
        <time>2020-08-08T07:35:57Z</time>
      </trkpt>
      <trkpt lat="45.62055" lon="6.78976">
        <ele>815.4</ele>
        <time>2020-08-08T07:35:58Z</time>
      </trkpt>
      <trkpt lat="45.62056" lon="6.78981">
        <ele>815.6</ele>
        <time>2020-08-08T07:35:59Z</time>
      </trkpt>
      <trkpt lat="45.6206" lon="6.78989">
        <ele>815.9</ele>
        <time>2020-08-08T07:36:01Z</time>
      </trkpt>
      <trkpt lat="45.62061" lon="6.78995">
        <ele>816.1</ele>
        <time>2020-08-08T07:36:02Z</time>
      </trkpt>
      <trkpt lat="45.62065" lon="6.79005">
        <ele>816.6</ele>
        <time>2020-08-08T07:36:04Z</time>
      </trkpt>
      <trkpt lat="45.62067" lon="6.79012">
        <ele>816.9</ele>
        <time>2020-08-08T07:36:05Z</time>
      </trkpt>
      <trkpt lat="45.62068" lon="6.79017">
        <ele>817.1</ele>
        <time>2020-08-08T07:36:06Z</time>
      </trkpt>
      <trkpt lat="45.62068" lon="6.79018">
        <ele>817.1</ele>
        <time>2020-08-08T07:36:08Z</time>
      </trkpt>
      <trkpt lat="45.62069" lon="6.79019">
        <ele>817.2</ele>
        <time>2020-08-08T07:36:09Z</time>
      </trkpt>
      <trkpt lat="45.62071" lon="6.79024">
        <ele>817.4</ele>
        <time>2020-08-08T07:36:10Z</time>
      </trkpt>
      <trkpt lat="45.62072" lon="6.79028">
        <ele>817.6</ele>
        <time>2020-08-08T07:36:12Z</time>
      </trkpt>
      <trkpt lat="45.62074" lon="6.79032">
        <ele>817.7</ele>
        <time>2020-08-08T07:36:13Z</time>
      </trkpt>
      <trkpt lat="45.62076" lon="6.79038">
        <ele>818</ele>
        <time>2020-08-08T07:36:15Z</time>
      </trkpt>
      <trkpt lat="45.62086" lon="6.79061">
        <ele>818.9</ele>
        <time>2020-08-08T07:36:16Z</time>
      </trkpt>
      <trkpt lat="45.62089" lon="6.7907">
        <ele>819.3</ele>
        <time>2020-08-08T07:36:18Z</time>
      </trkpt>
      <trkpt lat="45.62094" lon="6.79083">
        <ele>819.9</ele>
        <time>2020-08-08T07:36:20Z</time>
      </trkpt>
      <trkpt lat="45.62096" lon="6.79089">
        <ele>820.1</ele>
        <time>2020-08-08T07:36:21Z</time>
      </trkpt>
      <trkpt lat="45.62098" lon="6.79094">
        <ele>820.4</ele>
        <time>2020-08-08T07:36:23Z</time>
      </trkpt>
      <trkpt lat="45.621" lon="6.791">
        <ele>820.7</ele>
        <time>2020-08-08T07:36:24Z</time>
      </trkpt>
      <trkpt lat="45.62102" lon="6.79106">
        <ele>820.9</ele>
        <time>2020-08-08T07:36:26Z</time>
      </trkpt>
      <trkpt lat="45.62104" lon="6.79111">
        <ele>821.2</ele>
        <time>2020-08-08T07:36:27Z</time>
      </trkpt>
      <trkpt lat="45.62105" lon="6.79116">
        <ele>821.5</ele>
        <time>2020-08-08T07:36:28Z</time>
      </trkpt>
      <trkpt lat="45.62108" lon="6.79125">
        <ele>822</ele>
        <time>2020-08-08T07:36:30Z</time>
      </trkpt>
      <trkpt lat="45.6211" lon="6.79134">
        <ele>822.4</ele>
        <time>2020-08-08T07:36:31Z</time>
      </trkpt>
      <trkpt lat="45.62111" lon="6.79139">
        <ele>822.6</ele>
        <time>2020-08-08T07:36:33Z</time>
      </trkpt>
      <trkpt lat="45.62112" lon="6.79147">
        <ele>823</ele>
        <time>2020-08-08T07:36:34Z</time>
      </trkpt>
      <trkpt lat="45.62113" lon="6.79155">
        <ele>823.4</ele>
        <time>2020-08-08T07:36:35Z</time>
      </trkpt>
      <trkpt lat="45.62113" lon="6.79162">
        <ele>823.7</ele>
        <time>2020-08-08T07:36:37Z</time>
      </trkpt>
      <trkpt lat="45.62114" lon="6.79167">
        <ele>824</ele>
        <time>2020-08-08T07:36:38Z</time>
      </trkpt>
      <trkpt lat="45.62113" lon="6.79179">
        <ele>824.6</ele>
        <time>2020-08-08T07:36:40Z</time>
      </trkpt>
      <trkpt lat="45.62113" lon="6.79184">
        <ele>824.8</ele>
        <time>2020-08-08T07:36:41Z</time>
      </trkpt>
      <trkpt lat="45.62112" lon="6.79189">
        <ele>825</ele>
        <time>2020-08-08T07:36:42Z</time>
      </trkpt>
      <trkpt lat="45.62111" lon="6.79195">
        <ele>825.3</ele>
        <time>2020-08-08T07:36:44Z</time>
      </trkpt>
      <trkpt lat="45.6211" lon="6.792">
        <ele>825.6</ele>
        <time>2020-08-08T07:36:45Z</time>
      </trkpt>
      <trkpt lat="45.62109" lon="6.79209">
        <ele>825.9</ele>
        <time>2020-08-08T07:36:46Z</time>
      </trkpt>
      <trkpt lat="45.62107" lon="6.79216">
        <ele>826.3</ele>
        <time>2020-08-08T07:36:48Z</time>
      </trkpt>
      <trkpt lat="45.62104" lon="6.79223">
        <ele>826.6</ele>
        <time>2020-08-08T07:36:50Z</time>
      </trkpt>
      <trkpt lat="45.62103" lon="6.79228">
        <ele>826.8</ele>
        <time>2020-08-08T07:36:51Z</time>
      </trkpt>
      <trkpt lat="45.62101" lon="6.79233">
        <ele>827.1</ele>
        <time>2020-08-08T07:36:52Z</time>
      </trkpt>
      <trkpt lat="45.621" lon="6.79238">
        <ele>827.3</ele>
        <time>2020-08-08T07:36:54Z</time>
      </trkpt>
      <trkpt lat="45.62097" lon="6.79248">
        <ele>827.7</ele>
        <time>2020-08-08T07:36:55Z</time>
      </trkpt>
      <trkpt lat="45.62095" lon="6.79255">
        <ele>828</ele>
        <time>2020-08-08T07:36:57Z</time>
      </trkpt>
      <trkpt lat="45.62094" lon="6.79261">
        <ele>828.3</ele>
        <time>2020-08-08T07:36:58Z</time>
      </trkpt>
      <trkpt lat="45.6209" lon="6.79273">
        <ele>828.8</ele>
        <time>2020-08-08T07:37:00Z</time>
      </trkpt>
      <trkpt lat="45.62089" lon="6.79279">
        <ele>829.1</ele>
        <time>2020-08-08T07:37:02Z</time>
      </trkpt>
      <trkpt lat="45.62086" lon="6.79285">
        <ele>829.4</ele>
        <time>2020-08-08T07:37:03Z</time>
      </trkpt>
      <trkpt lat="45.62085" lon="6.79291">
        <ele>829.6</ele>
        <time>2020-08-08T07:37:04Z</time>
      </trkpt>
      <trkpt lat="45.62083" lon="6.79295">
        <ele>829.9</ele>
        <time>2020-08-08T07:37:05Z</time>
      </trkpt>
      <trkpt lat="45.62082" lon="6.793">
        <ele>830.1</ele>
        <time>2020-08-08T07:37:07Z</time>
      </trkpt>
      <trkpt lat="45.62081" lon="6.79306">
        <ele>830.4</ele>
        <time>2020-08-08T07:37:09Z</time>
      </trkpt>
      <trkpt lat="45.62079" lon="6.79314">
        <ele>830.8</ele>
        <time>2020-08-08T07:37:10Z</time>
      </trkpt>
      <trkpt lat="45.62078" lon="6.79318">
        <ele>831.1</ele>
        <time>2020-08-08T07:37:12Z</time>
      </trkpt>
      <trkpt lat="45.62077" lon="6.79322">
        <ele>831.3</ele>
        <time>2020-08-08T07:37:13Z</time>
      </trkpt>
      <trkpt lat="45.62075" lon="6.79326">
        <ele>831.5</ele>
        <time>2020-08-08T07:37:14Z</time>
      </trkpt>
      <trkpt lat="45.62073" lon="6.79334">
        <ele>831.9</ele>
        <time>2020-08-08T07:37:16Z</time>
      </trkpt>
      <trkpt lat="45.62071" lon="6.79338">
        <ele>832.2</ele>
        <time>2020-08-08T07:37:17Z</time>
      </trkpt>
      <trkpt lat="45.6207" lon="6.79342">
        <ele>832.4</ele>
        <time>2020-08-08T07:37:18Z</time>
      </trkpt>
      <trkpt lat="45.62068" lon="6.79351">
        <ele>832.8</ele>
        <time>2020-08-08T07:37:20Z</time>
      </trkpt>
      <trkpt lat="45.62065" lon="6.79359">
        <ele>833.3</ele>
        <time>2020-08-08T07:37:21Z</time>
      </trkpt>
      <trkpt lat="45.62062" lon="6.79367">
        <ele>833.7</ele>
        <time>2020-08-08T07:37:23Z</time>
      </trkpt>
      <trkpt lat="45.62061" lon="6.79372">
        <ele>833.9</ele>
        <time>2020-08-08T07:37:24Z</time>
      </trkpt>
      <trkpt lat="45.6206" lon="6.79377">
        <ele>834.2</ele>
        <time>2020-08-08T07:37:26Z</time>
      </trkpt>
      <trkpt lat="45.62059" lon="6.79384">
        <ele>834.5</ele>
        <time>2020-08-08T07:37:27Z</time>
      </trkpt>
      <trkpt lat="45.62057" lon="6.7939">
        <ele>834.8</ele>
        <time>2020-08-08T07:37:29Z</time>
      </trkpt>
      <trkpt lat="45.62055" lon="6.79397">
        <ele>835.1</ele>
        <time>2020-08-08T07:37:30Z</time>
      </trkpt>
      <trkpt lat="45.62054" lon="6.79403">
        <ele>835.4</ele>
        <time>2020-08-08T07:37:32Z</time>
      </trkpt>
      <trkpt lat="45.62052" lon="6.79408">
        <ele>835.6</ele>
        <time>2020-08-08T07:37:33Z</time>
      </trkpt>
      <trkpt lat="45.62049" lon="6.79416">
        <ele>836</ele>
        <time>2020-08-08T07:37:35Z</time>
      </trkpt>
      <trkpt lat="45.62048" lon="6.79421">
        <ele>836.2</ele>
        <time>2020-08-08T07:37:36Z</time>
      </trkpt>
      <trkpt lat="45.62045" lon="6.79429">
        <ele>836.6</ele>
        <time>2020-08-08T07:37:37Z</time>
      </trkpt>
      <trkpt lat="45.62042" lon="6.7944">
        <ele>837.1</ele>
        <time>2020-08-08T07:37:39Z</time>
      </trkpt>
      <trkpt lat="45.6204" lon="6.79445">
        <ele>837.4</ele>
        <time>2020-08-08T07:37:40Z</time>
      </trkpt>
      <trkpt lat="45.62038" lon="6.79452">
        <ele>837.7</ele>
        <time>2020-08-08T07:37:43Z</time>
      </trkpt>
      <trkpt lat="45.62036" lon="6.7946">
        <ele>838.1</ele>
        <time>2020-08-08T07:37:45Z</time>
      </trkpt>
      <trkpt lat="45.62034" lon="6.79469">
        <ele>838.5</ele>
        <time>2020-08-08T07:37:46Z</time>
      </trkpt>
      <trkpt lat="45.62032" lon="6.79479">
        <ele>838.9</ele>
        <time>2020-08-08T07:37:48Z</time>
      </trkpt>
      <trkpt lat="45.62031" lon="6.79485">
        <ele>839.2</ele>
        <time>2020-08-08T07:37:49Z</time>
      </trkpt>
      <trkpt lat="45.62031" lon="6.79496">
        <ele>839.6</ele>
        <time>2020-08-08T07:37:52Z</time>
      </trkpt>
      <trkpt lat="45.62032" lon="6.795">
        <ele>839.8</ele>
        <time>2020-08-08T07:37:53Z</time>
      </trkpt>
      <trkpt lat="45.62034" lon="6.79506">
        <ele>840.1</ele>
        <time>2020-08-08T07:37:55Z</time>
      </trkpt>
      <trkpt lat="45.62037" lon="6.79514">
        <ele>840.4</ele>
        <time>2020-08-08T07:37:56Z</time>
      </trkpt>
      <trkpt lat="45.6204" lon="6.79519">
        <ele>840.6</ele>
        <time>2020-08-08T07:37:58Z</time>
      </trkpt>
      <trkpt lat="45.62042" lon="6.79522">
        <ele>840.8</ele>
        <time>2020-08-08T07:37:59Z</time>
      </trkpt>
      <trkpt lat="45.62045" lon="6.79525">
        <ele>841</ele>
        <time>2020-08-08T07:38:00Z</time>
      </trkpt>
      <trkpt lat="45.62051" lon="6.7953">
        <ele>841.3</ele>
        <time>2020-08-08T07:38:01Z</time>
      </trkpt>
      <trkpt lat="45.62057" lon="6.79533">
        <ele>841.6</ele>
        <time>2020-08-08T07:38:03Z</time>
      </trkpt>
      <trkpt lat="45.62066" lon="6.79534">
        <ele>842</ele>
        <time>2020-08-08T07:38:05Z</time>
      </trkpt>
      <trkpt lat="45.6207" lon="6.79534">
        <ele>842.2</ele>
        <time>2020-08-08T07:38:07Z</time>
      </trkpt>
      <trkpt lat="45.62079" lon="6.79532">
        <ele>842.7</ele>
        <time>2020-08-08T07:38:09Z</time>
      </trkpt>
      <trkpt lat="45.62084" lon="6.7953">
        <ele>842.9</ele>
        <time>2020-08-08T07:38:11Z</time>
      </trkpt>
      <trkpt lat="45.62089" lon="6.79529">
        <ele>843.2</ele>
        <time>2020-08-08T07:38:12Z</time>
      </trkpt>
      <trkpt lat="45.62092" lon="6.79528">
        <ele>843.3</ele>
        <time>2020-08-08T07:38:14Z</time>
      </trkpt>
      <trkpt lat="45.62096" lon="6.79528">
        <ele>843.5</ele>
        <time>2020-08-08T07:38:15Z</time>
      </trkpt>
      <trkpt lat="45.62102" lon="6.79526">
        <ele>843.8</ele>
        <time>2020-08-08T07:38:16Z</time>
      </trkpt>
      <trkpt lat="45.62106" lon="6.79525">
        <ele>844</ele>
        <time>2020-08-08T07:38:18Z</time>
      </trkpt>
      <trkpt lat="45.62112" lon="6.79525">
        <ele>844.3</ele>
        <time>2020-08-08T07:38:19Z</time>
      </trkpt>
      <trkpt lat="45.62116" lon="6.79524">
        <ele>844.5</ele>
        <time>2020-08-08T07:38:20Z</time>
      </trkpt>
      <trkpt lat="45.6212" lon="6.79523">
        <ele>844.7</ele>
        <time>2020-08-08T07:38:22Z</time>
      </trkpt>
      <trkpt lat="45.62129" lon="6.79522">
        <ele>845.2</ele>
        <time>2020-08-08T07:38:23Z</time>
      </trkpt>
      <trkpt lat="45.62133" lon="6.79522">
        <ele>845.5</ele>
        <time>2020-08-08T07:38:25Z</time>
      </trkpt>
      <trkpt lat="45.62137" lon="6.79522">
        <ele>845.7</ele>
        <time>2020-08-08T07:38:27Z</time>
      </trkpt>
      <trkpt lat="45.6214" lon="6.79521">
        <ele>845.8</ele>
        <time>2020-08-08T07:38:28Z</time>
      </trkpt>
      <trkpt lat="45.62146" lon="6.79521">
        <ele>846.1</ele>
        <time>2020-08-08T07:38:29Z</time>
      </trkpt>
      <trkpt lat="45.62154" lon="6.79519">
        <ele>846.5</ele>
        <time>2020-08-08T07:38:31Z</time>
      </trkpt>
      <trkpt lat="45.62158" lon="6.79518">
        <ele>846.6</ele>
        <time>2020-08-08T07:38:32Z</time>
      </trkpt>
      <trkpt lat="45.62163" lon="6.79517">
        <ele>846.8</ele>
        <time>2020-08-08T07:38:34Z</time>
      </trkpt>
      <trkpt lat="45.62167" lon="6.79517">
        <ele>847</ele>
        <time>2020-08-08T07:38:35Z</time>
      </trkpt>
      <trkpt lat="45.62171" lon="6.79517">
        <ele>847.1</ele>
        <time>2020-08-08T07:38:36Z</time>
      </trkpt>
      <trkpt lat="45.62177" lon="6.79516">
        <ele>847.4</ele>
        <time>2020-08-08T07:38:38Z</time>
      </trkpt>
      <trkpt lat="45.62181" lon="6.79516">
        <ele>847.5</ele>
        <time>2020-08-08T07:38:39Z</time>
      </trkpt>
      <trkpt lat="45.62184" lon="6.79515">
        <ele>847.7</ele>
        <time>2020-08-08T07:38:41Z</time>
      </trkpt>
      <trkpt lat="45.62188" lon="6.79515">
        <ele>847.8</ele>
        <time>2020-08-08T07:38:42Z</time>
      </trkpt>
      <trkpt lat="45.62197" lon="6.79513">
        <ele>848.4</ele>
        <time>2020-08-08T07:38:43Z</time>
      </trkpt>
      <trkpt lat="45.62202" lon="6.79512">
        <ele>848.7</ele>
        <time>2020-08-08T07:38:45Z</time>
      </trkpt>
      <trkpt lat="45.62206" lon="6.79511">
        <ele>848.9</ele>
        <time>2020-08-08T07:38:47Z</time>
      </trkpt>
      <trkpt lat="45.62209" lon="6.7951">
        <ele>849.1</ele>
        <time>2020-08-08T07:38:48Z</time>
      </trkpt>
      <trkpt lat="45.6222" lon="6.79507">
        <ele>849.8</ele>
        <time>2020-08-08T07:38:50Z</time>
      </trkpt>
      <trkpt lat="45.62225" lon="6.79506">
        <ele>850.1</ele>
        <time>2020-08-08T07:38:51Z</time>
      </trkpt>
      <trkpt lat="45.62229" lon="6.79506">
        <ele>850.4</ele>
        <time>2020-08-08T07:38:52Z</time>
      </trkpt>
      <trkpt lat="45.62234" lon="6.79505">
        <ele>850.6</ele>
        <time>2020-08-08T07:38:55Z</time>
      </trkpt>
      <trkpt lat="45.62246" lon="6.79503">
        <ele>851.4</ele>
        <time>2020-08-08T07:38:57Z</time>
      </trkpt>
      <trkpt lat="45.6225" lon="6.79502">
        <ele>851.6</ele>
        <time>2020-08-08T07:38:59Z</time>
      </trkpt>
      <trkpt lat="45.62254" lon="6.79501">
        <ele>851.9</ele>
        <time>2020-08-08T07:39:01Z</time>
      </trkpt>
      <trkpt lat="45.62257" lon="6.795">
        <ele>852.1</ele>
        <time>2020-08-08T07:39:02Z</time>
      </trkpt>
      <trkpt lat="45.62264" lon="6.79499">
        <ele>852.5</ele>
        <time>2020-08-08T07:39:03Z</time>
      </trkpt>
      <trkpt lat="45.62268" lon="6.79498">
        <ele>852.8</ele>
        <time>2020-08-08T07:39:04Z</time>
      </trkpt>
      <trkpt lat="45.62277" lon="6.79496">
        <ele>853.3</ele>
        <time>2020-08-08T07:39:07Z</time>
      </trkpt>
      <trkpt lat="45.62283" lon="6.79495">
        <ele>853.7</ele>
        <time>2020-08-08T07:39:09Z</time>
      </trkpt>
      <trkpt lat="45.62289" lon="6.79494">
        <ele>854.1</ele>
        <time>2020-08-08T07:39:11Z</time>
      </trkpt>
      <trkpt lat="45.62298" lon="6.79491">
        <ele>854.7</ele>
        <time>2020-08-08T07:39:13Z</time>
      </trkpt>
      <trkpt lat="45.62303" lon="6.7949">
        <ele>855.1</ele>
        <time>2020-08-08T07:39:16Z</time>
      </trkpt>
      <trkpt lat="45.62307" lon="6.79489">
        <ele>855.4</ele>
        <time>2020-08-08T07:39:17Z</time>
      </trkpt>
      <trkpt lat="45.62313" lon="6.79488">
        <ele>855.8</ele>
        <time>2020-08-08T07:39:18Z</time>
      </trkpt>
      <trkpt lat="45.62319" lon="6.79487">
        <ele>856.2</ele>
        <time>2020-08-08T07:39:20Z</time>
      </trkpt>
      <trkpt lat="45.62327" lon="6.79485">
        <ele>856.7</ele>
        <time>2020-08-08T07:39:22Z</time>
      </trkpt>
      <trkpt lat="45.6233" lon="6.79484">
        <ele>856.9</ele>
        <time>2020-08-08T07:39:24Z</time>
      </trkpt>
      <trkpt lat="45.62336" lon="6.79483">
        <ele>857.3</ele>
        <time>2020-08-08T07:39:26Z</time>
      </trkpt>
      <trkpt lat="45.6234" lon="6.79482">
        <ele>857.6</ele>
        <time>2020-08-08T07:39:27Z</time>
      </trkpt>
      <trkpt lat="45.62345" lon="6.79481">
        <ele>857.7</ele>
        <time>2020-08-08T07:39:28Z</time>
      </trkpt>
      <trkpt lat="45.62353" lon="6.79482">
        <ele>858.1</ele>
        <time>2020-08-08T07:39:30Z</time>
      </trkpt>
      <trkpt lat="45.62361" lon="6.79482">
        <ele>858.7</ele>
        <time>2020-08-08T07:39:32Z</time>
      </trkpt>
      <trkpt lat="45.62365" lon="6.79481">
        <ele>858.9</ele>
        <time>2020-08-08T07:39:34Z</time>
      </trkpt>
      <trkpt lat="45.62369" lon="6.79481">
        <ele>859.2</ele>
        <time>2020-08-08T07:39:36Z</time>
      </trkpt>
      <trkpt lat="45.62372" lon="6.7948">
        <ele>859.4</ele>
        <time>2020-08-08T07:39:37Z</time>
      </trkpt>
      <trkpt lat="45.6238" lon="6.79479">
        <ele>859.9</ele>
        <time>2020-08-08T07:39:38Z</time>
      </trkpt>
      <trkpt lat="45.6239" lon="6.79477">
        <ele>860.6</ele>
        <time>2020-08-08T07:39:41Z</time>
      </trkpt>
      <trkpt lat="45.62394" lon="6.79476">
        <ele>860.9</ele>
        <time>2020-08-08T07:39:42Z</time>
      </trkpt>
      <trkpt lat="45.62397" lon="6.79475">
        <ele>861.1</ele>
        <time>2020-08-08T07:39:44Z</time>
      </trkpt>
      <trkpt lat="45.62407" lon="6.79472">
        <ele>861.7</ele>
        <time>2020-08-08T07:39:46Z</time>
      </trkpt>
      <trkpt lat="45.62417" lon="6.7947">
        <ele>862.4</ele>
        <time>2020-08-08T07:39:49Z</time>
      </trkpt>
      <trkpt lat="45.62422" lon="6.79469">
        <ele>862.7</ele>
        <time>2020-08-08T07:39:51Z</time>
      </trkpt>
      <trkpt lat="45.62427" lon="6.79468">
        <ele>863</ele>
        <time>2020-08-08T07:39:52Z</time>
      </trkpt>
      <trkpt lat="45.62431" lon="6.79467">
        <ele>863.2</ele>
        <time>2020-08-08T07:39:54Z</time>
      </trkpt>
      <trkpt lat="45.62434" lon="6.79466">
        <ele>863.4</ele>
        <time>2020-08-08T07:39:56Z</time>
      </trkpt>
      <trkpt lat="45.62441" lon="6.79465">
        <ele>863.8</ele>
        <time>2020-08-08T07:39:58Z</time>
      </trkpt>
      <trkpt lat="45.62444" lon="6.79464">
        <ele>864</ele>
        <time>2020-08-08T07:39:59Z</time>
      </trkpt>
      <trkpt lat="45.62451" lon="6.79463">
        <ele>864.5</ele>
        <time>2020-08-08T07:40:00Z</time>
      </trkpt>
      <trkpt lat="45.62455" lon="6.79463">
        <ele>864.7</ele>
        <time>2020-08-08T07:40:02Z</time>
      </trkpt>
      <trkpt lat="45.62457" lon="6.79463">
        <ele>864.8</ele>
        <time>2020-08-08T07:40:03Z</time>
      </trkpt>
      <trkpt lat="45.6246" lon="6.79463">
        <ele>865</ele>
        <time>2020-08-08T07:40:04Z</time>
      </trkpt>
      <trkpt lat="45.62467" lon="6.79462">
        <ele>865.4</ele>
        <time>2020-08-08T07:40:06Z</time>
      </trkpt>
      <trkpt lat="45.62469" lon="6.79461">
        <ele>865.5</ele>
        <time>2020-08-08T07:40:08Z</time>
      </trkpt>
      <trkpt lat="45.62471" lon="6.79461">
        <ele>865.7</ele>
        <time>2020-08-08T07:40:10Z</time>
      </trkpt>
      <trkpt lat="45.62474" lon="6.7946">
        <ele>865.9</ele>
        <time>2020-08-08T07:40:11Z</time>
      </trkpt>
      <trkpt lat="45.62478" lon="6.79459">
        <ele>866.1</ele>
        <time>2020-08-08T07:40:13Z</time>
      </trkpt>
      <trkpt lat="45.62481" lon="6.79459">
        <ele>866.3</ele>
        <time>2020-08-08T07:40:15Z</time>
      </trkpt>
      <trkpt lat="45.62486" lon="6.79458">
        <ele>866.7</ele>
        <time>2020-08-08T07:40:16Z</time>
      </trkpt>
      <trkpt lat="45.6249" lon="6.79457">
        <ele>866.9</ele>
        <time>2020-08-08T07:40:17Z</time>
      </trkpt>
      <trkpt lat="45.62494" lon="6.79457">
        <ele>867.2</ele>
        <time>2020-08-08T07:40:18Z</time>
      </trkpt>
      <trkpt lat="45.62497" lon="6.79458">
        <ele>867.5</ele>
        <time>2020-08-08T07:40:19Z</time>
      </trkpt>
      <trkpt lat="45.62503" lon="6.79462">
        <ele>869.5</ele>
        <time>2020-08-08T07:40:20Z</time>
      </trkpt>
      <trkpt lat="45.62505" lon="6.79465">
        <ele>869.9</ele>
        <time>2020-08-08T07:40:22Z</time>
      </trkpt>
      <trkpt lat="45.62506" lon="6.79468">
        <ele>869.9</ele>
        <time>2020-08-08T07:40:24Z</time>
      </trkpt>
      <trkpt lat="45.62506" lon="6.7947">
        <ele>870</ele>
        <time>2020-08-08T07:40:25Z</time>
      </trkpt>
      <trkpt lat="45.62506" lon="6.79472">
        <ele>870</ele>
        <time>2020-08-08T07:40:26Z</time>
      </trkpt>
      <trkpt lat="45.62505" lon="6.79474">
        <ele>870.1</ele>
        <time>2020-08-08T07:40:27Z</time>
      </trkpt>
      <trkpt lat="45.62504" lon="6.79477">
        <ele>870.1</ele>
        <time>2020-08-08T07:40:29Z</time>
      </trkpt>
      <trkpt lat="45.62504" lon="6.79482">
        <ele>870.2</ele>
        <time>2020-08-08T07:40:30Z</time>
      </trkpt>
      <trkpt lat="45.62499" lon="6.795">
        <ele>870.7</ele>
        <time>2020-08-08T07:40:33Z</time>
      </trkpt>
      <trkpt lat="45.62497" lon="6.79511">
        <ele>871.1</ele>
        <time>2020-08-08T07:40:35Z</time>
      </trkpt>
      <trkpt lat="45.62494" lon="6.79518">
        <ele>871.4</ele>
        <time>2020-08-08T07:40:37Z</time>
      </trkpt>
      <trkpt lat="45.62492" lon="6.79523">
        <ele>871.6</ele>
        <time>2020-08-08T07:40:38Z</time>
      </trkpt>
      <trkpt lat="45.62489" lon="6.79531">
        <ele>871.9</ele>
        <time>2020-08-08T07:40:39Z</time>
      </trkpt>
      <trkpt lat="45.62485" lon="6.79539">
        <ele>872.2</ele>
        <time>2020-08-08T07:40:41Z</time>
      </trkpt>
      <trkpt lat="45.62482" lon="6.79545">
        <ele>872.4</ele>
        <time>2020-08-08T07:40:43Z</time>
      </trkpt>
      <trkpt lat="45.6248" lon="6.7955">
        <ele>872.6</ele>
        <time>2020-08-08T07:40:44Z</time>
      </trkpt>
      <trkpt lat="45.62477" lon="6.79555">
        <ele>872.8</ele>
        <time>2020-08-08T07:40:45Z</time>
      </trkpt>
      <trkpt lat="45.6247" lon="6.7957">
        <ele>873.4</ele>
        <time>2020-08-08T07:40:47Z</time>
      </trkpt>
      <trkpt lat="45.62467" lon="6.79577">
        <ele>873.7</ele>
        <time>2020-08-08T07:40:49Z</time>
      </trkpt>
      <trkpt lat="45.62465" lon="6.79581">
        <ele>873.8</ele>
        <time>2020-08-08T07:40:51Z</time>
      </trkpt>
      <trkpt lat="45.62463" lon="6.79585">
        <ele>874</ele>
        <time>2020-08-08T07:40:52Z</time>
      </trkpt>
      <trkpt lat="45.6246" lon="6.79589">
        <ele>874.2</ele>
        <time>2020-08-08T07:40:53Z</time>
      </trkpt>
      <trkpt lat="45.62456" lon="6.79597">
        <ele>874.5</ele>
        <time>2020-08-08T07:40:55Z</time>
      </trkpt>
      <trkpt lat="45.62453" lon="6.79604">
        <ele>874.8</ele>
        <time>2020-08-08T07:40:56Z</time>
      </trkpt>
      <trkpt lat="45.6245" lon="6.79609">
        <ele>875</ele>
        <time>2020-08-08T07:40:58Z</time>
      </trkpt>
      <trkpt lat="45.62446" lon="6.79617">
        <ele>875.2</ele>
        <time>2020-08-08T07:40:59Z</time>
      </trkpt>
      <trkpt lat="45.62442" lon="6.79626">
        <ele>875.6</ele>
        <time>2020-08-08T07:41:01Z</time>
      </trkpt>
      <trkpt lat="45.62438" lon="6.79633">
        <ele>875.8</ele>
        <time>2020-08-08T07:41:03Z</time>
      </trkpt>
      <trkpt lat="45.62434" lon="6.79643">
        <ele>876.1</ele>
        <time>2020-08-08T07:41:04Z</time>
      </trkpt>
      <trkpt lat="45.6243" lon="6.79653">
        <ele>876.5</ele>
        <time>2020-08-08T07:41:06Z</time>
      </trkpt>
      <trkpt lat="45.62428" lon="6.7966">
        <ele>876.7</ele>
        <time>2020-08-08T07:41:07Z</time>
      </trkpt>
      <trkpt lat="45.62424" lon="6.79668">
        <ele>877</ele>
        <time>2020-08-08T07:41:09Z</time>
      </trkpt>
      <trkpt lat="45.62418" lon="6.7968">
        <ele>877.4</ele>
        <time>2020-08-08T07:41:11Z</time>
      </trkpt>
      <trkpt lat="45.62412" lon="6.79692">
        <ele>877.9</ele>
        <time>2020-08-08T07:41:14Z</time>
      </trkpt>
      <trkpt lat="45.62405" lon="6.79704">
        <ele>878.3</ele>
        <time>2020-08-08T07:41:16Z</time>
      </trkpt>
      <trkpt lat="45.624" lon="6.79714">
        <ele>878.7</ele>
        <time>2020-08-08T07:41:19Z</time>
      </trkpt>
      <trkpt lat="45.62398" lon="6.79719">
        <ele>878.9</ele>
        <time>2020-08-08T07:41:20Z</time>
      </trkpt>
      <trkpt lat="45.62395" lon="6.79726">
        <ele>879.1</ele>
        <time>2020-08-08T07:41:21Z</time>
      </trkpt>
      <trkpt lat="45.62392" lon="6.79732">
        <ele>879.3</ele>
        <time>2020-08-08T07:41:23Z</time>
      </trkpt>
      <trkpt lat="45.62389" lon="6.79738">
        <ele>879.6</ele>
        <time>2020-08-08T07:41:24Z</time>
      </trkpt>
      <trkpt lat="45.62386" lon="6.79745">
        <ele>879.8</ele>
        <time>2020-08-08T07:41:25Z</time>
      </trkpt>
      <trkpt lat="45.62383" lon="6.79753">
        <ele>880.1</ele>
        <time>2020-08-08T07:41:27Z</time>
      </trkpt>
      <trkpt lat="45.6238" lon="6.79759">
        <ele>880.4</ele>
        <time>2020-08-08T07:41:29Z</time>
      </trkpt>
      <trkpt lat="45.62378" lon="6.79764">
        <ele>880.8</ele>
        <time>2020-08-08T07:41:30Z</time>
      </trkpt>
      <trkpt lat="45.62376" lon="6.79768">
        <ele>881.2</ele>
        <time>2020-08-08T07:41:31Z</time>
      </trkpt>
      <trkpt lat="45.6237" lon="6.79781">
        <ele>882</ele>
        <time>2020-08-08T07:41:32Z</time>
      </trkpt>
      <trkpt lat="45.62365" lon="6.79793">
        <ele>882.7</ele>
        <time>2020-08-08T07:41:35Z</time>
      </trkpt>
      <trkpt lat="45.62361" lon="6.79801">
        <ele>883.2</ele>
        <time>2020-08-08T07:41:37Z</time>
      </trkpt>
      <trkpt lat="45.62357" lon="6.79808">
        <ele>883.6</ele>
        <time>2020-08-08T07:41:39Z</time>
      </trkpt>
      <trkpt lat="45.62353" lon="6.79817">
        <ele>884.1</ele>
        <time>2020-08-08T07:41:40Z</time>
      </trkpt>
      <trkpt lat="45.62351" lon="6.79821">
        <ele>884.4</ele>
        <time>2020-08-08T07:41:42Z</time>
      </trkpt>
      <trkpt lat="45.62347" lon="6.7983">
        <ele>884.9</ele>
        <time>2020-08-08T07:41:43Z</time>
      </trkpt>
      <trkpt lat="45.62343" lon="6.79836">
        <ele>885.3</ele>
        <time>2020-08-08T07:41:44Z</time>
      </trkpt>
      <trkpt lat="45.6234" lon="6.79844">
        <ele>885.7</ele>
        <time>2020-08-08T07:41:45Z</time>
      </trkpt>
      <trkpt lat="45.62336" lon="6.79851">
        <ele>885.9</ele>
        <time>2020-08-08T07:41:48Z</time>
      </trkpt>
      <trkpt lat="45.62334" lon="6.79856">
        <ele>886</ele>
        <time>2020-08-08T07:41:49Z</time>
      </trkpt>
      <trkpt lat="45.62328" lon="6.79868">
        <ele>886.4</ele>
        <time>2020-08-08T07:41:50Z</time>
      </trkpt>
      <trkpt lat="45.62324" lon="6.79876">
        <ele>886.8</ele>
        <time>2020-08-08T07:41:53Z</time>
      </trkpt>
      <trkpt lat="45.62321" lon="6.79883">
        <ele>887.3</ele>
        <time>2020-08-08T07:41:54Z</time>
      </trkpt>
      <trkpt lat="45.62318" lon="6.7989">
        <ele>887.6</ele>
        <time>2020-08-08T07:41:56Z</time>
      </trkpt>
      <trkpt lat="45.62313" lon="6.79899">
        <ele>888.1</ele>
        <time>2020-08-08T07:41:57Z</time>
      </trkpt>
      <trkpt lat="45.62309" lon="6.79912">
        <ele>888.8</ele>
        <time>2020-08-08T07:41:59Z</time>
      </trkpt>
      <trkpt lat="45.62306" lon="6.7992">
        <ele>889.2</ele>
        <time>2020-08-08T07:42:01Z</time>
      </trkpt>
      <trkpt lat="45.62303" lon="6.79928">
        <ele>889.5</ele>
        <time>2020-08-08T07:42:02Z</time>
      </trkpt>
      <trkpt lat="45.62301" lon="6.79934">
        <ele>889.8</ele>
        <time>2020-08-08T07:42:03Z</time>
      </trkpt>
      <trkpt lat="45.62298" lon="6.7994">
        <ele>890.2</ele>
        <time>2020-08-08T07:42:04Z</time>
      </trkpt>
      <trkpt lat="45.62294" lon="6.79948">
        <ele>890.6</ele>
        <time>2020-08-08T07:42:07Z</time>
      </trkpt>
      <trkpt lat="45.6229" lon="6.79958">
        <ele>890.8</ele>
        <time>2020-08-08T07:42:08Z</time>
      </trkpt>
      <trkpt lat="45.62287" lon="6.79963">
        <ele>890.9</ele>
        <time>2020-08-08T07:42:09Z</time>
      </trkpt>
      <trkpt lat="45.62283" lon="6.7997">
        <ele>891.1</ele>
        <time>2020-08-08T07:42:10Z</time>
      </trkpt>
      <trkpt lat="45.6228" lon="6.79974">
        <ele>891.2</ele>
        <time>2020-08-08T07:42:11Z</time>
      </trkpt>
      <trkpt lat="45.62276" lon="6.79978">
        <ele>891.4</ele>
        <time>2020-08-08T07:42:13Z</time>
      </trkpt>
      <trkpt lat="45.62271" lon="6.79983">
        <ele>891.4</ele>
        <time>2020-08-08T07:42:15Z</time>
      </trkpt>
      <trkpt lat="45.6227" lon="6.79988">
        <ele>891.5</ele>
        <time>2020-08-08T07:42:16Z</time>
      </trkpt>
      <trkpt lat="45.62274" lon="6.79985">
        <ele>891.6</ele>
        <time>2020-08-08T07:42:18Z</time>
      </trkpt>
      <trkpt lat="45.62267" lon="6.79984">
        <ele>891.7</ele>
        <time>2020-08-08T07:42:19Z</time>
      </trkpt>
      <trkpt lat="45.62264" lon="6.79988">
        <ele>891.8</ele>
        <time>2020-08-08T07:42:21Z</time>
      </trkpt>
      <trkpt lat="45.62263" lon="6.79996">
        <ele>891.9</ele>
        <time>2020-08-08T07:42:23Z</time>
      </trkpt>
      <trkpt lat="45.62262" lon="6.79999">
        <ele>891.9</ele>
        <time>2020-08-08T07:42:24Z</time>
      </trkpt>
      <trkpt lat="45.62258" lon="6.80005">
        <ele>892</ele>
        <time>2020-08-08T07:42:26Z</time>
      </trkpt>
      <trkpt lat="45.62247" lon="6.8002">
        <ele>892.3</ele>
        <time>2020-08-08T07:42:27Z</time>
      </trkpt>
      <trkpt lat="45.62234" lon="6.80039">
        <ele>892.7</ele>
        <time>2020-08-08T07:42:29Z</time>
      </trkpt>
      <trkpt lat="45.62227" lon="6.80048">
        <ele>892.9</ele>
        <time>2020-08-08T07:42:30Z</time>
      </trkpt>
      <trkpt lat="45.62221" lon="6.80055">
        <ele>893</ele>
        <time>2020-08-08T07:42:31Z</time>
      </trkpt>
      <trkpt lat="45.62214" lon="6.80067">
        <ele>893.1</ele>
        <time>2020-08-08T07:42:33Z</time>
      </trkpt>
      <trkpt lat="45.6221" lon="6.80073">
        <ele>893.2</ele>
        <time>2020-08-08T07:42:34Z</time>
      </trkpt>
      <trkpt lat="45.62204" lon="6.80084">
        <ele>893.5</ele>
        <time>2020-08-08T07:42:36Z</time>
      </trkpt>
      <trkpt lat="45.62202" lon="6.8009">
        <ele>893.6</ele>
        <time>2020-08-08T07:42:37Z</time>
      </trkpt>
      <trkpt lat="45.62196" lon="6.80101">
        <ele>893.9</ele>
        <time>2020-08-08T07:42:39Z</time>
      </trkpt>
      <trkpt lat="45.6219" lon="6.80113">
        <ele>894.2</ele>
        <time>2020-08-08T07:42:41Z</time>
      </trkpt>
      <trkpt lat="45.62185" lon="6.80125">
        <ele>894.5</ele>
        <time>2020-08-08T07:42:43Z</time>
      </trkpt>
      <trkpt lat="45.6218" lon="6.80135">
        <ele>894.9</ele>
        <time>2020-08-08T07:42:45Z</time>
      </trkpt>
      <trkpt lat="45.62172" lon="6.80146">
        <ele>894.7</ele>
        <time>2020-08-08T07:42:47Z</time>
      </trkpt>
      <trkpt lat="45.62168" lon="6.80151">
        <ele>894.5</ele>
        <time>2020-08-08T07:42:48Z</time>
      </trkpt>
      <trkpt lat="45.62159" lon="6.80163">
        <ele>894</ele>
        <time>2020-08-08T07:42:50Z</time>
      </trkpt>
      <trkpt lat="45.62151" lon="6.80174">
        <ele>893.7</ele>
        <time>2020-08-08T07:42:52Z</time>
      </trkpt>
      <trkpt lat="45.62147" lon="6.80181">
        <ele>893.6</ele>
        <time>2020-08-08T07:42:53Z</time>
      </trkpt>
      <trkpt lat="45.62136" lon="6.80193">
        <ele>893.3</ele>
        <time>2020-08-08T07:42:55Z</time>
      </trkpt>
      <trkpt lat="45.6213" lon="6.80199">
        <ele>893.1</ele>
        <time>2020-08-08T07:42:56Z</time>
      </trkpt>
      <trkpt lat="45.62118" lon="6.8021">
        <ele>892.7</ele>
        <time>2020-08-08T07:42:58Z</time>
      </trkpt>
      <trkpt lat="45.62105" lon="6.8022">
        <ele>892.3</ele>
        <time>2020-08-08T07:43:00Z</time>
      </trkpt>
      <trkpt lat="45.621" lon="6.80225">
        <ele>892.1</ele>
        <time>2020-08-08T07:43:01Z</time>
      </trkpt>
      <trkpt lat="45.62094" lon="6.80231">
        <ele>891.9</ele>
        <time>2020-08-08T07:43:02Z</time>
      </trkpt>
      <trkpt lat="45.62088" lon="6.80237">
        <ele>891.8</ele>
        <time>2020-08-08T07:43:03Z</time>
      </trkpt>
      <trkpt lat="45.62076" lon="6.8025">
        <ele>891.3</ele>
        <time>2020-08-08T07:43:05Z</time>
      </trkpt>
      <trkpt lat="45.62069" lon="6.80257">
        <ele>891.1</ele>
        <time>2020-08-08T07:43:06Z</time>
      </trkpt>
      <trkpt lat="45.62063" lon="6.80263">
        <ele>890.9</ele>
        <time>2020-08-08T07:43:07Z</time>
      </trkpt>
      <trkpt lat="45.62056" lon="6.8027">
        <ele>890.7</ele>
        <time>2020-08-08T07:43:08Z</time>
      </trkpt>
      <trkpt lat="45.62041" lon="6.80283">
        <ele>890.4</ele>
        <time>2020-08-08T07:43:10Z</time>
      </trkpt>
      <trkpt lat="45.62034" lon="6.80291">
        <ele>890.2</ele>
        <time>2020-08-08T07:43:11Z</time>
      </trkpt>
      <trkpt lat="45.62022" lon="6.80308">
        <ele>889.8</ele>
        <time>2020-08-08T07:43:13Z</time>
      </trkpt>
      <trkpt lat="45.62011" lon="6.80326">
        <ele>889.5</ele>
        <time>2020-08-08T07:43:15Z</time>
      </trkpt>
      <trkpt lat="45.61999" lon="6.80343">
        <ele>889.2</ele>
        <time>2020-08-08T07:43:17Z</time>
      </trkpt>
      <trkpt lat="45.61994" lon="6.80351">
        <ele>889.1</ele>
        <time>2020-08-08T07:43:18Z</time>
      </trkpt>
      <trkpt lat="45.61984" lon="6.8037">
        <ele>888.7</ele>
        <time>2020-08-08T07:43:20Z</time>
      </trkpt>
      <trkpt lat="45.61978" lon="6.80379">
        <ele>888.4</ele>
        <time>2020-08-08T07:43:21Z</time>
      </trkpt>
      <trkpt lat="45.61969" lon="6.80398">
        <ele>887.9</ele>
        <time>2020-08-08T07:43:23Z</time>
      </trkpt>
      <trkpt lat="45.6196" lon="6.8042">
        <ele>887.2</ele>
        <time>2020-08-08T07:43:25Z</time>
      </trkpt>
      <trkpt lat="45.61955" lon="6.80431">
        <ele>886.9</ele>
        <time>2020-08-08T07:43:26Z</time>
      </trkpt>
      <trkpt lat="45.61951" lon="6.80442">
        <ele>886.6</ele>
        <time>2020-08-08T07:43:27Z</time>
      </trkpt>
      <trkpt lat="45.61941" lon="6.80464">
        <ele>886</ele>
        <time>2020-08-08T07:43:29Z</time>
      </trkpt>
      <trkpt lat="45.61931" lon="6.80486">
        <ele>885.5</ele>
        <time>2020-08-08T07:43:31Z</time>
      </trkpt>
      <trkpt lat="45.61926" lon="6.80498">
        <ele>885.2</ele>
        <time>2020-08-08T07:43:32Z</time>
      </trkpt>
      <trkpt lat="45.61916" lon="6.80523">
        <ele>884.5</ele>
        <time>2020-08-08T07:43:34Z</time>
      </trkpt>
      <trkpt lat="45.61906" lon="6.80547">
        <ele>884.1</ele>
        <time>2020-08-08T07:43:36Z</time>
      </trkpt>
      <trkpt lat="45.61901" lon="6.8056">
        <ele>883.9</ele>
        <time>2020-08-08T07:43:37Z</time>
      </trkpt>
      <trkpt lat="45.61891" lon="6.80585">
        <ele>883.5</ele>
        <time>2020-08-08T07:43:39Z</time>
      </trkpt>
      <trkpt lat="45.6188" lon="6.80611">
        <ele>883.1</ele>
        <time>2020-08-08T07:43:41Z</time>
      </trkpt>
      <trkpt lat="45.61875" lon="6.80624">
        <ele>882.8</ele>
        <time>2020-08-08T07:43:42Z</time>
      </trkpt>
      <trkpt lat="45.61864" lon="6.8065">
        <ele>882.4</ele>
        <time>2020-08-08T07:43:44Z</time>
      </trkpt>
      <trkpt lat="45.61859" lon="6.80662">
        <ele>882.2</ele>
        <time>2020-08-08T07:43:45Z</time>
      </trkpt>
      <trkpt lat="45.61854" lon="6.80675">
        <ele>882</ele>
        <time>2020-08-08T07:43:46Z</time>
      </trkpt>
      <trkpt lat="45.61843" lon="6.807">
        <ele>881.6</ele>
        <time>2020-08-08T07:43:48Z</time>
      </trkpt>
      <trkpt lat="45.61833" lon="6.80725">
        <ele>881.2</ele>
        <time>2020-08-08T07:43:50Z</time>
      </trkpt>
      <trkpt lat="45.61822" lon="6.8075">
        <ele>881</ele>
        <time>2020-08-08T07:43:52Z</time>
      </trkpt>
      <trkpt lat="45.61811" lon="6.80776">
        <ele>880.8</ele>
        <time>2020-08-08T07:43:54Z</time>
      </trkpt>
      <trkpt lat="45.61801" lon="6.80802">
        <ele>880.4</ele>
        <time>2020-08-08T07:43:56Z</time>
      </trkpt>
      <trkpt lat="45.61796" lon="6.80816">
        <ele>880.1</ele>
        <time>2020-08-08T07:43:57Z</time>
      </trkpt>
      <trkpt lat="45.61788" lon="6.80844">
        <ele>879.6</ele>
        <time>2020-08-08T07:43:59Z</time>
      </trkpt>
      <trkpt lat="45.61786" lon="6.80858">
        <ele>879.4</ele>
        <time>2020-08-08T07:44:00Z</time>
      </trkpt>
      <trkpt lat="45.61783" lon="6.80873">
        <ele>879.3</ele>
        <time>2020-08-08T07:44:01Z</time>
      </trkpt>
      <trkpt lat="45.61779" lon="6.80903">
        <ele>879.1</ele>
        <time>2020-08-08T07:44:03Z</time>
      </trkpt>
      <trkpt lat="45.61777" lon="6.80917">
        <ele>878.8</ele>
        <time>2020-08-08T07:44:04Z</time>
      </trkpt>
      <trkpt lat="45.61773" lon="6.80945">
        <ele>878.3</ele>
        <time>2020-08-08T07:44:06Z</time>
      </trkpt>
      <trkpt lat="45.61768" lon="6.80972">
        <ele>877.8</ele>
        <time>2020-08-08T07:44:08Z</time>
      </trkpt>
      <trkpt lat="45.61764" lon="6.81">
        <ele>877.3</ele>
        <time>2020-08-08T07:44:10Z</time>
      </trkpt>
      <trkpt lat="45.61761" lon="6.81028">
        <ele>876.8</ele>
        <time>2020-08-08T07:44:12Z</time>
      </trkpt>
      <trkpt lat="45.61756" lon="6.81057">
        <ele>876.3</ele>
        <time>2020-08-08T07:44:14Z</time>
      </trkpt>
      <trkpt lat="45.61754" lon="6.81071">
        <ele>876.1</ele>
        <time>2020-08-08T07:44:15Z</time>
      </trkpt>
      <trkpt lat="45.6175" lon="6.811">
        <ele>875.8</ele>
        <time>2020-08-08T07:44:17Z</time>
      </trkpt>
      <trkpt lat="45.61749" lon="6.81115">
        <ele>875.6</ele>
        <time>2020-08-08T07:44:18Z</time>
      </trkpt>
      <trkpt lat="45.61747" lon="6.81129">
        <ele>875.4</ele>
        <time>2020-08-08T07:44:19Z</time>
      </trkpt>
      <trkpt lat="45.61742" lon="6.81158">
        <ele>875</ele>
        <time>2020-08-08T07:44:21Z</time>
      </trkpt>
      <trkpt lat="45.61738" lon="6.81185">
        <ele>874.7</ele>
        <time>2020-08-08T07:44:23Z</time>
      </trkpt>
      <trkpt lat="45.61735" lon="6.81199">
        <ele>874.5</ele>
        <time>2020-08-08T07:44:24Z</time>
      </trkpt>
      <trkpt lat="45.61731" lon="6.81228">
        <ele>874</ele>
        <time>2020-08-08T07:44:26Z</time>
      </trkpt>
      <trkpt lat="45.61727" lon="6.81256">
        <ele>873.6</ele>
        <time>2020-08-08T07:44:28Z</time>
      </trkpt>
      <trkpt lat="45.61725" lon="6.81285">
        <ele>873.1</ele>
        <time>2020-08-08T07:44:30Z</time>
      </trkpt>
      <trkpt lat="45.61724" lon="6.81313">
        <ele>872.3</ele>
        <time>2020-08-08T07:44:32Z</time>
      </trkpt>
      <trkpt lat="45.61723" lon="6.81327">
        <ele>871.9</ele>
        <time>2020-08-08T07:44:33Z</time>
      </trkpt>
      <trkpt lat="45.61721" lon="6.81356">
        <ele>870.9</ele>
        <time>2020-08-08T07:44:35Z</time>
      </trkpt>
      <trkpt lat="45.6172" lon="6.8137">
        <ele>870.4</ele>
        <time>2020-08-08T07:44:36Z</time>
      </trkpt>
      <trkpt lat="45.61718" lon="6.81399">
        <ele>869.4</ele>
        <time>2020-08-08T07:44:38Z</time>
      </trkpt>
      <trkpt lat="45.61717" lon="6.81414">
        <ele>868.9</ele>
        <time>2020-08-08T07:44:39Z</time>
      </trkpt>
      <trkpt lat="45.61716" lon="6.81429">
        <ele>868.3</ele>
        <time>2020-08-08T07:44:40Z</time>
      </trkpt>
      <trkpt lat="45.61714" lon="6.81462">
        <ele>867.2</ele>
        <time>2020-08-08T07:44:42Z</time>
      </trkpt>
      <trkpt lat="45.61713" lon="6.81478">
        <ele>866.7</ele>
        <time>2020-08-08T07:44:43Z</time>
      </trkpt>
      <trkpt lat="45.61712" lon="6.81511">
        <ele>865.8</ele>
        <time>2020-08-08T07:44:45Z</time>
      </trkpt>
      <trkpt lat="45.61711" lon="6.81528">
        <ele>865.4</ele>
        <time>2020-08-08T07:44:46Z</time>
      </trkpt>
      <trkpt lat="45.61708" lon="6.81561">
        <ele>864.5</ele>
        <time>2020-08-08T07:44:48Z</time>
      </trkpt>
      <trkpt lat="45.61707" lon="6.81577">
        <ele>864</ele>
        <time>2020-08-08T07:44:49Z</time>
      </trkpt>
      <trkpt lat="45.61707" lon="6.81594">
        <ele>863.6</ele>
        <time>2020-08-08T07:44:50Z</time>
      </trkpt>
      <trkpt lat="45.61706" lon="6.81611">
        <ele>863.1</ele>
        <time>2020-08-08T07:44:51Z</time>
      </trkpt>
      <trkpt lat="45.61704" lon="6.81629">
        <ele>862.7</ele>
        <time>2020-08-08T07:44:52Z</time>
      </trkpt>
      <trkpt lat="45.617" lon="6.81663">
        <ele>861.9</ele>
        <time>2020-08-08T07:44:54Z</time>
      </trkpt>
      <trkpt lat="45.61697" lon="6.8168">
        <ele>861.4</ele>
        <time>2020-08-08T07:44:55Z</time>
      </trkpt>
      <trkpt lat="45.61693" lon="6.81697">
        <ele>861</ele>
        <time>2020-08-08T07:44:56Z</time>
      </trkpt>
      <trkpt lat="45.61683" lon="6.81729">
        <ele>860</ele>
        <time>2020-08-08T07:44:58Z</time>
      </trkpt>
      <trkpt lat="45.61672" lon="6.8176">
        <ele>859.1</ele>
        <time>2020-08-08T07:45:00Z</time>
      </trkpt>
      <trkpt lat="45.61667" lon="6.81776">
        <ele>858.6</ele>
        <time>2020-08-08T07:45:01Z</time>
      </trkpt>
      <trkpt lat="45.61661" lon="6.81792">
        <ele>858.2</ele>
        <time>2020-08-08T07:45:02Z</time>
      </trkpt>
      <trkpt lat="45.6165" lon="6.81824">
        <ele>857.3</ele>
        <time>2020-08-08T07:45:04Z</time>
      </trkpt>
      <trkpt lat="45.61638" lon="6.81857">
        <ele>856.3</ele>
        <time>2020-08-08T07:45:06Z</time>
      </trkpt>
      <trkpt lat="45.61632" lon="6.81874">
        <ele>856</ele>
        <time>2020-08-08T07:45:07Z</time>
      </trkpt>
      <trkpt lat="45.61622" lon="6.81906">
        <ele>855.3</ele>
        <time>2020-08-08T07:45:09Z</time>
      </trkpt>
      <trkpt lat="45.61617" lon="6.81922">
        <ele>855</ele>
        <time>2020-08-08T07:45:10Z</time>
      </trkpt>
      <trkpt lat="45.61606" lon="6.81954">
        <ele>854.4</ele>
        <time>2020-08-08T07:45:12Z</time>
      </trkpt>
      <trkpt lat="45.616" lon="6.8197">
        <ele>854</ele>
        <time>2020-08-08T07:45:13Z</time>
      </trkpt>
      <trkpt lat="45.61589" lon="6.82001">
        <ele>853.5</ele>
        <time>2020-08-08T07:45:15Z</time>
      </trkpt>
      <trkpt lat="45.61583" lon="6.82017">
        <ele>853.3</ele>
        <time>2020-08-08T07:45:16Z</time>
      </trkpt>
      <trkpt lat="45.61573" lon="6.82048">
        <ele>853</ele>
        <time>2020-08-08T07:45:18Z</time>
      </trkpt>
      <trkpt lat="45.61568" lon="6.82064">
        <ele>852.9</ele>
        <time>2020-08-08T07:45:19Z</time>
      </trkpt>
      <trkpt lat="45.61558" lon="6.82094">
        <ele>853.1</ele>
        <time>2020-08-08T07:45:21Z</time>
      </trkpt>
      <trkpt lat="45.61553" lon="6.82109">
        <ele>853.5</ele>
        <time>2020-08-08T07:45:22Z</time>
      </trkpt>
      <trkpt lat="45.61543" lon="6.82138">
        <ele>853.6</ele>
        <time>2020-08-08T07:45:24Z</time>
      </trkpt>
      <trkpt lat="45.61537" lon="6.82151">
        <ele>853.5</ele>
        <time>2020-08-08T07:45:25Z</time>
      </trkpt>
      <trkpt lat="45.61524" lon="6.82174">
        <ele>853</ele>
        <time>2020-08-08T07:45:27Z</time>
      </trkpt>
      <trkpt lat="45.6151" lon="6.82194">
        <ele>852.8</ele>
        <time>2020-08-08T07:45:29Z</time>
      </trkpt>
      <trkpt lat="45.61503" lon="6.82202">
        <ele>852.8</ele>
        <time>2020-08-08T07:45:30Z</time>
      </trkpt>
      <trkpt lat="45.61491" lon="6.82218">
        <ele>852.7</ele>
        <time>2020-08-08T07:45:32Z</time>
      </trkpt>
      <trkpt lat="45.61485" lon="6.82226">
        <ele>852.7</ele>
        <time>2020-08-08T07:45:33Z</time>
      </trkpt>
      <trkpt lat="45.61474" lon="6.82241">
        <ele>852.6</ele>
        <time>2020-08-08T07:45:35Z</time>
      </trkpt>
      <trkpt lat="45.61469" lon="6.82248">
        <ele>852.7</ele>
        <time>2020-08-08T07:45:36Z</time>
      </trkpt>
      <trkpt lat="45.61458" lon="6.82263">
        <ele>852.6</ele>
        <time>2020-08-08T07:45:38Z</time>
      </trkpt>
      <trkpt lat="45.61448" lon="6.82277">
        <ele>852.6</ele>
        <time>2020-08-08T07:45:40Z</time>
      </trkpt>
      <trkpt lat="45.61438" lon="6.82291">
        <ele>852.8</ele>
        <time>2020-08-08T07:45:42Z</time>
      </trkpt>
      <trkpt lat="45.61432" lon="6.82298">
        <ele>852.9</ele>
        <time>2020-08-08T07:45:43Z</time>
      </trkpt>
      <trkpt lat="45.61422" lon="6.82311">
        <ele>853.2</ele>
        <time>2020-08-08T07:45:45Z</time>
      </trkpt>
      <trkpt lat="45.61416" lon="6.82317">
        <ele>853.4</ele>
        <time>2020-08-08T07:45:46Z</time>
      </trkpt>
      <trkpt lat="45.61411" lon="6.82324">
        <ele>853.6</ele>
        <time>2020-08-08T07:45:47Z</time>
      </trkpt>
      <trkpt lat="45.61401" lon="6.82336">
        <ele>854</ele>
        <time>2020-08-08T07:45:49Z</time>
      </trkpt>
      <trkpt lat="45.61391" lon="6.82348">
        <ele>854.5</ele>
        <time>2020-08-08T07:45:51Z</time>
      </trkpt>
      <trkpt lat="45.61387" lon="6.82354">
        <ele>854.8</ele>
        <time>2020-08-08T07:45:52Z</time>
      </trkpt>
      <trkpt lat="45.61382" lon="6.8236">
        <ele>855.1</ele>
        <time>2020-08-08T07:45:53Z</time>
      </trkpt>
      <trkpt lat="45.61373" lon="6.82372">
        <ele>855.6</ele>
        <time>2020-08-08T07:45:55Z</time>
      </trkpt>
      <trkpt lat="45.61363" lon="6.82386">
        <ele>856.2</ele>
        <time>2020-08-08T07:45:57Z</time>
      </trkpt>
      <trkpt lat="45.61359" lon="6.82393">
        <ele>856.5</ele>
        <time>2020-08-08T07:45:58Z</time>
      </trkpt>
      <trkpt lat="45.6135" lon="6.82408">
        <ele>857.1</ele>
        <time>2020-08-08T07:46:00Z</time>
      </trkpt>
      <trkpt lat="45.61342" lon="6.82424">
        <ele>857.7</ele>
        <time>2020-08-08T07:46:02Z</time>
      </trkpt>
      <trkpt lat="45.61338" lon="6.82433">
        <ele>858</ele>
        <time>2020-08-08T07:46:03Z</time>
      </trkpt>
      <trkpt lat="45.61331" lon="6.82449">
        <ele>858.6</ele>
        <time>2020-08-08T07:46:05Z</time>
      </trkpt>
      <trkpt lat="45.61325" lon="6.82467">
        <ele>859</ele>
        <time>2020-08-08T07:46:07Z</time>
      </trkpt>
      <trkpt lat="45.61322" lon="6.82476">
        <ele>859.2</ele>
        <time>2020-08-08T07:46:08Z</time>
      </trkpt>
      <trkpt lat="45.61316" lon="6.82493">
        <ele>859.7</ele>
        <time>2020-08-08T07:46:10Z</time>
      </trkpt>
      <trkpt lat="45.61313" lon="6.82502">
        <ele>859.9</ele>
        <time>2020-08-08T07:46:11Z</time>
      </trkpt>
      <trkpt lat="45.6131" lon="6.82511">
        <ele>860.2</ele>
        <time>2020-08-08T07:46:12Z</time>
      </trkpt>
      <trkpt lat="45.61307" lon="6.8252">
        <ele>860.4</ele>
        <time>2020-08-08T07:46:13Z</time>
      </trkpt>
      <trkpt lat="45.61304" lon="6.82529">
        <ele>860.6</ele>
        <time>2020-08-08T07:46:14Z</time>
      </trkpt>
      <trkpt lat="45.61299" lon="6.82547">
        <ele>861</ele>
        <time>2020-08-08T07:46:16Z</time>
      </trkpt>
      <trkpt lat="45.61296" lon="6.82556">
        <ele>861.2</ele>
        <time>2020-08-08T07:46:17Z</time>
      </trkpt>
      <trkpt lat="45.61292" lon="6.82573">
        <ele>861.6</ele>
        <time>2020-08-08T07:46:19Z</time>
      </trkpt>
      <trkpt lat="45.6129" lon="6.82583">
        <ele>861.9</ele>
        <time>2020-08-08T07:46:20Z</time>
      </trkpt>
      <trkpt lat="45.61287" lon="6.82602">
        <ele>862.2</ele>
        <time>2020-08-08T07:46:22Z</time>
      </trkpt>
      <trkpt lat="45.61285" lon="6.82622">
        <ele>862.3</ele>
        <time>2020-08-08T07:46:24Z</time>
      </trkpt>
      <trkpt lat="45.61284" lon="6.82633">
        <ele>862.4</ele>
        <time>2020-08-08T07:46:25Z</time>
      </trkpt>
      <trkpt lat="45.61282" lon="6.82655">
        <ele>862.4</ele>
        <time>2020-08-08T07:46:27Z</time>
      </trkpt>
      <trkpt lat="45.61282" lon="6.82677">
        <ele>862.4</ele>
        <time>2020-08-08T07:46:29Z</time>
      </trkpt>
      <trkpt lat="45.61285" lon="6.827">
        <ele>862.2</ele>
        <time>2020-08-08T07:46:31Z</time>
      </trkpt>
      <trkpt lat="45.61288" lon="6.82723">
        <ele>861.9</ele>
        <time>2020-08-08T07:46:33Z</time>
      </trkpt>
      <trkpt lat="45.6129" lon="6.82734">
        <ele>861.8</ele>
        <time>2020-08-08T07:46:34Z</time>
      </trkpt>
      <trkpt lat="45.61294" lon="6.82757">
        <ele>861.6</ele>
        <time>2020-08-08T07:46:36Z</time>
      </trkpt>
      <trkpt lat="45.61297" lon="6.82781">
        <ele>861.8</ele>
        <time>2020-08-08T07:46:38Z</time>
      </trkpt>
      <trkpt lat="45.61297" lon="6.82793">
        <ele>862.1</ele>
        <time>2020-08-08T07:46:39Z</time>
      </trkpt>
      <trkpt lat="45.61295" lon="6.82816">
        <ele>862.2</ele>
        <time>2020-08-08T07:46:41Z</time>
      </trkpt>
      <trkpt lat="45.61291" lon="6.8284">
        <ele>862</ele>
        <time>2020-08-08T07:46:43Z</time>
      </trkpt>
      <trkpt lat="45.61288" lon="6.82852">
        <ele>862.1</ele>
        <time>2020-08-08T07:46:44Z</time>
      </trkpt>
      <trkpt lat="45.61282" lon="6.82873">
        <ele>862.4</ele>
        <time>2020-08-08T07:46:46Z</time>
      </trkpt>
      <trkpt lat="45.61279" lon="6.82884">
        <ele>862.5</ele>
        <time>2020-08-08T07:46:47Z</time>
      </trkpt>
      <trkpt lat="45.61274" lon="6.82904">
        <ele>862.7</ele>
        <time>2020-08-08T07:46:49Z</time>
      </trkpt>
      <trkpt lat="45.61269" lon="6.82925">
        <ele>862.9</ele>
        <time>2020-08-08T07:46:51Z</time>
      </trkpt>
      <trkpt lat="45.61266" lon="6.82936">
        <ele>863</ele>
        <time>2020-08-08T07:46:52Z</time>
      </trkpt>
      <trkpt lat="45.61263" lon="6.82946">
        <ele>863.2</ele>
        <time>2020-08-08T07:46:53Z</time>
      </trkpt>
      <trkpt lat="45.61257" lon="6.82966">
        <ele>863.4</ele>
        <time>2020-08-08T07:46:55Z</time>
      </trkpt>
      <trkpt lat="45.61252" lon="6.82986">
        <ele>863.6</ele>
        <time>2020-08-08T07:46:57Z</time>
      </trkpt>
      <trkpt lat="45.6125" lon="6.82996">
        <ele>863.7</ele>
        <time>2020-08-08T07:46:58Z</time>
      </trkpt>
      <trkpt lat="45.61248" lon="6.83006">
        <ele>863.8</ele>
        <time>2020-08-08T07:46:59Z</time>
      </trkpt>
      <trkpt lat="45.61243" lon="6.83026">
        <ele>864</ele>
        <time>2020-08-08T07:47:01Z</time>
      </trkpt>
      <trkpt lat="45.6124" lon="6.83036">
        <ele>864.1</ele>
        <time>2020-08-08T07:47:02Z</time>
      </trkpt>
      <trkpt lat="45.61238" lon="6.83045">
        <ele>864.2</ele>
        <time>2020-08-08T07:47:03Z</time>
      </trkpt>
      <trkpt lat="45.61232" lon="6.83064">
        <ele>864.4</ele>
        <time>2020-08-08T07:47:05Z</time>
      </trkpt>
      <trkpt lat="45.61229" lon="6.83074">
        <ele>864.5</ele>
        <time>2020-08-08T07:47:06Z</time>
      </trkpt>
      <trkpt lat="45.61224" lon="6.83093">
        <ele>864.6</ele>
        <time>2020-08-08T07:47:08Z</time>
      </trkpt>
      <trkpt lat="45.61218" lon="6.83112">
        <ele>864.8</ele>
        <time>2020-08-08T07:47:10Z</time>
      </trkpt>
      <trkpt lat="45.61215" lon="6.83122">
        <ele>864.8</ele>
        <time>2020-08-08T07:47:11Z</time>
      </trkpt>
      <trkpt lat="45.61209" lon="6.83141">
        <ele>864.9</ele>
        <time>2020-08-08T07:47:13Z</time>
      </trkpt>
      <trkpt lat="45.61206" lon="6.83151">
        <ele>865</ele>
        <time>2020-08-08T07:47:14Z</time>
      </trkpt>
      <trkpt lat="45.612" lon="6.8317">
        <ele>865.1</ele>
        <time>2020-08-08T07:47:16Z</time>
      </trkpt>
      <trkpt lat="45.61195" lon="6.83189">
        <ele>865.3</ele>
        <time>2020-08-08T07:47:18Z</time>
      </trkpt>
      <trkpt lat="45.61189" lon="6.83209">
        <ele>865.3</ele>
        <time>2020-08-08T07:47:20Z</time>
      </trkpt>
      <trkpt lat="45.61186" lon="6.83219">
        <ele>865.4</ele>
        <time>2020-08-08T07:47:21Z</time>
      </trkpt>
      <trkpt lat="45.6118" lon="6.83237">
        <ele>865.3</ele>
        <time>2020-08-08T07:47:23Z</time>
      </trkpt>
      <trkpt lat="45.61176" lon="6.83247">
        <ele>865.3</ele>
        <time>2020-08-08T07:47:24Z</time>
      </trkpt>
      <trkpt lat="45.61173" lon="6.83257">
        <ele>865.4</ele>
        <time>2020-08-08T07:47:25Z</time>
      </trkpt>
      <trkpt lat="45.61167" lon="6.83277">
        <ele>865.6</ele>
        <time>2020-08-08T07:47:27Z</time>
      </trkpt>
      <trkpt lat="45.61161" lon="6.83296">
        <ele>865.9</ele>
        <time>2020-08-08T07:47:29Z</time>
      </trkpt>
      <trkpt lat="45.61158" lon="6.83305">
        <ele>866</ele>
        <time>2020-08-08T07:47:30Z</time>
      </trkpt>
      <trkpt lat="45.61156" lon="6.83315">
        <ele>866.1</ele>
        <time>2020-08-08T07:47:31Z</time>
      </trkpt>
      <trkpt lat="45.6115" lon="6.83333">
        <ele>866.3</ele>
        <time>2020-08-08T07:47:33Z</time>
      </trkpt>
      <trkpt lat="45.61145" lon="6.83351">
        <ele>866.4</ele>
        <time>2020-08-08T07:47:35Z</time>
      </trkpt>
      <trkpt lat="45.61138" lon="6.83369">
        <ele>866.7</ele>
        <time>2020-08-08T07:47:37Z</time>
      </trkpt>
      <trkpt lat="45.61135" lon="6.83379">
        <ele>866.9</ele>
        <time>2020-08-08T07:47:38Z</time>
      </trkpt>
      <trkpt lat="45.6113" lon="6.83398">
        <ele>867.1</ele>
        <time>2020-08-08T07:47:40Z</time>
      </trkpt>
      <trkpt lat="45.61127" lon="6.83407">
        <ele>867.2</ele>
        <time>2020-08-08T07:47:41Z</time>
      </trkpt>
      <trkpt lat="45.61122" lon="6.83425">
        <ele>867.3</ele>
        <time>2020-08-08T07:47:43Z</time>
      </trkpt>
      <trkpt lat="45.61119" lon="6.83435">
        <ele>867.3</ele>
        <time>2020-08-08T07:47:44Z</time>
      </trkpt>
      <trkpt lat="45.61114" lon="6.83453">
        <ele>867.5</ele>
        <time>2020-08-08T07:47:46Z</time>
      </trkpt>
      <trkpt lat="45.61108" lon="6.83471">
        <ele>867.5</ele>
        <time>2020-08-08T07:47:48Z</time>
      </trkpt>
      <trkpt lat="45.61105" lon="6.8348">
        <ele>867.5</ele>
        <time>2020-08-08T07:47:49Z</time>
      </trkpt>
      <trkpt lat="45.61099" lon="6.83498">
        <ele>867.5</ele>
        <time>2020-08-08T07:47:51Z</time>
      </trkpt>
      <trkpt lat="45.61093" lon="6.83519">
        <ele>867.4</ele>
        <time>2020-08-08T07:47:53Z</time>
      </trkpt>
      <trkpt lat="45.6109" lon="6.83528">
        <ele>867.3</ele>
        <time>2020-08-08T07:47:54Z</time>
      </trkpt>
      <trkpt lat="45.61083" lon="6.83548">
        <ele>867.2</ele>
        <time>2020-08-08T07:47:56Z</time>
      </trkpt>
      <trkpt lat="45.61076" lon="6.83569">
        <ele>867</ele>
        <time>2020-08-08T07:47:58Z</time>
      </trkpt>
      <trkpt lat="45.61067" lon="6.83587">
        <ele>866.9</ele>
        <time>2020-08-08T07:48:00Z</time>
      </trkpt>
      <trkpt lat="45.61057" lon="6.83604">
        <ele>866.7</ele>
        <time>2020-08-08T07:48:02Z</time>
      </trkpt>
      <trkpt lat="45.61052" lon="6.83612">
        <ele>866.5</ele>
        <time>2020-08-08T07:48:03Z</time>
      </trkpt>
      <trkpt lat="45.6104" lon="6.83627">
        <ele>866.3</ele>
        <time>2020-08-08T07:48:05Z</time>
      </trkpt>
      <trkpt lat="45.61028" lon="6.83643">
        <ele>866.2</ele>
        <time>2020-08-08T07:48:07Z</time>
      </trkpt>
      <trkpt lat="45.61021" lon="6.83651">
        <ele>866.1</ele>
        <time>2020-08-08T07:48:08Z</time>
      </trkpt>
      <trkpt lat="45.61015" lon="6.83658">
        <ele>866</ele>
        <time>2020-08-08T07:48:09Z</time>
      </trkpt>
      <trkpt lat="45.61003" lon="6.83673">
        <ele>865.8</ele>
        <time>2020-08-08T07:48:11Z</time>
      </trkpt>
      <trkpt lat="45.60996" lon="6.8368">
        <ele>865.8</ele>
        <time>2020-08-08T07:48:12Z</time>
      </trkpt>
      <trkpt lat="45.6099" lon="6.83688">
        <ele>866</ele>
        <time>2020-08-08T07:48:13Z</time>
      </trkpt>
      <trkpt lat="45.60984" lon="6.83695">
        <ele>866.2</ele>
        <time>2020-08-08T07:48:14Z</time>
      </trkpt>
      <trkpt lat="45.60973" lon="6.8371">
        <ele>866.5</ele>
        <time>2020-08-08T07:48:16Z</time>
      </trkpt>
      <trkpt lat="45.60969" lon="6.83718">
        <ele>866.5</ele>
        <time>2020-08-08T07:48:17Z</time>
      </trkpt>
      <trkpt lat="45.6096" lon="6.83737">
        <ele>866.5</ele>
        <time>2020-08-08T07:48:19Z</time>
      </trkpt>
      <trkpt lat="45.60957" lon="6.83747">
        <ele>866.7</ele>
        <time>2020-08-08T07:48:20Z</time>
      </trkpt>
      <trkpt lat="45.60953" lon="6.83757">
        <ele>866.8</ele>
        <time>2020-08-08T07:48:21Z</time>
      </trkpt>
      <trkpt lat="45.60947" lon="6.83776">
        <ele>867.3</ele>
        <time>2020-08-08T07:48:23Z</time>
      </trkpt>
      <trkpt lat="45.60944" lon="6.83786">
        <ele>867.5</ele>
        <time>2020-08-08T07:48:24Z</time>
      </trkpt>
      <trkpt lat="45.60937" lon="6.83805">
        <ele>868</ele>
        <time>2020-08-08T07:48:26Z</time>
      </trkpt>
      <trkpt lat="45.60934" lon="6.83814">
        <ele>868.3</ele>
        <time>2020-08-08T07:48:27Z</time>
      </trkpt>
      <trkpt lat="45.60927" lon="6.83831">
        <ele>868.9</ele>
        <time>2020-08-08T07:48:29Z</time>
      </trkpt>
      <trkpt lat="45.60924" lon="6.83839">
        <ele>869.2</ele>
        <time>2020-08-08T07:48:30Z</time>
      </trkpt>
      <trkpt lat="45.6092" lon="6.83847">
        <ele>869.5</ele>
        <time>2020-08-08T07:48:31Z</time>
      </trkpt>
      <trkpt lat="45.60917" lon="6.83854">
        <ele>869.9</ele>
        <time>2020-08-08T07:48:32Z</time>
      </trkpt>
      <trkpt lat="45.60913" lon="6.83861">
        <ele>870.2</ele>
        <time>2020-08-08T07:48:33Z</time>
      </trkpt>
      <trkpt lat="45.60906" lon="6.83873">
        <ele>870.8</ele>
        <time>2020-08-08T07:48:35Z</time>
      </trkpt>
      <trkpt lat="45.60902" lon="6.83879">
        <ele>871</ele>
        <time>2020-08-08T07:48:36Z</time>
      </trkpt>
      <trkpt lat="45.60899" lon="6.83886">
        <ele>871.4</ele>
        <time>2020-08-08T07:48:37Z</time>
      </trkpt>
      <trkpt lat="45.60891" lon="6.83898">
        <ele>872</ele>
        <time>2020-08-08T07:48:39Z</time>
      </trkpt>
      <trkpt lat="45.60887" lon="6.83905">
        <ele>872.3</ele>
        <time>2020-08-08T07:48:40Z</time>
      </trkpt>
      <trkpt lat="45.60883" lon="6.83912">
        <ele>872.6</ele>
        <time>2020-08-08T07:48:41Z</time>
      </trkpt>
      <trkpt lat="45.60876" lon="6.83925">
        <ele>873.1</ele>
        <time>2020-08-08T07:48:43Z</time>
      </trkpt>
      <trkpt lat="45.6087" lon="6.8394">
        <ele>873.7</ele>
        <time>2020-08-08T07:48:45Z</time>
      </trkpt>
      <trkpt lat="45.60865" lon="6.83955">
        <ele>874.2</ele>
        <time>2020-08-08T07:48:47Z</time>
      </trkpt>
      <trkpt lat="45.60863" lon="6.83962">
        <ele>874.4</ele>
        <time>2020-08-08T07:48:48Z</time>
      </trkpt>
      <trkpt lat="45.60859" lon="6.83978">
        <ele>874.8</ele>
        <time>2020-08-08T07:48:50Z</time>
      </trkpt>
      <trkpt lat="45.60857" lon="6.83986">
        <ele>875</ele>
        <time>2020-08-08T07:48:51Z</time>
      </trkpt>
      <trkpt lat="45.60855" lon="6.83994">
        <ele>875.3</ele>
        <time>2020-08-08T07:48:52Z</time>
      </trkpt>
      <trkpt lat="45.60852" lon="6.8401">
        <ele>875.9</ele>
        <time>2020-08-08T07:48:54Z</time>
      </trkpt>
      <trkpt lat="45.60849" lon="6.84025">
        <ele>876.4</ele>
        <time>2020-08-08T07:48:56Z</time>
      </trkpt>
      <trkpt lat="45.60846" lon="6.84041">
        <ele>876.9</ele>
        <time>2020-08-08T07:48:58Z</time>
      </trkpt>
      <trkpt lat="45.60845" lon="6.84049">
        <ele>877.1</ele>
        <time>2020-08-08T07:48:59Z</time>
      </trkpt>
      <trkpt lat="45.60843" lon="6.84057">
        <ele>877.4</ele>
        <time>2020-08-08T07:49:00Z</time>
      </trkpt>
      <trkpt lat="45.6084" lon="6.84072">
        <ele>877.9</ele>
        <time>2020-08-08T07:49:02Z</time>
      </trkpt>
      <trkpt lat="45.60839" lon="6.84079">
        <ele>878.1</ele>
        <time>2020-08-08T07:49:03Z</time>
      </trkpt>
      <trkpt lat="45.60836" lon="6.84093">
        <ele>878.6</ele>
        <time>2020-08-08T07:49:05Z</time>
      </trkpt>
      <trkpt lat="45.60834" lon="6.841">
        <ele>878.9</ele>
        <time>2020-08-08T07:49:06Z</time>
      </trkpt>
      <trkpt lat="45.60832" lon="6.84115">
        <ele>879.4</ele>
        <time>2020-08-08T07:49:08Z</time>
      </trkpt>
      <trkpt lat="45.6083" lon="6.84122">
        <ele>879.7</ele>
        <time>2020-08-08T07:49:09Z</time>
      </trkpt>
      <trkpt lat="45.60826" lon="6.84136">
        <ele>880.1</ele>
        <time>2020-08-08T07:49:11Z</time>
      </trkpt>
      <trkpt lat="45.60822" lon="6.8415">
        <ele>880.6</ele>
        <time>2020-08-08T07:49:13Z</time>
      </trkpt>
      <trkpt lat="45.60821" lon="6.84157">
        <ele>880.8</ele>
        <time>2020-08-08T07:49:14Z</time>
      </trkpt>
      <trkpt lat="45.60817" lon="6.84169">
        <ele>881.2</ele>
        <time>2020-08-08T07:49:16Z</time>
      </trkpt>
      <trkpt lat="45.60813" lon="6.84182">
        <ele>881.7</ele>
        <time>2020-08-08T07:49:18Z</time>
      </trkpt>
      <trkpt lat="45.60809" lon="6.84195">
        <ele>882.2</ele>
        <time>2020-08-08T07:49:20Z</time>
      </trkpt>
      <trkpt lat="45.60808" lon="6.84202">
        <ele>882.5</ele>
        <time>2020-08-08T07:49:21Z</time>
      </trkpt>
      <trkpt lat="45.60805" lon="6.84216">
        <ele>883</ele>
        <time>2020-08-08T07:49:23Z</time>
      </trkpt>
      <trkpt lat="45.60802" lon="6.8423">
        <ele>883.6</ele>
        <time>2020-08-08T07:49:25Z</time>
      </trkpt>
      <trkpt lat="45.60802" lon="6.84237">
        <ele>883.8</ele>
        <time>2020-08-08T07:49:26Z</time>
      </trkpt>
      <trkpt lat="45.60801" lon="6.84245">
        <ele>884.1</ele>
        <time>2020-08-08T07:49:27Z</time>
      </trkpt>
      <trkpt lat="45.60801" lon="6.84259">
        <ele>884.5</ele>
        <time>2020-08-08T07:49:29Z</time>
      </trkpt>
      <trkpt lat="45.60801" lon="6.84273">
        <ele>884.9</ele>
        <time>2020-08-08T07:49:31Z</time>
      </trkpt>
      <trkpt lat="45.60801" lon="6.84287">
        <ele>885.3</ele>
        <time>2020-08-08T07:49:33Z</time>
      </trkpt>
      <trkpt lat="45.60801" lon="6.84294">
        <ele>885.4</ele>
        <time>2020-08-08T07:49:34Z</time>
      </trkpt>
      <trkpt lat="45.60801" lon="6.84308">
        <ele>885.8</ele>
        <time>2020-08-08T07:49:36Z</time>
      </trkpt>
      <trkpt lat="45.608" lon="6.84315">
        <ele>886.1</ele>
        <time>2020-08-08T07:49:37Z</time>
      </trkpt>
      <trkpt lat="45.60796" lon="6.84329">
        <ele>886.5</ele>
        <time>2020-08-08T07:49:39Z</time>
      </trkpt>
      <trkpt lat="45.60795" lon="6.84335">
        <ele>886.7</ele>
        <time>2020-08-08T07:49:40Z</time>
      </trkpt>
      <trkpt lat="45.60792" lon="6.84349">
        <ele>887.1</ele>
        <time>2020-08-08T07:49:42Z</time>
      </trkpt>
      <trkpt lat="45.60791" lon="6.84356">
        <ele>887.2</ele>
        <time>2020-08-08T07:49:43Z</time>
      </trkpt>
      <trkpt lat="45.60788" lon="6.8437">
        <ele>887.6</ele>
        <time>2020-08-08T07:49:45Z</time>
      </trkpt>
      <trkpt lat="45.60786" lon="6.84384">
        <ele>888</ele>
        <time>2020-08-08T07:49:47Z</time>
      </trkpt>
      <trkpt lat="45.60785" lon="6.84391">
        <ele>888.1</ele>
        <time>2020-08-08T07:49:48Z</time>
      </trkpt>
      <trkpt lat="45.60782" lon="6.84405">
        <ele>888.5</ele>
        <time>2020-08-08T07:49:50Z</time>
      </trkpt>
      <trkpt lat="45.60781" lon="6.84413">
        <ele>888.6</ele>
        <time>2020-08-08T07:49:51Z</time>
      </trkpt>
      <trkpt lat="45.60779" lon="6.8442">
        <ele>888.7</ele>
        <time>2020-08-08T07:49:52Z</time>
      </trkpt>
      <trkpt lat="45.60777" lon="6.84435">
        <ele>889</ele>
        <time>2020-08-08T07:49:54Z</time>
      </trkpt>
      <trkpt lat="45.60776" lon="6.84443">
        <ele>889.2</ele>
        <time>2020-08-08T07:49:55Z</time>
      </trkpt>
      <trkpt lat="45.60773" lon="6.84459">
        <ele>889.5</ele>
        <time>2020-08-08T07:49:57Z</time>
      </trkpt>
      <trkpt lat="45.60771" lon="6.84467">
        <ele>889.6</ele>
        <time>2020-08-08T07:49:58Z</time>
      </trkpt>
      <trkpt lat="45.60768" lon="6.84483">
        <ele>889.9</ele>
        <time>2020-08-08T07:50:00Z</time>
      </trkpt>
      <trkpt lat="45.60766" lon="6.84491">
        <ele>890.1</ele>
        <time>2020-08-08T07:50:01Z</time>
      </trkpt>
      <trkpt lat="45.60765" lon="6.84499">
        <ele>890.2</ele>
        <time>2020-08-08T07:50:02Z</time>
      </trkpt>
      <trkpt lat="45.60763" lon="6.84506">
        <ele>890.4</ele>
        <time>2020-08-08T07:50:03Z</time>
      </trkpt>
      <trkpt lat="45.60759" lon="6.84522">
        <ele>890.7</ele>
        <time>2020-08-08T07:50:05Z</time>
      </trkpt>
      <trkpt lat="45.60757" lon="6.8453">
        <ele>890.9</ele>
        <time>2020-08-08T07:50:06Z</time>
      </trkpt>
      <trkpt lat="45.60752" lon="6.84546">
        <ele>891.2</ele>
        <time>2020-08-08T07:50:08Z</time>
      </trkpt>
      <trkpt lat="45.6075" lon="6.84554">
        <ele>891.4</ele>
        <time>2020-08-08T07:50:09Z</time>
      </trkpt>
      <trkpt lat="45.60745" lon="6.8457">
        <ele>891.8</ele>
        <time>2020-08-08T07:50:11Z</time>
      </trkpt>
      <trkpt lat="45.6074" lon="6.84586">
        <ele>892.3</ele>
        <time>2020-08-08T07:50:13Z</time>
      </trkpt>
      <trkpt lat="45.60737" lon="6.84594">
        <ele>892.5</ele>
        <time>2020-08-08T07:50:14Z</time>
      </trkpt>
      <trkpt lat="45.60734" lon="6.84602">
        <ele>892.7</ele>
        <time>2020-08-08T07:50:15Z</time>
      </trkpt>
      <trkpt lat="45.60731" lon="6.84609">
        <ele>893</ele>
        <time>2020-08-08T07:50:16Z</time>
      </trkpt>
      <trkpt lat="45.60728" lon="6.84617">
        <ele>893.2</ele>
        <time>2020-08-08T07:50:17Z</time>
      </trkpt>
      <trkpt lat="45.60725" lon="6.84625">
        <ele>893.4</ele>
        <time>2020-08-08T07:50:18Z</time>
      </trkpt>
      <trkpt lat="45.60721" lon="6.84639">
        <ele>894</ele>
        <time>2020-08-08T07:50:20Z</time>
      </trkpt>
      <trkpt lat="45.60718" lon="6.84647">
        <ele>894.3</ele>
        <time>2020-08-08T07:50:21Z</time>
      </trkpt>
      <trkpt lat="45.60714" lon="6.84662">
        <ele>894.8</ele>
        <time>2020-08-08T07:50:23Z</time>
      </trkpt>
      <trkpt lat="45.60711" lon="6.8467">
        <ele>895.1</ele>
        <time>2020-08-08T07:50:24Z</time>
      </trkpt>
      <trkpt lat="45.60707" lon="6.84686">
        <ele>895.6</ele>
        <time>2020-08-08T07:50:26Z</time>
      </trkpt>
      <trkpt lat="45.60704" lon="6.84693">
        <ele>895.9</ele>
        <time>2020-08-08T07:50:27Z</time>
      </trkpt>
      <trkpt lat="45.60701" lon="6.84709">
        <ele>896.5</ele>
        <time>2020-08-08T07:50:29Z</time>
      </trkpt>
      <trkpt lat="45.60699" lon="6.84716">
        <ele>896.7</ele>
        <time>2020-08-08T07:50:30Z</time>
      </trkpt>
      <trkpt lat="45.60695" lon="6.84729">
        <ele>897.2</ele>
        <time>2020-08-08T07:50:32Z</time>
      </trkpt>
      <trkpt lat="45.60693" lon="6.84736">
        <ele>897.5</ele>
        <time>2020-08-08T07:50:33Z</time>
      </trkpt>
      <trkpt lat="45.60691" lon="6.84743">
        <ele>897.8</ele>
        <time>2020-08-08T07:50:34Z</time>
      </trkpt>
      <trkpt lat="45.60688" lon="6.84755">
        <ele>898.3</ele>
        <time>2020-08-08T07:50:36Z</time>
      </trkpt>
      <trkpt lat="45.60687" lon="6.84762">
        <ele>898.5</ele>
        <time>2020-08-08T07:50:37Z</time>
      </trkpt>
      <trkpt lat="45.60684" lon="6.84774">
        <ele>898.9</ele>
        <time>2020-08-08T07:50:39Z</time>
      </trkpt>
      <trkpt lat="45.60682" lon="6.84781">
        <ele>899.2</ele>
        <time>2020-08-08T07:50:40Z</time>
      </trkpt>
      <trkpt lat="45.6068" lon="6.84787">
        <ele>899.3</ele>
        <time>2020-08-08T07:50:41Z</time>
      </trkpt>
      <trkpt lat="45.60677" lon="6.848">
        <ele>899.7</ele>
        <time>2020-08-08T07:50:43Z</time>
      </trkpt>
      <trkpt lat="45.60673" lon="6.84813">
        <ele>900</ele>
        <time>2020-08-08T07:50:45Z</time>
      </trkpt>
      <trkpt lat="45.60672" lon="6.84819">
        <ele>900.1</ele>
        <time>2020-08-08T07:50:46Z</time>
      </trkpt>
      <trkpt lat="45.60669" lon="6.84833">
        <ele>900.4</ele>
        <time>2020-08-08T07:50:48Z</time>
      </trkpt>
      <trkpt lat="45.60666" lon="6.84846">
        <ele>900.7</ele>
        <time>2020-08-08T07:50:50Z</time>
      </trkpt>
      <trkpt lat="45.60664" lon="6.8486">
        <ele>901</ele>
        <time>2020-08-08T07:50:52Z</time>
      </trkpt>
      <trkpt lat="45.60663" lon="6.84875">
        <ele>901.2</ele>
        <time>2020-08-08T07:50:54Z</time>
      </trkpt>
      <trkpt lat="45.60663" lon="6.84883">
        <ele>901.3</ele>
        <time>2020-08-08T07:50:55Z</time>
      </trkpt>
      <trkpt lat="45.60662" lon="6.84891">
        <ele>901.3</ele>
        <time>2020-08-08T07:50:56Z</time>
      </trkpt>
      <trkpt lat="45.60661" lon="6.84907">
        <ele>901.2</ele>
        <time>2020-08-08T07:50:58Z</time>
      </trkpt>
      <trkpt lat="45.6066" lon="6.84915">
        <ele>901.1</ele>
        <time>2020-08-08T07:50:59Z</time>
      </trkpt>
      <trkpt lat="45.60659" lon="6.84924">
        <ele>901.1</ele>
        <time>2020-08-08T07:51:00Z</time>
      </trkpt>
      <trkpt lat="45.60657" lon="6.84941">
        <ele>900.9</ele>
        <time>2020-08-08T07:51:02Z</time>
      </trkpt>
      <trkpt lat="45.60654" lon="6.84961">
        <ele>900.6</ele>
        <time>2020-08-08T07:51:04Z</time>
      </trkpt>
      <trkpt lat="45.60651" lon="6.84982">
        <ele>900.3</ele>
        <time>2020-08-08T07:51:06Z</time>
      </trkpt>
      <trkpt lat="45.60647" lon="6.85005">
        <ele>900</ele>
        <time>2020-08-08T07:51:08Z</time>
      </trkpt>
      <trkpt lat="45.60641" lon="6.85027">
        <ele>899.6</ele>
        <time>2020-08-08T07:51:10Z</time>
      </trkpt>
      <trkpt lat="45.60633" lon="6.85049">
        <ele>899.2</ele>
        <time>2020-08-08T07:51:12Z</time>
      </trkpt>
      <trkpt lat="45.60629" lon="6.85058">
        <ele>899.1</ele>
        <time>2020-08-08T07:51:13Z</time>
      </trkpt>
      <trkpt lat="45.6062" lon="6.85078">
        <ele>898.8</ele>
        <time>2020-08-08T07:51:15Z</time>
      </trkpt>
      <trkpt lat="45.60612" lon="6.85097">
        <ele>898.2</ele>
        <time>2020-08-08T07:51:17Z</time>
      </trkpt>
      <trkpt lat="45.60608" lon="6.85108">
        <ele>897.9</ele>
        <time>2020-08-08T07:51:18Z</time>
      </trkpt>
      <trkpt lat="45.60602" lon="6.8513">
        <ele>897.3</ele>
        <time>2020-08-08T07:51:20Z</time>
      </trkpt>
      <trkpt lat="45.60598" lon="6.85141">
        <ele>896.9</ele>
        <time>2020-08-08T07:51:21Z</time>
      </trkpt>
      <trkpt lat="45.60594" lon="6.85166">
        <ele>896.2</ele>
        <time>2020-08-08T07:51:23Z</time>
      </trkpt>
      <trkpt lat="45.60593" lon="6.85179">
        <ele>895.8</ele>
        <time>2020-08-08T07:51:24Z</time>
      </trkpt>
      <trkpt lat="45.60592" lon="6.85206">
        <ele>895.1</ele>
        <time>2020-08-08T07:51:26Z</time>
      </trkpt>
      <trkpt lat="45.60592" lon="6.85219">
        <ele>894.8</ele>
        <time>2020-08-08T07:51:27Z</time>
      </trkpt>
      <trkpt lat="45.60592" lon="6.85232">
        <ele>894.4</ele>
        <time>2020-08-08T07:51:28Z</time>
      </trkpt>
      <trkpt lat="45.60592" lon="6.85259">
        <ele>893.8</ele>
        <time>2020-08-08T07:51:30Z</time>
      </trkpt>
      <trkpt lat="45.60591" lon="6.85272">
        <ele>893.6</ele>
        <time>2020-08-08T07:51:31Z</time>
      </trkpt>
      <trkpt lat="45.6059" lon="6.85285">
        <ele>893.4</ele>
        <time>2020-08-08T07:51:32Z</time>
      </trkpt>
      <trkpt lat="45.6059" lon="6.85297">
        <ele>893.2</ele>
        <time>2020-08-08T07:51:33Z</time>
      </trkpt>
      <trkpt lat="45.60589" lon="6.85322">
        <ele>892.8</ele>
        <time>2020-08-08T07:51:35Z</time>
      </trkpt>
      <trkpt lat="45.60588" lon="6.85334">
        <ele>892.7</ele>
        <time>2020-08-08T07:51:36Z</time>
      </trkpt>
      <trkpt lat="45.60586" lon="6.85359">
        <ele>892.5</ele>
        <time>2020-08-08T07:51:38Z</time>
      </trkpt>
      <trkpt lat="45.60583" lon="6.85382">
        <ele>892.4</ele>
        <time>2020-08-08T07:51:40Z</time>
      </trkpt>
      <trkpt lat="45.60582" lon="6.85394">
        <ele>892.3</ele>
        <time>2020-08-08T07:51:41Z</time>
      </trkpt>
      <trkpt lat="45.6058" lon="6.85405">
        <ele>892.2</ele>
        <time>2020-08-08T07:51:42Z</time>
      </trkpt>
      <trkpt lat="45.60576" lon="6.85428">
        <ele>892</ele>
        <time>2020-08-08T07:51:44Z</time>
      </trkpt>
      <trkpt lat="45.60574" lon="6.85439">
        <ele>892</ele>
        <time>2020-08-08T07:51:45Z</time>
      </trkpt>
      <trkpt lat="45.60571" lon="6.8545">
        <ele>891.9</ele>
        <time>2020-08-08T07:51:46Z</time>
      </trkpt>
      <trkpt lat="45.60566" lon="6.85472">
        <ele>891.8</ele>
        <time>2020-08-08T07:51:48Z</time>
      </trkpt>
      <trkpt lat="45.60562" lon="6.85483">
        <ele>891.8</ele>
        <time>2020-08-08T07:51:49Z</time>
      </trkpt>
      <trkpt lat="45.60554" lon="6.85503">
        <ele>891.4</ele>
        <time>2020-08-08T07:51:51Z</time>
      </trkpt>
      <trkpt lat="45.60544" lon="6.85521">
        <ele>891.4</ele>
        <time>2020-08-08T07:51:53Z</time>
      </trkpt>
      <trkpt lat="45.60535" lon="6.85536">
        <ele>891.8</ele>
        <time>2020-08-08T07:51:55Z</time>
      </trkpt>
      <trkpt lat="45.6053" lon="6.85544">
        <ele>891.9</ele>
        <time>2020-08-08T07:51:56Z</time>
      </trkpt>
      <trkpt lat="45.60521" lon="6.85558">
        <ele>892.3</ele>
        <time>2020-08-08T07:51:58Z</time>
      </trkpt>
      <trkpt lat="45.60512" lon="6.85573">
        <ele>892.7</ele>
        <time>2020-08-08T07:52:00Z</time>
      </trkpt>
      <trkpt lat="45.60507" lon="6.85581">
        <ele>892.9</ele>
        <time>2020-08-08T07:52:01Z</time>
      </trkpt>
      <trkpt lat="45.60498" lon="6.85596">
        <ele>893.3</ele>
        <time>2020-08-08T07:52:03Z</time>
      </trkpt>
      <trkpt lat="45.60489" lon="6.85611">
        <ele>893.7</ele>
        <time>2020-08-08T07:52:05Z</time>
      </trkpt>
      <trkpt lat="45.60485" lon="6.85618">
        <ele>893.9</ele>
        <time>2020-08-08T07:52:06Z</time>
      </trkpt>
      <trkpt lat="45.60475" lon="6.85632">
        <ele>894.3</ele>
        <time>2020-08-08T07:52:08Z</time>
      </trkpt>
      <trkpt lat="45.60466" lon="6.85645">
        <ele>894.6</ele>
        <time>2020-08-08T07:52:10Z</time>
      </trkpt>
      <trkpt lat="45.60461" lon="6.85652">
        <ele>894.8</ele>
        <time>2020-08-08T07:52:11Z</time>
      </trkpt>
      <trkpt lat="45.60454" lon="6.85666">
        <ele>895.1</ele>
        <time>2020-08-08T07:52:13Z</time>
      </trkpt>
      <trkpt lat="45.60447" lon="6.85681">
        <ele>895.4</ele>
        <time>2020-08-08T07:52:15Z</time>
      </trkpt>
      <trkpt lat="45.60443" lon="6.85689">
        <ele>895.6</ele>
        <time>2020-08-08T07:52:16Z</time>
      </trkpt>
      <trkpt lat="45.60435" lon="6.85702">
        <ele>895.8</ele>
        <time>2020-08-08T07:52:18Z</time>
      </trkpt>
      <trkpt lat="45.60426" lon="6.85716">
        <ele>896</ele>
        <time>2020-08-08T07:52:20Z</time>
      </trkpt>
      <trkpt lat="45.60422" lon="6.85724">
        <ele>896</ele>
        <time>2020-08-08T07:52:21Z</time>
      </trkpt>
      <trkpt lat="45.60413" lon="6.85739">
        <ele>896</ele>
        <time>2020-08-08T07:52:23Z</time>
      </trkpt>
      <trkpt lat="45.60403" lon="6.85756">
        <ele>896</ele>
        <time>2020-08-08T07:52:25Z</time>
      </trkpt>
      <trkpt lat="45.60399" lon="6.85765">
        <ele>896</ele>
        <time>2020-08-08T07:52:26Z</time>
      </trkpt>
      <trkpt lat="45.6039" lon="6.85785">
        <ele>896</ele>
        <time>2020-08-08T07:52:28Z</time>
      </trkpt>
      <trkpt lat="45.60382" lon="6.85804">
        <ele>896.1</ele>
        <time>2020-08-08T07:52:30Z</time>
      </trkpt>
      <trkpt lat="45.60379" lon="6.85813">
        <ele>896.1</ele>
        <time>2020-08-08T07:52:31Z</time>
      </trkpt>
      <trkpt lat="45.60375" lon="6.85822">
        <ele>896.1</ele>
        <time>2020-08-08T07:52:32Z</time>
      </trkpt>
      <trkpt lat="45.60372" lon="6.85832">
        <ele>896.1</ele>
        <time>2020-08-08T07:52:33Z</time>
      </trkpt>
      <trkpt lat="45.60366" lon="6.8585">
        <ele>896.2</ele>
        <time>2020-08-08T07:52:35Z</time>
      </trkpt>
      <trkpt lat="45.6036" lon="6.85868">
        <ele>896.2</ele>
        <time>2020-08-08T07:52:37Z</time>
      </trkpt>
      <trkpt lat="45.60354" lon="6.85887">
        <ele>896.3</ele>
        <time>2020-08-08T07:52:39Z</time>
      </trkpt>
      <trkpt lat="45.60352" lon="6.85897">
        <ele>896.4</ele>
        <time>2020-08-08T07:52:40Z</time>
      </trkpt>
      <trkpt lat="45.6035" lon="6.85917">
        <ele>896.4</ele>
        <time>2020-08-08T07:52:42Z</time>
      </trkpt>
      <trkpt lat="45.60348" lon="6.85938">
        <ele>896.5</ele>
        <time>2020-08-08T07:52:44Z</time>
      </trkpt>
      <trkpt lat="45.60348" lon="6.85959">
        <ele>896.7</ele>
        <time>2020-08-08T07:52:46Z</time>
      </trkpt>
      <trkpt lat="45.60348" lon="6.8598">
        <ele>896.9</ele>
        <time>2020-08-08T07:52:48Z</time>
      </trkpt>
      <trkpt lat="45.60349" lon="6.86">
        <ele>897.1</ele>
        <time>2020-08-08T07:52:50Z</time>
      </trkpt>
      <trkpt lat="45.60351" lon="6.86019">
        <ele>897.3</ele>
        <time>2020-08-08T07:52:52Z</time>
      </trkpt>
      <trkpt lat="45.60351" lon="6.8603">
        <ele>897.4</ele>
        <time>2020-08-08T07:52:53Z</time>
      </trkpt>
      <trkpt lat="45.60351" lon="6.8604">
        <ele>897.5</ele>
        <time>2020-08-08T07:52:54Z</time>
      </trkpt>
      <trkpt lat="45.60351" lon="6.8606">
        <ele>897.6</ele>
        <time>2020-08-08T07:52:56Z</time>
      </trkpt>
      <trkpt lat="45.6035" lon="6.8608">
        <ele>897.8</ele>
        <time>2020-08-08T07:52:58Z</time>
      </trkpt>
      <trkpt lat="45.6035" lon="6.86091">
        <ele>897.9</ele>
        <time>2020-08-08T07:52:59Z</time>
      </trkpt>
      <trkpt lat="45.60347" lon="6.86111">
        <ele>898.1</ele>
        <time>2020-08-08T07:53:01Z</time>
      </trkpt>
      <trkpt lat="45.60345" lon="6.86121">
        <ele>898.2</ele>
        <time>2020-08-08T07:53:02Z</time>
      </trkpt>
      <trkpt lat="45.60342" lon="6.86142">
        <ele>898.6</ele>
        <time>2020-08-08T07:53:04Z</time>
      </trkpt>
      <trkpt lat="45.60338" lon="6.86162">
        <ele>898.9</ele>
        <time>2020-08-08T07:53:06Z</time>
      </trkpt>
      <trkpt lat="45.60334" lon="6.86183">
        <ele>899.3</ele>
        <time>2020-08-08T07:53:08Z</time>
      </trkpt>
      <trkpt lat="45.60329" lon="6.86203">
        <ele>899.6</ele>
        <time>2020-08-08T07:53:10Z</time>
      </trkpt>
      <trkpt lat="45.60326" lon="6.86214">
        <ele>899.7</ele>
        <time>2020-08-08T07:53:11Z</time>
      </trkpt>
      <trkpt lat="45.60321" lon="6.86234">
        <ele>899.9</ele>
        <time>2020-08-08T07:53:13Z</time>
      </trkpt>
      <trkpt lat="45.60316" lon="6.86254">
        <ele>900.2</ele>
        <time>2020-08-08T07:53:15Z</time>
      </trkpt>
      <trkpt lat="45.60314" lon="6.86263">
        <ele>900.1</ele>
        <time>2020-08-08T07:53:16Z</time>
      </trkpt>
      <trkpt lat="45.60309" lon="6.86284">
        <ele>899.7</ele>
        <time>2020-08-08T07:53:18Z</time>
      </trkpt>
      <trkpt lat="45.60306" lon="6.86306">
        <ele>899.3</ele>
        <time>2020-08-08T07:53:20Z</time>
      </trkpt>
      <trkpt lat="45.60303" lon="6.86329">
        <ele>898.9</ele>
        <time>2020-08-08T07:53:22Z</time>
      </trkpt>
      <trkpt lat="45.60301" lon="6.86352">
        <ele>898.5</ele>
        <time>2020-08-08T07:53:24Z</time>
      </trkpt>
      <trkpt lat="45.60298" lon="6.86373">
        <ele>898.2</ele>
        <time>2020-08-08T07:53:26Z</time>
      </trkpt>
      <trkpt lat="45.60293" lon="6.86394">
        <ele>897.9</ele>
        <time>2020-08-08T07:53:28Z</time>
      </trkpt>
      <trkpt lat="45.60291" lon="6.86404">
        <ele>897.9</ele>
        <time>2020-08-08T07:53:29Z</time>
      </trkpt>
      <trkpt lat="45.60287" lon="6.86424">
        <ele>898</ele>
        <time>2020-08-08T07:53:31Z</time>
      </trkpt>
      <trkpt lat="45.60282" lon="6.86445">
        <ele>897.8</ele>
        <time>2020-08-08T07:53:33Z</time>
      </trkpt>
      <trkpt lat="45.60277" lon="6.86464">
        <ele>897.8</ele>
        <time>2020-08-08T07:53:35Z</time>
      </trkpt>
      <trkpt lat="45.60271" lon="6.86484">
        <ele>897.8</ele>
        <time>2020-08-08T07:53:37Z</time>
      </trkpt>
      <trkpt lat="45.60267" lon="6.86493">
        <ele>897.9</ele>
        <time>2020-08-08T07:53:38Z</time>
      </trkpt>
      <trkpt lat="45.60258" lon="6.86509">
        <ele>898</ele>
        <time>2020-08-08T07:53:40Z</time>
      </trkpt>
      <trkpt lat="45.60249" lon="6.86524">
        <ele>898.2</ele>
        <time>2020-08-08T07:53:42Z</time>
      </trkpt>
      <trkpt lat="45.60245" lon="6.86532">
        <ele>898.3</ele>
        <time>2020-08-08T07:53:43Z</time>
      </trkpt>
      <trkpt lat="45.6024" lon="6.86538">
        <ele>898.5</ele>
        <time>2020-08-08T07:53:44Z</time>
      </trkpt>
      <trkpt lat="45.60229" lon="6.86551">
        <ele>898.7</ele>
        <time>2020-08-08T07:53:46Z</time>
      </trkpt>
      <trkpt lat="45.60219" lon="6.86563">
        <ele>898.8</ele>
        <time>2020-08-08T07:53:48Z</time>
      </trkpt>
      <trkpt lat="45.60213" lon="6.86569">
        <ele>898.8</ele>
        <time>2020-08-08T07:53:49Z</time>
      </trkpt>
      <trkpt lat="45.60207" lon="6.86575">
        <ele>898.8</ele>
        <time>2020-08-08T07:53:50Z</time>
      </trkpt>
      <trkpt lat="45.60195" lon="6.86586">
        <ele>898.8</ele>
        <time>2020-08-08T07:53:52Z</time>
      </trkpt>
      <trkpt lat="45.60183" lon="6.86597">
        <ele>898.8</ele>
        <time>2020-08-08T07:53:54Z</time>
      </trkpt>
      <trkpt lat="45.60177" lon="6.86604">
        <ele>898.8</ele>
        <time>2020-08-08T07:53:55Z</time>
      </trkpt>
      <trkpt lat="45.60165" lon="6.86616">
        <ele>898.8</ele>
        <time>2020-08-08T07:53:57Z</time>
      </trkpt>
      <trkpt lat="45.60159" lon="6.86623">
        <ele>898.8</ele>
        <time>2020-08-08T07:53:58Z</time>
      </trkpt>
      <trkpt lat="45.60147" lon="6.86635">
        <ele>898.8</ele>
        <time>2020-08-08T07:54:00Z</time>
      </trkpt>
      <trkpt lat="45.60141" lon="6.86641">
        <ele>898.8</ele>
        <time>2020-08-08T07:54:01Z</time>
      </trkpt>
      <trkpt lat="45.60129" lon="6.86653">
        <ele>898.8</ele>
        <time>2020-08-08T07:54:03Z</time>
      </trkpt>
      <trkpt lat="45.60117" lon="6.86666">
        <ele>898.9</ele>
        <time>2020-08-08T07:54:05Z</time>
      </trkpt>
      <trkpt lat="45.60111" lon="6.86672">
        <ele>898.9</ele>
        <time>2020-08-08T07:54:06Z</time>
      </trkpt>
      <trkpt lat="45.60099" lon="6.86684">
        <ele>899.1</ele>
        <time>2020-08-08T07:54:08Z</time>
      </trkpt>
      <trkpt lat="45.60093" lon="6.8669">
        <ele>899.2</ele>
        <time>2020-08-08T07:54:09Z</time>
      </trkpt>
      <trkpt lat="45.60087" lon="6.86697">
        <ele>899.2</ele>
        <time>2020-08-08T07:54:10Z</time>
      </trkpt>
      <trkpt lat="45.60075" lon="6.86708">
        <ele>899.3</ele>
        <time>2020-08-08T07:54:12Z</time>
      </trkpt>
      <trkpt lat="45.60069" lon="6.86715">
        <ele>899.3</ele>
        <time>2020-08-08T07:54:13Z</time>
      </trkpt>
      <trkpt lat="45.60064" lon="6.86721">
        <ele>899.4</ele>
        <time>2020-08-08T07:54:14Z</time>
      </trkpt>
      <trkpt lat="45.60058" lon="6.86726">
        <ele>899.5</ele>
        <time>2020-08-08T07:54:15Z</time>
      </trkpt>
      <trkpt lat="45.60046" lon="6.86738">
        <ele>899.7</ele>
        <time>2020-08-08T07:54:17Z</time>
      </trkpt>
      <trkpt lat="45.60036" lon="6.8675">
        <ele>900</ele>
        <time>2020-08-08T07:54:19Z</time>
      </trkpt>
      <trkpt lat="45.60025" lon="6.86764">
        <ele>900.5</ele>
        <time>2020-08-08T07:54:21Z</time>
      </trkpt>
      <trkpt lat="45.60015" lon="6.86779">
        <ele>900.7</ele>
        <time>2020-08-08T07:54:23Z</time>
      </trkpt>
      <trkpt lat="45.60007" lon="6.86795">
        <ele>900.9</ele>
        <time>2020-08-08T07:54:25Z</time>
      </trkpt>
      <trkpt lat="45.60003" lon="6.86804">
        <ele>901</ele>
        <time>2020-08-08T07:54:26Z</time>
      </trkpt>
      <trkpt lat="45.59996" lon="6.86821">
        <ele>901.3</ele>
        <time>2020-08-08T07:54:28Z</time>
      </trkpt>
      <trkpt lat="45.59992" lon="6.86829">
        <ele>901.4</ele>
        <time>2020-08-08T07:54:29Z</time>
      </trkpt>
      <trkpt lat="45.59989" lon="6.86838">
        <ele>901.5</ele>
        <time>2020-08-08T07:54:30Z</time>
      </trkpt>
      <trkpt lat="45.59982" lon="6.86855">
        <ele>901.6</ele>
        <time>2020-08-08T07:54:32Z</time>
      </trkpt>
      <trkpt lat="45.59978" lon="6.86863">
        <ele>901.7</ele>
        <time>2020-08-08T07:54:33Z</time>
      </trkpt>
      <trkpt lat="45.59975" lon="6.86872">
        <ele>901.9</ele>
        <time>2020-08-08T07:54:34Z</time>
      </trkpt>
      <trkpt lat="45.59969" lon="6.86889">
        <ele>902.1</ele>
        <time>2020-08-08T07:54:36Z</time>
      </trkpt>
      <trkpt lat="45.59966" lon="6.86908">
        <ele>902.3</ele>
        <time>2020-08-08T07:54:38Z</time>
      </trkpt>
      <trkpt lat="45.59964" lon="6.86917">
        <ele>902.4</ele>
        <time>2020-08-08T07:54:39Z</time>
      </trkpt>
      <trkpt lat="45.5996" lon="6.86935">
        <ele>902.6</ele>
        <time>2020-08-08T07:54:41Z</time>
      </trkpt>
      <trkpt lat="45.59959" lon="6.86945">
        <ele>902.7</ele>
        <time>2020-08-08T07:54:42Z</time>
      </trkpt>
      <trkpt lat="45.59955" lon="6.86963">
        <ele>902.9</ele>
        <time>2020-08-08T07:54:44Z</time>
      </trkpt>
      <trkpt lat="45.59951" lon="6.86981">
        <ele>903.2</ele>
        <time>2020-08-08T07:54:46Z</time>
      </trkpt>
      <trkpt lat="45.59946" lon="6.86998">
        <ele>903.4</ele>
        <time>2020-08-08T07:54:48Z</time>
      </trkpt>
      <trkpt lat="45.59943" lon="6.87007">
        <ele>903.5</ele>
        <time>2020-08-08T07:54:49Z</time>
      </trkpt>
      <trkpt lat="45.59941" lon="6.87016">
        <ele>903.6</ele>
        <time>2020-08-08T07:54:50Z</time>
      </trkpt>
      <trkpt lat="45.59936" lon="6.87034">
        <ele>903.8</ele>
        <time>2020-08-08T07:54:52Z</time>
      </trkpt>
      <trkpt lat="45.59933" lon="6.87043">
        <ele>903.9</ele>
        <time>2020-08-08T07:54:53Z</time>
      </trkpt>
      <trkpt lat="45.59928" lon="6.87059">
        <ele>904</ele>
        <time>2020-08-08T07:54:55Z</time>
      </trkpt>
      <trkpt lat="45.59925" lon="6.87068">
        <ele>904.1</ele>
        <time>2020-08-08T07:54:56Z</time>
      </trkpt>
      <trkpt lat="45.5992" lon="6.87086">
        <ele>904.3</ele>
        <time>2020-08-08T07:54:58Z</time>
      </trkpt>
      <trkpt lat="45.59915" lon="6.87104">
        <ele>904.4</ele>
        <time>2020-08-08T07:55:00Z</time>
      </trkpt>
      <trkpt lat="45.59913" lon="6.87113">
        <ele>904.5</ele>
        <time>2020-08-08T07:55:01Z</time>
      </trkpt>
      <trkpt lat="45.59911" lon="6.87122">
        <ele>904.6</ele>
        <time>2020-08-08T07:55:02Z</time>
      </trkpt>
      <trkpt lat="45.59906" lon="6.87139">
        <ele>904.9</ele>
        <time>2020-08-08T07:55:04Z</time>
      </trkpt>
      <trkpt lat="45.59901" lon="6.87156">
        <ele>905.3</ele>
        <time>2020-08-08T07:55:06Z</time>
      </trkpt>
      <trkpt lat="45.59896" lon="6.87173">
        <ele>905.6</ele>
        <time>2020-08-08T07:55:08Z</time>
      </trkpt>
      <trkpt lat="45.59893" lon="6.87182">
        <ele>905.7</ele>
        <time>2020-08-08T07:55:09Z</time>
      </trkpt>
      <trkpt lat="45.59891" lon="6.8719">
        <ele>905.9</ele>
        <time>2020-08-08T07:55:10Z</time>
      </trkpt>
      <trkpt lat="45.59889" lon="6.87198">
        <ele>906.1</ele>
        <time>2020-08-08T07:55:11Z</time>
      </trkpt>
      <trkpt lat="45.59885" lon="6.87215">
        <ele>906.4</ele>
        <time>2020-08-08T07:55:13Z</time>
      </trkpt>
      <trkpt lat="45.5988" lon="6.87232">
        <ele>906.6</ele>
        <time>2020-08-08T07:55:15Z</time>
      </trkpt>
      <trkpt lat="45.59878" lon="6.8724">
        <ele>906.7</ele>
        <time>2020-08-08T07:55:16Z</time>
      </trkpt>
      <trkpt lat="45.59873" lon="6.87256">
        <ele>906.8</ele>
        <time>2020-08-08T07:55:18Z</time>
      </trkpt>
      <trkpt lat="45.59871" lon="6.87265">
        <ele>906.8</ele>
        <time>2020-08-08T07:55:19Z</time>
      </trkpt>
      <trkpt lat="45.59869" lon="6.87274">
        <ele>906.9</ele>
        <time>2020-08-08T07:55:20Z</time>
      </trkpt>
      <trkpt lat="45.59866" lon="6.87283">
        <ele>907</ele>
        <time>2020-08-08T07:55:21Z</time>
      </trkpt>
      <trkpt lat="45.59862" lon="6.87301">
        <ele>907.2</ele>
        <time>2020-08-08T07:55:23Z</time>
      </trkpt>
      <trkpt lat="45.5986" lon="6.8731">
        <ele>907.3</ele>
        <time>2020-08-08T07:55:24Z</time>
      </trkpt>
      <trkpt lat="45.59855" lon="6.87328">
        <ele>907.5</ele>
        <time>2020-08-08T07:55:26Z</time>
      </trkpt>
      <trkpt lat="45.59851" lon="6.87345">
        <ele>907.7</ele>
        <time>2020-08-08T07:55:28Z</time>
      </trkpt>
      <trkpt lat="45.59849" lon="6.87353">
        <ele>907.8</ele>
        <time>2020-08-08T07:55:29Z</time>
      </trkpt>
      <trkpt lat="45.59847" lon="6.87362">
        <ele>907.9</ele>
        <time>2020-08-08T07:55:30Z</time>
      </trkpt>
      <trkpt lat="45.59844" lon="6.87371">
        <ele>908</ele>
        <time>2020-08-08T07:55:31Z</time>
      </trkpt>
      <trkpt lat="45.5984" lon="6.87389">
        <ele>908.2</ele>
        <time>2020-08-08T07:55:33Z</time>
      </trkpt>
      <trkpt lat="45.59839" lon="6.87397">
        <ele>908.2</ele>
        <time>2020-08-08T07:55:34Z</time>
      </trkpt>
      <trkpt lat="45.59837" lon="6.87406">
        <ele>908.3</ele>
        <time>2020-08-08T07:55:35Z</time>
      </trkpt>
      <trkpt lat="45.59835" lon="6.87414">
        <ele>908.5</ele>
        <time>2020-08-08T07:55:36Z</time>
      </trkpt>
      <trkpt lat="45.59831" lon="6.8743">
        <ele>908.9</ele>
        <time>2020-08-08T07:55:38Z</time>
      </trkpt>
      <trkpt lat="45.59829" lon="6.87438">
        <ele>909.1</ele>
        <time>2020-08-08T07:55:39Z</time>
      </trkpt>
      <trkpt lat="45.59825" lon="6.87454">
        <ele>909.5</ele>
        <time>2020-08-08T07:55:41Z</time>
      </trkpt>
      <trkpt lat="45.5982" lon="6.87469">
        <ele>910</ele>
        <time>2020-08-08T07:55:43Z</time>
      </trkpt>
      <trkpt lat="45.59816" lon="6.87484">
        <ele>910.4</ele>
        <time>2020-08-08T07:55:45Z</time>
      </trkpt>
      <trkpt lat="45.59814" lon="6.87492">
        <ele>910.7</ele>
        <time>2020-08-08T07:55:46Z</time>
      </trkpt>
      <trkpt lat="45.59812" lon="6.875">
        <ele>911</ele>
        <time>2020-08-08T07:55:47Z</time>
      </trkpt>
      <trkpt lat="45.59808" lon="6.87515">
        <ele>911.6</ele>
        <time>2020-08-08T07:55:49Z</time>
      </trkpt>
      <trkpt lat="45.59806" lon="6.87523">
        <ele>911.9</ele>
        <time>2020-08-08T07:55:50Z</time>
      </trkpt>
      <trkpt lat="45.59804" lon="6.8753">
        <ele>912.1</ele>
        <time>2020-08-08T07:55:51Z</time>
      </trkpt>
      <trkpt lat="45.598" lon="6.87545">
        <ele>912.7</ele>
        <time>2020-08-08T07:55:53Z</time>
      </trkpt>
      <trkpt lat="45.59798" lon="6.87551">
        <ele>912.9</ele>
        <time>2020-08-08T07:55:54Z</time>
      </trkpt>
      <trkpt lat="45.59795" lon="6.87565">
        <ele>913.4</ele>
        <time>2020-08-08T07:55:56Z</time>
      </trkpt>
      <trkpt lat="45.59793" lon="6.87572">
        <ele>913.7</ele>
        <time>2020-08-08T07:55:57Z</time>
      </trkpt>
      <trkpt lat="45.5979" lon="6.87586">
        <ele>914.2</ele>
        <time>2020-08-08T07:55:59Z</time>
      </trkpt>
      <trkpt lat="45.59788" lon="6.87593">
        <ele>914.5</ele>
        <time>2020-08-08T07:56:00Z</time>
      </trkpt>
      <trkpt lat="45.59784" lon="6.87606">
        <ele>915</ele>
        <time>2020-08-08T07:56:02Z</time>
      </trkpt>
      <trkpt lat="45.59781" lon="6.8762">
        <ele>915.6</ele>
        <time>2020-08-08T07:56:04Z</time>
      </trkpt>
      <trkpt lat="45.59779" lon="6.87633">
        <ele>916.2</ele>
        <time>2020-08-08T07:56:06Z</time>
      </trkpt>
      <trkpt lat="45.59777" lon="6.87639">
        <ele>916.5</ele>
        <time>2020-08-08T07:56:07Z</time>
      </trkpt>
      <trkpt lat="45.59775" lon="6.8765">
        <ele>917</ele>
        <time>2020-08-08T07:56:09Z</time>
      </trkpt>
      <trkpt lat="45.59773" lon="6.87661">
        <ele>917.6</ele>
        <time>2020-08-08T07:56:11Z</time>
      </trkpt>
      <trkpt lat="45.59771" lon="6.87671">
        <ele>918.2</ele>
        <time>2020-08-08T07:56:13Z</time>
      </trkpt>
      <trkpt lat="45.59767" lon="6.8768">
        <ele>918.7</ele>
        <time>2020-08-08T07:56:14Z</time>
      </trkpt>
      <trkpt lat="45.59768" lon="6.87681">
        <ele>918.8</ele>
        <time>2020-08-08T07:56:15Z</time>
      </trkpt>
      <trkpt lat="45.59767" lon="6.87685">
        <ele>919</ele>
        <time>2020-08-08T07:56:16Z</time>
      </trkpt>
      <trkpt lat="45.59766" lon="6.87689">
        <ele>919.3</ele>
        <time>2020-08-08T07:56:18Z</time>
      </trkpt>
      <trkpt lat="45.59765" lon="6.87692">
        <ele>919.5</ele>
        <time>2020-08-08T07:56:19Z</time>
      </trkpt>
      <trkpt lat="45.59763" lon="6.877">
        <ele>919.9</ele>
        <time>2020-08-08T07:56:21Z</time>
      </trkpt>
      <trkpt lat="45.59763" lon="6.87704">
        <ele>920.1</ele>
        <time>2020-08-08T07:56:22Z</time>
      </trkpt>
      <trkpt lat="45.59762" lon="6.87708">
        <ele>920.4</ele>
        <time>2020-08-08T07:56:23Z</time>
      </trkpt>
      <trkpt lat="45.5976" lon="6.87718">
        <ele>920.9</ele>
        <time>2020-08-08T07:56:25Z</time>
      </trkpt>
      <trkpt lat="45.59759" lon="6.87728">
        <ele>921.5</ele>
        <time>2020-08-08T07:56:26Z</time>
      </trkpt>
      <trkpt lat="45.59757" lon="6.87742">
        <ele>922.4</ele>
        <time>2020-08-08T07:56:27Z</time>
      </trkpt>
      <trkpt lat="45.59754" lon="6.87757">
        <ele>923.2</ele>
        <time>2020-08-08T07:56:29Z</time>
      </trkpt>
      <trkpt lat="45.59753" lon="6.87763">
        <ele>923.5</ele>
        <time>2020-08-08T07:56:30Z</time>
      </trkpt>
      <trkpt lat="45.59752" lon="6.87769">
        <ele>923.8</ele>
        <time>2020-08-08T07:56:31Z</time>
      </trkpt>
      <trkpt lat="45.59752" lon="6.87775">
        <ele>924.2</ele>
        <time>2020-08-08T07:56:33Z</time>
      </trkpt>
      <trkpt lat="45.59751" lon="6.87781">
        <ele>924.5</ele>
        <time>2020-08-08T07:56:34Z</time>
      </trkpt>
      <trkpt lat="45.59749" lon="6.87787">
        <ele>924.8</ele>
        <time>2020-08-08T07:56:35Z</time>
      </trkpt>
      <trkpt lat="45.59748" lon="6.87793">
        <ele>925.2</ele>
        <time>2020-08-08T07:56:36Z</time>
      </trkpt>
      <trkpt lat="45.59747" lon="6.87798">
        <ele>925.5</ele>
        <time>2020-08-08T07:56:37Z</time>
      </trkpt>
      <trkpt lat="45.59745" lon="6.87804">
        <ele>925.9</ele>
        <time>2020-08-08T07:56:39Z</time>
      </trkpt>
      <trkpt lat="45.59743" lon="6.87816">
        <ele>926.6</ele>
        <time>2020-08-08T07:56:41Z</time>
      </trkpt>
      <trkpt lat="45.59742" lon="6.87822">
        <ele>926.9</ele>
        <time>2020-08-08T07:56:42Z</time>
      </trkpt>
      <trkpt lat="45.59741" lon="6.87827">
        <ele>927.3</ele>
        <time>2020-08-08T07:56:44Z</time>
      </trkpt>
      <trkpt lat="45.5974" lon="6.8784">
        <ele>928</ele>
        <time>2020-08-08T07:56:46Z</time>
      </trkpt>
      <trkpt lat="45.59738" lon="6.87845">
        <ele>928.3</ele>
        <time>2020-08-08T07:56:48Z</time>
      </trkpt>
      <trkpt lat="45.59737" lon="6.87851">
        <ele>928.7</ele>
        <time>2020-08-08T07:56:49Z</time>
      </trkpt>
      <trkpt lat="45.59736" lon="6.87864">
        <ele>929.5</ele>
        <time>2020-08-08T07:56:51Z</time>
      </trkpt>
      <trkpt lat="45.59735" lon="6.8787">
        <ele>929.8</ele>
        <time>2020-08-08T07:56:53Z</time>
      </trkpt>
      <trkpt lat="45.59735" lon="6.87882">
        <ele>930.6</ele>
        <time>2020-08-08T07:56:55Z</time>
      </trkpt>
      <trkpt lat="45.59735" lon="6.87888">
        <ele>931</ele>
        <time>2020-08-08T07:56:57Z</time>
      </trkpt>
      <trkpt lat="45.59735" lon="6.87894">
        <ele>931.3</ele>
        <time>2020-08-08T07:56:58Z</time>
      </trkpt>
      <trkpt lat="45.59735" lon="6.879">
        <ele>931.7</ele>
        <time>2020-08-08T07:56:59Z</time>
      </trkpt>
      <trkpt lat="45.59735" lon="6.87906">
        <ele>932</ele>
        <time>2020-08-08T07:57:00Z</time>
      </trkpt>
      <trkpt lat="45.59734" lon="6.87912">
        <ele>932.3</ele>
        <time>2020-08-08T07:57:02Z</time>
      </trkpt>
      <trkpt lat="45.59734" lon="6.87923">
        <ele>933</ele>
        <time>2020-08-08T07:57:04Z</time>
      </trkpt>
      <trkpt lat="45.59733" lon="6.87929">
        <ele>933.3</ele>
        <time>2020-08-08T07:57:06Z</time>
      </trkpt>
      <trkpt lat="45.59732" lon="6.87935">
        <ele>933.6</ele>
        <time>2020-08-08T07:57:08Z</time>
      </trkpt>
      <trkpt lat="45.59726" lon="6.87948">
        <ele>934</ele>
        <time>2020-08-08T07:57:10Z</time>
      </trkpt>
      <trkpt lat="45.59723" lon="6.87953">
        <ele>934.1</ele>
        <time>2020-08-08T07:57:11Z</time>
      </trkpt>
      <trkpt lat="45.5972" lon="6.87957">
        <ele>934.2</ele>
        <time>2020-08-08T07:57:13Z</time>
      </trkpt>
      <trkpt lat="45.59717" lon="6.87961">
        <ele>934.4</ele>
        <time>2020-08-08T07:57:14Z</time>
      </trkpt>
      <trkpt lat="45.59713" lon="6.87965">
        <ele>934.6</ele>
        <time>2020-08-08T07:57:16Z</time>
      </trkpt>
      <trkpt lat="45.59707" lon="6.87973">
        <ele>934.9</ele>
        <time>2020-08-08T07:57:17Z</time>
      </trkpt>
      <trkpt lat="45.59699" lon="6.87984">
        <ele>935.1</ele>
        <time>2020-08-08T07:57:20Z</time>
      </trkpt>
      <trkpt lat="45.59696" lon="6.87987">
        <ele>935.1</ele>
        <time>2020-08-08T07:57:22Z</time>
      </trkpt>
      <trkpt lat="45.5969" lon="6.87995">
        <ele>935.5</ele>
        <time>2020-08-08T07:57:24Z</time>
      </trkpt>
      <trkpt lat="45.59686" lon="6.87999">
        <ele>935.8</ele>
        <time>2020-08-08T07:57:27Z</time>
      </trkpt>
      <trkpt lat="45.59684" lon="6.88002">
        <ele>936</ele>
        <time>2020-08-08T07:57:28Z</time>
      </trkpt>
      <trkpt lat="45.59681" lon="6.88004">
        <ele>936.2</ele>
        <time>2020-08-08T07:57:29Z</time>
      </trkpt>
      <trkpt lat="45.59677" lon="6.88009">
        <ele>936.5</ele>
        <time>2020-08-08T07:57:31Z</time>
      </trkpt>
      <trkpt lat="45.59674" lon="6.88011">
        <ele>936.7</ele>
        <time>2020-08-08T07:57:32Z</time>
      </trkpt>
      <trkpt lat="45.59667" lon="6.88019">
        <ele>937.3</ele>
        <time>2020-08-08T07:57:33Z</time>
      </trkpt>
      <trkpt lat="45.59664" lon="6.88023">
        <ele>937.5</ele>
        <time>2020-08-08T07:57:36Z</time>
      </trkpt>
      <trkpt lat="45.59662" lon="6.88026">
        <ele>937.7</ele>
        <time>2020-08-08T07:57:37Z</time>
      </trkpt>
      <trkpt lat="45.59659" lon="6.88028">
        <ele>937.9</ele>
        <time>2020-08-08T07:57:38Z</time>
      </trkpt>
      <trkpt lat="45.59651" lon="6.88037">
        <ele>938.6</ele>
        <time>2020-08-08T07:57:40Z</time>
      </trkpt>
      <trkpt lat="45.59645" lon="6.88042">
        <ele>939</ele>
        <time>2020-08-08T07:57:43Z</time>
      </trkpt>
      <trkpt lat="45.59642" lon="6.88045">
        <ele>939.3</ele>
        <time>2020-08-08T07:57:44Z</time>
      </trkpt>
      <trkpt lat="45.59638" lon="6.88049">
        <ele>939.5</ele>
        <time>2020-08-08T07:57:45Z</time>
      </trkpt>
      <trkpt lat="45.59634" lon="6.88052">
        <ele>939.8</ele>
        <time>2020-08-08T07:57:47Z</time>
      </trkpt>
      <trkpt lat="45.59627" lon="6.88058">
        <ele>940.3</ele>
        <time>2020-08-08T07:57:49Z</time>
      </trkpt>
      <trkpt lat="45.59623" lon="6.88062">
        <ele>940.6</ele>
        <time>2020-08-08T07:57:51Z</time>
      </trkpt>
      <trkpt lat="45.59619" lon="6.88064">
        <ele>940.8</ele>
        <time>2020-08-08T07:57:53Z</time>
      </trkpt>
      <trkpt lat="45.59615" lon="6.88068">
        <ele>941.1</ele>
        <time>2020-08-08T07:57:54Z</time>
      </trkpt>
      <trkpt lat="45.59612" lon="6.88071">
        <ele>941.3</ele>
        <time>2020-08-08T07:57:55Z</time>
      </trkpt>
      <trkpt lat="45.59608" lon="6.88076">
        <ele>941.7</ele>
        <time>2020-08-08T07:57:57Z</time>
      </trkpt>
      <trkpt lat="45.59604" lon="6.88079">
        <ele>942</ele>
        <time>2020-08-08T07:57:58Z</time>
      </trkpt>
      <trkpt lat="45.59603" lon="6.8808">
        <ele>942.1</ele>
        <time>2020-08-08T07:57:59Z</time>
      </trkpt>
      <trkpt lat="45.59599" lon="6.88083">
        <ele>942.4</ele>
        <time>2020-08-08T07:58:00Z</time>
      </trkpt>
      <trkpt lat="45.59595" lon="6.88087">
        <ele>942.7</ele>
        <time>2020-08-08T07:58:02Z</time>
      </trkpt>
      <trkpt lat="45.59592" lon="6.88089">
        <ele>942.9</ele>
        <time>2020-08-08T07:58:03Z</time>
      </trkpt>
      <trkpt lat="45.59589" lon="6.88092">
        <ele>943.1</ele>
        <time>2020-08-08T07:58:04Z</time>
      </trkpt>
      <trkpt lat="45.59586" lon="6.88095">
        <ele>943.3</ele>
        <time>2020-08-08T07:58:05Z</time>
      </trkpt>
      <trkpt lat="45.59582" lon="6.88098">
        <ele>943.6</ele>
        <time>2020-08-08T07:58:07Z</time>
      </trkpt>
      <trkpt lat="45.5958" lon="6.88101">
        <ele>943.8</ele>
        <time>2020-08-08T07:58:08Z</time>
      </trkpt>
      <trkpt lat="45.59577" lon="6.88104">
        <ele>944</ele>
        <time>2020-08-08T07:58:09Z</time>
      </trkpt>
      <trkpt lat="45.59574" lon="6.88106">
        <ele>944.2</ele>
        <time>2020-08-08T07:58:10Z</time>
      </trkpt>
      <trkpt lat="45.5957" lon="6.8811">
        <ele>944.5</ele>
        <time>2020-08-08T07:58:12Z</time>
      </trkpt>
      <trkpt lat="45.59566" lon="6.88113">
        <ele>944.7</ele>
        <time>2020-08-08T07:58:14Z</time>
      </trkpt>
      <trkpt lat="45.59563" lon="6.88115">
        <ele>944.9</ele>
        <time>2020-08-08T07:58:15Z</time>
      </trkpt>
      <trkpt lat="45.59558" lon="6.88118">
        <ele>945.3</ele>
        <time>2020-08-08T07:58:17Z</time>
      </trkpt>
      <trkpt lat="45.59552" lon="6.8812">
        <ele>945.7</ele>
        <time>2020-08-08T07:58:18Z</time>
      </trkpt>
      <trkpt lat="45.59546" lon="6.8812">
        <ele>946</ele>
        <time>2020-08-08T07:58:20Z</time>
      </trkpt>
      <trkpt lat="45.59541" lon="6.8812">
        <ele>946.3</ele>
        <time>2020-08-08T07:58:21Z</time>
      </trkpt>
      <trkpt lat="45.59537" lon="6.88119">
        <ele>946.6</ele>
        <time>2020-08-08T07:58:23Z</time>
      </trkpt>
      <trkpt lat="45.59533" lon="6.88116">
        <ele>946.9</ele>
        <time>2020-08-08T07:58:25Z</time>
      </trkpt>
      <trkpt lat="45.59526" lon="6.8811">
        <ele>947.4</ele>
        <time>2020-08-08T07:58:26Z</time>
      </trkpt>
      <trkpt lat="45.59523" lon="6.88107">
        <ele>947.7</ele>
        <time>2020-08-08T07:58:28Z</time>
      </trkpt>
      <trkpt lat="45.59518" lon="6.88101">
        <ele>948.1</ele>
        <time>2020-08-08T07:58:30Z</time>
      </trkpt>
      <trkpt lat="45.59514" lon="6.88096">
        <ele>948.5</ele>
        <time>2020-08-08T07:58:31Z</time>
      </trkpt>
      <trkpt lat="45.5951" lon="6.88091">
        <ele>948.8</ele>
        <time>2020-08-08T07:58:34Z</time>
      </trkpt>
      <trkpt lat="45.595" lon="6.88084">
        <ele>949.6</ele>
        <time>2020-08-08T07:58:36Z</time>
      </trkpt>
      <trkpt lat="45.59497" lon="6.88082">
        <ele>949.7</ele>
        <time>2020-08-08T07:58:37Z</time>
      </trkpt>
      <trkpt lat="45.59494" lon="6.88081">
        <ele>949.9</ele>
        <time>2020-08-08T07:58:38Z</time>
      </trkpt>
      <trkpt lat="45.59491" lon="6.8808">
        <ele>950.1</ele>
        <time>2020-08-08T07:58:39Z</time>
      </trkpt>
      <trkpt lat="45.59488" lon="6.88079">
        <ele>950.3</ele>
        <time>2020-08-08T07:58:41Z</time>
      </trkpt>
      <trkpt lat="45.59486" lon="6.88077">
        <ele>950.5</ele>
        <time>2020-08-08T07:58:42Z</time>
      </trkpt>
      <trkpt lat="45.59483" lon="6.88077">
        <ele>950.6</ele>
        <time>2020-08-08T07:58:43Z</time>
      </trkpt>
      <trkpt lat="45.59478" lon="6.88075">
        <ele>950.9</ele>
        <time>2020-08-08T07:58:44Z</time>
      </trkpt>
      <trkpt lat="45.59473" lon="6.88074">
        <ele>951.2</ele>
        <time>2020-08-08T07:58:47Z</time>
      </trkpt>
      <trkpt lat="45.5947" lon="6.88074">
        <ele>951.4</ele>
        <time>2020-08-08T07:58:48Z</time>
      </trkpt>
      <trkpt lat="45.59464" lon="6.88073">
        <ele>951.7</ele>
        <time>2020-08-08T07:58:50Z</time>
      </trkpt>
      <trkpt lat="45.59458" lon="6.88072">
        <ele>952</ele>
        <time>2020-08-08T07:58:51Z</time>
      </trkpt>
      <trkpt lat="45.59449" lon="6.88071">
        <ele>952.5</ele>
        <time>2020-08-08T07:58:53Z</time>
      </trkpt>
      <trkpt lat="45.59444" lon="6.8807">
        <ele>952.8</ele>
        <time>2020-08-08T07:58:56Z</time>
      </trkpt>
      <trkpt lat="45.59441" lon="6.88069">
        <ele>953</ele>
        <time>2020-08-08T07:58:57Z</time>
      </trkpt>
      <trkpt lat="45.59434" lon="6.88068">
        <ele>953.3</ele>
        <time>2020-08-08T07:58:59Z</time>
      </trkpt>
      <trkpt lat="45.59427" lon="6.88067">
        <ele>953.7</ele>
        <time>2020-08-08T07:59:00Z</time>
      </trkpt>
      <trkpt lat="45.59424" lon="6.88067">
        <ele>953.9</ele>
        <time>2020-08-08T07:59:01Z</time>
      </trkpt>
      <trkpt lat="45.59416" lon="6.88068">
        <ele>954.4</ele>
        <time>2020-08-08T07:59:04Z</time>
      </trkpt>
      <trkpt lat="45.59413" lon="6.88068">
        <ele>954.6</ele>
        <time>2020-08-08T07:59:05Z</time>
      </trkpt>
      <trkpt lat="45.5941" lon="6.88069">
        <ele>954.7</ele>
        <time>2020-08-08T07:59:06Z</time>
      </trkpt>
      <trkpt lat="45.59408" lon="6.8807">
        <ele>954.9</ele>
        <time>2020-08-08T07:59:07Z</time>
      </trkpt>
      <trkpt lat="45.59405" lon="6.88071">
        <ele>955</ele>
        <time>2020-08-08T07:59:10Z</time>
      </trkpt>
      <trkpt lat="45.59402" lon="6.88073">
        <ele>955.2</ele>
        <time>2020-08-08T07:59:11Z</time>
      </trkpt>
      <trkpt lat="45.59398" lon="6.88076">
        <ele>955.4</ele>
        <time>2020-08-08T07:59:12Z</time>
      </trkpt>
      <trkpt lat="45.59392" lon="6.8808">
        <ele>955.6</ele>
        <time>2020-08-08T07:59:14Z</time>
      </trkpt>
      <trkpt lat="45.5939" lon="6.88082">
        <ele>955.8</ele>
        <time>2020-08-08T07:59:16Z</time>
      </trkpt>
      <trkpt lat="45.5938" lon="6.88089">
        <ele>956.3</ele>
        <time>2020-08-08T07:59:18Z</time>
      </trkpt>
      <trkpt lat="45.59372" lon="6.88094">
        <ele>956.7</ele>
        <time>2020-08-08T07:59:21Z</time>
      </trkpt>
      <trkpt lat="45.59368" lon="6.88096">
        <ele>956.9</ele>
        <time>2020-08-08T07:59:22Z</time>
      </trkpt>
      <trkpt lat="45.59361" lon="6.88099">
        <ele>957.3</ele>
        <time>2020-08-08T07:59:25Z</time>
      </trkpt>
      <trkpt lat="45.59353" lon="6.88101">
        <ele>957.7</ele>
        <time>2020-08-08T07:59:28Z</time>
      </trkpt>
      <trkpt lat="45.59347" lon="6.88102">
        <ele>958</ele>
        <time>2020-08-08T07:59:31Z</time>
      </trkpt>
      <trkpt lat="45.59344" lon="6.88102">
        <ele>958.2</ele>
        <time>2020-08-08T07:59:32Z</time>
      </trkpt>
      <trkpt lat="45.59337" lon="6.88103">
        <ele>958.6</ele>
        <time>2020-08-08T07:59:34Z</time>
      </trkpt>
      <trkpt lat="45.59334" lon="6.88104">
        <ele>958.8</ele>
        <time>2020-08-08T07:59:36Z</time>
      </trkpt>
      <trkpt lat="45.59331" lon="6.88105">
        <ele>959</ele>
        <time>2020-08-08T07:59:37Z</time>
      </trkpt>
      <trkpt lat="45.59328" lon="6.88105">
        <ele>959.2</ele>
        <time>2020-08-08T07:59:39Z</time>
      </trkpt>
      <trkpt lat="45.59326" lon="6.88106">
        <ele>959.3</ele>
        <time>2020-08-08T07:59:41Z</time>
      </trkpt>
      <trkpt lat="45.59321" lon="6.88105">
        <ele>959.6</ele>
        <time>2020-08-08T07:59:43Z</time>
      </trkpt>
      <trkpt lat="45.59316" lon="6.88105">
        <ele>959.9</ele>
        <time>2020-08-08T07:59:44Z</time>
      </trkpt>
      <trkpt lat="45.59308" lon="6.88103">
        <ele>960.3</ele>
        <time>2020-08-08T07:59:46Z</time>
      </trkpt>
      <trkpt lat="45.59301" lon="6.88101">
        <ele>960.6</ele>
        <time>2020-08-08T07:59:47Z</time>
      </trkpt>
      <trkpt lat="45.59295" lon="6.881">
        <ele>960.9</ele>
        <time>2020-08-08T07:59:49Z</time>
      </trkpt>
      <trkpt lat="45.59291" lon="6.88098">
        <ele>961.1</ele>
        <time>2020-08-08T07:59:50Z</time>
      </trkpt>
      <trkpt lat="45.59278" lon="6.88092">
        <ele>961.7</ele>
        <time>2020-08-08T07:59:52Z</time>
      </trkpt>
      <trkpt lat="45.59274" lon="6.88089">
        <ele>961.9</ele>
        <time>2020-08-08T07:59:54Z</time>
      </trkpt>
      <trkpt lat="45.59263" lon="6.88083">
        <ele>962.3</ele>
        <time>2020-08-08T07:59:56Z</time>
      </trkpt>
      <trkpt lat="45.59259" lon="6.8808">
        <ele>962.5</ele>
        <time>2020-08-08T07:59:58Z</time>
      </trkpt>
      <trkpt lat="45.59255" lon="6.88076">
        <ele>962.7</ele>
        <time>2020-08-08T08:00:00Z</time>
      </trkpt>
      <trkpt lat="45.59248" lon="6.88069">
        <ele>962.9</ele>
        <time>2020-08-08T08:00:02Z</time>
      </trkpt>
      <trkpt lat="45.59243" lon="6.88064">
        <ele>963.1</ele>
        <time>2020-08-08T08:00:03Z</time>
      </trkpt>
      <trkpt lat="45.59238" lon="6.8806">
        <ele>963.3</ele>
        <time>2020-08-08T08:00:05Z</time>
      </trkpt>
      <trkpt lat="45.59231" lon="6.88056">
        <ele>963.6</ele>
        <time>2020-08-08T08:00:06Z</time>
      </trkpt>
      <trkpt lat="45.59225" lon="6.88056">
        <ele>963.9</ele>
        <time>2020-08-08T08:00:07Z</time>
      </trkpt>
      <trkpt lat="45.59219" lon="6.8806">
        <ele>964.1</ele>
        <time>2020-08-08T08:00:09Z</time>
      </trkpt>
      <trkpt lat="45.59216" lon="6.88063">
        <ele>964.3</ele>
        <time>2020-08-08T08:00:10Z</time>
      </trkpt>
      <trkpt lat="45.59212" lon="6.8807">
        <ele>964.6</ele>
        <time>2020-08-08T08:00:11Z</time>
      </trkpt>
      <trkpt lat="45.5921" lon="6.88077">
        <ele>965.3</ele>
        <time>2020-08-08T08:00:13Z</time>
      </trkpt>
      <trkpt lat="45.5921" lon="6.88087">
        <ele>966.3</ele>
        <time>2020-08-08T08:00:14Z</time>
      </trkpt>
      <trkpt lat="45.59212" lon="6.88094">
        <ele>967</ele>
        <time>2020-08-08T08:00:16Z</time>
      </trkpt>
      <trkpt lat="45.59214" lon="6.88099">
        <ele>967.4</ele>
        <time>2020-08-08T08:00:18Z</time>
      </trkpt>
      <trkpt lat="45.59217" lon="6.88103">
        <ele>967.6</ele>
        <time>2020-08-08T08:00:19Z</time>
      </trkpt>
      <trkpt lat="45.59223" lon="6.88107">
        <ele>967.7</ele>
        <time>2020-08-08T08:00:20Z</time>
      </trkpt>
      <trkpt lat="45.59228" lon="6.8811">
        <ele>967.6</ele>
        <time>2020-08-08T08:00:22Z</time>
      </trkpt>
      <trkpt lat="45.5924" lon="6.88112">
        <ele>967.5</ele>
        <time>2020-08-08T08:00:24Z</time>
      </trkpt>
      <trkpt lat="45.59249" lon="6.88115">
        <ele>967.5</ele>
        <time>2020-08-08T08:00:26Z</time>
      </trkpt>
      <trkpt lat="45.59258" lon="6.8812">
        <ele>967.5</ele>
        <time>2020-08-08T08:00:28Z</time>
      </trkpt>
      <trkpt lat="45.59267" lon="6.88126">
        <ele>967.5</ele>
        <time>2020-08-08T08:00:30Z</time>
      </trkpt>
      <trkpt lat="45.59274" lon="6.8813">
        <ele>967.9</ele>
        <time>2020-08-08T08:00:32Z</time>
      </trkpt>
      <trkpt lat="45.59278" lon="6.88132">
        <ele>968.1</ele>
        <time>2020-08-08T08:00:33Z</time>
      </trkpt>
      <trkpt lat="45.59286" lon="6.88136">
        <ele>968.4</ele>
        <time>2020-08-08T08:00:35Z</time>
      </trkpt>
      <trkpt lat="45.59292" lon="6.8814">
        <ele>968.7</ele>
        <time>2020-08-08T08:00:36Z</time>
      </trkpt>
      <trkpt lat="45.59296" lon="6.88143">
        <ele>968.9</ele>
        <time>2020-08-08T08:00:37Z</time>
      </trkpt>
      <trkpt lat="45.593" lon="6.88145">
        <ele>969.1</ele>
        <time>2020-08-08T08:00:38Z</time>
      </trkpt>
      <trkpt lat="45.59309" lon="6.88151">
        <ele>969.7</ele>
        <time>2020-08-08T08:00:41Z</time>
      </trkpt>
      <trkpt lat="45.59315" lon="6.88153">
        <ele>970</ele>
        <time>2020-08-08T08:00:44Z</time>
      </trkpt>
      <trkpt lat="45.59322" lon="6.88153">
        <ele>970.4</ele>
        <time>2020-08-08T08:00:46Z</time>
      </trkpt>
      <trkpt lat="45.59326" lon="6.88153">
        <ele>970.6</ele>
        <time>2020-08-08T08:00:47Z</time>
      </trkpt>
      <trkpt lat="45.5933" lon="6.88154">
        <ele>970.9</ele>
        <time>2020-08-08T08:00:48Z</time>
      </trkpt>
      <trkpt lat="45.59337" lon="6.88154">
        <ele>971.3</ele>
        <time>2020-08-08T08:00:49Z</time>
      </trkpt>
      <trkpt lat="45.59341" lon="6.88154">
        <ele>971.5</ele>
        <time>2020-08-08T08:00:51Z</time>
      </trkpt>
      <trkpt lat="45.5935" lon="6.88154">
        <ele>972</ele>
        <time>2020-08-08T08:00:52Z</time>
      </trkpt>
      <trkpt lat="45.59354" lon="6.88154">
        <ele>972.2</ele>
        <time>2020-08-08T08:00:53Z</time>
      </trkpt>
      <trkpt lat="45.59361" lon="6.88155">
        <ele>972.5</ele>
        <time>2020-08-08T08:00:56Z</time>
      </trkpt>
      <trkpt lat="45.59367" lon="6.88156">
        <ele>972.9</ele>
        <time>2020-08-08T08:00:57Z</time>
      </trkpt>
      <trkpt lat="45.59375" lon="6.88156">
        <ele>973.4</ele>
        <time>2020-08-08T08:00:59Z</time>
      </trkpt>
      <trkpt lat="45.59381" lon="6.88156">
        <ele>973.9</ele>
        <time>2020-08-08T08:01:01Z</time>
      </trkpt>
      <trkpt lat="45.59388" lon="6.88156">
        <ele>974.4</ele>
        <time>2020-08-08T08:01:03Z</time>
      </trkpt>
      <trkpt lat="45.59394" lon="6.88157">
        <ele>974.9</ele>
        <time>2020-08-08T08:01:05Z</time>
      </trkpt>
      <trkpt lat="45.59397" lon="6.88157">
        <ele>975.1</ele>
        <time>2020-08-08T08:01:06Z</time>
      </trkpt>
      <trkpt lat="45.594" lon="6.88158">
        <ele>975.4</ele>
        <time>2020-08-08T08:01:08Z</time>
      </trkpt>
      <trkpt lat="45.59404" lon="6.88159">
        <ele>975.6</ele>
        <time>2020-08-08T08:01:09Z</time>
      </trkpt>
      <trkpt lat="45.59411" lon="6.88159">
        <ele>975.8</ele>
        <time>2020-08-08T08:01:10Z</time>
      </trkpt>
      <trkpt lat="45.59417" lon="6.8816">
        <ele>976</ele>
        <time>2020-08-08T08:01:12Z</time>
      </trkpt>
      <trkpt lat="45.59422" lon="6.88161">
        <ele>976.2</ele>
        <time>2020-08-08T08:01:13Z</time>
      </trkpt>
      <trkpt lat="45.59427" lon="6.88162">
        <ele>976.4</ele>
        <time>2020-08-08T08:01:15Z</time>
      </trkpt>
      <trkpt lat="45.59434" lon="6.88164">
        <ele>976.8</ele>
        <time>2020-08-08T08:01:17Z</time>
      </trkpt>
      <trkpt lat="45.59442" lon="6.88165">
        <ele>977.3</ele>
        <time>2020-08-08T08:01:18Z</time>
      </trkpt>
      <trkpt lat="45.59451" lon="6.88169">
        <ele>978.1</ele>
        <time>2020-08-08T08:01:21Z</time>
      </trkpt>
      <trkpt lat="45.59456" lon="6.88172">
        <ele>978.5</ele>
        <time>2020-08-08T08:01:22Z</time>
      </trkpt>
      <trkpt lat="45.59459" lon="6.88173">
        <ele>978.7</ele>
        <time>2020-08-08T08:01:24Z</time>
      </trkpt>
      <trkpt lat="45.59462" lon="6.88175">
        <ele>979</ele>
        <time>2020-08-08T08:01:25Z</time>
      </trkpt>
      <trkpt lat="45.5947" lon="6.88179">
        <ele>979.6</ele>
        <time>2020-08-08T08:01:27Z</time>
      </trkpt>
      <trkpt lat="45.59473" lon="6.88181">
        <ele>979.9</ele>
        <time>2020-08-08T08:01:28Z</time>
      </trkpt>
      <trkpt lat="45.59477" lon="6.88185">
        <ele>980.4</ele>
        <time>2020-08-08T08:01:30Z</time>
      </trkpt>
      <trkpt lat="45.5948" lon="6.88188">
        <ele>980.7</ele>
        <time>2020-08-08T08:01:31Z</time>
      </trkpt>
      <trkpt lat="45.59482" lon="6.8819">
        <ele>981.1</ele>
        <time>2020-08-08T08:01:33Z</time>
      </trkpt>
      <trkpt lat="45.59485" lon="6.88193">
        <ele>981.6</ele>
        <time>2020-08-08T08:01:34Z</time>
      </trkpt>
      <trkpt lat="45.5949" lon="6.88199">
        <ele>982.5</ele>
        <time>2020-08-08T08:01:35Z</time>
      </trkpt>
      <trkpt lat="45.59495" lon="6.88205">
        <ele>983.5</ele>
        <time>2020-08-08T08:01:38Z</time>
      </trkpt>
      <trkpt lat="45.59497" lon="6.88208">
        <ele>984</ele>
        <time>2020-08-08T08:01:39Z</time>
      </trkpt>
      <trkpt lat="45.59501" lon="6.88214">
        <ele>984.7</ele>
        <time>2020-08-08T08:01:40Z</time>
      </trkpt>
      <trkpt lat="45.59503" lon="6.88217">
        <ele>985</ele>
        <time>2020-08-08T08:01:41Z</time>
      </trkpt>
      <trkpt lat="45.59507" lon="6.88222">
        <ele>985.5</ele>
        <time>2020-08-08T08:01:43Z</time>
      </trkpt>
      <trkpt lat="45.59509" lon="6.88224">
        <ele>985.7</ele>
        <time>2020-08-08T08:01:44Z</time>
      </trkpt>
      <trkpt lat="45.59511" lon="6.88227">
        <ele>986</ele>
        <time>2020-08-08T08:01:46Z</time>
      </trkpt>
      <trkpt lat="45.59515" lon="6.88231">
        <ele>986.4</ele>
        <time>2020-08-08T08:01:47Z</time>
      </trkpt>
      <trkpt lat="45.59522" lon="6.88236">
        <ele>987</ele>
        <time>2020-08-08T08:01:49Z</time>
      </trkpt>
      <trkpt lat="45.59529" lon="6.8824">
        <ele>987.6</ele>
        <time>2020-08-08T08:01:52Z</time>
      </trkpt>
      <trkpt lat="45.59537" lon="6.88241">
        <ele>988.2</ele>
        <time>2020-08-08T08:01:55Z</time>
      </trkpt>
      <trkpt lat="45.59542" lon="6.88242">
        <ele>988.5</ele>
        <time>2020-08-08T08:01:57Z</time>
      </trkpt>
      <trkpt lat="45.59548" lon="6.88242">
        <ele>988.8</ele>
        <time>2020-08-08T08:01:58Z</time>
      </trkpt>
      <trkpt lat="45.59551" lon="6.88241">
        <ele>988.9</ele>
        <time>2020-08-08T08:02:00Z</time>
      </trkpt>
      <trkpt lat="45.59555" lon="6.88241">
        <ele>989.1</ele>
        <time>2020-08-08T08:02:01Z</time>
      </trkpt>
      <trkpt lat="45.59561" lon="6.88241">
        <ele>989.5</ele>
        <time>2020-08-08T08:02:03Z</time>
      </trkpt>
      <trkpt lat="45.59564" lon="6.8824">
        <ele>989.7</ele>
        <time>2020-08-08T08:02:04Z</time>
      </trkpt>
      <trkpt lat="45.59569" lon="6.8824">
        <ele>990.2</ele>
        <time>2020-08-08T08:02:05Z</time>
      </trkpt>
      <trkpt lat="45.59576" lon="6.88238">
        <ele>990.9</ele>
        <time>2020-08-08T08:02:08Z</time>
      </trkpt>
      <trkpt lat="45.59579" lon="6.88237">
        <ele>991.3</ele>
        <time>2020-08-08T08:02:09Z</time>
      </trkpt>
      <trkpt lat="45.59584" lon="6.88235">
        <ele>991.7</ele>
        <time>2020-08-08T08:02:11Z</time>
      </trkpt>
      <trkpt lat="45.59588" lon="6.88234">
        <ele>992</ele>
        <time>2020-08-08T08:02:13Z</time>
      </trkpt>
      <trkpt lat="45.59595" lon="6.88231">
        <ele>992.5</ele>
        <time>2020-08-08T08:02:14Z</time>
      </trkpt>
      <trkpt lat="45.59601" lon="6.88229">
        <ele>993</ele>
        <time>2020-08-08T08:02:16Z</time>
      </trkpt>
      <trkpt lat="45.59605" lon="6.88229">
        <ele>993.3</ele>
        <time>2020-08-08T08:02:18Z</time>
      </trkpt>
      <trkpt lat="45.59611" lon="6.88231">
        <ele>993.9</ele>
        <time>2020-08-08T08:02:19Z</time>
      </trkpt>
      <trkpt lat="45.59615" lon="6.88236">
        <ele>994.4</ele>
        <time>2020-08-08T08:02:21Z</time>
      </trkpt>
      <trkpt lat="45.59617" lon="6.88244">
        <ele>995.1</ele>
        <time>2020-08-08T08:02:22Z</time>
      </trkpt>
      <trkpt lat="45.59618" lon="6.88249">
        <ele>995.6</ele>
        <time>2020-08-08T08:02:24Z</time>
      </trkpt>
      <trkpt lat="45.59613" lon="6.8826">
        <ele>996.5</ele>
        <time>2020-08-08T08:02:25Z</time>
      </trkpt>
      <trkpt lat="45.59609" lon="6.88263">
        <ele>996.8</ele>
        <time>2020-08-08T08:02:27Z</time>
      </trkpt>
      <trkpt lat="45.59601" lon="6.88262">
        <ele>997</ele>
        <time>2020-08-08T08:02:29Z</time>
      </trkpt>
      <trkpt lat="45.59596" lon="6.8826">
        <ele>997.1</ele>
        <time>2020-08-08T08:02:30Z</time>
      </trkpt>
      <trkpt lat="45.59592" lon="6.88258">
        <ele>997.2</ele>
        <time>2020-08-08T08:02:31Z</time>
      </trkpt>
      <trkpt lat="45.59588" lon="6.88255">
        <ele>997.3</ele>
        <time>2020-08-08T08:02:33Z</time>
      </trkpt>
      <trkpt lat="45.59582" lon="6.88252">
        <ele>997.5</ele>
        <time>2020-08-08T08:02:34Z</time>
      </trkpt>
      <trkpt lat="45.59577" lon="6.88251">
        <ele>997.9</ele>
        <time>2020-08-08T08:02:37Z</time>
      </trkpt>
      <trkpt lat="45.5957" lon="6.88251">
        <ele>998.3</ele>
        <time>2020-08-08T08:02:39Z</time>
      </trkpt>
      <trkpt lat="45.59566" lon="6.88251">
        <ele>998.6</ele>
        <time>2020-08-08T08:02:40Z</time>
      </trkpt>
      <trkpt lat="45.5956" lon="6.88252">
        <ele>998.9</ele>
        <time>2020-08-08T08:02:42Z</time>
      </trkpt>
      <trkpt lat="45.59552" lon="6.88254">
        <ele>999.4</ele>
        <time>2020-08-08T08:02:43Z</time>
      </trkpt>
      <trkpt lat="45.59548" lon="6.88255">
        <ele>999.6</ele>
        <time>2020-08-08T08:02:45Z</time>
      </trkpt>
      <trkpt lat="45.59546" lon="6.88256">
        <ele>999.7</ele>
        <time>2020-08-08T08:02:47Z</time>
      </trkpt>
      <trkpt lat="45.59542" lon="6.88257">
        <ele>999.8</ele>
        <time>2020-08-08T08:02:48Z</time>
      </trkpt>
      <trkpt lat="45.59535" lon="6.88259">
        <ele>1000.1</ele>
        <time>2020-08-08T08:02:49Z</time>
      </trkpt>
      <trkpt lat="45.5953" lon="6.8826">
        <ele>1000.3</ele>
        <time>2020-08-08T08:02:51Z</time>
      </trkpt>
      <trkpt lat="45.59526" lon="6.8826">
        <ele>1000.6</ele>
        <time>2020-08-08T08:02:53Z</time>
      </trkpt>
      <trkpt lat="45.5952" lon="6.88259">
        <ele>1001</ele>
        <time>2020-08-08T08:02:54Z</time>
      </trkpt>
      <trkpt lat="45.59516" lon="6.88259">
        <ele>1001.2</ele>
        <time>2020-08-08T08:02:55Z</time>
      </trkpt>
      <trkpt lat="45.59511" lon="6.88257">
        <ele>1001.5</ele>
        <time>2020-08-08T08:02:57Z</time>
      </trkpt>
      <trkpt lat="45.59507" lon="6.88255">
        <ele>1001.8</ele>
        <time>2020-08-08T08:02:59Z</time>
      </trkpt>
      <trkpt lat="45.59503" lon="6.88253">
        <ele>1002</ele>
        <time>2020-08-08T08:03:00Z</time>
      </trkpt>
      <trkpt lat="45.59498" lon="6.88249">
        <ele>1002.4</ele>
        <time>2020-08-08T08:03:01Z</time>
      </trkpt>
      <trkpt lat="45.5949" lon="6.88244">
        <ele>1003</ele>
        <time>2020-08-08T08:03:03Z</time>
      </trkpt>
      <trkpt lat="45.59484" lon="6.8824">
        <ele>1003.3</ele>
        <time>2020-08-08T08:03:04Z</time>
      </trkpt>
      <trkpt lat="45.59478" lon="6.88238">
        <ele>1003.5</ele>
        <time>2020-08-08T08:03:06Z</time>
      </trkpt>
      <trkpt lat="45.59472" lon="6.88237">
        <ele>1003.6</ele>
        <time>2020-08-08T08:03:08Z</time>
      </trkpt>
      <trkpt lat="45.59467" lon="6.88237">
        <ele>1003.6</ele>
        <time>2020-08-08T08:03:10Z</time>
      </trkpt>
      <trkpt lat="45.59464" lon="6.88236">
        <ele>1003.7</ele>
        <time>2020-08-08T08:03:11Z</time>
      </trkpt>
      <trkpt lat="45.59457" lon="6.88237">
        <ele>1003.8</ele>
        <time>2020-08-08T08:03:12Z</time>
      </trkpt>
      <trkpt lat="45.59452" lon="6.88236">
        <ele>1004.1</ele>
        <time>2020-08-08T08:03:14Z</time>
      </trkpt>
      <trkpt lat="45.59448" lon="6.88237">
        <ele>1004.3</ele>
        <time>2020-08-08T08:03:16Z</time>
      </trkpt>
      <trkpt lat="45.59445" lon="6.88237">
        <ele>1004.5</ele>
        <time>2020-08-08T08:03:17Z</time>
      </trkpt>
      <trkpt lat="45.59438" lon="6.88238">
        <ele>1005.1</ele>
        <time>2020-08-08T08:03:18Z</time>
      </trkpt>
      <trkpt lat="45.59435" lon="6.88238">
        <ele>1005.4</ele>
        <time>2020-08-08T08:03:19Z</time>
      </trkpt>
      <trkpt lat="45.59432" lon="6.88238">
        <ele>1005.8</ele>
        <time>2020-08-08T08:03:21Z</time>
      </trkpt>
      <trkpt lat="45.59429" lon="6.88238">
        <ele>1006.1</ele>
        <time>2020-08-08T08:03:22Z</time>
      </trkpt>
      <trkpt lat="45.59422" lon="6.88238">
        <ele>1006.6</ele>
        <time>2020-08-08T08:03:23Z</time>
      </trkpt>
      <trkpt lat="45.59417" lon="6.88237">
        <ele>1006.8</ele>
        <time>2020-08-08T08:03:25Z</time>
      </trkpt>
      <trkpt lat="45.59414" lon="6.88237">
        <ele>1006.9</ele>
        <time>2020-08-08T08:03:26Z</time>
      </trkpt>
      <trkpt lat="45.59409" lon="6.88236">
        <ele>1007.1</ele>
        <time>2020-08-08T08:03:27Z</time>
      </trkpt>
      <trkpt lat="45.59402" lon="6.88235">
        <ele>1007.3</ele>
        <time>2020-08-08T08:03:30Z</time>
      </trkpt>
      <trkpt lat="45.59397" lon="6.88234">
        <ele>1007.5</ele>
        <time>2020-08-08T08:03:32Z</time>
      </trkpt>
      <trkpt lat="45.59393" lon="6.88234">
        <ele>1007.7</ele>
        <time>2020-08-08T08:03:34Z</time>
      </trkpt>
      <trkpt lat="45.59387" lon="6.88233">
        <ele>1008</ele>
        <time>2020-08-08T08:03:36Z</time>
      </trkpt>
      <trkpt lat="45.59384" lon="6.88232">
        <ele>1008.2</ele>
        <time>2020-08-08T08:03:37Z</time>
      </trkpt>
      <trkpt lat="45.59376" lon="6.88231">
        <ele>1008.5</ele>
        <time>2020-08-08T08:03:38Z</time>
      </trkpt>
      <trkpt lat="45.5937" lon="6.88231">
        <ele>1008.7</ele>
        <time>2020-08-08T08:03:40Z</time>
      </trkpt>
      <trkpt lat="45.59366" lon="6.88231">
        <ele>1008.8</ele>
        <time>2020-08-08T08:03:42Z</time>
      </trkpt>
      <trkpt lat="45.59359" lon="6.88232">
        <ele>1009.2</ele>
        <time>2020-08-08T08:03:43Z</time>
      </trkpt>
      <trkpt lat="45.59354" lon="6.88233">
        <ele>1009.6</ele>
        <time>2020-08-08T08:03:45Z</time>
      </trkpt>
      <trkpt lat="45.5935" lon="6.88233">
        <ele>1009.9</ele>
        <time>2020-08-08T08:03:47Z</time>
      </trkpt>
      <trkpt lat="45.59347" lon="6.88233">
        <ele>1010.3</ele>
        <time>2020-08-08T08:03:48Z</time>
      </trkpt>
      <trkpt lat="45.59344" lon="6.88233">
        <ele>1010.5</ele>
        <time>2020-08-08T08:03:49Z</time>
      </trkpt>
      <trkpt lat="45.59338" lon="6.88235">
        <ele>1011.1</ele>
        <time>2020-08-08T08:03:50Z</time>
      </trkpt>
      <trkpt lat="45.59333" lon="6.88236">
        <ele>1011.6</ele>
        <time>2020-08-08T08:03:51Z</time>
      </trkpt>
      <trkpt lat="45.59326" lon="6.8824">
        <ele>1012.3</ele>
        <time>2020-08-08T08:03:54Z</time>
      </trkpt>
      <trkpt lat="45.59318" lon="6.88244">
        <ele>1012.8</ele>
        <time>2020-08-08T08:03:57Z</time>
      </trkpt>
      <trkpt lat="45.59315" lon="6.88246">
        <ele>1013</ele>
        <time>2020-08-08T08:03:58Z</time>
      </trkpt>
      <trkpt lat="45.59311" lon="6.88249">
        <ele>1013.3</ele>
        <time>2020-08-08T08:04:00Z</time>
      </trkpt>
      <trkpt lat="45.59308" lon="6.88251">
        <ele>1013.5</ele>
        <time>2020-08-08T08:04:01Z</time>
      </trkpt>
      <trkpt lat="45.59305" lon="6.88252">
        <ele>1013.6</ele>
        <time>2020-08-08T08:04:03Z</time>
      </trkpt>
      <trkpt lat="45.59299" lon="6.88255">
        <ele>1014</ele>
        <time>2020-08-08T08:04:05Z</time>
      </trkpt>
      <trkpt lat="45.59296" lon="6.88256">
        <ele>1014.3</ele>
        <time>2020-08-08T08:04:06Z</time>
      </trkpt>
      <trkpt lat="45.5929" lon="6.88257">
        <ele>1014.7</ele>
        <time>2020-08-08T08:04:07Z</time>
      </trkpt>
      <trkpt lat="45.59286" lon="6.88257">
        <ele>1015.1</ele>
        <time>2020-08-08T08:04:09Z</time>
      </trkpt>
      <trkpt lat="45.59283" lon="6.88258">
        <ele>1015.4</ele>
        <time>2020-08-08T08:04:10Z</time>
      </trkpt>
      <trkpt lat="45.59276" lon="6.88257">
        <ele>1016</ele>
        <time>2020-08-08T08:04:11Z</time>
      </trkpt>
      <trkpt lat="45.59271" lon="6.88256">
        <ele>1016.4</ele>
        <time>2020-08-08T08:04:13Z</time>
      </trkpt>
      <trkpt lat="45.59266" lon="6.88254">
        <ele>1016.9</ele>
        <time>2020-08-08T08:04:15Z</time>
      </trkpt>
      <trkpt lat="45.59262" lon="6.88253">
        <ele>1017.2</ele>
        <time>2020-08-08T08:04:17Z</time>
      </trkpt>
      <trkpt lat="45.59257" lon="6.88252">
        <ele>1017.6</ele>
        <time>2020-08-08T08:04:18Z</time>
      </trkpt>
      <trkpt lat="45.59252" lon="6.8825">
        <ele>1018.2</ele>
        <time>2020-08-08T08:04:19Z</time>
      </trkpt>
      <trkpt lat="45.59248" lon="6.88249">
        <ele>1018.5</ele>
        <time>2020-08-08T08:04:22Z</time>
      </trkpt>
      <trkpt lat="45.59246" lon="6.88248">
        <ele>1018.8</ele>
        <time>2020-08-08T08:04:23Z</time>
      </trkpt>
      <trkpt lat="45.59241" lon="6.88248">
        <ele>1019.3</ele>
        <time>2020-08-08T08:04:24Z</time>
      </trkpt>
      <trkpt lat="45.59236" lon="6.88249">
        <ele>1019.7</ele>
        <time>2020-08-08T08:04:26Z</time>
      </trkpt>
      <trkpt lat="45.5923" lon="6.88249">
        <ele>1020.1</ele>
        <time>2020-08-08T08:04:27Z</time>
      </trkpt>
      <trkpt lat="45.59226" lon="6.88249">
        <ele>1020.4</ele>
        <time>2020-08-08T08:04:30Z</time>
      </trkpt>
      <trkpt lat="45.59221" lon="6.8825">
        <ele>1020.6</ele>
        <time>2020-08-08T08:04:31Z</time>
      </trkpt>
      <trkpt lat="45.59216" lon="6.88251">
        <ele>1020.7</ele>
        <time>2020-08-08T08:04:33Z</time>
      </trkpt>
      <trkpt lat="45.59214" lon="6.88251">
        <ele>1020.8</ele>
        <time>2020-08-08T08:04:34Z</time>
      </trkpt>
      <trkpt lat="45.59213" lon="6.88251">
        <ele>1020.8</ele>
        <time>2020-08-08T08:04:35Z</time>
      </trkpt>
      <trkpt lat="45.59207" lon="6.88252">
        <ele>1021.1</ele>
        <time>2020-08-08T08:04:37Z</time>
      </trkpt>
      <trkpt lat="45.59203" lon="6.88252">
        <ele>1021.2</ele>
        <time>2020-08-08T08:04:38Z</time>
      </trkpt>
      <trkpt lat="45.59199" lon="6.88252">
        <ele>1021.5</ele>
        <time>2020-08-08T08:04:40Z</time>
      </trkpt>
      <trkpt lat="45.59196" lon="6.88252">
        <ele>1021.7</ele>
        <time>2020-08-08T08:04:42Z</time>
      </trkpt>
      <trkpt lat="45.5919" lon="6.88252">
        <ele>1022</ele>
        <time>2020-08-08T08:04:44Z</time>
      </trkpt>
      <trkpt lat="45.59185" lon="6.88252">
        <ele>1022.4</ele>
        <time>2020-08-08T08:04:46Z</time>
      </trkpt>
      <trkpt lat="45.59181" lon="6.88252">
        <ele>1022.6</ele>
        <time>2020-08-08T08:04:47Z</time>
      </trkpt>
      <trkpt lat="45.59176" lon="6.88252">
        <ele>1022.9</ele>
        <time>2020-08-08T08:04:48Z</time>
      </trkpt>
      <trkpt lat="45.59168" lon="6.88252">
        <ele>1023.2</ele>
        <time>2020-08-08T08:04:50Z</time>
      </trkpt>
      <trkpt lat="45.59164" lon="6.88252">
        <ele>1023.4</ele>
        <time>2020-08-08T08:04:53Z</time>
      </trkpt>
      <trkpt lat="45.5916" lon="6.88252">
        <ele>1023.6</ele>
        <time>2020-08-08T08:04:54Z</time>
      </trkpt>
      <trkpt lat="45.59156" lon="6.88252">
        <ele>1023.8</ele>
        <time>2020-08-08T08:04:56Z</time>
      </trkpt>
      <trkpt lat="45.59149" lon="6.88253">
        <ele>1023.9</ele>
        <time>2020-08-08T08:04:57Z</time>
      </trkpt>
      <trkpt lat="45.59145" lon="6.88254">
        <ele>1024</ele>
        <time>2020-08-08T08:04:59Z</time>
      </trkpt>
      <trkpt lat="45.59141" lon="6.88255">
        <ele>1024.1</ele>
        <time>2020-08-08T08:05:01Z</time>
      </trkpt>
      <trkpt lat="45.59138" lon="6.88256">
        <ele>1024.3</ele>
        <time>2020-08-08T08:05:02Z</time>
      </trkpt>
      <trkpt lat="45.59136" lon="6.88257">
        <ele>1024.5</ele>
        <time>2020-08-08T08:05:03Z</time>
      </trkpt>
      <trkpt lat="45.59131" lon="6.88258">
        <ele>1024.9</ele>
        <time>2020-08-08T08:05:04Z</time>
      </trkpt>
      <trkpt lat="45.59127" lon="6.88259">
        <ele>1025.2</ele>
        <time>2020-08-08T08:05:06Z</time>
      </trkpt>
      <trkpt lat="45.5912" lon="6.88261">
        <ele>1025.7</ele>
        <time>2020-08-08T08:05:07Z</time>
      </trkpt>
      <trkpt lat="45.59116" lon="6.88263">
        <ele>1026</ele>
        <time>2020-08-08T08:05:09Z</time>
      </trkpt>
      <trkpt lat="45.59113" lon="6.88265">
        <ele>1026.3</ele>
        <time>2020-08-08T08:05:10Z</time>
      </trkpt>
      <trkpt lat="45.59109" lon="6.88268">
        <ele>1026.7</ele>
        <time>2020-08-08T08:05:12Z</time>
      </trkpt>
      <trkpt lat="45.59105" lon="6.8827">
        <ele>1027</ele>
        <time>2020-08-08T08:05:13Z</time>
      </trkpt>
      <trkpt lat="45.59102" lon="6.88272">
        <ele>1027.2</ele>
        <time>2020-08-08T08:05:15Z</time>
      </trkpt>
      <trkpt lat="45.591" lon="6.88273">
        <ele>1027.4</ele>
        <time>2020-08-08T08:05:16Z</time>
      </trkpt>
      <trkpt lat="45.59092" lon="6.88277">
        <ele>1028.7</ele>
        <time>2020-08-08T08:05:18Z</time>
      </trkpt>
      <trkpt lat="45.59088" lon="6.88279">
        <ele>1029.4</ele>
        <time>2020-08-08T08:05:20Z</time>
      </trkpt>
      <trkpt lat="45.59084" lon="6.88282">
        <ele>1030.1</ele>
        <time>2020-08-08T08:05:22Z</time>
      </trkpt>
      <trkpt lat="45.59082" lon="6.88282">
        <ele>1030.4</ele>
        <time>2020-08-08T08:05:23Z</time>
      </trkpt>
      <trkpt lat="45.59078" lon="6.88284">
        <ele>1031</ele>
        <time>2020-08-08T08:05:24Z</time>
      </trkpt>
      <trkpt lat="45.59072" lon="6.88287">
        <ele>1031.9</ele>
        <time>2020-08-08T08:05:27Z</time>
      </trkpt>
      <trkpt lat="45.59066" lon="6.88291">
        <ele>1033</ele>
        <time>2020-08-08T08:05:30Z</time>
      </trkpt>
      <trkpt lat="45.59063" lon="6.88293">
        <ele>1033.4</ele>
        <time>2020-08-08T08:05:31Z</time>
      </trkpt>
      <trkpt lat="45.5906" lon="6.88295">
        <ele>1033.8</ele>
        <time>2020-08-08T08:05:32Z</time>
      </trkpt>
      <trkpt lat="45.59059" lon="6.88297">
        <ele>1034.1</ele>
        <time>2020-08-08T08:05:34Z</time>
      </trkpt>
      <trkpt lat="45.59056" lon="6.883">
        <ele>1034.5</ele>
        <time>2020-08-08T08:05:36Z</time>
      </trkpt>
      <trkpt lat="45.59054" lon="6.88305">
        <ele>1035</ele>
        <time>2020-08-08T08:05:37Z</time>
      </trkpt>
      <trkpt lat="45.59053" lon="6.88307">
        <ele>1035.2</ele>
        <time>2020-08-08T08:05:38Z</time>
      </trkpt>
      <trkpt lat="45.59051" lon="6.88312">
        <ele>1035.8</ele>
        <time>2020-08-08T08:05:39Z</time>
      </trkpt>
      <trkpt lat="45.59049" lon="6.88315">
        <ele>1036.1</ele>
        <time>2020-08-08T08:05:40Z</time>
      </trkpt>
      <trkpt lat="45.59048" lon="6.88319">
        <ele>1036.4</ele>
        <time>2020-08-08T08:05:41Z</time>
      </trkpt>
      <trkpt lat="45.59046" lon="6.88324">
        <ele>1036.9</ele>
        <time>2020-08-08T08:05:43Z</time>
      </trkpt>
      <trkpt lat="45.59043" lon="6.88333">
        <ele>1037.8</ele>
        <time>2020-08-08T08:05:44Z</time>
      </trkpt>
      <trkpt lat="45.59042" lon="6.88341">
        <ele>1038.4</ele>
        <time>2020-08-08T08:05:46Z</time>
      </trkpt>
      <trkpt lat="45.59041" lon="6.88354">
        <ele>1039.4</ele>
        <time>2020-08-08T08:05:48Z</time>
      </trkpt>
      <trkpt lat="45.5904" lon="6.88361">
        <ele>1039.9</ele>
        <time>2020-08-08T08:05:50Z</time>
      </trkpt>
      <trkpt lat="45.59037" lon="6.88375">
        <ele>1040.9</ele>
        <time>2020-08-08T08:05:52Z</time>
      </trkpt>
      <trkpt lat="45.59035" lon="6.88382">
        <ele>1041.3</ele>
        <time>2020-08-08T08:05:53Z</time>
      </trkpt>
      <trkpt lat="45.59033" lon="6.8839">
        <ele>1041.9</ele>
        <time>2020-08-08T08:05:55Z</time>
      </trkpt>
      <trkpt lat="45.59031" lon="6.88397">
        <ele>1042.3</ele>
        <time>2020-08-08T08:05:57Z</time>
      </trkpt>
      <trkpt lat="45.59028" lon="6.88402">
        <ele>1042.7</ele>
        <time>2020-08-08T08:05:58Z</time>
      </trkpt>
      <trkpt lat="45.59026" lon="6.88406">
        <ele>1043.1</ele>
        <time>2020-08-08T08:05:59Z</time>
      </trkpt>
      <trkpt lat="45.59016" lon="6.88412">
        <ele>1044</ele>
        <time>2020-08-08T08:06:01Z</time>
      </trkpt>
      <trkpt lat="45.59009" lon="6.88412">
        <ele>1044.6</ele>
        <time>2020-08-08T08:06:02Z</time>
      </trkpt>
      <trkpt lat="45.59008" lon="6.88411">
        <ele>1044.7</ele>
        <time>2020-08-08T08:06:03Z</time>
      </trkpt>
      <trkpt lat="45.58995" lon="6.88403">
        <ele>1046.1</ele>
        <time>2020-08-08T08:06:06Z</time>
      </trkpt>
      <trkpt lat="45.5899" lon="6.88399">
        <ele>1046.7</ele>
        <time>2020-08-08T08:06:08Z</time>
      </trkpt>
      <trkpt lat="45.58984" lon="6.88393">
        <ele>1047.5</ele>
        <time>2020-08-08T08:06:09Z</time>
      </trkpt>
      <trkpt lat="45.58976" lon="6.88381">
        <ele>1048.5</ele>
        <time>2020-08-08T08:06:12Z</time>
      </trkpt>
      <trkpt lat="45.58972" lon="6.88377">
        <ele>1048.6</ele>
        <time>2020-08-08T08:06:14Z</time>
      </trkpt>
      <trkpt lat="45.58969" lon="6.88373">
        <ele>1048.8</ele>
        <time>2020-08-08T08:06:15Z</time>
      </trkpt>
      <trkpt lat="45.58962" lon="6.88361">
        <ele>1049.1</ele>
        <time>2020-08-08T08:06:17Z</time>
      </trkpt>
      <trkpt lat="45.58958" lon="6.88354">
        <ele>1049.4</ele>
        <time>2020-08-08T08:06:19Z</time>
      </trkpt>
      <trkpt lat="45.58953" lon="6.88349">
        <ele>1049.6</ele>
        <time>2020-08-08T08:06:20Z</time>
      </trkpt>
      <trkpt lat="45.58949" lon="6.88345">
        <ele>1049.8</ele>
        <time>2020-08-08T08:06:23Z</time>
      </trkpt>
      <trkpt lat="45.58943" lon="6.88341">
        <ele>1050</ele>
        <time>2020-08-08T08:06:24Z</time>
      </trkpt>
      <trkpt lat="45.58933" lon="6.88337">
        <ele>1050.4</ele>
        <time>2020-08-08T08:06:26Z</time>
      </trkpt>
      <trkpt lat="45.58928" lon="6.88336">
        <ele>1050.6</ele>
        <time>2020-08-08T08:06:28Z</time>
      </trkpt>
      <trkpt lat="45.58918" lon="6.88335">
        <ele>1050.9</ele>
        <time>2020-08-08T08:06:30Z</time>
      </trkpt>
      <trkpt lat="45.58913" lon="6.88336">
        <ele>1051.1</ele>
        <time>2020-08-08T08:06:32Z</time>
      </trkpt>
      <trkpt lat="45.58907" lon="6.88337">
        <ele>1051.3</ele>
        <time>2020-08-08T08:06:33Z</time>
      </trkpt>
      <trkpt lat="45.58897" lon="6.88339">
        <ele>1051.7</ele>
        <time>2020-08-08T08:06:36Z</time>
      </trkpt>
      <trkpt lat="45.58893" lon="6.8834">
        <ele>1051.9</ele>
        <time>2020-08-08T08:06:38Z</time>
      </trkpt>
      <trkpt lat="45.58888" lon="6.88343">
        <ele>1052.1</ele>
        <time>2020-08-08T08:06:39Z</time>
      </trkpt>
      <trkpt lat="45.58884" lon="6.88345">
        <ele>1052.2</ele>
        <time>2020-08-08T08:06:41Z</time>
      </trkpt>
      <trkpt lat="45.5888" lon="6.88348">
        <ele>1052.4</ele>
        <time>2020-08-08T08:06:42Z</time>
      </trkpt>
      <trkpt lat="45.58878" lon="6.8835">
        <ele>1052.5</ele>
        <time>2020-08-08T08:06:43Z</time>
      </trkpt>
      <trkpt lat="45.58875" lon="6.88352">
        <ele>1053.2</ele>
        <time>2020-08-08T08:06:44Z</time>
      </trkpt>
      <trkpt lat="45.58873" lon="6.88355">
        <ele>1053.8</ele>
        <time>2020-08-08T08:06:45Z</time>
      </trkpt>
      <trkpt lat="45.5887" lon="6.88358">
        <ele>1054.5</ele>
        <time>2020-08-08T08:06:46Z</time>
      </trkpt>
      <trkpt lat="45.58868" lon="6.88361">
        <ele>1055.2</ele>
        <time>2020-08-08T08:06:47Z</time>
      </trkpt>
      <trkpt lat="45.58866" lon="6.88364">
        <ele>1055.8</ele>
        <time>2020-08-08T08:06:49Z</time>
      </trkpt>
      <trkpt lat="45.58865" lon="6.88368">
        <ele>1056.4</ele>
        <time>2020-08-08T08:06:50Z</time>
      </trkpt>
      <trkpt lat="45.58864" lon="6.88372">
        <ele>1057.1</ele>
        <time>2020-08-08T08:06:51Z</time>
      </trkpt>
      <trkpt lat="45.58862" lon="6.88381">
        <ele>1058.4</ele>
        <time>2020-08-08T08:06:54Z</time>
      </trkpt>
      <trkpt lat="45.5886" lon="6.8839">
        <ele>1059.6</ele>
        <time>2020-08-08T08:06:56Z</time>
      </trkpt>
      <trkpt lat="45.58857" lon="6.884">
        <ele>1061.1</ele>
        <time>2020-08-08T08:06:57Z</time>
      </trkpt>
      <trkpt lat="45.58857" lon="6.88404">
        <ele>1061.6</ele>
        <time>2020-08-08T08:06:58Z</time>
      </trkpt>
      <trkpt lat="45.58854" lon="6.88417">
        <ele>1062.6</ele>
        <time>2020-08-08T08:07:01Z</time>
      </trkpt>
      <trkpt lat="45.58854" lon="6.88421">
        <ele>1062.7</ele>
        <time>2020-08-08T08:07:02Z</time>
      </trkpt>
      <trkpt lat="45.58853" lon="6.88426">
        <ele>1062.9</ele>
        <time>2020-08-08T08:07:04Z</time>
      </trkpt>
      <trkpt lat="45.58851" lon="6.88433">
        <ele>1063.2</ele>
        <time>2020-08-08T08:07:05Z</time>
      </trkpt>
      <trkpt lat="45.58849" lon="6.88439">
        <ele>1063.5</ele>
        <time>2020-08-08T08:07:08Z</time>
      </trkpt>
      <trkpt lat="45.58847" lon="6.88442">
        <ele>1063.6</ele>
        <time>2020-08-08T08:07:09Z</time>
      </trkpt>
      <trkpt lat="45.58842" lon="6.88446">
        <ele>1063.9</ele>
        <time>2020-08-08T08:07:10Z</time>
      </trkpt>
      <trkpt lat="45.5884" lon="6.88448">
        <ele>1064.1</ele>
        <time>2020-08-08T08:07:11Z</time>
      </trkpt>
      <trkpt lat="45.58832" lon="6.88455">
        <ele>1064.6</ele>
        <time>2020-08-08T08:07:13Z</time>
      </trkpt>
      <trkpt lat="45.58825" lon="6.88463">
        <ele>1065</ele>
        <time>2020-08-08T08:07:16Z</time>
      </trkpt>
      <trkpt lat="45.58821" lon="6.88466">
        <ele>1065.2</ele>
        <time>2020-08-08T08:07:18Z</time>
      </trkpt>
      <trkpt lat="45.58814" lon="6.88472">
        <ele>1065.4</ele>
        <time>2020-08-08T08:07:20Z</time>
      </trkpt>
      <trkpt lat="45.5881" lon="6.88476">
        <ele>1065.5</ele>
        <time>2020-08-08T08:07:21Z</time>
      </trkpt>
      <trkpt lat="45.58806" lon="6.8848">
        <ele>1065.6</ele>
        <time>2020-08-08T08:07:23Z</time>
      </trkpt>
      <trkpt lat="45.58801" lon="6.88484">
        <ele>1065.8</ele>
        <time>2020-08-08T08:07:24Z</time>
      </trkpt>
      <trkpt lat="45.58796" lon="6.88487">
        <ele>1065.9</ele>
        <time>2020-08-08T08:07:26Z</time>
      </trkpt>
      <trkpt lat="45.58792" lon="6.8849">
        <ele>1066</ele>
        <time>2020-08-08T08:07:28Z</time>
      </trkpt>
      <trkpt lat="45.58789" lon="6.88493">
        <ele>1066.2</ele>
        <time>2020-08-08T08:07:29Z</time>
      </trkpt>
      <trkpt lat="45.58783" lon="6.88495">
        <ele>1066.4</ele>
        <time>2020-08-08T08:07:30Z</time>
      </trkpt>
      <trkpt lat="45.58778" lon="6.88496">
        <ele>1066.6</ele>
        <time>2020-08-08T08:07:32Z</time>
      </trkpt>
      <trkpt lat="45.58775" lon="6.88496">
        <ele>1066.7</ele>
        <time>2020-08-08T08:07:33Z</time>
      </trkpt>
      <trkpt lat="45.5877" lon="6.88496">
        <ele>1066.9</ele>
        <time>2020-08-08T08:07:34Z</time>
      </trkpt>
      <trkpt lat="45.58766" lon="6.88495">
        <ele>1067.1</ele>
        <time>2020-08-08T08:07:36Z</time>
      </trkpt>
      <trkpt lat="45.5876" lon="6.88492">
        <ele>1067.4</ele>
        <time>2020-08-08T08:07:38Z</time>
      </trkpt>
      <trkpt lat="45.58753" lon="6.88487">
        <ele>1067.7</ele>
        <time>2020-08-08T08:07:39Z</time>
      </trkpt>
      <trkpt lat="45.5875" lon="6.88486">
        <ele>1067.9</ele>
        <time>2020-08-08T08:07:40Z</time>
      </trkpt>
      <trkpt lat="45.58746" lon="6.88484">
        <ele>1068.1</ele>
        <time>2020-08-08T08:07:43Z</time>
      </trkpt>
      <trkpt lat="45.5874" lon="6.88482">
        <ele>1068.4</ele>
        <time>2020-08-08T08:07:45Z</time>
      </trkpt>
      <trkpt lat="45.58736" lon="6.88479">
        <ele>1068.7</ele>
        <time>2020-08-08T08:07:46Z</time>
      </trkpt>
      <trkpt lat="45.58733" lon="6.88477">
        <ele>1068.9</ele>
        <time>2020-08-08T08:07:48Z</time>
      </trkpt>
      <trkpt lat="45.58728" lon="6.88475">
        <ele>1069.2</ele>
        <time>2020-08-08T08:07:49Z</time>
      </trkpt>
      <trkpt lat="45.58722" lon="6.88472">
        <ele>1069.6</ele>
        <time>2020-08-08T08:07:51Z</time>
      </trkpt>
      <trkpt lat="45.58717" lon="6.8847">
        <ele>1069.9</ele>
        <time>2020-08-08T08:07:53Z</time>
      </trkpt>
      <trkpt lat="45.58713" lon="6.88469">
        <ele>1070.1</ele>
        <time>2020-08-08T08:07:54Z</time>
      </trkpt>
      <trkpt lat="45.5871" lon="6.88467">
        <ele>1070.3</ele>
        <time>2020-08-08T08:07:57Z</time>
      </trkpt>
      <trkpt lat="45.58706" lon="6.88466">
        <ele>1070.5</ele>
        <time>2020-08-08T08:07:58Z</time>
      </trkpt>
      <trkpt lat="45.58703" lon="6.88464">
        <ele>1070.7</ele>
        <time>2020-08-08T08:08:00Z</time>
      </trkpt>
      <trkpt lat="45.587" lon="6.88463">
        <ele>1070.9</ele>
        <time>2020-08-08T08:08:01Z</time>
      </trkpt>
      <trkpt lat="45.58695" lon="6.8846">
        <ele>1071.1</ele>
        <time>2020-08-08T08:08:02Z</time>
      </trkpt>
      <trkpt lat="45.58692" lon="6.88458">
        <ele>1071.4</ele>
        <time>2020-08-08T08:08:04Z</time>
      </trkpt>
      <trkpt lat="45.58687" lon="6.88456">
        <ele>1071.7</ele>
        <time>2020-08-08T08:08:06Z</time>
      </trkpt>
      <trkpt lat="45.5868" lon="6.88452">
        <ele>1072.1</ele>
        <time>2020-08-08T08:08:07Z</time>
      </trkpt>
      <trkpt lat="45.58673" lon="6.88449">
        <ele>1072.5</ele>
        <time>2020-08-08T08:08:10Z</time>
      </trkpt>
      <trkpt lat="45.58669" lon="6.88447">
        <ele>1072.8</ele>
        <time>2020-08-08T08:08:11Z</time>
      </trkpt>
      <trkpt lat="45.58665" lon="6.88445">
        <ele>1073</ele>
        <time>2020-08-08T08:08:14Z</time>
      </trkpt>
      <trkpt lat="45.58663" lon="6.88444">
        <ele>1073.2</ele>
        <time>2020-08-08T08:08:15Z</time>
      </trkpt>
      <trkpt lat="45.58658" lon="6.88441">
        <ele>1073.6</ele>
        <time>2020-08-08T08:08:16Z</time>
      </trkpt>
      <trkpt lat="45.58652" lon="6.88438">
        <ele>1073.9</ele>
        <time>2020-08-08T08:08:18Z</time>
      </trkpt>
      <trkpt lat="45.5865" lon="6.88437">
        <ele>1074.1</ele>
        <time>2020-08-08T08:08:19Z</time>
      </trkpt>
      <trkpt lat="45.58647" lon="6.88436">
        <ele>1074.3</ele>
        <time>2020-08-08T08:08:20Z</time>
      </trkpt>
      <trkpt lat="45.58643" lon="6.88435">
        <ele>1074.5</ele>
        <time>2020-08-08T08:08:21Z</time>
      </trkpt>
      <trkpt lat="45.58636" lon="6.88435">
        <ele>1074.8</ele>
        <time>2020-08-08T08:08:24Z</time>
      </trkpt>
      <trkpt lat="45.58633" lon="6.88435">
        <ele>1074.9</ele>
        <time>2020-08-08T08:08:25Z</time>
      </trkpt>
      <trkpt lat="45.58629" lon="6.88436">
        <ele>1075.1</ele>
        <time>2020-08-08T08:08:27Z</time>
      </trkpt>
      <trkpt lat="45.58623" lon="6.88438">
        <ele>1075.1</ele>
        <time>2020-08-08T08:08:28Z</time>
      </trkpt>
      <trkpt lat="45.58614" lon="6.8844">
        <ele>1075.3</ele>
        <time>2020-08-08T08:08:31Z</time>
      </trkpt>
      <trkpt lat="45.5861" lon="6.88441">
        <ele>1075.9</ele>
        <time>2020-08-08T08:08:33Z</time>
      </trkpt>
      <trkpt lat="45.58607" lon="6.88442">
        <ele>1076.6</ele>
        <time>2020-08-08T08:08:34Z</time>
      </trkpt>
      <trkpt lat="45.58603" lon="6.88445">
        <ele>1077.4</ele>
        <time>2020-08-08T08:08:36Z</time>
      </trkpt>
      <trkpt lat="45.586" lon="6.88447">
        <ele>1078.1</ele>
        <time>2020-08-08T08:08:37Z</time>
      </trkpt>
      <trkpt lat="45.58595" lon="6.88452">
        <ele>1079.1</ele>
        <time>2020-08-08T08:08:38Z</time>
      </trkpt>
      <trkpt lat="45.58591" lon="6.88456">
        <ele>1080</ele>
        <time>2020-08-08T08:08:40Z</time>
      </trkpt>
      <trkpt lat="45.58586" lon="6.88461">
        <ele>1081</ele>
        <time>2020-08-08T08:08:41Z</time>
      </trkpt>
      <trkpt lat="45.58582" lon="6.88463">
        <ele>1081.7</ele>
        <time>2020-08-08T08:08:43Z</time>
      </trkpt>
      <trkpt lat="45.58578" lon="6.88466">
        <ele>1082.4</ele>
        <time>2020-08-08T08:08:44Z</time>
      </trkpt>
      <trkpt lat="45.58569" lon="6.88474">
        <ele>1084.3</ele>
        <time>2020-08-08T08:08:46Z</time>
      </trkpt>
      <trkpt lat="45.58565" lon="6.88478">
        <ele>1085.2</ele>
        <time>2020-08-08T08:08:47Z</time>
      </trkpt>
      <trkpt lat="45.58561" lon="6.88481">
        <ele>1085.9</ele>
        <time>2020-08-08T08:08:48Z</time>
      </trkpt>
      <trkpt lat="45.58557" lon="6.88485">
        <ele>1086.3</ele>
        <time>2020-08-08T08:08:51Z</time>
      </trkpt>
      <trkpt lat="45.58552" lon="6.88489">
        <ele>1086.8</ele>
        <time>2020-08-08T08:08:53Z</time>
      </trkpt>
      <trkpt lat="45.58545" lon="6.88495">
        <ele>1088.2</ele>
        <time>2020-08-08T08:08:54Z</time>
      </trkpt>
      <trkpt lat="45.5854" lon="6.88499">
        <ele>1089.3</ele>
        <time>2020-08-08T08:08:56Z</time>
      </trkpt>
      <trkpt lat="45.58536" lon="6.88501">
        <ele>1090</ele>
        <time>2020-08-08T08:08:58Z</time>
      </trkpt>
      <trkpt lat="45.58529" lon="6.88505">
        <ele>1091.3</ele>
        <time>2020-08-08T08:09:00Z</time>
      </trkpt>
      <trkpt lat="45.58522" lon="6.88507">
        <ele>1092.5</ele>
        <time>2020-08-08T08:09:01Z</time>
      </trkpt>
      <trkpt lat="45.58517" lon="6.88508">
        <ele>1093.3</ele>
        <time>2020-08-08T08:09:02Z</time>
      </trkpt>
      <trkpt lat="45.58513" lon="6.88508">
        <ele>1094.1</ele>
        <time>2020-08-08T08:09:04Z</time>
      </trkpt>
      <trkpt lat="45.58507" lon="6.88506">
        <ele>1095.5</ele>
        <time>2020-08-08T08:09:06Z</time>
      </trkpt>
      <trkpt lat="45.58502" lon="6.88504">
        <ele>1095.8</ele>
        <time>2020-08-08T08:09:07Z</time>
      </trkpt>
      <trkpt lat="45.58496" lon="6.88501">
        <ele>1096.4</ele>
        <time>2020-08-08T08:09:10Z</time>
      </trkpt>
      <trkpt lat="45.58493" lon="6.885">
        <ele>1096.6</ele>
        <time>2020-08-08T08:09:11Z</time>
      </trkpt>
      <trkpt lat="45.5849" lon="6.88499">
        <ele>1096.8</ele>
        <time>2020-08-08T08:09:12Z</time>
      </trkpt>
      <trkpt lat="45.58482" lon="6.88496">
        <ele>1097.4</ele>
        <time>2020-08-08T08:09:15Z</time>
      </trkpt>
      <trkpt lat="45.58479" lon="6.88495">
        <ele>1097.7</ele>
        <time>2020-08-08T08:09:17Z</time>
      </trkpt>
      <trkpt lat="45.58475" lon="6.88494">
        <ele>1098</ele>
        <time>2020-08-08T08:09:19Z</time>
      </trkpt>
      <trkpt lat="45.58472" lon="6.88492">
        <ele>1098.2</ele>
        <time>2020-08-08T08:09:20Z</time>
      </trkpt>
      <trkpt lat="45.58467" lon="6.88491">
        <ele>1098.5</ele>
        <time>2020-08-08T08:09:22Z</time>
      </trkpt>
      <trkpt lat="45.58462" lon="6.8849">
        <ele>1098.9</ele>
        <time>2020-08-08T08:09:24Z</time>
      </trkpt>
      <trkpt lat="45.58459" lon="6.88489">
        <ele>1099.1</ele>
        <time>2020-08-08T08:09:25Z</time>
      </trkpt>
      <trkpt lat="45.58454" lon="6.88489">
        <ele>1099.5</ele>
        <time>2020-08-08T08:09:26Z</time>
      </trkpt>
      <trkpt lat="45.58449" lon="6.8849">
        <ele>1099.8</ele>
        <time>2020-08-08T08:09:28Z</time>
      </trkpt>
      <trkpt lat="45.58442" lon="6.8849">
        <ele>1100.3</ele>
        <time>2020-08-08T08:09:30Z</time>
      </trkpt>
      <trkpt lat="45.58434" lon="6.88491">
        <ele>1100.8</ele>
        <time>2020-08-08T08:09:33Z</time>
      </trkpt>
      <trkpt lat="45.58429" lon="6.88491">
        <ele>1101.1</ele>
        <time>2020-08-08T08:09:36Z</time>
      </trkpt>
      <trkpt lat="45.58424" lon="6.88491">
        <ele>1101.4</ele>
        <time>2020-08-08T08:09:38Z</time>
      </trkpt>
      <trkpt lat="45.58421" lon="6.88491">
        <ele>1101.6</ele>
        <time>2020-08-08T08:09:39Z</time>
      </trkpt>
      <trkpt lat="45.58416" lon="6.8849">
        <ele>1101.9</ele>
        <time>2020-08-08T08:09:41Z</time>
      </trkpt>
      <trkpt lat="45.58413" lon="6.8849">
        <ele>1102.1</ele>
        <time>2020-08-08T08:09:42Z</time>
      </trkpt>
      <trkpt lat="45.58408" lon="6.8849">
        <ele>1102.5</ele>
        <time>2020-08-08T08:09:44Z</time>
      </trkpt>
      <trkpt lat="45.58402" lon="6.8849">
        <ele>1102.9</ele>
        <time>2020-08-08T08:09:45Z</time>
      </trkpt>
      <trkpt lat="45.58399" lon="6.8849">
        <ele>1103.1</ele>
        <time>2020-08-08T08:09:47Z</time>
      </trkpt>
      <trkpt lat="45.58396" lon="6.88488">
        <ele>1103.4</ele>
        <time>2020-08-08T08:09:49Z</time>
      </trkpt>
      <trkpt lat="45.58391" lon="6.88486">
        <ele>1103.8</ele>
        <time>2020-08-08T08:09:50Z</time>
      </trkpt>
      <trkpt lat="45.58389" lon="6.88484">
        <ele>1104</ele>
        <time>2020-08-08T08:09:51Z</time>
      </trkpt>
      <trkpt lat="45.58384" lon="6.88482">
        <ele>1104.5</ele>
        <time>2020-08-08T08:09:53Z</time>
      </trkpt>
      <trkpt lat="45.58381" lon="6.8848">
        <ele>1104.7</ele>
        <time>2020-08-08T08:09:54Z</time>
      </trkpt>
      <trkpt lat="45.58379" lon="6.88479">
        <ele>1104.9</ele>
        <time>2020-08-08T08:09:55Z</time>
      </trkpt>
      <trkpt lat="45.58375" lon="6.88478">
        <ele>1105.3</ele>
        <time>2020-08-08T08:09:57Z</time>
      </trkpt>
      <trkpt lat="45.58371" lon="6.88476">
        <ele>1105.6</ele>
        <time>2020-08-08T08:09:59Z</time>
      </trkpt>
      <trkpt lat="45.5837" lon="6.88475">
        <ele>1105.7</ele>
        <time>2020-08-08T08:10:00Z</time>
      </trkpt>
      <trkpt lat="45.58365" lon="6.88474">
        <ele>1106.1</ele>
        <time>2020-08-08T08:10:02Z</time>
      </trkpt>
      <trkpt lat="45.5836" lon="6.88473">
        <ele>1106.5</ele>
        <time>2020-08-08T08:10:03Z</time>
      </trkpt>
      <trkpt lat="45.58358" lon="6.88472">
        <ele>1106.6</ele>
        <time>2020-08-08T08:10:04Z</time>
      </trkpt>
      <trkpt lat="45.58355" lon="6.88471">
        <ele>1106.8</ele>
        <time>2020-08-08T08:10:06Z</time>
      </trkpt>
      <trkpt lat="45.58352" lon="6.8847">
        <ele>1107.1</ele>
        <time>2020-08-08T08:10:07Z</time>
      </trkpt>
      <trkpt lat="45.58346" lon="6.88468">
        <ele>1107.5</ele>
        <time>2020-08-08T08:10:08Z</time>
      </trkpt>
      <trkpt lat="45.58341" lon="6.88465">
        <ele>1107.9</ele>
        <time>2020-08-08T08:10:10Z</time>
      </trkpt>
      <trkpt lat="45.58338" lon="6.88462">
        <ele>1108.2</ele>
        <time>2020-08-08T08:10:12Z</time>
      </trkpt>
      <trkpt lat="45.58334" lon="6.88459">
        <ele>1108.5</ele>
        <time>2020-08-08T08:10:13Z</time>
      </trkpt>
      <trkpt lat="45.58328" lon="6.88454">
        <ele>1109</ele>
        <time>2020-08-08T08:10:16Z</time>
      </trkpt>
      <trkpt lat="45.58322" lon="6.88449">
        <ele>1109.5</ele>
        <time>2020-08-08T08:10:19Z</time>
      </trkpt>
      <trkpt lat="45.5832" lon="6.88447">
        <ele>1109.7</ele>
        <time>2020-08-08T08:10:20Z</time>
      </trkpt>
      <trkpt lat="45.58317" lon="6.88444">
        <ele>1110</ele>
        <time>2020-08-08T08:10:22Z</time>
      </trkpt>
      <trkpt lat="45.58314" lon="6.88441">
        <ele>1110.3</ele>
        <time>2020-08-08T08:10:24Z</time>
      </trkpt>
      <trkpt lat="45.58309" lon="6.88437">
        <ele>1110.7</ele>
        <time>2020-08-08T08:10:25Z</time>
      </trkpt>
      <trkpt lat="45.58305" lon="6.88433">
        <ele>1111.1</ele>
        <time>2020-08-08T08:10:27Z</time>
      </trkpt>
      <trkpt lat="45.58302" lon="6.88431">
        <ele>1111.3</ele>
        <time>2020-08-08T08:10:29Z</time>
      </trkpt>
      <trkpt lat="45.58297" lon="6.88428">
        <ele>1111.7</ele>
        <time>2020-08-08T08:10:31Z</time>
      </trkpt>
      <trkpt lat="45.58292" lon="6.88424">
        <ele>1112.1</ele>
        <time>2020-08-08T08:10:32Z</time>
      </trkpt>
      <trkpt lat="45.58289" lon="6.88422">
        <ele>1112.4</ele>
        <time>2020-08-08T08:10:34Z</time>
      </trkpt>
      <trkpt lat="45.58286" lon="6.88421">
        <ele>1112.6</ele>
        <time>2020-08-08T08:10:36Z</time>
      </trkpt>
      <trkpt lat="45.58278" lon="6.88418">
        <ele>1113.1</ele>
        <time>2020-08-08T08:10:38Z</time>
      </trkpt>
      <trkpt lat="45.58274" lon="6.88417">
        <ele>1113.4</ele>
        <time>2020-08-08T08:10:41Z</time>
      </trkpt>
      <trkpt lat="45.58271" lon="6.88416">
        <ele>1113.6</ele>
        <time>2020-08-08T08:10:42Z</time>
      </trkpt>
      <trkpt lat="45.58267" lon="6.88415">
        <ele>1113.9</ele>
        <time>2020-08-08T08:10:43Z</time>
      </trkpt>
      <trkpt lat="45.58262" lon="6.88414">
        <ele>1114.1</ele>
        <time>2020-08-08T08:10:44Z</time>
      </trkpt>
      <trkpt lat="45.58256" lon="6.88415">
        <ele>1114.5</ele>
        <time>2020-08-08T08:10:47Z</time>
      </trkpt>
      <trkpt lat="45.58253" lon="6.88415">
        <ele>1114.7</ele>
        <time>2020-08-08T08:10:48Z</time>
      </trkpt>
      <trkpt lat="45.58248" lon="6.88416">
        <ele>1115</ele>
        <time>2020-08-08T08:10:50Z</time>
      </trkpt>
      <trkpt lat="45.58242" lon="6.88415">
        <ele>1115.4</ele>
        <time>2020-08-08T08:10:52Z</time>
      </trkpt>
      <trkpt lat="45.58239" lon="6.88416">
        <ele>1115.6</ele>
        <time>2020-08-08T08:10:54Z</time>
      </trkpt>
      <trkpt lat="45.58234" lon="6.88417">
        <ele>1115.8</ele>
        <time>2020-08-08T08:10:55Z</time>
      </trkpt>
      <trkpt lat="45.58232" lon="6.88417">
        <ele>1116</ele>
        <time>2020-08-08T08:10:56Z</time>
      </trkpt>
      <trkpt lat="45.58224" lon="6.88417">
        <ele>1116.4</ele>
        <time>2020-08-08T08:10:59Z</time>
      </trkpt>
      <trkpt lat="45.5822" lon="6.88417">
        <ele>1116.6</ele>
        <time>2020-08-08T08:11:01Z</time>
      </trkpt>
      <trkpt lat="45.58216" lon="6.88417">
        <ele>1116.8</ele>
        <time>2020-08-08T08:11:03Z</time>
      </trkpt>
      <trkpt lat="45.5821" lon="6.88417">
        <ele>1117.1</ele>
        <time>2020-08-08T08:11:05Z</time>
      </trkpt>
      <trkpt lat="45.58206" lon="6.88416">
        <ele>1117.2</ele>
        <time>2020-08-08T08:11:06Z</time>
      </trkpt>
      <trkpt lat="45.58201" lon="6.88415">
        <ele>1117.5</ele>
        <time>2020-08-08T08:11:07Z</time>
      </trkpt>
      <trkpt lat="45.58198" lon="6.88414">
        <ele>1117.7</ele>
        <time>2020-08-08T08:11:09Z</time>
      </trkpt>
      <trkpt lat="45.58195" lon="6.88413">
        <ele>1117.9</ele>
        <time>2020-08-08T08:11:10Z</time>
      </trkpt>
      <trkpt lat="45.58186" lon="6.88409">
        <ele>1118.5</ele>
        <time>2020-08-08T08:11:12Z</time>
      </trkpt>
      <trkpt lat="45.58181" lon="6.88407">
        <ele>1118.8</ele>
        <time>2020-08-08T08:11:15Z</time>
      </trkpt>
      <trkpt lat="45.58178" lon="6.88406">
        <ele>1119</ele>
        <time>2020-08-08T08:11:16Z</time>
      </trkpt>
      <trkpt lat="45.58175" lon="6.88405">
        <ele>1119.1</ele>
        <time>2020-08-08T08:11:17Z</time>
      </trkpt>
      <trkpt lat="45.5817" lon="6.88402">
        <ele>1119.5</ele>
        <time>2020-08-08T08:11:18Z</time>
      </trkpt>
      <trkpt lat="45.58163" lon="6.884">
        <ele>1119.9</ele>
        <time>2020-08-08T08:11:21Z</time>
      </trkpt>
      <trkpt lat="45.58161" lon="6.88399">
        <ele>1120.1</ele>
        <time>2020-08-08T08:11:22Z</time>
      </trkpt>
      <trkpt lat="45.58158" lon="6.88398">
        <ele>1120.3</ele>
        <time>2020-08-08T08:11:23Z</time>
      </trkpt>
      <trkpt lat="45.58152" lon="6.88395">
        <ele>1120.7</ele>
        <time>2020-08-08T08:11:25Z</time>
      </trkpt>
      <trkpt lat="45.58146" lon="6.88393">
        <ele>1121.1</ele>
        <time>2020-08-08T08:11:26Z</time>
      </trkpt>
      <trkpt lat="45.5814" lon="6.8839">
        <ele>1121.6</ele>
        <time>2020-08-08T08:11:29Z</time>
      </trkpt>
      <trkpt lat="45.58137" lon="6.88389">
        <ele>1121.8</ele>
        <time>2020-08-08T08:11:30Z</time>
      </trkpt>
      <trkpt lat="45.58134" lon="6.88388">
        <ele>1122</ele>
        <time>2020-08-08T08:11:31Z</time>
      </trkpt>
      <trkpt lat="45.58129" lon="6.88386">
        <ele>1122.3</ele>
        <time>2020-08-08T08:11:33Z</time>
      </trkpt>
      <trkpt lat="45.58125" lon="6.88385">
        <ele>1122.7</ele>
        <time>2020-08-08T08:11:35Z</time>
      </trkpt>
      <trkpt lat="45.58121" lon="6.88383">
        <ele>1123.1</ele>
        <time>2020-08-08T08:11:36Z</time>
      </trkpt>
      <trkpt lat="45.58113" lon="6.88382">
        <ele>1124.3</ele>
        <time>2020-08-08T08:11:39Z</time>
      </trkpt>
      <trkpt lat="45.5811" lon="6.88382">
        <ele>1124.8</ele>
        <time>2020-08-08T08:11:40Z</time>
      </trkpt>
      <trkpt lat="45.58104" lon="6.88381">
        <ele>1125.7</ele>
        <time>2020-08-08T08:11:42Z</time>
      </trkpt>
      <trkpt lat="45.581" lon="6.88381">
        <ele>1126.2</ele>
        <time>2020-08-08T08:11:44Z</time>
      </trkpt>
      <trkpt lat="45.58096" lon="6.88381">
        <ele>1126.8</ele>
        <time>2020-08-08T08:11:45Z</time>
      </trkpt>
      <trkpt lat="45.58092" lon="6.8838">
        <ele>1127.3</ele>
        <time>2020-08-08T08:11:46Z</time>
      </trkpt>
      <trkpt lat="45.58084" lon="6.8838">
        <ele>1128.3</ele>
        <time>2020-08-08T08:11:49Z</time>
      </trkpt>
      <trkpt lat="45.58081" lon="6.8838">
        <ele>1128.7</ele>
        <time>2020-08-08T08:11:50Z</time>
      </trkpt>
      <trkpt lat="45.58076" lon="6.8838">
        <ele>1129.3</ele>
        <time>2020-08-08T08:11:53Z</time>
      </trkpt>
      <trkpt lat="45.58073" lon="6.8838">
        <ele>1129.6</ele>
        <time>2020-08-08T08:11:54Z</time>
      </trkpt>
      <trkpt lat="45.58065" lon="6.88379">
        <ele>1130.5</ele>
        <time>2020-08-08T08:11:55Z</time>
      </trkpt>
      <trkpt lat="45.58061" lon="6.88379">
        <ele>1131</ele>
        <time>2020-08-08T08:11:58Z</time>
      </trkpt>
      <trkpt lat="45.58058" lon="6.88379">
        <ele>1131.3</ele>
        <time>2020-08-08T08:11:59Z</time>
      </trkpt>
      <trkpt lat="45.58051" lon="6.88378">
        <ele>1132.1</ele>
        <time>2020-08-08T08:12:00Z</time>
      </trkpt>
      <trkpt lat="45.58046" lon="6.88378">
        <ele>1132.7</ele>
        <time>2020-08-08T08:12:02Z</time>
      </trkpt>
      <trkpt lat="45.58044" lon="6.88378">
        <ele>1133</ele>
        <time>2020-08-08T08:12:04Z</time>
      </trkpt>
      <trkpt lat="45.58033" lon="6.88378">
        <ele>1134.3</ele>
        <time>2020-08-08T08:12:06Z</time>
      </trkpt>
      <trkpt lat="45.58026" lon="6.88379">
        <ele>1135.1</ele>
        <time>2020-08-08T08:12:09Z</time>
      </trkpt>
      <trkpt lat="45.58021" lon="6.8838">
        <ele>1135.8</ele>
        <time>2020-08-08T08:12:11Z</time>
      </trkpt>
      <trkpt lat="45.58017" lon="6.88381">
        <ele>1136.2</ele>
        <time>2020-08-08T08:12:12Z</time>
      </trkpt>
      <trkpt lat="45.58009" lon="6.88383">
        <ele>1137.2</ele>
        <time>2020-08-08T08:12:15Z</time>
      </trkpt>
      <trkpt lat="45.58006" lon="6.88385">
        <ele>1137.5</ele>
        <time>2020-08-08T08:12:17Z</time>
      </trkpt>
      <trkpt lat="45.58003" lon="6.88386">
        <ele>1137.9</ele>
        <time>2020-08-08T08:12:18Z</time>
      </trkpt>
      <trkpt lat="45.57999" lon="6.88387">
        <ele>1138.3</ele>
        <time>2020-08-08T08:12:21Z</time>
      </trkpt>
      <trkpt lat="45.57997" lon="6.88387">
        <ele>1138.5</ele>
        <time>2020-08-08T08:12:22Z</time>
      </trkpt>
      <trkpt lat="45.57994" lon="6.88388">
        <ele>1138.8</ele>
        <time>2020-08-08T08:12:24Z</time>
      </trkpt>
      <trkpt lat="45.5799" lon="6.88388">
        <ele>1139.4</ele>
        <time>2020-08-08T08:12:25Z</time>
      </trkpt>
      <trkpt lat="45.57983" lon="6.88387">
        <ele>1140.2</ele>
        <time>2020-08-08T08:12:28Z</time>
      </trkpt>
      <trkpt lat="45.5798" lon="6.88386">
        <ele>1140.5</ele>
        <time>2020-08-08T08:12:30Z</time>
      </trkpt>
      <trkpt lat="45.57973" lon="6.88383">
        <ele>1141.3</ele>
        <time>2020-08-08T08:12:32Z</time>
      </trkpt>
      <trkpt lat="45.57969" lon="6.88381">
        <ele>1141.8</ele>
        <time>2020-08-08T08:12:33Z</time>
      </trkpt>
      <trkpt lat="45.5795" lon="6.88374">
        <ele>1144</ele>
        <time>2020-08-08T08:12:35Z</time>
      </trkpt>
      <trkpt lat="45.57941" lon="6.88367">
        <ele>1145.2</ele>
        <time>2020-08-08T08:12:38Z</time>
      </trkpt>
      <trkpt lat="45.57936" lon="6.88365">
        <ele>1145.8</ele>
        <time>2020-08-08T08:12:39Z</time>
      </trkpt>
      <trkpt lat="45.57929" lon="6.88358">
        <ele>1146.8</ele>
        <time>2020-08-08T08:12:42Z</time>
      </trkpt>
      <trkpt lat="45.57926" lon="6.88354">
        <ele>1147.3</ele>
        <time>2020-08-08T08:12:43Z</time>
      </trkpt>
      <trkpt lat="45.5792" lon="6.88347">
        <ele>1148.2</ele>
        <time>2020-08-08T08:12:46Z</time>
      </trkpt>
      <trkpt lat="45.57918" lon="6.88345">
        <ele>1148.6</ele>
        <time>2020-08-08T08:12:47Z</time>
      </trkpt>
      <trkpt lat="45.57911" lon="6.88336">
        <ele>1149.7</ele>
        <time>2020-08-08T08:12:49Z</time>
      </trkpt>
      <trkpt lat="45.57908" lon="6.88331">
        <ele>1150.3</ele>
        <time>2020-08-08T08:12:52Z</time>
      </trkpt>
      <trkpt lat="45.579" lon="6.8832">
        <ele>1151.5</ele>
        <time>2020-08-08T08:12:54Z</time>
      </trkpt>
      <trkpt lat="45.57897" lon="6.88316">
        <ele>1152.1</ele>
        <time>2020-08-08T08:12:57Z</time>
      </trkpt>
      <trkpt lat="45.57892" lon="6.8831">
        <ele>1152.9</ele>
        <time>2020-08-08T08:12:59Z</time>
      </trkpt>
      <trkpt lat="45.57889" lon="6.88304">
        <ele>1153.5</ele>
        <time>2020-08-08T08:13:00Z</time>
      </trkpt>
      <trkpt lat="45.57886" lon="6.88299">
        <ele>1154.1</ele>
        <time>2020-08-08T08:13:02Z</time>
      </trkpt>
      <trkpt lat="45.57882" lon="6.88292">
        <ele>1154.9</ele>
        <time>2020-08-08T08:13:03Z</time>
      </trkpt>
      <trkpt lat="45.5788" lon="6.88288">
        <ele>1155.4</ele>
        <time>2020-08-08T08:13:05Z</time>
      </trkpt>
      <trkpt lat="45.57877" lon="6.88284">
        <ele>1155.9</ele>
        <time>2020-08-08T08:13:07Z</time>
      </trkpt>
      <trkpt lat="45.57874" lon="6.88277">
        <ele>1156.7</ele>
        <time>2020-08-08T08:13:08Z</time>
      </trkpt>
      <trkpt lat="45.57871" lon="6.88274">
        <ele>1157.1</ele>
        <time>2020-08-08T08:13:09Z</time>
      </trkpt>
      <trkpt lat="45.57869" lon="6.8827">
        <ele>1157.5</ele>
        <time>2020-08-08T08:13:10Z</time>
      </trkpt>
      <trkpt lat="45.57867" lon="6.8826">
        <ele>1158.3</ele>
        <time>2020-08-08T08:13:12Z</time>
      </trkpt>
      <trkpt lat="45.57866" lon="6.88255">
        <ele>1158.8</ele>
        <time>2020-08-08T08:13:14Z</time>
      </trkpt>
      <trkpt lat="45.57866" lon="6.8825">
        <ele>1159.2</ele>
        <time>2020-08-08T08:13:15Z</time>
      </trkpt>
      <trkpt lat="45.57865" lon="6.88245">
        <ele>1159.6</ele>
        <time>2020-08-08T08:13:16Z</time>
      </trkpt>
      <trkpt lat="45.57864" lon="6.88239">
        <ele>1160.1</ele>
        <time>2020-08-08T08:13:18Z</time>
      </trkpt>
      <trkpt lat="45.57862" lon="6.88234">
        <ele>1160.5</ele>
        <time>2020-08-08T08:13:20Z</time>
      </trkpt>
      <trkpt lat="45.5786" lon="6.88229">
        <ele>1160.9</ele>
        <time>2020-08-08T08:13:21Z</time>
      </trkpt>
      <trkpt lat="45.57858" lon="6.88225">
        <ele>1161.3</ele>
        <time>2020-08-08T08:13:22Z</time>
      </trkpt>
      <trkpt lat="45.57849" lon="6.88222">
        <ele>1162.1</ele>
        <time>2020-08-08T08:13:23Z</time>
      </trkpt>
      <trkpt lat="45.57843" lon="6.88223">
        <ele>1162.6</ele>
        <time>2020-08-08T08:13:25Z</time>
      </trkpt>
      <trkpt lat="45.57838" lon="6.88229">
        <ele>1163.4</ele>
        <time>2020-08-08T08:13:27Z</time>
      </trkpt>
      <trkpt lat="45.57835" lon="6.88236">
        <ele>1163.5</ele>
        <time>2020-08-08T08:13:28Z</time>
      </trkpt>
      <trkpt lat="45.57835" lon="6.88249">
        <ele>1163.5</ele>
        <time>2020-08-08T08:13:30Z</time>
      </trkpt>
      <trkpt lat="45.57836" lon="6.88256">
        <ele>1163.5</ele>
        <time>2020-08-08T08:13:31Z</time>
      </trkpt>
      <trkpt lat="45.5784" lon="6.88262">
        <ele>1163.5</ele>
        <time>2020-08-08T08:13:32Z</time>
      </trkpt>
      <trkpt lat="45.57847" lon="6.88273">
        <ele>1163.5</ele>
        <time>2020-08-08T08:13:34Z</time>
      </trkpt>
      <trkpt lat="45.57854" lon="6.88284">
        <ele>1163.5</ele>
        <time>2020-08-08T08:13:36Z</time>
      </trkpt>
      <trkpt lat="45.57861" lon="6.88297">
        <ele>1163.6</ele>
        <time>2020-08-08T08:13:38Z</time>
      </trkpt>
      <trkpt lat="45.57868" lon="6.88309">
        <ele>1163.6</ele>
        <time>2020-08-08T08:13:40Z</time>
      </trkpt>
      <trkpt lat="45.57872" lon="6.88315">
        <ele>1163.7</ele>
        <time>2020-08-08T08:13:41Z</time>
      </trkpt>
      <trkpt lat="45.57879" lon="6.88327">
        <ele>1163.9</ele>
        <time>2020-08-08T08:13:43Z</time>
      </trkpt>
      <trkpt lat="45.57886" lon="6.8834">
        <ele>1164.1</ele>
        <time>2020-08-08T08:13:45Z</time>
      </trkpt>
      <trkpt lat="45.5789" lon="6.88345">
        <ele>1164.2</ele>
        <time>2020-08-08T08:13:46Z</time>
      </trkpt>
      <trkpt lat="45.57896" lon="6.88356">
        <ele>1164.5</ele>
        <time>2020-08-08T08:13:48Z</time>
      </trkpt>
      <trkpt lat="45.57903" lon="6.88367">
        <ele>1164.9</ele>
        <time>2020-08-08T08:13:50Z</time>
      </trkpt>
      <trkpt lat="45.57907" lon="6.88371">
        <ele>1165</ele>
        <time>2020-08-08T08:13:51Z</time>
      </trkpt>
      <trkpt lat="45.57912" lon="6.8838">
        <ele>1165.4</ele>
        <time>2020-08-08T08:13:53Z</time>
      </trkpt>
      <trkpt lat="45.57915" lon="6.88385">
        <ele>1165.6</ele>
        <time>2020-08-08T08:13:54Z</time>
      </trkpt>
      <trkpt lat="45.57917" lon="6.88388">
        <ele>1165.8</ele>
        <time>2020-08-08T08:13:55Z</time>
      </trkpt>
      <trkpt lat="45.5792" lon="6.88393">
        <ele>1166</ele>
        <time>2020-08-08T08:13:56Z</time>
      </trkpt>
      <trkpt lat="45.57927" lon="6.88404">
        <ele>1166.5</ele>
        <time>2020-08-08T08:13:58Z</time>
      </trkpt>
      <trkpt lat="45.57932" lon="6.88412">
        <ele>1166.9</ele>
        <time>2020-08-08T08:14:00Z</time>
      </trkpt>
      <trkpt lat="45.5794" lon="6.88425">
        <ele>1167.6</ele>
        <time>2020-08-08T08:14:01Z</time>
      </trkpt>
      <trkpt lat="45.57945" lon="6.88431">
        <ele>1167.9</ele>
        <time>2020-08-08T08:14:04Z</time>
      </trkpt>
      <trkpt lat="45.57948" lon="6.88435">
        <ele>1168.2</ele>
        <time>2020-08-08T08:14:05Z</time>
      </trkpt>
      <trkpt lat="45.57951" lon="6.88438">
        <ele>1168.4</ele>
        <time>2020-08-08T08:14:06Z</time>
      </trkpt>
      <trkpt lat="45.57961" lon="6.88449">
        <ele>1169.1</ele>
        <time>2020-08-08T08:14:08Z</time>
      </trkpt>
      <trkpt lat="45.5797" lon="6.88455">
        <ele>1169.6</ele>
        <time>2020-08-08T08:14:11Z</time>
      </trkpt>
      <trkpt lat="45.57977" lon="6.88457">
        <ele>1170</ele>
        <time>2020-08-08T08:14:13Z</time>
      </trkpt>
      <trkpt lat="45.57981" lon="6.88459">
        <ele>1170.2</ele>
        <time>2020-08-08T08:14:14Z</time>
      </trkpt>
      <trkpt lat="45.57987" lon="6.8846">
        <ele>1170.5</ele>
        <time>2020-08-08T08:14:16Z</time>
      </trkpt>
      <trkpt lat="45.57992" lon="6.88461">
        <ele>1170.8</ele>
        <time>2020-08-08T08:14:18Z</time>
      </trkpt>
      <trkpt lat="45.57998" lon="6.88466">
        <ele>1171.3</ele>
        <time>2020-08-08T08:14:19Z</time>
      </trkpt>
      <trkpt lat="45.58" lon="6.88474">
        <ele>1171.7</ele>
        <time>2020-08-08T08:14:20Z</time>
      </trkpt>
      <trkpt lat="45.57999" lon="6.8848">
        <ele>1172</ele>
        <time>2020-08-08T08:14:22Z</time>
      </trkpt>
      <trkpt lat="45.57993" lon="6.88485">
        <ele>1172.4</ele>
        <time>2020-08-08T08:14:23Z</time>
      </trkpt>
      <trkpt lat="45.57984" lon="6.88482">
        <ele>1172.8</ele>
        <time>2020-08-08T08:14:26Z</time>
      </trkpt>
      <trkpt lat="45.57981" lon="6.88481">
        <ele>1173</ele>
        <time>2020-08-08T08:14:27Z</time>
      </trkpt>
      <trkpt lat="45.57975" lon="6.88477">
        <ele>1173.4</ele>
        <time>2020-08-08T08:14:28Z</time>
      </trkpt>
      <trkpt lat="45.57966" lon="6.88473">
        <ele>1174.1</ele>
        <time>2020-08-08T08:14:31Z</time>
      </trkpt>
      <trkpt lat="45.57958" lon="6.88466">
        <ele>1174.7</ele>
        <time>2020-08-08T08:14:34Z</time>
      </trkpt>
      <trkpt lat="45.57954" lon="6.88462">
        <ele>1175.1</ele>
        <time>2020-08-08T08:14:37Z</time>
      </trkpt>
      <trkpt lat="45.57951" lon="6.8846">
        <ele>1175.4</ele>
        <time>2020-08-08T08:14:38Z</time>
      </trkpt>
      <trkpt lat="45.57947" lon="6.88456">
        <ele>1175.7</ele>
        <time>2020-08-08T08:14:39Z</time>
      </trkpt>
      <trkpt lat="45.57944" lon="6.88452">
        <ele>1176.1</ele>
        <time>2020-08-08T08:14:40Z</time>
      </trkpt>
      <trkpt lat="45.57941" lon="6.88447">
        <ele>1176.5</ele>
        <time>2020-08-08T08:14:43Z</time>
      </trkpt>
      <trkpt lat="45.57938" lon="6.88442">
        <ele>1176.9</ele>
        <time>2020-08-08T08:14:44Z</time>
      </trkpt>
      <trkpt lat="45.57932" lon="6.88436">
        <ele>1177.5</ele>
        <time>2020-08-08T08:14:46Z</time>
      </trkpt>
      <trkpt lat="45.57927" lon="6.88427">
        <ele>1178.3</ele>
        <time>2020-08-08T08:14:49Z</time>
      </trkpt>
      <trkpt lat="45.57926" lon="6.88425">
        <ele>1178.4</ele>
        <time>2020-08-08T08:14:50Z</time>
      </trkpt>
      <trkpt lat="45.57923" lon="6.88421">
        <ele>1178.8</ele>
        <time>2020-08-08T08:14:52Z</time>
      </trkpt>
      <trkpt lat="45.5792" lon="6.88417">
        <ele>1179.2</ele>
        <time>2020-08-08T08:14:53Z</time>
      </trkpt>
      <trkpt lat="45.57918" lon="6.88413">
        <ele>1179.5</ele>
        <time>2020-08-08T08:14:56Z</time>
      </trkpt>
      <trkpt lat="45.57916" lon="6.88411">
        <ele>1179.7</ele>
        <time>2020-08-08T08:14:57Z</time>
      </trkpt>
      <trkpt lat="45.5791" lon="6.88405">
        <ele>1180.3</ele>
        <time>2020-08-08T08:14:59Z</time>
      </trkpt>
      <trkpt lat="45.57907" lon="6.88402">
        <ele>1180.6</ele>
        <time>2020-08-08T08:15:01Z</time>
      </trkpt>
      <trkpt lat="45.57901" lon="6.88395">
        <ele>1181.2</ele>
        <time>2020-08-08T08:15:03Z</time>
      </trkpt>
      <trkpt lat="45.57896" lon="6.88389">
        <ele>1181.7</ele>
        <time>2020-08-08T08:15:06Z</time>
      </trkpt>
      <trkpt lat="45.57894" lon="6.88387">
        <ele>1181.9</ele>
        <time>2020-08-08T08:15:07Z</time>
      </trkpt>
      <trkpt lat="45.57889" lon="6.88381">
        <ele>1182.5</ele>
        <time>2020-08-08T08:15:09Z</time>
      </trkpt>
      <trkpt lat="45.57885" lon="6.88377">
        <ele>1182.9</ele>
        <time>2020-08-08T08:15:12Z</time>
      </trkpt>
      <trkpt lat="45.57883" lon="6.88375">
        <ele>1183.1</ele>
        <time>2020-08-08T08:15:13Z</time>
      </trkpt>
      <trkpt lat="45.57882" lon="6.88374">
        <ele>1183.2</ele>
        <time>2020-08-08T08:15:14Z</time>
      </trkpt>
      <trkpt lat="45.57878" lon="6.8837">
        <ele>1183.6</ele>
        <time>2020-08-08T08:15:16Z</time>
      </trkpt>
      <trkpt lat="45.57875" lon="6.88365">
        <ele>1184</ele>
        <time>2020-08-08T08:15:18Z</time>
      </trkpt>
      <trkpt lat="45.57872" lon="6.88361">
        <ele>1184.3</ele>
        <time>2020-08-08T08:15:19Z</time>
      </trkpt>
      <trkpt lat="45.57867" lon="6.88354">
        <ele>1184.9</ele>
        <time>2020-08-08T08:15:21Z</time>
      </trkpt>
      <trkpt lat="45.57862" lon="6.88348">
        <ele>1185.4</ele>
        <time>2020-08-08T08:15:24Z</time>
      </trkpt>
      <trkpt lat="45.5786" lon="6.88345">
        <ele>1185.7</ele>
        <time>2020-08-08T08:15:25Z</time>
      </trkpt>
      <trkpt lat="45.57855" lon="6.88339">
        <ele>1186.3</ele>
        <time>2020-08-08T08:15:28Z</time>
      </trkpt>
      <trkpt lat="45.5785" lon="6.88332">
        <ele>1186.9</ele>
        <time>2020-08-08T08:15:31Z</time>
      </trkpt>
      <trkpt lat="45.57849" lon="6.8833">
        <ele>1187.1</ele>
        <time>2020-08-08T08:15:32Z</time>
      </trkpt>
      <trkpt lat="45.57847" lon="6.88328">
        <ele>1187.3</ele>
        <time>2020-08-08T08:15:33Z</time>
      </trkpt>
      <trkpt lat="45.57843" lon="6.88324">
        <ele>1187.7</ele>
        <time>2020-08-08T08:15:35Z</time>
      </trkpt>
      <trkpt lat="45.57838" lon="6.88318">
        <ele>1188.3</ele>
        <time>2020-08-08T08:15:37Z</time>
      </trkpt>
      <trkpt lat="45.57836" lon="6.88316">
        <ele>1188.5</ele>
        <time>2020-08-08T08:15:38Z</time>
      </trkpt>
      <trkpt lat="45.57833" lon="6.88313">
        <ele>1188.8</ele>
        <time>2020-08-08T08:15:41Z</time>
      </trkpt>
      <trkpt lat="45.57829" lon="6.88308">
        <ele>1189.3</ele>
        <time>2020-08-08T08:15:42Z</time>
      </trkpt>
      <trkpt lat="45.57827" lon="6.88306">
        <ele>1189.5</ele>
        <time>2020-08-08T08:15:43Z</time>
      </trkpt>
      <trkpt lat="45.57825" lon="6.88304">
        <ele>1189.8</ele>
        <time>2020-08-08T08:15:46Z</time>
      </trkpt>
      <trkpt lat="45.5782" lon="6.88299">
        <ele>1190.3</ele>
        <time>2020-08-08T08:15:47Z</time>
      </trkpt>
      <trkpt lat="45.57818" lon="6.88298">
        <ele>1190.5</ele>
        <time>2020-08-08T08:15:48Z</time>
      </trkpt>
      <trkpt lat="45.57812" lon="6.88294">
        <ele>1191.1</ele>
        <time>2020-08-08T08:15:51Z</time>
      </trkpt>
      <trkpt lat="45.57808" lon="6.88292">
        <ele>1191.5</ele>
        <time>2020-08-08T08:15:53Z</time>
      </trkpt>
      <trkpt lat="45.57804" lon="6.88292">
        <ele>1191.8</ele>
        <time>2020-08-08T08:15:55Z</time>
      </trkpt>
      <trkpt lat="45.578" lon="6.88291">
        <ele>1192.2</ele>
        <time>2020-08-08T08:15:57Z</time>
      </trkpt>
      <trkpt lat="45.57798" lon="6.88291">
        <ele>1192.4</ele>
        <time>2020-08-08T08:15:58Z</time>
      </trkpt>
      <trkpt lat="45.57794" lon="6.88291">
        <ele>1192.7</ele>
        <time>2020-08-08T08:15:59Z</time>
      </trkpt>
      <trkpt lat="45.57785" lon="6.88291">
        <ele>1193.4</ele>
        <time>2020-08-08T08:16:02Z</time>
      </trkpt>
      <trkpt lat="45.57781" lon="6.88291">
        <ele>1193.7</ele>
        <time>2020-08-08T08:16:04Z</time>
      </trkpt>
      <trkpt lat="45.57778" lon="6.88291">
        <ele>1193.9</ele>
        <time>2020-08-08T08:16:06Z</time>
      </trkpt>
      <trkpt lat="45.57774" lon="6.88291">
        <ele>1194.3</ele>
        <time>2020-08-08T08:16:07Z</time>
      </trkpt>
      <trkpt lat="45.57772" lon="6.88291">
        <ele>1194.5</ele>
        <time>2020-08-08T08:16:08Z</time>
      </trkpt>
      <trkpt lat="45.57768" lon="6.88291">
        <ele>1194.7</ele>
        <time>2020-08-08T08:16:10Z</time>
      </trkpt>
      <trkpt lat="45.57762" lon="6.8829">
        <ele>1195.2</ele>
        <time>2020-08-08T08:16:11Z</time>
      </trkpt>
      <trkpt lat="45.57759" lon="6.88289">
        <ele>1195.5</ele>
        <time>2020-08-08T08:16:12Z</time>
      </trkpt>
      <trkpt lat="45.57756" lon="6.8829">
        <ele>1195.8</ele>
        <time>2020-08-08T08:16:14Z</time>
      </trkpt>
      <trkpt lat="45.57754" lon="6.8829">
        <ele>1195.9</ele>
        <time>2020-08-08T08:16:15Z</time>
      </trkpt>
      <trkpt lat="45.57749" lon="6.88289">
        <ele>1196.3</ele>
        <time>2020-08-08T08:16:18Z</time>
      </trkpt>
      <trkpt lat="45.57745" lon="6.88288">
        <ele>1196.6</ele>
        <time>2020-08-08T08:16:19Z</time>
      </trkpt>
      <trkpt lat="45.57744" lon="6.88287">
        <ele>1196.7</ele>
        <time>2020-08-08T08:16:20Z</time>
      </trkpt>
      <trkpt lat="45.5774" lon="6.88287">
        <ele>1197.1</ele>
        <time>2020-08-08T08:16:22Z</time>
      </trkpt>
      <trkpt lat="45.57735" lon="6.88288">
        <ele>1197.4</ele>
        <time>2020-08-08T08:16:23Z</time>
      </trkpt>
      <trkpt lat="45.57733" lon="6.88289">
        <ele>1197.6</ele>
        <time>2020-08-08T08:16:25Z</time>
      </trkpt>
      <trkpt lat="45.57726" lon="6.88292">
        <ele>1198.3</ele>
        <time>2020-08-08T08:16:27Z</time>
      </trkpt>
      <trkpt lat="45.57722" lon="6.88294">
        <ele>1198.7</ele>
        <time>2020-08-08T08:16:30Z</time>
      </trkpt>
      <trkpt lat="45.57718" lon="6.88296">
        <ele>1199</ele>
        <time>2020-08-08T08:16:31Z</time>
      </trkpt>
      <trkpt lat="45.57715" lon="6.88298">
        <ele>1199.2</ele>
        <time>2020-08-08T08:16:33Z</time>
      </trkpt>
      <trkpt lat="45.57712" lon="6.883">
        <ele>1199.4</ele>
        <time>2020-08-08T08:16:34Z</time>
      </trkpt>
      <trkpt lat="45.57705" lon="6.88304">
        <ele>1199.9</ele>
        <time>2020-08-08T08:16:36Z</time>
      </trkpt>
      <trkpt lat="45.57702" lon="6.88307">
        <ele>1200.2</ele>
        <time>2020-08-08T08:16:37Z</time>
      </trkpt>
      <trkpt lat="45.57699" lon="6.88309">
        <ele>1200.4</ele>
        <time>2020-08-08T08:16:39Z</time>
      </trkpt>
      <trkpt lat="45.57692" lon="6.88314">
        <ele>1200.9</ele>
        <time>2020-08-08T08:16:41Z</time>
      </trkpt>
      <trkpt lat="45.57686" lon="6.88318">
        <ele>1201.3</ele>
        <time>2020-08-08T08:16:44Z</time>
      </trkpt>
      <trkpt lat="45.57684" lon="6.8832">
        <ele>1201.5</ele>
        <time>2020-08-08T08:16:45Z</time>
      </trkpt>
      <trkpt lat="45.5768" lon="6.88323">
        <ele>1201.8</ele>
        <time>2020-08-08T08:16:47Z</time>
      </trkpt>
      <trkpt lat="45.57677" lon="6.88325">
        <ele>1202.1</ele>
        <time>2020-08-08T08:16:49Z</time>
      </trkpt>
      <trkpt lat="45.57671" lon="6.8833">
        <ele>1202.5</ele>
        <time>2020-08-08T08:16:50Z</time>
      </trkpt>
      <trkpt lat="45.57667" lon="6.88333">
        <ele>1202.8</ele>
        <time>2020-08-08T08:16:52Z</time>
      </trkpt>
      <trkpt lat="45.57665" lon="6.88335">
        <ele>1203</ele>
        <time>2020-08-08T08:16:54Z</time>
      </trkpt>
      <trkpt lat="45.5766" lon="6.88338">
        <ele>1203.4</ele>
        <time>2020-08-08T08:16:56Z</time>
      </trkpt>
      <trkpt lat="45.57656" lon="6.88342">
        <ele>1203.8</ele>
        <time>2020-08-08T08:16:57Z</time>
      </trkpt>
      <trkpt lat="45.57651" lon="6.88346">
        <ele>1204.1</ele>
        <time>2020-08-08T08:16:59Z</time>
      </trkpt>
      <trkpt lat="45.57649" lon="6.88349">
        <ele>1204.4</ele>
        <time>2020-08-08T08:17:01Z</time>
      </trkpt>
      <trkpt lat="45.57647" lon="6.88353">
        <ele>1204.6</ele>
        <time>2020-08-08T08:17:02Z</time>
      </trkpt>
      <trkpt lat="45.57643" lon="6.88358">
        <ele>1204.9</ele>
        <time>2020-08-08T08:17:03Z</time>
      </trkpt>
      <trkpt lat="45.57639" lon="6.88367">
        <ele>1205.4</ele>
        <time>2020-08-08T08:17:05Z</time>
      </trkpt>
      <trkpt lat="45.57636" lon="6.88375">
        <ele>1205.8</ele>
        <time>2020-08-08T08:17:08Z</time>
      </trkpt>
      <trkpt lat="45.57634" lon="6.8838">
        <ele>1206.1</ele>
        <time>2020-08-08T08:17:10Z</time>
      </trkpt>
      <trkpt lat="45.5763" lon="6.88389">
        <ele>1206.6</ele>
        <time>2020-08-08T08:17:12Z</time>
      </trkpt>
      <trkpt lat="45.57629" lon="6.88394">
        <ele>1206.8</ele>
        <time>2020-08-08T08:17:13Z</time>
      </trkpt>
      <trkpt lat="45.57625" lon="6.88403">
        <ele>1207.4</ele>
        <time>2020-08-08T08:17:16Z</time>
      </trkpt>
      <trkpt lat="45.57624" lon="6.88404">
        <ele>1207.5</ele>
        <time>2020-08-08T08:17:17Z</time>
      </trkpt>
      <trkpt lat="45.57621" lon="6.88408">
        <ele>1207.7</ele>
        <time>2020-08-08T08:17:19Z</time>
      </trkpt>
      <trkpt lat="45.57619" lon="6.88413">
        <ele>1208.1</ele>
        <time>2020-08-08T08:17:20Z</time>
      </trkpt>
      <trkpt lat="45.57613" lon="6.88419">
        <ele>1208.6</ele>
        <time>2020-08-08T08:17:23Z</time>
      </trkpt>
      <trkpt lat="45.57608" lon="6.88423">
        <ele>1209.2</ele>
        <time>2020-08-08T08:17:26Z</time>
      </trkpt>
      <trkpt lat="45.57602" lon="6.88427">
        <ele>1209.8</ele>
        <time>2020-08-08T08:17:29Z</time>
      </trkpt>
      <trkpt lat="45.57595" lon="6.88428">
        <ele>1210.4</ele>
        <time>2020-08-08T08:17:32Z</time>
      </trkpt>
      <trkpt lat="45.57593" lon="6.88428">
        <ele>1210.7</ele>
        <time>2020-08-08T08:17:33Z</time>
      </trkpt>
      <trkpt lat="45.57589" lon="6.88428">
        <ele>1211.1</ele>
        <time>2020-08-08T08:17:36Z</time>
      </trkpt>
      <trkpt lat="45.57586" lon="6.88428">
        <ele>1211.3</ele>
        <time>2020-08-08T08:17:37Z</time>
      </trkpt>
      <trkpt lat="45.57578" lon="6.8843">
        <ele>1212.1</ele>
        <time>2020-08-08T08:17:39Z</time>
      </trkpt>
      <trkpt lat="45.57574" lon="6.88431">
        <ele>1212.4</ele>
        <time>2020-08-08T08:17:41Z</time>
      </trkpt>
      <trkpt lat="45.5757" lon="6.88433">
        <ele>1212.7</ele>
        <time>2020-08-08T08:17:43Z</time>
      </trkpt>
      <trkpt lat="45.57567" lon="6.88434">
        <ele>1213</ele>
        <time>2020-08-08T08:17:45Z</time>
      </trkpt>
      <trkpt lat="45.57564" lon="6.88435">
        <ele>1213.2</ele>
        <time>2020-08-08T08:17:46Z</time>
      </trkpt>
      <trkpt lat="45.57559" lon="6.88437">
        <ele>1213.6</ele>
        <time>2020-08-08T08:17:48Z</time>
      </trkpt>
      <trkpt lat="45.57555" lon="6.8844">
        <ele>1214</ele>
        <time>2020-08-08T08:17:49Z</time>
      </trkpt>
      <trkpt lat="45.57547" lon="6.88441">
        <ele>1214.5</ele>
        <time>2020-08-08T08:17:51Z</time>
      </trkpt>
      <trkpt lat="45.57546" lon="6.88441">
        <ele>1214.6</ele>
        <time>2020-08-08T08:17:52Z</time>
      </trkpt>
      <trkpt lat="45.57543" lon="6.88441">
        <ele>1214.9</ele>
        <time>2020-08-08T08:17:54Z</time>
      </trkpt>
      <trkpt lat="45.57536" lon="6.8844">
        <ele>1215.4</ele>
        <time>2020-08-08T08:17:56Z</time>
      </trkpt>
      <trkpt lat="45.57531" lon="6.8844">
        <ele>1215.8</ele>
        <time>2020-08-08T08:17:58Z</time>
      </trkpt>
      <trkpt lat="45.57529" lon="6.88439">
        <ele>1216</ele>
        <time>2020-08-08T08:17:59Z</time>
      </trkpt>
      <trkpt lat="45.57528" lon="6.88439">
        <ele>1216.1</ele>
        <time>2020-08-08T08:18:00Z</time>
      </trkpt>
      <trkpt lat="45.57524" lon="6.88438">
        <ele>1216.4</ele>
        <time>2020-08-08T08:18:01Z</time>
      </trkpt>
      <trkpt lat="45.57522" lon="6.88438">
        <ele>1216.6</ele>
        <time>2020-08-08T08:18:02Z</time>
      </trkpt>
      <trkpt lat="45.57519" lon="6.88436">
        <ele>1216.8</ele>
        <time>2020-08-08T08:18:03Z</time>
      </trkpt>
      <trkpt lat="45.57518" lon="6.88436">
        <ele>1216.9</ele>
        <time>2020-08-08T08:18:04Z</time>
      </trkpt>
      <trkpt lat="45.57516" lon="6.88435">
        <ele>1217.1</ele>
        <time>2020-08-08T08:18:05Z</time>
      </trkpt>
      <trkpt lat="45.57515" lon="6.88433">
        <ele>1217.3</ele>
        <time>2020-08-08T08:18:07Z</time>
      </trkpt>
      <trkpt lat="45.57513" lon="6.88432">
        <ele>1217.4</ele>
        <time>2020-08-08T08:18:08Z</time>
      </trkpt>
      <trkpt lat="45.57511" lon="6.88432">
        <ele>1217.6</ele>
        <time>2020-08-08T08:18:09Z</time>
      </trkpt>
      <trkpt lat="45.57507" lon="6.88429">
        <ele>1218</ele>
        <time>2020-08-08T08:18:11Z</time>
      </trkpt>
      <trkpt lat="45.57504" lon="6.88428">
        <ele>1218.3</ele>
        <time>2020-08-08T08:18:12Z</time>
      </trkpt>
      <trkpt lat="45.57496" lon="6.88425">
        <ele>1219</ele>
        <time>2020-08-08T08:18:15Z</time>
      </trkpt>
      <trkpt lat="45.57493" lon="6.88426">
        <ele>1219.2</ele>
        <time>2020-08-08T08:18:16Z</time>
      </trkpt>
      <trkpt lat="45.57491" lon="6.88425">
        <ele>1219.4</ele>
        <time>2020-08-08T08:18:18Z</time>
      </trkpt>
      <trkpt lat="45.57486" lon="6.88424">
        <ele>1219.9</ele>
        <time>2020-08-08T08:18:19Z</time>
      </trkpt>
      <trkpt lat="45.57483" lon="6.88424">
        <ele>1220.1</ele>
        <time>2020-08-08T08:18:20Z</time>
      </trkpt>
      <trkpt lat="45.57476" lon="6.88425">
        <ele>1220.8</ele>
        <time>2020-08-08T08:18:23Z</time>
      </trkpt>
      <trkpt lat="45.57474" lon="6.88425">
        <ele>1221</ele>
        <time>2020-08-08T08:18:24Z</time>
      </trkpt>
      <trkpt lat="45.57471" lon="6.88426">
        <ele>1221.3</ele>
        <time>2020-08-08T08:18:26Z</time>
      </trkpt>
      <trkpt lat="45.57465" lon="6.88428">
        <ele>1221.8</ele>
        <time>2020-08-08T08:18:28Z</time>
      </trkpt>
      <trkpt lat="45.57459" lon="6.88433">
        <ele>1222.4</ele>
        <time>2020-08-08T08:18:31Z</time>
      </trkpt>
      <trkpt lat="45.57456" lon="6.88435">
        <ele>1222.7</ele>
        <time>2020-08-08T08:18:33Z</time>
      </trkpt>
      <trkpt lat="45.57454" lon="6.88437">
        <ele>1222.9</ele>
        <time>2020-08-08T08:18:34Z</time>
      </trkpt>
      <trkpt lat="45.57446" lon="6.88444">
        <ele>1223.5</ele>
        <time>2020-08-08T08:18:37Z</time>
      </trkpt>
      <trkpt lat="45.57443" lon="6.88448">
        <ele>1223.8</ele>
        <time>2020-08-08T08:18:40Z</time>
      </trkpt>
      <trkpt lat="45.57435" lon="6.88454">
        <ele>1224.6</ele>
        <time>2020-08-08T08:18:42Z</time>
      </trkpt>
      <trkpt lat="45.5743" lon="6.8846">
        <ele>1225.2</ele>
        <time>2020-08-08T08:18:45Z</time>
      </trkpt>
      <trkpt lat="45.57427" lon="6.88462">
        <ele>1225.4</ele>
        <time>2020-08-08T08:18:46Z</time>
      </trkpt>
      <trkpt lat="45.57425" lon="6.88464">
        <ele>1225.7</ele>
        <time>2020-08-08T08:18:48Z</time>
      </trkpt>
      <trkpt lat="45.57422" lon="6.88466">
        <ele>1225.9</ele>
        <time>2020-08-08T08:18:49Z</time>
      </trkpt>
      <trkpt lat="45.5742" lon="6.88468">
        <ele>1226.1</ele>
        <time>2020-08-08T08:18:50Z</time>
      </trkpt>
      <trkpt lat="45.57415" lon="6.88473">
        <ele>1226.6</ele>
        <time>2020-08-08T08:18:51Z</time>
      </trkpt>
      <trkpt lat="45.57413" lon="6.88476">
        <ele>1226.8</ele>
        <time>2020-08-08T08:18:53Z</time>
      </trkpt>
      <trkpt lat="45.57411" lon="6.88478">
        <ele>1227</ele>
        <time>2020-08-08T08:18:54Z</time>
      </trkpt>
      <trkpt lat="45.57409" lon="6.8848">
        <ele>1227.2</ele>
        <time>2020-08-08T08:18:55Z</time>
      </trkpt>
      <trkpt lat="45.57405" lon="6.88485">
        <ele>1227.6</ele>
        <time>2020-08-08T08:18:56Z</time>
      </trkpt>
      <trkpt lat="45.57399" lon="6.8849">
        <ele>1228.1</ele>
        <time>2020-08-08T08:18:58Z</time>
      </trkpt>
      <trkpt lat="45.57392" lon="6.88497">
        <ele>1228.7</ele>
        <time>2020-08-08T08:19:01Z</time>
      </trkpt>
      <trkpt lat="45.57389" lon="6.88501">
        <ele>1229</ele>
        <time>2020-08-08T08:19:04Z</time>
      </trkpt>
      <trkpt lat="45.57384" lon="6.88505">
        <ele>1229.5</ele>
        <time>2020-08-08T08:19:05Z</time>
      </trkpt>
      <trkpt lat="45.57381" lon="6.88509">
        <ele>1229.8</ele>
        <time>2020-08-08T08:19:06Z</time>
      </trkpt>
      <trkpt lat="45.57373" lon="6.88516">
        <ele>1230.6</ele>
        <time>2020-08-08T08:19:09Z</time>
      </trkpt>
      <trkpt lat="45.57369" lon="6.88519">
        <ele>1230.9</ele>
        <time>2020-08-08T08:19:12Z</time>
      </trkpt>
      <trkpt lat="45.57361" lon="6.88525">
        <ele>1231.7</ele>
        <time>2020-08-08T08:19:14Z</time>
      </trkpt>
      <trkpt lat="45.57357" lon="6.88527">
        <ele>1232</ele>
        <time>2020-08-08T08:19:16Z</time>
      </trkpt>
      <trkpt lat="45.57351" lon="6.8853">
        <ele>1232.5</ele>
        <time>2020-08-08T08:19:18Z</time>
      </trkpt>
      <trkpt lat="45.57349" lon="6.8853">
        <ele>1232.8</ele>
        <time>2020-08-08T08:19:19Z</time>
      </trkpt>
      <trkpt lat="45.57346" lon="6.88531">
        <ele>1233</ele>
        <time>2020-08-08T08:19:21Z</time>
      </trkpt>
      <trkpt lat="45.57343" lon="6.88533">
        <ele>1233.3</ele>
        <time>2020-08-08T08:19:22Z</time>
      </trkpt>
      <trkpt lat="45.57339" lon="6.88535">
        <ele>1233.7</ele>
        <time>2020-08-08T08:19:23Z</time>
      </trkpt>
      <trkpt lat="45.57335" lon="6.88538">
        <ele>1234.1</ele>
        <time>2020-08-08T08:19:25Z</time>
      </trkpt>
      <trkpt lat="45.57332" lon="6.8854">
        <ele>1234.4</ele>
        <time>2020-08-08T08:19:26Z</time>
      </trkpt>
      <trkpt lat="45.57327" lon="6.88545">
        <ele>1235.3</ele>
        <time>2020-08-08T08:19:28Z</time>
      </trkpt>
      <trkpt lat="45.57325" lon="6.88547">
        <ele>1235.8</ele>
        <time>2020-08-08T08:19:29Z</time>
      </trkpt>
      <trkpt lat="45.57323" lon="6.88552">
        <ele>1236.6</ele>
        <time>2020-08-08T08:19:31Z</time>
      </trkpt>
      <trkpt lat="45.57318" lon="6.88559">
        <ele>1237.8</ele>
        <time>2020-08-08T08:19:33Z</time>
      </trkpt>
      <trkpt lat="45.57315" lon="6.88563">
        <ele>1238.4</ele>
        <time>2020-08-08T08:19:36Z</time>
      </trkpt>
      <trkpt lat="45.57312" lon="6.88568">
        <ele>1239.2</ele>
        <time>2020-08-08T08:19:37Z</time>
      </trkpt>
      <trkpt lat="45.5731" lon="6.88572">
        <ele>1239.8</ele>
        <time>2020-08-08T08:19:38Z</time>
      </trkpt>
      <trkpt lat="45.57308" lon="6.88576">
        <ele>1240.5</ele>
        <time>2020-08-08T08:19:39Z</time>
      </trkpt>
      <trkpt lat="45.57304" lon="6.88584">
        <ele>1241.6</ele>
        <time>2020-08-08T08:19:42Z</time>
      </trkpt>
      <trkpt lat="45.57301" lon="6.88588">
        <ele>1242.4</ele>
        <time>2020-08-08T08:19:44Z</time>
      </trkpt>
      <trkpt lat="45.57298" lon="6.88593">
        <ele>1243.3</ele>
        <time>2020-08-08T08:19:45Z</time>
      </trkpt>
      <trkpt lat="45.57293" lon="6.886">
        <ele>1244.5</ele>
        <time>2020-08-08T08:19:48Z</time>
      </trkpt>
      <trkpt lat="45.57291" lon="6.88603">
        <ele>1244.7</ele>
        <time>2020-08-08T08:19:49Z</time>
      </trkpt>
      <trkpt lat="45.57288" lon="6.88606">
        <ele>1244.8</ele>
        <time>2020-08-08T08:19:52Z</time>
      </trkpt>
      <trkpt lat="45.57285" lon="6.88609">
        <ele>1245.2</ele>
        <time>2020-08-08T08:19:53Z</time>
      </trkpt>
      <trkpt lat="45.57279" lon="6.88613">
        <ele>1246.1</ele>
        <time>2020-08-08T08:19:55Z</time>
      </trkpt>
      <trkpt lat="45.57276" lon="6.88614">
        <ele>1246.5</ele>
        <time>2020-08-08T08:19:56Z</time>
      </trkpt>
      <trkpt lat="45.57271" lon="6.88616">
        <ele>1247.3</ele>
        <time>2020-08-08T08:19:58Z</time>
      </trkpt>
      <trkpt lat="45.57269" lon="6.88617">
        <ele>1247.6</ele>
        <time>2020-08-08T08:20:00Z</time>
      </trkpt>
      <trkpt lat="45.57267" lon="6.88618">
        <ele>1247.9</ele>
        <time>2020-08-08T08:20:01Z</time>
      </trkpt>
      <trkpt lat="45.57263" lon="6.88619">
        <ele>1248.2</ele>
        <time>2020-08-08T08:20:02Z</time>
      </trkpt>
      <trkpt lat="45.57259" lon="6.8862">
        <ele>1248.4</ele>
        <time>2020-08-08T08:20:05Z</time>
      </trkpt>
      <trkpt lat="45.57251" lon="6.88623">
        <ele>1248.8</ele>
        <time>2020-08-08T08:20:07Z</time>
      </trkpt>
      <trkpt lat="45.57247" lon="6.88623">
        <ele>1249</ele>
        <time>2020-08-08T08:20:09Z</time>
      </trkpt>
      <trkpt lat="45.57244" lon="6.88623">
        <ele>1249.1</ele>
        <time>2020-08-08T08:20:11Z</time>
      </trkpt>
      <trkpt lat="45.57239" lon="6.88623">
        <ele>1249.2</ele>
        <time>2020-08-08T08:20:13Z</time>
      </trkpt>
      <trkpt lat="45.57236" lon="6.88624">
        <ele>1249.3</ele>
        <time>2020-08-08T08:20:14Z</time>
      </trkpt>
      <trkpt lat="45.57231" lon="6.88626">
        <ele>1249.4</ele>
        <time>2020-08-08T08:20:15Z</time>
      </trkpt>
      <trkpt lat="45.57228" lon="6.88628">
        <ele>1249.4</ele>
        <time>2020-08-08T08:20:17Z</time>
      </trkpt>
      <trkpt lat="45.57226" lon="6.88629">
        <ele>1249.4</ele>
        <time>2020-08-08T08:20:18Z</time>
      </trkpt>
      <trkpt lat="45.57221" lon="6.88631">
        <ele>1249.4</ele>
        <time>2020-08-08T08:20:19Z</time>
      </trkpt>
      <trkpt lat="45.57216" lon="6.88632">
        <ele>1249.4</ele>
        <time>2020-08-08T08:20:20Z</time>
      </trkpt>
      <trkpt lat="45.57212" lon="6.88633">
        <ele>1249.4</ele>
        <time>2020-08-08T08:20:22Z</time>
      </trkpt>
      <trkpt lat="45.57204" lon="6.88636">
        <ele>1249.3</ele>
        <time>2020-08-08T08:20:24Z</time>
      </trkpt>
      <trkpt lat="45.572" lon="6.88637">
        <ele>1249.2</ele>
        <time>2020-08-08T08:20:25Z</time>
      </trkpt>
      <trkpt lat="45.57196" lon="6.88638">
        <ele>1249.1</ele>
        <time>2020-08-08T08:20:26Z</time>
      </trkpt>
      <trkpt lat="45.57191" lon="6.88641">
        <ele>1248.9</ele>
        <time>2020-08-08T08:20:28Z</time>
      </trkpt>
      <trkpt lat="45.57186" lon="6.88641">
        <ele>1248.8</ele>
        <time>2020-08-08T08:20:30Z</time>
      </trkpt>
      <trkpt lat="45.57176" lon="6.88643">
        <ele>1248.4</ele>
        <time>2020-08-08T08:20:31Z</time>
      </trkpt>
      <trkpt lat="45.57171" lon="6.88644">
        <ele>1248.2</ele>
        <time>2020-08-08T08:20:32Z</time>
      </trkpt>
      <trkpt lat="45.57166" lon="6.88646">
        <ele>1247.9</ele>
        <time>2020-08-08T08:20:34Z</time>
      </trkpt>
      <trkpt lat="45.57159" lon="6.88647">
        <ele>1247.6</ele>
        <time>2020-08-08T08:20:36Z</time>
      </trkpt>
      <trkpt lat="45.57149" lon="6.88651">
        <ele>1247.1</ele>
        <time>2020-08-08T08:20:38Z</time>
      </trkpt>
      <trkpt lat="45.57144" lon="6.88652">
        <ele>1246.8</ele>
        <time>2020-08-08T08:20:39Z</time>
      </trkpt>
      <trkpt lat="45.57135" lon="6.88657">
        <ele>1246.4</ele>
        <time>2020-08-08T08:20:41Z</time>
      </trkpt>
      <trkpt lat="45.57126" lon="6.88662">
        <ele>1245.9</ele>
        <time>2020-08-08T08:20:43Z</time>
      </trkpt>
      <trkpt lat="45.57117" lon="6.88667">
        <ele>1245.4</ele>
        <time>2020-08-08T08:20:45Z</time>
      </trkpt>
      <trkpt lat="45.57108" lon="6.88672">
        <ele>1244.8</ele>
        <time>2020-08-08T08:20:47Z</time>
      </trkpt>
      <trkpt lat="45.571" lon="6.88677">
        <ele>1244</ele>
        <time>2020-08-08T08:20:49Z</time>
      </trkpt>
      <trkpt lat="45.57093" lon="6.88682">
        <ele>1243.6</ele>
        <time>2020-08-08T08:20:51Z</time>
      </trkpt>
      <trkpt lat="45.57085" lon="6.88686">
        <ele>1243.2</ele>
        <time>2020-08-08T08:20:53Z</time>
      </trkpt>
      <trkpt lat="45.57073" lon="6.8869">
        <ele>1243.8</ele>
        <time>2020-08-08T08:20:55Z</time>
      </trkpt>
      <trkpt lat="45.57068" lon="6.88694">
        <ele>1244.3</ele>
        <time>2020-08-08T08:20:58Z</time>
      </trkpt>
      <trkpt lat="45.57062" lon="6.887">
        <ele>1245.1</ele>
        <time>2020-08-08T08:21:00Z</time>
      </trkpt>
      <trkpt lat="45.57056" lon="6.88705">
        <ele>1245.8</ele>
        <time>2020-08-08T08:21:01Z</time>
      </trkpt>
      <trkpt lat="45.57053" lon="6.88707">
        <ele>1246.3</ele>
        <time>2020-08-08T08:21:03Z</time>
      </trkpt>
      <trkpt lat="45.57048" lon="6.88711">
        <ele>1246.9</ele>
        <time>2020-08-08T08:21:04Z</time>
      </trkpt>
      <trkpt lat="45.57041" lon="6.88719">
        <ele>1248</ele>
        <time>2020-08-08T08:21:06Z</time>
      </trkpt>
      <trkpt lat="45.57039" lon="6.88722">
        <ele>1248.3</ele>
        <time>2020-08-08T08:21:08Z</time>
      </trkpt>
      <trkpt lat="45.57036" lon="6.88725">
        <ele>1248.8</ele>
        <time>2020-08-08T08:21:10Z</time>
      </trkpt>
      <trkpt lat="45.5703" lon="6.88733">
        <ele>1249.8</ele>
        <time>2020-08-08T08:21:11Z</time>
      </trkpt>
      <trkpt lat="45.57026" lon="6.88737">
        <ele>1250.4</ele>
        <time>2020-08-08T08:21:13Z</time>
      </trkpt>
      <trkpt lat="45.57022" lon="6.88744">
        <ele>1251.3</ele>
        <time>2020-08-08T08:21:15Z</time>
      </trkpt>
      <trkpt lat="45.57019" lon="6.88747">
        <ele>1251.8</ele>
        <time>2020-08-08T08:21:16Z</time>
      </trkpt>
      <trkpt lat="45.57016" lon="6.88751">
        <ele>1252.3</ele>
        <time>2020-08-08T08:21:18Z</time>
      </trkpt>
      <trkpt lat="45.57014" lon="6.88755">
        <ele>1252.7</ele>
        <time>2020-08-08T08:21:20Z</time>
      </trkpt>
      <trkpt lat="45.57007" lon="6.88765">
        <ele>1253.9</ele>
        <time>2020-08-08T08:21:22Z</time>
      </trkpt>
      <trkpt lat="45.57003" lon="6.8877">
        <ele>1254.5</ele>
        <time>2020-08-08T08:21:25Z</time>
      </trkpt>
      <trkpt lat="45.57" lon="6.88776">
        <ele>1255.1</ele>
        <time>2020-08-08T08:21:26Z</time>
      </trkpt>
      <trkpt lat="45.56998" lon="6.88779">
        <ele>1255.5</ele>
        <time>2020-08-08T08:21:28Z</time>
      </trkpt>
      <trkpt lat="45.56995" lon="6.88783">
        <ele>1255.9</ele>
        <time>2020-08-08T08:21:29Z</time>
      </trkpt>
      <trkpt lat="45.56989" lon="6.88788">
        <ele>1256.8</ele>
        <time>2020-08-08T08:21:30Z</time>
      </trkpt>
      <trkpt lat="45.56987" lon="6.88792">
        <ele>1257.2</ele>
        <time>2020-08-08T08:21:32Z</time>
      </trkpt>
      <trkpt lat="45.56983" lon="6.88796">
        <ele>1257.7</ele>
        <time>2020-08-08T08:21:34Z</time>
      </trkpt>
      <trkpt lat="45.56979" lon="6.88801">
        <ele>1258.4</ele>
        <time>2020-08-08T08:21:35Z</time>
      </trkpt>
      <trkpt lat="45.56976" lon="6.88805">
        <ele>1258.9</ele>
        <time>2020-08-08T08:21:37Z</time>
      </trkpt>
      <trkpt lat="45.56972" lon="6.8881">
        <ele>1259.6</ele>
        <time>2020-08-08T08:21:39Z</time>
      </trkpt>
      <trkpt lat="45.56967" lon="6.88814">
        <ele>1260.2</ele>
        <time>2020-08-08T08:21:41Z</time>
      </trkpt>
      <trkpt lat="45.56964" lon="6.88818">
        <ele>1260.7</ele>
        <time>2020-08-08T08:21:42Z</time>
      </trkpt>
      <trkpt lat="45.56961" lon="6.88822">
        <ele>1261.2</ele>
        <time>2020-08-08T08:21:43Z</time>
      </trkpt>
      <trkpt lat="45.56957" lon="6.88824">
        <ele>1261.6</ele>
        <time>2020-08-08T08:21:45Z</time>
      </trkpt>
      <trkpt lat="45.56951" lon="6.8883">
        <ele>1262.2</ele>
        <time>2020-08-08T08:21:47Z</time>
      </trkpt>
      <trkpt lat="45.56948" lon="6.88832">
        <ele>1262.6</ele>
        <time>2020-08-08T08:21:49Z</time>
      </trkpt>
      <trkpt lat="45.56945" lon="6.88835">
        <ele>1262.9</ele>
        <time>2020-08-08T08:21:50Z</time>
      </trkpt>
      <trkpt lat="45.56942" lon="6.88839">
        <ele>1263.3</ele>
        <time>2020-08-08T08:21:52Z</time>
      </trkpt>
      <trkpt lat="45.56935" lon="6.88845">
        <ele>1264</ele>
        <time>2020-08-08T08:21:54Z</time>
      </trkpt>
      <trkpt lat="45.56931" lon="6.88848">
        <ele>1264.4</ele>
        <time>2020-08-08T08:21:56Z</time>
      </trkpt>
      <trkpt lat="45.56928" lon="6.88851">
        <ele>1264.8</ele>
        <time>2020-08-08T08:21:57Z</time>
      </trkpt>
      <trkpt lat="45.56922" lon="6.88857">
        <ele>1265.5</ele>
        <time>2020-08-08T08:22:00Z</time>
      </trkpt>
      <trkpt lat="45.56919" lon="6.8886">
        <ele>1265.8</ele>
        <time>2020-08-08T08:22:02Z</time>
      </trkpt>
      <trkpt lat="45.56915" lon="6.88863">
        <ele>1266.2</ele>
        <time>2020-08-08T08:22:04Z</time>
      </trkpt>
      <trkpt lat="45.5691" lon="6.88867">
        <ele>1266.7</ele>
        <time>2020-08-08T08:22:06Z</time>
      </trkpt>
      <trkpt lat="45.56906" lon="6.88869">
        <ele>1267.1</ele>
        <time>2020-08-08T08:22:08Z</time>
      </trkpt>
      <trkpt lat="45.56902" lon="6.88871">
        <ele>1267.5</ele>
        <time>2020-08-08T08:22:09Z</time>
      </trkpt>
      <trkpt lat="45.56898" lon="6.88873">
        <ele>1267.9</ele>
        <time>2020-08-08T08:22:10Z</time>
      </trkpt>
      <trkpt lat="45.56895" lon="6.88874">
        <ele>1268.1</ele>
        <time>2020-08-08T08:22:11Z</time>
      </trkpt>
      <trkpt lat="45.56893" lon="6.88875">
        <ele>1268.4</ele>
        <time>2020-08-08T08:22:12Z</time>
      </trkpt>
      <trkpt lat="45.56889" lon="6.88877">
        <ele>1268.7</ele>
        <time>2020-08-08T08:22:14Z</time>
      </trkpt>
      <trkpt lat="45.56884" lon="6.88879">
        <ele>1269.2</ele>
        <time>2020-08-08T08:22:16Z</time>
      </trkpt>
      <trkpt lat="45.56881" lon="6.88881">
        <ele>1269.5</ele>
        <time>2020-08-08T08:22:17Z</time>
      </trkpt>
      <trkpt lat="45.56878" lon="6.88882">
        <ele>1269.7</ele>
        <time>2020-08-08T08:22:18Z</time>
      </trkpt>
      <trkpt lat="45.56875" lon="6.88883">
        <ele>1270.1</ele>
        <time>2020-08-08T08:22:20Z</time>
      </trkpt>
      <trkpt lat="45.56872" lon="6.88884">
        <ele>1270.3</ele>
        <time>2020-08-08T08:22:22Z</time>
      </trkpt>
      <trkpt lat="45.56863" lon="6.88888">
        <ele>1271.2</ele>
        <time>2020-08-08T08:22:24Z</time>
      </trkpt>
      <trkpt lat="45.56859" lon="6.8889">
        <ele>1271.6</ele>
        <time>2020-08-08T08:22:26Z</time>
      </trkpt>
      <trkpt lat="45.56856" lon="6.88891">
        <ele>1271.9</ele>
        <time>2020-08-08T08:22:27Z</time>
      </trkpt>
      <trkpt lat="45.5685" lon="6.88894">
        <ele>1272.5</ele>
        <time>2020-08-08T08:22:29Z</time>
      </trkpt>
      <trkpt lat="45.56848" lon="6.88895">
        <ele>1272.8</ele>
        <time>2020-08-08T08:22:31Z</time>
      </trkpt>
      <trkpt lat="45.56845" lon="6.88897">
        <ele>1273.1</ele>
        <time>2020-08-08T08:22:32Z</time>
      </trkpt>
      <trkpt lat="45.56841" lon="6.88899">
        <ele>1273.5</ele>
        <time>2020-08-08T08:22:35Z</time>
      </trkpt>
      <trkpt lat="45.56839" lon="6.88901">
        <ele>1273.7</ele>
        <time>2020-08-08T08:22:36Z</time>
      </trkpt>
      <trkpt lat="45.56832" lon="6.88906">
        <ele>1274.4</ele>
        <time>2020-08-08T08:22:37Z</time>
      </trkpt>
      <trkpt lat="45.56827" lon="6.88909">
        <ele>1275</ele>
        <time>2020-08-08T08:22:40Z</time>
      </trkpt>
      <trkpt lat="45.56824" lon="6.88911">
        <ele>1275.2</ele>
        <time>2020-08-08T08:22:41Z</time>
      </trkpt>
      <trkpt lat="45.56822" lon="6.88912">
        <ele>1275.4</ele>
        <time>2020-08-08T08:22:42Z</time>
      </trkpt>
      <trkpt lat="45.56818" lon="6.88915">
        <ele>1275.8</ele>
        <time>2020-08-08T08:22:44Z</time>
      </trkpt>
      <trkpt lat="45.56816" lon="6.88916">
        <ele>1275.9</ele>
        <time>2020-08-08T08:22:45Z</time>
      </trkpt>
      <trkpt lat="45.56813" lon="6.88917">
        <ele>1276.3</ele>
        <time>2020-08-08T08:22:47Z</time>
      </trkpt>
      <trkpt lat="45.5681" lon="6.88919">
        <ele>1276.5</ele>
        <time>2020-08-08T08:22:48Z</time>
      </trkpt>
      <trkpt lat="45.56805" lon="6.88921">
        <ele>1276.9</ele>
        <time>2020-08-08T08:22:50Z</time>
      </trkpt>
      <trkpt lat="45.56796" lon="6.88925">
        <ele>1277.8</ele>
        <time>2020-08-08T08:22:52Z</time>
      </trkpt>
      <trkpt lat="45.5679" lon="6.88928">
        <ele>1278.4</ele>
        <time>2020-08-08T08:22:55Z</time>
      </trkpt>
      <trkpt lat="45.56788" lon="6.8893">
        <ele>1278.6</ele>
        <time>2020-08-08T08:22:56Z</time>
      </trkpt>
      <trkpt lat="45.56784" lon="6.88932">
        <ele>1279</ele>
        <time>2020-08-08T08:22:58Z</time>
      </trkpt>
      <trkpt lat="45.56779" lon="6.88933">
        <ele>1279.4</ele>
        <time>2020-08-08T08:23:00Z</time>
      </trkpt>
      <trkpt lat="45.56774" lon="6.88936">
        <ele>1280</ele>
        <time>2020-08-08T08:23:02Z</time>
      </trkpt>
      <trkpt lat="45.5677" lon="6.88938">
        <ele>1280.3</ele>
        <time>2020-08-08T08:23:03Z</time>
      </trkpt>
      <trkpt lat="45.56767" lon="6.88939">
        <ele>1280.6</ele>
        <time>2020-08-08T08:23:05Z</time>
      </trkpt>
      <trkpt lat="45.56764" lon="6.8894">
        <ele>1281</ele>
        <time>2020-08-08T08:23:06Z</time>
      </trkpt>
      <trkpt lat="45.56756" lon="6.8894">
        <ele>1281.8</ele>
        <time>2020-08-08T08:23:09Z</time>
      </trkpt>
      <trkpt lat="45.56752" lon="6.8894">
        <ele>1282.1</ele>
        <time>2020-08-08T08:23:11Z</time>
      </trkpt>
      <trkpt lat="45.56748" lon="6.88939">
        <ele>1282.6</ele>
        <time>2020-08-08T08:23:13Z</time>
      </trkpt>
      <trkpt lat="45.56745" lon="6.88939">
        <ele>1282.8</ele>
        <time>2020-08-08T08:23:15Z</time>
      </trkpt>
      <trkpt lat="45.56741" lon="6.88937">
        <ele>1283.3</ele>
        <time>2020-08-08T08:23:16Z</time>
      </trkpt>
      <trkpt lat="45.56734" lon="6.88934">
        <ele>1284.1</ele>
        <time>2020-08-08T08:23:18Z</time>
      </trkpt>
      <trkpt lat="45.56732" lon="6.88933">
        <ele>1284.3</ele>
        <time>2020-08-08T08:23:19Z</time>
      </trkpt>
      <trkpt lat="45.56729" lon="6.88931">
        <ele>1284.7</ele>
        <time>2020-08-08T08:23:22Z</time>
      </trkpt>
      <trkpt lat="45.56721" lon="6.88927">
        <ele>1285.6</ele>
        <time>2020-08-08T08:23:24Z</time>
      </trkpt>
      <trkpt lat="45.56717" lon="6.88927">
        <ele>1286</ele>
        <time>2020-08-08T08:23:26Z</time>
      </trkpt>
      <trkpt lat="45.56714" lon="6.88927">
        <ele>1286.4</ele>
        <time>2020-08-08T08:23:27Z</time>
      </trkpt>
      <trkpt lat="45.56712" lon="6.88927">
        <ele>1286.7</ele>
        <time>2020-08-08T08:23:29Z</time>
      </trkpt>
      <trkpt lat="45.56704" lon="6.88928">
        <ele>1287.6</ele>
        <time>2020-08-08T08:23:31Z</time>
      </trkpt>
      <trkpt lat="45.56698" lon="6.88932">
        <ele>1288.2</ele>
        <time>2020-08-08T08:23:33Z</time>
      </trkpt>
      <trkpt lat="45.56695" lon="6.88933">
        <ele>1288.5</ele>
        <time>2020-08-08T08:23:35Z</time>
      </trkpt>
      <trkpt lat="45.56693" lon="6.88935">
        <ele>1288.8</ele>
        <time>2020-08-08T08:23:36Z</time>
      </trkpt>
      <trkpt lat="45.5669" lon="6.88937">
        <ele>1289.1</ele>
        <time>2020-08-08T08:23:37Z</time>
      </trkpt>
      <trkpt lat="45.56688" lon="6.88939">
        <ele>1289.4</ele>
        <time>2020-08-08T08:23:38Z</time>
      </trkpt>
      <trkpt lat="45.56686" lon="6.88942">
        <ele>1289.7</ele>
        <time>2020-08-08T08:23:41Z</time>
      </trkpt>
      <trkpt lat="45.5668" lon="6.88951">
        <ele>1290.6</ele>
        <time>2020-08-08T08:23:43Z</time>
      </trkpt>
      <trkpt lat="45.56677" lon="6.88955">
        <ele>1291</ele>
        <time>2020-08-08T08:23:45Z</time>
      </trkpt>
      <trkpt lat="45.56675" lon="6.88961">
        <ele>1291.5</ele>
        <time>2020-08-08T08:23:47Z</time>
      </trkpt>
      <trkpt lat="45.56671" lon="6.88968">
        <ele>1292.2</ele>
        <time>2020-08-08T08:23:49Z</time>
      </trkpt>
      <trkpt lat="45.56669" lon="6.88971">
        <ele>1292.5</ele>
        <time>2020-08-08T08:23:50Z</time>
      </trkpt>
      <trkpt lat="45.56665" lon="6.8898">
        <ele>1293.2</ele>
        <time>2020-08-08T08:23:53Z</time>
      </trkpt>
      <trkpt lat="45.56663" lon="6.88983">
        <ele>1293.5</ele>
        <time>2020-08-08T08:23:54Z</time>
      </trkpt>
      <trkpt lat="45.56661" lon="6.88986">
        <ele>1293.8</ele>
        <time>2020-08-08T08:23:55Z</time>
      </trkpt>
      <trkpt lat="45.56659" lon="6.8899">
        <ele>1294.2</ele>
        <time>2020-08-08T08:23:57Z</time>
      </trkpt>
      <trkpt lat="45.56657" lon="6.88993">
        <ele>1294.4</ele>
        <time>2020-08-08T08:23:58Z</time>
      </trkpt>
      <trkpt lat="45.56653" lon="6.88999">
        <ele>1295</ele>
        <time>2020-08-08T08:24:00Z</time>
      </trkpt>
      <trkpt lat="45.56651" lon="6.89003">
        <ele>1295.4</ele>
        <time>2020-08-08T08:24:01Z</time>
      </trkpt>
      <trkpt lat="45.56648" lon="6.89007">
        <ele>1295.8</ele>
        <time>2020-08-08T08:24:03Z</time>
      </trkpt>
      <trkpt lat="45.56646" lon="6.89011">
        <ele>1296.2</ele>
        <time>2020-08-08T08:24:04Z</time>
      </trkpt>
      <trkpt lat="45.56643" lon="6.89014">
        <ele>1296.5</ele>
        <time>2020-08-08T08:24:05Z</time>
      </trkpt>
      <trkpt lat="45.56641" lon="6.89017">
        <ele>1296.8</ele>
        <time>2020-08-08T08:24:06Z</time>
      </trkpt>
      <trkpt lat="45.56634" lon="6.89025">
        <ele>1297.7</ele>
        <time>2020-08-08T08:24:09Z</time>
      </trkpt>
      <trkpt lat="45.56628" lon="6.89032">
        <ele>1298.4</ele>
        <time>2020-08-08T08:24:12Z</time>
      </trkpt>
      <trkpt lat="45.56624" lon="6.89037">
        <ele>1298.8</ele>
        <time>2020-08-08T08:24:14Z</time>
      </trkpt>
      <trkpt lat="45.56621" lon="6.89042">
        <ele>1299.2</ele>
        <time>2020-08-08T08:24:16Z</time>
      </trkpt>
      <trkpt lat="45.56617" lon="6.89046">
        <ele>1299.7</ele>
        <time>2020-08-08T08:24:18Z</time>
      </trkpt>
      <trkpt lat="45.56614" lon="6.8905">
        <ele>1300</ele>
        <time>2020-08-08T08:24:19Z</time>
      </trkpt>
      <trkpt lat="45.56612" lon="6.89054">
        <ele>1300.4</ele>
        <time>2020-08-08T08:24:21Z</time>
      </trkpt>
      <trkpt lat="45.56609" lon="6.89058">
        <ele>1300.7</ele>
        <time>2020-08-08T08:24:23Z</time>
      </trkpt>
      <trkpt lat="45.56605" lon="6.89063">
        <ele>1301.1</ele>
        <time>2020-08-08T08:24:24Z</time>
      </trkpt>
      <trkpt lat="45.56602" lon="6.89067">
        <ele>1301.4</ele>
        <time>2020-08-08T08:24:25Z</time>
      </trkpt>
      <trkpt lat="45.56598" lon="6.89072">
        <ele>1301.8</ele>
        <time>2020-08-08T08:24:28Z</time>
      </trkpt>
      <trkpt lat="45.56594" lon="6.89077">
        <ele>1302.2</ele>
        <time>2020-08-08T08:24:29Z</time>
      </trkpt>
      <trkpt lat="45.5659" lon="6.89082">
        <ele>1302.6</ele>
        <time>2020-08-08T08:24:30Z</time>
      </trkpt>
      <trkpt lat="45.56582" lon="6.89089">
        <ele>1303.3</ele>
        <time>2020-08-08T08:24:33Z</time>
      </trkpt>
      <trkpt lat="45.56579" lon="6.89093">
        <ele>1303.6</ele>
        <time>2020-08-08T08:24:35Z</time>
      </trkpt>
      <trkpt lat="45.56574" lon="6.89095">
        <ele>1304.1</ele>
        <time>2020-08-08T08:24:37Z</time>
      </trkpt>
      <trkpt lat="45.56571" lon="6.89098">
        <ele>1304.4</ele>
        <time>2020-08-08T08:24:38Z</time>
      </trkpt>
      <trkpt lat="45.56565" lon="6.89101">
        <ele>1304.9</ele>
        <time>2020-08-08T08:24:40Z</time>
      </trkpt>
      <trkpt lat="45.56562" lon="6.89103">
        <ele>1305.1</ele>
        <time>2020-08-08T08:24:41Z</time>
      </trkpt>
      <trkpt lat="45.56558" lon="6.89105">
        <ele>1305.5</ele>
        <time>2020-08-08T08:24:42Z</time>
      </trkpt>
      <trkpt lat="45.56555" lon="6.89107">
        <ele>1305.7</ele>
        <time>2020-08-08T08:24:43Z</time>
      </trkpt>
      <trkpt lat="45.56551" lon="6.89109">
        <ele>1306.1</ele>
        <time>2020-08-08T08:24:46Z</time>
      </trkpt>
      <trkpt lat="45.56548" lon="6.89111">
        <ele>1306.4</ele>
        <time>2020-08-08T08:24:47Z</time>
      </trkpt>
      <trkpt lat="45.56544" lon="6.89113">
        <ele>1306.8</ele>
        <time>2020-08-08T08:24:48Z</time>
      </trkpt>
      <trkpt lat="45.56538" lon="6.89117">
        <ele>1307.4</ele>
        <time>2020-08-08T08:24:50Z</time>
      </trkpt>
      <trkpt lat="45.56534" lon="6.89119">
        <ele>1307.7</ele>
        <time>2020-08-08T08:24:51Z</time>
      </trkpt>
      <trkpt lat="45.5653" lon="6.89121">
        <ele>1308.1</ele>
        <time>2020-08-08T08:24:53Z</time>
      </trkpt>
      <trkpt lat="45.56527" lon="6.89123">
        <ele>1308.4</ele>
        <time>2020-08-08T08:24:55Z</time>
      </trkpt>
      <trkpt lat="45.5652" lon="6.89126">
        <ele>1309</ele>
        <time>2020-08-08T08:24:56Z</time>
      </trkpt>
      <trkpt lat="45.56515" lon="6.89129">
        <ele>1309.4</ele>
        <time>2020-08-08T08:24:59Z</time>
      </trkpt>
      <trkpt lat="45.56513" lon="6.89131">
        <ele>1309.7</ele>
        <time>2020-08-08T08:25:00Z</time>
      </trkpt>
      <trkpt lat="45.5651" lon="6.89132">
        <ele>1309.9</ele>
        <time>2020-08-08T08:25:01Z</time>
      </trkpt>
      <trkpt lat="45.56501" lon="6.89139">
        <ele>1310.7</ele>
        <time>2020-08-08T08:25:03Z</time>
      </trkpt>
      <trkpt lat="45.56497" lon="6.89142">
        <ele>1311.1</ele>
        <time>2020-08-08T08:25:06Z</time>
      </trkpt>
      <trkpt lat="45.56494" lon="6.89145">
        <ele>1311.3</ele>
        <time>2020-08-08T08:25:07Z</time>
      </trkpt>
      <trkpt lat="45.56489" lon="6.89149">
        <ele>1311.8</ele>
        <time>2020-08-08T08:25:08Z</time>
      </trkpt>
      <trkpt lat="45.56485" lon="6.89153">
        <ele>1312.2</ele>
        <time>2020-08-08T08:25:09Z</time>
      </trkpt>
      <trkpt lat="45.56481" lon="6.89157">
        <ele>1312.6</ele>
        <time>2020-08-08T08:25:12Z</time>
      </trkpt>
      <trkpt lat="45.56478" lon="6.89159">
        <ele>1312.8</ele>
        <time>2020-08-08T08:25:13Z</time>
      </trkpt>
      <trkpt lat="45.56473" lon="6.89164">
        <ele>1313.2</ele>
        <time>2020-08-08T08:25:14Z</time>
      </trkpt>
      <trkpt lat="45.56471" lon="6.89166">
        <ele>1313.5</ele>
        <time>2020-08-08T08:25:15Z</time>
      </trkpt>
      <trkpt lat="45.56468" lon="6.89169">
        <ele>1313.8</ele>
        <time>2020-08-08T08:25:17Z</time>
      </trkpt>
      <trkpt lat="45.56463" lon="6.89174">
        <ele>1314.2</ele>
        <time>2020-08-08T08:25:18Z</time>
      </trkpt>
      <trkpt lat="45.56461" lon="6.89178">
        <ele>1314.5</ele>
        <time>2020-08-08T08:25:20Z</time>
      </trkpt>
      <trkpt lat="45.56457" lon="6.89183">
        <ele>1314.9</ele>
        <time>2020-08-08T08:25:21Z</time>
      </trkpt>
      <trkpt lat="45.56454" lon="6.89189">
        <ele>1315.3</ele>
        <time>2020-08-08T08:25:22Z</time>
      </trkpt>
      <trkpt lat="45.56448" lon="6.89196">
        <ele>1315.9</ele>
        <time>2020-08-08T08:25:25Z</time>
      </trkpt>
      <trkpt lat="45.56446" lon="6.89199">
        <ele>1316.2</ele>
        <time>2020-08-08T08:25:26Z</time>
      </trkpt>
      <trkpt lat="45.5644" lon="6.89203">
        <ele>1316.7</ele>
        <time>2020-08-08T08:25:28Z</time>
      </trkpt>
      <trkpt lat="45.56437" lon="6.89205">
        <ele>1316.9</ele>
        <time>2020-08-08T08:25:29Z</time>
      </trkpt>
      <trkpt lat="45.56431" lon="6.89209">
        <ele>1317.5</ele>
        <time>2020-08-08T08:25:31Z</time>
      </trkpt>
      <trkpt lat="45.56428" lon="6.89212">
        <ele>1317.8</ele>
        <time>2020-08-08T08:25:32Z</time>
      </trkpt>
      <trkpt lat="45.56425" lon="6.89216">
        <ele>1318.1</ele>
        <time>2020-08-08T08:25:34Z</time>
      </trkpt>
      <trkpt lat="45.56422" lon="6.89221">
        <ele>1318.5</ele>
        <time>2020-08-08T08:25:36Z</time>
      </trkpt>
      <trkpt lat="45.56415" lon="6.8923">
        <ele>1319.2</ele>
        <time>2020-08-08T08:25:38Z</time>
      </trkpt>
      <trkpt lat="45.5641" lon="6.89237">
        <ele>1319.8</ele>
        <time>2020-08-08T08:25:40Z</time>
      </trkpt>
      <trkpt lat="45.56408" lon="6.8924">
        <ele>1320.1</ele>
        <time>2020-08-08T08:25:42Z</time>
      </trkpt>
      <trkpt lat="45.56406" lon="6.89243">
        <ele>1320.3</ele>
        <time>2020-08-08T08:25:43Z</time>
      </trkpt>
      <trkpt lat="45.56403" lon="6.89246">
        <ele>1320.7</ele>
        <time>2020-08-08T08:25:44Z</time>
      </trkpt>
      <trkpt lat="45.56397" lon="6.89252">
        <ele>1321.3</ele>
        <time>2020-08-08T08:25:47Z</time>
      </trkpt>
      <trkpt lat="45.56395" lon="6.89254">
        <ele>1321.5</ele>
        <time>2020-08-08T08:25:48Z</time>
      </trkpt>
      <trkpt lat="45.5639" lon="6.89258">
        <ele>1321.9</ele>
        <time>2020-08-08T08:25:49Z</time>
      </trkpt>
      <trkpt lat="45.56386" lon="6.89262">
        <ele>1322.3</ele>
        <time>2020-08-08T08:25:52Z</time>
      </trkpt>
      <trkpt lat="45.56377" lon="6.89266">
        <ele>1323</ele>
        <time>2020-08-08T08:25:54Z</time>
      </trkpt>
      <trkpt lat="45.56373" lon="6.89268">
        <ele>1323.4</ele>
        <time>2020-08-08T08:25:56Z</time>
      </trkpt>
      <trkpt lat="45.56369" lon="6.8927">
        <ele>1323.7</ele>
        <time>2020-08-08T08:25:58Z</time>
      </trkpt>
      <trkpt lat="45.56362" lon="6.89271">
        <ele>1324.3</ele>
        <time>2020-08-08T08:25:59Z</time>
      </trkpt>
      <trkpt lat="45.56354" lon="6.89271">
        <ele>1324.9</ele>
        <time>2020-08-08T08:26:02Z</time>
      </trkpt>
      <trkpt lat="45.56351" lon="6.89271">
        <ele>1325.2</ele>
        <time>2020-08-08T08:26:03Z</time>
      </trkpt>
      <trkpt lat="45.56343" lon="6.89271">
        <ele>1325.8</ele>
        <time>2020-08-08T08:26:05Z</time>
      </trkpt>
      <trkpt lat="45.56338" lon="6.89272">
        <ele>1326.2</ele>
        <time>2020-08-08T08:26:07Z</time>
      </trkpt>
      <trkpt lat="45.56335" lon="6.89272">
        <ele>1326.5</ele>
        <time>2020-08-08T08:26:09Z</time>
      </trkpt>
      <trkpt lat="45.56324" lon="6.89273">
        <ele>1327.3</ele>
        <time>2020-08-08T08:26:11Z</time>
      </trkpt>
      <trkpt lat="45.5632" lon="6.89273">
        <ele>1327.6</ele>
        <time>2020-08-08T08:26:13Z</time>
      </trkpt>
      <trkpt lat="45.56316" lon="6.89274">
        <ele>1327.9</ele>
        <time>2020-08-08T08:26:15Z</time>
      </trkpt>
      <trkpt lat="45.56313" lon="6.89275">
        <ele>1328.2</ele>
        <time>2020-08-08T08:26:16Z</time>
      </trkpt>
      <trkpt lat="45.56307" lon="6.89277">
        <ele>1328.7</ele>
        <time>2020-08-08T08:26:17Z</time>
      </trkpt>
      <trkpt lat="45.56303" lon="6.89278">
        <ele>1329</ele>
        <time>2020-08-08T08:26:18Z</time>
      </trkpt>
      <trkpt lat="45.56299" lon="6.8928">
        <ele>1329.2</ele>
        <time>2020-08-08T08:26:19Z</time>
      </trkpt>
      <trkpt lat="45.56295" lon="6.89282">
        <ele>1329.5</ele>
        <time>2020-08-08T08:26:21Z</time>
      </trkpt>
      <trkpt lat="45.56291" lon="6.89285">
        <ele>1329.7</ele>
        <time>2020-08-08T08:26:23Z</time>
      </trkpt>
      <trkpt lat="45.56281" lon="6.89293">
        <ele>1330.3</ele>
        <time>2020-08-08T08:26:25Z</time>
      </trkpt>
      <trkpt lat="45.56277" lon="6.89297">
        <ele>1330.4</ele>
        <time>2020-08-08T08:26:26Z</time>
      </trkpt>
      <trkpt lat="45.56272" lon="6.89301">
        <ele>1330.6</ele>
        <time>2020-08-08T08:26:28Z</time>
      </trkpt>
      <trkpt lat="45.56268" lon="6.89305">
        <ele>1330.8</ele>
        <time>2020-08-08T08:26:30Z</time>
      </trkpt>
      <trkpt lat="45.56261" lon="6.89311">
        <ele>1331</ele>
        <time>2020-08-08T08:26:32Z</time>
      </trkpt>
      <trkpt lat="45.56257" lon="6.89315">
        <ele>1331.1</ele>
        <time>2020-08-08T08:26:33Z</time>
      </trkpt>
      <trkpt lat="45.56252" lon="6.89319">
        <ele>1331.2</ele>
        <time>2020-08-08T08:26:34Z</time>
      </trkpt>
      <trkpt lat="45.56244" lon="6.89327">
        <ele>1331.4</ele>
        <time>2020-08-08T08:26:36Z</time>
      </trkpt>
      <trkpt lat="45.56237" lon="6.89332">
        <ele>1331.6</ele>
        <time>2020-08-08T08:26:38Z</time>
      </trkpt>
      <trkpt lat="45.56228" lon="6.89341">
        <ele>1331.8</ele>
        <time>2020-08-08T08:26:40Z</time>
      </trkpt>
      <trkpt lat="45.5622" lon="6.89349">
        <ele>1331.9</ele>
        <time>2020-08-08T08:26:42Z</time>
      </trkpt>
      <trkpt lat="45.56215" lon="6.89353">
        <ele>1332</ele>
        <time>2020-08-08T08:26:43Z</time>
      </trkpt>
      <trkpt lat="45.56206" lon="6.89361">
        <ele>1332.1</ele>
        <time>2020-08-08T08:26:45Z</time>
      </trkpt>
      <trkpt lat="45.56201" lon="6.89366">
        <ele>1332.2</ele>
        <time>2020-08-08T08:26:46Z</time>
      </trkpt>
      <trkpt lat="45.56191" lon="6.89375">
        <ele>1332.5</ele>
        <time>2020-08-08T08:26:48Z</time>
      </trkpt>
      <trkpt lat="45.56182" lon="6.89383">
        <ele>1332.7</ele>
        <time>2020-08-08T08:26:50Z</time>
      </trkpt>
      <trkpt lat="45.56177" lon="6.89387">
        <ele>1332.8</ele>
        <time>2020-08-08T08:26:51Z</time>
      </trkpt>
      <trkpt lat="45.56173" lon="6.89392">
        <ele>1333</ele>
        <time>2020-08-08T08:26:52Z</time>
      </trkpt>
      <trkpt lat="45.56168" lon="6.89396">
        <ele>1333.1</ele>
        <time>2020-08-08T08:26:53Z</time>
      </trkpt>
      <trkpt lat="45.56159" lon="6.89405">
        <ele>1333.5</ele>
        <time>2020-08-08T08:26:55Z</time>
      </trkpt>
      <trkpt lat="45.56154" lon="6.89409">
        <ele>1333.7</ele>
        <time>2020-08-08T08:26:56Z</time>
      </trkpt>
      <trkpt lat="45.56144" lon="6.89418">
        <ele>1334</ele>
        <time>2020-08-08T08:26:58Z</time>
      </trkpt>
      <trkpt lat="45.56134" lon="6.89427">
        <ele>1334.5</ele>
        <time>2020-08-08T08:27:00Z</time>
      </trkpt>
      <trkpt lat="45.56123" lon="6.89435">
        <ele>1335.1</ele>
        <time>2020-08-08T08:27:02Z</time>
      </trkpt>
      <trkpt lat="45.56113" lon="6.89442">
        <ele>1335.8</ele>
        <time>2020-08-08T08:27:04Z</time>
      </trkpt>
      <trkpt lat="45.56107" lon="6.89445">
        <ele>1336.2</ele>
        <time>2020-08-08T08:27:05Z</time>
      </trkpt>
      <trkpt lat="45.56096" lon="6.8945">
        <ele>1336.9</ele>
        <time>2020-08-08T08:27:07Z</time>
      </trkpt>
      <trkpt lat="45.56086" lon="6.89454">
        <ele>1337.6</ele>
        <time>2020-08-08T08:27:09Z</time>
      </trkpt>
      <trkpt lat="45.56076" lon="6.89458">
        <ele>1338.2</ele>
        <time>2020-08-08T08:27:11Z</time>
      </trkpt>
      <trkpt lat="45.56067" lon="6.89459">
        <ele>1338.9</ele>
        <time>2020-08-08T08:27:13Z</time>
      </trkpt>
      <trkpt lat="45.56062" lon="6.89458">
        <ele>1339.2</ele>
        <time>2020-08-08T08:27:14Z</time>
      </trkpt>
      <trkpt lat="45.56057" lon="6.89458">
        <ele>1339.6</ele>
        <time>2020-08-08T08:27:15Z</time>
      </trkpt>
      <trkpt lat="45.56053" lon="6.89457">
        <ele>1339.9</ele>
        <time>2020-08-08T08:27:16Z</time>
      </trkpt>
      <trkpt lat="45.56046" lon="6.89457">
        <ele>1340.4</ele>
        <time>2020-08-08T08:27:18Z</time>
      </trkpt>
      <trkpt lat="45.56042" lon="6.89457">
        <ele>1340.7</ele>
        <time>2020-08-08T08:27:19Z</time>
      </trkpt>
      <trkpt lat="45.56039" lon="6.89457">
        <ele>1340.9</ele>
        <time>2020-08-08T08:27:20Z</time>
      </trkpt>
      <trkpt lat="45.56026" lon="6.89459">
        <ele>1341.8</ele>
        <time>2020-08-08T08:27:22Z</time>
      </trkpt>
      <trkpt lat="45.5602" lon="6.89461">
        <ele>1342.2</ele>
        <time>2020-08-08T08:27:25Z</time>
      </trkpt>
      <trkpt lat="45.56016" lon="6.89463">
        <ele>1342.4</ele>
        <time>2020-08-08T08:27:26Z</time>
      </trkpt>
      <trkpt lat="45.56012" lon="6.89464">
        <ele>1342.6</ele>
        <time>2020-08-08T08:27:27Z</time>
      </trkpt>
      <trkpt lat="45.56" lon="6.89468">
        <ele>1343.2</ele>
        <time>2020-08-08T08:27:29Z</time>
      </trkpt>
      <trkpt lat="45.55994" lon="6.89471">
        <ele>1343.5</ele>
        <time>2020-08-08T08:27:31Z</time>
      </trkpt>
      <trkpt lat="45.55989" lon="6.89473">
        <ele>1343.7</ele>
        <time>2020-08-08T08:27:33Z</time>
      </trkpt>
      <trkpt lat="45.55979" lon="6.89479">
        <ele>1344.1</ele>
        <time>2020-08-08T08:27:34Z</time>
      </trkpt>
      <trkpt lat="45.55974" lon="6.89487">
        <ele>1344.3</ele>
        <time>2020-08-08T08:27:37Z</time>
      </trkpt>
      <trkpt lat="45.55971" lon="6.89493">
        <ele>1344.5</ele>
        <time>2020-08-08T08:27:38Z</time>
      </trkpt>
      <trkpt lat="45.55966" lon="6.89504">
        <ele>1344.8</ele>
        <time>2020-08-08T08:27:40Z</time>
      </trkpt>
      <trkpt lat="45.55964" lon="6.89511">
        <ele>1345</ele>
        <time>2020-08-08T08:27:41Z</time>
      </trkpt>
      <trkpt lat="45.5596" lon="6.89524">
        <ele>1345.3</ele>
        <time>2020-08-08T08:27:43Z</time>
      </trkpt>
      <trkpt lat="45.55958" lon="6.8953">
        <ele>1345.5</ele>
        <time>2020-08-08T08:27:44Z</time>
      </trkpt>
      <trkpt lat="45.55956" lon="6.89536">
        <ele>1345.6</ele>
        <time>2020-08-08T08:27:45Z</time>
      </trkpt>
      <trkpt lat="45.55954" lon="6.89543">
        <ele>1345.8</ele>
        <time>2020-08-08T08:27:46Z</time>
      </trkpt>
      <trkpt lat="45.5595" lon="6.89556">
        <ele>1346.1</ele>
        <time>2020-08-08T08:27:48Z</time>
      </trkpt>
      <trkpt lat="45.55945" lon="6.89568">
        <ele>1346.5</ele>
        <time>2020-08-08T08:27:50Z</time>
      </trkpt>
      <trkpt lat="45.55942" lon="6.89575">
        <ele>1346.7</ele>
        <time>2020-08-08T08:27:51Z</time>
      </trkpt>
      <trkpt lat="45.55937" lon="6.89589">
        <ele>1347.1</ele>
        <time>2020-08-08T08:27:53Z</time>
      </trkpt>
      <trkpt lat="45.55932" lon="6.89603">
        <ele>1347.4</ele>
        <time>2020-08-08T08:27:55Z</time>
      </trkpt>
      <trkpt lat="45.55929" lon="6.8961">
        <ele>1347.5</ele>
        <time>2020-08-08T08:27:56Z</time>
      </trkpt>
      <trkpt lat="45.55927" lon="6.89618">
        <ele>1347.7</ele>
        <time>2020-08-08T08:27:57Z</time>
      </trkpt>
      <trkpt lat="45.55921" lon="6.89631">
        <ele>1348</ele>
        <time>2020-08-08T08:27:59Z</time>
      </trkpt>
      <trkpt lat="45.55913" lon="6.89643">
        <ele>1348.3</ele>
        <time>2020-08-08T08:28:01Z</time>
      </trkpt>
      <trkpt lat="45.55909" lon="6.89649">
        <ele>1348.5</ele>
        <time>2020-08-08T08:28:02Z</time>
      </trkpt>
      <trkpt lat="45.55902" lon="6.8966">
        <ele>1348.9</ele>
        <time>2020-08-08T08:28:04Z</time>
      </trkpt>
      <trkpt lat="45.55898" lon="6.89666">
        <ele>1349.1</ele>
        <time>2020-08-08T08:28:05Z</time>
      </trkpt>
      <trkpt lat="45.55894" lon="6.89672">
        <ele>1349.3</ele>
        <time>2020-08-08T08:28:06Z</time>
      </trkpt>
      <trkpt lat="45.5589" lon="6.89678">
        <ele>1349.4</ele>
        <time>2020-08-08T08:28:07Z</time>
      </trkpt>
      <trkpt lat="45.55883" lon="6.8969">
        <ele>1349.8</ele>
        <time>2020-08-08T08:28:09Z</time>
      </trkpt>
      <trkpt lat="45.55879" lon="6.89696">
        <ele>1350</ele>
        <time>2020-08-08T08:28:10Z</time>
      </trkpt>
      <trkpt lat="45.55872" lon="6.89707">
        <ele>1350.3</ele>
        <time>2020-08-08T08:28:12Z</time>
      </trkpt>
      <trkpt lat="45.55864" lon="6.89718">
        <ele>1350.7</ele>
        <time>2020-08-08T08:28:14Z</time>
      </trkpt>
      <trkpt lat="45.55854" lon="6.89725">
        <ele>1351</ele>
        <time>2020-08-08T08:28:16Z</time>
      </trkpt>
      <trkpt lat="45.55849" lon="6.89727">
        <ele>1351.2</ele>
        <time>2020-08-08T08:28:17Z</time>
      </trkpt>
      <trkpt lat="45.55838" lon="6.89732">
        <ele>1351.7</ele>
        <time>2020-08-08T08:28:19Z</time>
      </trkpt>
      <trkpt lat="45.55834" lon="6.89736">
        <ele>1351.9</ele>
        <time>2020-08-08T08:28:20Z</time>
      </trkpt>
      <trkpt lat="45.55826" lon="6.89746">
        <ele>1352.3</ele>
        <time>2020-08-08T08:28:22Z</time>
      </trkpt>
      <trkpt lat="45.55822" lon="6.89752">
        <ele>1352.5</ele>
        <time>2020-08-08T08:28:23Z</time>
      </trkpt>
      <trkpt lat="45.55817" lon="6.89766">
        <ele>1352.9</ele>
        <time>2020-08-08T08:28:25Z</time>
      </trkpt>
      <trkpt lat="45.55815" lon="6.89774">
        <ele>1353</ele>
        <time>2020-08-08T08:28:26Z</time>
      </trkpt>
      <trkpt lat="45.55812" lon="6.89789">
        <ele>1353.4</ele>
        <time>2020-08-08T08:28:28Z</time>
      </trkpt>
      <trkpt lat="45.55809" lon="6.89796">
        <ele>1353.6</ele>
        <time>2020-08-08T08:28:29Z</time>
      </trkpt>
      <trkpt lat="45.55802" lon="6.89808">
        <ele>1354</ele>
        <time>2020-08-08T08:28:31Z</time>
      </trkpt>
      <trkpt lat="45.55798" lon="6.89814">
        <ele>1354.2</ele>
        <time>2020-08-08T08:28:32Z</time>
      </trkpt>
      <trkpt lat="45.5579" lon="6.89825">
        <ele>1354.1</ele>
        <time>2020-08-08T08:28:34Z</time>
      </trkpt>
      <trkpt lat="45.55786" lon="6.8983">
        <ele>1354.1</ele>
        <time>2020-08-08T08:28:35Z</time>
      </trkpt>
      <trkpt lat="45.55778" lon="6.89841">
        <ele>1354</ele>
        <time>2020-08-08T08:28:37Z</time>
      </trkpt>
      <trkpt lat="45.55773" lon="6.89846">
        <ele>1354</ele>
        <time>2020-08-08T08:28:38Z</time>
      </trkpt>
      <trkpt lat="45.55765" lon="6.89857">
        <ele>1354</ele>
        <time>2020-08-08T08:28:40Z</time>
      </trkpt>
      <trkpt lat="45.5576" lon="6.89862">
        <ele>1354</ele>
        <time>2020-08-08T08:28:41Z</time>
      </trkpt>
      <trkpt lat="45.55755" lon="6.89868">
        <ele>1353.9</ele>
        <time>2020-08-08T08:28:42Z</time>
      </trkpt>
      <trkpt lat="45.55747" lon="6.89879">
        <ele>1353.9</ele>
        <time>2020-08-08T08:28:44Z</time>
      </trkpt>
      <trkpt lat="45.55742" lon="6.89884">
        <ele>1353.8</ele>
        <time>2020-08-08T08:28:45Z</time>
      </trkpt>
      <trkpt lat="45.55738" lon="6.8989">
        <ele>1353.8</ele>
        <time>2020-08-08T08:28:46Z</time>
      </trkpt>
      <trkpt lat="45.55732" lon="6.89904">
        <ele>1353.6</ele>
        <time>2020-08-08T08:28:48Z</time>
      </trkpt>
      <trkpt lat="45.55728" lon="6.89912">
        <ele>1353.3</ele>
        <time>2020-08-08T08:28:49Z</time>
      </trkpt>
      <trkpt lat="45.5572" lon="6.89926">
        <ele>1352</ele>
        <time>2020-08-08T08:28:51Z</time>
      </trkpt>
      <trkpt lat="45.55716" lon="6.89932">
        <ele>1351.1</ele>
        <time>2020-08-08T08:28:52Z</time>
      </trkpt>
      <trkpt lat="45.55707" lon="6.89945">
        <ele>1349.4</ele>
        <time>2020-08-08T08:28:54Z</time>
      </trkpt>
      <trkpt lat="45.55697" lon="6.89956">
        <ele>1347.7</ele>
        <time>2020-08-08T08:28:56Z</time>
      </trkpt>
      <trkpt lat="45.55692" lon="6.89962">
        <ele>1347.4</ele>
        <time>2020-08-08T08:28:57Z</time>
      </trkpt>
      <trkpt lat="45.55682" lon="6.89974">
        <ele>1347.6</ele>
        <time>2020-08-08T08:28:59Z</time>
      </trkpt>
      <trkpt lat="45.55673" lon="6.89984">
        <ele>1348</ele>
        <time>2020-08-08T08:29:01Z</time>
      </trkpt>
      <trkpt lat="45.55669" lon="6.8999">
        <ele>1348.2</ele>
        <time>2020-08-08T08:29:02Z</time>
      </trkpt>
      <trkpt lat="45.55665" lon="6.89996">
        <ele>1348.3</ele>
        <time>2020-08-08T08:29:03Z</time>
      </trkpt>
      <trkpt lat="45.55661" lon="6.90001">
        <ele>1348.5</ele>
        <time>2020-08-08T08:29:04Z</time>
      </trkpt>
      <trkpt lat="45.55654" lon="6.90012">
        <ele>1349</ele>
        <time>2020-08-08T08:29:06Z</time>
      </trkpt>
      <trkpt lat="45.55648" lon="6.90022">
        <ele>1349.4</ele>
        <time>2020-08-08T08:29:08Z</time>
      </trkpt>
      <trkpt lat="45.55644" lon="6.9003">
        <ele>1349.8</ele>
        <time>2020-08-08T08:29:10Z</time>
      </trkpt>
      <trkpt lat="45.5564" lon="6.90034">
        <ele>1350.1</ele>
        <time>2020-08-08T08:29:11Z</time>
      </trkpt>
      <trkpt lat="45.55635" lon="6.90043">
        <ele>1350.5</ele>
        <time>2020-08-08T08:29:13Z</time>
      </trkpt>
      <trkpt lat="45.55628" lon="6.90057">
        <ele>1351.2</ele>
        <time>2020-08-08T08:29:15Z</time>
      </trkpt>
      <trkpt lat="45.55625" lon="6.90061">
        <ele>1351.4</ele>
        <time>2020-08-08T08:29:16Z</time>
      </trkpt>
      <trkpt lat="45.55622" lon="6.90065">
        <ele>1351.6</ele>
        <time>2020-08-08T08:29:17Z</time>
      </trkpt>
      <trkpt lat="45.55619" lon="6.90069">
        <ele>1351.8</ele>
        <time>2020-08-08T08:29:18Z</time>
      </trkpt>
      <trkpt lat="45.55616" lon="6.90074">
        <ele>1352.1</ele>
        <time>2020-08-08T08:29:21Z</time>
      </trkpt>
      <trkpt lat="45.55613" lon="6.90079">
        <ele>1352.4</ele>
        <time>2020-08-08T08:29:22Z</time>
      </trkpt>
      <trkpt lat="45.55607" lon="6.90086">
        <ele>1352.8</ele>
        <time>2020-08-08T08:29:24Z</time>
      </trkpt>
      <trkpt lat="45.55602" lon="6.90091">
        <ele>1353.2</ele>
        <time>2020-08-08T08:29:25Z</time>
      </trkpt>
      <trkpt lat="45.55598" lon="6.90094">
        <ele>1353.4</ele>
        <time>2020-08-08T08:29:27Z</time>
      </trkpt>
      <trkpt lat="45.55588" lon="6.90103">
        <ele>1354.1</ele>
        <time>2020-08-08T08:29:29Z</time>
      </trkpt>
      <trkpt lat="45.55583" lon="6.90106">
        <ele>1354.4</ele>
        <time>2020-08-08T08:29:31Z</time>
      </trkpt>
      <trkpt lat="45.55574" lon="6.90111">
        <ele>1354.9</ele>
        <time>2020-08-08T08:29:33Z</time>
      </trkpt>
      <trkpt lat="45.55569" lon="6.90114">
        <ele>1355.2</ele>
        <time>2020-08-08T08:29:36Z</time>
      </trkpt>
      <trkpt lat="45.55563" lon="6.90117">
        <ele>1355.6</ele>
        <time>2020-08-08T08:29:37Z</time>
      </trkpt>
      <trkpt lat="45.55559" lon="6.90118">
        <ele>1355.8</ele>
        <time>2020-08-08T08:29:39Z</time>
      </trkpt>
      <trkpt lat="45.55555" lon="6.90119">
        <ele>1356</ele>
        <time>2020-08-08T08:29:40Z</time>
      </trkpt>
      <trkpt lat="45.55551" lon="6.9012">
        <ele>1356.2</ele>
        <time>2020-08-08T08:29:41Z</time>
      </trkpt>
      <trkpt lat="45.55543" lon="6.90122">
        <ele>1356.6</ele>
        <time>2020-08-08T08:29:42Z</time>
      </trkpt>
      <trkpt lat="45.55539" lon="6.90123">
        <ele>1356.8</ele>
        <time>2020-08-08T08:29:44Z</time>
      </trkpt>
      <trkpt lat="45.55535" lon="6.90125">
        <ele>1357</ele>
        <time>2020-08-08T08:29:45Z</time>
      </trkpt>
      <trkpt lat="45.55529" lon="6.90127">
        <ele>1357.4</ele>
        <time>2020-08-08T08:29:47Z</time>
      </trkpt>
      <trkpt lat="45.55525" lon="6.90128">
        <ele>1357.6</ele>
        <time>2020-08-08T08:29:48Z</time>
      </trkpt>
      <trkpt lat="45.5552" lon="6.9013">
        <ele>1357.9</ele>
        <time>2020-08-08T08:29:49Z</time>
      </trkpt>
      <trkpt lat="45.55514" lon="6.90133">
        <ele>1358.2</ele>
        <time>2020-08-08T08:29:52Z</time>
      </trkpt>
      <trkpt lat="45.55511" lon="6.90135">
        <ele>1358.4</ele>
        <time>2020-08-08T08:29:53Z</time>
      </trkpt>
      <trkpt lat="45.55505" lon="6.90138">
        <ele>1358.8</ele>
        <time>2020-08-08T08:29:54Z</time>
      </trkpt>
      <trkpt lat="45.55499" lon="6.90141">
        <ele>1359.1</ele>
        <time>2020-08-08T08:29:55Z</time>
      </trkpt>
      <trkpt lat="45.5549" lon="6.90146">
        <ele>1359.6</ele>
        <time>2020-08-08T08:29:58Z</time>
      </trkpt>
      <trkpt lat="45.55485" lon="6.90149">
        <ele>1359.9</ele>
        <time>2020-08-08T08:30:01Z</time>
      </trkpt>
      <trkpt lat="45.55479" lon="6.90153">
        <ele>1360.2</ele>
        <time>2020-08-08T08:30:02Z</time>
      </trkpt>
      <trkpt lat="45.55473" lon="6.90156">
        <ele>1360.5</ele>
        <time>2020-08-08T08:30:03Z</time>
      </trkpt>
      <trkpt lat="45.55469" lon="6.90159">
        <ele>1360.7</ele>
        <time>2020-08-08T08:30:06Z</time>
      </trkpt>
      <trkpt lat="45.55466" lon="6.9016">
        <ele>1360.9</ele>
        <time>2020-08-08T08:30:07Z</time>
      </trkpt>
      <trkpt lat="45.55459" lon="6.90164">
        <ele>1361.3</ele>
        <time>2020-08-08T08:30:08Z</time>
      </trkpt>
      <trkpt lat="45.55456" lon="6.90166">
        <ele>1361.5</ele>
        <time>2020-08-08T08:30:09Z</time>
      </trkpt>
      <trkpt lat="45.55451" lon="6.90168">
        <ele>1361.7</ele>
        <time>2020-08-08T08:30:11Z</time>
      </trkpt>
      <trkpt lat="45.55448" lon="6.90169">
        <ele>1361.9</ele>
        <time>2020-08-08T08:30:13Z</time>
      </trkpt>
      <trkpt lat="45.55439" lon="6.9017">
        <ele>1362.3</ele>
        <time>2020-08-08T08:30:14Z</time>
      </trkpt>
      <trkpt lat="45.55433" lon="6.9017">
        <ele>1362.6</ele>
        <time>2020-08-08T08:30:17Z</time>
      </trkpt>
      <trkpt lat="45.55427" lon="6.90168">
        <ele>1362.9</ele>
        <time>2020-08-08T08:30:18Z</time>
      </trkpt>
      <trkpt lat="45.55423" lon="6.90167">
        <ele>1363.1</ele>
        <time>2020-08-08T08:30:19Z</time>
      </trkpt>
      <trkpt lat="45.55419" lon="6.90166">
        <ele>1363.3</ele>
        <time>2020-08-08T08:30:20Z</time>
      </trkpt>
      <trkpt lat="45.55415" lon="6.90165">
        <ele>1363.5</ele>
        <time>2020-08-08T08:30:21Z</time>
      </trkpt>
      <trkpt lat="45.5541" lon="6.90164">
        <ele>1363.7</ele>
        <time>2020-08-08T08:30:22Z</time>
      </trkpt>
      <trkpt lat="45.55406" lon="6.90163">
        <ele>1363.8</ele>
        <time>2020-08-08T08:30:24Z</time>
      </trkpt>
      <trkpt lat="45.55397" lon="6.90161">
        <ele>1364.2</ele>
        <time>2020-08-08T08:30:26Z</time>
      </trkpt>
      <trkpt lat="45.55393" lon="6.90161">
        <ele>1364.4</ele>
        <time>2020-08-08T08:30:27Z</time>
      </trkpt>
      <trkpt lat="45.55387" lon="6.90161">
        <ele>1364.7</ele>
        <time>2020-08-08T08:30:30Z</time>
      </trkpt>
      <trkpt lat="45.55381" lon="6.9016">
        <ele>1364.9</ele>
        <time>2020-08-08T08:30:31Z</time>
      </trkpt>
      <trkpt lat="45.55374" lon="6.90161">
        <ele>1365.3</ele>
        <time>2020-08-08T08:30:33Z</time>
      </trkpt>
      <trkpt lat="45.55369" lon="6.9016">
        <ele>1365.5</ele>
        <time>2020-08-08T08:30:34Z</time>
      </trkpt>
      <trkpt lat="45.55364" lon="6.9016">
        <ele>1365.7</ele>
        <time>2020-08-08T08:30:37Z</time>
      </trkpt>
      <trkpt lat="45.5536" lon="6.9016">
        <ele>1365.9</ele>
        <time>2020-08-08T08:30:38Z</time>
      </trkpt>
      <trkpt lat="45.55354" lon="6.90161">
        <ele>1366.2</ele>
        <time>2020-08-08T08:30:39Z</time>
      </trkpt>
      <trkpt lat="45.55349" lon="6.9016">
        <ele>1366.5</ele>
        <time>2020-08-08T08:30:40Z</time>
      </trkpt>
      <trkpt lat="45.55345" lon="6.90159">
        <ele>1366.7</ele>
        <time>2020-08-08T08:30:41Z</time>
      </trkpt>
      <trkpt lat="45.55336" lon="6.90158">
        <ele>1367</ele>
        <time>2020-08-08T08:30:44Z</time>
      </trkpt>
      <trkpt lat="45.55333" lon="6.90157">
        <ele>1367.2</ele>
        <time>2020-08-08T08:30:45Z</time>
      </trkpt>
      <trkpt lat="45.55324" lon="6.90154">
        <ele>1367.6</ele>
        <time>2020-08-08T08:30:47Z</time>
      </trkpt>
      <trkpt lat="45.55314" lon="6.9015">
        <ele>1368.1</ele>
        <time>2020-08-08T08:30:50Z</time>
      </trkpt>
      <trkpt lat="45.55309" lon="6.90148">
        <ele>1368.4</ele>
        <time>2020-08-08T08:30:52Z</time>
      </trkpt>
      <trkpt lat="45.55303" lon="6.90145">
        <ele>1368.7</ele>
        <time>2020-08-08T08:30:53Z</time>
      </trkpt>
      <trkpt lat="45.55298" lon="6.90144">
        <ele>1369</ele>
        <time>2020-08-08T08:30:56Z</time>
      </trkpt>
      <trkpt lat="45.55295" lon="6.90145">
        <ele>1369.2</ele>
        <time>2020-08-08T08:30:57Z</time>
      </trkpt>
      <trkpt lat="45.55292" lon="6.90145">
        <ele>1369.4</ele>
        <time>2020-08-08T08:30:58Z</time>
      </trkpt>
      <trkpt lat="45.55284" lon="6.90146">
        <ele>1369.9</ele>
        <time>2020-08-08T08:30:59Z</time>
      </trkpt>
      <trkpt lat="45.55278" lon="6.90147">
        <ele>1370.2</ele>
        <time>2020-08-08T08:31:02Z</time>
      </trkpt>
      <trkpt lat="45.55275" lon="6.90148">
        <ele>1370.4</ele>
        <time>2020-08-08T08:31:03Z</time>
      </trkpt>
      <trkpt lat="45.55269" lon="6.90151">
        <ele>1370.8</ele>
        <time>2020-08-08T08:31:04Z</time>
      </trkpt>
      <trkpt lat="45.55264" lon="6.90153">
        <ele>1371</ele>
        <time>2020-08-08T08:31:06Z</time>
      </trkpt>
      <trkpt lat="45.55259" lon="6.90157">
        <ele>1371.3</ele>
        <time>2020-08-08T08:31:07Z</time>
      </trkpt>
      <trkpt lat="45.55253" lon="6.90162">
        <ele>1371.6</ele>
        <time>2020-08-08T08:31:10Z</time>
      </trkpt>
      <trkpt lat="45.5525" lon="6.90164">
        <ele>1371.8</ele>
        <time>2020-08-08T08:31:11Z</time>
      </trkpt>
      <trkpt lat="45.55244" lon="6.90171">
        <ele>1372.1</ele>
        <time>2020-08-08T08:31:13Z</time>
      </trkpt>
      <trkpt lat="45.55239" lon="6.90176">
        <ele>1372.3</ele>
        <time>2020-08-08T08:31:14Z</time>
      </trkpt>
      <trkpt lat="45.55234" lon="6.90179">
        <ele>1372.4</ele>
        <time>2020-08-08T08:31:16Z</time>
      </trkpt>
      <trkpt lat="45.5523" lon="6.90183">
        <ele>1372.5</ele>
        <time>2020-08-08T08:31:18Z</time>
      </trkpt>
      <trkpt lat="45.55228" lon="6.90185">
        <ele>1372.6</ele>
        <time>2020-08-08T08:31:19Z</time>
      </trkpt>
      <trkpt lat="45.55218" lon="6.90192">
        <ele>1373</ele>
        <time>2020-08-08T08:31:21Z</time>
      </trkpt>
      <trkpt lat="45.55213" lon="6.90194">
        <ele>1373.3</ele>
        <time>2020-08-08T08:31:23Z</time>
      </trkpt>
      <trkpt lat="45.55209" lon="6.90197">
        <ele>1373.5</ele>
        <time>2020-08-08T08:31:25Z</time>
      </trkpt>
      <trkpt lat="45.55203" lon="6.902">
        <ele>1373.8</ele>
        <time>2020-08-08T08:31:27Z</time>
      </trkpt>
      <trkpt lat="45.55196" lon="6.90204">
        <ele>1374.3</ele>
        <time>2020-08-08T08:31:29Z</time>
      </trkpt>
      <trkpt lat="45.5519" lon="6.90207">
        <ele>1374.7</ele>
        <time>2020-08-08T08:31:30Z</time>
      </trkpt>
      <trkpt lat="45.55186" lon="6.90208">
        <ele>1374.9</ele>
        <time>2020-08-08T08:31:31Z</time>
      </trkpt>
      <trkpt lat="45.55182" lon="6.90211">
        <ele>1375.1</ele>
        <time>2020-08-08T08:31:32Z</time>
      </trkpt>
      <trkpt lat="45.55178" lon="6.90214">
        <ele>1375.4</ele>
        <time>2020-08-08T08:31:33Z</time>
      </trkpt>
      <trkpt lat="45.5517" lon="6.90221">
        <ele>1375.9</ele>
        <time>2020-08-08T08:31:36Z</time>
      </trkpt>
      <trkpt lat="45.55166" lon="6.90225">
        <ele>1376.1</ele>
        <time>2020-08-08T08:31:37Z</time>
      </trkpt>
      <trkpt lat="45.55163" lon="6.90228">
        <ele>1376.4</ele>
        <time>2020-08-08T08:31:39Z</time>
      </trkpt>
      <trkpt lat="45.5516" lon="6.90231">
        <ele>1376.6</ele>
        <time>2020-08-08T08:31:40Z</time>
      </trkpt>
      <trkpt lat="45.55156" lon="6.90234">
        <ele>1376.8</ele>
        <time>2020-08-08T08:31:42Z</time>
      </trkpt>
      <trkpt lat="45.55153" lon="6.90236">
        <ele>1377</ele>
        <time>2020-08-08T08:31:43Z</time>
      </trkpt>
      <trkpt lat="45.55147" lon="6.90241">
        <ele>1377.3</ele>
        <time>2020-08-08T08:31:45Z</time>
      </trkpt>
      <trkpt lat="45.55141" lon="6.90246">
        <ele>1377.7</ele>
        <time>2020-08-08T08:31:46Z</time>
      </trkpt>
      <trkpt lat="45.55136" lon="6.9025">
        <ele>1378</ele>
        <time>2020-08-08T08:31:47Z</time>
      </trkpt>
      <trkpt lat="45.55132" lon="6.90252">
        <ele>1378.2</ele>
        <time>2020-08-08T08:31:49Z</time>
      </trkpt>
      <trkpt lat="45.55129" lon="6.90254">
        <ele>1378.4</ele>
        <time>2020-08-08T08:31:51Z</time>
      </trkpt>
      <trkpt lat="45.55122" lon="6.9026">
        <ele>1378.8</ele>
        <time>2020-08-08T08:31:52Z</time>
      </trkpt>
      <trkpt lat="45.55117" lon="6.90264">
        <ele>1379.1</ele>
        <time>2020-08-08T08:31:54Z</time>
      </trkpt>
      <trkpt lat="45.55111" lon="6.90269">
        <ele>1379.4</ele>
        <time>2020-08-08T08:31:56Z</time>
      </trkpt>
      <trkpt lat="45.55105" lon="6.90273">
        <ele>1379.8</ele>
        <time>2020-08-08T08:31:59Z</time>
      </trkpt>
      <trkpt lat="45.55102" lon="6.90275">
        <ele>1380</ele>
        <time>2020-08-08T08:32:00Z</time>
      </trkpt>
      <trkpt lat="45.55096" lon="6.9028">
        <ele>1380.3</ele>
        <time>2020-08-08T08:32:01Z</time>
      </trkpt>
      <trkpt lat="45.55092" lon="6.90283">
        <ele>1380.5</ele>
        <time>2020-08-08T08:32:03Z</time>
      </trkpt>
      <trkpt lat="45.55085" lon="6.90289">
        <ele>1380.9</ele>
        <time>2020-08-08T08:32:04Z</time>
      </trkpt>
      <trkpt lat="45.5508" lon="6.90293">
        <ele>1381.2</ele>
        <time>2020-08-08T08:32:06Z</time>
      </trkpt>
      <trkpt lat="45.55072" lon="6.90301">
        <ele>1381.7</ele>
        <time>2020-08-08T08:32:08Z</time>
      </trkpt>
      <trkpt lat="45.55067" lon="6.90306">
        <ele>1382</ele>
        <time>2020-08-08T08:32:10Z</time>
      </trkpt>
      <trkpt lat="45.55063" lon="6.9031">
        <ele>1382.3</ele>
        <time>2020-08-08T08:32:11Z</time>
      </trkpt>
      <trkpt lat="45.55059" lon="6.90315">
        <ele>1382.6</ele>
        <time>2020-08-08T08:32:12Z</time>
      </trkpt>
      <trkpt lat="45.5505" lon="6.90324">
        <ele>1383.2</ele>
        <time>2020-08-08T08:32:15Z</time>
      </trkpt>
      <trkpt lat="45.55043" lon="6.90331">
        <ele>1383.7</ele>
        <time>2020-08-08T08:32:18Z</time>
      </trkpt>
      <trkpt lat="45.55037" lon="6.9034">
        <ele>1384.1</ele>
        <time>2020-08-08T08:32:21Z</time>
      </trkpt>
      <trkpt lat="45.55035" lon="6.90344">
        <ele>1384.3</ele>
        <time>2020-08-08T08:32:22Z</time>
      </trkpt>
      <trkpt lat="45.55031" lon="6.90351">
        <ele>1384.7</ele>
        <time>2020-08-08T08:32:23Z</time>
      </trkpt>
      <trkpt lat="45.55027" lon="6.90356">
        <ele>1384.9</ele>
        <time>2020-08-08T08:32:26Z</time>
      </trkpt>
      <trkpt lat="45.55024" lon="6.90359">
        <ele>1385.1</ele>
        <time>2020-08-08T08:32:27Z</time>
      </trkpt>
      <trkpt lat="45.5502" lon="6.90366">
        <ele>1385.5</ele>
        <time>2020-08-08T08:32:28Z</time>
      </trkpt>
      <trkpt lat="45.55016" lon="6.90372">
        <ele>1385.8</ele>
        <time>2020-08-08T08:32:30Z</time>
      </trkpt>
      <trkpt lat="45.55013" lon="6.90377">
        <ele>1386.1</ele>
        <time>2020-08-08T08:32:32Z</time>
      </trkpt>
      <trkpt lat="45.5501" lon="6.9038">
        <ele>1386.2</ele>
        <time>2020-08-08T08:32:33Z</time>
      </trkpt>
      <trkpt lat="45.55004" lon="6.90386">
        <ele>1386.6</ele>
        <time>2020-08-08T08:32:34Z</time>
      </trkpt>
      <trkpt lat="45.54999" lon="6.90392">
        <ele>1387</ele>
        <time>2020-08-08T08:32:36Z</time>
      </trkpt>
      <trkpt lat="45.54995" lon="6.90398">
        <ele>1387.3</ele>
        <time>2020-08-08T08:32:37Z</time>
      </trkpt>
      <trkpt lat="45.54991" lon="6.90402">
        <ele>1387.6</ele>
        <time>2020-08-08T08:32:39Z</time>
      </trkpt>
      <trkpt lat="45.54989" lon="6.90406">
        <ele>1387.8</ele>
        <time>2020-08-08T08:32:41Z</time>
      </trkpt>
      <trkpt lat="45.54984" lon="6.90413">
        <ele>1388.2</ele>
        <time>2020-08-08T08:32:42Z</time>
      </trkpt>
      <trkpt lat="45.54981" lon="6.90417">
        <ele>1388.5</ele>
        <time>2020-08-08T08:32:43Z</time>
      </trkpt>
      <trkpt lat="45.54978" lon="6.90421">
        <ele>1388.7</ele>
        <time>2020-08-08T08:32:44Z</time>
      </trkpt>
      <trkpt lat="45.54973" lon="6.90429">
        <ele>1389.1</ele>
        <time>2020-08-08T08:32:47Z</time>
      </trkpt>
      <trkpt lat="45.54971" lon="6.90432">
        <ele>1389.3</ele>
        <time>2020-08-08T08:32:48Z</time>
      </trkpt>
      <trkpt lat="45.54968" lon="6.90438">
        <ele>1389.6</ele>
        <time>2020-08-08T08:32:50Z</time>
      </trkpt>
      <trkpt lat="45.54961" lon="6.90452">
        <ele>1390.2</ele>
        <time>2020-08-08T08:32:52Z</time>
      </trkpt>
      <trkpt lat="45.54953" lon="6.90464">
        <ele>1390.7</ele>
        <time>2020-08-08T08:32:55Z</time>
      </trkpt>
      <trkpt lat="45.54951" lon="6.90469">
        <ele>1390.9</ele>
        <time>2020-08-08T08:32:56Z</time>
      </trkpt>
      <trkpt lat="45.54948" lon="6.90474">
        <ele>1391.2</ele>
        <time>2020-08-08T08:32:59Z</time>
      </trkpt>
      <trkpt lat="45.54946" lon="6.90479">
        <ele>1391.4</ele>
        <time>2020-08-08T08:33:00Z</time>
      </trkpt>
      <trkpt lat="45.54941" lon="6.90488">
        <ele>1391.7</ele>
        <time>2020-08-08T08:33:01Z</time>
      </trkpt>
      <trkpt lat="45.54937" lon="6.90496">
        <ele>1392.1</ele>
        <time>2020-08-08T08:33:04Z</time>
      </trkpt>
      <trkpt lat="45.54933" lon="6.90503">
        <ele>1392.4</ele>
        <time>2020-08-08T08:33:06Z</time>
      </trkpt>
      <trkpt lat="45.54929" lon="6.9051">
        <ele>1392.7</ele>
        <time>2020-08-08T08:33:07Z</time>
      </trkpt>
      <trkpt lat="45.54925" lon="6.90517">
        <ele>1393</ele>
        <time>2020-08-08T08:33:08Z</time>
      </trkpt>
      <trkpt lat="45.54922" lon="6.90522">
        <ele>1393.3</ele>
        <time>2020-08-08T08:33:11Z</time>
      </trkpt>
      <trkpt lat="45.5492" lon="6.90526">
        <ele>1393.4</ele>
        <time>2020-08-08T08:33:12Z</time>
      </trkpt>
      <trkpt lat="45.54912" lon="6.9054">
        <ele>1394</ele>
        <time>2020-08-08T08:33:14Z</time>
      </trkpt>
      <trkpt lat="45.54908" lon="6.90547">
        <ele>1394.3</ele>
        <time>2020-08-08T08:33:17Z</time>
      </trkpt>
      <trkpt lat="45.54904" lon="6.90553">
        <ele>1394.5</ele>
        <time>2020-08-08T08:33:18Z</time>
      </trkpt>
      <trkpt lat="45.549" lon="6.90557">
        <ele>1394.8</ele>
        <time>2020-08-08T08:33:20Z</time>
      </trkpt>
      <trkpt lat="45.54895" lon="6.90565">
        <ele>1395.1</ele>
        <time>2020-08-08T08:33:22Z</time>
      </trkpt>
      <trkpt lat="45.54891" lon="6.90572">
        <ele>1395.4</ele>
        <time>2020-08-08T08:33:23Z</time>
      </trkpt>
      <trkpt lat="45.54888" lon="6.90579">
        <ele>1395.7</ele>
        <time>2020-08-08T08:33:25Z</time>
      </trkpt>
      <trkpt lat="45.54884" lon="6.90583">
        <ele>1395.9</ele>
        <time>2020-08-08T08:33:26Z</time>
      </trkpt>
      <trkpt lat="45.54879" lon="6.90593">
        <ele>1396.3</ele>
        <time>2020-08-08T08:33:28Z</time>
      </trkpt>
      <trkpt lat="45.54876" lon="6.906">
        <ele>1396.6</ele>
        <time>2020-08-08T08:33:30Z</time>
      </trkpt>
      <trkpt lat="45.54873" lon="6.90607">
        <ele>1396.8</ele>
        <time>2020-08-08T08:33:31Z</time>
      </trkpt>
      <trkpt lat="45.5487" lon="6.90612">
        <ele>1397.1</ele>
        <time>2020-08-08T08:33:33Z</time>
      </trkpt>
      <trkpt lat="45.54868" lon="6.90618">
        <ele>1397.3</ele>
        <time>2020-08-08T08:33:34Z</time>
      </trkpt>
      <trkpt lat="45.54864" lon="6.90624">
        <ele>1397.6</ele>
        <time>2020-08-08T08:33:36Z</time>
      </trkpt>
      <trkpt lat="45.54859" lon="6.9063">
        <ele>1398</ele>
        <time>2020-08-08T08:33:37Z</time>
      </trkpt>
      <trkpt lat="45.54852" lon="6.90638">
        <ele>1398.4</ele>
        <time>2020-08-08T08:33:40Z</time>
      </trkpt>
      <trkpt lat="45.54849" lon="6.90641">
        <ele>1398.6</ele>
        <time>2020-08-08T08:33:41Z</time>
      </trkpt>
      <trkpt lat="45.54845" lon="6.90645">
        <ele>1398.9</ele>
        <time>2020-08-08T08:33:42Z</time>
      </trkpt>
      <trkpt lat="45.5484" lon="6.90649">
        <ele>1399.1</ele>
        <time>2020-08-08T08:33:45Z</time>
      </trkpt>
      <trkpt lat="45.54834" lon="6.90652">
        <ele>1399.4</ele>
        <time>2020-08-08T08:33:46Z</time>
      </trkpt>
      <trkpt lat="45.5483" lon="6.90655">
        <ele>1399.7</ele>
        <time>2020-08-08T08:33:47Z</time>
      </trkpt>
      <trkpt lat="45.54826" lon="6.90657">
        <ele>1399.8</ele>
        <time>2020-08-08T08:33:49Z</time>
      </trkpt>
      <trkpt lat="45.5482" lon="6.90661">
        <ele>1400.2</ele>
        <time>2020-08-08T08:33:50Z</time>
      </trkpt>
      <trkpt lat="45.54814" lon="6.90665">
        <ele>1400.5</ele>
        <time>2020-08-08T08:33:51Z</time>
      </trkpt>
      <trkpt lat="45.54809" lon="6.90668">
        <ele>1400.8</ele>
        <time>2020-08-08T08:33:54Z</time>
      </trkpt>
      <trkpt lat="45.54803" lon="6.90672">
        <ele>1401.1</ele>
        <time>2020-08-08T08:33:55Z</time>
      </trkpt>
      <trkpt lat="45.54797" lon="6.90675">
        <ele>1401.5</ele>
        <time>2020-08-08T08:33:56Z</time>
      </trkpt>
      <trkpt lat="45.54793" lon="6.90677">
        <ele>1401.7</ele>
        <time>2020-08-08T08:33:58Z</time>
      </trkpt>
      <trkpt lat="45.54789" lon="6.90679">
        <ele>1401.9</ele>
        <time>2020-08-08T08:34:00Z</time>
      </trkpt>
      <trkpt lat="45.54783" lon="6.90683">
        <ele>1402.2</ele>
        <time>2020-08-08T08:34:01Z</time>
      </trkpt>
      <trkpt lat="45.5478" lon="6.90686">
        <ele>1402.4</ele>
        <time>2020-08-08T08:34:03Z</time>
      </trkpt>
      <trkpt lat="45.54777" lon="6.90688">
        <ele>1402.6</ele>
        <time>2020-08-08T08:34:04Z</time>
      </trkpt>
      <trkpt lat="45.5477" lon="6.90693">
        <ele>1403</ele>
        <time>2020-08-08T08:34:05Z</time>
      </trkpt>
      <trkpt lat="45.54765" lon="6.90697">
        <ele>1403.3</ele>
        <time>2020-08-08T08:34:08Z</time>
      </trkpt>
      <trkpt lat="45.5476" lon="6.90701">
        <ele>1403.6</ele>
        <time>2020-08-08T08:34:09Z</time>
      </trkpt>
      <trkpt lat="45.54754" lon="6.90705">
        <ele>1403.9</ele>
        <time>2020-08-08T08:34:11Z</time>
      </trkpt>
      <trkpt lat="45.54746" lon="6.90713">
        <ele>1404.4</ele>
        <time>2020-08-08T08:34:13Z</time>
      </trkpt>
      <trkpt lat="45.54736" lon="6.90719">
        <ele>1405</ele>
        <time>2020-08-08T08:34:16Z</time>
      </trkpt>
      <trkpt lat="45.54732" lon="6.90723">
        <ele>1405.2</ele>
        <time>2020-08-08T08:34:18Z</time>
      </trkpt>
      <trkpt lat="45.54728" lon="6.90725">
        <ele>1405.4</ele>
        <time>2020-08-08T08:34:19Z</time>
      </trkpt>
      <trkpt lat="45.54724" lon="6.90728">
        <ele>1405.6</ele>
        <time>2020-08-08T08:34:21Z</time>
      </trkpt>
      <trkpt lat="45.54715" lon="6.90734">
        <ele>1406.1</ele>
        <time>2020-08-08T08:34:23Z</time>
      </trkpt>
      <trkpt lat="45.5471" lon="6.90737">
        <ele>1406.4</ele>
        <time>2020-08-08T08:34:25Z</time>
      </trkpt>
      <trkpt lat="45.54706" lon="6.90739">
        <ele>1406.6</ele>
        <time>2020-08-08T08:34:26Z</time>
      </trkpt>
      <trkpt lat="45.547" lon="6.90741">
        <ele>1406.9</ele>
        <time>2020-08-08T08:34:28Z</time>
      </trkpt>
      <trkpt lat="45.54688" lon="6.90744">
        <ele>1407.4</ele>
        <time>2020-08-08T08:34:30Z</time>
      </trkpt>
      <trkpt lat="45.54682" lon="6.90744">
        <ele>1407.7</ele>
        <time>2020-08-08T08:34:32Z</time>
      </trkpt>
      <trkpt lat="45.54673" lon="6.90744">
        <ele>1408.2</ele>
        <time>2020-08-08T08:34:34Z</time>
      </trkpt>
      <trkpt lat="45.54668" lon="6.90745">
        <ele>1408.5</ele>
        <time>2020-08-08T08:34:36Z</time>
      </trkpt>
      <trkpt lat="45.54658" lon="6.90746">
        <ele>1409.1</ele>
        <time>2020-08-08T08:34:38Z</time>
      </trkpt>
      <trkpt lat="45.54653" lon="6.90747">
        <ele>1409.3</ele>
        <time>2020-08-08T08:34:41Z</time>
      </trkpt>
      <trkpt lat="45.5465" lon="6.90747">
        <ele>1409.5</ele>
        <time>2020-08-08T08:34:42Z</time>
      </trkpt>
      <trkpt lat="45.54639" lon="6.9075">
        <ele>1410</ele>
        <time>2020-08-08T08:34:44Z</time>
      </trkpt>
      <trkpt lat="45.54634" lon="6.90753">
        <ele>1410.3</ele>
        <time>2020-08-08T08:34:46Z</time>
      </trkpt>
      <trkpt lat="45.5463" lon="6.90756">
        <ele>1410.4</ele>
        <time>2020-08-08T08:34:48Z</time>
      </trkpt>
      <trkpt lat="45.54623" lon="6.90761">
        <ele>1410.7</ele>
        <time>2020-08-08T08:34:49Z</time>
      </trkpt>
      <trkpt lat="45.54617" lon="6.90764">
        <ele>1410.9</ele>
        <time>2020-08-08T08:34:51Z</time>
      </trkpt>
      <trkpt lat="45.54613" lon="6.90766">
        <ele>1411</ele>
        <time>2020-08-08T08:34:52Z</time>
      </trkpt>
      <trkpt lat="45.54609" lon="6.9077">
        <ele>1411.2</ele>
        <time>2020-08-08T08:34:53Z</time>
      </trkpt>
      <trkpt lat="45.54604" lon="6.90772">
        <ele>1411.3</ele>
        <time>2020-08-08T08:34:55Z</time>
      </trkpt>
      <trkpt lat="45.546" lon="6.90775">
        <ele>1411.5</ele>
        <time>2020-08-08T08:34:56Z</time>
      </trkpt>
      <trkpt lat="45.54594" lon="6.90778">
        <ele>1411.7</ele>
        <time>2020-08-08T08:34:57Z</time>
      </trkpt>
      <trkpt lat="45.54588" lon="6.90781">
        <ele>1411.9</ele>
        <time>2020-08-08T08:34:59Z</time>
      </trkpt>
      <trkpt lat="45.54584" lon="6.90782">
        <ele>1412</ele>
        <time>2020-08-08T08:35:01Z</time>
      </trkpt>
      <trkpt lat="45.54571" lon="6.90785">
        <ele>1412.5</ele>
        <time>2020-08-08T08:35:03Z</time>
      </trkpt>
      <trkpt lat="45.54567" lon="6.90785">
        <ele>1412.7</ele>
        <time>2020-08-08T08:35:05Z</time>
      </trkpt>
      <trkpt lat="45.54563" lon="6.90785">
        <ele>1412.8</ele>
        <time>2020-08-08T08:35:07Z</time>
      </trkpt>
      <trkpt lat="45.54555" lon="6.90785">
        <ele>1413.2</ele>
        <time>2020-08-08T08:35:08Z</time>
      </trkpt>
      <trkpt lat="45.54551" lon="6.90785">
        <ele>1413.3</ele>
        <time>2020-08-08T08:35:10Z</time>
      </trkpt>
      <trkpt lat="45.54543" lon="6.90787">
        <ele>1413.6</ele>
        <time>2020-08-08T08:35:12Z</time>
      </trkpt>
      <trkpt lat="45.5454" lon="6.90788">
        <ele>1413.7</ele>
        <time>2020-08-08T08:35:13Z</time>
      </trkpt>
      <trkpt lat="45.5453" lon="6.90793">
        <ele>1414.2</ele>
        <time>2020-08-08T08:35:16Z</time>
      </trkpt>
      <trkpt lat="45.54526" lon="6.90796">
        <ele>1414.4</ele>
        <time>2020-08-08T08:35:18Z</time>
      </trkpt>
      <trkpt lat="45.5452" lon="6.90799">
        <ele>1414.6</ele>
        <time>2020-08-08T08:35:20Z</time>
      </trkpt>
      <trkpt lat="45.54517" lon="6.90801">
        <ele>1414.8</ele>
        <time>2020-08-08T08:35:22Z</time>
      </trkpt>
      <trkpt lat="45.54513" lon="6.90802">
        <ele>1414.9</ele>
        <time>2020-08-08T08:35:23Z</time>
      </trkpt>
      <trkpt lat="45.54507" lon="6.90806">
        <ele>1415.1</ele>
        <time>2020-08-08T08:35:24Z</time>
      </trkpt>
      <trkpt lat="45.54495" lon="6.90814">
        <ele>1415.6</ele>
        <time>2020-08-08T08:35:27Z</time>
      </trkpt>
      <trkpt lat="45.54491" lon="6.90817">
        <ele>1415.7</ele>
        <time>2020-08-08T08:35:29Z</time>
      </trkpt>
      <trkpt lat="45.54487" lon="6.9082">
        <ele>1415.9</ele>
        <time>2020-08-08T08:35:31Z</time>
      </trkpt>
      <trkpt lat="45.54482" lon="6.90824">
        <ele>1416.1</ele>
        <time>2020-08-08T08:35:32Z</time>
      </trkpt>
      <trkpt lat="45.54475" lon="6.90831">
        <ele>1416.3</ele>
        <time>2020-08-08T08:35:35Z</time>
      </trkpt>
      <trkpt lat="45.54469" lon="6.90836">
        <ele>1416.6</ele>
        <time>2020-08-08T08:35:36Z</time>
      </trkpt>
      <trkpt lat="45.54462" lon="6.90842">
        <ele>1416.9</ele>
        <time>2020-08-08T08:35:39Z</time>
      </trkpt>
      <trkpt lat="45.54458" lon="6.90845">
        <ele>1417</ele>
        <time>2020-08-08T08:35:40Z</time>
      </trkpt>
      <trkpt lat="45.5445" lon="6.90848">
        <ele>1417.3</ele>
        <time>2020-08-08T08:35:41Z</time>
      </trkpt>
      <trkpt lat="45.54446" lon="6.9085">
        <ele>1417.5</ele>
        <time>2020-08-08T08:35:43Z</time>
      </trkpt>
      <trkpt lat="45.54442" lon="6.90852">
        <ele>1417.7</ele>
        <time>2020-08-08T08:35:44Z</time>
      </trkpt>
      <trkpt lat="45.54436" lon="6.90854">
        <ele>1417.9</ele>
        <time>2020-08-08T08:35:46Z</time>
      </trkpt>
      <trkpt lat="45.54432" lon="6.90856">
        <ele>1418</ele>
        <time>2020-08-08T08:35:48Z</time>
      </trkpt>
      <trkpt lat="45.54426" lon="6.90858">
        <ele>1418.2</ele>
        <time>2020-08-08T08:35:49Z</time>
      </trkpt>
      <trkpt lat="45.54418" lon="6.90862">
        <ele>1418.5</ele>
        <time>2020-08-08T08:35:51Z</time>
      </trkpt>
      <trkpt lat="45.5441" lon="6.90865">
        <ele>1418.8</ele>
        <time>2020-08-08T08:35:54Z</time>
      </trkpt>
      <trkpt lat="45.54406" lon="6.90867">
        <ele>1418.9</ele>
        <time>2020-08-08T08:35:55Z</time>
      </trkpt>
      <trkpt lat="45.54401" lon="6.90869">
        <ele>1419.1</ele>
        <time>2020-08-08T08:35:56Z</time>
      </trkpt>
      <trkpt lat="45.54396" lon="6.90871">
        <ele>1419.3</ele>
        <time>2020-08-08T08:35:59Z</time>
      </trkpt>
      <trkpt lat="45.54392" lon="6.90873">
        <ele>1419.4</ele>
        <time>2020-08-08T08:36:00Z</time>
      </trkpt>
      <trkpt lat="45.54385" lon="6.90876">
        <ele>1419.7</ele>
        <time>2020-08-08T08:36:01Z</time>
      </trkpt>
      <trkpt lat="45.54379" lon="6.90878">
        <ele>1420</ele>
        <time>2020-08-08T08:36:03Z</time>
      </trkpt>
      <trkpt lat="45.54371" lon="6.90881">
        <ele>1420.3</ele>
        <time>2020-08-08T08:36:05Z</time>
      </trkpt>
      <trkpt lat="45.54363" lon="6.90885">
        <ele>1420.7</ele>
        <time>2020-08-08T08:36:08Z</time>
      </trkpt>
      <trkpt lat="45.54359" lon="6.90886">
        <ele>1420.8</ele>
        <time>2020-08-08T08:36:09Z</time>
      </trkpt>
      <trkpt lat="45.54351" lon="6.90894">
        <ele>1421.2</ele>
        <time>2020-08-08T08:36:12Z</time>
      </trkpt>
      <trkpt lat="45.54347" lon="6.90897">
        <ele>1421.3</ele>
        <time>2020-08-08T08:36:14Z</time>
      </trkpt>
      <trkpt lat="45.54343" lon="6.90901">
        <ele>1421.5</ele>
        <time>2020-08-08T08:36:15Z</time>
      </trkpt>
      <trkpt lat="45.54339" lon="6.90905">
        <ele>1421.7</ele>
        <time>2020-08-08T08:36:16Z</time>
      </trkpt>
      <trkpt lat="45.54335" lon="6.9091">
        <ele>1421.9</ele>
        <time>2020-08-08T08:36:19Z</time>
      </trkpt>
      <trkpt lat="45.5433" lon="6.90914">
        <ele>1422.1</ele>
        <time>2020-08-08T08:36:20Z</time>
      </trkpt>
      <trkpt lat="45.54326" lon="6.90918">
        <ele>1422.2</ele>
        <time>2020-08-08T08:36:22Z</time>
      </trkpt>
      <trkpt lat="45.54323" lon="6.90921">
        <ele>1422.3</ele>
        <time>2020-08-08T08:36:23Z</time>
      </trkpt>
      <trkpt lat="45.54315" lon="6.90926">
        <ele>1422.5</ele>
        <time>2020-08-08T08:36:24Z</time>
      </trkpt>
      <trkpt lat="45.5431" lon="6.90929">
        <ele>1422.6</ele>
        <time>2020-08-08T08:36:26Z</time>
      </trkpt>
      <trkpt lat="45.54302" lon="6.90935">
        <ele>1422.8</ele>
        <time>2020-08-08T08:36:28Z</time>
      </trkpt>
      <trkpt lat="45.54297" lon="6.90939">
        <ele>1423.1</ele>
        <time>2020-08-08T08:36:30Z</time>
      </trkpt>
      <trkpt lat="45.54293" lon="6.90942">
        <ele>1423.5</ele>
        <time>2020-08-08T08:36:31Z</time>
      </trkpt>
      <trkpt lat="45.5429" lon="6.90945">
        <ele>1423.8</ele>
        <time>2020-08-08T08:36:33Z</time>
      </trkpt>
      <trkpt lat="45.54286" lon="6.90948">
        <ele>1424.1</ele>
        <time>2020-08-08T08:36:34Z</time>
      </trkpt>
      <trkpt lat="45.54281" lon="6.90952">
        <ele>1424.6</ele>
        <time>2020-08-08T08:36:35Z</time>
      </trkpt>
      <trkpt lat="45.54276" lon="6.90956">
        <ele>1425</ele>
        <time>2020-08-08T08:36:37Z</time>
      </trkpt>
      <trkpt lat="45.54264" lon="6.90964">
        <ele>1426</ele>
        <time>2020-08-08T08:36:39Z</time>
      </trkpt>
      <trkpt lat="45.54259" lon="6.90969">
        <ele>1426.4</ele>
        <time>2020-08-08T08:36:42Z</time>
      </trkpt>
      <trkpt lat="45.54257" lon="6.90972">
        <ele>1426.7</ele>
        <time>2020-08-08T08:36:43Z</time>
      </trkpt>
      <trkpt lat="45.54251" lon="6.90977">
        <ele>1427.2</ele>
        <time>2020-08-08T08:36:45Z</time>
      </trkpt>
      <trkpt lat="45.54248" lon="6.9098">
        <ele>1427.5</ele>
        <time>2020-08-08T08:36:46Z</time>
      </trkpt>
      <trkpt lat="45.54245" lon="6.90983">
        <ele>1427.8</ele>
        <time>2020-08-08T08:36:47Z</time>
      </trkpt>
      <trkpt lat="45.54238" lon="6.90991">
        <ele>1428.4</ele>
        <time>2020-08-08T08:36:48Z</time>
      </trkpt>
      <trkpt lat="45.54235" lon="6.90995">
        <ele>1428.7</ele>
        <time>2020-08-08T08:36:50Z</time>
      </trkpt>
      <trkpt lat="45.54229" lon="6.91002">
        <ele>1429.2</ele>
        <time>2020-08-08T08:36:52Z</time>
      </trkpt>
      <trkpt lat="45.54226" lon="6.91006">
        <ele>1429.6</ele>
        <time>2020-08-08T08:36:53Z</time>
      </trkpt>
      <trkpt lat="45.54222" lon="6.91012">
        <ele>1430</ele>
        <time>2020-08-08T08:36:55Z</time>
      </trkpt>
      <trkpt lat="45.54217" lon="6.91018">
        <ele>1430.5</ele>
        <time>2020-08-08T08:36:57Z</time>
      </trkpt>
      <trkpt lat="45.54213" lon="6.91023">
        <ele>1430.9</ele>
        <time>2020-08-08T08:36:59Z</time>
      </trkpt>
      <trkpt lat="45.54207" lon="6.91031">
        <ele>1431.6</ele>
        <time>2020-08-08T08:37:00Z</time>
      </trkpt>
      <trkpt lat="45.54204" lon="6.91037">
        <ele>1432</ele>
        <time>2020-08-08T08:37:01Z</time>
      </trkpt>
      <trkpt lat="45.542" lon="6.91041">
        <ele>1432.4</ele>
        <time>2020-08-08T08:37:03Z</time>
      </trkpt>
      <trkpt lat="45.54197" lon="6.91045">
        <ele>1432.7</ele>
        <time>2020-08-08T08:37:05Z</time>
      </trkpt>
      <trkpt lat="45.54195" lon="6.91049">
        <ele>1433</ele>
        <time>2020-08-08T08:37:06Z</time>
      </trkpt>
      <trkpt lat="45.5419" lon="6.91055">
        <ele>1433.5</ele>
        <time>2020-08-08T08:37:07Z</time>
      </trkpt>
      <trkpt lat="45.54186" lon="6.91059">
        <ele>1433.9</ele>
        <time>2020-08-08T08:37:08Z</time>
      </trkpt>
      <trkpt lat="45.5418" lon="6.91064">
        <ele>1434.4</ele>
        <time>2020-08-08T08:37:10Z</time>
      </trkpt>
      <trkpt lat="45.54176" lon="6.91066">
        <ele>1434.8</ele>
        <time>2020-08-08T08:37:12Z</time>
      </trkpt>
      <trkpt lat="45.54164" lon="6.91072">
        <ele>1435.8</ele>
        <time>2020-08-08T08:37:14Z</time>
      </trkpt>
      <trkpt lat="45.5416" lon="6.91074">
        <ele>1436.2</ele>
        <time>2020-08-08T08:37:16Z</time>
      </trkpt>
      <trkpt lat="45.54157" lon="6.91076">
        <ele>1436.5</ele>
        <time>2020-08-08T08:37:18Z</time>
      </trkpt>
      <trkpt lat="45.54154" lon="6.91077">
        <ele>1436.8</ele>
        <time>2020-08-08T08:37:19Z</time>
      </trkpt>
      <trkpt lat="45.54148" lon="6.91081">
        <ele>1437.3</ele>
        <time>2020-08-08T08:37:20Z</time>
      </trkpt>
      <trkpt lat="45.54139" lon="6.91086">
        <ele>1438</ele>
        <time>2020-08-08T08:37:22Z</time>
      </trkpt>
      <trkpt lat="45.54135" lon="6.91088">
        <ele>1438.4</ele>
        <time>2020-08-08T08:37:24Z</time>
      </trkpt>
      <trkpt lat="45.54131" lon="6.9109">
        <ele>1438.8</ele>
        <time>2020-08-08T08:37:25Z</time>
      </trkpt>
      <trkpt lat="45.54128" lon="6.91092">
        <ele>1439.1</ele>
        <time>2020-08-08T08:37:26Z</time>
      </trkpt>
      <trkpt lat="45.54123" lon="6.91094">
        <ele>1439.5</ele>
        <time>2020-08-08T08:37:27Z</time>
      </trkpt>
      <trkpt lat="45.54118" lon="6.91096">
        <ele>1440</ele>
        <time>2020-08-08T08:37:28Z</time>
      </trkpt>
      <trkpt lat="45.54112" lon="6.91098">
        <ele>1440.4</ele>
        <time>2020-08-08T08:37:31Z</time>
      </trkpt>
      <trkpt lat="45.54109" lon="6.911">
        <ele>1440.7</ele>
        <time>2020-08-08T08:37:32Z</time>
      </trkpt>
      <trkpt lat="45.54102" lon="6.91102">
        <ele>1441.3</ele>
        <time>2020-08-08T08:37:33Z</time>
      </trkpt>
      <trkpt lat="45.54098" lon="6.91103">
        <ele>1441.6</ele>
        <time>2020-08-08T08:37:34Z</time>
      </trkpt>
      <trkpt lat="45.54094" lon="6.91104">
        <ele>1441.9</ele>
        <time>2020-08-08T08:37:35Z</time>
      </trkpt>
      <trkpt lat="45.54089" lon="6.91104">
        <ele>1442.3</ele>
        <time>2020-08-08T08:37:37Z</time>
      </trkpt>
      <trkpt lat="45.54081" lon="6.91104">
        <ele>1443</ele>
        <time>2020-08-08T08:37:39Z</time>
      </trkpt>
      <trkpt lat="45.54076" lon="6.91104">
        <ele>1443.4</ele>
        <time>2020-08-08T08:37:40Z</time>
      </trkpt>
      <trkpt lat="45.54072" lon="6.91104">
        <ele>1443.7</ele>
        <time>2020-08-08T08:37:42Z</time>
      </trkpt>
      <trkpt lat="45.54068" lon="6.91102">
        <ele>1444.1</ele>
        <time>2020-08-08T08:37:43Z</time>
      </trkpt>
      <trkpt lat="45.54062" lon="6.91099">
        <ele>1444.6</ele>
        <time>2020-08-08T08:37:45Z</time>
      </trkpt>
      <trkpt lat="45.54053" lon="6.91091">
        <ele>1445.6</ele>
        <time>2020-08-08T08:37:47Z</time>
      </trkpt>
      <trkpt lat="45.54047" lon="6.91084">
        <ele>1446.4</ele>
        <time>2020-08-08T08:37:50Z</time>
      </trkpt>
      <trkpt lat="45.54043" lon="6.91081">
        <ele>1446.8</ele>
        <time>2020-08-08T08:37:52Z</time>
      </trkpt>
      <trkpt lat="45.54039" lon="6.91079">
        <ele>1447.2</ele>
        <time>2020-08-08T08:37:53Z</time>
      </trkpt>
      <trkpt lat="45.54034" lon="6.91078">
        <ele>1447.6</ele>
        <time>2020-08-08T08:37:54Z</time>
      </trkpt>
      <trkpt lat="45.5403" lon="6.91079">
        <ele>1448</ele>
        <time>2020-08-08T08:37:56Z</time>
      </trkpt>
      <trkpt lat="45.54025" lon="6.91081">
        <ele>1448.5</ele>
        <time>2020-08-08T08:37:57Z</time>
      </trkpt>
      <trkpt lat="45.54021" lon="6.91083">
        <ele>1448.9</ele>
        <time>2020-08-08T08:37:59Z</time>
      </trkpt>
      <trkpt lat="45.54017" lon="6.91085">
        <ele>1449.3</ele>
        <time>2020-08-08T08:38:01Z</time>
      </trkpt>
      <trkpt lat="45.54011" lon="6.91087">
        <ele>1449.9</ele>
        <time>2020-08-08T08:38:02Z</time>
      </trkpt>
      <trkpt lat="45.54007" lon="6.91089">
        <ele>1450.2</ele>
        <time>2020-08-08T08:38:03Z</time>
      </trkpt>
      <trkpt lat="45.53997" lon="6.91098">
        <ele>1451.3</ele>
        <time>2020-08-08T08:38:06Z</time>
      </trkpt>
      <trkpt lat="45.5399" lon="6.91106">
        <ele>1452</ele>
        <time>2020-08-08T08:38:09Z</time>
      </trkpt>
      <trkpt lat="45.53986" lon="6.91109">
        <ele>1452.4</ele>
        <time>2020-08-08T08:38:11Z</time>
      </trkpt>
      <trkpt lat="45.53983" lon="6.91111">
        <ele>1452.7</ele>
        <time>2020-08-08T08:38:12Z</time>
      </trkpt>
      <trkpt lat="45.53976" lon="6.91114">
        <ele>1453.3</ele>
        <time>2020-08-08T08:38:14Z</time>
      </trkpt>
      <trkpt lat="45.53973" lon="6.91116">
        <ele>1453.6</ele>
        <time>2020-08-08T08:38:15Z</time>
      </trkpt>
      <trkpt lat="45.53969" lon="6.91118">
        <ele>1454</ele>
        <time>2020-08-08T08:38:17Z</time>
      </trkpt>
      <trkpt lat="45.53963" lon="6.91122">
        <ele>1454.6</ele>
        <time>2020-08-08T08:38:19Z</time>
      </trkpt>
      <trkpt lat="45.5396" lon="6.91124">
        <ele>1454.9</ele>
        <time>2020-08-08T08:38:20Z</time>
      </trkpt>
      <trkpt lat="45.53956" lon="6.91127">
        <ele>1455.3</ele>
        <time>2020-08-08T08:38:23Z</time>
      </trkpt>
      <trkpt lat="45.53953" lon="6.91128">
        <ele>1455.6</ele>
        <time>2020-08-08T08:38:24Z</time>
      </trkpt>
      <trkpt lat="45.53948" lon="6.91132">
        <ele>1456.1</ele>
        <time>2020-08-08T08:38:25Z</time>
      </trkpt>
      <trkpt lat="45.53945" lon="6.91134">
        <ele>1456.4</ele>
        <time>2020-08-08T08:38:27Z</time>
      </trkpt>
      <trkpt lat="45.53942" lon="6.91136">
        <ele>1456.7</ele>
        <time>2020-08-08T08:38:28Z</time>
      </trkpt>
      <trkpt lat="45.53937" lon="6.9114">
        <ele>1457.2</ele>
        <time>2020-08-08T08:38:29Z</time>
      </trkpt>
      <trkpt lat="45.53932" lon="6.91143">
        <ele>1457.7</ele>
        <time>2020-08-08T08:38:30Z</time>
      </trkpt>
      <trkpt lat="45.53925" lon="6.91147">
        <ele>1458.3</ele>
        <time>2020-08-08T08:38:33Z</time>
      </trkpt>
      <trkpt lat="45.53922" lon="6.91148">
        <ele>1458.6</ele>
        <time>2020-08-08T08:38:34Z</time>
      </trkpt>
      <trkpt lat="45.53918" lon="6.91149">
        <ele>1458.9</ele>
        <time>2020-08-08T08:38:36Z</time>
      </trkpt>
      <trkpt lat="45.53909" lon="6.91151">
        <ele>1459.7</ele>
        <time>2020-08-08T08:38:37Z</time>
      </trkpt>
      <trkpt lat="45.53906" lon="6.91152">
        <ele>1460</ele>
        <time>2020-08-08T08:38:39Z</time>
      </trkpt>
      <trkpt lat="45.53902" lon="6.91151">
        <ele>1460.3</ele>
        <time>2020-08-08T08:38:40Z</time>
      </trkpt>
      <trkpt lat="45.53899" lon="6.91151">
        <ele>1460.6</ele>
        <time>2020-08-08T08:38:41Z</time>
      </trkpt>
      <trkpt lat="45.53893" lon="6.9115">
        <ele>1461.1</ele>
        <time>2020-08-08T08:38:43Z</time>
      </trkpt>
      <trkpt lat="45.5389" lon="6.91149">
        <ele>1461.4</ele>
        <time>2020-08-08T08:38:44Z</time>
      </trkpt>
      <trkpt lat="45.53885" lon="6.91148">
        <ele>1461.9</ele>
        <time>2020-08-08T08:38:45Z</time>
      </trkpt>
      <trkpt lat="45.53879" lon="6.91146">
        <ele>1462.3</ele>
        <time>2020-08-08T08:38:48Z</time>
      </trkpt>
      <trkpt lat="45.53871" lon="6.91145">
        <ele>1463</ele>
        <time>2020-08-08T08:38:49Z</time>
      </trkpt>
      <trkpt lat="45.53862" lon="6.91145">
        <ele>1463.7</ele>
        <time>2020-08-08T08:38:52Z</time>
      </trkpt>
      <trkpt lat="45.53858" lon="6.91145">
        <ele>1464</ele>
        <time>2020-08-08T08:38:53Z</time>
      </trkpt>
      <trkpt lat="45.53853" lon="6.91147">
        <ele>1464.4</ele>
        <time>2020-08-08T08:38:55Z</time>
      </trkpt>
      <trkpt lat="45.53849" lon="6.91148">
        <ele>1464.7</ele>
        <time>2020-08-08T08:38:57Z</time>
      </trkpt>
      <trkpt lat="45.53843" lon="6.9115">
        <ele>1465.2</ele>
        <time>2020-08-08T08:38:58Z</time>
      </trkpt>
      <trkpt lat="45.53836" lon="6.91153">
        <ele>1465.7</ele>
        <time>2020-08-08T08:38:59Z</time>
      </trkpt>
      <trkpt lat="45.5383" lon="6.91155">
        <ele>1466.1</ele>
        <time>2020-08-08T08:39:01Z</time>
      </trkpt>
      <trkpt lat="45.53823" lon="6.91157">
        <ele>1466.5</ele>
        <time>2020-08-08T08:39:03Z</time>
      </trkpt>
      <trkpt lat="45.53813" lon="6.91164">
        <ele>1467.3</ele>
        <time>2020-08-08T08:39:05Z</time>
      </trkpt>
      <trkpt lat="45.53805" lon="6.91169">
        <ele>1468</ele>
        <time>2020-08-08T08:39:08Z</time>
      </trkpt>
      <trkpt lat="45.53802" lon="6.91171">
        <ele>1468.2</ele>
        <time>2020-08-08T08:39:09Z</time>
      </trkpt>
      <trkpt lat="45.53796" lon="6.91175">
        <ele>1468.7</ele>
        <time>2020-08-08T08:39:11Z</time>
      </trkpt>
      <trkpt lat="45.53791" lon="6.91179">
        <ele>1469.1</ele>
        <time>2020-08-08T08:39:13Z</time>
      </trkpt>
      <trkpt lat="45.53784" lon="6.91185">
        <ele>1469.8</ele>
        <time>2020-08-08T08:39:15Z</time>
      </trkpt>
      <trkpt lat="45.53779" lon="6.91189">
        <ele>1470.2</ele>
        <time>2020-08-08T08:39:17Z</time>
      </trkpt>
      <trkpt lat="45.53776" lon="6.91192">
        <ele>1470.5</ele>
        <time>2020-08-08T08:39:19Z</time>
      </trkpt>
      <trkpt lat="45.53773" lon="6.91196">
        <ele>1470.9</ele>
        <time>2020-08-08T08:39:20Z</time>
      </trkpt>
      <trkpt lat="45.53767" lon="6.91202">
        <ele>1471.5</ele>
        <time>2020-08-08T08:39:22Z</time>
      </trkpt>
      <trkpt lat="45.53761" lon="6.91209">
        <ele>1472.2</ele>
        <time>2020-08-08T08:39:23Z</time>
      </trkpt>
      <trkpt lat="45.53757" lon="6.91213">
        <ele>1472.6</ele>
        <time>2020-08-08T08:39:25Z</time>
      </trkpt>
      <trkpt lat="45.53754" lon="6.91216">
        <ele>1472.9</ele>
        <time>2020-08-08T08:39:27Z</time>
      </trkpt>
      <trkpt lat="45.53748" lon="6.91223">
        <ele>1473.6</ele>
        <time>2020-08-08T08:39:28Z</time>
      </trkpt>
      <trkpt lat="45.53743" lon="6.91229">
        <ele>1474.1</ele>
        <time>2020-08-08T08:39:31Z</time>
      </trkpt>
      <trkpt lat="45.53739" lon="6.91235">
        <ele>1474.6</ele>
        <time>2020-08-08T08:39:32Z</time>
      </trkpt>
      <trkpt lat="45.53733" lon="6.91243">
        <ele>1475.3</ele>
        <time>2020-08-08T08:39:34Z</time>
      </trkpt>
      <trkpt lat="45.53729" lon="6.91249">
        <ele>1475.8</ele>
        <time>2020-08-08T08:39:37Z</time>
      </trkpt>
      <trkpt lat="45.53725" lon="6.91254">
        <ele>1476.2</ele>
        <time>2020-08-08T08:39:38Z</time>
      </trkpt>
      <trkpt lat="45.53723" lon="6.91257">
        <ele>1476.5</ele>
        <time>2020-08-08T08:39:39Z</time>
      </trkpt>
      <trkpt lat="45.5372" lon="6.9126">
        <ele>1476.7</ele>
        <time>2020-08-08T08:39:40Z</time>
      </trkpt>
      <trkpt lat="45.53717" lon="6.91266">
        <ele>1477.2</ele>
        <time>2020-08-08T08:39:41Z</time>
      </trkpt>
      <trkpt lat="45.53713" lon="6.9127">
        <ele>1477.5</ele>
        <time>2020-08-08T08:39:44Z</time>
      </trkpt>
      <trkpt lat="45.53706" lon="6.91281">
        <ele>1478.4</ele>
        <time>2020-08-08T08:39:46Z</time>
      </trkpt>
      <trkpt lat="45.53703" lon="6.91285">
        <ele>1478.8</ele>
        <time>2020-08-08T08:39:47Z</time>
      </trkpt>
      <trkpt lat="45.53699" lon="6.9129">
        <ele>1479.2</ele>
        <time>2020-08-08T08:39:50Z</time>
      </trkpt>
      <trkpt lat="45.53694" lon="6.91295">
        <ele>1479.7</ele>
        <time>2020-08-08T08:39:51Z</time>
      </trkpt>
      <trkpt lat="45.53691" lon="6.91299">
        <ele>1480</ele>
        <time>2020-08-08T08:39:52Z</time>
      </trkpt>
      <trkpt lat="45.53687" lon="6.91305">
        <ele>1480.5</ele>
        <time>2020-08-08T08:39:54Z</time>
      </trkpt>
      <trkpt lat="45.53683" lon="6.91317">
        <ele>1481.3</ele>
        <time>2020-08-08T08:39:56Z</time>
      </trkpt>
      <trkpt lat="45.5368" lon="6.91324">
        <ele>1481.8</ele>
        <time>2020-08-08T08:39:58Z</time>
      </trkpt>
      <trkpt lat="45.53679" lon="6.91332">
        <ele>1482.2</ele>
        <time>2020-08-08T08:39:59Z</time>
      </trkpt>
      <trkpt lat="45.53677" lon="6.91339">
        <ele>1482.7</ele>
        <time>2020-08-08T08:40:02Z</time>
      </trkpt>
      <trkpt lat="45.53674" lon="6.91352">
        <ele>1483.4</ele>
        <time>2020-08-08T08:40:03Z</time>
      </trkpt>
      <trkpt lat="45.53672" lon="6.9136">
        <ele>1483.9</ele>
        <time>2020-08-08T08:40:05Z</time>
      </trkpt>
      <trkpt lat="45.5367" lon="6.91366">
        <ele>1484.2</ele>
        <time>2020-08-08T08:40:07Z</time>
      </trkpt>
      <trkpt lat="45.53668" lon="6.91375">
        <ele>1484.7</ele>
        <time>2020-08-08T08:40:08Z</time>
      </trkpt>
      <trkpt lat="45.53664" lon="6.91386">
        <ele>1485.4</ele>
        <time>2020-08-08T08:40:11Z</time>
      </trkpt>
      <trkpt lat="45.53661" lon="6.91397">
        <ele>1485.5</ele>
        <time>2020-08-08T08:40:12Z</time>
      </trkpt>
      <trkpt lat="45.53659" lon="6.91402">
        <ele>1486.4</ele>
        <time>2020-08-08T08:40:14Z</time>
      </trkpt>
      <trkpt lat="45.53656" lon="6.91409">
        <ele>1488.2</ele>
        <time>2020-08-08T08:40:15Z</time>
      </trkpt>
      <trkpt lat="45.53653" lon="6.91413">
        <ele>1489.2</ele>
        <time>2020-08-08T08:40:16Z</time>
      </trkpt>
      <trkpt lat="45.53651" lon="6.91416">
        <ele>1490.1</ele>
        <time>2020-08-08T08:40:18Z</time>
      </trkpt>
      <trkpt lat="45.53648" lon="6.91419">
        <ele>1491.1</ele>
        <time>2020-08-08T08:40:20Z</time>
      </trkpt>
      <trkpt lat="45.53643" lon="6.91421">
        <ele>1492.5</ele>
        <time>2020-08-08T08:40:22Z</time>
      </trkpt>
      <trkpt lat="45.53641" lon="6.91422">
        <ele>1493</ele>
        <time>2020-08-08T08:40:23Z</time>
      </trkpt>
      <trkpt lat="45.53637" lon="6.91422">
        <ele>1493.9</ele>
        <time>2020-08-08T08:40:25Z</time>
      </trkpt>
      <trkpt lat="45.53634" lon="6.91422">
        <ele>1494.8</ele>
        <time>2020-08-08T08:40:26Z</time>
      </trkpt>
      <trkpt lat="45.53629" lon="6.91421">
        <ele>1496</ele>
        <time>2020-08-08T08:40:27Z</time>
      </trkpt>
      <trkpt lat="45.53621" lon="6.91423">
        <ele>1497.8</ele>
        <time>2020-08-08T08:40:30Z</time>
      </trkpt>
      <trkpt lat="45.53618" lon="6.91425">
        <ele>1497.9</ele>
        <time>2020-08-08T08:40:31Z</time>
      </trkpt>
      <trkpt lat="45.5361" lon="6.91426">
        <ele>1498.1</ele>
        <time>2020-08-08T08:40:34Z</time>
      </trkpt>
      <trkpt lat="45.53605" lon="6.91427">
        <ele>1498.1</ele>
        <time>2020-08-08T08:40:36Z</time>
      </trkpt>
      <trkpt lat="45.53599" lon="6.91428">
        <ele>1498.2</ele>
        <time>2020-08-08T08:40:37Z</time>
      </trkpt>
      <trkpt lat="45.53591" lon="6.91428">
        <ele>1498.3</ele>
        <time>2020-08-08T08:40:39Z</time>
      </trkpt>
      <trkpt lat="45.53582" lon="6.91428">
        <ele>1498.3</ele>
        <time>2020-08-08T08:40:41Z</time>
      </trkpt>
      <trkpt lat="45.53579" lon="6.91429">
        <ele>1498.3</ele>
        <time>2020-08-08T08:40:42Z</time>
      </trkpt>
      <trkpt lat="45.53573" lon="6.9143">
        <ele>1498.3</ele>
        <time>2020-08-08T08:40:43Z</time>
      </trkpt>
      <trkpt lat="45.53568" lon="6.91432">
        <ele>1498.3</ele>
        <time>2020-08-08T08:40:44Z</time>
      </trkpt>
      <trkpt lat="45.53561" lon="6.91436">
        <ele>1498.4</ele>
        <time>2020-08-08T08:40:47Z</time>
      </trkpt>
      <trkpt lat="45.53558" lon="6.91437">
        <ele>1498.5</ele>
        <time>2020-08-08T08:40:48Z</time>
      </trkpt>
      <trkpt lat="45.53553" lon="6.9144">
        <ele>1498.5</ele>
        <time>2020-08-08T08:40:50Z</time>
      </trkpt>
      <trkpt lat="45.5355" lon="6.91442">
        <ele>1498.5</ele>
        <time>2020-08-08T08:40:52Z</time>
      </trkpt>
      <trkpt lat="45.53544" lon="6.91445">
        <ele>1498.4</ele>
        <time>2020-08-08T08:40:54Z</time>
      </trkpt>
      <trkpt lat="45.53537" lon="6.91448">
        <ele>1498.5</ele>
        <time>2020-08-08T08:40:56Z</time>
      </trkpt>
      <trkpt lat="45.53532" lon="6.9145">
        <ele>1498.6</ele>
        <time>2020-08-08T08:40:57Z</time>
      </trkpt>
      <trkpt lat="45.53525" lon="6.91452">
        <ele>1498.8</ele>
        <time>2020-08-08T08:41:00Z</time>
      </trkpt>
      <trkpt lat="45.53523" lon="6.91453">
        <ele>1498.9</ele>
        <time>2020-08-08T08:41:01Z</time>
      </trkpt>
      <trkpt lat="45.5352" lon="6.91453">
        <ele>1499</ele>
        <time>2020-08-08T08:41:02Z</time>
      </trkpt>
      <trkpt lat="45.53517" lon="6.91454">
        <ele>1499.1</ele>
        <time>2020-08-08T08:41:04Z</time>
      </trkpt>
      <trkpt lat="45.53512" lon="6.91454">
        <ele>1499.3</ele>
        <time>2020-08-08T08:41:05Z</time>
      </trkpt>
      <trkpt lat="45.53507" lon="6.91453">
        <ele>1499.4</ele>
        <time>2020-08-08T08:41:06Z</time>
      </trkpt>
      <trkpt lat="45.53504" lon="6.91452">
        <ele>1499.5</ele>
        <time>2020-08-08T08:41:07Z</time>
      </trkpt>
      <trkpt lat="45.535" lon="6.91451">
        <ele>1499.6</ele>
        <time>2020-08-08T08:41:09Z</time>
      </trkpt>
      <trkpt lat="45.53494" lon="6.91449">
        <ele>1499.8</ele>
        <time>2020-08-08T08:41:11Z</time>
      </trkpt>
      <trkpt lat="45.53491" lon="6.91449">
        <ele>1499.9</ele>
        <time>2020-08-08T08:41:12Z</time>
      </trkpt>
      <trkpt lat="45.53481" lon="6.91453">
        <ele>1500.1</ele>
        <time>2020-08-08T08:41:15Z</time>
      </trkpt>
      <trkpt lat="45.53477" lon="6.91454">
        <ele>1500.3</ele>
        <time>2020-08-08T08:41:18Z</time>
      </trkpt>
      <trkpt lat="45.53475" lon="6.91455">
        <ele>1500.3</ele>
        <time>2020-08-08T08:41:19Z</time>
      </trkpt>
      <trkpt lat="45.5347" lon="6.91456">
        <ele>1500.4</ele>
        <time>2020-08-08T08:41:20Z</time>
      </trkpt>
      <trkpt lat="45.53468" lon="6.91457">
        <ele>1500.5</ele>
        <time>2020-08-08T08:41:21Z</time>
      </trkpt>
      <trkpt lat="45.5346" lon="6.91459">
        <ele>1500.6</ele>
        <time>2020-08-08T08:41:23Z</time>
      </trkpt>
      <trkpt lat="45.53455" lon="6.91461">
        <ele>1500.7</ele>
        <time>2020-08-08T08:41:25Z</time>
      </trkpt>
      <trkpt lat="45.53451" lon="6.91463">
        <ele>1500.7</ele>
        <time>2020-08-08T08:41:27Z</time>
      </trkpt>
      <trkpt lat="45.53447" lon="6.91465">
        <ele>1500.8</ele>
        <time>2020-08-08T08:41:28Z</time>
      </trkpt>
      <trkpt lat="45.53444" lon="6.91466">
        <ele>1500.8</ele>
        <time>2020-08-08T08:41:29Z</time>
      </trkpt>
      <trkpt lat="45.53442" lon="6.91467">
        <ele>1500.9</ele>
        <time>2020-08-08T08:41:30Z</time>
      </trkpt>
      <trkpt lat="45.53438" lon="6.91469">
        <ele>1500.9</ele>
        <time>2020-08-08T08:41:33Z</time>
      </trkpt>
      <trkpt lat="45.53434" lon="6.91472">
        <ele>1501</ele>
        <time>2020-08-08T08:41:34Z</time>
      </trkpt>
      <trkpt lat="45.53431" lon="6.91473">
        <ele>1501</ele>
        <time>2020-08-08T08:41:36Z</time>
      </trkpt>
      <trkpt lat="45.53428" lon="6.91474">
        <ele>1501</ele>
        <time>2020-08-08T08:41:37Z</time>
      </trkpt>
      <trkpt lat="45.53423" lon="6.91477">
        <ele>1501.1</ele>
        <time>2020-08-08T08:41:39Z</time>
      </trkpt>
      <trkpt lat="45.53418" lon="6.91478">
        <ele>1501.2</ele>
        <time>2020-08-08T08:41:40Z</time>
      </trkpt>
      <trkpt lat="45.53415" lon="6.9148">
        <ele>1501.2</ele>
        <time>2020-08-08T08:41:42Z</time>
      </trkpt>
      <trkpt lat="45.53411" lon="6.91482">
        <ele>1501.3</ele>
        <time>2020-08-08T08:41:43Z</time>
      </trkpt>
      <trkpt lat="45.53408" lon="6.91483">
        <ele>1501.4</ele>
        <time>2020-08-08T08:41:44Z</time>
      </trkpt>
      <trkpt lat="45.53403" lon="6.91486">
        <ele>1501.4</ele>
        <time>2020-08-08T08:41:46Z</time>
      </trkpt>
      <trkpt lat="45.53401" lon="6.91487">
        <ele>1501.5</ele>
        <time>2020-08-08T08:41:48Z</time>
      </trkpt>
      <trkpt lat="45.53398" lon="6.91488">
        <ele>1501.5</ele>
        <time>2020-08-08T08:41:49Z</time>
      </trkpt>
      <trkpt lat="45.53393" lon="6.91489">
        <ele>1501.6</ele>
        <time>2020-08-08T08:41:50Z</time>
      </trkpt>
      <trkpt lat="45.53386" lon="6.91491">
        <ele>1501.8</ele>
        <time>2020-08-08T08:41:52Z</time>
      </trkpt>
      <trkpt lat="45.5338" lon="6.91492">
        <ele>1501.9</ele>
        <time>2020-08-08T08:41:55Z</time>
      </trkpt>
      <trkpt lat="45.53377" lon="6.91493">
        <ele>1502</ele>
        <time>2020-08-08T08:41:56Z</time>
      </trkpt>
      <trkpt lat="45.53375" lon="6.91493">
        <ele>1502</ele>
        <time>2020-08-08T08:41:57Z</time>
      </trkpt>
      <trkpt lat="45.53371" lon="6.91495">
        <ele>1502.1</ele>
        <time>2020-08-08T08:41:58Z</time>
      </trkpt>
      <trkpt lat="45.53367" lon="6.91495">
        <ele>1502.2</ele>
        <time>2020-08-08T08:42:01Z</time>
      </trkpt>
      <trkpt lat="45.53364" lon="6.91495">
        <ele>1502.3</ele>
        <time>2020-08-08T08:42:02Z</time>
      </trkpt>
      <trkpt lat="45.5336" lon="6.91496">
        <ele>1502.4</ele>
        <time>2020-08-08T08:42:03Z</time>
      </trkpt>
      <trkpt lat="45.53357" lon="6.91496">
        <ele>1502.4</ele>
        <time>2020-08-08T08:42:04Z</time>
      </trkpt>
      <trkpt lat="45.53353" lon="6.91496">
        <ele>1502.5</ele>
        <time>2020-08-08T08:42:06Z</time>
      </trkpt>
      <trkpt lat="45.53346" lon="6.91495">
        <ele>1502.7</ele>
        <time>2020-08-08T08:42:08Z</time>
      </trkpt>
      <trkpt lat="45.53342" lon="6.91495">
        <ele>1502.8</ele>
        <time>2020-08-08T08:42:10Z</time>
      </trkpt>
      <trkpt lat="45.53338" lon="6.91495">
        <ele>1502.8</ele>
        <time>2020-08-08T08:42:11Z</time>
      </trkpt>
      <trkpt lat="45.53334" lon="6.91495">
        <ele>1502.9</ele>
        <time>2020-08-08T08:42:13Z</time>
      </trkpt>
      <trkpt lat="45.5333" lon="6.91495">
        <ele>1503</ele>
        <time>2020-08-08T08:42:15Z</time>
      </trkpt>
      <trkpt lat="45.53326" lon="6.91495">
        <ele>1503.1</ele>
        <time>2020-08-08T08:42:17Z</time>
      </trkpt>
      <trkpt lat="45.53323" lon="6.91494">
        <ele>1503.2</ele>
        <time>2020-08-08T08:42:18Z</time>
      </trkpt>
      <trkpt lat="45.53316" lon="6.91494">
        <ele>1503.3</ele>
        <time>2020-08-08T08:42:20Z</time>
      </trkpt>
      <trkpt lat="45.5331" lon="6.91496">
        <ele>1503.4</ele>
        <time>2020-08-08T08:42:23Z</time>
      </trkpt>
      <trkpt lat="45.53307" lon="6.91496">
        <ele>1503.4</ele>
        <time>2020-08-08T08:42:24Z</time>
      </trkpt>
      <trkpt lat="45.533" lon="6.91498">
        <ele>1503.4</ele>
        <time>2020-08-08T08:42:26Z</time>
      </trkpt>
      <trkpt lat="45.53297" lon="6.91499">
        <ele>1503.4</ele>
        <time>2020-08-08T08:42:27Z</time>
      </trkpt>
      <trkpt lat="45.53293" lon="6.915">
        <ele>1503.3</ele>
        <time>2020-08-08T08:42:30Z</time>
      </trkpt>
      <trkpt lat="45.5329" lon="6.91501">
        <ele>1503.3</ele>
        <time>2020-08-08T08:42:31Z</time>
      </trkpt>
      <trkpt lat="45.53285" lon="6.91503">
        <ele>1503.3</ele>
        <time>2020-08-08T08:42:32Z</time>
      </trkpt>
      <trkpt lat="45.53275" lon="6.91505">
        <ele>1503.1</ele>
        <time>2020-08-08T08:42:34Z</time>
      </trkpt>
      <trkpt lat="45.53271" lon="6.91507">
        <ele>1503</ele>
        <time>2020-08-08T08:42:35Z</time>
      </trkpt>
      <trkpt lat="45.53265" lon="6.91508">
        <ele>1502.9</ele>
        <time>2020-08-08T08:42:37Z</time>
      </trkpt>
      <trkpt lat="45.53257" lon="6.91509">
        <ele>1502.7</ele>
        <time>2020-08-08T08:42:39Z</time>
      </trkpt>
      <trkpt lat="45.53251" lon="6.9151">
        <ele>1502.5</ele>
        <time>2020-08-08T08:42:40Z</time>
      </trkpt>
      <trkpt lat="45.53246" lon="6.91512">
        <ele>1502.4</ele>
        <time>2020-08-08T08:42:43Z</time>
      </trkpt>
      <trkpt lat="45.53239" lon="6.91513">
        <ele>1502.2</ele>
        <time>2020-08-08T08:42:44Z</time>
      </trkpt>
      <trkpt lat="45.53234" lon="6.91514">
        <ele>1502</ele>
        <time>2020-08-08T08:42:46Z</time>
      </trkpt>
      <trkpt lat="45.53224" lon="6.91517">
        <ele>1504.1</ele>
        <time>2020-08-08T08:42:47Z</time>
      </trkpt>
      <trkpt lat="45.53216" lon="6.91518">
        <ele>1505.8</ele>
        <time>2020-08-08T08:42:50Z</time>
      </trkpt>
      <trkpt lat="45.53213" lon="6.91519">
        <ele>1506.4</ele>
        <time>2020-08-08T08:42:51Z</time>
      </trkpt>
      <trkpt lat="45.53205" lon="6.91522">
        <ele>1508.3</ele>
        <time>2020-08-08T08:42:53Z</time>
      </trkpt>
      <trkpt lat="45.532" lon="6.91524">
        <ele>1509.4</ele>
        <time>2020-08-08T08:42:55Z</time>
      </trkpt>
      <trkpt lat="45.53197" lon="6.91526">
        <ele>1510.2</ele>
        <time>2020-08-08T08:42:56Z</time>
      </trkpt>
      <trkpt lat="45.53194" lon="6.91529">
        <ele>1511.1</ele>
        <time>2020-08-08T08:42:57Z</time>
      </trkpt>
      <trkpt lat="45.53191" lon="6.91531">
        <ele>1511.9</ele>
        <time>2020-08-08T08:42:59Z</time>
      </trkpt>
      <trkpt lat="45.5319" lon="6.91532">
        <ele>1512.7</ele>
        <time>2020-08-08T08:43:00Z</time>
      </trkpt>
      <trkpt lat="45.53187" lon="6.91529">
        <ele>1511.7</ele>
        <time>2020-08-08T08:43:02Z</time>
      </trkpt>
      <trkpt lat="45.53184" lon="6.91531">
        <ele>1514.4</ele>
        <time>2020-08-08T08:43:03Z</time>
      </trkpt>
      <trkpt lat="45.53182" lon="6.91532">
        <ele>1515.1</ele>
        <time>2020-08-08T08:43:04Z</time>
      </trkpt>
      <trkpt lat="45.5318" lon="6.91533">
        <ele>1515.9</ele>
        <time>2020-08-08T08:43:06Z</time>
      </trkpt>
      <trkpt lat="45.53177" lon="6.91534">
        <ele>1518.6</ele>
        <time>2020-08-08T08:43:07Z</time>
      </trkpt>
      <trkpt lat="45.53175" lon="6.91534">
        <ele>1519.5</ele>
        <time>2020-08-08T08:43:09Z</time>
      </trkpt>
      <trkpt lat="45.53169" lon="6.91531">
        <ele>1518.8</ele>
        <time>2020-08-08T08:43:11Z</time>
      </trkpt>
      <trkpt lat="45.53168" lon="6.91529">
        <ele>1517.7</ele>
        <time>2020-08-08T08:43:12Z</time>
      </trkpt>
      <trkpt lat="45.53167" lon="6.91526">
        <ele>1518.6</ele>
        <time>2020-08-08T08:43:14Z</time>
      </trkpt>
      <trkpt lat="45.53166" lon="6.91522">
        <ele>1517.6</ele>
        <time>2020-08-08T08:43:15Z</time>
      </trkpt>
      <trkpt lat="45.53161" lon="6.91514">
        <ele>1514.9</ele>
        <time>2020-08-08T08:43:18Z</time>
      </trkpt>
      <trkpt lat="45.53153" lon="6.91528">
        <ele>1521.7</ele>
        <time>2020-08-08T08:43:21Z</time>
      </trkpt>
      <trkpt lat="45.53147" lon="6.91531">
        <ele>1524.6</ele>
        <time>2020-08-08T08:43:22Z</time>
      </trkpt>
      <trkpt lat="45.53139" lon="6.91535">
        <ele>1528.2</ele>
        <time>2020-08-08T08:43:24Z</time>
      </trkpt>
      <trkpt lat="45.53133" lon="6.91537">
        <ele>1529.9</ele>
        <time>2020-08-08T08:43:26Z</time>
      </trkpt>
      <trkpt lat="45.53125" lon="6.91533">
        <ele>1529.8</ele>
        <time>2020-08-08T08:43:28Z</time>
      </trkpt>
      <trkpt lat="45.53119" lon="6.9153">
        <ele>1529.9</ele>
        <time>2020-08-08T08:43:29Z</time>
      </trkpt>
      <trkpt lat="45.53115" lon="6.91525">
        <ele>1530</ele>
        <time>2020-08-08T08:43:31Z</time>
      </trkpt>
      <trkpt lat="45.53112" lon="6.91521">
        <ele>1530.1</ele>
        <time>2020-08-08T08:43:32Z</time>
      </trkpt>
      <trkpt lat="45.53101" lon="6.91509">
        <ele>1530.3</ele>
        <time>2020-08-08T08:43:34Z</time>
      </trkpt>
      <trkpt lat="45.53091" lon="6.915">
        <ele>1530.5</ele>
        <time>2020-08-08T08:43:35Z</time>
      </trkpt>
      <trkpt lat="45.53085" lon="6.91495">
        <ele>1530.7</ele>
        <time>2020-08-08T08:43:36Z</time>
      </trkpt>
      <trkpt lat="45.53079" lon="6.91493">
        <ele>1530.9</ele>
        <time>2020-08-08T08:43:39Z</time>
      </trkpt>
      <trkpt lat="45.5307" lon="6.91488">
        <ele>1531.2</ele>
        <time>2020-08-08T08:43:40Z</time>
      </trkpt>
      <trkpt lat="45.53064" lon="6.91486">
        <ele>1531.3</ele>
        <time>2020-08-08T08:43:43Z</time>
      </trkpt>
      <trkpt lat="45.53058" lon="6.91485">
        <ele>1531.5</ele>
        <time>2020-08-08T08:43:44Z</time>
      </trkpt>
      <trkpt lat="45.53055" lon="6.91484">
        <ele>1531.6</ele>
        <time>2020-08-08T08:43:45Z</time>
      </trkpt>
      <trkpt lat="45.53049" lon="6.91482">
        <ele>1531.8</ele>
        <time>2020-08-08T08:43:46Z</time>
      </trkpt>
      <trkpt lat="45.53043" lon="6.9148">
        <ele>1531.9</ele>
        <time>2020-08-08T08:43:48Z</time>
      </trkpt>
      <trkpt lat="45.5304" lon="6.91479">
        <ele>1532</ele>
        <time>2020-08-08T08:43:49Z</time>
      </trkpt>
      <trkpt lat="45.53034" lon="6.91478">
        <ele>1532.2</ele>
        <time>2020-08-08T08:43:51Z</time>
      </trkpt>
      <trkpt lat="45.53026" lon="6.91474">
        <ele>1532.6</ele>
        <time>2020-08-08T08:43:53Z</time>
      </trkpt>
      <trkpt lat="45.53022" lon="6.91472">
        <ele>1532.7</ele>
        <time>2020-08-08T08:43:54Z</time>
      </trkpt>
      <trkpt lat="45.53018" lon="6.91469">
        <ele>1532.9</ele>
        <time>2020-08-08T08:43:55Z</time>
      </trkpt>
      <trkpt lat="45.53011" lon="6.91463">
        <ele>1533.3</ele>
        <time>2020-08-08T08:43:58Z</time>
      </trkpt>
      <trkpt lat="45.53002" lon="6.91455">
        <ele>1533.8</ele>
        <time>2020-08-08T08:44:01Z</time>
      </trkpt>
      <trkpt lat="45.52998" lon="6.91452">
        <ele>1534</ele>
        <time>2020-08-08T08:44:03Z</time>
      </trkpt>
      <trkpt lat="45.52994" lon="6.91448">
        <ele>1534.3</ele>
        <time>2020-08-08T08:44:04Z</time>
      </trkpt>
      <trkpt lat="45.52991" lon="6.91444">
        <ele>1534.5</ele>
        <time>2020-08-08T08:44:05Z</time>
      </trkpt>
      <trkpt lat="45.52987" lon="6.9144">
        <ele>1534.7</ele>
        <time>2020-08-08T08:44:07Z</time>
      </trkpt>
      <trkpt lat="45.52982" lon="6.91433">
        <ele>1535</ele>
        <time>2020-08-08T08:44:09Z</time>
      </trkpt>
      <trkpt lat="45.5298" lon="6.9143">
        <ele>1535.2</ele>
        <time>2020-08-08T08:44:10Z</time>
      </trkpt>
      <trkpt lat="45.52976" lon="6.91423">
        <ele>1535.5</ele>
        <time>2020-08-08T08:44:13Z</time>
      </trkpt>
      <trkpt lat="45.52973" lon="6.9142">
        <ele>1535.7</ele>
        <time>2020-08-08T08:44:14Z</time>
      </trkpt>
      <trkpt lat="45.52971" lon="6.91416">
        <ele>1535.8</ele>
        <time>2020-08-08T08:44:15Z</time>
      </trkpt>
      <trkpt lat="45.52966" lon="6.91409">
        <ele>1536.2</ele>
        <time>2020-08-08T08:44:16Z</time>
      </trkpt>
      <trkpt lat="45.52963" lon="6.91405">
        <ele>1536.5</ele>
        <time>2020-08-08T08:44:18Z</time>
      </trkpt>
      <trkpt lat="45.5296" lon="6.91402">
        <ele>1536.6</ele>
        <time>2020-08-08T08:44:19Z</time>
      </trkpt>
      <trkpt lat="45.52957" lon="6.914">
        <ele>1536.8</ele>
        <time>2020-08-08T08:44:21Z</time>
      </trkpt>
      <trkpt lat="45.52949" lon="6.91393">
        <ele>1537.3</ele>
        <time>2020-08-08T08:44:23Z</time>
      </trkpt>
      <trkpt lat="45.52945" lon="6.91389">
        <ele>1537.6</ele>
        <time>2020-08-08T08:44:26Z</time>
      </trkpt>
      <trkpt lat="45.52941" lon="6.91385">
        <ele>1537.8</ele>
        <time>2020-08-08T08:44:27Z</time>
      </trkpt>
      <trkpt lat="45.52938" lon="6.91382">
        <ele>1538</ele>
        <time>2020-08-08T08:44:29Z</time>
      </trkpt>
      <trkpt lat="45.52933" lon="6.91378">
        <ele>1538.4</ele>
        <time>2020-08-08T08:44:31Z</time>
      </trkpt>
      <trkpt lat="45.52927" lon="6.91373">
        <ele>1538.8</ele>
        <time>2020-08-08T08:44:33Z</time>
      </trkpt>
      <trkpt lat="45.52922" lon="6.9137">
        <ele>1539</ele>
        <time>2020-08-08T08:44:34Z</time>
      </trkpt>
      <trkpt lat="45.52914" lon="6.91366">
        <ele>1539.5</ele>
        <time>2020-08-08T08:44:36Z</time>
      </trkpt>
      <trkpt lat="45.52908" lon="6.91365">
        <ele>1539.9</ele>
        <time>2020-08-08T08:44:39Z</time>
      </trkpt>
      <trkpt lat="45.52905" lon="6.91364">
        <ele>1540.1</ele>
        <time>2020-08-08T08:44:40Z</time>
      </trkpt>
      <trkpt lat="45.529" lon="6.91363">
        <ele>1540.4</ele>
        <time>2020-08-08T08:44:41Z</time>
      </trkpt>
      <trkpt lat="45.52896" lon="6.91362">
        <ele>1540.7</ele>
        <time>2020-08-08T08:44:43Z</time>
      </trkpt>
      <trkpt lat="45.52891" lon="6.91361">
        <ele>1540.9</ele>
        <time>2020-08-08T08:44:45Z</time>
      </trkpt>
      <trkpt lat="45.52884" lon="6.91361">
        <ele>1541.3</ele>
        <time>2020-08-08T08:44:47Z</time>
      </trkpt>
      <trkpt lat="45.52881" lon="6.91361">
        <ele>1541.5</ele>
        <time>2020-08-08T08:44:48Z</time>
      </trkpt>
      <trkpt lat="45.52877" lon="6.91359">
        <ele>1541.8</ele>
        <time>2020-08-08T08:44:49Z</time>
      </trkpt>
      <trkpt lat="45.52874" lon="6.91358">
        <ele>1542</ele>
        <time>2020-08-08T08:44:51Z</time>
      </trkpt>
      <trkpt lat="45.52868" lon="6.91356">
        <ele>1542.4</ele>
        <time>2020-08-08T08:44:53Z</time>
      </trkpt>
      <trkpt lat="45.52864" lon="6.91355">
        <ele>1542.5</ele>
        <time>2020-08-08T08:44:54Z</time>
      </trkpt>
      <trkpt lat="45.5286" lon="6.91354">
        <ele>1542.8</ele>
        <time>2020-08-08T08:44:55Z</time>
      </trkpt>
      <trkpt lat="45.52856" lon="6.91354">
        <ele>1543</ele>
        <time>2020-08-08T08:44:57Z</time>
      </trkpt>
      <trkpt lat="45.52852" lon="6.91353">
        <ele>1543.2</ele>
        <time>2020-08-08T08:44:59Z</time>
      </trkpt>
      <trkpt lat="45.52849" lon="6.91352">
        <ele>1543.4</ele>
        <time>2020-08-08T08:45:00Z</time>
      </trkpt>
      <trkpt lat="45.52846" lon="6.9135">
        <ele>1543.6</ele>
        <time>2020-08-08T08:45:01Z</time>
      </trkpt>
      <trkpt lat="45.5284" lon="6.91346">
        <ele>1543.9</ele>
        <time>2020-08-08T08:45:02Z</time>
      </trkpt>
      <trkpt lat="45.52836" lon="6.91343">
        <ele>1544.2</ele>
        <time>2020-08-08T08:45:04Z</time>
      </trkpt>
      <trkpt lat="45.5283" lon="6.9134">
        <ele>1544.6</ele>
        <time>2020-08-08T08:45:06Z</time>
      </trkpt>
      <trkpt lat="45.52824" lon="6.91337">
        <ele>1545</ele>
        <time>2020-08-08T08:45:09Z</time>
      </trkpt>
      <trkpt lat="45.52821" lon="6.91336">
        <ele>1545.1</ele>
        <time>2020-08-08T08:45:10Z</time>
      </trkpt>
      <trkpt lat="45.52818" lon="6.91335">
        <ele>1545.3</ele>
        <time>2020-08-08T08:45:11Z</time>
      </trkpt>
      <trkpt lat="45.52812" lon="6.91332">
        <ele>1545.7</ele>
        <time>2020-08-08T08:45:13Z</time>
      </trkpt>
      <trkpt lat="45.52805" lon="6.9133">
        <ele>1546.1</ele>
        <time>2020-08-08T08:45:16Z</time>
      </trkpt>
      <trkpt lat="45.52803" lon="6.9133">
        <ele>1546.2</ele>
        <time>2020-08-08T08:45:17Z</time>
      </trkpt>
      <trkpt lat="45.52799" lon="6.91329">
        <ele>1546.4</ele>
        <time>2020-08-08T08:45:18Z</time>
      </trkpt>
      <trkpt lat="45.52795" lon="6.91327">
        <ele>1546.6</ele>
        <time>2020-08-08T08:45:20Z</time>
      </trkpt>
      <trkpt lat="45.52792" lon="6.91327">
        <ele>1546.8</ele>
        <time>2020-08-08T08:45:21Z</time>
      </trkpt>
      <trkpt lat="45.52789" lon="6.91326">
        <ele>1547</ele>
        <time>2020-08-08T08:45:23Z</time>
      </trkpt>
      <trkpt lat="45.52785" lon="6.91325">
        <ele>1547.3</ele>
        <time>2020-08-08T08:45:24Z</time>
      </trkpt>
      <trkpt lat="45.52781" lon="6.91324">
        <ele>1547.5</ele>
        <time>2020-08-08T08:45:26Z</time>
      </trkpt>
      <trkpt lat="45.52777" lon="6.91325">
        <ele>1547.7</ele>
        <time>2020-08-08T08:45:27Z</time>
      </trkpt>
      <trkpt lat="45.52773" lon="6.91323">
        <ele>1548</ele>
        <time>2020-08-08T08:45:29Z</time>
      </trkpt>
      <trkpt lat="45.5277" lon="6.91323">
        <ele>1548.2</ele>
        <time>2020-08-08T08:45:30Z</time>
      </trkpt>
      <trkpt lat="45.52766" lon="6.91322">
        <ele>1548.4</ele>
        <time>2020-08-08T08:45:31Z</time>
      </trkpt>
      <trkpt lat="45.5276" lon="6.91321">
        <ele>1548.8</ele>
        <time>2020-08-08T08:45:34Z</time>
      </trkpt>
      <trkpt lat="45.52753" lon="6.91319">
        <ele>1549.2</ele>
        <time>2020-08-08T08:45:37Z</time>
      </trkpt>
      <trkpt lat="45.5275" lon="6.91318">
        <ele>1549.4</ele>
        <time>2020-08-08T08:45:38Z</time>
      </trkpt>
      <trkpt lat="45.52747" lon="6.91317">
        <ele>1549.6</ele>
        <time>2020-08-08T08:45:40Z</time>
      </trkpt>
      <trkpt lat="45.5274" lon="6.91315">
        <ele>1549.9</ele>
        <time>2020-08-08T08:45:42Z</time>
      </trkpt>
      <trkpt lat="45.52736" lon="6.91313">
        <ele>1550.1</ele>
        <time>2020-08-08T08:45:45Z</time>
      </trkpt>
      <trkpt lat="45.52733" lon="6.91313">
        <ele>1550.2</ele>
        <time>2020-08-08T08:45:46Z</time>
      </trkpt>
      <trkpt lat="45.52729" lon="6.91312">
        <ele>1550.4</ele>
        <time>2020-08-08T08:45:47Z</time>
      </trkpt>
      <trkpt lat="45.52727" lon="6.91312">
        <ele>1550.5</ele>
        <time>2020-08-08T08:45:48Z</time>
      </trkpt>
      <trkpt lat="45.52723" lon="6.91311">
        <ele>1550.7</ele>
        <time>2020-08-08T08:45:49Z</time>
      </trkpt>
      <trkpt lat="45.52716" lon="6.91307">
        <ele>1551</ele>
        <time>2020-08-08T08:45:52Z</time>
      </trkpt>
      <trkpt lat="45.52713" lon="6.91305">
        <ele>1551.2</ele>
        <time>2020-08-08T08:45:53Z</time>
      </trkpt>
      <trkpt lat="45.52709" lon="6.91305">
        <ele>1551.3</ele>
        <time>2020-08-08T08:45:54Z</time>
      </trkpt>
      <trkpt lat="45.52703" lon="6.91304">
        <ele>1551.6</ele>
        <time>2020-08-08T08:45:57Z</time>
      </trkpt>
      <trkpt lat="45.527" lon="6.91304">
        <ele>1551.7</ele>
        <time>2020-08-08T08:45:58Z</time>
      </trkpt>
      <trkpt lat="45.52697" lon="6.91302">
        <ele>1551.9</ele>
        <time>2020-08-08T08:46:00Z</time>
      </trkpt>
      <trkpt lat="45.52687" lon="6.91297">
        <ele>1552.3</ele>
        <time>2020-08-08T08:46:02Z</time>
      </trkpt>
      <trkpt lat="45.52681" lon="6.91292">
        <ele>1552.6</ele>
        <time>2020-08-08T08:46:05Z</time>
      </trkpt>
      <trkpt lat="45.52677" lon="6.9129">
        <ele>1552.7</ele>
        <time>2020-08-08T08:46:06Z</time>
      </trkpt>
      <trkpt lat="45.52673" lon="6.91287">
        <ele>1552.9</ele>
        <time>2020-08-08T08:46:08Z</time>
      </trkpt>
      <trkpt lat="45.5267" lon="6.91286">
        <ele>1553</ele>
        <time>2020-08-08T08:46:10Z</time>
      </trkpt>
      <trkpt lat="45.52667" lon="6.91284">
        <ele>1553.1</ele>
        <time>2020-08-08T08:46:11Z</time>
      </trkpt>
      <trkpt lat="45.52662" lon="6.9128">
        <ele>1553.3</ele>
        <time>2020-08-08T08:46:12Z</time>
      </trkpt>
      <trkpt lat="45.52657" lon="6.91277">
        <ele>1553.5</ele>
        <time>2020-08-08T08:46:14Z</time>
      </trkpt>
      <trkpt lat="45.52654" lon="6.91276">
        <ele>1553.6</ele>
        <time>2020-08-08T08:46:15Z</time>
      </trkpt>
      <trkpt lat="45.52647" lon="6.91274">
        <ele>1553.8</ele>
        <time>2020-08-08T08:46:17Z</time>
      </trkpt>
      <trkpt lat="45.52644" lon="6.91274">
        <ele>1553.9</ele>
        <time>2020-08-08T08:46:18Z</time>
      </trkpt>
      <trkpt lat="45.52638" lon="6.91271">
        <ele>1554.1</ele>
        <time>2020-08-08T08:46:20Z</time>
      </trkpt>
      <trkpt lat="45.52635" lon="6.9127">
        <ele>1554.2</ele>
        <time>2020-08-08T08:46:21Z</time>
      </trkpt>
      <trkpt lat="45.52632" lon="6.9127">
        <ele>1554.3</ele>
        <time>2020-08-08T08:46:23Z</time>
      </trkpt>
      <trkpt lat="45.52625" lon="6.91268">
        <ele>1554.5</ele>
        <time>2020-08-08T08:46:25Z</time>
      </trkpt>
      <trkpt lat="45.52619" lon="6.91268">
        <ele>1554.7</ele>
        <time>2020-08-08T08:46:26Z</time>
      </trkpt>
      <trkpt lat="45.52614" lon="6.91268">
        <ele>1554.8</ele>
        <time>2020-08-08T08:46:27Z</time>
      </trkpt>
      <trkpt lat="45.5261" lon="6.91268">
        <ele>1554.9</ele>
        <time>2020-08-08T08:46:28Z</time>
      </trkpt>
      <trkpt lat="45.52605" lon="6.9127">
        <ele>1555</ele>
        <time>2020-08-08T08:46:29Z</time>
      </trkpt>
      <trkpt lat="45.52599" lon="6.91271">
        <ele>1555.1</ele>
        <time>2020-08-08T08:46:32Z</time>
      </trkpt>
      <trkpt lat="45.52592" lon="6.91272">
        <ele>1555.1</ele>
        <time>2020-08-08T08:46:33Z</time>
      </trkpt>
      <trkpt lat="45.52586" lon="6.91271">
        <ele>1555.2</ele>
        <time>2020-08-08T08:46:35Z</time>
      </trkpt>
      <trkpt lat="45.5258" lon="6.9127">
        <ele>1555.2</ele>
        <time>2020-08-08T08:46:36Z</time>
      </trkpt>
      <trkpt lat="45.5257" lon="6.91268">
        <ele>1555.3</ele>
        <time>2020-08-08T08:46:38Z</time>
      </trkpt>
      <trkpt lat="45.52566" lon="6.91268">
        <ele>1555.3</ele>
        <time>2020-08-08T08:46:39Z</time>
      </trkpt>
      <trkpt lat="45.52561" lon="6.91267">
        <ele>1555.3</ele>
        <time>2020-08-08T08:46:41Z</time>
      </trkpt>
      <trkpt lat="45.52557" lon="6.91267">
        <ele>1555.3</ele>
        <time>2020-08-08T08:46:42Z</time>
      </trkpt>
      <trkpt lat="45.52552" lon="6.91266">
        <ele>1555.4</ele>
        <time>2020-08-08T08:46:44Z</time>
      </trkpt>
      <trkpt lat="45.52544" lon="6.91265">
        <ele>1555.4</ele>
        <time>2020-08-08T08:46:45Z</time>
      </trkpt>
      <trkpt lat="45.52539" lon="6.91265">
        <ele>1555.4</ele>
        <time>2020-08-08T08:46:47Z</time>
      </trkpt>
      <trkpt lat="45.52528" lon="6.91266">
        <ele>1555.3</ele>
        <time>2020-08-08T08:46:49Z</time>
      </trkpt>
      <trkpt lat="45.52517" lon="6.91266">
        <ele>1555.2</ele>
        <time>2020-08-08T08:46:51Z</time>
      </trkpt>
      <trkpt lat="45.52507" lon="6.91265">
        <ele>1555</ele>
        <time>2020-08-08T08:46:53Z</time>
      </trkpt>
      <trkpt lat="45.52497" lon="6.91263">
        <ele>1554.8</ele>
        <time>2020-08-08T08:46:55Z</time>
      </trkpt>
      <trkpt lat="45.52485" lon="6.91263">
        <ele>1554.5</ele>
        <time>2020-08-08T08:46:57Z</time>
      </trkpt>
      <trkpt lat="45.52473" lon="6.91263">
        <ele>1554.1</ele>
        <time>2020-08-08T08:46:59Z</time>
      </trkpt>
      <trkpt lat="45.52459" lon="6.91266">
        <ele>1553.6</ele>
        <time>2020-08-08T08:47:01Z</time>
      </trkpt>
      <trkpt lat="45.52445" lon="6.91271">
        <ele>1553.2</ele>
        <time>2020-08-08T08:47:03Z</time>
      </trkpt>
      <trkpt lat="45.52431" lon="6.91276">
        <ele>1552.8</ele>
        <time>2020-08-08T08:47:05Z</time>
      </trkpt>
      <trkpt lat="45.52424" lon="6.91279">
        <ele>1552.6</ele>
        <time>2020-08-08T08:47:06Z</time>
      </trkpt>
      <trkpt lat="45.52416" lon="6.91282">
        <ele>1552.5</ele>
        <time>2020-08-08T08:47:07Z</time>
      </trkpt>
      <trkpt lat="45.52402" lon="6.9129">
        <ele>1552.1</ele>
        <time>2020-08-08T08:47:09Z</time>
      </trkpt>
      <trkpt lat="45.52387" lon="6.91298">
        <ele>1551.8</ele>
        <time>2020-08-08T08:47:11Z</time>
      </trkpt>
      <trkpt lat="45.52373" lon="6.91306">
        <ele>1551.6</ele>
        <time>2020-08-08T08:47:13Z</time>
      </trkpt>
      <trkpt lat="45.52365" lon="6.9131">
        <ele>1551.6</ele>
        <time>2020-08-08T08:47:14Z</time>
      </trkpt>
      <trkpt lat="45.52359" lon="6.91315">
        <ele>1551.5</ele>
        <time>2020-08-08T08:47:15Z</time>
      </trkpt>
      <trkpt lat="45.52346" lon="6.91325">
        <ele>1551.5</ele>
        <time>2020-08-08T08:47:17Z</time>
      </trkpt>
      <trkpt lat="45.52333" lon="6.91336">
        <ele>1551.7</ele>
        <time>2020-08-08T08:47:19Z</time>
      </trkpt>
      <trkpt lat="45.52321" lon="6.91346">
        <ele>1551.8</ele>
        <time>2020-08-08T08:47:21Z</time>
      </trkpt>
      <trkpt lat="45.52315" lon="6.9135">
        <ele>1551.7</ele>
        <time>2020-08-08T08:47:22Z</time>
      </trkpt>
      <trkpt lat="45.52304" lon="6.91356">
        <ele>1551.8</ele>
        <time>2020-08-08T08:47:24Z</time>
      </trkpt>
      <trkpt lat="45.52298" lon="6.91358">
        <ele>1552.1</ele>
        <time>2020-08-08T08:47:25Z</time>
      </trkpt>
      <trkpt lat="45.52288" lon="6.91362">
        <ele>1552.7</ele>
        <time>2020-08-08T08:47:27Z</time>
      </trkpt>
      <trkpt lat="45.52282" lon="6.91363">
        <ele>1553</ele>
        <time>2020-08-08T08:47:28Z</time>
      </trkpt>
      <trkpt lat="45.52272" lon="6.91366">
        <ele>1553.7</ele>
        <time>2020-08-08T08:47:30Z</time>
      </trkpt>
      <trkpt lat="45.52261" lon="6.91369">
        <ele>1554.3</ele>
        <time>2020-08-08T08:47:32Z</time>
      </trkpt>
      <trkpt lat="45.52256" lon="6.91371">
        <ele>1554.6</ele>
        <time>2020-08-08T08:47:33Z</time>
      </trkpt>
      <trkpt lat="45.52247" lon="6.91373">
        <ele>1555</ele>
        <time>2020-08-08T08:47:35Z</time>
      </trkpt>
      <trkpt lat="45.52242" lon="6.91376">
        <ele>1555.3</ele>
        <time>2020-08-08T08:47:36Z</time>
      </trkpt>
      <trkpt lat="45.52237" lon="6.91378">
        <ele>1555.5</ele>
        <time>2020-08-08T08:47:37Z</time>
      </trkpt>
      <trkpt lat="45.52232" lon="6.91381">
        <ele>1555.8</ele>
        <time>2020-08-08T08:47:38Z</time>
      </trkpt>
      <trkpt lat="45.52228" lon="6.91383">
        <ele>1555.9</ele>
        <time>2020-08-08T08:47:39Z</time>
      </trkpt>
      <trkpt lat="45.52219" lon="6.91387">
        <ele>1556.3</ele>
        <time>2020-08-08T08:47:41Z</time>
      </trkpt>
      <trkpt lat="45.52209" lon="6.9139">
        <ele>1556.6</ele>
        <time>2020-08-08T08:47:43Z</time>
      </trkpt>
      <trkpt lat="45.522" lon="6.91392">
        <ele>1556.8</ele>
        <time>2020-08-08T08:47:45Z</time>
      </trkpt>
      <trkpt lat="45.52196" lon="6.91392">
        <ele>1556.9</ele>
        <time>2020-08-08T08:47:46Z</time>
      </trkpt>
      <trkpt lat="45.52191" lon="6.91393">
        <ele>1557</ele>
        <time>2020-08-08T08:47:47Z</time>
      </trkpt>
      <trkpt lat="45.52182" lon="6.91392">
        <ele>1557.3</ele>
        <time>2020-08-08T08:47:49Z</time>
      </trkpt>
      <trkpt lat="45.52177" lon="6.91391">
        <ele>1557.4</ele>
        <time>2020-08-08T08:47:50Z</time>
      </trkpt>
      <trkpt lat="45.52168" lon="6.91389">
        <ele>1557.6</ele>
        <time>2020-08-08T08:47:52Z</time>
      </trkpt>
      <trkpt lat="45.52158" lon="6.91386">
        <ele>1557.9</ele>
        <time>2020-08-08T08:47:54Z</time>
      </trkpt>
      <trkpt lat="45.52153" lon="6.91383">
        <ele>1558</ele>
        <time>2020-08-08T08:47:55Z</time>
      </trkpt>
      <trkpt lat="45.52144" lon="6.91377">
        <ele>1558.1</ele>
        <time>2020-08-08T08:47:57Z</time>
      </trkpt>
      <trkpt lat="45.52135" lon="6.91368">
        <ele>1558.3</ele>
        <time>2020-08-08T08:47:59Z</time>
      </trkpt>
      <trkpt lat="45.52127" lon="6.91358">
        <ele>1558.5</ele>
        <time>2020-08-08T08:48:01Z</time>
      </trkpt>
      <trkpt lat="45.52118" lon="6.91349">
        <ele>1558.8</ele>
        <time>2020-08-08T08:48:03Z</time>
      </trkpt>
      <trkpt lat="45.52114" lon="6.91345">
        <ele>1558.9</ele>
        <time>2020-08-08T08:48:04Z</time>
      </trkpt>
      <trkpt lat="45.52105" lon="6.91338">
        <ele>1559.1</ele>
        <time>2020-08-08T08:48:06Z</time>
      </trkpt>
      <trkpt lat="45.521" lon="6.91335">
        <ele>1559.2</ele>
        <time>2020-08-08T08:48:07Z</time>
      </trkpt>
      <trkpt lat="45.52095" lon="6.91331">
        <ele>1559.4</ele>
        <time>2020-08-08T08:48:08Z</time>
      </trkpt>
      <trkpt lat="45.5209" lon="6.91329">
        <ele>1559.5</ele>
        <time>2020-08-08T08:48:09Z</time>
      </trkpt>
      <trkpt lat="45.52084" lon="6.91327">
        <ele>1559.6</ele>
        <time>2020-08-08T08:48:10Z</time>
      </trkpt>
      <trkpt lat="45.52072" lon="6.91326">
        <ele>1559.8</ele>
        <time>2020-08-08T08:48:12Z</time>
      </trkpt>
      <trkpt lat="45.5206" lon="6.91327">
        <ele>1560</ele>
        <time>2020-08-08T08:48:14Z</time>
      </trkpt>
      <trkpt lat="45.52049" lon="6.91332">
        <ele>1560.2</ele>
        <time>2020-08-08T08:48:16Z</time>
      </trkpt>
      <trkpt lat="45.52038" lon="6.9134">
        <ele>1560.5</ele>
        <time>2020-08-08T08:48:18Z</time>
      </trkpt>
      <trkpt lat="45.5203" lon="6.91351">
        <ele>1560.8</ele>
        <time>2020-08-08T08:48:20Z</time>
      </trkpt>
      <trkpt lat="45.52022" lon="6.91363">
        <ele>1561.3</ele>
        <time>2020-08-08T08:48:22Z</time>
      </trkpt>
      <trkpt lat="45.52017" lon="6.91376">
        <ele>1561.9</ele>
        <time>2020-08-08T08:48:24Z</time>
      </trkpt>
      <trkpt lat="45.52014" lon="6.91381">
        <ele>1562.2</ele>
        <time>2020-08-08T08:48:25Z</time>
      </trkpt>
      <trkpt lat="45.5201" lon="6.9139">
        <ele>1562.7</ele>
        <time>2020-08-08T08:48:27Z</time>
      </trkpt>
      <trkpt lat="45.52005" lon="6.91399">
        <ele>1563.3</ele>
        <time>2020-08-08T08:48:29Z</time>
      </trkpt>
      <trkpt lat="45.52002" lon="6.91404">
        <ele>1563.7</ele>
        <time>2020-08-08T08:48:30Z</time>
      </trkpt>
      <trkpt lat="45.52" lon="6.91408">
        <ele>1564</ele>
        <time>2020-08-08T08:48:31Z</time>
      </trkpt>
      <trkpt lat="45.51994" lon="6.91414">
        <ele>1564.6</ele>
        <time>2020-08-08T08:48:33Z</time>
      </trkpt>
      <trkpt lat="45.5199" lon="6.91422">
        <ele>1565.2</ele>
        <time>2020-08-08T08:48:34Z</time>
      </trkpt>
      <trkpt lat="45.51987" lon="6.91426">
        <ele>1565.6</ele>
        <time>2020-08-08T08:48:36Z</time>
      </trkpt>
      <trkpt lat="45.51982" lon="6.91432">
        <ele>1566.1</ele>
        <time>2020-08-08T08:48:37Z</time>
      </trkpt>
      <trkpt lat="45.51977" lon="6.91436">
        <ele>1566.6</ele>
        <time>2020-08-08T08:48:38Z</time>
      </trkpt>
      <trkpt lat="45.51974" lon="6.9144">
        <ele>1567</ele>
        <time>2020-08-08T08:48:39Z</time>
      </trkpt>
      <trkpt lat="45.5197" lon="6.91443">
        <ele>1567.4</ele>
        <time>2020-08-08T08:48:40Z</time>
      </trkpt>
      <trkpt lat="45.51962" lon="6.91449">
        <ele>1568.3</ele>
        <time>2020-08-08T08:48:43Z</time>
      </trkpt>
      <trkpt lat="45.51954" lon="6.91454">
        <ele>1569.1</ele>
        <time>2020-08-08T08:48:46Z</time>
      </trkpt>
      <trkpt lat="45.5195" lon="6.91458">
        <ele>1569.5</ele>
        <time>2020-08-08T08:48:48Z</time>
      </trkpt>
      <trkpt lat="45.51947" lon="6.9146">
        <ele>1569.9</ele>
        <time>2020-08-08T08:48:50Z</time>
      </trkpt>
      <trkpt lat="45.51941" lon="6.91464">
        <ele>1570.5</ele>
        <time>2020-08-08T08:48:51Z</time>
      </trkpt>
      <trkpt lat="45.51934" lon="6.9147">
        <ele>1571.2</ele>
        <time>2020-08-08T08:48:54Z</time>
      </trkpt>
      <trkpt lat="45.51932" lon="6.91472">
        <ele>1571.4</ele>
        <time>2020-08-08T08:48:55Z</time>
      </trkpt>
      <trkpt lat="45.51927" lon="6.91475">
        <ele>1571.8</ele>
        <time>2020-08-08T08:48:56Z</time>
      </trkpt>
      <trkpt lat="45.5192" lon="6.91481">
        <ele>1572.6</ele>
        <time>2020-08-08T08:48:59Z</time>
      </trkpt>
      <trkpt lat="45.51916" lon="6.91484">
        <ele>1572.9</ele>
        <time>2020-08-08T08:49:00Z</time>
      </trkpt>
      <trkpt lat="45.51909" lon="6.91487">
        <ele>1573.6</ele>
        <time>2020-08-08T08:49:03Z</time>
      </trkpt>
      <trkpt lat="45.51905" lon="6.9149">
        <ele>1573.9</ele>
        <time>2020-08-08T08:49:04Z</time>
      </trkpt>
      <trkpt lat="45.51902" lon="6.91492">
        <ele>1574.2</ele>
        <time>2020-08-08T08:49:06Z</time>
      </trkpt>
      <trkpt lat="45.51899" lon="6.91493">
        <ele>1574.4</ele>
        <time>2020-08-08T08:49:08Z</time>
      </trkpt>
      <trkpt lat="45.51895" lon="6.91496">
        <ele>1574.8</ele>
        <time>2020-08-08T08:49:09Z</time>
      </trkpt>
      <trkpt lat="45.51893" lon="6.91498">
        <ele>1575</ele>
        <time>2020-08-08T08:49:10Z</time>
      </trkpt>
      <trkpt lat="45.51889" lon="6.91499">
        <ele>1575.3</ele>
        <time>2020-08-08T08:49:12Z</time>
      </trkpt>
      <trkpt lat="45.51884" lon="6.91502">
        <ele>1575.7</ele>
        <time>2020-08-08T08:49:13Z</time>
      </trkpt>
      <trkpt lat="45.5188" lon="6.91505">
        <ele>1576.1</ele>
        <time>2020-08-08T08:49:14Z</time>
      </trkpt>
      <trkpt lat="45.51872" lon="6.91507">
        <ele>1576.6</ele>
        <time>2020-08-08T08:49:17Z</time>
      </trkpt>
      <trkpt lat="45.51868" lon="6.91509">
        <ele>1577</ele>
        <time>2020-08-08T08:49:19Z</time>
      </trkpt>
      <trkpt lat="45.51865" lon="6.9151">
        <ele>1577.2</ele>
        <time>2020-08-08T08:49:20Z</time>
      </trkpt>
      <trkpt lat="45.51861" lon="6.91512">
        <ele>1577.5</ele>
        <time>2020-08-08T08:49:22Z</time>
      </trkpt>
      <trkpt lat="45.51859" lon="6.91513">
        <ele>1577.8</ele>
        <time>2020-08-08T08:49:23Z</time>
      </trkpt>
      <trkpt lat="45.51855" lon="6.91514">
        <ele>1578.1</ele>
        <time>2020-08-08T08:49:24Z</time>
      </trkpt>
      <trkpt lat="45.51852" lon="6.91515">
        <ele>1578.4</ele>
        <time>2020-08-08T08:49:25Z</time>
      </trkpt>
      <trkpt lat="45.51849" lon="6.91516">
        <ele>1578.7</ele>
        <time>2020-08-08T08:49:27Z</time>
      </trkpt>
      <trkpt lat="45.51844" lon="6.91517">
        <ele>1579.1</ele>
        <time>2020-08-08T08:49:28Z</time>
      </trkpt>
      <trkpt lat="45.5184" lon="6.91519">
        <ele>1579.5</ele>
        <time>2020-08-08T08:49:30Z</time>
      </trkpt>
      <trkpt lat="45.51837" lon="6.9152">
        <ele>1579.8</ele>
        <time>2020-08-08T08:49:32Z</time>
      </trkpt>
      <trkpt lat="45.51833" lon="6.91522">
        <ele>1580.2</ele>
        <time>2020-08-08T08:49:33Z</time>
      </trkpt>
      <trkpt lat="45.5183" lon="6.91522">
        <ele>1580.5</ele>
        <time>2020-08-08T08:49:34Z</time>
      </trkpt>
      <trkpt lat="45.51824" lon="6.91524">
        <ele>1581.1</ele>
        <time>2020-08-08T08:49:36Z</time>
      </trkpt>
      <trkpt lat="45.51817" lon="6.91526">
        <ele>1581.8</ele>
        <time>2020-08-08T08:49:38Z</time>
      </trkpt>
      <trkpt lat="45.51811" lon="6.91528">
        <ele>1582.4</ele>
        <time>2020-08-08T08:49:41Z</time>
      </trkpt>
      <trkpt lat="45.51806" lon="6.9153">
        <ele>1582.9</ele>
        <time>2020-08-08T08:49:44Z</time>
      </trkpt>
      <trkpt lat="45.51802" lon="6.91532">
        <ele>1583.3</ele>
        <time>2020-08-08T08:49:45Z</time>
      </trkpt>
      <trkpt lat="45.51796" lon="6.91536">
        <ele>1583.9</ele>
        <time>2020-08-08T08:49:47Z</time>
      </trkpt>
      <trkpt lat="45.51791" lon="6.9154">
        <ele>1584.4</ele>
        <time>2020-08-08T08:49:50Z</time>
      </trkpt>
      <trkpt lat="45.51789" lon="6.9154">
        <ele>1584.6</ele>
        <time>2020-08-08T08:49:51Z</time>
      </trkpt>
      <trkpt lat="45.51787" lon="6.91541">
        <ele>1584.8</ele>
        <time>2020-08-08T08:49:52Z</time>
      </trkpt>
      <trkpt lat="45.51784" lon="6.91545">
        <ele>1585.2</ele>
        <time>2020-08-08T08:49:53Z</time>
      </trkpt>
      <trkpt lat="45.51782" lon="6.91547">
        <ele>1585.4</ele>
        <time>2020-08-08T08:49:54Z</time>
      </trkpt>
      <trkpt lat="45.51779" lon="6.91551">
        <ele>1585.8</ele>
        <time>2020-08-08T08:49:56Z</time>
      </trkpt>
      <trkpt lat="45.51778" lon="6.91552">
        <ele>1585.9</ele>
        <time>2020-08-08T08:49:57Z</time>
      </trkpt>
      <trkpt lat="45.51774" lon="6.91557">
        <ele>1586.4</ele>
        <time>2020-08-08T08:49:58Z</time>
      </trkpt>
      <trkpt lat="45.51772" lon="6.9156">
        <ele>1586.6</ele>
        <time>2020-08-08T08:49:59Z</time>
      </trkpt>
      <trkpt lat="45.51766" lon="6.91568">
        <ele>1587.3</ele>
        <time>2020-08-08T08:50:02Z</time>
      </trkpt>
      <trkpt lat="45.5176" lon="6.91576">
        <ele>1587.9</ele>
        <time>2020-08-08T08:50:05Z</time>
      </trkpt>
      <trkpt lat="45.51757" lon="6.9158">
        <ele>1588.3</ele>
        <time>2020-08-08T08:50:07Z</time>
      </trkpt>
      <trkpt lat="45.51754" lon="6.91584">
        <ele>1588.6</ele>
        <time>2020-08-08T08:50:09Z</time>
      </trkpt>
      <trkpt lat="45.51749" lon="6.91592">
        <ele>1589.2</ele>
        <time>2020-08-08T08:50:10Z</time>
      </trkpt>
      <trkpt lat="45.51746" lon="6.91596">
        <ele>1589.6</ele>
        <time>2020-08-08T08:50:12Z</time>
      </trkpt>
      <trkpt lat="45.51744" lon="6.91599">
        <ele>1589.8</ele>
        <time>2020-08-08T08:50:13Z</time>
      </trkpt>
      <trkpt lat="45.51741" lon="6.91602">
        <ele>1590.1</ele>
        <time>2020-08-08T08:50:14Z</time>
      </trkpt>
      <trkpt lat="45.51739" lon="6.91604">
        <ele>1590.3</ele>
        <time>2020-08-08T08:50:15Z</time>
      </trkpt>
      <trkpt lat="45.51736" lon="6.91608">
        <ele>1590.6</ele>
        <time>2020-08-08T08:50:17Z</time>
      </trkpt>
      <trkpt lat="45.51728" lon="6.91615">
        <ele>1591.4</ele>
        <time>2020-08-08T08:50:20Z</time>
      </trkpt>
      <trkpt lat="45.51725" lon="6.91617">
        <ele>1591.7</ele>
        <time>2020-08-08T08:50:22Z</time>
      </trkpt>
      <trkpt lat="45.51722" lon="6.91619">
        <ele>1592</ele>
        <time>2020-08-08T08:50:24Z</time>
      </trkpt>
      <trkpt lat="45.51717" lon="6.91621">
        <ele>1592.5</ele>
        <time>2020-08-08T08:50:25Z</time>
      </trkpt>
      <trkpt lat="45.51713" lon="6.91622">
        <ele>1592.8</ele>
        <time>2020-08-08T08:50:26Z</time>
      </trkpt>
      <trkpt lat="45.5171" lon="6.91622">
        <ele>1593.1</ele>
        <time>2020-08-08T08:50:27Z</time>
      </trkpt>
      <trkpt lat="45.51706" lon="6.91622">
        <ele>1593.5</ele>
        <time>2020-08-08T08:50:28Z</time>
      </trkpt>
      <trkpt lat="45.51698" lon="6.91624">
        <ele>1594.2</ele>
        <time>2020-08-08T08:50:31Z</time>
      </trkpt>
      <trkpt lat="45.51694" lon="6.91625">
        <ele>1594.6</ele>
        <time>2020-08-08T08:50:33Z</time>
      </trkpt>
      <trkpt lat="45.5169" lon="6.91626">
        <ele>1595</ele>
        <time>2020-08-08T08:50:34Z</time>
      </trkpt>
      <trkpt lat="45.51688" lon="6.91626">
        <ele>1595.2</ele>
        <time>2020-08-08T08:50:35Z</time>
      </trkpt>
      <trkpt lat="45.51684" lon="6.91626">
        <ele>1595.5</ele>
        <time>2020-08-08T08:50:38Z</time>
      </trkpt>
      <trkpt lat="45.5168" lon="6.91627">
        <ele>1595.9</ele>
        <time>2020-08-08T08:50:39Z</time>
      </trkpt>
      <trkpt lat="45.51677" lon="6.91627">
        <ele>1596.2</ele>
        <time>2020-08-08T08:50:40Z</time>
      </trkpt>
      <trkpt lat="45.51671" lon="6.91627">
        <ele>1596.8</ele>
        <time>2020-08-08T08:50:42Z</time>
      </trkpt>
      <trkpt lat="45.51666" lon="6.91628">
        <ele>1597.1</ele>
        <time>2020-08-08T08:50:45Z</time>
      </trkpt>
      <trkpt lat="45.51662" lon="6.91628">
        <ele>1597.5</ele>
        <time>2020-08-08T08:50:46Z</time>
      </trkpt>
      <trkpt lat="45.51658" lon="6.91629">
        <ele>1597.8</ele>
        <time>2020-08-08T08:50:47Z</time>
      </trkpt>
      <trkpt lat="45.51655" lon="6.91629">
        <ele>1598.1</ele>
        <time>2020-08-08T08:50:48Z</time>
      </trkpt>
      <trkpt lat="45.51649" lon="6.9163">
        <ele>1598.6</ele>
        <time>2020-08-08T08:50:51Z</time>
      </trkpt>
      <trkpt lat="45.51646" lon="6.9163">
        <ele>1598.8</ele>
        <time>2020-08-08T08:50:52Z</time>
      </trkpt>
      <trkpt lat="45.51642" lon="6.91631">
        <ele>1599.1</ele>
        <time>2020-08-08T08:50:53Z</time>
      </trkpt>
      <trkpt lat="45.51638" lon="6.91631">
        <ele>1599.4</ele>
        <time>2020-08-08T08:50:56Z</time>
      </trkpt>
      <trkpt lat="45.51633" lon="6.91632">
        <ele>1599.7</ele>
        <time>2020-08-08T08:50:57Z</time>
      </trkpt>
      <trkpt lat="45.51629" lon="6.91632">
        <ele>1600</ele>
        <time>2020-08-08T08:50:58Z</time>
      </trkpt>
      <trkpt lat="45.51619" lon="6.91634">
        <ele>1600.7</ele>
        <time>2020-08-08T08:51:01Z</time>
      </trkpt>
      <trkpt lat="45.51615" lon="6.91634">
        <ele>1601</ele>
        <time>2020-08-08T08:51:04Z</time>
      </trkpt>
      <trkpt lat="45.51611" lon="6.91635">
        <ele>1601.3</ele>
        <time>2020-08-08T08:51:05Z</time>
      </trkpt>
      <trkpt lat="45.51606" lon="6.91635">
        <ele>1601.7</ele>
        <time>2020-08-08T08:51:06Z</time>
      </trkpt>
      <trkpt lat="45.51602" lon="6.91637">
        <ele>1601.9</ele>
        <time>2020-08-08T08:51:08Z</time>
      </trkpt>
      <trkpt lat="45.51596" lon="6.91639">
        <ele>1602.3</ele>
        <time>2020-08-08T08:51:09Z</time>
      </trkpt>
      <trkpt lat="45.51593" lon="6.91641">
        <ele>1602.5</ele>
        <time>2020-08-08T08:51:11Z</time>
      </trkpt>
      <trkpt lat="45.51586" lon="6.91643">
        <ele>1602.9</ele>
        <time>2020-08-08T08:51:13Z</time>
      </trkpt>
      <trkpt lat="45.51575" lon="6.91646">
        <ele>1603.6</ele>
        <time>2020-08-08T08:51:15Z</time>
      </trkpt>
      <trkpt lat="45.5157" lon="6.91648">
        <ele>1603.9</ele>
        <time>2020-08-08T08:51:17Z</time>
      </trkpt>
      <trkpt lat="45.51567" lon="6.9165">
        <ele>1604.1</ele>
        <time>2020-08-08T08:51:19Z</time>
      </trkpt>
      <trkpt lat="45.51564" lon="6.91651">
        <ele>1604.3</ele>
        <time>2020-08-08T08:51:20Z</time>
      </trkpt>
      <trkpt lat="45.51552" lon="6.91655">
        <ele>1605.1</ele>
        <time>2020-08-08T08:51:22Z</time>
      </trkpt>
      <trkpt lat="45.51548" lon="6.91656">
        <ele>1605.4</ele>
        <time>2020-08-08T08:51:24Z</time>
      </trkpt>
      <trkpt lat="45.51542" lon="6.91658">
        <ele>1605.8</ele>
        <time>2020-08-08T08:51:26Z</time>
      </trkpt>
      <trkpt lat="45.51539" lon="6.91659">
        <ele>1606</ele>
        <time>2020-08-08T08:51:27Z</time>
      </trkpt>
      <trkpt lat="45.51534" lon="6.91661">
        <ele>1606.4</ele>
        <time>2020-08-08T08:51:28Z</time>
      </trkpt>
      <trkpt lat="45.51529" lon="6.91662">
        <ele>1606.7</ele>
        <time>2020-08-08T08:51:31Z</time>
      </trkpt>
      <trkpt lat="45.51524" lon="6.91664">
        <ele>1607</ele>
        <time>2020-08-08T08:51:32Z</time>
      </trkpt>
      <trkpt lat="45.51517" lon="6.91666">
        <ele>1607.5</ele>
        <time>2020-08-08T08:51:35Z</time>
      </trkpt>
      <trkpt lat="45.51514" lon="6.91668">
        <ele>1607.8</ele>
        <time>2020-08-08T08:51:36Z</time>
      </trkpt>
      <trkpt lat="45.51508" lon="6.9167">
        <ele>1608.2</ele>
        <time>2020-08-08T08:51:37Z</time>
      </trkpt>
      <trkpt lat="45.51504" lon="6.91672">
        <ele>1608.6</ele>
        <time>2020-08-08T08:51:39Z</time>
      </trkpt>
      <trkpt lat="45.51497" lon="6.91676">
        <ele>1609.2</ele>
        <time>2020-08-08T08:51:40Z</time>
      </trkpt>
      <trkpt lat="45.51493" lon="6.91678">
        <ele>1609.5</ele>
        <time>2020-08-08T08:51:42Z</time>
      </trkpt>
      <trkpt lat="45.5149" lon="6.91679">
        <ele>1609.7</ele>
        <time>2020-08-08T08:51:44Z</time>
      </trkpt>
      <trkpt lat="45.51487" lon="6.9168">
        <ele>1609.9</ele>
        <time>2020-08-08T08:51:45Z</time>
      </trkpt>
      <trkpt lat="45.51478" lon="6.91683">
        <ele>1610.6</ele>
        <time>2020-08-08T08:51:47Z</time>
      </trkpt>
      <trkpt lat="45.51473" lon="6.91686">
        <ele>1610.9</ele>
        <time>2020-08-08T08:51:49Z</time>
      </trkpt>
      <trkpt lat="45.5147" lon="6.91688">
        <ele>1611.2</ele>
        <time>2020-08-08T08:51:51Z</time>
      </trkpt>
      <trkpt lat="45.51464" lon="6.91691">
        <ele>1611.6</ele>
        <time>2020-08-08T08:51:53Z</time>
      </trkpt>
      <trkpt lat="45.51461" lon="6.91692">
        <ele>1611.8</ele>
        <time>2020-08-08T08:51:54Z</time>
      </trkpt>
      <trkpt lat="45.51455" lon="6.91695">
        <ele>1612.3</ele>
        <time>2020-08-08T08:51:55Z</time>
      </trkpt>
      <trkpt lat="45.5145" lon="6.91697">
        <ele>1612.7</ele>
        <time>2020-08-08T08:51:56Z</time>
      </trkpt>
      <trkpt lat="45.51447" lon="6.91699">
        <ele>1612.9</ele>
        <time>2020-08-08T08:51:58Z</time>
      </trkpt>
      <trkpt lat="45.5144" lon="6.91705">
        <ele>1613.6</ele>
        <time>2020-08-08T08:52:00Z</time>
      </trkpt>
      <trkpt lat="45.51436" lon="6.91707">
        <ele>1613.8</ele>
        <time>2020-08-08T08:52:02Z</time>
      </trkpt>
      <trkpt lat="45.51433" lon="6.91709">
        <ele>1614.1</ele>
        <time>2020-08-08T08:52:03Z</time>
      </trkpt>
      <trkpt lat="45.51425" lon="6.91713">
        <ele>1614.7</ele>
        <time>2020-08-08T08:52:05Z</time>
      </trkpt>
      <trkpt lat="45.51421" lon="6.91715">
        <ele>1615</ele>
        <time>2020-08-08T08:52:07Z</time>
      </trkpt>
      <trkpt lat="45.51418" lon="6.91717">
        <ele>1615.3</ele>
        <time>2020-08-08T08:52:08Z</time>
      </trkpt>
      <trkpt lat="45.51415" lon="6.91719">
        <ele>1615.5</ele>
        <time>2020-08-08T08:52:09Z</time>
      </trkpt>
      <trkpt lat="45.51411" lon="6.91722">
        <ele>1615.8</ele>
        <time>2020-08-08T08:52:11Z</time>
      </trkpt>
      <trkpt lat="45.51408" lon="6.91725">
        <ele>1616.1</ele>
        <time>2020-08-08T08:52:12Z</time>
      </trkpt>
      <trkpt lat="45.51404" lon="6.91728">
        <ele>1616.6</ele>
        <time>2020-08-08T08:52:14Z</time>
      </trkpt>
      <trkpt lat="45.514" lon="6.91733">
        <ele>1617</ele>
        <time>2020-08-08T08:52:15Z</time>
      </trkpt>
      <trkpt lat="45.51396" lon="6.91736">
        <ele>1617.4</ele>
        <time>2020-08-08T08:52:17Z</time>
      </trkpt>
      <trkpt lat="45.51392" lon="6.91741">
        <ele>1617.9</ele>
        <time>2020-08-08T08:52:19Z</time>
      </trkpt>
      <trkpt lat="45.51387" lon="6.91747">
        <ele>1618.5</ele>
        <time>2020-08-08T08:52:21Z</time>
      </trkpt>
      <trkpt lat="45.51384" lon="6.91751">
        <ele>1618.8</ele>
        <time>2020-08-08T08:52:22Z</time>
      </trkpt>
      <trkpt lat="45.51381" lon="6.91756">
        <ele>1619.2</ele>
        <time>2020-08-08T08:52:24Z</time>
      </trkpt>
      <trkpt lat="45.51378" lon="6.91759">
        <ele>1619.5</ele>
        <time>2020-08-08T08:52:25Z</time>
      </trkpt>
      <trkpt lat="45.51375" lon="6.91763">
        <ele>1619.9</ele>
        <time>2020-08-08T08:52:27Z</time>
      </trkpt>
      <trkpt lat="45.51373" lon="6.91766">
        <ele>1620.2</ele>
        <time>2020-08-08T08:52:28Z</time>
      </trkpt>
      <trkpt lat="45.51371" lon="6.91769">
        <ele>1620.4</ele>
        <time>2020-08-08T08:52:29Z</time>
      </trkpt>
      <trkpt lat="45.51368" lon="6.91773">
        <ele>1620.8</ele>
        <time>2020-08-08T08:52:30Z</time>
      </trkpt>
      <trkpt lat="45.51361" lon="6.91782">
        <ele>1621.7</ele>
        <time>2020-08-08T08:52:33Z</time>
      </trkpt>
      <trkpt lat="45.51357" lon="6.9179">
        <ele>1622.4</ele>
        <time>2020-08-08T08:52:36Z</time>
      </trkpt>
      <trkpt lat="45.51355" lon="6.91792">
        <ele>1622.7</ele>
        <time>2020-08-08T08:52:37Z</time>
      </trkpt>
      <trkpt lat="45.51352" lon="6.91796">
        <ele>1623</ele>
        <time>2020-08-08T08:52:38Z</time>
      </trkpt>
      <trkpt lat="45.5135" lon="6.91799">
        <ele>1623.4</ele>
        <time>2020-08-08T08:52:41Z</time>
      </trkpt>
      <trkpt lat="45.51346" lon="6.91804">
        <ele>1623.9</ele>
        <time>2020-08-08T08:52:42Z</time>
      </trkpt>
      <trkpt lat="45.51344" lon="6.91807">
        <ele>1624.1</ele>
        <time>2020-08-08T08:52:43Z</time>
      </trkpt>
      <trkpt lat="45.51343" lon="6.91809">
        <ele>1624.4</ele>
        <time>2020-08-08T08:52:45Z</time>
      </trkpt>
      <trkpt lat="45.51337" lon="6.91817">
        <ele>1625.2</ele>
        <time>2020-08-08T08:52:47Z</time>
      </trkpt>
      <trkpt lat="45.51334" lon="6.9182">
        <ele>1625.5</ele>
        <time>2020-08-08T08:52:49Z</time>
      </trkpt>
      <trkpt lat="45.51332" lon="6.91824">
        <ele>1625.8</ele>
        <time>2020-08-08T08:52:50Z</time>
      </trkpt>
      <trkpt lat="45.51329" lon="6.91827">
        <ele>1626.2</ele>
        <time>2020-08-08T08:52:51Z</time>
      </trkpt>
      <trkpt lat="45.51327" lon="6.91831">
        <ele>1626.5</ele>
        <time>2020-08-08T08:52:53Z</time>
      </trkpt>
      <trkpt lat="45.51325" lon="6.91833">
        <ele>1626.7</ele>
        <time>2020-08-08T08:52:54Z</time>
      </trkpt>
      <trkpt lat="45.51324" lon="6.91835">
        <ele>1627</ele>
        <time>2020-08-08T08:52:56Z</time>
      </trkpt>
      <trkpt lat="45.5132" lon="6.9184">
        <ele>1627.5</ele>
        <time>2020-08-08T08:52:57Z</time>
      </trkpt>
      <trkpt lat="45.51318" lon="6.91843">
        <ele>1627.8</ele>
        <time>2020-08-08T08:52:58Z</time>
      </trkpt>
      <trkpt lat="45.51315" lon="6.91847">
        <ele>1628.1</ele>
        <time>2020-08-08T08:52:59Z</time>
      </trkpt>
      <trkpt lat="45.51313" lon="6.9185">
        <ele>1628.4</ele>
        <time>2020-08-08T08:53:01Z</time>
      </trkpt>
      <trkpt lat="45.51311" lon="6.91855">
        <ele>1628.8</ele>
        <time>2020-08-08T08:53:03Z</time>
      </trkpt>
      <trkpt lat="45.51308" lon="6.91861">
        <ele>1629.3</ele>
        <time>2020-08-08T08:53:04Z</time>
      </trkpt>
      <trkpt lat="45.51306" lon="6.91864">
        <ele>1629.6</ele>
        <time>2020-08-08T08:53:07Z</time>
      </trkpt>
      <trkpt lat="45.51304" lon="6.91866">
        <ele>1629.8</ele>
        <time>2020-08-08T08:53:08Z</time>
      </trkpt>
      <trkpt lat="45.51297" lon="6.91876">
        <ele>1630.7</ele>
        <time>2020-08-08T08:53:10Z</time>
      </trkpt>
      <trkpt lat="45.51292" lon="6.91883">
        <ele>1631.4</ele>
        <time>2020-08-08T08:53:13Z</time>
      </trkpt>
      <trkpt lat="45.51287" lon="6.91889">
        <ele>1632.1</ele>
        <time>2020-08-08T08:53:16Z</time>
      </trkpt>
      <trkpt lat="45.51285" lon="6.91893">
        <ele>1632.4</ele>
        <time>2020-08-08T08:53:18Z</time>
      </trkpt>
      <trkpt lat="45.51282" lon="6.91896">
        <ele>1632.8</ele>
        <time>2020-08-08T08:53:19Z</time>
      </trkpt>
      <trkpt lat="45.51279" lon="6.91899">
        <ele>1633.2</ele>
        <time>2020-08-08T08:53:22Z</time>
      </trkpt>
      <trkpt lat="45.51277" lon="6.91903">
        <ele>1633.6</ele>
        <time>2020-08-08T08:53:23Z</time>
      </trkpt>
      <trkpt lat="45.51273" lon="6.91906">
        <ele>1634</ele>
        <time>2020-08-08T08:53:24Z</time>
      </trkpt>
      <trkpt lat="45.51271" lon="6.91909">
        <ele>1634.3</ele>
        <time>2020-08-08T08:53:26Z</time>
      </trkpt>
      <trkpt lat="45.51269" lon="6.91912">
        <ele>1634.6</ele>
        <time>2020-08-08T08:53:28Z</time>
      </trkpt>
      <trkpt lat="45.51267" lon="6.91915">
        <ele>1634.9</ele>
        <time>2020-08-08T08:53:29Z</time>
      </trkpt>
      <trkpt lat="45.51261" lon="6.91924">
        <ele>1635.9</ele>
        <time>2020-08-08T08:53:31Z</time>
      </trkpt>
      <trkpt lat="45.51259" lon="6.91927">
        <ele>1636.2</ele>
        <time>2020-08-08T08:53:33Z</time>
      </trkpt>
      <trkpt lat="45.51257" lon="6.91929">
        <ele>1636.4</ele>
        <time>2020-08-08T08:53:34Z</time>
      </trkpt>
      <trkpt lat="45.51252" lon="6.91935">
        <ele>1637.2</ele>
        <time>2020-08-08T08:53:36Z</time>
      </trkpt>
      <trkpt lat="45.5125" lon="6.91938">
        <ele>1637.4</ele>
        <time>2020-08-08T08:53:37Z</time>
      </trkpt>
      <trkpt lat="45.51245" lon="6.91945">
        <ele>1638.2</ele>
        <time>2020-08-08T08:53:40Z</time>
      </trkpt>
      <trkpt lat="45.51241" lon="6.9195">
        <ele>1638.7</ele>
        <time>2020-08-08T08:53:43Z</time>
      </trkpt>
      <trkpt lat="45.51239" lon="6.91953">
        <ele>1639</ele>
        <time>2020-08-08T08:53:44Z</time>
      </trkpt>
      <trkpt lat="45.51238" lon="6.91956">
        <ele>1639.3</ele>
        <time>2020-08-08T08:53:45Z</time>
      </trkpt>
      <trkpt lat="45.51233" lon="6.91962">
        <ele>1639.9</ele>
        <time>2020-08-08T08:53:48Z</time>
      </trkpt>
      <trkpt lat="45.51227" lon="6.91968">
        <ele>1640.7</ele>
        <time>2020-08-08T08:53:51Z</time>
      </trkpt>
      <trkpt lat="45.51225" lon="6.9197">
        <ele>1640.9</ele>
        <time>2020-08-08T08:53:52Z</time>
      </trkpt>
      <trkpt lat="45.51223" lon="6.91973">
        <ele>1641.3</ele>
        <time>2020-08-08T08:53:55Z</time>
      </trkpt>
      <trkpt lat="45.5122" lon="6.91978">
        <ele>1641.8</ele>
        <time>2020-08-08T08:53:56Z</time>
      </trkpt>
      <trkpt lat="45.51217" lon="6.9198">
        <ele>1642.1</ele>
        <time>2020-08-08T08:53:57Z</time>
      </trkpt>
      <trkpt lat="45.51215" lon="6.91983">
        <ele>1642.5</ele>
        <time>2020-08-08T08:53:58Z</time>
      </trkpt>
      <trkpt lat="45.51213" lon="6.91986">
        <ele>1642.7</ele>
        <time>2020-08-08T08:53:59Z</time>
      </trkpt>
      <trkpt lat="45.5121" lon="6.91989">
        <ele>1643.1</ele>
        <time>2020-08-08T08:54:02Z</time>
      </trkpt>
      <trkpt lat="45.51206" lon="6.91995">
        <ele>1643.7</ele>
        <time>2020-08-08T08:54:03Z</time>
      </trkpt>
      <trkpt lat="45.51204" lon="6.91998">
        <ele>1644</ele>
        <time>2020-08-08T08:54:05Z</time>
      </trkpt>
      <trkpt lat="45.51201" lon="6.92001">
        <ele>1644.4</ele>
        <time>2020-08-08T08:54:06Z</time>
      </trkpt>
      <trkpt lat="45.51198" lon="6.92005">
        <ele>1644.8</ele>
        <time>2020-08-08T08:54:09Z</time>
      </trkpt>
      <trkpt lat="45.51195" lon="6.92008">
        <ele>1645.2</ele>
        <time>2020-08-08T08:54:10Z</time>
      </trkpt>
      <trkpt lat="45.51189" lon="6.92013">
        <ele>1645.9</ele>
        <time>2020-08-08T08:54:12Z</time>
      </trkpt>
      <trkpt lat="45.51187" lon="6.92016">
        <ele>1646.2</ele>
        <time>2020-08-08T08:54:13Z</time>
      </trkpt>
      <trkpt lat="45.51182" lon="6.92022">
        <ele>1646.9</ele>
        <time>2020-08-08T08:54:16Z</time>
      </trkpt>
      <trkpt lat="45.5118" lon="6.92024">
        <ele>1647.2</ele>
        <time>2020-08-08T08:54:17Z</time>
      </trkpt>
      <trkpt lat="45.51178" lon="6.92027">
        <ele>1647.6</ele>
        <time>2020-08-08T08:54:19Z</time>
      </trkpt>
      <trkpt lat="45.51175" lon="6.92029">
        <ele>1647.9</ele>
        <time>2020-08-08T08:54:20Z</time>
      </trkpt>
      <trkpt lat="45.51171" lon="6.92034">
        <ele>1648.5</ele>
        <time>2020-08-08T08:54:22Z</time>
      </trkpt>
      <trkpt lat="45.51166" lon="6.9204">
        <ele>1649.3</ele>
        <time>2020-08-08T08:54:25Z</time>
      </trkpt>
      <trkpt lat="45.51163" lon="6.92044">
        <ele>1649.6</ele>
        <time>2020-08-08T08:54:26Z</time>
      </trkpt>
      <trkpt lat="45.51162" lon="6.92045">
        <ele>1649.8</ele>
        <time>2020-08-08T08:54:27Z</time>
      </trkpt>
      <trkpt lat="45.51158" lon="6.92051">
        <ele>1650.4</ele>
        <time>2020-08-08T08:54:30Z</time>
      </trkpt>
      <trkpt lat="45.51152" lon="6.92057">
        <ele>1651.2</ele>
        <time>2020-08-08T08:54:33Z</time>
      </trkpt>
      <trkpt lat="45.5115" lon="6.92061">
        <ele>1651.5</ele>
        <time>2020-08-08T08:54:35Z</time>
      </trkpt>
      <trkpt lat="45.51149" lon="6.92063">
        <ele>1651.7</ele>
        <time>2020-08-08T08:54:36Z</time>
      </trkpt>
      <trkpt lat="45.51145" lon="6.92068">
        <ele>1652.2</ele>
        <time>2020-08-08T08:54:38Z</time>
      </trkpt>
      <trkpt lat="45.51143" lon="6.92071">
        <ele>1652.5</ele>
        <time>2020-08-08T08:54:39Z</time>
      </trkpt>
      <trkpt lat="45.51141" lon="6.92073">
        <ele>1652.7</ele>
        <time>2020-08-08T08:54:40Z</time>
      </trkpt>
      <trkpt lat="45.51139" lon="6.92077">
        <ele>1653</ele>
        <time>2020-08-08T08:54:43Z</time>
      </trkpt>
      <trkpt lat="45.51135" lon="6.92082">
        <ele>1653.5</ele>
        <time>2020-08-08T08:54:45Z</time>
      </trkpt>
      <trkpt lat="45.51131" lon="6.92087">
        <ele>1654</ele>
        <time>2020-08-08T08:54:46Z</time>
      </trkpt>
      <trkpt lat="45.51129" lon="6.92092">
        <ele>1654.4</ele>
        <time>2020-08-08T08:54:48Z</time>
      </trkpt>
      <trkpt lat="45.51126" lon="6.92095">
        <ele>1654.7</ele>
        <time>2020-08-08T08:54:49Z</time>
      </trkpt>
      <trkpt lat="45.51123" lon="6.921">
        <ele>1655.1</ele>
        <time>2020-08-08T08:54:52Z</time>
      </trkpt>
      <trkpt lat="45.5112" lon="6.92103">
        <ele>1655.5</ele>
        <time>2020-08-08T08:54:53Z</time>
      </trkpt>
      <trkpt lat="45.51116" lon="6.92109">
        <ele>1656</ele>
        <time>2020-08-08T08:54:55Z</time>
      </trkpt>
      <trkpt lat="45.51112" lon="6.92115">
        <ele>1656.5</ele>
        <time>2020-08-08T08:54:57Z</time>
      </trkpt>
      <trkpt lat="45.5111" lon="6.92117">
        <ele>1656.8</ele>
        <time>2020-08-08T08:54:59Z</time>
      </trkpt>
      <trkpt lat="45.51109" lon="6.9212">
        <ele>1657.1</ele>
        <time>2020-08-08T08:55:00Z</time>
      </trkpt>
      <trkpt lat="45.51106" lon="6.92123">
        <ele>1657.6</ele>
        <time>2020-08-08T08:55:01Z</time>
      </trkpt>
      <trkpt lat="45.51105" lon="6.92125">
        <ele>1657.8</ele>
        <time>2020-08-08T08:55:02Z</time>
      </trkpt>
      <trkpt lat="45.51103" lon="6.92128">
        <ele>1658.2</ele>
        <time>2020-08-08T08:55:04Z</time>
      </trkpt>
      <trkpt lat="45.51102" lon="6.92129">
        <ele>1658.4</ele>
        <time>2020-08-08T08:55:05Z</time>
      </trkpt>
      <trkpt lat="45.51099" lon="6.92133">
        <ele>1659</ele>
        <time>2020-08-08T08:55:06Z</time>
      </trkpt>
      <trkpt lat="45.51098" lon="6.92134">
        <ele>1659.2</ele>
        <time>2020-08-08T08:55:07Z</time>
      </trkpt>
      <trkpt lat="45.51096" lon="6.92136">
        <ele>1659.5</ele>
        <time>2020-08-08T08:55:08Z</time>
      </trkpt>
      <trkpt lat="45.51093" lon="6.9214">
        <ele>1660</ele>
        <time>2020-08-08T08:55:11Z</time>
      </trkpt>
      <trkpt lat="45.51091" lon="6.92145">
        <ele>1660.7</ele>
        <time>2020-08-08T08:55:12Z</time>
      </trkpt>
      <trkpt lat="45.51089" lon="6.92148">
        <ele>1661.1</ele>
        <time>2020-08-08T08:55:13Z</time>
      </trkpt>
      <trkpt lat="45.51085" lon="6.92153">
        <ele>1661.9</ele>
        <time>2020-08-08T08:55:15Z</time>
      </trkpt>
      <trkpt lat="45.51083" lon="6.92156">
        <ele>1662.4</ele>
        <time>2020-08-08T08:55:16Z</time>
      </trkpt>
      <trkpt lat="45.51082" lon="6.92158">
        <ele>1662.6</ele>
        <time>2020-08-08T08:55:17Z</time>
      </trkpt>
      <trkpt lat="45.51078" lon="6.92164">
        <ele>1663.5</ele>
        <time>2020-08-08T08:55:20Z</time>
      </trkpt>
      <trkpt lat="45.51076" lon="6.92167">
        <ele>1664</ele>
        <time>2020-08-08T08:55:21Z</time>
      </trkpt>
      <trkpt lat="45.51074" lon="6.92169">
        <ele>1664.3</ele>
        <time>2020-08-08T08:55:22Z</time>
      </trkpt>
      <trkpt lat="45.5107" lon="6.92177">
        <ele>1665.3</ele>
        <time>2020-08-08T08:55:25Z</time>
      </trkpt>
      <trkpt lat="45.51065" lon="6.92184">
        <ele>1666.2</ele>
        <time>2020-08-08T08:55:28Z</time>
      </trkpt>
      <trkpt lat="45.51063" lon="6.92187">
        <ele>1666.7</ele>
        <time>2020-08-08T08:55:30Z</time>
      </trkpt>
      <trkpt lat="45.5106" lon="6.92192">
        <ele>1667.3</ele>
        <time>2020-08-08T08:55:31Z</time>
      </trkpt>
      <trkpt lat="45.51057" lon="6.92197">
        <ele>1667.9</ele>
        <time>2020-08-08T08:55:33Z</time>
      </trkpt>
      <trkpt lat="45.51055" lon="6.922">
        <ele>1668.3</ele>
        <time>2020-08-08T08:55:35Z</time>
      </trkpt>
      <trkpt lat="45.51053" lon="6.92206">
        <ele>1668.9</ele>
        <time>2020-08-08T08:55:36Z</time>
      </trkpt>
      <trkpt lat="45.5105" lon="6.92211">
        <ele>1669.5</ele>
        <time>2020-08-08T08:55:37Z</time>
      </trkpt>
      <trkpt lat="45.51047" lon="6.92217">
        <ele>1670.2</ele>
        <time>2020-08-08T08:55:39Z</time>
      </trkpt>
      <trkpt lat="45.51046" lon="6.92219">
        <ele>1670.5</ele>
        <time>2020-08-08T08:55:40Z</time>
      </trkpt>
      <trkpt lat="45.51045" lon="6.92222">
        <ele>1670.8</ele>
        <time>2020-08-08T08:55:42Z</time>
      </trkpt>
      <trkpt lat="45.51043" lon="6.92226">
        <ele>1671.2</ele>
        <time>2020-08-08T08:55:44Z</time>
      </trkpt>
      <trkpt lat="45.51041" lon="6.92231">
        <ele>1671.8</ele>
        <time>2020-08-08T08:55:46Z</time>
      </trkpt>
      <trkpt lat="45.51038" lon="6.92235">
        <ele>1672.4</ele>
        <time>2020-08-08T08:55:47Z</time>
      </trkpt>
      <trkpt lat="45.51035" lon="6.92242">
        <ele>1673.2</ele>
        <time>2020-08-08T08:55:49Z</time>
      </trkpt>
      <trkpt lat="45.51033" lon="6.92246">
        <ele>1673.6</ele>
        <time>2020-08-08T08:55:50Z</time>
      </trkpt>
      <trkpt lat="45.5103" lon="6.92252">
        <ele>1674.3</ele>
        <time>2020-08-08T08:55:53Z</time>
      </trkpt>
      <trkpt lat="45.51026" lon="6.92262">
        <ele>1675.2</ele>
        <time>2020-08-08T08:55:56Z</time>
      </trkpt>
      <trkpt lat="45.51023" lon="6.92271">
        <ele>1676</ele>
        <time>2020-08-08T08:55:59Z</time>
      </trkpt>
      <trkpt lat="45.51021" lon="6.92274">
        <ele>1676.3</ele>
        <time>2020-08-08T08:56:00Z</time>
      </trkpt>
      <trkpt lat="45.5102" lon="6.92278">
        <ele>1676.6</ele>
        <time>2020-08-08T08:56:01Z</time>
      </trkpt>
      <trkpt lat="45.51018" lon="6.92283">
        <ele>1677.1</ele>
        <time>2020-08-08T08:56:02Z</time>
      </trkpt>
      <trkpt lat="45.51015" lon="6.92291">
        <ele>1677.9</ele>
        <time>2020-08-08T08:56:05Z</time>
      </trkpt>
      <trkpt lat="45.51014" lon="6.92295">
        <ele>1678.2</ele>
        <time>2020-08-08T08:56:06Z</time>
      </trkpt>
      <trkpt lat="45.51013" lon="6.92298">
        <ele>1678.6</ele>
        <time>2020-08-08T08:56:07Z</time>
      </trkpt>
      <trkpt lat="45.51011" lon="6.92302">
        <ele>1679</ele>
        <time>2020-08-08T08:56:09Z</time>
      </trkpt>
      <trkpt lat="45.51008" lon="6.92311">
        <ele>1679.8</ele>
        <time>2020-08-08T08:56:11Z</time>
      </trkpt>
      <trkpt lat="45.51006" lon="6.92316">
        <ele>1680.3</ele>
        <time>2020-08-08T08:56:13Z</time>
      </trkpt>
      <trkpt lat="45.51006" lon="6.92317">
        <ele>1680.5</ele>
        <time>2020-08-08T08:56:14Z</time>
      </trkpt>
      <trkpt lat="45.51003" lon="6.92325">
        <ele>1681.3</ele>
        <time>2020-08-08T08:56:16Z</time>
      </trkpt>
      <trkpt lat="45.51" lon="6.92333">
        <ele>1682.1</ele>
        <time>2020-08-08T08:56:19Z</time>
      </trkpt>
      <trkpt lat="45.50999" lon="6.92335">
        <ele>1682.3</ele>
        <time>2020-08-08T08:56:20Z</time>
      </trkpt>
      <trkpt lat="45.50998" lon="6.92338">
        <ele>1682.5</ele>
        <time>2020-08-08T08:56:21Z</time>
      </trkpt>
      <trkpt lat="45.50996" lon="6.92344">
        <ele>1683.2</ele>
        <time>2020-08-08T08:56:23Z</time>
      </trkpt>
      <trkpt lat="45.50995" lon="6.92346">
        <ele>1683.4</ele>
        <time>2020-08-08T08:56:24Z</time>
      </trkpt>
      <trkpt lat="45.50994" lon="6.92348">
        <ele>1683.7</ele>
        <time>2020-08-08T08:56:25Z</time>
      </trkpt>
      <trkpt lat="45.5099" lon="6.92356">
        <ele>1684.5</ele>
        <time>2020-08-08T08:56:27Z</time>
      </trkpt>
      <trkpt lat="45.50989" lon="6.92359">
        <ele>1684.8</ele>
        <time>2020-08-08T08:56:28Z</time>
      </trkpt>
      <trkpt lat="45.50988" lon="6.92362">
        <ele>1685.1</ele>
        <time>2020-08-08T08:56:30Z</time>
      </trkpt>
      <trkpt lat="45.50984" lon="6.92369">
        <ele>1685.9</ele>
        <time>2020-08-08T08:56:32Z</time>
      </trkpt>
      <trkpt lat="45.50982" lon="6.92375">
        <ele>1686.4</ele>
        <time>2020-08-08T08:56:34Z</time>
      </trkpt>
      <trkpt lat="45.50979" lon="6.9238">
        <ele>1686.9</ele>
        <time>2020-08-08T08:56:36Z</time>
      </trkpt>
      <trkpt lat="45.50977" lon="6.92384">
        <ele>1687.4</ele>
        <time>2020-08-08T08:56:37Z</time>
      </trkpt>
      <trkpt lat="45.50976" lon="6.92385">
        <ele>1687.6</ele>
        <time>2020-08-08T08:56:38Z</time>
      </trkpt>
      <trkpt lat="45.50974" lon="6.92388">
        <ele>1687.9</ele>
        <time>2020-08-08T08:56:41Z</time>
      </trkpt>
      <trkpt lat="45.50972" lon="6.9239">
        <ele>1688.3</ele>
        <time>2020-08-08T08:56:42Z</time>
      </trkpt>
      <trkpt lat="45.50968" lon="6.92395">
        <ele>1688.9</ele>
        <time>2020-08-08T08:56:44Z</time>
      </trkpt>
      <trkpt lat="45.50965" lon="6.92399">
        <ele>1689.4</ele>
        <time>2020-08-08T08:56:46Z</time>
      </trkpt>
      <trkpt lat="45.50962" lon="6.92403">
        <ele>1689.9</ele>
        <time>2020-08-08T08:56:47Z</time>
      </trkpt>
      <trkpt lat="45.50961" lon="6.92404">
        <ele>1690</ele>
        <time>2020-08-08T08:56:48Z</time>
      </trkpt>
      <trkpt lat="45.50959" lon="6.92408">
        <ele>1690.6</ele>
        <time>2020-08-08T08:56:49Z</time>
      </trkpt>
      <trkpt lat="45.50953" lon="6.92414">
        <ele>1691.7</ele>
        <time>2020-08-08T08:56:51Z</time>
      </trkpt>
      <trkpt lat="45.5095" lon="6.92416">
        <ele>1692.2</ele>
        <time>2020-08-08T08:56:53Z</time>
      </trkpt>
      <trkpt lat="45.50947" lon="6.92421">
        <ele>1693</ele>
        <time>2020-08-08T08:56:55Z</time>
      </trkpt>
      <trkpt lat="45.5094" lon="6.92428">
        <ele>1694.2</ele>
        <time>2020-08-08T08:56:58Z</time>
      </trkpt>
      <trkpt lat="45.50938" lon="6.9243">
        <ele>1694.7</ele>
        <time>2020-08-08T08:56:59Z</time>
      </trkpt>
      <trkpt lat="45.50935" lon="6.92433">
        <ele>1695.3</ele>
        <time>2020-08-08T08:57:01Z</time>
      </trkpt>
      <trkpt lat="45.50932" lon="6.92436">
        <ele>1695.9</ele>
        <time>2020-08-08T08:57:02Z</time>
      </trkpt>
      <trkpt lat="45.50928" lon="6.92439">
        <ele>1696.7</ele>
        <time>2020-08-08T08:57:05Z</time>
      </trkpt>
      <trkpt lat="45.50925" lon="6.92443">
        <ele>1697.5</ele>
        <time>2020-08-08T08:57:06Z</time>
      </trkpt>
      <trkpt lat="45.50919" lon="6.92449">
        <ele>1698.9</ele>
        <time>2020-08-08T08:57:08Z</time>
      </trkpt>
      <trkpt lat="45.50917" lon="6.9245">
        <ele>1699.2</ele>
        <time>2020-08-08T08:57:09Z</time>
      </trkpt>
      <trkpt lat="45.50915" lon="6.92453">
        <ele>1699.8</ele>
        <time>2020-08-08T08:57:11Z</time>
      </trkpt>
      <trkpt lat="45.5091" lon="6.92458">
        <ele>1700.8</ele>
        <time>2020-08-08T08:57:13Z</time>
      </trkpt>
      <trkpt lat="45.50908" lon="6.92461">
        <ele>1701.1</ele>
        <time>2020-08-08T08:57:15Z</time>
      </trkpt>
      <trkpt lat="45.50905" lon="6.92462">
        <ele>1701.2</ele>
        <time>2020-08-08T08:57:16Z</time>
      </trkpt>
      <trkpt lat="45.50902" lon="6.92464">
        <ele>1701.3</ele>
        <time>2020-08-08T08:57:17Z</time>
      </trkpt>
      <trkpt lat="45.50899" lon="6.92465">
        <ele>1701.4</ele>
        <time>2020-08-08T08:57:18Z</time>
      </trkpt>
      <trkpt lat="45.50896" lon="6.92468">
        <ele>1701.5</ele>
        <time>2020-08-08T08:57:21Z</time>
      </trkpt>
      <trkpt lat="45.50891" lon="6.92469">
        <ele>1701.7</ele>
        <time>2020-08-08T08:57:22Z</time>
      </trkpt>
      <trkpt lat="45.50888" lon="6.9247">
        <ele>1701.8</ele>
        <time>2020-08-08T08:57:23Z</time>
      </trkpt>
      <trkpt lat="45.50886" lon="6.9247">
        <ele>1701.8</ele>
        <time>2020-08-08T08:57:24Z</time>
      </trkpt>
      <trkpt lat="45.50878" lon="6.92473">
        <ele>1702</ele>
        <time>2020-08-08T08:57:27Z</time>
      </trkpt>
      <trkpt lat="45.50874" lon="6.92474">
        <ele>1702.5</ele>
        <time>2020-08-08T08:57:29Z</time>
      </trkpt>
      <trkpt lat="45.5087" lon="6.92475">
        <ele>1702.9</ele>
        <time>2020-08-08T08:57:31Z</time>
      </trkpt>
      <trkpt lat="45.50867" lon="6.92476">
        <ele>1703.2</ele>
        <time>2020-08-08T08:57:32Z</time>
      </trkpt>
      <trkpt lat="45.5086" lon="6.92479">
        <ele>1703.8</ele>
        <time>2020-08-08T08:57:35Z</time>
      </trkpt>
      <trkpt lat="45.50857" lon="6.92481">
        <ele>1704.1</ele>
        <time>2020-08-08T08:57:37Z</time>
      </trkpt>
      <trkpt lat="45.50854" lon="6.92482">
        <ele>1704.4</ele>
        <time>2020-08-08T08:57:39Z</time>
      </trkpt>
      <trkpt lat="45.50851" lon="6.92484">
        <ele>1704.7</ele>
        <time>2020-08-08T08:57:40Z</time>
      </trkpt>
      <trkpt lat="45.50847" lon="6.92486">
        <ele>1705.1</ele>
        <time>2020-08-08T08:57:41Z</time>
      </trkpt>
      <trkpt lat="45.50846" lon="6.92487">
        <ele>1705.2</ele>
        <time>2020-08-08T08:57:42Z</time>
      </trkpt>
      <trkpt lat="45.50843" lon="6.92488">
        <ele>1705.5</ele>
        <time>2020-08-08T08:57:43Z</time>
      </trkpt>
      <trkpt lat="45.5084" lon="6.9249">
        <ele>1705.8</ele>
        <time>2020-08-08T08:57:45Z</time>
      </trkpt>
      <trkpt lat="45.50838" lon="6.92492">
        <ele>1706</ele>
        <time>2020-08-08T08:57:46Z</time>
      </trkpt>
      <trkpt lat="45.50835" lon="6.92493">
        <ele>1706.2</ele>
        <time>2020-08-08T08:57:48Z</time>
      </trkpt>
      <trkpt lat="45.50832" lon="6.92495">
        <ele>1706.6</ele>
        <time>2020-08-08T08:57:49Z</time>
      </trkpt>
      <trkpt lat="45.50828" lon="6.92496">
        <ele>1706.9</ele>
        <time>2020-08-08T08:57:50Z</time>
      </trkpt>
      <trkpt lat="45.50827" lon="6.92497">
        <ele>1707</ele>
        <time>2020-08-08T08:57:51Z</time>
      </trkpt>
      <trkpt lat="45.50824" lon="6.92498">
        <ele>1707.4</ele>
        <time>2020-08-08T08:57:52Z</time>
      </trkpt>
      <trkpt lat="45.50821" lon="6.92499">
        <ele>1707.6</ele>
        <time>2020-08-08T08:57:54Z</time>
      </trkpt>
      <trkpt lat="45.50819" lon="6.925">
        <ele>1707.8</ele>
        <time>2020-08-08T08:57:55Z</time>
      </trkpt>
      <trkpt lat="45.50815" lon="6.92501">
        <ele>1708.2</ele>
        <time>2020-08-08T08:57:57Z</time>
      </trkpt>
      <trkpt lat="45.50811" lon="6.92503">
        <ele>1708.6</ele>
        <time>2020-08-08T08:57:59Z</time>
      </trkpt>
      <trkpt lat="45.50806" lon="6.92506">
        <ele>1709</ele>
        <time>2020-08-08T08:58:01Z</time>
      </trkpt>
      <trkpt lat="45.50803" lon="6.92507">
        <ele>1709.3</ele>
        <time>2020-08-08T08:58:02Z</time>
      </trkpt>
      <trkpt lat="45.50801" lon="6.92508">
        <ele>1709.6</ele>
        <time>2020-08-08T08:58:03Z</time>
      </trkpt>
      <trkpt lat="45.50795" lon="6.92511">
        <ele>1710.1</ele>
        <time>2020-08-08T08:58:06Z</time>
      </trkpt>
      <trkpt lat="45.50793" lon="6.92512">
        <ele>1710.4</ele>
        <time>2020-08-08T08:58:07Z</time>
      </trkpt>
      <trkpt lat="45.5079" lon="6.92514">
        <ele>1710.7</ele>
        <time>2020-08-08T08:58:08Z</time>
      </trkpt>
      <trkpt lat="45.50789" lon="6.92514">
        <ele>1710.8</ele>
        <time>2020-08-08T08:58:09Z</time>
      </trkpt>
      <trkpt lat="45.50785" lon="6.92517">
        <ele>1711.3</ele>
        <time>2020-08-08T08:58:11Z</time>
      </trkpt>
      <trkpt lat="45.50783" lon="6.92518">
        <ele>1711.5</ele>
        <time>2020-08-08T08:58:13Z</time>
      </trkpt>
      <trkpt lat="45.50781" lon="6.92519">
        <ele>1711.6</ele>
        <time>2020-08-08T08:58:14Z</time>
      </trkpt>
      <trkpt lat="45.50778" lon="6.9252">
        <ele>1711.9</ele>
        <time>2020-08-08T08:58:15Z</time>
      </trkpt>
      <trkpt lat="45.50773" lon="6.92521">
        <ele>1712.5</ele>
        <time>2020-08-08T08:58:17Z</time>
      </trkpt>
      <trkpt lat="45.50771" lon="6.92522">
        <ele>1712.7</ele>
        <time>2020-08-08T08:58:18Z</time>
      </trkpt>
      <trkpt lat="45.50767" lon="6.92523">
        <ele>1713.1</ele>
        <time>2020-08-08T08:58:20Z</time>
      </trkpt>
      <trkpt lat="45.50765" lon="6.92524">
        <ele>1713.3</ele>
        <time>2020-08-08T08:58:22Z</time>
      </trkpt>
      <trkpt lat="45.50763" lon="6.92525">
        <ele>1713.5</ele>
        <time>2020-08-08T08:58:23Z</time>
      </trkpt>
      <trkpt lat="45.50759" lon="6.92527">
        <ele>1713.9</ele>
        <time>2020-08-08T08:58:25Z</time>
      </trkpt>
      <trkpt lat="45.50757" lon="6.92529">
        <ele>1714.1</ele>
        <time>2020-08-08T08:58:26Z</time>
      </trkpt>
      <trkpt lat="45.5075" lon="6.92535">
        <ele>1714.8</ele>
        <time>2020-08-08T08:58:28Z</time>
      </trkpt>
      <trkpt lat="45.50747" lon="6.92538">
        <ele>1715.1</ele>
        <time>2020-08-08T08:58:30Z</time>
      </trkpt>
      <trkpt lat="45.50743" lon="6.92541">
        <ele>1715.5</ele>
        <time>2020-08-08T08:58:31Z</time>
      </trkpt>
      <trkpt lat="45.50742" lon="6.92543">
        <ele>1715.6</ele>
        <time>2020-08-08T08:58:32Z</time>
      </trkpt>
      <trkpt lat="45.50737" lon="6.92552">
        <ele>1716.2</ele>
        <time>2020-08-08T08:58:35Z</time>
      </trkpt>
      <trkpt lat="45.50734" lon="6.92557">
        <ele>1716.6</ele>
        <time>2020-08-08T08:58:38Z</time>
      </trkpt>
      <trkpt lat="45.50733" lon="6.9256">
        <ele>1716.8</ele>
        <time>2020-08-08T08:58:39Z</time>
      </trkpt>
      <trkpt lat="45.5073" lon="6.92565">
        <ele>1717.1</ele>
        <time>2020-08-08T08:58:40Z</time>
      </trkpt>
      <trkpt lat="45.50726" lon="6.92571">
        <ele>1717.5</ele>
        <time>2020-08-08T08:58:42Z</time>
      </trkpt>
      <trkpt lat="45.50725" lon="6.92574">
        <ele>1717.6</ele>
        <time>2020-08-08T08:58:43Z</time>
      </trkpt>
      <trkpt lat="45.50723" lon="6.92578">
        <ele>1717.8</ele>
        <time>2020-08-08T08:58:44Z</time>
      </trkpt>
      <trkpt lat="45.50721" lon="6.92583">
        <ele>1718.1</ele>
        <time>2020-08-08T08:58:46Z</time>
      </trkpt>
      <trkpt lat="45.50716" lon="6.92592">
        <ele>1718.5</ele>
        <time>2020-08-08T08:58:48Z</time>
      </trkpt>
      <trkpt lat="45.50712" lon="6.926">
        <ele>1718.9</ele>
        <time>2020-08-08T08:58:51Z</time>
      </trkpt>
      <trkpt lat="45.5071" lon="6.92604">
        <ele>1719.1</ele>
        <time>2020-08-08T08:58:52Z</time>
      </trkpt>
      <trkpt lat="45.50706" lon="6.92611">
        <ele>1719.5</ele>
        <time>2020-08-08T08:58:54Z</time>
      </trkpt>
      <trkpt lat="45.50704" lon="6.92614">
        <ele>1719.6</ele>
        <time>2020-08-08T08:58:56Z</time>
      </trkpt>
      <trkpt lat="45.50702" lon="6.92617">
        <ele>1719.7</ele>
        <time>2020-08-08T08:58:57Z</time>
      </trkpt>
      <trkpt lat="45.50699" lon="6.92621">
        <ele>1719.8</ele>
        <time>2020-08-08T08:58:58Z</time>
      </trkpt>
      <trkpt lat="45.50695" lon="6.92629">
        <ele>1720</ele>
        <time>2020-08-08T08:59:01Z</time>
      </trkpt>
      <trkpt lat="45.50692" lon="6.92633">
        <ele>1720.2</ele>
        <time>2020-08-08T08:59:02Z</time>
      </trkpt>
      <trkpt lat="45.5069" lon="6.92636">
        <ele>1720.4</ele>
        <time>2020-08-08T08:59:03Z</time>
      </trkpt>
      <trkpt lat="45.50688" lon="6.9264">
        <ele>1720.6</ele>
        <time>2020-08-08T08:59:05Z</time>
      </trkpt>
      <trkpt lat="45.50682" lon="6.92648">
        <ele>1721.1</ele>
        <time>2020-08-08T08:59:07Z</time>
      </trkpt>
      <trkpt lat="45.50679" lon="6.92651">
        <ele>1721.3</ele>
        <time>2020-08-08T08:59:09Z</time>
      </trkpt>
      <trkpt lat="45.50673" lon="6.92658">
        <ele>1721.7</ele>
        <time>2020-08-08T08:59:11Z</time>
      </trkpt>
      <trkpt lat="45.50669" lon="6.92662">
        <ele>1721.7</ele>
        <time>2020-08-08T08:59:14Z</time>
      </trkpt>
      <trkpt lat="45.50666" lon="6.92667">
        <ele>1721.7</ele>
        <time>2020-08-08T08:59:15Z</time>
      </trkpt>
      <trkpt lat="45.50663" lon="6.9267">
        <ele>1721.7</ele>
        <time>2020-08-08T08:59:16Z</time>
      </trkpt>
      <trkpt lat="45.5066" lon="6.92675">
        <ele>1721.7</ele>
        <time>2020-08-08T08:59:17Z</time>
      </trkpt>
      <trkpt lat="45.50657" lon="6.92678">
        <ele>1721.7</ele>
        <time>2020-08-08T08:59:19Z</time>
      </trkpt>
      <trkpt lat="45.50654" lon="6.92681">
        <ele>1721.7</ele>
        <time>2020-08-08T08:59:20Z</time>
      </trkpt>
      <trkpt lat="45.50653" lon="6.92682">
        <ele>1721.7</ele>
        <time>2020-08-08T08:59:21Z</time>
      </trkpt>
      <trkpt lat="45.50651" lon="6.92685">
        <ele>1721.7</ele>
        <time>2020-08-08T08:59:23Z</time>
      </trkpt>
      <trkpt lat="45.50649" lon="6.92687">
        <ele>1721.7</ele>
        <time>2020-08-08T08:59:24Z</time>
      </trkpt>
      <trkpt lat="45.50648" lon="6.92689">
        <ele>1721.7</ele>
        <time>2020-08-08T08:59:26Z</time>
      </trkpt>
      <trkpt lat="45.50664" lon="6.92669">
        <ele>1721.7</ele>
        <time>2020-08-08T08:59:29Z</time>
      </trkpt>
      <trkpt lat="45.50664" lon="6.92669">
        <ele>1721.7</ele>
        <time>2020-08-08T08:59:34Z</time>
      </trkpt>
      <trkpt lat="45.50504" lon="6.9283">
        <ele>1732.8</ele>
        <time>2020-08-08T09:00:07Z</time>
      </trkpt>
      <trkpt lat="45.50503" lon="6.92833">
        <ele>1733.3</ele>
        <time>2020-08-08T09:00:08Z</time>
      </trkpt>
      <trkpt lat="45.50504" lon="6.92844">
        <ele>1734.9</ele>
        <time>2020-08-08T09:00:10Z</time>
      </trkpt>
      <trkpt lat="45.505" lon="6.92851">
        <ele>1736</ele>
        <time>2020-08-08T09:00:12Z</time>
      </trkpt>
      <trkpt lat="45.50495" lon="6.92856">
        <ele>1736.8</ele>
        <time>2020-08-08T09:00:13Z</time>
      </trkpt>
      <trkpt lat="45.50493" lon="6.92859">
        <ele>1737.1</ele>
        <time>2020-08-08T09:00:14Z</time>
      </trkpt>
      <trkpt lat="45.5049" lon="6.92865">
        <ele>1737.5</ele>
        <time>2020-08-08T09:00:17Z</time>
      </trkpt>
      <trkpt lat="45.50488" lon="6.92871">
        <ele>1737.8</ele>
        <time>2020-08-08T09:00:18Z</time>
      </trkpt>
      <trkpt lat="45.50489" lon="6.92872">
        <ele>1737.9</ele>
        <time>2020-08-08T09:00:19Z</time>
      </trkpt>
      <trkpt lat="45.50485" lon="6.92878">
        <ele>1738.2</ele>
        <time>2020-08-08T09:00:21Z</time>
      </trkpt>
      <trkpt lat="45.50482" lon="6.92882">
        <ele>1738.4</ele>
        <time>2020-08-08T09:00:23Z</time>
      </trkpt>
      <trkpt lat="45.50482" lon="6.92883">
        <ele>1738.5</ele>
        <time>2020-08-08T09:00:24Z</time>
      </trkpt>
      <trkpt lat="45.50479" lon="6.92887">
        <ele>1738.6</ele>
        <time>2020-08-08T09:00:25Z</time>
      </trkpt>
      <trkpt lat="45.50478" lon="6.92888">
        <ele>1738.7</ele>
        <time>2020-08-08T09:00:26Z</time>
      </trkpt>
      <trkpt lat="45.50476" lon="6.92892">
        <ele>1738.8</ele>
        <time>2020-08-08T09:00:28Z</time>
      </trkpt>
      <trkpt lat="45.50475" lon="6.92892">
        <ele>1738.8</ele>
        <time>2020-08-08T09:00:29Z</time>
      </trkpt>
      <trkpt lat="45.50473" lon="6.92894">
        <ele>1738.9</ele>
        <time>2020-08-08T09:00:31Z</time>
      </trkpt>
      <trkpt lat="45.50469" lon="6.929">
        <ele>1739.1</ele>
        <time>2020-08-08T09:00:33Z</time>
      </trkpt>
      <trkpt lat="45.50466" lon="6.92904">
        <ele>1739.1</ele>
        <time>2020-08-08T09:00:36Z</time>
      </trkpt>
      <trkpt lat="45.50465" lon="6.92905">
        <ele>1739.2</ele>
        <time>2020-08-08T09:00:37Z</time>
      </trkpt>
      <trkpt lat="45.50464" lon="6.92906">
        <ele>1739.2</ele>
        <time>2020-08-08T09:00:38Z</time>
      </trkpt>
      <trkpt lat="45.50461" lon="6.92909">
        <ele>1739.3</ele>
        <time>2020-08-08T09:00:39Z</time>
      </trkpt>
      <trkpt lat="45.50459" lon="6.92909">
        <ele>1739.3</ele>
        <time>2020-08-08T09:00:40Z</time>
      </trkpt>
      <trkpt lat="45.50456" lon="6.92913">
        <ele>1739.4</ele>
        <time>2020-08-08T09:00:42Z</time>
      </trkpt>
      <trkpt lat="45.50454" lon="6.92915">
        <ele>1739.5</ele>
        <time>2020-08-08T09:00:43Z</time>
      </trkpt>
      <trkpt lat="45.50451" lon="6.92917">
        <ele>1739.6</ele>
        <time>2020-08-08T09:00:45Z</time>
      </trkpt>
      <trkpt lat="45.50446" lon="6.92922">
        <ele>1739.7</ele>
        <time>2020-08-08T09:00:46Z</time>
      </trkpt>
      <trkpt lat="45.50442" lon="6.92925">
        <ele>1739.9</ele>
        <time>2020-08-08T09:00:47Z</time>
      </trkpt>
      <trkpt lat="45.50438" lon="6.92928">
        <ele>1740</ele>
        <time>2020-08-08T09:00:48Z</time>
      </trkpt>
      <trkpt lat="45.50421" lon="6.92947">
        <ele>1740.6</ele>
        <time>2020-08-08T09:00:49Z</time>
      </trkpt>
      <trkpt lat="45.50418" lon="6.9295">
        <ele>1740.6</ele>
        <time>2020-08-08T09:00:52Z</time>
      </trkpt>
      <trkpt lat="45.50411" lon="6.92957">
        <ele>1740.8</ele>
        <time>2020-08-08T09:00:54Z</time>
      </trkpt>
      <trkpt lat="45.50409" lon="6.92959">
        <ele>1740.9</ele>
        <time>2020-08-08T09:00:55Z</time>
      </trkpt>
      <trkpt lat="45.50406" lon="6.92961">
        <ele>1740.9</ele>
        <time>2020-08-08T09:00:56Z</time>
      </trkpt>
      <trkpt lat="45.50403" lon="6.92963">
        <ele>1741</ele>
        <time>2020-08-08T09:00:59Z</time>
      </trkpt>
      <trkpt lat="45.50398" lon="6.92966">
        <ele>1741.2</ele>
        <time>2020-08-08T09:01:01Z</time>
      </trkpt>
      <trkpt lat="45.50395" lon="6.92968">
        <ele>1741.3</ele>
        <time>2020-08-08T09:01:02Z</time>
      </trkpt>
      <trkpt lat="45.50393" lon="6.92969">
        <ele>1741.4</ele>
        <time>2020-08-08T09:01:03Z</time>
      </trkpt>
      <trkpt lat="45.50388" lon="6.92972">
        <ele>1741.5</ele>
        <time>2020-08-08T09:01:04Z</time>
      </trkpt>
      <trkpt lat="45.50385" lon="6.92974">
        <ele>1741.6</ele>
        <time>2020-08-08T09:01:05Z</time>
      </trkpt>
      <trkpt lat="45.50379" lon="6.92978">
        <ele>1741.9</ele>
        <time>2020-08-08T09:01:07Z</time>
      </trkpt>
      <trkpt lat="45.50372" lon="6.92984">
        <ele>1742.1</ele>
        <time>2020-08-08T09:01:10Z</time>
      </trkpt>
      <trkpt lat="45.5037" lon="6.92986">
        <ele>1742.2</ele>
        <time>2020-08-08T09:01:11Z</time>
      </trkpt>
      <trkpt lat="45.50366" lon="6.92988">
        <ele>1742.4</ele>
        <time>2020-08-08T09:01:13Z</time>
      </trkpt>
      <trkpt lat="45.50365" lon="6.92989">
        <ele>1742.4</ele>
        <time>2020-08-08T09:01:14Z</time>
      </trkpt>
      <trkpt lat="45.50362" lon="6.9299">
        <ele>1742.5</ele>
        <time>2020-08-08T09:01:15Z</time>
      </trkpt>
      <trkpt lat="45.50359" lon="6.92991">
        <ele>1742.7</ele>
        <time>2020-08-08T09:01:16Z</time>
      </trkpt>
      <trkpt lat="45.50356" lon="6.92993">
        <ele>1742.8</ele>
        <time>2020-08-08T09:01:17Z</time>
      </trkpt>
      <trkpt lat="45.50354" lon="6.92994">
        <ele>1742.9</ele>
        <time>2020-08-08T09:01:19Z</time>
      </trkpt>
      <trkpt lat="45.5035" lon="6.92997">
        <ele>1743.1</ele>
        <time>2020-08-08T09:01:20Z</time>
      </trkpt>
      <trkpt lat="45.50344" lon="6.93001">
        <ele>1743.4</ele>
        <time>2020-08-08T09:01:23Z</time>
      </trkpt>
      <trkpt lat="45.50339" lon="6.93003">
        <ele>1743.5</ele>
        <time>2020-08-08T09:01:25Z</time>
      </trkpt>
      <trkpt lat="45.50337" lon="6.93003">
        <ele>1743.6</ele>
        <time>2020-08-08T09:01:26Z</time>
      </trkpt>
      <trkpt lat="45.50336" lon="6.93004">
        <ele>1743.6</ele>
        <time>2020-08-08T09:01:27Z</time>
      </trkpt>
      <trkpt lat="45.50329" lon="6.93006">
        <ele>1743.9</ele>
        <time>2020-08-08T09:01:30Z</time>
      </trkpt>
      <trkpt lat="45.50325" lon="6.93007">
        <ele>1743.9</ele>
        <time>2020-08-08T09:01:31Z</time>
      </trkpt>
      <trkpt lat="45.50322" lon="6.93008">
        <ele>1744</ele>
        <time>2020-08-08T09:01:33Z</time>
      </trkpt>
      <trkpt lat="45.50318" lon="6.93008">
        <ele>1744.1</ele>
        <time>2020-08-08T09:01:34Z</time>
      </trkpt>
      <trkpt lat="45.50313" lon="6.9301">
        <ele>1744.3</ele>
        <time>2020-08-08T09:01:37Z</time>
      </trkpt>
      <trkpt lat="45.50311" lon="6.9301">
        <ele>1744.4</ele>
        <time>2020-08-08T09:01:38Z</time>
      </trkpt>
      <trkpt lat="45.50305" lon="6.93012">
        <ele>1744.7</ele>
        <time>2020-08-08T09:01:41Z</time>
      </trkpt>
      <trkpt lat="45.50301" lon="6.93013">
        <ele>1744.8</ele>
        <time>2020-08-08T09:01:43Z</time>
      </trkpt>
      <trkpt lat="45.50298" lon="6.93015">
        <ele>1745</ele>
        <time>2020-08-08T09:01:44Z</time>
      </trkpt>
      <trkpt lat="45.50295" lon="6.93016">
        <ele>1745.1</ele>
        <time>2020-08-08T09:01:45Z</time>
      </trkpt>
      <trkpt lat="45.5029" lon="6.93017">
        <ele>1745.3</ele>
        <time>2020-08-08T09:01:47Z</time>
      </trkpt>
      <trkpt lat="45.50288" lon="6.93018">
        <ele>1745.4</ele>
        <time>2020-08-08T09:01:48Z</time>
      </trkpt>
      <trkpt lat="45.50287" lon="6.93018">
        <ele>1745.4</ele>
        <time>2020-08-08T09:01:49Z</time>
      </trkpt>
      <trkpt lat="45.5028" lon="6.9302">
        <ele>1745.6</ele>
        <time>2020-08-08T09:01:51Z</time>
      </trkpt>
      <trkpt lat="45.50273" lon="6.93021">
        <ele>1745.8</ele>
        <time>2020-08-08T09:01:54Z</time>
      </trkpt>
      <trkpt lat="45.5027" lon="6.93022">
        <ele>1745.9</ele>
        <time>2020-08-08T09:01:56Z</time>
      </trkpt>
      <trkpt lat="45.50269" lon="6.93022">
        <ele>1746</ele>
        <time>2020-08-08T09:01:57Z</time>
      </trkpt>
      <trkpt lat="45.50266" lon="6.93023">
        <ele>1746.1</ele>
        <time>2020-08-08T09:01:58Z</time>
      </trkpt>
      <trkpt lat="45.50262" lon="6.93024">
        <ele>1746.2</ele>
        <time>2020-08-08T09:02:01Z</time>
      </trkpt>
      <trkpt lat="45.50258" lon="6.93024">
        <ele>1746.4</ele>
        <time>2020-08-08T09:02:03Z</time>
      </trkpt>
      <trkpt lat="45.50254" lon="6.93024">
        <ele>1746.5</ele>
        <time>2020-08-08T09:02:05Z</time>
      </trkpt>
      <trkpt lat="45.5025" lon="6.93023">
        <ele>1746.6</ele>
        <time>2020-08-08T09:02:06Z</time>
      </trkpt>
      <trkpt lat="45.50244" lon="6.93021">
        <ele>1746.9</ele>
        <time>2020-08-08T09:02:08Z</time>
      </trkpt>
      <trkpt lat="45.5024" lon="6.9302">
        <ele>1747</ele>
        <time>2020-08-08T09:02:11Z</time>
      </trkpt>
      <trkpt lat="45.50236" lon="6.93019">
        <ele>1747.2</ele>
        <time>2020-08-08T09:02:13Z</time>
      </trkpt>
      <trkpt lat="45.50231" lon="6.93018">
        <ele>1747.4</ele>
        <time>2020-08-08T09:02:14Z</time>
      </trkpt>
      <trkpt lat="45.50228" lon="6.93018">
        <ele>1747.5</ele>
        <time>2020-08-08T09:02:15Z</time>
      </trkpt>
      <trkpt lat="45.50226" lon="6.93018">
        <ele>1747.6</ele>
        <time>2020-08-08T09:02:16Z</time>
      </trkpt>
      <trkpt lat="45.50223" lon="6.93017">
        <ele>1747.7</ele>
        <time>2020-08-08T09:02:19Z</time>
      </trkpt>
      <trkpt lat="45.50218" lon="6.93016">
        <ele>1748</ele>
        <time>2020-08-08T09:02:20Z</time>
      </trkpt>
      <trkpt lat="45.50214" lon="6.93017">
        <ele>1748.1</ele>
        <time>2020-08-08T09:02:22Z</time>
      </trkpt>
      <trkpt lat="45.50213" lon="6.93017">
        <ele>1748.2</ele>
        <time>2020-08-08T09:02:23Z</time>
      </trkpt>
      <trkpt lat="45.50208" lon="6.93017">
        <ele>1748.4</ele>
        <time>2020-08-08T09:02:24Z</time>
      </trkpt>
      <trkpt lat="45.50203" lon="6.93019">
        <ele>1748.7</ele>
        <time>2020-08-08T09:02:26Z</time>
      </trkpt>
      <trkpt lat="45.50199" lon="6.93019">
        <ele>1748.8</ele>
        <time>2020-08-08T09:02:27Z</time>
      </trkpt>
      <trkpt lat="45.50198" lon="6.93019">
        <ele>1748.9</ele>
        <time>2020-08-08T09:02:28Z</time>
      </trkpt>
      <trkpt lat="45.50195" lon="6.9302">
        <ele>1749</ele>
        <time>2020-08-08T09:02:30Z</time>
      </trkpt>
      <trkpt lat="45.50189" lon="6.93022">
        <ele>1749.3</ele>
        <time>2020-08-08T09:02:32Z</time>
      </trkpt>
      <trkpt lat="45.50184" lon="6.93025">
        <ele>1749.6</ele>
        <time>2020-08-08T09:02:35Z</time>
      </trkpt>
      <trkpt lat="45.50182" lon="6.93026">
        <ele>1749.7</ele>
        <time>2020-08-08T09:02:36Z</time>
      </trkpt>
      <trkpt lat="45.50179" lon="6.93027">
        <ele>1749.8</ele>
        <time>2020-08-08T09:02:37Z</time>
      </trkpt>
      <trkpt lat="45.50173" lon="6.9303">
        <ele>1750.1</ele>
        <time>2020-08-08T09:02:40Z</time>
      </trkpt>
      <trkpt lat="45.50168" lon="6.93033">
        <ele>1750.3</ele>
        <time>2020-08-08T09:02:42Z</time>
      </trkpt>
      <trkpt lat="45.50165" lon="6.93035">
        <ele>1750.4</ele>
        <time>2020-08-08T09:02:44Z</time>
      </trkpt>
      <trkpt lat="45.50163" lon="6.93036">
        <ele>1750.5</ele>
        <time>2020-08-08T09:02:45Z</time>
      </trkpt>
      <trkpt lat="45.50161" lon="6.93037">
        <ele>1750.6</ele>
        <time>2020-08-08T09:02:46Z</time>
      </trkpt>
      <trkpt lat="45.50155" lon="6.9304">
        <ele>1750.9</ele>
        <time>2020-08-08T09:02:48Z</time>
      </trkpt>
      <trkpt lat="45.50153" lon="6.93042">
        <ele>1751</ele>
        <time>2020-08-08T09:02:49Z</time>
      </trkpt>
      <trkpt lat="45.50149" lon="6.93044">
        <ele>1751.1</ele>
        <time>2020-08-08T09:02:51Z</time>
      </trkpt>
      <trkpt lat="45.50146" lon="6.93046">
        <ele>1751.3</ele>
        <time>2020-08-08T09:02:52Z</time>
      </trkpt>
      <trkpt lat="45.50145" lon="6.93047">
        <ele>1751.3</ele>
        <time>2020-08-08T09:02:53Z</time>
      </trkpt>
      <trkpt lat="45.50142" lon="6.93048">
        <ele>1751.4</ele>
        <time>2020-08-08T09:02:54Z</time>
      </trkpt>
      <trkpt lat="45.50136" lon="6.9305">
        <ele>1751.7</ele>
        <time>2020-08-08T09:02:56Z</time>
      </trkpt>
      <trkpt lat="45.50132" lon="6.93052">
        <ele>1751.8</ele>
        <time>2020-08-08T09:02:57Z</time>
      </trkpt>
      <trkpt lat="45.50131" lon="6.93053">
        <ele>1751.8</ele>
        <time>2020-08-08T09:02:58Z</time>
      </trkpt>
      <trkpt lat="45.50127" lon="6.93055">
        <ele>1752</ele>
        <time>2020-08-08T09:03:00Z</time>
      </trkpt>
      <trkpt lat="45.50125" lon="6.93056">
        <ele>1752.1</ele>
        <time>2020-08-08T09:03:01Z</time>
      </trkpt>
      <trkpt lat="45.50122" lon="6.93058">
        <ele>1752.2</ele>
        <time>2020-08-08T09:03:03Z</time>
      </trkpt>
      <trkpt lat="45.50117" lon="6.9306">
        <ele>1752.4</ele>
        <time>2020-08-08T09:03:06Z</time>
      </trkpt>
      <trkpt lat="45.50112" lon="6.93062">
        <ele>1752.6</ele>
        <time>2020-08-08T09:03:08Z</time>
      </trkpt>
      <trkpt lat="45.50107" lon="6.93064">
        <ele>1752.8</ele>
        <time>2020-08-08T09:03:09Z</time>
      </trkpt>
      <trkpt lat="45.50103" lon="6.93065">
        <ele>1752.9</ele>
        <time>2020-08-08T09:03:11Z</time>
      </trkpt>
      <trkpt lat="45.501" lon="6.93066">
        <ele>1753</ele>
        <time>2020-08-08T09:03:12Z</time>
      </trkpt>
      <trkpt lat="45.50097" lon="6.93067">
        <ele>1753.2</ele>
        <time>2020-08-08T09:03:13Z</time>
      </trkpt>
      <trkpt lat="45.50096" lon="6.93068">
        <ele>1753.2</ele>
        <time>2020-08-08T09:03:14Z</time>
      </trkpt>
      <trkpt lat="45.50092" lon="6.93069">
        <ele>1753.3</ele>
        <time>2020-08-08T09:03:17Z</time>
      </trkpt>
      <trkpt lat="45.50088" lon="6.93071">
        <ele>1753.5</ele>
        <time>2020-08-08T09:03:19Z</time>
      </trkpt>
      <trkpt lat="45.50081" lon="6.93073">
        <ele>1753.8</ele>
        <time>2020-08-08T09:03:21Z</time>
      </trkpt>
      <trkpt lat="45.50074" lon="6.93075">
        <ele>1754</ele>
        <time>2020-08-08T09:03:24Z</time>
      </trkpt>
      <trkpt lat="45.50071" lon="6.93075">
        <ele>1754.2</ele>
        <time>2020-08-08T09:03:25Z</time>
      </trkpt>
      <trkpt lat="45.50068" lon="6.93076">
        <ele>1754.3</ele>
        <time>2020-08-08T09:03:27Z</time>
      </trkpt>
      <trkpt lat="45.50067" lon="6.93076">
        <ele>1754.3</ele>
        <time>2020-08-08T09:03:28Z</time>
      </trkpt>
      <trkpt lat="45.50063" lon="6.93077">
        <ele>1754.4</ele>
        <time>2020-08-08T09:03:29Z</time>
      </trkpt>
      <trkpt lat="45.50062" lon="6.93077">
        <ele>1754.5</ele>
        <time>2020-08-08T09:03:30Z</time>
      </trkpt>
      <trkpt lat="45.50059" lon="6.93078">
        <ele>1754.5</ele>
        <time>2020-08-08T09:03:32Z</time>
      </trkpt>
      <trkpt lat="45.50058" lon="6.93079">
        <ele>1754.5</ele>
        <time>2020-08-08T09:03:33Z</time>
      </trkpt>
      <trkpt lat="45.50052" lon="6.93081">
        <ele>1754.6</ele>
        <time>2020-08-08T09:03:34Z</time>
      </trkpt>
      <trkpt lat="45.50046" lon="6.93084">
        <ele>1754.4</ele>
        <time>2020-08-08T09:03:37Z</time>
      </trkpt>
      <trkpt lat="45.50043" lon="6.93086">
        <ele>1754.3</ele>
        <time>2020-08-08T09:03:39Z</time>
      </trkpt>
      <trkpt lat="45.50036" lon="6.93088">
        <ele>1755.7</ele>
        <time>2020-08-08T09:03:41Z</time>
      </trkpt>
      <trkpt lat="45.50034" lon="6.93089">
        <ele>1756.1</ele>
        <time>2020-08-08T09:03:42Z</time>
      </trkpt>
      <trkpt lat="45.50032" lon="6.9309">
        <ele>1756.6</ele>
        <time>2020-08-08T09:03:44Z</time>
      </trkpt>
      <trkpt lat="45.5003" lon="6.93092">
        <ele>1757.2</ele>
        <time>2020-08-08T09:03:46Z</time>
      </trkpt>
      <trkpt lat="45.50029" lon="6.93093">
        <ele>1757.4</ele>
        <time>2020-08-08T09:03:47Z</time>
      </trkpt>
      <trkpt lat="45.50025" lon="6.93094">
        <ele>1758.3</ele>
        <time>2020-08-08T09:03:48Z</time>
      </trkpt>
      <trkpt lat="45.50023" lon="6.93096">
        <ele>1758.7</ele>
        <time>2020-08-08T09:03:49Z</time>
      </trkpt>
      <trkpt lat="45.50021" lon="6.93097">
        <ele>1759.2</ele>
        <time>2020-08-08T09:03:51Z</time>
      </trkpt>
      <trkpt lat="45.50016" lon="6.93099">
        <ele>1760.3</ele>
        <time>2020-08-08T09:03:52Z</time>
      </trkpt>
      <trkpt lat="45.50014" lon="6.93101">
        <ele>1760.7</ele>
        <time>2020-08-08T09:03:53Z</time>
      </trkpt>
      <trkpt lat="45.5001" lon="6.93103">
        <ele>1761.4</ele>
        <time>2020-08-08T09:03:55Z</time>
      </trkpt>
      <trkpt lat="45.50006" lon="6.93107">
        <ele>1762.4</ele>
        <time>2020-08-08T09:03:57Z</time>
      </trkpt>
      <trkpt lat="45.50003" lon="6.93109">
        <ele>1762.9</ele>
        <time>2020-08-08T09:03:58Z</time>
      </trkpt>
      <trkpt lat="45.50001" lon="6.9311">
        <ele>1763.3</ele>
        <time>2020-08-08T09:03:59Z</time>
      </trkpt>
      <trkpt lat="45.49997" lon="6.93113">
        <ele>1764.1</ele>
        <time>2020-08-08T09:04:01Z</time>
      </trkpt>
      <trkpt lat="45.49991" lon="6.93117">
        <ele>1765</ele>
        <time>2020-08-08T09:04:03Z</time>
      </trkpt>
      <trkpt lat="45.49989" lon="6.93119">
        <ele>1765.5</ele>
        <time>2020-08-08T09:04:04Z</time>
      </trkpt>
      <trkpt lat="45.49982" lon="6.93123">
        <ele>1766.7</ele>
        <time>2020-08-08T09:04:07Z</time>
      </trkpt>
      <trkpt lat="45.49979" lon="6.93125">
        <ele>1767.4</ele>
        <time>2020-08-08T09:04:09Z</time>
      </trkpt>
      <trkpt lat="45.49976" lon="6.93127">
        <ele>1768</ele>
        <time>2020-08-08T09:04:10Z</time>
      </trkpt>
      <trkpt lat="45.49974" lon="6.93129">
        <ele>1768.4</ele>
        <time>2020-08-08T09:04:11Z</time>
      </trkpt>
      <trkpt lat="45.4997" lon="6.9313">
        <ele>1769.1</ele>
        <time>2020-08-08T09:04:13Z</time>
      </trkpt>
      <trkpt lat="45.49965" lon="6.93133">
        <ele>1770.2</ele>
        <time>2020-08-08T09:04:15Z</time>
      </trkpt>
      <trkpt lat="45.49963" lon="6.93135">
        <ele>1770.8</ele>
        <time>2020-08-08T09:04:17Z</time>
      </trkpt>
      <trkpt lat="45.49957" lon="6.93137">
        <ele>1772.1</ele>
        <time>2020-08-08T09:04:19Z</time>
      </trkpt>
      <trkpt lat="45.49953" lon="6.93139">
        <ele>1772.8</ele>
        <time>2020-08-08T09:04:21Z</time>
      </trkpt>
      <trkpt lat="45.4995" lon="6.93141">
        <ele>1773.4</ele>
        <time>2020-08-08T09:04:22Z</time>
      </trkpt>
      <trkpt lat="45.49947" lon="6.93141">
        <ele>1774.1</ele>
        <time>2020-08-08T09:04:23Z</time>
      </trkpt>
      <trkpt lat="45.49946" lon="6.93142">
        <ele>1774.4</ele>
        <time>2020-08-08T09:04:24Z</time>
      </trkpt>
      <trkpt lat="45.49943" lon="6.93143">
        <ele>1774.8</ele>
        <time>2020-08-08T09:04:25Z</time>
      </trkpt>
      <trkpt lat="45.49941" lon="6.93144">
        <ele>1774.9</ele>
        <time>2020-08-08T09:04:26Z</time>
      </trkpt>
      <trkpt lat="45.49939" lon="6.93146">
        <ele>1775.3</ele>
        <time>2020-08-08T09:04:28Z</time>
      </trkpt>
      <trkpt lat="45.49937" lon="6.93146">
        <ele>1775.4</ele>
        <time>2020-08-08T09:04:29Z</time>
      </trkpt>
      <trkpt lat="45.49934" lon="6.93148">
        <ele>1775.8</ele>
        <time>2020-08-08T09:04:30Z</time>
      </trkpt>
      <trkpt lat="45.49933" lon="6.93148">
        <ele>1775.9</ele>
        <time>2020-08-08T09:04:31Z</time>
      </trkpt>
      <trkpt lat="45.49931" lon="6.93149">
        <ele>1776.1</ele>
        <time>2020-08-08T09:04:32Z</time>
      </trkpt>
      <trkpt lat="45.49926" lon="6.93151">
        <ele>1776.6</ele>
        <time>2020-08-08T09:04:34Z</time>
      </trkpt>
      <trkpt lat="45.49924" lon="6.93152">
        <ele>1776.8</ele>
        <time>2020-08-08T09:04:35Z</time>
      </trkpt>
      <trkpt lat="45.49922" lon="6.93154">
        <ele>1777.1</ele>
        <time>2020-08-08T09:04:36Z</time>
      </trkpt>
      <trkpt lat="45.49921" lon="6.93155">
        <ele>1777.2</ele>
        <time>2020-08-08T09:04:37Z</time>
      </trkpt>
      <trkpt lat="45.49914" lon="6.93158">
        <ele>1777.9</ele>
        <time>2020-08-08T09:04:40Z</time>
      </trkpt>
      <trkpt lat="45.49913" lon="6.93158">
        <ele>1778</ele>
        <time>2020-08-08T09:04:41Z</time>
      </trkpt>
      <trkpt lat="45.49909" lon="6.9316">
        <ele>1777.9</ele>
        <time>2020-08-08T09:04:42Z</time>
      </trkpt>
      <trkpt lat="45.49908" lon="6.9316">
        <ele>1777.9</ele>
        <time>2020-08-08T09:04:43Z</time>
      </trkpt>
      <trkpt lat="45.49906" lon="6.93162">
        <ele>1777.8</ele>
        <time>2020-08-08T09:04:45Z</time>
      </trkpt>
      <trkpt lat="45.499" lon="6.93164">
        <ele>1777.6</ele>
        <time>2020-08-08T09:04:47Z</time>
      </trkpt>
      <trkpt lat="45.49897" lon="6.93165">
        <ele>1777.5</ele>
        <time>2020-08-08T09:04:48Z</time>
      </trkpt>
      <trkpt lat="45.49896" lon="6.93165">
        <ele>1777.5</ele>
        <time>2020-08-08T09:04:49Z</time>
      </trkpt>
      <trkpt lat="45.49893" lon="6.93166">
        <ele>1777.4</ele>
        <time>2020-08-08T09:04:51Z</time>
      </trkpt>
      <trkpt lat="45.49889" lon="6.93168">
        <ele>1777.2</ele>
        <time>2020-08-08T09:04:52Z</time>
      </trkpt>
      <trkpt lat="45.49885" lon="6.93172">
        <ele>1777</ele>
        <time>2020-08-08T09:04:54Z</time>
      </trkpt>
      <trkpt lat="45.49881" lon="6.93175">
        <ele>1776.9</ele>
        <time>2020-08-08T09:04:55Z</time>
      </trkpt>
      <trkpt lat="45.49873" lon="6.93177">
        <ele>1776.8</ele>
        <time>2020-08-08T09:04:58Z</time>
      </trkpt>
      <trkpt lat="45.49869" lon="6.93178">
        <ele>1776.7</ele>
        <time>2020-08-08T09:05:01Z</time>
      </trkpt>
      <trkpt lat="45.49865" lon="6.93179">
        <ele>1776.6</ele>
        <time>2020-08-08T09:05:02Z</time>
      </trkpt>
      <trkpt lat="45.4986" lon="6.9318">
        <ele>1776.6</ele>
        <time>2020-08-08T09:05:04Z</time>
      </trkpt>
      <trkpt lat="45.49854" lon="6.93182">
        <ele>1776.5</ele>
        <time>2020-08-08T09:05:06Z</time>
      </trkpt>
      <trkpt lat="45.4985" lon="6.93184">
        <ele>1776.4</ele>
        <time>2020-08-08T09:05:08Z</time>
      </trkpt>
      <trkpt lat="45.49848" lon="6.93185">
        <ele>1776.4</ele>
        <time>2020-08-08T09:05:09Z</time>
      </trkpt>
      <trkpt lat="45.49844" lon="6.93187">
        <ele>1776.4</ele>
        <time>2020-08-08T09:05:10Z</time>
      </trkpt>
      <trkpt lat="45.49842" lon="6.93187">
        <ele>1776.3</ele>
        <time>2020-08-08T09:05:11Z</time>
      </trkpt>
      <trkpt lat="45.4984" lon="6.93188">
        <ele>1776.3</ele>
        <time>2020-08-08T09:05:13Z</time>
      </trkpt>
      <trkpt lat="45.49837" lon="6.93189">
        <ele>1776.3</ele>
        <time>2020-08-08T09:05:15Z</time>
      </trkpt>
      <trkpt lat="45.49833" lon="6.93192">
        <ele>1776.2</ele>
        <time>2020-08-08T09:05:16Z</time>
      </trkpt>
      <trkpt lat="45.49832" lon="6.93194">
        <ele>1776.2</ele>
        <time>2020-08-08T09:05:18Z</time>
      </trkpt>
      <trkpt lat="45.49828" lon="6.93198">
        <ele>1776.2</ele>
        <time>2020-08-08T09:05:20Z</time>
      </trkpt>
      <trkpt lat="45.49826" lon="6.93199">
        <ele>1776.1</ele>
        <time>2020-08-08T09:05:21Z</time>
      </trkpt>
      <trkpt lat="45.49824" lon="6.93201">
        <ele>1776.1</ele>
        <time>2020-08-08T09:05:23Z</time>
      </trkpt>
      <trkpt lat="45.49823" lon="6.93202">
        <ele>1776.1</ele>
        <time>2020-08-08T09:05:24Z</time>
      </trkpt>
      <trkpt lat="45.49821" lon="6.93204">
        <ele>1776</ele>
        <time>2020-08-08T09:05:25Z</time>
      </trkpt>
      <trkpt lat="45.49819" lon="6.93206">
        <ele>1776</ele>
        <time>2020-08-08T09:05:27Z</time>
      </trkpt>
      <trkpt lat="45.49816" lon="6.93208">
        <ele>1775.9</ele>
        <time>2020-08-08T09:05:28Z</time>
      </trkpt>
      <trkpt lat="45.49813" lon="6.93213">
        <ele>1775.8</ele>
        <time>2020-08-08T09:05:30Z</time>
      </trkpt>
      <trkpt lat="45.49812" lon="6.93215">
        <ele>1775.7</ele>
        <time>2020-08-08T09:05:31Z</time>
      </trkpt>
      <trkpt lat="45.4981" lon="6.93218">
        <ele>1775.6</ele>
        <time>2020-08-08T09:05:33Z</time>
      </trkpt>
      <trkpt lat="45.49807" lon="6.93221">
        <ele>1775.5</ele>
        <time>2020-08-08T09:05:34Z</time>
      </trkpt>
      <trkpt lat="45.49806" lon="6.93224">
        <ele>1775.4</ele>
        <time>2020-08-08T09:05:35Z</time>
      </trkpt>
      <trkpt lat="45.49804" lon="6.93226">
        <ele>1775.2</ele>
        <time>2020-08-08T09:05:37Z</time>
      </trkpt>
      <trkpt lat="45.49799" lon="6.93232">
        <ele>1774.9</ele>
        <time>2020-08-08T09:05:38Z</time>
      </trkpt>
      <trkpt lat="45.49794" lon="6.93238">
        <ele>1774.3</ele>
        <time>2020-08-08T09:05:41Z</time>
      </trkpt>
      <trkpt lat="45.49792" lon="6.9324">
        <ele>1774.1</ele>
        <time>2020-08-08T09:05:42Z</time>
      </trkpt>
      <trkpt lat="45.49785" lon="6.93247">
        <ele>1773.3</ele>
        <time>2020-08-08T09:05:44Z</time>
      </trkpt>
      <trkpt lat="45.49781" lon="6.93252">
        <ele>1772.8</ele>
        <time>2020-08-08T09:05:47Z</time>
      </trkpt>
      <trkpt lat="45.49775" lon="6.93258">
        <ele>1772</ele>
        <time>2020-08-08T09:05:49Z</time>
      </trkpt>
      <trkpt lat="45.49769" lon="6.93265">
        <ele>1771.1</ele>
        <time>2020-08-08T09:05:50Z</time>
      </trkpt>
      <trkpt lat="45.4976" lon="6.93272">
        <ele>1770.1</ele>
        <time>2020-08-08T09:05:52Z</time>
      </trkpt>
      <trkpt lat="45.49756" lon="6.93277">
        <ele>1770</ele>
        <time>2020-08-08T09:05:54Z</time>
      </trkpt>
      <trkpt lat="45.49749" lon="6.93284">
        <ele>1770.3</ele>
        <time>2020-08-08T09:05:56Z</time>
      </trkpt>
      <trkpt lat="45.49746" lon="6.93288">
        <ele>1770.5</ele>
        <time>2020-08-08T09:05:57Z</time>
      </trkpt>
      <trkpt lat="45.49742" lon="6.93292">
        <ele>1770.7</ele>
        <time>2020-08-08T09:05:59Z</time>
      </trkpt>
      <trkpt lat="45.49736" lon="6.93298">
        <ele>1771.1</ele>
        <time>2020-08-08T09:06:01Z</time>
      </trkpt>
      <trkpt lat="45.49732" lon="6.93302">
        <ele>1771.4</ele>
        <time>2020-08-08T09:06:02Z</time>
      </trkpt>
      <trkpt lat="45.49724" lon="6.9331">
        <ele>1772.2</ele>
        <time>2020-08-08T09:06:05Z</time>
      </trkpt>
      <trkpt lat="45.4972" lon="6.93313">
        <ele>1772.6</ele>
        <time>2020-08-08T09:06:07Z</time>
      </trkpt>
      <trkpt lat="45.49715" lon="6.93319">
        <ele>1773.1</ele>
        <time>2020-08-08T09:06:08Z</time>
      </trkpt>
      <trkpt lat="45.49711" lon="6.93322">
        <ele>1773.5</ele>
        <time>2020-08-08T09:06:10Z</time>
      </trkpt>
      <trkpt lat="45.49706" lon="6.93326">
        <ele>1773.9</ele>
        <time>2020-08-08T09:06:12Z</time>
      </trkpt>
      <trkpt lat="45.49701" lon="6.93329">
        <ele>1774.2</ele>
        <time>2020-08-08T09:06:13Z</time>
      </trkpt>
      <trkpt lat="45.49698" lon="6.93331">
        <ele>1774.5</ele>
        <time>2020-08-08T09:06:14Z</time>
      </trkpt>
      <trkpt lat="45.49695" lon="6.93334">
        <ele>1774.7</ele>
        <time>2020-08-08T09:06:16Z</time>
      </trkpt>
      <trkpt lat="45.4969" lon="6.93337">
        <ele>1775</ele>
        <time>2020-08-08T09:06:17Z</time>
      </trkpt>
      <trkpt lat="45.49687" lon="6.93339">
        <ele>1775.3</ele>
        <time>2020-08-08T09:06:18Z</time>
      </trkpt>
      <trkpt lat="45.49681" lon="6.93343">
        <ele>1775.7</ele>
        <time>2020-08-08T09:06:21Z</time>
      </trkpt>
      <trkpt lat="45.49677" lon="6.93345">
        <ele>1775.9</ele>
        <time>2020-08-08T09:06:22Z</time>
      </trkpt>
      <trkpt lat="45.49673" lon="6.93349">
        <ele>1776.1</ele>
        <time>2020-08-08T09:06:25Z</time>
      </trkpt>
      <trkpt lat="45.49667" lon="6.93353">
        <ele>1776.4</ele>
        <time>2020-08-08T09:06:27Z</time>
      </trkpt>
      <trkpt lat="45.49662" lon="6.93356">
        <ele>1776.7</ele>
        <time>2020-08-08T09:06:28Z</time>
      </trkpt>
      <trkpt lat="45.49658" lon="6.93359">
        <ele>1776.8</ele>
        <time>2020-08-08T09:06:30Z</time>
      </trkpt>
      <trkpt lat="45.49655" lon="6.93361">
        <ele>1777</ele>
        <time>2020-08-08T09:06:31Z</time>
      </trkpt>
      <trkpt lat="45.49649" lon="6.93365">
        <ele>1777.2</ele>
        <time>2020-08-08T09:06:33Z</time>
      </trkpt>
      <trkpt lat="45.49641" lon="6.9337">
        <ele>1777.5</ele>
        <time>2020-08-08T09:06:34Z</time>
      </trkpt>
      <trkpt lat="45.4963" lon="6.93376">
        <ele>1778.2</ele>
        <time>2020-08-08T09:06:37Z</time>
      </trkpt>
      <trkpt lat="45.49626" lon="6.93378">
        <ele>1778.4</ele>
        <time>2020-08-08T09:06:38Z</time>
      </trkpt>
      <trkpt lat="45.49622" lon="6.9338">
        <ele>1778.6</ele>
        <time>2020-08-08T09:06:41Z</time>
      </trkpt>
      <trkpt lat="45.49619" lon="6.93382">
        <ele>1778.8</ele>
        <time>2020-08-08T09:06:42Z</time>
      </trkpt>
      <trkpt lat="45.49616" lon="6.93384">
        <ele>1778.9</ele>
        <time>2020-08-08T09:06:43Z</time>
      </trkpt>
      <trkpt lat="45.49612" lon="6.93386">
        <ele>1779.1</ele>
        <time>2020-08-08T09:06:44Z</time>
      </trkpt>
      <trkpt lat="45.49609" lon="6.93388">
        <ele>1779.3</ele>
        <time>2020-08-08T09:06:45Z</time>
      </trkpt>
      <trkpt lat="45.49603" lon="6.93391">
        <ele>1779.6</ele>
        <time>2020-08-08T09:06:46Z</time>
      </trkpt>
      <trkpt lat="45.49599" lon="6.93392">
        <ele>1779.8</ele>
        <time>2020-08-08T09:06:47Z</time>
      </trkpt>
      <trkpt lat="45.49595" lon="6.93395">
        <ele>1780</ele>
        <time>2020-08-08T09:06:49Z</time>
      </trkpt>
      <trkpt lat="45.49591" lon="6.93397">
        <ele>1780.2</ele>
        <time>2020-08-08T09:06:50Z</time>
      </trkpt>
      <trkpt lat="45.49585" lon="6.93401">
        <ele>1780.6</ele>
        <time>2020-08-08T09:06:52Z</time>
      </trkpt>
      <trkpt lat="45.4958" lon="6.93404">
        <ele>1780.9</ele>
        <time>2020-08-08T09:06:53Z</time>
      </trkpt>
      <trkpt lat="45.49575" lon="6.93409">
        <ele>1781.3</ele>
        <time>2020-08-08T09:06:54Z</time>
      </trkpt>
      <trkpt lat="45.4957" lon="6.93413">
        <ele>1781.5</ele>
        <time>2020-08-08T09:06:56Z</time>
      </trkpt>
      <trkpt lat="45.49563" lon="6.9342">
        <ele>1782.1</ele>
        <time>2020-08-08T09:06:58Z</time>
      </trkpt>
      <trkpt lat="45.49559" lon="6.93424">
        <ele>1782.3</ele>
        <time>2020-08-08T09:07:00Z</time>
      </trkpt>
      <trkpt lat="45.49554" lon="6.93431">
        <ele>1782.7</ele>
        <time>2020-08-08T09:07:03Z</time>
      </trkpt>
      <trkpt lat="45.49551" lon="6.93434">
        <ele>1782.9</ele>
        <time>2020-08-08T09:07:04Z</time>
      </trkpt>
      <trkpt lat="45.49549" lon="6.93442">
        <ele>1783.2</ele>
        <time>2020-08-08T09:07:05Z</time>
      </trkpt>
      <trkpt lat="45.49545" lon="6.93447">
        <ele>1783.5</ele>
        <time>2020-08-08T09:07:07Z</time>
      </trkpt>
      <trkpt lat="45.4954" lon="6.93453">
        <ele>1783.9</ele>
        <time>2020-08-08T09:07:09Z</time>
      </trkpt>
      <trkpt lat="45.49536" lon="6.93467">
        <ele>1784.4</ele>
        <time>2020-08-08T09:07:10Z</time>
      </trkpt>
      <trkpt lat="45.49533" lon="6.93475">
        <ele>1784.7</ele>
        <time>2020-08-08T09:07:12Z</time>
      </trkpt>
      <trkpt lat="45.49532" lon="6.9348">
        <ele>1784.9</ele>
        <time>2020-08-08T09:07:14Z</time>
      </trkpt>
      <trkpt lat="45.49529" lon="6.93485">
        <ele>1785.1</ele>
        <time>2020-08-08T09:07:15Z</time>
      </trkpt>
      <trkpt lat="45.4952" lon="6.935">
        <ele>1785.7</ele>
        <time>2020-08-08T09:07:17Z</time>
      </trkpt>
      <trkpt lat="45.49516" lon="6.93506">
        <ele>1785.9</ele>
        <time>2020-08-08T09:07:19Z</time>
      </trkpt>
      <trkpt lat="45.49516" lon="6.93511">
        <ele>1786.1</ele>
        <time>2020-08-08T09:07:20Z</time>
      </trkpt>
      <trkpt lat="45.49516" lon="6.93515">
        <ele>1786.6</ele>
        <time>2020-08-08T09:07:21Z</time>
      </trkpt>
      <trkpt lat="45.49511" lon="6.93519">
        <ele>1787.5</ele>
        <time>2020-08-08T09:07:23Z</time>
      </trkpt>
      <trkpt lat="45.49508" lon="6.93521">
        <ele>1787.9</ele>
        <time>2020-08-08T09:07:25Z</time>
      </trkpt>
      <trkpt lat="45.49506" lon="6.93518">
        <ele>1788.2</ele>
        <time>2020-08-08T09:07:26Z</time>
      </trkpt>
      <trkpt lat="45.49504" lon="6.93516">
        <ele>1788.4</ele>
        <time>2020-08-08T09:07:29Z</time>
      </trkpt>
      <trkpt lat="45.49503" lon="6.93515">
        <ele>1788.5</ele>
        <time>2020-08-08T09:07:32Z</time>
      </trkpt>
      <trkpt lat="45.495" lon="6.93513">
        <ele>1788.7</ele>
        <time>2020-08-08T09:07:33Z</time>
      </trkpt>
      <trkpt lat="45.49495" lon="6.93515">
        <ele>1789</ele>
        <time>2020-08-08T09:07:36Z</time>
      </trkpt>
      <trkpt lat="45.49491" lon="6.9352">
        <ele>1789.3</ele>
        <time>2020-08-08T09:07:39Z</time>
      </trkpt>
      <trkpt lat="45.49501" lon="6.93528">
        <ele>1790.2</ele>
        <time>2020-08-08T09:07:42Z</time>
      </trkpt>
      <trkpt lat="45.49496" lon="6.93533">
        <ele>1790.8</ele>
        <time>2020-08-08T09:07:43Z</time>
      </trkpt>
      <trkpt lat="45.49494" lon="6.93535">
        <ele>1791</ele>
        <time>2020-08-08T09:07:45Z</time>
      </trkpt>
      <trkpt lat="45.49491" lon="6.9354">
        <ele>1791.4</ele>
        <time>2020-08-08T09:07:46Z</time>
      </trkpt>
      <trkpt lat="45.4949" lon="6.93543">
        <ele>1791.6</ele>
        <time>2020-08-08T09:07:49Z</time>
      </trkpt>
      <trkpt lat="45.49488" lon="6.93547">
        <ele>1791.8</ele>
        <time>2020-08-08T09:07:50Z</time>
      </trkpt>
      <trkpt lat="45.4949" lon="6.93544">
        <ele>1792</ele>
        <time>2020-08-08T09:07:52Z</time>
      </trkpt>
      <trkpt lat="45.49487" lon="6.93549">
        <ele>1792.3</ele>
        <time>2020-08-08T09:07:53Z</time>
      </trkpt>
      <trkpt lat="45.49484" lon="6.93555">
        <ele>1792.6</ele>
        <time>2020-08-08T09:07:54Z</time>
      </trkpt>
      <trkpt lat="45.49479" lon="6.93562">
        <ele>1793.1</ele>
        <time>2020-08-08T09:07:57Z</time>
      </trkpt>
      <trkpt lat="45.49476" lon="6.93567">
        <ele>1793.4</ele>
        <time>2020-08-08T09:07:58Z</time>
      </trkpt>
      <trkpt lat="45.49474" lon="6.93571">
        <ele>1793.6</ele>
        <time>2020-08-08T09:07:59Z</time>
      </trkpt>
      <trkpt lat="45.4947" lon="6.93576">
        <ele>1794</ele>
        <time>2020-08-08T09:08:01Z</time>
      </trkpt>
      <trkpt lat="45.49469" lon="6.93578">
        <ele>1794.1</ele>
        <time>2020-08-08T09:08:03Z</time>
      </trkpt>
      <trkpt lat="45.49468" lon="6.9358">
        <ele>1794.2</ele>
        <time>2020-08-08T09:08:04Z</time>
      </trkpt>
      <trkpt lat="45.49466" lon="6.93583">
        <ele>1794.5</ele>
        <time>2020-08-08T09:08:05Z</time>
      </trkpt>
      <trkpt lat="45.49464" lon="6.93586">
        <ele>1794.8</ele>
        <time>2020-08-08T09:08:07Z</time>
      </trkpt>
      <trkpt lat="45.4946" lon="6.93592">
        <ele>1795.3</ele>
        <time>2020-08-08T09:08:09Z</time>
      </trkpt>
      <trkpt lat="45.49449" lon="6.93603">
        <ele>1796.4</ele>
        <time>2020-08-08T09:08:12Z</time>
      </trkpt>
      <trkpt lat="45.49449" lon="6.93608">
        <ele>1796.6</ele>
        <time>2020-08-08T09:08:14Z</time>
      </trkpt>
      <trkpt lat="45.49386" lon="6.93721">
        <ele>1801.4</ele>
        <time>2020-08-08T09:08:28Z</time>
      </trkpt>
      <trkpt lat="45.48155" lon="6.94635">
        <ele>1842.8</ele>
        <time>2020-08-08T09:11:16Z</time>
      </trkpt>
      <trkpt lat="45.48201" lon="6.94579">
        <ele>1821.6</ele>
        <time>2020-08-08T09:11:17Z</time>
      </trkpt>
      <trkpt lat="45.48213" lon="6.94567">
        <ele>1810.4</ele>
        <time>2020-08-08T09:11:18Z</time>
      </trkpt>
      <trkpt lat="45.48225" lon="6.94554">
        <ele>1810.8</ele>
        <time>2020-08-08T09:11:19Z</time>
      </trkpt>
      <trkpt lat="45.48221" lon="6.94554">
        <ele>1810.9</ele>
        <time>2020-08-08T09:11:20Z</time>
      </trkpt>
      <trkpt lat="45.4821" lon="6.94558">
        <ele>1811.2</ele>
        <time>2020-08-08T09:11:22Z</time>
      </trkpt>
      <trkpt lat="45.48198" lon="6.94564">
        <ele>1811.5</ele>
        <time>2020-08-08T09:11:24Z</time>
      </trkpt>
      <trkpt lat="45.48191" lon="6.94567">
        <ele>1811.6</ele>
        <time>2020-08-08T09:11:25Z</time>
      </trkpt>
      <trkpt lat="45.48185" lon="6.94571">
        <ele>1811.6</ele>
        <time>2020-08-08T09:11:26Z</time>
      </trkpt>
      <trkpt lat="45.48173" lon="6.94577">
        <ele>1811.6</ele>
        <time>2020-08-08T09:11:28Z</time>
      </trkpt>
      <trkpt lat="45.48167" lon="6.9458">
        <ele>1811.4</ele>
        <time>2020-08-08T09:11:29Z</time>
      </trkpt>
      <trkpt lat="45.48161" lon="6.94583">
        <ele>1811.3</ele>
        <time>2020-08-08T09:11:30Z</time>
      </trkpt>
      <trkpt lat="45.48154" lon="6.94586">
        <ele>1811.2</ele>
        <time>2020-08-08T09:11:31Z</time>
      </trkpt>
      <trkpt lat="45.48148" lon="6.94589">
        <ele>1811.1</ele>
        <time>2020-08-08T09:11:32Z</time>
      </trkpt>
      <trkpt lat="45.48136" lon="6.94595">
        <ele>1810.9</ele>
        <time>2020-08-08T09:11:34Z</time>
      </trkpt>
      <trkpt lat="45.48124" lon="6.94601">
        <ele>1810.6</ele>
        <time>2020-08-08T09:11:36Z</time>
      </trkpt>
      <trkpt lat="45.48111" lon="6.94608">
        <ele>1810.3</ele>
        <time>2020-08-08T09:11:38Z</time>
      </trkpt>
      <trkpt lat="45.48104" lon="6.94611">
        <ele>1810.1</ele>
        <time>2020-08-08T09:11:39Z</time>
      </trkpt>
      <trkpt lat="45.48089" lon="6.94619">
        <ele>1809.6</ele>
        <time>2020-08-08T09:11:41Z</time>
      </trkpt>
      <trkpt lat="45.48081" lon="6.94622">
        <ele>1809.4</ele>
        <time>2020-08-08T09:11:42Z</time>
      </trkpt>
      <trkpt lat="45.48072" lon="6.94626">
        <ele>1809.2</ele>
        <time>2020-08-08T09:11:43Z</time>
      </trkpt>
      <trkpt lat="45.48056" lon="6.94636">
        <ele>1808.7</ele>
        <time>2020-08-08T09:11:45Z</time>
      </trkpt>
      <trkpt lat="45.48041" lon="6.94648">
        <ele>1808.2</ele>
        <time>2020-08-08T09:11:47Z</time>
      </trkpt>
      <trkpt lat="45.48026" lon="6.94661">
        <ele>1807.7</ele>
        <time>2020-08-08T09:11:49Z</time>
      </trkpt>
      <trkpt lat="45.48013" lon="6.94677">
        <ele>1807.1</ele>
        <time>2020-08-08T09:11:51Z</time>
      </trkpt>
      <trkpt lat="45.48001" lon="6.94698">
        <ele>1806.6</ele>
        <time>2020-08-08T09:11:53Z</time>
      </trkpt>
      <trkpt lat="45.47989" lon="6.94719">
        <ele>1806.2</ele>
        <time>2020-08-08T09:11:55Z</time>
      </trkpt>
      <trkpt lat="45.47979" lon="6.94744">
        <ele>1805.8</ele>
        <time>2020-08-08T09:11:57Z</time>
      </trkpt>
      <trkpt lat="45.47969" lon="6.94768">
        <ele>1805.4</ele>
        <time>2020-08-08T09:11:59Z</time>
      </trkpt>
      <trkpt lat="45.47964" lon="6.9478">
        <ele>1805.3</ele>
        <time>2020-08-08T09:12:00Z</time>
      </trkpt>
      <trkpt lat="45.47952" lon="6.94803">
        <ele>1805</ele>
        <time>2020-08-08T09:12:02Z</time>
      </trkpt>
      <trkpt lat="45.47945" lon="6.94814">
        <ele>1804.9</ele>
        <time>2020-08-08T09:12:03Z</time>
      </trkpt>
      <trkpt lat="45.47938" lon="6.94824">
        <ele>1804.7</ele>
        <time>2020-08-08T09:12:04Z</time>
      </trkpt>
      <trkpt lat="45.47925" lon="6.94844">
        <ele>1804.4</ele>
        <time>2020-08-08T09:12:06Z</time>
      </trkpt>
      <trkpt lat="45.47918" lon="6.94854">
        <ele>1804.3</ele>
        <time>2020-08-08T09:12:07Z</time>
      </trkpt>
      <trkpt lat="45.47904" lon="6.94873">
        <ele>1804.1</ele>
        <time>2020-08-08T09:12:09Z</time>
      </trkpt>
      <trkpt lat="45.47897" lon="6.94882">
        <ele>1804</ele>
        <time>2020-08-08T09:12:10Z</time>
      </trkpt>
      <trkpt lat="45.47891" lon="6.94892">
        <ele>1804</ele>
        <time>2020-08-08T09:12:11Z</time>
      </trkpt>
      <trkpt lat="45.47884" lon="6.949">
        <ele>1803.9</ele>
        <time>2020-08-08T09:12:12Z</time>
      </trkpt>
      <trkpt lat="45.47871" lon="6.94918">
        <ele>1803.8</ele>
        <time>2020-08-08T09:12:14Z</time>
      </trkpt>
      <trkpt lat="45.47858" lon="6.94935">
        <ele>1803.5</ele>
        <time>2020-08-08T09:12:16Z</time>
      </trkpt>
      <trkpt lat="45.47843" lon="6.94949">
        <ele>1803.2</ele>
        <time>2020-08-08T09:12:18Z</time>
      </trkpt>
      <trkpt lat="45.47829" lon="6.94962">
        <ele>1803.1</ele>
        <time>2020-08-08T09:12:20Z</time>
      </trkpt>
      <trkpt lat="45.47822" lon="6.94968">
        <ele>1803.2</ele>
        <time>2020-08-08T09:12:21Z</time>
      </trkpt>
      <trkpt lat="45.47814" lon="6.94974">
        <ele>1803.2</ele>
        <time>2020-08-08T09:12:22Z</time>
      </trkpt>
      <trkpt lat="45.47801" lon="6.94986">
        <ele>1803.1</ele>
        <time>2020-08-08T09:12:24Z</time>
      </trkpt>
      <trkpt lat="45.47794" lon="6.94992">
        <ele>1802.9</ele>
        <time>2020-08-08T09:12:25Z</time>
      </trkpt>
      <trkpt lat="45.47781" lon="6.95003">
        <ele>1802.6</ele>
        <time>2020-08-08T09:12:27Z</time>
      </trkpt>
      <trkpt lat="45.47773" lon="6.95008">
        <ele>1802.4</ele>
        <time>2020-08-08T09:12:28Z</time>
      </trkpt>
      <trkpt lat="45.47758" lon="6.95018">
        <ele>1802.4</ele>
        <time>2020-08-08T09:12:30Z</time>
      </trkpt>
      <trkpt lat="45.47751" lon="6.95024">
        <ele>1802.3</ele>
        <time>2020-08-08T09:12:31Z</time>
      </trkpt>
      <trkpt lat="45.47744" lon="6.9503">
        <ele>1801.9</ele>
        <time>2020-08-08T09:12:32Z</time>
      </trkpt>
      <trkpt lat="45.47723" lon="6.95043">
        <ele>1801</ele>
        <time>2020-08-08T09:12:35Z</time>
      </trkpt>
      <trkpt lat="45.47716" lon="6.95043">
        <ele>1800.7</ele>
        <time>2020-08-08T09:12:36Z</time>
      </trkpt>
      <trkpt lat="45.47703" lon="6.95035">
        <ele>1799.9</ele>
        <time>2020-08-08T09:12:38Z</time>
      </trkpt>
      <trkpt lat="45.47692" lon="6.95015">
        <ele>1798.7</ele>
        <time>2020-08-08T09:12:40Z</time>
      </trkpt>
      <trkpt lat="45.47681" lon="6.94987">
        <ele>1797.4</ele>
        <time>2020-08-08T09:12:42Z</time>
      </trkpt>
      <trkpt lat="45.47676" lon="6.94972">
        <ele>1796.9</ele>
        <time>2020-08-08T09:12:43Z</time>
      </trkpt>
      <trkpt lat="45.47666" lon="6.94949">
        <ele>1796.2</ele>
        <time>2020-08-08T09:12:45Z</time>
      </trkpt>
      <trkpt lat="45.47654" lon="6.94933">
        <ele>1796</ele>
        <time>2020-08-08T09:12:47Z</time>
      </trkpt>
      <trkpt lat="45.47646" lon="6.94927">
        <ele>1795.9</ele>
        <time>2020-08-08T09:12:48Z</time>
      </trkpt>
      <trkpt lat="45.47629" lon="6.94921">
        <ele>1795.8</ele>
        <time>2020-08-08T09:12:50Z</time>
      </trkpt>
      <trkpt lat="45.4762" lon="6.94919">
        <ele>1795.7</ele>
        <time>2020-08-08T09:12:51Z</time>
      </trkpt>
      <trkpt lat="45.47603" lon="6.94917">
        <ele>1795.7</ele>
        <time>2020-08-08T09:12:53Z</time>
      </trkpt>
      <trkpt lat="45.47588" lon="6.94914">
        <ele>1795.8</ele>
        <time>2020-08-08T09:12:55Z</time>
      </trkpt>
      <trkpt lat="45.47571" lon="6.94914">
        <ele>1795.9</ele>
        <time>2020-08-08T09:12:57Z</time>
      </trkpt>
      <trkpt lat="45.47563" lon="6.94914">
        <ele>1796</ele>
        <time>2020-08-08T09:12:58Z</time>
      </trkpt>
      <trkpt lat="45.47556" lon="6.94915">
        <ele>1796.1</ele>
        <time>2020-08-08T09:12:59Z</time>
      </trkpt>
      <trkpt lat="45.47541" lon="6.94916">
        <ele>1796.3</ele>
        <time>2020-08-08T09:13:01Z</time>
      </trkpt>
      <trkpt lat="45.47533" lon="6.94916">
        <ele>1796.3</ele>
        <time>2020-08-08T09:13:02Z</time>
      </trkpt>
      <trkpt lat="45.47526" lon="6.94916">
        <ele>1796.4</ele>
        <time>2020-08-08T09:13:03Z</time>
      </trkpt>
      <trkpt lat="45.47512" lon="6.94913">
        <ele>1796.7</ele>
        <time>2020-08-08T09:13:05Z</time>
      </trkpt>
      <trkpt lat="45.47505" lon="6.94908">
        <ele>1796.8</ele>
        <time>2020-08-08T09:13:06Z</time>
      </trkpt>
      <trkpt lat="45.47493" lon="6.94893">
        <ele>1797</ele>
        <time>2020-08-08T09:13:08Z</time>
      </trkpt>
      <trkpt lat="45.47483" lon="6.94878">
        <ele>1797.2</ele>
        <time>2020-08-08T09:13:10Z</time>
      </trkpt>
      <trkpt lat="45.47478" lon="6.9487">
        <ele>1797.4</ele>
        <time>2020-08-08T09:13:11Z</time>
      </trkpt>
      <trkpt lat="45.47472" lon="6.94863">
        <ele>1797.6</ele>
        <time>2020-08-08T09:13:12Z</time>
      </trkpt>
      <trkpt lat="45.47461" lon="6.94852">
        <ele>1798</ele>
        <time>2020-08-08T09:13:14Z</time>
      </trkpt>
      <trkpt lat="45.47448" lon="6.94848">
        <ele>1798.4</ele>
        <time>2020-08-08T09:13:16Z</time>
      </trkpt>
      <trkpt lat="45.47437" lon="6.94849">
        <ele>1798.6</ele>
        <time>2020-08-08T09:13:18Z</time>
      </trkpt>
      <trkpt lat="45.47431" lon="6.94851">
        <ele>1798.8</ele>
        <time>2020-08-08T09:13:19Z</time>
      </trkpt>
      <trkpt lat="45.47424" lon="6.94854">
        <ele>1798.9</ele>
        <time>2020-08-08T09:13:20Z</time>
      </trkpt>
      <trkpt lat="45.47413" lon="6.94862">
        <ele>1799.2</ele>
        <time>2020-08-08T09:13:22Z</time>
      </trkpt>
      <trkpt lat="45.47407" lon="6.94868">
        <ele>1799.4</ele>
        <time>2020-08-08T09:13:23Z</time>
      </trkpt>
      <trkpt lat="45.47402" lon="6.94875">
        <ele>1799.5</ele>
        <time>2020-08-08T09:13:24Z</time>
      </trkpt>
      <trkpt lat="45.47394" lon="6.94893">
        <ele>1799.7</ele>
        <time>2020-08-08T09:13:26Z</time>
      </trkpt>
      <trkpt lat="45.47389" lon="6.94912">
        <ele>1799.8</ele>
        <time>2020-08-08T09:13:28Z</time>
      </trkpt>
      <trkpt lat="45.47387" lon="6.94922">
        <ele>1799.9</ele>
        <time>2020-08-08T09:13:29Z</time>
      </trkpt>
      <trkpt lat="45.47383" lon="6.94942">
        <ele>1799.9</ele>
        <time>2020-08-08T09:13:31Z</time>
      </trkpt>
      <trkpt lat="45.4738" lon="6.94962">
        <ele>1799.8</ele>
        <time>2020-08-08T09:13:33Z</time>
      </trkpt>
      <trkpt lat="45.47379" lon="6.94972">
        <ele>1799.7</ele>
        <time>2020-08-08T09:13:34Z</time>
      </trkpt>
      <trkpt lat="45.47377" lon="6.94983">
        <ele>1799.5</ele>
        <time>2020-08-08T09:13:35Z</time>
      </trkpt>
      <trkpt lat="45.47374" lon="6.95004">
        <ele>1798.1</ele>
        <time>2020-08-08T09:13:37Z</time>
      </trkpt>
      <trkpt lat="45.47371" lon="6.95025">
        <ele>1797.7</ele>
        <time>2020-08-08T09:13:39Z</time>
      </trkpt>
      <trkpt lat="45.47219" lon="6.95324">
        <ele>1824.2</ele>
        <time>2020-08-08T09:14:06Z</time>
      </trkpt>
      <trkpt lat="45.47224" lon="6.9533">
        <ele>1824.1</ele>
        <time>2020-08-08T09:14:08Z</time>
      </trkpt>
      <trkpt lat="45.47218" lon="6.95341">
        <ele>1823.7</ele>
        <time>2020-08-08T09:14:09Z</time>
      </trkpt>
      <trkpt lat="45.47207" lon="6.95361">
        <ele>1822.6</ele>
        <time>2020-08-08T09:14:11Z</time>
      </trkpt>
      <trkpt lat="45.47202" lon="6.95371">
        <ele>1821.8</ele>
        <time>2020-08-08T09:14:12Z</time>
      </trkpt>
      <trkpt lat="45.47194" lon="6.95392">
        <ele>1819.4</ele>
        <time>2020-08-08T09:14:14Z</time>
      </trkpt>
      <trkpt lat="45.4719" lon="6.95403">
        <ele>1820.2</ele>
        <time>2020-08-08T09:14:15Z</time>
      </trkpt>
      <trkpt lat="45.47158" lon="6.9553">
        <ele>1825.4</ele>
        <time>2020-08-08T09:14:28Z</time>
      </trkpt>
      <trkpt lat="45.47184" lon="6.95441">
        <ele>1822.9</ele>
        <time>2020-08-08T09:14:33Z</time>
      </trkpt>
      <trkpt lat="45.4719" lon="6.95402">
        <ele>1820.2</ele>
        <time>2020-08-08T09:14:38Z</time>
      </trkpt>
      <trkpt lat="45.4719" lon="6.95402">
        <ele>1820.6</ele>
        <time>2020-08-08T09:14:43Z</time>
      </trkpt>
      <trkpt lat="45.46726" lon="6.95648">
        <ele>1960.3</ele>
        <time>2020-08-08T09:15:41Z</time>
      </trkpt>
      <trkpt lat="45.46727" lon="6.95652">
        <ele>1952.4</ele>
        <time>2020-08-08T09:15:42Z</time>
      </trkpt>
      <trkpt lat="45.46727" lon="6.95655">
        <ele>1944.9</ele>
        <time>2020-08-08T09:15:43Z</time>
      </trkpt>
      <trkpt lat="45.46727" lon="6.95658">
        <ele>1937.5</ele>
        <time>2020-08-08T09:15:44Z</time>
      </trkpt>
      <trkpt lat="45.4673" lon="6.95665">
        <ele>1929.2</ele>
        <time>2020-08-08T09:15:46Z</time>
      </trkpt>
      <trkpt lat="45.46732" lon="6.9567">
        <ele>1922.3</ele>
        <time>2020-08-08T09:15:48Z</time>
      </trkpt>
      <trkpt lat="45.46735" lon="6.95673">
        <ele>1915</ele>
        <time>2020-08-08T09:15:50Z</time>
      </trkpt>
      <trkpt lat="45.46737" lon="6.95676">
        <ele>1908.5</ele>
        <time>2020-08-08T09:15:52Z</time>
      </trkpt>
      <trkpt lat="45.46727" lon="6.95662">
        <ele>1939</ele>
        <time>2020-08-08T09:15:53Z</time>
      </trkpt>
      <trkpt lat="45.46729" lon="6.95663">
        <ele>1931.7</ele>
        <time>2020-08-08T09:15:55Z</time>
      </trkpt>
      <trkpt lat="45.4674" lon="6.95678">
        <ele>1908.8</ele>
        <time>2020-08-08T09:15:59Z</time>
      </trkpt>
      <trkpt lat="45.46741" lon="6.95693">
        <ele>1893.3</ele>
        <time>2020-08-08T09:16:04Z</time>
      </trkpt>
      <trkpt lat="45.46737" lon="6.95693">
        <ele>1894.3</ele>
        <time>2020-08-08T09:16:06Z</time>
      </trkpt>
      <trkpt lat="45.46735" lon="6.95691">
        <ele>1898.2</ele>
        <time>2020-08-08T09:16:07Z</time>
      </trkpt>
      <trkpt lat="45.46732" lon="6.95691">
        <ele>1899.7</ele>
        <time>2020-08-08T09:16:08Z</time>
      </trkpt>
      <trkpt lat="45.4673" lon="6.95692">
        <ele>1900</ele>
        <time>2020-08-08T09:16:10Z</time>
      </trkpt>
      <trkpt lat="45.46729" lon="6.95693">
        <ele>1899.1</ele>
        <time>2020-08-08T09:16:11Z</time>
      </trkpt>
      <trkpt lat="45.46729" lon="6.95693">
        <ele>1899.4</ele>
        <time>2020-08-08T09:16:13Z</time>
      </trkpt>
      <trkpt lat="45.46727" lon="6.95663">
        <ele>1934.5</ele>
        <time>2020-08-08T09:16:14Z</time>
      </trkpt>
      <trkpt lat="45.46559" lon="6.95568">
        <ele>2093.9</ele>
        <time>2020-08-08T09:16:25Z</time>
      </trkpt>
      <trkpt lat="45.46559" lon="6.95568">
        <ele>2094.2</ele>
        <time>2020-08-08T09:16:25Z</time>
      </trkpt>
      <trkpt lat="45.46552" lon="6.95589">
        <ele>2078.4</ele>
        <time>2020-08-08T09:16:27Z</time>
      </trkpt>
      <trkpt lat="45.46541" lon="6.95606">
        <ele>2066.3</ele>
        <time>2020-08-08T09:16:29Z</time>
      </trkpt>
      <trkpt lat="45.46536" lon="6.95617">
        <ele>2062</ele>
        <time>2020-08-08T09:16:30Z</time>
      </trkpt>
      <trkpt lat="45.46525" lon="6.95642">
        <ele>2046.7</ele>
        <time>2020-08-08T09:16:32Z</time>
      </trkpt>
      <trkpt lat="45.46514" lon="6.95668">
        <ele>2034.2</ele>
        <time>2020-08-08T09:16:34Z</time>
      </trkpt>
      <trkpt lat="45.46502" lon="6.95694">
        <ele>2019.8</ele>
        <time>2020-08-08T09:16:36Z</time>
      </trkpt>
      <trkpt lat="45.46497" lon="6.95709">
        <ele>2013.8</ele>
        <time>2020-08-08T09:16:37Z</time>
      </trkpt>
      <trkpt lat="45.46486" lon="6.9574">
        <ele>1998.7</ele>
        <time>2020-08-08T09:16:39Z</time>
      </trkpt>
      <trkpt lat="45.46479" lon="6.95756">
        <ele>1997.4</ele>
        <time>2020-08-08T09:16:40Z</time>
      </trkpt>
      <trkpt lat="45.46467" lon="6.95786">
        <ele>1988.9</ele>
        <time>2020-08-08T09:16:42Z</time>
      </trkpt>
      <trkpt lat="45.46459" lon="6.95821">
        <ele>1957.5</ele>
        <time>2020-08-08T09:16:44Z</time>
      </trkpt>
      <trkpt lat="45.46454" lon="6.95864">
        <ele>1916.1</ele>
        <time>2020-08-08T09:16:46Z</time>
      </trkpt>
      <trkpt lat="45.46453" lon="6.95916">
        <ele>1893.2</ele>
        <time>2020-08-08T09:16:48Z</time>
      </trkpt>
      <trkpt lat="45.46454" lon="6.95974">
        <ele>1868.2</ele>
        <time>2020-08-08T09:16:50Z</time>
      </trkpt>
      <trkpt lat="45.46453" lon="6.96001">
        <ele>1854.7</ele>
        <time>2020-08-08T09:16:51Z</time>
      </trkpt>
      <trkpt lat="45.46455" lon="6.96066">
        <ele>1835.3</ele>
        <time>2020-08-08T09:16:53Z</time>
      </trkpt>
      <trkpt lat="45.46461" lon="6.96129">
        <ele>1823.4</ele>
        <time>2020-08-08T09:16:55Z</time>
      </trkpt>
      <trkpt lat="45.46459" lon="6.9615">
        <ele>1821.6</ele>
        <time>2020-08-08T09:16:56Z</time>
      </trkpt>
      <trkpt lat="45.4645" lon="6.9618">
        <ele>1818.3</ele>
        <time>2020-08-08T09:16:58Z</time>
      </trkpt>
      <trkpt lat="45.46443" lon="6.96192">
        <ele>1817.6</ele>
        <time>2020-08-08T09:16:59Z</time>
      </trkpt>
      <trkpt lat="45.46435" lon="6.96202">
        <ele>1816.6</ele>
        <time>2020-08-08T09:17:00Z</time>
      </trkpt>
      <trkpt lat="45.46428" lon="6.96212">
        <ele>1815.6</ele>
        <time>2020-08-08T09:17:01Z</time>
      </trkpt>
      <trkpt lat="45.46411" lon="6.96232">
        <ele>1813.5</ele>
        <time>2020-08-08T09:17:03Z</time>
      </trkpt>
      <trkpt lat="45.46403" lon="6.96241">
        <ele>1812.4</ele>
        <time>2020-08-08T09:17:04Z</time>
      </trkpt>
      <trkpt lat="45.46394" lon="6.9625">
        <ele>1811.3</ele>
        <time>2020-08-08T09:17:05Z</time>
      </trkpt>
      <trkpt lat="45.46375" lon="6.96271">
        <ele>1808.6</ele>
        <time>2020-08-08T09:17:07Z</time>
      </trkpt>
      <trkpt lat="45.46366" lon="6.96282">
        <ele>1807.2</ele>
        <time>2020-08-08T09:17:08Z</time>
      </trkpt>
      <trkpt lat="45.4635" lon="6.96309">
        <ele>1804.1</ele>
        <time>2020-08-08T09:17:10Z</time>
      </trkpt>
      <trkpt lat="45.46342" lon="6.96326">
        <ele>1802.4</ele>
        <time>2020-08-08T09:17:11Z</time>
      </trkpt>
      <trkpt lat="45.46326" lon="6.96358">
        <ele>1799.3</ele>
        <time>2020-08-08T09:17:13Z</time>
      </trkpt>
      <trkpt lat="45.46308" lon="6.96385">
        <ele>1796.8</ele>
        <time>2020-08-08T09:17:15Z</time>
      </trkpt>
      <trkpt lat="45.463" lon="6.96395">
        <ele>1795.8</ele>
        <time>2020-08-08T09:17:16Z</time>
      </trkpt>
      <trkpt lat="45.46284" lon="6.96408">
        <ele>1794.3</ele>
        <time>2020-08-08T09:17:18Z</time>
      </trkpt>
      <trkpt lat="45.46275" lon="6.96412">
        <ele>1793.8</ele>
        <time>2020-08-08T09:17:19Z</time>
      </trkpt>
      <trkpt lat="45.46258" lon="6.96425">
        <ele>1792.2</ele>
        <time>2020-08-08T09:17:21Z</time>
      </trkpt>
      <trkpt lat="45.46243" lon="6.96437">
        <ele>1791.5</ele>
        <time>2020-08-08T09:17:23Z</time>
      </trkpt>
      <trkpt lat="45.46235" lon="6.96442">
        <ele>1791.3</ele>
        <time>2020-08-08T09:17:24Z</time>
      </trkpt>
      <trkpt lat="45.46218" lon="6.96451">
        <ele>1791.2</ele>
        <time>2020-08-08T09:17:26Z</time>
      </trkpt>
      <trkpt lat="45.4621" lon="6.96455">
        <ele>1791.3</ele>
        <time>2020-08-08T09:17:27Z</time>
      </trkpt>
      <trkpt lat="45.46201" lon="6.96458">
        <ele>1791.5</ele>
        <time>2020-08-08T09:17:28Z</time>
      </trkpt>
      <trkpt lat="45.46184" lon="6.96464">
        <ele>1792</ele>
        <time>2020-08-08T09:17:30Z</time>
      </trkpt>
      <trkpt lat="45.46176" lon="6.96468">
        <ele>1792.6</ele>
        <time>2020-08-08T09:17:31Z</time>
      </trkpt>
      <trkpt lat="45.4616" lon="6.96477">
        <ele>1793.4</ele>
        <time>2020-08-08T09:17:33Z</time>
      </trkpt>
      <trkpt lat="45.46152" lon="6.96482">
        <ele>1793.8</ele>
        <time>2020-08-08T09:17:34Z</time>
      </trkpt>
      <trkpt lat="45.46137" lon="6.96493">
        <ele>1794.7</ele>
        <time>2020-08-08T09:17:36Z</time>
      </trkpt>
      <trkpt lat="45.4613" lon="6.96499">
        <ele>1795.1</ele>
        <time>2020-08-08T09:17:37Z</time>
      </trkpt>
      <trkpt lat="45.46116" lon="6.96509">
        <ele>1795.3</ele>
        <time>2020-08-08T09:17:39Z</time>
      </trkpt>
      <trkpt lat="45.46101" lon="6.9652">
        <ele>1795.2</ele>
        <time>2020-08-08T09:17:41Z</time>
      </trkpt>
      <trkpt lat="45.46088" lon="6.96531">
        <ele>1795.2</ele>
        <time>2020-08-08T09:17:43Z</time>
      </trkpt>
      <trkpt lat="45.46075" lon="6.96542">
        <ele>1795.1</ele>
        <time>2020-08-08T09:17:45Z</time>
      </trkpt>
      <trkpt lat="45.46069" lon="6.96547">
        <ele>1795.1</ele>
        <time>2020-08-08T09:17:46Z</time>
      </trkpt>
      <trkpt lat="45.46062" lon="6.96553">
        <ele>1795.1</ele>
        <time>2020-08-08T09:17:47Z</time>
      </trkpt>
      <trkpt lat="45.4605" lon="6.96562">
        <ele>1795.2</ele>
        <time>2020-08-08T09:17:49Z</time>
      </trkpt>
      <trkpt lat="45.46043" lon="6.96567">
        <ele>1795.2</ele>
        <time>2020-08-08T09:17:50Z</time>
      </trkpt>
      <trkpt lat="45.46037" lon="6.96571">
        <ele>1795.4</ele>
        <time>2020-08-08T09:17:51Z</time>
      </trkpt>
      <trkpt lat="45.46025" lon="6.9658">
        <ele>1795.7</ele>
        <time>2020-08-08T09:17:53Z</time>
      </trkpt>
      <trkpt lat="45.46013" lon="6.96589">
        <ele>1796.1</ele>
        <time>2020-08-08T09:17:55Z</time>
      </trkpt>
      <trkpt lat="45.46007" lon="6.96594">
        <ele>1796.3</ele>
        <time>2020-08-08T09:17:56Z</time>
      </trkpt>
      <trkpt lat="45.45995" lon="6.96602">
        <ele>1796.6</ele>
        <time>2020-08-08T09:17:58Z</time>
      </trkpt>
      <trkpt lat="45.45988" lon="6.96606">
        <ele>1796.8</ele>
        <time>2020-08-08T09:17:59Z</time>
      </trkpt>
      <trkpt lat="45.45976" lon="6.96614">
        <ele>1797.7</ele>
        <time>2020-08-08T09:18:01Z</time>
      </trkpt>
      <trkpt lat="45.45964" lon="6.96623">
        <ele>1798.2</ele>
        <time>2020-08-08T09:18:03Z</time>
      </trkpt>
      <trkpt lat="45.45958" lon="6.96628">
        <ele>1798.2</ele>
        <time>2020-08-08T09:18:04Z</time>
      </trkpt>
      <trkpt lat="45.45952" lon="6.96633">
        <ele>1798.4</ele>
        <time>2020-08-08T09:18:05Z</time>
      </trkpt>
      <trkpt lat="45.45942" lon="6.96645">
        <ele>1798.3</ele>
        <time>2020-08-08T09:18:07Z</time>
      </trkpt>
      <trkpt lat="45.45937" lon="6.9665">
        <ele>1798.4</ele>
        <time>2020-08-08T09:18:08Z</time>
      </trkpt>
      <trkpt lat="45.45931" lon="6.96655">
        <ele>1798.5</ele>
        <time>2020-08-08T09:18:09Z</time>
      </trkpt>
      <trkpt lat="45.4592" lon="6.96664">
        <ele>1798.6</ele>
        <time>2020-08-08T09:18:11Z</time>
      </trkpt>
      <trkpt lat="45.45914" lon="6.96668">
        <ele>1798.7</ele>
        <time>2020-08-08T09:18:12Z</time>
      </trkpt>
      <trkpt lat="45.45908" lon="6.96672">
        <ele>1798.7</ele>
        <time>2020-08-08T09:18:13Z</time>
      </trkpt>
      <trkpt lat="45.45903" lon="6.96676">
        <ele>1798.7</ele>
        <time>2020-08-08T09:18:14Z</time>
      </trkpt>
      <trkpt lat="45.45892" lon="6.96685">
        <ele>1798.8</ele>
        <time>2020-08-08T09:18:16Z</time>
      </trkpt>
      <trkpt lat="45.45886" lon="6.96688">
        <ele>1798.9</ele>
        <time>2020-08-08T09:18:17Z</time>
      </trkpt>
      <trkpt lat="45.45876" lon="6.96697">
        <ele>1799</ele>
        <time>2020-08-08T09:18:19Z</time>
      </trkpt>
      <trkpt lat="45.45871" lon="6.96701">
        <ele>1799</ele>
        <time>2020-08-08T09:18:20Z</time>
      </trkpt>
      <trkpt lat="45.4586" lon="6.96711">
        <ele>1799.2</ele>
        <time>2020-08-08T09:18:22Z</time>
      </trkpt>
      <trkpt lat="45.4585" lon="6.96719">
        <ele>1799.3</ele>
        <time>2020-08-08T09:18:24Z</time>
      </trkpt>
      <trkpt lat="45.45839" lon="6.96728">
        <ele>1799.3</ele>
        <time>2020-08-08T09:18:26Z</time>
      </trkpt>
      <trkpt lat="45.45833" lon="6.96733">
        <ele>1799.3</ele>
        <time>2020-08-08T09:18:27Z</time>
      </trkpt>
      <trkpt lat="45.45822" lon="6.96742">
        <ele>1799.4</ele>
        <time>2020-08-08T09:18:29Z</time>
      </trkpt>
      <trkpt lat="45.45816" lon="6.96747">
        <ele>1799.4</ele>
        <time>2020-08-08T09:18:30Z</time>
      </trkpt>
      <trkpt lat="45.45804" lon="6.96756">
        <ele>1799.5</ele>
        <time>2020-08-08T09:18:32Z</time>
      </trkpt>
      <trkpt lat="45.45792" lon="6.96765">
        <ele>1799.5</ele>
        <time>2020-08-08T09:18:34Z</time>
      </trkpt>
      <trkpt lat="45.45786" lon="6.96769">
        <ele>1799.5</ele>
        <time>2020-08-08T09:18:35Z</time>
      </trkpt>
      <trkpt lat="45.45774" lon="6.9678">
        <ele>1799.6</ele>
        <time>2020-08-08T09:18:37Z</time>
      </trkpt>
      <trkpt lat="45.45762" lon="6.9679">
        <ele>1799.8</ele>
        <time>2020-08-08T09:18:39Z</time>
      </trkpt>
      <trkpt lat="45.45751" lon="6.96799">
        <ele>1799.9</ele>
        <time>2020-08-08T09:18:41Z</time>
      </trkpt>
      <trkpt lat="45.45745" lon="6.96804">
        <ele>1800</ele>
        <time>2020-08-08T09:18:42Z</time>
      </trkpt>
      <trkpt lat="45.45732" lon="6.96814">
        <ele>1800.2</ele>
        <time>2020-08-08T09:18:44Z</time>
      </trkpt>
      <trkpt lat="45.45726" lon="6.96818">
        <ele>1800.2</ele>
        <time>2020-08-08T09:18:45Z</time>
      </trkpt>
      <trkpt lat="45.45714" lon="6.96829">
        <ele>1800.4</ele>
        <time>2020-08-08T09:18:47Z</time>
      </trkpt>
      <trkpt lat="45.45707" lon="6.96834">
        <ele>1800.4</ele>
        <time>2020-08-08T09:18:48Z</time>
      </trkpt>
      <trkpt lat="45.45701" lon="6.96839">
        <ele>1800.5</ele>
        <time>2020-08-08T09:18:49Z</time>
      </trkpt>
      <trkpt lat="45.45688" lon="6.96848">
        <ele>1800.7</ele>
        <time>2020-08-08T09:18:51Z</time>
      </trkpt>
      <trkpt lat="45.45675" lon="6.96859">
        <ele>1801</ele>
        <time>2020-08-08T09:18:53Z</time>
      </trkpt>
      <trkpt lat="45.45662" lon="6.96869">
        <ele>1801.2</ele>
        <time>2020-08-08T09:18:55Z</time>
      </trkpt>
      <trkpt lat="45.4565" lon="6.96879">
        <ele>1801.4</ele>
        <time>2020-08-08T09:18:57Z</time>
      </trkpt>
      <trkpt lat="45.45637" lon="6.96888">
        <ele>1801.6</ele>
        <time>2020-08-08T09:18:59Z</time>
      </trkpt>
      <trkpt lat="45.4563" lon="6.96893">
        <ele>1801.7</ele>
        <time>2020-08-08T09:19:00Z</time>
      </trkpt>
      <trkpt lat="45.45616" lon="6.96902">
        <ele>1802</ele>
        <time>2020-08-08T09:19:02Z</time>
      </trkpt>
      <trkpt lat="45.45603" lon="6.9691">
        <ele>1802.2</ele>
        <time>2020-08-08T09:19:04Z</time>
      </trkpt>
      <trkpt lat="45.45589" lon="6.9692">
        <ele>1802.4</ele>
        <time>2020-08-08T09:19:06Z</time>
      </trkpt>
      <trkpt lat="45.45582" lon="6.96925">
        <ele>1802.6</ele>
        <time>2020-08-08T09:19:07Z</time>
      </trkpt>
      <trkpt lat="45.4557" lon="6.96936">
        <ele>1802.9</ele>
        <time>2020-08-08T09:19:09Z</time>
      </trkpt>
      <trkpt lat="45.45563" lon="6.96942">
        <ele>1803</ele>
        <time>2020-08-08T09:19:10Z</time>
      </trkpt>
      <trkpt lat="45.4555" lon="6.96954">
        <ele>1803.4</ele>
        <time>2020-08-08T09:19:12Z</time>
      </trkpt>
      <trkpt lat="45.45538" lon="6.96966">
        <ele>1803.7</ele>
        <time>2020-08-08T09:19:14Z</time>
      </trkpt>
      <trkpt lat="45.45526" lon="6.96977">
        <ele>1803.9</ele>
        <time>2020-08-08T09:19:16Z</time>
      </trkpt>
      <trkpt lat="45.45513" lon="6.96987">
        <ele>1804.1</ele>
        <time>2020-08-08T09:19:18Z</time>
      </trkpt>
      <trkpt lat="45.45507" lon="6.96993">
        <ele>1804.4</ele>
        <time>2020-08-08T09:19:19Z</time>
      </trkpt>
      <trkpt lat="45.45495" lon="6.97004">
        <ele>1805</ele>
        <time>2020-08-08T09:19:21Z</time>
      </trkpt>
      <trkpt lat="45.45489" lon="6.9701">
        <ele>1805.2</ele>
        <time>2020-08-08T09:19:22Z</time>
      </trkpt>
      <trkpt lat="45.45477" lon="6.97023">
        <ele>1805.5</ele>
        <time>2020-08-08T09:19:24Z</time>
      </trkpt>
      <trkpt lat="45.45472" lon="6.9703">
        <ele>1805.6</ele>
        <time>2020-08-08T09:19:25Z</time>
      </trkpt>
      <trkpt lat="45.45461" lon="6.97044">
        <ele>1805.9</ele>
        <time>2020-08-08T09:19:27Z</time>
      </trkpt>
      <trkpt lat="45.45451" lon="6.97059">
        <ele>1806.3</ele>
        <time>2020-08-08T09:19:29Z</time>
      </trkpt>
      <trkpt lat="45.45446" lon="6.97067">
        <ele>1806.4</ele>
        <time>2020-08-08T09:19:30Z</time>
      </trkpt>
      <trkpt lat="45.45441" lon="6.97075">
        <ele>1806.6</ele>
        <time>2020-08-08T09:19:31Z</time>
      </trkpt>
      <trkpt lat="45.45431" lon="6.97091">
        <ele>1806.9</ele>
        <time>2020-08-08T09:19:33Z</time>
      </trkpt>
      <trkpt lat="45.45426" lon="6.97099">
        <ele>1807.1</ele>
        <time>2020-08-08T09:19:34Z</time>
      </trkpt>
      <trkpt lat="45.45417" lon="6.97116">
        <ele>1807.6</ele>
        <time>2020-08-08T09:19:36Z</time>
      </trkpt>
      <trkpt lat="45.45412" lon="6.97124">
        <ele>1807.8</ele>
        <time>2020-08-08T09:19:37Z</time>
      </trkpt>
      <trkpt lat="45.45403" lon="6.97139">
        <ele>1808.3</ele>
        <time>2020-08-08T09:19:39Z</time>
      </trkpt>
      <trkpt lat="45.45399" lon="6.97147">
        <ele>1808.5</ele>
        <time>2020-08-08T09:19:40Z</time>
      </trkpt>
      <trkpt lat="45.45389" lon="6.97162">
        <ele>1808.9</ele>
        <time>2020-08-08T09:19:42Z</time>
      </trkpt>
      <trkpt lat="45.45384" lon="6.9717">
        <ele>1809.1</ele>
        <time>2020-08-08T09:19:43Z</time>
      </trkpt>
      <trkpt lat="45.4538" lon="6.97177">
        <ele>1809.3</ele>
        <time>2020-08-08T09:19:44Z</time>
      </trkpt>
      <trkpt lat="45.45375" lon="6.97185">
        <ele>1809.5</ele>
        <time>2020-08-08T09:19:45Z</time>
      </trkpt>
      <trkpt lat="45.45366" lon="6.972">
        <ele>1810</ele>
        <time>2020-08-08T09:19:47Z</time>
      </trkpt>
      <trkpt lat="45.45356" lon="6.97215">
        <ele>1810.3</ele>
        <time>2020-08-08T09:19:49Z</time>
      </trkpt>
      <trkpt lat="45.45347" lon="6.97231">
        <ele>1810.7</ele>
        <time>2020-08-08T09:19:51Z</time>
      </trkpt>
      <trkpt lat="45.45338" lon="6.97247">
        <ele>1811</ele>
        <time>2020-08-08T09:19:53Z</time>
      </trkpt>
      <trkpt lat="45.45328" lon="6.97261">
        <ele>1811.4</ele>
        <time>2020-08-08T09:19:55Z</time>
      </trkpt>
      <trkpt lat="45.45324" lon="6.97269">
        <ele>1811.6</ele>
        <time>2020-08-08T09:19:56Z</time>
      </trkpt>
      <trkpt lat="45.45314" lon="6.97285">
        <ele>1812</ele>
        <time>2020-08-08T09:19:58Z</time>
      </trkpt>
      <trkpt lat="45.45306" lon="6.973">
        <ele>1812.3</ele>
        <time>2020-08-08T09:20:00Z</time>
      </trkpt>
      <trkpt lat="45.45301" lon="6.97308">
        <ele>1812.5</ele>
        <time>2020-08-08T09:20:01Z</time>
      </trkpt>
      <trkpt lat="45.45296" lon="6.97315">
        <ele>1812.7</ele>
        <time>2020-08-08T09:20:02Z</time>
      </trkpt>
      <trkpt lat="45.45286" lon="6.97328">
        <ele>1813</ele>
        <time>2020-08-08T09:20:04Z</time>
      </trkpt>
      <trkpt lat="45.45276" lon="6.97342">
        <ele>1813.4</ele>
        <time>2020-08-08T09:20:06Z</time>
      </trkpt>
      <trkpt lat="45.45271" lon="6.97349">
        <ele>1813.6</ele>
        <time>2020-08-08T09:20:07Z</time>
      </trkpt>
      <trkpt lat="45.45267" lon="6.97356">
        <ele>1813.7</ele>
        <time>2020-08-08T09:20:08Z</time>
      </trkpt>
      <trkpt lat="45.45256" lon="6.97369">
        <ele>1814</ele>
        <time>2020-08-08T09:20:10Z</time>
      </trkpt>
      <trkpt lat="45.45251" lon="6.97375">
        <ele>1814.1</ele>
        <time>2020-08-08T09:20:11Z</time>
      </trkpt>
      <trkpt lat="45.45244" lon="6.97379">
        <ele>1814.3</ele>
        <time>2020-08-08T09:20:12Z</time>
      </trkpt>
      <trkpt lat="45.45231" lon="6.97391">
        <ele>1814.5</ele>
        <time>2020-08-08T09:20:14Z</time>
      </trkpt>
      <trkpt lat="45.45225" lon="6.97398">
        <ele>1814.7</ele>
        <time>2020-08-08T09:20:15Z</time>
      </trkpt>
      <trkpt lat="45.45213" lon="6.97411">
        <ele>1814.9</ele>
        <time>2020-08-08T09:20:17Z</time>
      </trkpt>
      <trkpt lat="45.45207" lon="6.97417">
        <ele>1815.1</ele>
        <time>2020-08-08T09:20:18Z</time>
      </trkpt>
      <trkpt lat="45.45196" lon="6.9743">
        <ele>1815.4</ele>
        <time>2020-08-08T09:20:20Z</time>
      </trkpt>
      <trkpt lat="45.45191" lon="6.97436">
        <ele>1815.5</ele>
        <time>2020-08-08T09:20:21Z</time>
      </trkpt>
      <trkpt lat="45.4518" lon="6.97449">
        <ele>1815.8</ele>
        <time>2020-08-08T09:20:23Z</time>
      </trkpt>
      <trkpt lat="45.45169" lon="6.97463">
        <ele>1816.1</ele>
        <time>2020-08-08T09:20:25Z</time>
      </trkpt>
      <trkpt lat="45.45159" lon="6.97478">
        <ele>1816.4</ele>
        <time>2020-08-08T09:20:27Z</time>
      </trkpt>
      <trkpt lat="45.45149" lon="6.97493">
        <ele>1816.7</ele>
        <time>2020-08-08T09:20:29Z</time>
      </trkpt>
      <trkpt lat="45.45144" lon="6.975">
        <ele>1816.9</ele>
        <time>2020-08-08T09:20:30Z</time>
      </trkpt>
      <trkpt lat="45.4514" lon="6.97508">
        <ele>1817.1</ele>
        <time>2020-08-08T09:20:31Z</time>
      </trkpt>
      <trkpt lat="45.45131" lon="6.97523">
        <ele>1817.4</ele>
        <time>2020-08-08T09:20:33Z</time>
      </trkpt>
      <trkpt lat="45.45123" lon="6.97539">
        <ele>1817.6</ele>
        <time>2020-08-08T09:20:35Z</time>
      </trkpt>
      <trkpt lat="45.45115" lon="6.97553">
        <ele>1818</ele>
        <time>2020-08-08T09:20:37Z</time>
      </trkpt>
      <trkpt lat="45.45107" lon="6.97568">
        <ele>1818.3</ele>
        <time>2020-08-08T09:20:39Z</time>
      </trkpt>
      <trkpt lat="45.45103" lon="6.97576">
        <ele>1818.5</ele>
        <time>2020-08-08T09:20:40Z</time>
      </trkpt>
      <trkpt lat="45.45096" lon="6.9759">
        <ele>1818.9</ele>
        <time>2020-08-08T09:20:42Z</time>
      </trkpt>
      <trkpt lat="45.45089" lon="6.97604">
        <ele>1819.2</ele>
        <time>2020-08-08T09:20:44Z</time>
      </trkpt>
      <trkpt lat="45.45086" lon="6.97611">
        <ele>1819.3</ele>
        <time>2020-08-08T09:20:45Z</time>
      </trkpt>
      <trkpt lat="45.45083" lon="6.97618">
        <ele>1819.5</ele>
        <time>2020-08-08T09:20:46Z</time>
      </trkpt>
      <trkpt lat="45.45079" lon="6.97625">
        <ele>1819.6</ele>
        <time>2020-08-08T09:20:47Z</time>
      </trkpt>
      <trkpt lat="45.45076" lon="6.97632">
        <ele>1819.8</ele>
        <time>2020-08-08T09:20:48Z</time>
      </trkpt>
      <trkpt lat="45.4507" lon="6.97646">
        <ele>1820.2</ele>
        <time>2020-08-08T09:20:50Z</time>
      </trkpt>
      <trkpt lat="45.45066" lon="6.97653">
        <ele>1820.3</ele>
        <time>2020-08-08T09:20:51Z</time>
      </trkpt>
      <trkpt lat="45.45063" lon="6.9766">
        <ele>1820.5</ele>
        <time>2020-08-08T09:20:52Z</time>
      </trkpt>
      <trkpt lat="45.45059" lon="6.97667">
        <ele>1820.8</ele>
        <time>2020-08-08T09:20:53Z</time>
      </trkpt>
      <trkpt lat="45.45053" lon="6.97682">
        <ele>1821.2</ele>
        <time>2020-08-08T09:20:55Z</time>
      </trkpt>
      <trkpt lat="45.45049" lon="6.9769">
        <ele>1821.4</ele>
        <time>2020-08-08T09:20:56Z</time>
      </trkpt>
      <trkpt lat="45.45046" lon="6.97697">
        <ele>1821.6</ele>
        <time>2020-08-08T09:20:57Z</time>
      </trkpt>
      <trkpt lat="45.45042" lon="6.97704">
        <ele>1821.8</ele>
        <time>2020-08-08T09:20:58Z</time>
      </trkpt>
      <trkpt lat="45.45038" lon="6.97711">
        <ele>1822</ele>
        <time>2020-08-08T09:20:59Z</time>
      </trkpt>
      <trkpt lat="45.45029" lon="6.97722">
        <ele>1822.3</ele>
        <time>2020-08-08T09:21:01Z</time>
      </trkpt>
      <trkpt lat="45.45017" lon="6.97726">
        <ele>1822.7</ele>
        <time>2020-08-08T09:21:03Z</time>
      </trkpt>
      <trkpt lat="45.45006" lon="6.97729">
        <ele>1823</ele>
        <time>2020-08-08T09:21:05Z</time>
      </trkpt>
      <trkpt lat="45.44999" lon="6.9774">
        <ele>1823.2</ele>
        <time>2020-08-08T09:21:07Z</time>
      </trkpt>
      <trkpt lat="45.44998" lon="6.97757">
        <ele>1823.2</ele>
        <time>2020-08-08T09:21:09Z</time>
      </trkpt>
      <trkpt lat="45.44994" lon="6.97772">
        <ele>1824</ele>
        <time>2020-08-08T09:21:11Z</time>
      </trkpt>
      <trkpt lat="45.44987" lon="6.97785">
        <ele>1824.6</ele>
        <time>2020-08-08T09:21:13Z</time>
      </trkpt>
      <trkpt lat="45.44984" lon="6.97791">
        <ele>1824.8</ele>
        <time>2020-08-08T09:21:14Z</time>
      </trkpt>
      <trkpt lat="45.44979" lon="6.97805">
        <ele>1825.4</ele>
        <time>2020-08-08T09:21:16Z</time>
      </trkpt>
      <trkpt lat="45.44976" lon="6.97812">
        <ele>1825.7</ele>
        <time>2020-08-08T09:21:17Z</time>
      </trkpt>
      <trkpt lat="45.44971" lon="6.97826">
        <ele>1826.3</ele>
        <time>2020-08-08T09:21:19Z</time>
      </trkpt>
      <trkpt lat="45.44965" lon="6.9784">
        <ele>1826.8</ele>
        <time>2020-08-08T09:21:21Z</time>
      </trkpt>
      <trkpt lat="45.44959" lon="6.97854">
        <ele>1827.4</ele>
        <time>2020-08-08T09:21:23Z</time>
      </trkpt>
      <trkpt lat="45.44953" lon="6.97868">
        <ele>1828</ele>
        <time>2020-08-08T09:21:25Z</time>
      </trkpt>
      <trkpt lat="45.4495" lon="6.97874">
        <ele>1828.3</ele>
        <time>2020-08-08T09:21:26Z</time>
      </trkpt>
      <trkpt lat="45.44945" lon="6.97888">
        <ele>1828.9</ele>
        <time>2020-08-08T09:21:28Z</time>
      </trkpt>
      <trkpt lat="45.44939" lon="6.97902">
        <ele>1829.5</ele>
        <time>2020-08-08T09:21:30Z</time>
      </trkpt>
      <trkpt lat="45.44936" lon="6.97908">
        <ele>1829.8</ele>
        <time>2020-08-08T09:21:31Z</time>
      </trkpt>
      <trkpt lat="45.44933" lon="6.97914">
        <ele>1830.1</ele>
        <time>2020-08-08T09:21:32Z</time>
      </trkpt>
      <trkpt lat="45.4493" lon="6.97921">
        <ele>1830.4</ele>
        <time>2020-08-08T09:21:33Z</time>
      </trkpt>
      <trkpt lat="45.44924" lon="6.97933">
        <ele>1831</ele>
        <time>2020-08-08T09:21:35Z</time>
      </trkpt>
      <trkpt lat="45.44921" lon="6.9794">
        <ele>1831.2</ele>
        <time>2020-08-08T09:21:36Z</time>
      </trkpt>
      <trkpt lat="45.44918" lon="6.97946">
        <ele>1831.5</ele>
        <time>2020-08-08T09:21:37Z</time>
      </trkpt>
      <trkpt lat="45.44915" lon="6.97953">
        <ele>1831.8</ele>
        <time>2020-08-08T09:21:38Z</time>
      </trkpt>
      <trkpt lat="45.44909" lon="6.97966">
        <ele>1832.3</ele>
        <time>2020-08-08T09:21:40Z</time>
      </trkpt>
      <trkpt lat="45.44903" lon="6.97978">
        <ele>1832.8</ele>
        <time>2020-08-08T09:21:42Z</time>
      </trkpt>
      <trkpt lat="45.449" lon="6.97984">
        <ele>1833</ele>
        <time>2020-08-08T09:21:43Z</time>
      </trkpt>
      <trkpt lat="45.44894" lon="6.97996">
        <ele>1832.6</ele>
        <time>2020-08-08T09:21:45Z</time>
      </trkpt>
      <trkpt lat="45.44888" lon="6.98009">
        <ele>1833</ele>
        <time>2020-08-08T09:21:47Z</time>
      </trkpt>
      <trkpt lat="45.44886" lon="6.98016">
        <ele>1833.1</ele>
        <time>2020-08-08T09:21:48Z</time>
      </trkpt>
      <trkpt lat="45.44884" lon="6.98023">
        <ele>1833.4</ele>
        <time>2020-08-08T09:21:49Z</time>
      </trkpt>
      <trkpt lat="45.4488" lon="6.98037">
        <ele>1833.5</ele>
        <time>2020-08-08T09:21:51Z</time>
      </trkpt>
      <trkpt lat="45.44876" lon="6.9805">
        <ele>1833.5</ele>
        <time>2020-08-08T09:21:53Z</time>
      </trkpt>
      <trkpt lat="45.44872" lon="6.98063">
        <ele>1833.5</ele>
        <time>2020-08-08T09:21:55Z</time>
      </trkpt>
      <trkpt lat="45.44869" lon="6.9807">
        <ele>1833.5</ele>
        <time>2020-08-08T09:21:56Z</time>
      </trkpt>
      <trkpt lat="45.44863" lon="6.98084">
        <ele>1833.5</ele>
        <time>2020-08-08T09:21:58Z</time>
      </trkpt>
      <trkpt lat="45.44858" lon="6.98097">
        <ele>1833.7</ele>
        <time>2020-08-08T09:22:00Z</time>
      </trkpt>
      <trkpt lat="45.44852" lon="6.98108">
        <ele>1833.9</ele>
        <time>2020-08-08T09:22:02Z</time>
      </trkpt>
      <trkpt lat="45.44849" lon="6.98114">
        <ele>1833.9</ele>
        <time>2020-08-08T09:22:03Z</time>
      </trkpt>
      <trkpt lat="45.44846" lon="6.9812">
        <ele>1834</ele>
        <time>2020-08-08T09:22:04Z</time>
      </trkpt>
      <trkpt lat="45.44839" lon="6.98133">
        <ele>1834.2</ele>
        <time>2020-08-08T09:22:06Z</time>
      </trkpt>
      <trkpt lat="45.44835" lon="6.9814">
        <ele>1834.4</ele>
        <time>2020-08-08T09:22:07Z</time>
      </trkpt>
      <trkpt lat="45.44829" lon="6.98153">
        <ele>1834.6</ele>
        <time>2020-08-08T09:22:09Z</time>
      </trkpt>
      <trkpt lat="45.44826" lon="6.98159">
        <ele>1834.7</ele>
        <time>2020-08-08T09:22:10Z</time>
      </trkpt>
      <trkpt lat="45.44824" lon="6.98166">
        <ele>1834.8</ele>
        <time>2020-08-08T09:22:11Z</time>
      </trkpt>
      <trkpt lat="45.44819" lon="6.98179">
        <ele>1835.1</ele>
        <time>2020-08-08T09:22:13Z</time>
      </trkpt>
      <trkpt lat="45.44817" lon="6.98185">
        <ele>1835.2</ele>
        <time>2020-08-08T09:22:14Z</time>
      </trkpt>
      <trkpt lat="45.44812" lon="6.98198">
        <ele>1835.6</ele>
        <time>2020-08-08T09:22:16Z</time>
      </trkpt>
      <trkpt lat="45.4481" lon="6.98205">
        <ele>1835.7</ele>
        <time>2020-08-08T09:22:17Z</time>
      </trkpt>
      <trkpt lat="45.44806" lon="6.98217">
        <ele>1836</ele>
        <time>2020-08-08T09:22:19Z</time>
      </trkpt>
      <trkpt lat="45.44804" lon="6.98223">
        <ele>1836.2</ele>
        <time>2020-08-08T09:22:20Z</time>
      </trkpt>
      <trkpt lat="45.448" lon="6.98236">
        <ele>1836.5</ele>
        <time>2020-08-08T09:22:22Z</time>
      </trkpt>
      <trkpt lat="45.44798" lon="6.98242">
        <ele>1836.6</ele>
        <time>2020-08-08T09:22:23Z</time>
      </trkpt>
      <trkpt lat="45.44794" lon="6.98252">
        <ele>1836.9</ele>
        <time>2020-08-08T09:22:25Z</time>
      </trkpt>
      <trkpt lat="45.44792" lon="6.98257">
        <ele>1837.1</ele>
        <time>2020-08-08T09:22:26Z</time>
      </trkpt>
      <trkpt lat="45.4479" lon="6.98262">
        <ele>1837.2</ele>
        <time>2020-08-08T09:22:27Z</time>
      </trkpt>
      <trkpt lat="45.44787" lon="6.98275">
        <ele>1837.5</ele>
        <time>2020-08-08T09:22:29Z</time>
      </trkpt>
      <trkpt lat="45.44783" lon="6.98286">
        <ele>1837.7</ele>
        <time>2020-08-08T09:22:31Z</time>
      </trkpt>
      <trkpt lat="45.44779" lon="6.98298">
        <ele>1837.9</ele>
        <time>2020-08-08T09:22:33Z</time>
      </trkpt>
      <trkpt lat="45.44775" lon="6.9831">
        <ele>1838.1</ele>
        <time>2020-08-08T09:22:35Z</time>
      </trkpt>
      <trkpt lat="45.44773" lon="6.98315">
        <ele>1838.2</ele>
        <time>2020-08-08T09:22:36Z</time>
      </trkpt>
      <trkpt lat="45.44769" lon="6.98328">
        <ele>1838.4</ele>
        <time>2020-08-08T09:22:38Z</time>
      </trkpt>
      <trkpt lat="45.44766" lon="6.98341">
        <ele>1838.6</ele>
        <time>2020-08-08T09:22:40Z</time>
      </trkpt>
      <trkpt lat="45.44764" lon="6.98347">
        <ele>1838.7</ele>
        <time>2020-08-08T09:22:41Z</time>
      </trkpt>
      <trkpt lat="45.44761" lon="6.9836">
        <ele>1838.9</ele>
        <time>2020-08-08T09:22:43Z</time>
      </trkpt>
      <trkpt lat="45.44756" lon="6.98372">
        <ele>1839.1</ele>
        <time>2020-08-08T09:22:45Z</time>
      </trkpt>
      <trkpt lat="45.44754" lon="6.98377">
        <ele>1839.2</ele>
        <time>2020-08-08T09:22:46Z</time>
      </trkpt>
      <trkpt lat="45.44751" lon="6.98383">
        <ele>1839.3</ele>
        <time>2020-08-08T09:22:47Z</time>
      </trkpt>
      <trkpt lat="45.44747" lon="6.98396">
        <ele>1839.5</ele>
        <time>2020-08-08T09:22:49Z</time>
      </trkpt>
      <trkpt lat="45.44743" lon="6.98409">
        <ele>1839.8</ele>
        <time>2020-08-08T09:22:51Z</time>
      </trkpt>
      <trkpt lat="45.44739" lon="6.98421">
        <ele>1840</ele>
        <time>2020-08-08T09:22:53Z</time>
      </trkpt>
      <trkpt lat="45.44737" lon="6.98427">
        <ele>1840.1</ele>
        <time>2020-08-08T09:22:54Z</time>
      </trkpt>
      <trkpt lat="45.44734" lon="6.98439">
        <ele>1840.3</ele>
        <time>2020-08-08T09:22:56Z</time>
      </trkpt>
      <trkpt lat="45.4473" lon="6.9845">
        <ele>1840.4</ele>
        <time>2020-08-08T09:22:58Z</time>
      </trkpt>
      <trkpt lat="45.44728" lon="6.98456">
        <ele>1840.5</ele>
        <time>2020-08-08T09:22:59Z</time>
      </trkpt>
      <trkpt lat="45.44725" lon="6.98466">
        <ele>1840.7</ele>
        <time>2020-08-08T09:23:01Z</time>
      </trkpt>
      <trkpt lat="45.44723" lon="6.98473">
        <ele>1840.9</ele>
        <time>2020-08-08T09:23:02Z</time>
      </trkpt>
      <trkpt lat="45.44719" lon="6.98485">
        <ele>1841.1</ele>
        <time>2020-08-08T09:23:04Z</time>
      </trkpt>
      <trkpt lat="45.44715" lon="6.98497">
        <ele>1841.3</ele>
        <time>2020-08-08T09:23:06Z</time>
      </trkpt>
      <trkpt lat="45.44713" lon="6.98503">
        <ele>1841.4</ele>
        <time>2020-08-08T09:23:07Z</time>
      </trkpt>
      <trkpt lat="45.44709" lon="6.98515">
        <ele>1841.7</ele>
        <time>2020-08-08T09:23:09Z</time>
      </trkpt>
      <trkpt lat="45.44707" lon="6.98531">
        <ele>1842</ele>
        <time>2020-08-08T09:23:11Z</time>
      </trkpt>
      <trkpt lat="45.44709" lon="6.98532">
        <ele>1842.1</ele>
        <time>2020-08-08T09:23:12Z</time>
      </trkpt>
      <trkpt lat="45.4471" lon="6.98534">
        <ele>1842.1</ele>
        <time>2020-08-08T09:23:13Z</time>
      </trkpt>
      <trkpt lat="45.44705" lon="6.98542">
        <ele>1842.4</ele>
        <time>2020-08-08T09:23:15Z</time>
      </trkpt>
      <trkpt lat="45.44696" lon="6.98562">
        <ele>1842.8</ele>
        <time>2020-08-08T09:23:18Z</time>
      </trkpt>
      <trkpt lat="45.44693" lon="6.98571">
        <ele>1843.1</ele>
        <time>2020-08-08T09:23:19Z</time>
      </trkpt>
      <trkpt lat="45.4469" lon="6.98578">
        <ele>1843.4</ele>
        <time>2020-08-08T09:23:20Z</time>
      </trkpt>
      <trkpt lat="45.44686" lon="6.98592">
        <ele>1843.8</ele>
        <time>2020-08-08T09:23:22Z</time>
      </trkpt>
      <trkpt lat="45.44683" lon="6.98604">
        <ele>1844.3</ele>
        <time>2020-08-08T09:23:24Z</time>
      </trkpt>
      <trkpt lat="45.44682" lon="6.98611">
        <ele>1844.5</ele>
        <time>2020-08-08T09:23:25Z</time>
      </trkpt>
      <trkpt lat="45.44679" lon="6.98623">
        <ele>1844.9</ele>
        <time>2020-08-08T09:23:27Z</time>
      </trkpt>
      <trkpt lat="45.44677" lon="6.9863">
        <ele>1845.2</ele>
        <time>2020-08-08T09:23:28Z</time>
      </trkpt>
      <trkpt lat="45.44674" lon="6.98642">
        <ele>1845.6</ele>
        <time>2020-08-08T09:23:30Z</time>
      </trkpt>
      <trkpt lat="45.44671" lon="6.98653">
        <ele>1846.1</ele>
        <time>2020-08-08T09:23:32Z</time>
      </trkpt>
      <trkpt lat="45.44668" lon="6.98666">
        <ele>1846.6</ele>
        <time>2020-08-08T09:23:34Z</time>
      </trkpt>
      <trkpt lat="45.44666" lon="6.98678">
        <ele>1847.1</ele>
        <time>2020-08-08T09:23:36Z</time>
      </trkpt>
      <trkpt lat="45.44664" lon="6.98684">
        <ele>1847.4</ele>
        <time>2020-08-08T09:23:37Z</time>
      </trkpt>
      <trkpt lat="45.44662" lon="6.98687">
        <ele>1847.6</ele>
        <time>2020-08-08T09:23:38Z</time>
      </trkpt>
      <trkpt lat="45.44662" lon="6.98691">
        <ele>1847.7</ele>
        <time>2020-08-08T09:23:40Z</time>
      </trkpt>
      <trkpt lat="45.44662" lon="6.98695">
        <ele>1847.9</ele>
        <time>2020-08-08T09:23:41Z</time>
      </trkpt>
      <trkpt lat="45.44662" lon="6.987">
        <ele>1848.1</ele>
        <time>2020-08-08T09:23:42Z</time>
      </trkpt>
      <trkpt lat="45.44662" lon="6.98706">
        <ele>1848.4</ele>
        <time>2020-08-08T09:23:43Z</time>
      </trkpt>
      <trkpt lat="45.44661" lon="6.98714">
        <ele>1848.8</ele>
        <time>2020-08-08T09:23:45Z</time>
      </trkpt>
      <trkpt lat="45.44658" lon="6.98727">
        <ele>1849.4</ele>
        <time>2020-08-08T09:23:46Z</time>
      </trkpt>
      <trkpt lat="45.44656" lon="6.98738">
        <ele>1850</ele>
        <time>2020-08-08T09:23:47Z</time>
      </trkpt>
      <trkpt lat="45.44655" lon="6.98747">
        <ele>1850.4</ele>
        <time>2020-08-08T09:23:48Z</time>
      </trkpt>
      <trkpt lat="45.44655" lon="6.98755">
        <ele>1850.8</ele>
        <time>2020-08-08T09:23:49Z</time>
      </trkpt>
      <trkpt lat="45.44654" lon="6.98764">
        <ele>1851.1</ele>
        <time>2020-08-08T09:23:51Z</time>
      </trkpt>
      <trkpt lat="45.44654" lon="6.98774">
        <ele>1851.5</ele>
        <time>2020-08-08T09:23:52Z</time>
      </trkpt>
      <trkpt lat="45.44653" lon="6.9878">
        <ele>1851.7</ele>
        <time>2020-08-08T09:23:53Z</time>
      </trkpt>
      <trkpt lat="45.4465" lon="6.98787">
        <ele>1852.1</ele>
        <time>2020-08-08T09:23:56Z</time>
      </trkpt>
      <trkpt lat="45.44649" lon="6.98798">
        <ele>1852.1</ele>
        <time>2020-08-08T09:23:57Z</time>
      </trkpt>
      <trkpt lat="45.44651" lon="6.98809">
        <ele>1852.1</ele>
        <time>2020-08-08T09:23:59Z</time>
      </trkpt>
      <trkpt lat="45.44654" lon="6.98817">
        <ele>1852.1</ele>
        <time>2020-08-08T09:24:00Z</time>
      </trkpt>
      <trkpt lat="45.4466" lon="6.98828">
        <ele>1852.1</ele>
        <time>2020-08-08T09:24:02Z</time>
      </trkpt>
      <trkpt lat="45.44663" lon="6.98838">
        <ele>1852.1</ele>
        <time>2020-08-08T09:24:03Z</time>
      </trkpt>
      <trkpt lat="45.44663" lon="6.98845">
        <ele>1852.1</ele>
        <time>2020-08-08T09:24:05Z</time>
      </trkpt>
      <trkpt lat="45.44667" lon="6.9886">
        <ele>1852</ele>
        <time>2020-08-08T09:24:07Z</time>
      </trkpt>
      <trkpt lat="45.4467" lon="6.98876">
        <ele>1851.7</ele>
        <time>2020-08-08T09:24:09Z</time>
      </trkpt>
      <trkpt lat="45.44673" lon="6.98894">
        <ele>1851.5</ele>
        <time>2020-08-08T09:24:11Z</time>
      </trkpt>
      <trkpt lat="45.44677" lon="6.98913">
        <ele>1851.3</ele>
        <time>2020-08-08T09:24:13Z</time>
      </trkpt>
      <trkpt lat="45.44679" lon="6.98931">
        <ele>1851.7</ele>
        <time>2020-08-08T09:24:15Z</time>
      </trkpt>
      <trkpt lat="45.44682" lon="6.98947">
        <ele>1851.9</ele>
        <time>2020-08-08T09:24:17Z</time>
      </trkpt>
      <trkpt lat="45.44683" lon="6.98955">
        <ele>1852.1</ele>
        <time>2020-08-08T09:24:18Z</time>
      </trkpt>
      <trkpt lat="45.44685" lon="6.98968">
        <ele>1852.4</ele>
        <time>2020-08-08T09:24:20Z</time>
      </trkpt>
      <trkpt lat="45.44686" lon="6.98975">
        <ele>1852.6</ele>
        <time>2020-08-08T09:24:21Z</time>
      </trkpt>
      <trkpt lat="45.44688" lon="6.98988">
        <ele>1852.9</ele>
        <time>2020-08-08T09:24:23Z</time>
      </trkpt>
      <trkpt lat="45.4469" lon="6.99002">
        <ele>1853.2</ele>
        <time>2020-08-08T09:24:25Z</time>
      </trkpt>
      <trkpt lat="45.44692" lon="6.99016">
        <ele>1853.5</ele>
        <time>2020-08-08T09:24:27Z</time>
      </trkpt>
      <trkpt lat="45.44695" lon="6.99029">
        <ele>1853.9</ele>
        <time>2020-08-08T09:24:29Z</time>
      </trkpt>
      <trkpt lat="45.44697" lon="6.99043">
        <ele>1854.3</ele>
        <time>2020-08-08T09:24:31Z</time>
      </trkpt>
      <trkpt lat="45.44699" lon="6.99056">
        <ele>1854.6</ele>
        <time>2020-08-08T09:24:33Z</time>
      </trkpt>
      <trkpt lat="45.44701" lon="6.99063">
        <ele>1854.7</ele>
        <time>2020-08-08T09:24:34Z</time>
      </trkpt>
      <trkpt lat="45.44703" lon="6.99076">
        <ele>1855</ele>
        <time>2020-08-08T09:24:36Z</time>
      </trkpt>
      <trkpt lat="45.44704" lon="6.99083">
        <ele>1855.2</ele>
        <time>2020-08-08T09:24:37Z</time>
      </trkpt>
      <trkpt lat="45.44706" lon="6.99096">
        <ele>1855.5</ele>
        <time>2020-08-08T09:24:39Z</time>
      </trkpt>
      <trkpt lat="45.44707" lon="6.99102">
        <ele>1855.7</ele>
        <time>2020-08-08T09:24:40Z</time>
      </trkpt>
      <trkpt lat="45.4471" lon="6.99115">
        <ele>1856</ele>
        <time>2020-08-08T09:24:42Z</time>
      </trkpt>
      <trkpt lat="45.44711" lon="6.99122">
        <ele>1856.2</ele>
        <time>2020-08-08T09:24:43Z</time>
      </trkpt>
      <trkpt lat="45.44713" lon="6.99134">
        <ele>1856.3</ele>
        <time>2020-08-08T09:24:45Z</time>
      </trkpt>
      <trkpt lat="45.44714" lon="6.99141">
        <ele>1856.3</ele>
        <time>2020-08-08T09:24:46Z</time>
      </trkpt>
      <trkpt lat="45.44715" lon="6.99147">
        <ele>1856.4</ele>
        <time>2020-08-08T09:24:47Z</time>
      </trkpt>
      <trkpt lat="45.44717" lon="6.9916">
        <ele>1856.9</ele>
        <time>2020-08-08T09:24:49Z</time>
      </trkpt>
      <trkpt lat="45.44719" lon="6.99173">
        <ele>1857.4</ele>
        <time>2020-08-08T09:24:51Z</time>
      </trkpt>
      <trkpt lat="45.44721" lon="6.99185">
        <ele>1857.9</ele>
        <time>2020-08-08T09:24:53Z</time>
      </trkpt>
      <trkpt lat="45.44723" lon="6.99198">
        <ele>1858.4</ele>
        <time>2020-08-08T09:24:55Z</time>
      </trkpt>
      <trkpt lat="45.44724" lon="6.99205">
        <ele>1858.6</ele>
        <time>2020-08-08T09:24:56Z</time>
      </trkpt>
      <trkpt lat="45.44725" lon="6.99217">
        <ele>1859.1</ele>
        <time>2020-08-08T09:24:58Z</time>
      </trkpt>
      <trkpt lat="45.44727" lon="6.99224">
        <ele>1859.4</ele>
        <time>2020-08-08T09:24:59Z</time>
      </trkpt>
      <trkpt lat="45.44728" lon="6.99238">
        <ele>1859.9</ele>
        <time>2020-08-08T09:25:01Z</time>
      </trkpt>
      <trkpt lat="45.44729" lon="6.99245">
        <ele>1860.2</ele>
        <time>2020-08-08T09:25:02Z</time>
      </trkpt>
      <trkpt lat="45.4473" lon="6.99252">
        <ele>1860.4</ele>
        <time>2020-08-08T09:25:03Z</time>
      </trkpt>
      <trkpt lat="45.44732" lon="6.99265">
        <ele>1861</ele>
        <time>2020-08-08T09:25:05Z</time>
      </trkpt>
      <trkpt lat="45.44733" lon="6.99272">
        <ele>1861.2</ele>
        <time>2020-08-08T09:25:06Z</time>
      </trkpt>
      <trkpt lat="45.44734" lon="6.99279">
        <ele>1861.5</ele>
        <time>2020-08-08T09:25:07Z</time>
      </trkpt>
      <trkpt lat="45.44734" lon="6.99286">
        <ele>1861.8</ele>
        <time>2020-08-08T09:25:08Z</time>
      </trkpt>
      <trkpt lat="45.44735" lon="6.99292">
        <ele>1862.1</ele>
        <time>2020-08-08T09:25:09Z</time>
      </trkpt>
      <trkpt lat="45.44737" lon="6.99306">
        <ele>1862.7</ele>
        <time>2020-08-08T09:25:11Z</time>
      </trkpt>
      <trkpt lat="45.44737" lon="6.99313">
        <ele>1863</ele>
        <time>2020-08-08T09:25:12Z</time>
      </trkpt>
      <trkpt lat="45.44738" lon="6.99326">
        <ele>1863.4</ele>
        <time>2020-08-08T09:25:14Z</time>
      </trkpt>
      <trkpt lat="45.44739" lon="6.99333">
        <ele>1863.7</ele>
        <time>2020-08-08T09:25:15Z</time>
      </trkpt>
      <trkpt lat="45.44739" lon="6.99339">
        <ele>1863.9</ele>
        <time>2020-08-08T09:25:16Z</time>
      </trkpt>
      <trkpt lat="45.44739" lon="6.99353">
        <ele>1864.4</ele>
        <time>2020-08-08T09:25:18Z</time>
      </trkpt>
      <trkpt lat="45.44739" lon="6.9936">
        <ele>1864.7</ele>
        <time>2020-08-08T09:25:19Z</time>
      </trkpt>
      <trkpt lat="45.44739" lon="6.99374">
        <ele>1865.3</ele>
        <time>2020-08-08T09:25:21Z</time>
      </trkpt>
      <trkpt lat="45.44739" lon="6.99388">
        <ele>1865.8</ele>
        <time>2020-08-08T09:25:23Z</time>
      </trkpt>
      <trkpt lat="45.44739" lon="6.99395">
        <ele>1866.1</ele>
        <time>2020-08-08T09:25:24Z</time>
      </trkpt>
      <trkpt lat="45.44738" lon="6.99409">
        <ele>1866.7</ele>
        <time>2020-08-08T09:25:26Z</time>
      </trkpt>
      <trkpt lat="45.44738" lon="6.99416">
        <ele>1867</ele>
        <time>2020-08-08T09:25:27Z</time>
      </trkpt>
      <trkpt lat="45.44738" lon="6.99429">
        <ele>1867.5</ele>
        <time>2020-08-08T09:25:29Z</time>
      </trkpt>
      <trkpt lat="45.44737" lon="6.99442">
        <ele>1867.8</ele>
        <time>2020-08-08T09:25:31Z</time>
      </trkpt>
      <trkpt lat="45.44737" lon="6.99449">
        <ele>1868</ele>
        <time>2020-08-08T09:25:32Z</time>
      </trkpt>
      <trkpt lat="45.44737" lon="6.99463">
        <ele>1868.4</ele>
        <time>2020-08-08T09:25:34Z</time>
      </trkpt>
      <trkpt lat="45.44737" lon="6.99476">
        <ele>1868.8</ele>
        <time>2020-08-08T09:25:36Z</time>
      </trkpt>
      <trkpt lat="45.44737" lon="6.99489">
        <ele>1869.2</ele>
        <time>2020-08-08T09:25:38Z</time>
      </trkpt>
      <trkpt lat="45.44736" lon="6.99501">
        <ele>1869.6</ele>
        <time>2020-08-08T09:25:40Z</time>
      </trkpt>
      <trkpt lat="45.44736" lon="6.99508">
        <ele>1869.8</ele>
        <time>2020-08-08T09:25:41Z</time>
      </trkpt>
      <trkpt lat="45.44736" lon="6.99515">
        <ele>1870</ele>
        <time>2020-08-08T09:25:42Z</time>
      </trkpt>
      <trkpt lat="45.44736" lon="6.99527">
        <ele>1870.4</ele>
        <time>2020-08-08T09:25:44Z</time>
      </trkpt>
      <trkpt lat="45.44736" lon="6.99539">
        <ele>1870.8</ele>
        <time>2020-08-08T09:25:46Z</time>
      </trkpt>
      <trkpt lat="45.44736" lon="6.99553">
        <ele>1871.1</ele>
        <time>2020-08-08T09:25:48Z</time>
      </trkpt>
      <trkpt lat="45.44736" lon="6.99566">
        <ele>1871.5</ele>
        <time>2020-08-08T09:25:50Z</time>
      </trkpt>
      <trkpt lat="45.44735" lon="6.99572">
        <ele>1871.7</ele>
        <time>2020-08-08T09:25:51Z</time>
      </trkpt>
      <trkpt lat="45.44735" lon="6.99586">
        <ele>1872</ele>
        <time>2020-08-08T09:25:53Z</time>
      </trkpt>
      <trkpt lat="45.44735" lon="6.99593">
        <ele>1872.2</ele>
        <time>2020-08-08T09:25:54Z</time>
      </trkpt>
      <trkpt lat="45.44736" lon="6.99599">
        <ele>1872.4</ele>
        <time>2020-08-08T09:25:55Z</time>
      </trkpt>
      <trkpt lat="45.44736" lon="6.99612">
        <ele>1872.8</ele>
        <time>2020-08-08T09:25:57Z</time>
      </trkpt>
      <trkpt lat="45.44736" lon="6.99619">
        <ele>1873</ele>
        <time>2020-08-08T09:25:58Z</time>
      </trkpt>
      <trkpt lat="45.44736" lon="6.99626">
        <ele>1873.2</ele>
        <time>2020-08-08T09:25:59Z</time>
      </trkpt>
      <trkpt lat="45.44736" lon="6.99639">
        <ele>1873.5</ele>
        <time>2020-08-08T09:26:01Z</time>
      </trkpt>
      <trkpt lat="45.44737" lon="6.99653">
        <ele>1873.9</ele>
        <time>2020-08-08T09:26:03Z</time>
      </trkpt>
      <trkpt lat="45.44737" lon="6.99667">
        <ele>1874.2</ele>
        <time>2020-08-08T09:26:05Z</time>
      </trkpt>
      <trkpt lat="45.44737" lon="6.9968">
        <ele>1874.5</ele>
        <time>2020-08-08T09:26:07Z</time>
      </trkpt>
      <trkpt lat="45.44737" lon="6.99686">
        <ele>1874.7</ele>
        <time>2020-08-08T09:26:08Z</time>
      </trkpt>
      <trkpt lat="45.44737" lon="6.99693">
        <ele>1874.9</ele>
        <time>2020-08-08T09:26:09Z</time>
      </trkpt>
      <trkpt lat="45.44738" lon="6.99706">
        <ele>1875.2</ele>
        <time>2020-08-08T09:26:11Z</time>
      </trkpt>
      <trkpt lat="45.44738" lon="6.99719">
        <ele>1875.5</ele>
        <time>2020-08-08T09:26:13Z</time>
      </trkpt>
      <trkpt lat="45.44739" lon="6.99726">
        <ele>1875.7</ele>
        <time>2020-08-08T09:26:14Z</time>
      </trkpt>
      <trkpt lat="45.44739" lon="6.99739">
        <ele>1876.1</ele>
        <time>2020-08-08T09:26:16Z</time>
      </trkpt>
      <trkpt lat="45.44739" lon="6.99746">
        <ele>1876.2</ele>
        <time>2020-08-08T09:26:17Z</time>
      </trkpt>
      <trkpt lat="45.4474" lon="6.99753">
        <ele>1876.4</ele>
        <time>2020-08-08T09:26:18Z</time>
      </trkpt>
      <trkpt lat="45.4474" lon="6.9976">
        <ele>1876.6</ele>
        <time>2020-08-08T09:26:19Z</time>
      </trkpt>
      <trkpt lat="45.44741" lon="6.99774">
        <ele>1876.9</ele>
        <time>2020-08-08T09:26:21Z</time>
      </trkpt>
      <trkpt lat="45.44741" lon="6.99787">
        <ele>1877.3</ele>
        <time>2020-08-08T09:26:23Z</time>
      </trkpt>
      <trkpt lat="45.44742" lon="6.99794">
        <ele>1877.6</ele>
        <time>2020-08-08T09:26:24Z</time>
      </trkpt>
      <trkpt lat="45.44743" lon="6.99809">
        <ele>1878</ele>
        <time>2020-08-08T09:26:26Z</time>
      </trkpt>
      <trkpt lat="45.44744" lon="6.99823">
        <ele>1878.4</ele>
        <time>2020-08-08T09:26:28Z</time>
      </trkpt>
      <trkpt lat="45.44745" lon="6.99831">
        <ele>1878.7</ele>
        <time>2020-08-08T09:26:29Z</time>
      </trkpt>
      <trkpt lat="45.44746" lon="6.99845">
        <ele>1879.1</ele>
        <time>2020-08-08T09:26:31Z</time>
      </trkpt>
      <trkpt lat="45.44747" lon="6.99852">
        <ele>1879.4</ele>
        <time>2020-08-08T09:26:32Z</time>
      </trkpt>
      <trkpt lat="45.44747" lon="6.99859">
        <ele>1879.6</ele>
        <time>2020-08-08T09:26:33Z</time>
      </trkpt>
      <trkpt lat="45.44749" lon="6.99873">
        <ele>1880</ele>
        <time>2020-08-08T09:26:35Z</time>
      </trkpt>
      <trkpt lat="45.4475" lon="6.9988">
        <ele>1880.2</ele>
        <time>2020-08-08T09:26:36Z</time>
      </trkpt>
      <trkpt lat="45.44751" lon="6.99887">
        <ele>1880.4</ele>
        <time>2020-08-08T09:26:37Z</time>
      </trkpt>
      <trkpt lat="45.44752" lon="6.99894">
        <ele>1880.7</ele>
        <time>2020-08-08T09:26:38Z</time>
      </trkpt>
      <trkpt lat="45.44753" lon="6.99901">
        <ele>1881</ele>
        <time>2020-08-08T09:26:39Z</time>
      </trkpt>
      <trkpt lat="45.44755" lon="6.99914">
        <ele>1881.6</ele>
        <time>2020-08-08T09:26:41Z</time>
      </trkpt>
      <trkpt lat="45.44756" lon="6.99921">
        <ele>1881.9</ele>
        <time>2020-08-08T09:26:42Z</time>
      </trkpt>
      <trkpt lat="45.44757" lon="6.99928">
        <ele>1882.2</ele>
        <time>2020-08-08T09:26:43Z</time>
      </trkpt>
      <trkpt lat="45.4476" lon="6.9994">
        <ele>1882.8</ele>
        <time>2020-08-08T09:26:45Z</time>
      </trkpt>
      <trkpt lat="45.44762" lon="6.99953">
        <ele>1883.4</ele>
        <time>2020-08-08T09:26:47Z</time>
      </trkpt>
      <trkpt lat="45.44764" lon="6.99966">
        <ele>1884</ele>
        <time>2020-08-08T09:26:49Z</time>
      </trkpt>
      <trkpt lat="45.44765" lon="6.99971">
        <ele>1884.3</ele>
        <time>2020-08-08T09:26:50Z</time>
      </trkpt>
      <trkpt lat="45.44768" lon="6.99982">
        <ele>1884.8</ele>
        <time>2020-08-08T09:26:52Z</time>
      </trkpt>
      <trkpt lat="45.44771" lon="6.99994">
        <ele>1885.4</ele>
        <time>2020-08-08T09:26:54Z</time>
      </trkpt>
      <trkpt lat="45.44773" lon="7.00004">
        <ele>1886</ele>
        <time>2020-08-08T09:26:56Z</time>
      </trkpt>
      <trkpt lat="45.44775" lon="7.00017">
        <ele>1886.6</ele>
        <time>2020-08-08T09:26:57Z</time>
      </trkpt>
      <trkpt lat="45.44777" lon="7.00024">
        <ele>1887</ele>
        <time>2020-08-08T09:26:59Z</time>
      </trkpt>
      <trkpt lat="45.44778" lon="7.00031">
        <ele>1887.3</ele>
        <time>2020-08-08T09:27:01Z</time>
      </trkpt>
      <trkpt lat="45.4478" lon="7.00038">
        <ele>1887.6</ele>
        <time>2020-08-08T09:27:02Z</time>
      </trkpt>
      <trkpt lat="45.44781" lon="7.00047">
        <ele>1888.1</ele>
        <time>2020-08-08T09:27:03Z</time>
      </trkpt>
      <trkpt lat="45.44782" lon="7.00061">
        <ele>1888.8</ele>
        <time>2020-08-08T09:27:05Z</time>
      </trkpt>
      <trkpt lat="45.44783" lon="7.00071">
        <ele>1889.4</ele>
        <time>2020-08-08T09:27:07Z</time>
      </trkpt>
      <trkpt lat="45.44783" lon="7.00081">
        <ele>1890</ele>
        <time>2020-08-08T09:27:09Z</time>
      </trkpt>
      <trkpt lat="45.44783" lon="7.00089">
        <ele>1890.4</ele>
        <time>2020-08-08T09:27:10Z</time>
      </trkpt>
      <trkpt lat="45.44784" lon="7.00101">
        <ele>1891.1</ele>
        <time>2020-08-08T09:27:12Z</time>
      </trkpt>
      <trkpt lat="45.44784" lon="7.00108">
        <ele>1891.5</ele>
        <time>2020-08-08T09:27:13Z</time>
      </trkpt>
      <trkpt lat="45.44784" lon="7.00116">
        <ele>1892</ele>
        <time>2020-08-08T09:27:15Z</time>
      </trkpt>
      <trkpt lat="45.44784" lon="7.00122">
        <ele>1892.3</ele>
        <time>2020-08-08T09:27:17Z</time>
      </trkpt>
      <trkpt lat="45.44785" lon="7.00133">
        <ele>1893</ele>
        <time>2020-08-08T09:27:18Z</time>
      </trkpt>
      <trkpt lat="45.44785" lon="7.00139">
        <ele>1893.4</ele>
        <time>2020-08-08T09:27:19Z</time>
      </trkpt>
      <trkpt lat="45.44785" lon="7.00146">
        <ele>1893.7</ele>
        <time>2020-08-08T09:27:21Z</time>
      </trkpt>
      <trkpt lat="45.44786" lon="7.00151">
        <ele>1894.1</ele>
        <time>2020-08-08T09:27:23Z</time>
      </trkpt>
      <trkpt lat="45.44787" lon="7.00156">
        <ele>1894.3</ele>
        <time>2020-08-08T09:27:24Z</time>
      </trkpt>
      <trkpt lat="45.44789" lon="7.00164">
        <ele>1894.8</ele>
        <time>2020-08-08T09:27:25Z</time>
      </trkpt>
      <trkpt lat="45.4479" lon="7.00172">
        <ele>1895.2</ele>
        <time>2020-08-08T09:27:26Z</time>
      </trkpt>
      <trkpt lat="45.44791" lon="7.00181">
        <ele>1895.7</ele>
        <time>2020-08-08T09:27:28Z</time>
      </trkpt>
      <trkpt lat="45.44792" lon="7.00187">
        <ele>1896</ele>
        <time>2020-08-08T09:27:30Z</time>
      </trkpt>
      <trkpt lat="45.44794" lon="7.00197">
        <ele>1896.5</ele>
        <time>2020-08-08T09:27:31Z</time>
      </trkpt>
      <trkpt lat="45.44796" lon="7.00207">
        <ele>1896.9</ele>
        <time>2020-08-08T09:27:33Z</time>
      </trkpt>
      <trkpt lat="45.44798" lon="7.00222">
        <ele>1897.5</ele>
        <time>2020-08-08T09:27:35Z</time>
      </trkpt>
      <trkpt lat="45.44799" lon="7.0023">
        <ele>1897.8</ele>
        <time>2020-08-08T09:27:37Z</time>
      </trkpt>
      <trkpt lat="45.44802" lon="7.00244">
        <ele>1898.4</ele>
        <time>2020-08-08T09:27:39Z</time>
      </trkpt>
      <trkpt lat="45.44804" lon="7.00253">
        <ele>1898.7</ele>
        <time>2020-08-08T09:27:42Z</time>
      </trkpt>
      <trkpt lat="45.44806" lon="7.00262">
        <ele>1899</ele>
        <time>2020-08-08T09:27:43Z</time>
      </trkpt>
      <trkpt lat="45.44807" lon="7.0027">
        <ele>1899.4</ele>
        <time>2020-08-08T09:27:45Z</time>
      </trkpt>
      <trkpt lat="45.44809" lon="7.00282">
        <ele>1899.8</ele>
        <time>2020-08-08T09:27:46Z</time>
      </trkpt>
      <trkpt lat="45.44811" lon="7.00291">
        <ele>1900.2</ele>
        <time>2020-08-08T09:27:48Z</time>
      </trkpt>
      <trkpt lat="45.44812" lon="7.00298">
        <ele>1900.4</ele>
        <time>2020-08-08T09:27:50Z</time>
      </trkpt>
      <trkpt lat="45.44814" lon="7.00309">
        <ele>1900.8</ele>
        <time>2020-08-08T09:27:51Z</time>
      </trkpt>
      <trkpt lat="45.44815" lon="7.00318">
        <ele>1901.1</ele>
        <time>2020-08-08T09:27:52Z</time>
      </trkpt>
      <trkpt lat="45.44817" lon="7.00327">
        <ele>1901.5</ele>
        <time>2020-08-08T09:27:54Z</time>
      </trkpt>
      <trkpt lat="45.44817" lon="7.00337">
        <ele>1901.8</ele>
        <time>2020-08-08T09:27:56Z</time>
      </trkpt>
      <trkpt lat="45.44818" lon="7.00351">
        <ele>1902.3</ele>
        <time>2020-08-08T09:27:58Z</time>
      </trkpt>
      <trkpt lat="45.44818" lon="7.00358">
        <ele>1902.5</ele>
        <time>2020-08-08T09:27:59Z</time>
      </trkpt>
      <trkpt lat="45.44819" lon="7.0037">
        <ele>1902.9</ele>
        <time>2020-08-08T09:28:01Z</time>
      </trkpt>
      <trkpt lat="45.44819" lon="7.00383">
        <ele>1903.4</ele>
        <time>2020-08-08T09:28:03Z</time>
      </trkpt>
      <trkpt lat="45.44819" lon="7.00388">
        <ele>1903.6</ele>
        <time>2020-08-08T09:28:04Z</time>
      </trkpt>
      <trkpt lat="45.4482" lon="7.00402">
        <ele>1904.1</ele>
        <time>2020-08-08T09:28:05Z</time>
      </trkpt>
      <trkpt lat="45.4482" lon="7.0041">
        <ele>1904.5</ele>
        <time>2020-08-08T09:28:06Z</time>
      </trkpt>
      <trkpt lat="45.4482" lon="7.00418">
        <ele>1904.8</ele>
        <time>2020-08-08T09:28:09Z</time>
      </trkpt>
      <trkpt lat="45.44821" lon="7.00428">
        <ele>1905.2</ele>
        <time>2020-08-08T09:28:10Z</time>
      </trkpt>
      <trkpt lat="45.44822" lon="7.00433">
        <ele>1905.5</ele>
        <time>2020-08-08T09:28:11Z</time>
      </trkpt>
      <trkpt lat="45.44822" lon="7.0045">
        <ele>1906.2</ele>
        <time>2020-08-08T09:28:13Z</time>
      </trkpt>
      <trkpt lat="45.44823" lon="7.00457">
        <ele>1906.5</ele>
        <time>2020-08-08T09:28:14Z</time>
      </trkpt>
      <trkpt lat="45.44822" lon="7.00464">
        <ele>1906.7</ele>
        <time>2020-08-08T09:28:16Z</time>
      </trkpt>
      <trkpt lat="45.44823" lon="7.00478">
        <ele>1907.3</ele>
        <time>2020-08-08T09:28:18Z</time>
      </trkpt>
      <trkpt lat="45.44823" lon="7.00487">
        <ele>1907.7</ele>
        <time>2020-08-08T09:28:20Z</time>
      </trkpt>
      <trkpt lat="45.44824" lon="7.00493">
        <ele>1907.9</ele>
        <time>2020-08-08T09:28:22Z</time>
      </trkpt>
      <trkpt lat="45.44824" lon="7.00503">
        <ele>1908.3</ele>
        <time>2020-08-08T09:28:23Z</time>
      </trkpt>
      <trkpt lat="45.44824" lon="7.00511">
        <ele>1908.7</ele>
        <time>2020-08-08T09:28:25Z</time>
      </trkpt>
      <trkpt lat="45.44824" lon="7.00526">
        <ele>1909.3</ele>
        <time>2020-08-08T09:28:26Z</time>
      </trkpt>
      <trkpt lat="45.44825" lon="7.00534">
        <ele>1909.6</ele>
        <time>2020-08-08T09:28:27Z</time>
      </trkpt>
      <trkpt lat="45.44826" lon="7.00548">
        <ele>1910.2</ele>
        <time>2020-08-08T09:28:30Z</time>
      </trkpt>
      <trkpt lat="45.44826" lon="7.00557">
        <ele>1910.5</ele>
        <time>2020-08-08T09:28:31Z</time>
      </trkpt>
      <trkpt lat="45.44826" lon="7.00565">
        <ele>1910.8</ele>
        <time>2020-08-08T09:28:34Z</time>
      </trkpt>
      <trkpt lat="45.44827" lon="7.0058">
        <ele>1911.4</ele>
        <time>2020-08-08T09:28:35Z</time>
      </trkpt>
      <trkpt lat="45.44827" lon="7.00588">
        <ele>1911.7</ele>
        <time>2020-08-08T09:28:38Z</time>
      </trkpt>
      <trkpt lat="45.44828" lon="7.00598">
        <ele>1912.2</ele>
        <time>2020-08-08T09:28:39Z</time>
      </trkpt>
      <trkpt lat="45.44828" lon="7.00606">
        <ele>1912.5</ele>
        <time>2020-08-08T09:28:40Z</time>
      </trkpt>
      <trkpt lat="45.44829" lon="7.00616">
        <ele>1912.9</ele>
        <time>2020-08-08T09:28:41Z</time>
      </trkpt>
      <trkpt lat="45.4483" lon="7.00624">
        <ele>1913.3</ele>
        <time>2020-08-08T09:28:43Z</time>
      </trkpt>
      <trkpt lat="45.4483" lon="7.00631">
        <ele>1913.5</ele>
        <time>2020-08-08T09:28:45Z</time>
      </trkpt>
      <trkpt lat="45.44831" lon="7.00642">
        <ele>1914</ele>
        <time>2020-08-08T09:28:46Z</time>
      </trkpt>
      <trkpt lat="45.44831" lon="7.00649">
        <ele>1914.3</ele>
        <time>2020-08-08T09:28:48Z</time>
      </trkpt>
      <trkpt lat="45.44834" lon="7.00662">
        <ele>1914.9</ele>
        <time>2020-08-08T09:28:49Z</time>
      </trkpt>
      <trkpt lat="45.44836" lon="7.0067">
        <ele>1915.4</ele>
        <time>2020-08-08T09:28:50Z</time>
      </trkpt>
      <trkpt lat="45.44838" lon="7.00678">
        <ele>1915.8</ele>
        <time>2020-08-08T09:28:53Z</time>
      </trkpt>
      <trkpt lat="45.44839" lon="7.00683">
        <ele>1916.1</ele>
        <time>2020-08-08T09:28:54Z</time>
      </trkpt>
      <trkpt lat="45.44842" lon="7.00692">
        <ele>1916.6</ele>
        <time>2020-08-08T09:28:55Z</time>
      </trkpt>
      <trkpt lat="45.44845" lon="7.007">
        <ele>1917.2</ele>
        <time>2020-08-08T09:28:56Z</time>
      </trkpt>
      <trkpt lat="45.44851" lon="7.00714">
        <ele>1918</ele>
        <time>2020-08-08T09:28:59Z</time>
      </trkpt>
      <trkpt lat="45.44857" lon="7.00726">
        <ele>1918.9</ele>
        <time>2020-08-08T09:29:02Z</time>
      </trkpt>
      <trkpt lat="45.44862" lon="7.00737">
        <ele>1919.8</ele>
        <time>2020-08-08T09:29:05Z</time>
      </trkpt>
      <trkpt lat="45.44864" lon="7.00742">
        <ele>1920.2</ele>
        <time>2020-08-08T09:29:06Z</time>
      </trkpt>
      <trkpt lat="45.44869" lon="7.00754">
        <ele>1921.2</ele>
        <time>2020-08-08T09:29:09Z</time>
      </trkpt>
      <trkpt lat="45.44872" lon="7.00759">
        <ele>1921.7</ele>
        <time>2020-08-08T09:29:12Z</time>
      </trkpt>
      <trkpt lat="45.44874" lon="7.00763">
        <ele>1921.9</ele>
        <time>2020-08-08T09:29:13Z</time>
      </trkpt>
      <trkpt lat="45.44877" lon="7.0077">
        <ele>1922.4</ele>
        <time>2020-08-08T09:29:14Z</time>
      </trkpt>
      <trkpt lat="45.4488" lon="7.00776">
        <ele>1922.8</ele>
        <time>2020-08-08T09:29:16Z</time>
      </trkpt>
      <trkpt lat="45.44883" lon="7.00781">
        <ele>1923.1</ele>
        <time>2020-08-08T09:29:18Z</time>
      </trkpt>
      <trkpt lat="45.44884" lon="7.00785">
        <ele>1923.4</ele>
        <time>2020-08-08T09:29:19Z</time>
      </trkpt>
      <trkpt lat="45.44885" lon="7.00789">
        <ele>1923.6</ele>
        <time>2020-08-08T09:29:20Z</time>
      </trkpt>
      <trkpt lat="45.44887" lon="7.00792">
        <ele>1923.9</ele>
        <time>2020-08-08T09:29:21Z</time>
      </trkpt>
      <trkpt lat="45.4489" lon="7.00799">
        <ele>1924.4</ele>
        <time>2020-08-08T09:29:22Z</time>
      </trkpt>
      <trkpt lat="45.44893" lon="7.00805">
        <ele>1924.8</ele>
        <time>2020-08-08T09:29:24Z</time>
      </trkpt>
      <trkpt lat="45.44895" lon="7.0081">
        <ele>1925.2</ele>
        <time>2020-08-08T09:29:26Z</time>
      </trkpt>
      <trkpt lat="45.44898" lon="7.00819">
        <ele>1925.8</ele>
        <time>2020-08-08T09:29:27Z</time>
      </trkpt>
      <trkpt lat="45.44901" lon="7.00825">
        <ele>1926.2</ele>
        <time>2020-08-08T09:29:29Z</time>
      </trkpt>
      <trkpt lat="45.44905" lon="7.00835">
        <ele>1926.9</ele>
        <time>2020-08-08T09:29:31Z</time>
      </trkpt>
      <trkpt lat="45.4491" lon="7.00846">
        <ele>1927.7</ele>
        <time>2020-08-08T09:29:34Z</time>
      </trkpt>
      <trkpt lat="45.44912" lon="7.00851">
        <ele>1928</ele>
        <time>2020-08-08T09:29:36Z</time>
      </trkpt>
      <trkpt lat="45.44914" lon="7.00855">
        <ele>1928.3</ele>
        <time>2020-08-08T09:29:38Z</time>
      </trkpt>
      <trkpt lat="45.44917" lon="7.00863">
        <ele>1928.8</ele>
        <time>2020-08-08T09:29:40Z</time>
      </trkpt>
      <trkpt lat="45.44918" lon="7.00867">
        <ele>1929.1</ele>
        <time>2020-08-08T09:29:41Z</time>
      </trkpt>
      <trkpt lat="45.44921" lon="7.00874">
        <ele>1929.6</ele>
        <time>2020-08-08T09:29:42Z</time>
      </trkpt>
      <trkpt lat="45.44924" lon="7.00879">
        <ele>1929.9</ele>
        <time>2020-08-08T09:29:44Z</time>
      </trkpt>
      <trkpt lat="45.4493" lon="7.00891">
        <ele>1930.7</ele>
        <time>2020-08-08T09:29:46Z</time>
      </trkpt>
      <trkpt lat="45.44932" lon="7.00896">
        <ele>1931.1</ele>
        <time>2020-08-08T09:29:47Z</time>
      </trkpt>
      <trkpt lat="45.44937" lon="7.00905">
        <ele>1931.7</ele>
        <time>2020-08-08T09:29:50Z</time>
      </trkpt>
      <trkpt lat="45.44941" lon="7.00915">
        <ele>1932.6</ele>
        <time>2020-08-08T09:29:52Z</time>
      </trkpt>
      <trkpt lat="45.44945" lon="7.00923">
        <ele>1933.4</ele>
        <time>2020-08-08T09:29:55Z</time>
      </trkpt>
      <trkpt lat="45.44947" lon="7.00926">
        <ele>1933.7</ele>
        <time>2020-08-08T09:29:56Z</time>
      </trkpt>
      <trkpt lat="45.44951" lon="7.00931">
        <ele>1934.3</ele>
        <time>2020-08-08T09:29:57Z</time>
      </trkpt>
      <trkpt lat="45.44955" lon="7.0094">
        <ele>1935.1</ele>
        <time>2020-08-08T09:30:00Z</time>
      </trkpt>
      <trkpt lat="45.44956" lon="7.00945">
        <ele>1935.4</ele>
        <time>2020-08-08T09:30:01Z</time>
      </trkpt>
      <trkpt lat="45.44959" lon="7.00952">
        <ele>1935.9</ele>
        <time>2020-08-08T09:30:03Z</time>
      </trkpt>
      <trkpt lat="45.44962" lon="7.00959">
        <ele>1935.9</ele>
        <time>2020-08-08T09:30:04Z</time>
      </trkpt>
      <trkpt lat="45.44966" lon="7.00968">
        <ele>1936.8</ele>
        <time>2020-08-08T09:30:07Z</time>
      </trkpt>
      <trkpt lat="45.4497" lon="7.00974">
        <ele>1937.6</ele>
        <time>2020-08-08T09:30:09Z</time>
      </trkpt>
      <trkpt lat="45.44976" lon="7.00984">
        <ele>1938.5</ele>
        <time>2020-08-08T09:30:11Z</time>
      </trkpt>
      <trkpt lat="45.44979" lon="7.00988">
        <ele>1938.5</ele>
        <time>2020-08-08T09:30:12Z</time>
      </trkpt>
      <trkpt lat="45.44983" lon="7.00997">
        <ele>1938.5</ele>
        <time>2020-08-08T09:30:15Z</time>
      </trkpt>
      <trkpt lat="45.44986" lon="7.01">
        <ele>1938.6</ele>
        <time>2020-08-08T09:30:16Z</time>
      </trkpt>
      <trkpt lat="45.44994" lon="7.01011">
        <ele>1939.8</ele>
        <time>2020-08-08T09:30:18Z</time>
      </trkpt>
      <trkpt lat="45.44997" lon="7.01014">
        <ele>1940.1</ele>
        <time>2020-08-08T09:30:19Z</time>
      </trkpt>
      <trkpt lat="45.45" lon="7.01018">
        <ele>1940.4</ele>
        <time>2020-08-08T09:30:21Z</time>
      </trkpt>
      <trkpt lat="45.45004" lon="7.01022">
        <ele>1940.9</ele>
        <time>2020-08-08T09:30:22Z</time>
      </trkpt>
      <trkpt lat="45.45007" lon="7.01027">
        <ele>1941.3</ele>
        <time>2020-08-08T09:30:23Z</time>
      </trkpt>
      <trkpt lat="45.45011" lon="7.01032">
        <ele>1941.8</ele>
        <time>2020-08-08T09:30:25Z</time>
      </trkpt>
      <trkpt lat="45.45014" lon="7.01037">
        <ele>1942.2</ele>
        <time>2020-08-08T09:30:27Z</time>
      </trkpt>
      <trkpt lat="45.45019" lon="7.01044">
        <ele>1942.8</ele>
        <time>2020-08-08T09:30:28Z</time>
      </trkpt>
      <trkpt lat="45.45021" lon="7.01047">
        <ele>1943.1</ele>
        <time>2020-08-08T09:30:29Z</time>
      </trkpt>
      <trkpt lat="45.45024" lon="7.01052">
        <ele>1943.5</ele>
        <time>2020-08-08T09:30:30Z</time>
      </trkpt>
      <trkpt lat="45.45027" lon="7.01056">
        <ele>1943.9</ele>
        <time>2020-08-08T09:30:32Z</time>
      </trkpt>
      <trkpt lat="45.45031" lon="7.01063">
        <ele>1944.5</ele>
        <time>2020-08-08T09:30:33Z</time>
      </trkpt>
      <trkpt lat="45.45033" lon="7.01067">
        <ele>1944.9</ele>
        <time>2020-08-08T09:30:35Z</time>
      </trkpt>
      <trkpt lat="45.45037" lon="7.01075">
        <ele>1945.1</ele>
        <time>2020-08-08T09:30:36Z</time>
      </trkpt>
      <trkpt lat="45.45042" lon="7.01088">
        <ele>1945.6</ele>
        <time>2020-08-08T09:30:38Z</time>
      </trkpt>
      <trkpt lat="45.45044" lon="7.01094">
        <ele>1946</ele>
        <time>2020-08-08T09:30:40Z</time>
      </trkpt>
      <trkpt lat="45.45046" lon="7.01101">
        <ele>1946.4</ele>
        <time>2020-08-08T09:30:41Z</time>
      </trkpt>
      <trkpt lat="45.45048" lon="7.01117">
        <ele>1947.2</ele>
        <time>2020-08-08T09:30:44Z</time>
      </trkpt>
      <trkpt lat="45.45048" lon="7.0113">
        <ele>1947.8</ele>
        <time>2020-08-08T09:30:47Z</time>
      </trkpt>
      <trkpt lat="45.45048" lon="7.01137">
        <ele>1948</ele>
        <time>2020-08-08T09:30:48Z</time>
      </trkpt>
      <trkpt lat="45.4505" lon="7.01148">
        <ele>1948.1</ele>
        <time>2020-08-08T09:30:51Z</time>
      </trkpt>
      <trkpt lat="45.45051" lon="7.01151">
        <ele>1948.1</ele>
        <time>2020-08-08T09:30:52Z</time>
      </trkpt>
      <trkpt lat="45.45055" lon="7.01161">
        <ele>1948.2</ele>
        <time>2020-08-08T09:30:54Z</time>
      </trkpt>
      <trkpt lat="45.45059" lon="7.01167">
        <ele>1948.7</ele>
        <time>2020-08-08T09:30:56Z</time>
      </trkpt>
      <trkpt lat="45.45061" lon="7.0117">
        <ele>1948.9</ele>
        <time>2020-08-08T09:30:58Z</time>
      </trkpt>
      <trkpt lat="45.45063" lon="7.01174">
        <ele>1949.2</ele>
        <time>2020-08-08T09:30:59Z</time>
      </trkpt>
      <trkpt lat="45.45067" lon="7.01186">
        <ele>1950</ele>
        <time>2020-08-08T09:31:01Z</time>
      </trkpt>
      <trkpt lat="45.4507" lon="7.01192">
        <ele>1950.4</ele>
        <time>2020-08-08T09:31:03Z</time>
      </trkpt>
      <trkpt lat="45.45071" lon="7.01199">
        <ele>1950.8</ele>
        <time>2020-08-08T09:31:05Z</time>
      </trkpt>
      <trkpt lat="45.45072" lon="7.0121">
        <ele>1951.5</ele>
        <time>2020-08-08T09:31:07Z</time>
      </trkpt>
      <trkpt lat="45.45073" lon="7.01216">
        <ele>1951.9</ele>
        <time>2020-08-08T09:31:10Z</time>
      </trkpt>
      <trkpt lat="45.45075" lon="7.01222">
        <ele>1952.2</ele>
        <time>2020-08-08T09:31:11Z</time>
      </trkpt>
      <trkpt lat="45.45076" lon="7.01228">
        <ele>1952.6</ele>
        <time>2020-08-08T09:31:13Z</time>
      </trkpt>
      <trkpt lat="45.45077" lon="7.01236">
        <ele>1953.1</ele>
        <time>2020-08-08T09:31:14Z</time>
      </trkpt>
      <trkpt lat="45.45079" lon="7.01245">
        <ele>1953.7</ele>
        <time>2020-08-08T09:31:16Z</time>
      </trkpt>
      <trkpt lat="45.4508" lon="7.0125">
        <ele>1953.9</ele>
        <time>2020-08-08T09:31:18Z</time>
      </trkpt>
      <trkpt lat="45.45081" lon="7.01255">
        <ele>1954.2</ele>
        <time>2020-08-08T09:31:19Z</time>
      </trkpt>
      <trkpt lat="45.45083" lon="7.0126">
        <ele>1954.5</ele>
        <time>2020-08-08T09:31:21Z</time>
      </trkpt>
      <trkpt lat="45.45084" lon="7.01266">
        <ele>1954.9</ele>
        <time>2020-08-08T09:31:22Z</time>
      </trkpt>
      <trkpt lat="45.45086" lon="7.01271">
        <ele>1955.3</ele>
        <time>2020-08-08T09:31:25Z</time>
      </trkpt>
      <trkpt lat="45.45088" lon="7.01277">
        <ele>1955.7</ele>
        <time>2020-08-08T09:31:26Z</time>
      </trkpt>
      <trkpt lat="45.4509" lon="7.01281">
        <ele>1956</ele>
        <time>2020-08-08T09:31:27Z</time>
      </trkpt>
      <trkpt lat="45.45091" lon="7.01287">
        <ele>1956.3</ele>
        <time>2020-08-08T09:31:28Z</time>
      </trkpt>
      <trkpt lat="45.45093" lon="7.01292">
        <ele>1956.7</ele>
        <time>2020-08-08T09:31:29Z</time>
      </trkpt>
      <trkpt lat="45.45096" lon="7.01297">
        <ele>1957.1</ele>
        <time>2020-08-08T09:31:32Z</time>
      </trkpt>
      <trkpt lat="45.45098" lon="7.01301">
        <ele>1957.3</ele>
        <time>2020-08-08T09:31:33Z</time>
      </trkpt>
      <trkpt lat="45.451" lon="7.01307">
        <ele>1957.7</ele>
        <time>2020-08-08T09:31:34Z</time>
      </trkpt>
      <trkpt lat="45.45102" lon="7.01311">
        <ele>1958</ele>
        <time>2020-08-08T09:31:35Z</time>
      </trkpt>
      <trkpt lat="45.45104" lon="7.01318">
        <ele>1958.4</ele>
        <time>2020-08-08T09:31:36Z</time>
      </trkpt>
      <trkpt lat="45.45105" lon="7.01322">
        <ele>1958.6</ele>
        <time>2020-08-08T09:31:38Z</time>
      </trkpt>
      <trkpt lat="45.45107" lon="7.01327">
        <ele>1958.9</ele>
        <time>2020-08-08T09:31:40Z</time>
      </trkpt>
      <trkpt lat="45.45109" lon="7.01335">
        <ele>1959.4</ele>
        <time>2020-08-08T09:31:41Z</time>
      </trkpt>
      <trkpt lat="45.45111" lon="7.01339">
        <ele>1959.6</ele>
        <time>2020-08-08T09:31:43Z</time>
      </trkpt>
      <trkpt lat="45.45115" lon="7.0135">
        <ele>1960.5</ele>
        <time>2020-08-08T09:31:45Z</time>
      </trkpt>
      <trkpt lat="45.45117" lon="7.01355">
        <ele>1960.8</ele>
        <time>2020-08-08T09:31:47Z</time>
      </trkpt>
      <trkpt lat="45.45119" lon="7.01361">
        <ele>1961.3</ele>
        <time>2020-08-08T09:31:49Z</time>
      </trkpt>
      <trkpt lat="45.45123" lon="7.01372">
        <ele>1962</ele>
        <time>2020-08-08T09:31:51Z</time>
      </trkpt>
      <trkpt lat="45.45125" lon="7.01377">
        <ele>1962.4</ele>
        <time>2020-08-08T09:31:54Z</time>
      </trkpt>
      <trkpt lat="45.45126" lon="7.01381">
        <ele>1962.7</ele>
        <time>2020-08-08T09:31:55Z</time>
      </trkpt>
      <trkpt lat="45.45129" lon="7.01387">
        <ele>1963.1</ele>
        <time>2020-08-08T09:31:56Z</time>
      </trkpt>
      <trkpt lat="45.45131" lon="7.01393">
        <ele>1963.5</ele>
        <time>2020-08-08T09:31:57Z</time>
      </trkpt>
      <trkpt lat="45.45133" lon="7.01398">
        <ele>1963.9</ele>
        <time>2020-08-08T09:31:59Z</time>
      </trkpt>
      <trkpt lat="45.45135" lon="7.01404">
        <ele>1964.3</ele>
        <time>2020-08-08T09:32:01Z</time>
      </trkpt>
      <trkpt lat="45.45137" lon="7.01408">
        <ele>1964.5</ele>
        <time>2020-08-08T09:32:02Z</time>
      </trkpt>
      <trkpt lat="45.45139" lon="7.01414">
        <ele>1965</ele>
        <time>2020-08-08T09:32:04Z</time>
      </trkpt>
      <trkpt lat="45.45142" lon="7.01421">
        <ele>1965.4</ele>
        <time>2020-08-08T09:32:06Z</time>
      </trkpt>
      <trkpt lat="45.45144" lon="7.01426">
        <ele>1965.7</ele>
        <time>2020-08-08T09:32:08Z</time>
      </trkpt>
      <trkpt lat="45.45146" lon="7.01433">
        <ele>1966.2</ele>
        <time>2020-08-08T09:32:10Z</time>
      </trkpt>
      <trkpt lat="45.45148" lon="7.01437">
        <ele>1966.4</ele>
        <time>2020-08-08T09:32:11Z</time>
      </trkpt>
      <trkpt lat="45.45151" lon="7.01445">
        <ele>1967</ele>
        <time>2020-08-08T09:32:13Z</time>
      </trkpt>
      <trkpt lat="45.45152" lon="7.01448">
        <ele>1967.2</ele>
        <time>2020-08-08T09:32:14Z</time>
      </trkpt>
      <trkpt lat="45.45154" lon="7.01454">
        <ele>1967.6</ele>
        <time>2020-08-08T09:32:15Z</time>
      </trkpt>
      <trkpt lat="45.45157" lon="7.0146">
        <ele>1968.1</ele>
        <time>2020-08-08T09:32:17Z</time>
      </trkpt>
      <trkpt lat="45.45159" lon="7.01465">
        <ele>1968.4</ele>
        <time>2020-08-08T09:32:19Z</time>
      </trkpt>
      <trkpt lat="45.4516" lon="7.01469">
        <ele>1968.7</ele>
        <time>2020-08-08T09:32:20Z</time>
      </trkpt>
      <trkpt lat="45.45164" lon="7.01478">
        <ele>1969.3</ele>
        <time>2020-08-08T09:32:21Z</time>
      </trkpt>
      <trkpt lat="45.45166" lon="7.01483">
        <ele>1969.7</ele>
        <time>2020-08-08T09:32:23Z</time>
      </trkpt>
      <trkpt lat="45.45168" lon="7.01488">
        <ele>1970</ele>
        <time>2020-08-08T09:32:24Z</time>
      </trkpt>
      <trkpt lat="45.4517" lon="7.01494">
        <ele>1970.4</ele>
        <time>2020-08-08T09:32:27Z</time>
      </trkpt>
      <trkpt lat="45.45173" lon="7.015">
        <ele>1970.8</ele>
        <time>2020-08-08T09:32:28Z</time>
      </trkpt>
      <trkpt lat="45.45175" lon="7.01506">
        <ele>1971.2</ele>
        <time>2020-08-08T09:32:29Z</time>
      </trkpt>
      <trkpt lat="45.45176" lon="7.01511">
        <ele>1971.6</ele>
        <time>2020-08-08T09:32:30Z</time>
      </trkpt>
      <trkpt lat="45.45178" lon="7.01515">
        <ele>1971.8</ele>
        <time>2020-08-08T09:32:31Z</time>
      </trkpt>
      <trkpt lat="45.45179" lon="7.01518">
        <ele>1972.1</ele>
        <time>2020-08-08T09:32:32Z</time>
      </trkpt>
      <trkpt lat="45.4518" lon="7.01522">
        <ele>1972.4</ele>
        <time>2020-08-08T09:32:34Z</time>
      </trkpt>
      <trkpt lat="45.45182" lon="7.01526">
        <ele>1972.6</ele>
        <time>2020-08-08T09:32:35Z</time>
      </trkpt>
      <trkpt lat="45.45183" lon="7.0153">
        <ele>1972.9</ele>
        <time>2020-08-08T09:32:36Z</time>
      </trkpt>
      <trkpt lat="45.45186" lon="7.01538">
        <ele>1973.4</ele>
        <time>2020-08-08T09:32:38Z</time>
      </trkpt>
      <trkpt lat="45.45187" lon="7.01542">
        <ele>1973.7</ele>
        <time>2020-08-08T09:32:39Z</time>
      </trkpt>
      <trkpt lat="45.45189" lon="7.01546">
        <ele>1973.9</ele>
        <time>2020-08-08T09:32:40Z</time>
      </trkpt>
      <trkpt lat="45.45191" lon="7.01551">
        <ele>1974.3</ele>
        <time>2020-08-08T09:32:42Z</time>
      </trkpt>
      <trkpt lat="45.45192" lon="7.01555">
        <ele>1974.5</ele>
        <time>2020-08-08T09:32:43Z</time>
      </trkpt>
      <trkpt lat="45.45194" lon="7.01561">
        <ele>1974.9</ele>
        <time>2020-08-08T09:32:45Z</time>
      </trkpt>
      <trkpt lat="45.45195" lon="7.01564">
        <ele>1975.1</ele>
        <time>2020-08-08T09:32:46Z</time>
      </trkpt>
      <trkpt lat="45.45196" lon="7.01567">
        <ele>1975.3</ele>
        <time>2020-08-08T09:32:47Z</time>
      </trkpt>
      <trkpt lat="45.45197" lon="7.01571">
        <ele>1975.6</ele>
        <time>2020-08-08T09:32:49Z</time>
      </trkpt>
      <trkpt lat="45.452" lon="7.01577">
        <ele>1976</ele>
        <time>2020-08-08T09:32:50Z</time>
      </trkpt>
      <trkpt lat="45.45201" lon="7.01584">
        <ele>1976.4</ele>
        <time>2020-08-08T09:32:51Z</time>
      </trkpt>
      <trkpt lat="45.45204" lon="7.01591">
        <ele>1976.9</ele>
        <time>2020-08-08T09:32:53Z</time>
      </trkpt>
      <trkpt lat="45.45206" lon="7.01596">
        <ele>1977.3</ele>
        <time>2020-08-08T09:32:55Z</time>
      </trkpt>
      <trkpt lat="45.45207" lon="7.016">
        <ele>1977.5</ele>
        <time>2020-08-08T09:32:56Z</time>
      </trkpt>
      <trkpt lat="45.45209" lon="7.01605">
        <ele>1977.8</ele>
        <time>2020-08-08T09:32:57Z</time>
      </trkpt>
      <trkpt lat="45.45213" lon="7.01615">
        <ele>1978.5</ele>
        <time>2020-08-08T09:33:00Z</time>
      </trkpt>
      <trkpt lat="45.45215" lon="7.0162">
        <ele>1978.8</ele>
        <time>2020-08-08T09:33:01Z</time>
      </trkpt>
      <trkpt lat="45.45215" lon="7.01621">
        <ele>1978.9</ele>
        <time>2020-08-08T09:33:02Z</time>
      </trkpt>
      <trkpt lat="45.45217" lon="7.01625">
        <ele>1979.1</ele>
        <time>2020-08-08T09:33:03Z</time>
      </trkpt>
      <trkpt lat="45.45219" lon="7.01629">
        <ele>1979.4</ele>
        <time>2020-08-08T09:33:04Z</time>
      </trkpt>
      <trkpt lat="45.45222" lon="7.01638">
        <ele>1980</ele>
        <time>2020-08-08T09:33:07Z</time>
      </trkpt>
      <trkpt lat="45.45223" lon="7.01642">
        <ele>1980.2</ele>
        <time>2020-08-08T09:33:08Z</time>
      </trkpt>
      <trkpt lat="45.45227" lon="7.0165">
        <ele>1980.7</ele>
        <time>2020-08-08T09:33:11Z</time>
      </trkpt>
      <trkpt lat="45.45229" lon="7.01654">
        <ele>1981</ele>
        <time>2020-08-08T09:33:12Z</time>
      </trkpt>
      <trkpt lat="45.45233" lon="7.01664">
        <ele>1981.6</ele>
        <time>2020-08-08T09:33:14Z</time>
      </trkpt>
      <trkpt lat="45.45237" lon="7.01673">
        <ele>1982.2</ele>
        <time>2020-08-08T09:33:17Z</time>
      </trkpt>
      <trkpt lat="45.45239" lon="7.01677">
        <ele>1982.4</ele>
        <time>2020-08-08T09:33:18Z</time>
      </trkpt>
      <trkpt lat="45.4524" lon="7.0168">
        <ele>1982.6</ele>
        <time>2020-08-08T09:33:19Z</time>
      </trkpt>
      <trkpt lat="45.45243" lon="7.01686">
        <ele>1983</ele>
        <time>2020-08-08T09:33:21Z</time>
      </trkpt>
      <trkpt lat="45.45244" lon="7.01689">
        <ele>1983.2</ele>
        <time>2020-08-08T09:33:22Z</time>
      </trkpt>
      <trkpt lat="45.45248" lon="7.01701">
        <ele>1983.8</ele>
        <time>2020-08-08T09:33:25Z</time>
      </trkpt>
      <trkpt lat="45.45251" lon="7.01706">
        <ele>1984.2</ele>
        <time>2020-08-08T09:33:26Z</time>
      </trkpt>
      <trkpt lat="45.45253" lon="7.01711">
        <ele>1984.5</ele>
        <time>2020-08-08T09:33:28Z</time>
      </trkpt>
      <trkpt lat="45.45254" lon="7.01716">
        <ele>1984.8</ele>
        <time>2020-08-08T09:33:29Z</time>
      </trkpt>
      <trkpt lat="45.45256" lon="7.01722">
        <ele>1985.2</ele>
        <time>2020-08-08T09:33:31Z</time>
      </trkpt>
      <trkpt lat="45.45259" lon="7.0173">
        <ele>1985.7</ele>
        <time>2020-08-08T09:33:33Z</time>
      </trkpt>
      <trkpt lat="45.4526" lon="7.01735">
        <ele>1986</ele>
        <time>2020-08-08T09:33:35Z</time>
      </trkpt>
      <trkpt lat="45.45263" lon="7.01743">
        <ele>1986.5</ele>
        <time>2020-08-08T09:33:36Z</time>
      </trkpt>
      <trkpt lat="45.45264" lon="7.01747">
        <ele>1986.8</ele>
        <time>2020-08-08T09:33:39Z</time>
      </trkpt>
      <trkpt lat="45.45266" lon="7.0175">
        <ele>1987</ele>
        <time>2020-08-08T09:33:40Z</time>
      </trkpt>
      <trkpt lat="45.45267" lon="7.01758">
        <ele>1987.5</ele>
        <time>2020-08-08T09:33:41Z</time>
      </trkpt>
      <trkpt lat="45.45267" lon="7.01764">
        <ele>1987.8</ele>
        <time>2020-08-08T09:33:42Z</time>
      </trkpt>
      <trkpt lat="45.45268" lon="7.01769">
        <ele>1988.1</ele>
        <time>2020-08-08T09:33:43Z</time>
      </trkpt>
      <trkpt lat="45.45269" lon="7.0178">
        <ele>1988.8</ele>
        <time>2020-08-08T09:33:46Z</time>
      </trkpt>
      <trkpt lat="45.4527" lon="7.01785">
        <ele>1989.2</ele>
        <time>2020-08-08T09:33:47Z</time>
      </trkpt>
      <trkpt lat="45.45272" lon="7.01795">
        <ele>1989.8</ele>
        <time>2020-08-08T09:33:50Z</time>
      </trkpt>
      <trkpt lat="45.45272" lon="7.018">
        <ele>1990.1</ele>
        <time>2020-08-08T09:33:51Z</time>
      </trkpt>
      <trkpt lat="45.45272" lon="7.01805">
        <ele>1990.5</ele>
        <time>2020-08-08T09:33:53Z</time>
      </trkpt>
      <trkpt lat="45.45274" lon="7.01814">
        <ele>1991.1</ele>
        <time>2020-08-08T09:33:55Z</time>
      </trkpt>
      <trkpt lat="45.45275" lon="7.01818">
        <ele>1991.4</ele>
        <time>2020-08-08T09:33:56Z</time>
      </trkpt>
      <trkpt lat="45.45276" lon="7.01829">
        <ele>1992.1</ele>
        <time>2020-08-08T09:33:59Z</time>
      </trkpt>
      <trkpt lat="45.45276" lon="7.01835">
        <ele>1992.4</ele>
        <time>2020-08-08T09:34:00Z</time>
      </trkpt>
      <trkpt lat="45.45278" lon="7.01844">
        <ele>1993</ele>
        <time>2020-08-08T09:34:03Z</time>
      </trkpt>
      <trkpt lat="45.45279" lon="7.01849">
        <ele>1993.3</ele>
        <time>2020-08-08T09:34:04Z</time>
      </trkpt>
      <trkpt lat="45.4528" lon="7.01854">
        <ele>1993.5</ele>
        <time>2020-08-08T09:34:05Z</time>
      </trkpt>
      <trkpt lat="45.45281" lon="7.01859">
        <ele>1993.9</ele>
        <time>2020-08-08T09:34:08Z</time>
      </trkpt>
      <trkpt lat="45.45282" lon="7.01863">
        <ele>1994.1</ele>
        <time>2020-08-08T09:34:09Z</time>
      </trkpt>
      <trkpt lat="45.45284" lon="7.01872">
        <ele>1994.6</ele>
        <time>2020-08-08T09:34:10Z</time>
      </trkpt>
      <trkpt lat="45.45285" lon="7.01877">
        <ele>1994.9</ele>
        <time>2020-08-08T09:34:11Z</time>
      </trkpt>
      <trkpt lat="45.45286" lon="7.01881">
        <ele>1995.1</ele>
        <time>2020-08-08T09:34:12Z</time>
      </trkpt>
      <trkpt lat="45.45287" lon="7.01888">
        <ele>1995.4</ele>
        <time>2020-08-08T09:34:15Z</time>
      </trkpt>
      <trkpt lat="45.45288" lon="7.01895">
        <ele>1995.8</ele>
        <time>2020-08-08T09:34:16Z</time>
      </trkpt>
      <trkpt lat="45.45289" lon="7.01899">
        <ele>1996</ele>
        <time>2020-08-08T09:34:17Z</time>
      </trkpt>
      <trkpt lat="45.4529" lon="7.01903">
        <ele>1996.3</ele>
        <time>2020-08-08T09:34:18Z</time>
      </trkpt>
      <trkpt lat="45.45291" lon="7.01907">
        <ele>1996.5</ele>
        <time>2020-08-08T09:34:19Z</time>
      </trkpt>
      <trkpt lat="45.45292" lon="7.01916">
        <ele>1997</ele>
        <time>2020-08-08T09:34:21Z</time>
      </trkpt>
      <trkpt lat="45.45292" lon="7.0192">
        <ele>1997.3</ele>
        <time>2020-08-08T09:34:22Z</time>
      </trkpt>
      <trkpt lat="45.45293" lon="7.01924">
        <ele>1997.5</ele>
        <time>2020-08-08T09:34:23Z</time>
      </trkpt>
      <trkpt lat="45.45294" lon="7.01928">
        <ele>1997.8</ele>
        <time>2020-08-08T09:34:24Z</time>
      </trkpt>
      <trkpt lat="45.45295" lon="7.01932">
        <ele>1998</ele>
        <time>2020-08-08T09:34:25Z</time>
      </trkpt>
      <trkpt lat="45.45296" lon="7.01937">
        <ele>1998.3</ele>
        <time>2020-08-08T09:34:27Z</time>
      </trkpt>
      <trkpt lat="45.45298" lon="7.01946">
        <ele>1998.8</ele>
        <time>2020-08-08T09:34:29Z</time>
      </trkpt>
      <trkpt lat="45.45299" lon="7.0195">
        <ele>1999.1</ele>
        <time>2020-08-08T09:34:30Z</time>
      </trkpt>
      <trkpt lat="45.453" lon="7.01961">
        <ele>1999.7</ele>
        <time>2020-08-08T09:34:33Z</time>
      </trkpt>
      <trkpt lat="45.45301" lon="7.01965">
        <ele>1999.9</ele>
        <time>2020-08-08T09:34:34Z</time>
      </trkpt>
      <trkpt lat="45.45302" lon="7.0197">
        <ele>2000.1</ele>
        <time>2020-08-08T09:34:35Z</time>
      </trkpt>
      <trkpt lat="45.45302" lon="7.01976">
        <ele>2000.5</ele>
        <time>2020-08-08T09:34:36Z</time>
      </trkpt>
      <trkpt lat="45.45302" lon="7.01981">
        <ele>2000.7</ele>
        <time>2020-08-08T09:34:37Z</time>
      </trkpt>
      <trkpt lat="45.45302" lon="7.01986">
        <ele>2001</ele>
        <time>2020-08-08T09:34:40Z</time>
      </trkpt>
      <trkpt lat="45.45301" lon="7.01993">
        <ele>2001.4</ele>
        <time>2020-08-08T09:34:41Z</time>
      </trkpt>
      <trkpt lat="45.45299" lon="7.01999">
        <ele>2001.8</ele>
        <time>2020-08-08T09:34:42Z</time>
      </trkpt>
      <trkpt lat="45.45298" lon="7.02004">
        <ele>2002.1</ele>
        <time>2020-08-08T09:34:43Z</time>
      </trkpt>
      <trkpt lat="45.45296" lon="7.02009">
        <ele>2002.5</ele>
        <time>2020-08-08T09:34:45Z</time>
      </trkpt>
      <trkpt lat="45.45294" lon="7.02017">
        <ele>2002.9</ele>
        <time>2020-08-08T09:34:47Z</time>
      </trkpt>
      <trkpt lat="45.45292" lon="7.02023">
        <ele>2003.3</ele>
        <time>2020-08-08T09:34:48Z</time>
      </trkpt>
      <trkpt lat="45.45291" lon="7.02028">
        <ele>2003.7</ele>
        <time>2020-08-08T09:34:51Z</time>
      </trkpt>
      <trkpt lat="45.45288" lon="7.02036">
        <ele>2003.8</ele>
        <time>2020-08-08T09:34:53Z</time>
      </trkpt>
      <trkpt lat="45.45287" lon="7.0204">
        <ele>2003.8</ele>
        <time>2020-08-08T09:34:54Z</time>
      </trkpt>
      <trkpt lat="45.45284" lon="7.02048">
        <ele>2003.9</ele>
        <time>2020-08-08T09:34:55Z</time>
      </trkpt>
      <trkpt lat="45.45281" lon="7.02058">
        <ele>2003.9</ele>
        <time>2020-08-08T09:34:57Z</time>
      </trkpt>
      <trkpt lat="45.45279" lon="7.02063">
        <ele>2003.9</ele>
        <time>2020-08-08T09:35:00Z</time>
      </trkpt>
      <trkpt lat="45.45277" lon="7.02067">
        <ele>2003.9</ele>
        <time>2020-08-08T09:35:01Z</time>
      </trkpt>
      <trkpt lat="45.45275" lon="7.02075">
        <ele>2004</ele>
        <time>2020-08-08T09:35:02Z</time>
      </trkpt>
      <trkpt lat="45.45272" lon="7.02083">
        <ele>2004.2</ele>
        <time>2020-08-08T09:35:04Z</time>
      </trkpt>
      <trkpt lat="45.4527" lon="7.02091">
        <ele>2004.5</ele>
        <time>2020-08-08T09:35:06Z</time>
      </trkpt>
      <trkpt lat="45.45267" lon="7.02101">
        <ele>2004.8</ele>
        <time>2020-08-08T09:35:08Z</time>
      </trkpt>
      <trkpt lat="45.45265" lon="7.02106">
        <ele>2004.9</ele>
        <time>2020-08-08T09:35:10Z</time>
      </trkpt>
      <trkpt lat="45.45263" lon="7.02113">
        <ele>2005.2</ele>
        <time>2020-08-08T09:35:12Z</time>
      </trkpt>
      <trkpt lat="45.45262" lon="7.02117">
        <ele>2005.3</ele>
        <time>2020-08-08T09:35:13Z</time>
      </trkpt>
      <trkpt lat="45.45261" lon="7.02122">
        <ele>2005.5</ele>
        <time>2020-08-08T09:35:14Z</time>
      </trkpt>
      <trkpt lat="45.4526" lon="7.02135">
        <ele>2005.8</ele>
        <time>2020-08-08T09:35:17Z</time>
      </trkpt>
      <trkpt lat="45.45259" lon="7.02143">
        <ele>2006</ele>
        <time>2020-08-08T09:35:18Z</time>
      </trkpt>
      <trkpt lat="45.45261" lon="7.02153">
        <ele>2006.2</ele>
        <time>2020-08-08T09:35:21Z</time>
      </trkpt>
      <trkpt lat="45.45263" lon="7.02158">
        <ele>2006.4</ele>
        <time>2020-08-08T09:35:22Z</time>
      </trkpt>
      <trkpt lat="45.45263" lon="7.02163">
        <ele>2006.7</ele>
        <time>2020-08-08T09:35:23Z</time>
      </trkpt>
      <trkpt lat="45.45264" lon="7.02169">
        <ele>2006.9</ele>
        <time>2020-08-08T09:35:24Z</time>
      </trkpt>
      <trkpt lat="45.45265" lon="7.02178">
        <ele>2007.4</ele>
        <time>2020-08-08T09:35:27Z</time>
      </trkpt>
      <trkpt lat="45.45266" lon="7.02183">
        <ele>2007.6</ele>
        <time>2020-08-08T09:35:28Z</time>
      </trkpt>
      <trkpt lat="45.45265" lon="7.02187">
        <ele>2007.9</ele>
        <time>2020-08-08T09:35:29Z</time>
      </trkpt>
      <trkpt lat="45.45265" lon="7.02192">
        <ele>2008.1</ele>
        <time>2020-08-08T09:35:30Z</time>
      </trkpt>
      <trkpt lat="45.45265" lon="7.02196">
        <ele>2008.4</ele>
        <time>2020-08-08T09:35:31Z</time>
      </trkpt>
      <trkpt lat="45.45264" lon="7.02209">
        <ele>2009.1</ele>
        <time>2020-08-08T09:35:34Z</time>
      </trkpt>
      <trkpt lat="45.45262" lon="7.02215">
        <ele>2009.4</ele>
        <time>2020-08-08T09:35:36Z</time>
      </trkpt>
      <trkpt lat="45.4526" lon="7.02219">
        <ele>2009.7</ele>
        <time>2020-08-08T09:35:37Z</time>
      </trkpt>
      <trkpt lat="45.45259" lon="7.02223">
        <ele>2009.9</ele>
        <time>2020-08-08T09:35:38Z</time>
      </trkpt>
      <trkpt lat="45.45258" lon="7.02227">
        <ele>2010.2</ele>
        <time>2020-08-08T09:35:39Z</time>
      </trkpt>
      <trkpt lat="45.45256" lon="7.02231">
        <ele>2010.4</ele>
        <time>2020-08-08T09:35:40Z</time>
      </trkpt>
      <trkpt lat="45.45255" lon="7.02235">
        <ele>2010.7</ele>
        <time>2020-08-08T09:35:41Z</time>
      </trkpt>
      <trkpt lat="45.45253" lon="7.02239">
        <ele>2011</ele>
        <time>2020-08-08T09:35:42Z</time>
      </trkpt>
      <trkpt lat="45.45252" lon="7.02243">
        <ele>2011.2</ele>
        <time>2020-08-08T09:35:44Z</time>
      </trkpt>
      <trkpt lat="45.4525" lon="7.02248">
        <ele>2011.6</ele>
        <time>2020-08-08T09:35:45Z</time>
      </trkpt>
      <trkpt lat="45.45248" lon="7.02253">
        <ele>2011.9</ele>
        <time>2020-08-08T09:35:48Z</time>
      </trkpt>
      <trkpt lat="45.45247" lon="7.02257">
        <ele>2012.2</ele>
        <time>2020-08-08T09:35:49Z</time>
      </trkpt>
      <trkpt lat="45.45243" lon="7.02263">
        <ele>2012.7</ele>
        <time>2020-08-08T09:35:51Z</time>
      </trkpt>
      <trkpt lat="45.45239" lon="7.02269">
        <ele>2013.2</ele>
        <time>2020-08-08T09:35:53Z</time>
      </trkpt>
      <trkpt lat="45.45235" lon="7.02273">
        <ele>2013.6</ele>
        <time>2020-08-08T09:35:54Z</time>
      </trkpt>
      <trkpt lat="45.45228" lon="7.02279">
        <ele>2014.3</ele>
        <time>2020-08-08T09:35:56Z</time>
      </trkpt>
      <trkpt lat="45.45223" lon="7.02282">
        <ele>2014.7</ele>
        <time>2020-08-08T09:35:59Z</time>
      </trkpt>
      <trkpt lat="45.45221" lon="7.02282">
        <ele>2015</ele>
        <time>2020-08-08T09:36:00Z</time>
      </trkpt>
      <trkpt lat="45.45218" lon="7.02284">
        <ele>2015.2</ele>
        <time>2020-08-08T09:36:01Z</time>
      </trkpt>
      <trkpt lat="45.45213" lon="7.02286">
        <ele>2015.6</ele>
        <time>2020-08-08T09:36:02Z</time>
      </trkpt>
      <trkpt lat="45.45208" lon="7.02287">
        <ele>2016</ele>
        <time>2020-08-08T09:36:03Z</time>
      </trkpt>
      <trkpt lat="45.45205" lon="7.02288">
        <ele>2016.4</ele>
        <time>2020-08-08T09:36:04Z</time>
      </trkpt>
      <trkpt lat="45.45202" lon="7.02289">
        <ele>2016.6</ele>
        <time>2020-08-08T09:36:05Z</time>
      </trkpt>
      <trkpt lat="45.45195" lon="7.02291">
        <ele>2017.2</ele>
        <time>2020-08-08T09:36:08Z</time>
      </trkpt>
      <trkpt lat="45.45192" lon="7.02292">
        <ele>2017.5</ele>
        <time>2020-08-08T09:36:09Z</time>
      </trkpt>
      <trkpt lat="45.45187" lon="7.02295">
        <ele>2017.9</ele>
        <time>2020-08-08T09:36:12Z</time>
      </trkpt>
      <trkpt lat="45.45185" lon="7.02297">
        <ele>2018.1</ele>
        <time>2020-08-08T09:36:13Z</time>
      </trkpt>
      <trkpt lat="45.45183" lon="7.02298">
        <ele>2018.3</ele>
        <time>2020-08-08T09:36:14Z</time>
      </trkpt>
      <trkpt lat="45.45179" lon="7.02303">
        <ele>2018.7</ele>
        <time>2020-08-08T09:36:16Z</time>
      </trkpt>
      <trkpt lat="45.45174" lon="7.02308">
        <ele>2019.2</ele>
        <time>2020-08-08T09:36:17Z</time>
      </trkpt>
      <trkpt lat="45.45171" lon="7.02313">
        <ele>2019.6</ele>
        <time>2020-08-08T09:36:19Z</time>
      </trkpt>
      <trkpt lat="45.45169" lon="7.02316">
        <ele>2019.8</ele>
        <time>2020-08-08T09:36:20Z</time>
      </trkpt>
      <trkpt lat="45.45166" lon="7.02324">
        <ele>2020.4</ele>
        <time>2020-08-08T09:36:22Z</time>
      </trkpt>
      <trkpt lat="45.45164" lon="7.0233">
        <ele>2020.7</ele>
        <time>2020-08-08T09:36:23Z</time>
      </trkpt>
      <trkpt lat="45.45162" lon="7.02334">
        <ele>2021</ele>
        <time>2020-08-08T09:36:25Z</time>
      </trkpt>
      <trkpt lat="45.45159" lon="7.0234">
        <ele>2021.4</ele>
        <time>2020-08-08T09:36:27Z</time>
      </trkpt>
      <trkpt lat="45.45156" lon="7.02344">
        <ele>2021.8</ele>
        <time>2020-08-08T09:36:28Z</time>
      </trkpt>
      <trkpt lat="45.45155" lon="7.02346">
        <ele>2021.9</ele>
        <time>2020-08-08T09:36:29Z</time>
      </trkpt>
      <trkpt lat="45.45153" lon="7.0235">
        <ele>2022.2</ele>
        <time>2020-08-08T09:36:32Z</time>
      </trkpt>
      <trkpt lat="45.45146" lon="7.0236">
        <ele>2023.1</ele>
        <time>2020-08-08T09:36:34Z</time>
      </trkpt>
      <trkpt lat="45.45145" lon="7.02365">
        <ele>2023.3</ele>
        <time>2020-08-08T09:36:35Z</time>
      </trkpt>
      <trkpt lat="45.45144" lon="7.0237">
        <ele>2023.7</ele>
        <time>2020-08-08T09:36:38Z</time>
      </trkpt>
      <trkpt lat="45.45143" lon="7.02377">
        <ele>2024.1</ele>
        <time>2020-08-08T09:36:40Z</time>
      </trkpt>
      <trkpt lat="45.45142" lon="7.02384">
        <ele>2024.4</ele>
        <time>2020-08-08T09:36:41Z</time>
      </trkpt>
      <trkpt lat="45.45142" lon="7.0239">
        <ele>2024.7</ele>
        <time>2020-08-08T09:36:43Z</time>
      </trkpt>
      <trkpt lat="45.45142" lon="7.02399">
        <ele>2025.1</ele>
        <time>2020-08-08T09:36:45Z</time>
      </trkpt>
      <trkpt lat="45.45142" lon="7.02406">
        <ele>2025.4</ele>
        <time>2020-08-08T09:36:46Z</time>
      </trkpt>
      <trkpt lat="45.45142" lon="7.02411">
        <ele>2025.6</ele>
        <time>2020-08-08T09:36:48Z</time>
      </trkpt>
      <trkpt lat="45.45143" lon="7.02416">
        <ele>2025.8</ele>
        <time>2020-08-08T09:36:49Z</time>
      </trkpt>
      <trkpt lat="45.45145" lon="7.02425">
        <ele>2026.1</ele>
        <time>2020-08-08T09:36:51Z</time>
      </trkpt>
      <trkpt lat="45.45147" lon="7.02436">
        <ele>2026.4</ele>
        <time>2020-08-08T09:36:52Z</time>
      </trkpt>
      <trkpt lat="45.45151" lon="7.02449">
        <ele>2026.6</ele>
        <time>2020-08-08T09:36:54Z</time>
      </trkpt>
      <trkpt lat="45.45155" lon="7.02459">
        <ele>2026.7</ele>
        <time>2020-08-08T09:36:57Z</time>
      </trkpt>
      <trkpt lat="45.4516" lon="7.02472">
        <ele>2026.9</ele>
        <time>2020-08-08T09:36:59Z</time>
      </trkpt>
      <trkpt lat="45.45164" lon="7.02485">
        <ele>2027.1</ele>
        <time>2020-08-08T09:37:01Z</time>
      </trkpt>
      <trkpt lat="45.45167" lon="7.02491">
        <ele>2027.2</ele>
        <time>2020-08-08T09:37:02Z</time>
      </trkpt>
      <trkpt lat="45.45169" lon="7.02497">
        <ele>2027.4</ele>
        <time>2020-08-08T09:37:03Z</time>
      </trkpt>
      <trkpt lat="45.45173" lon="7.02507">
        <ele>2027.6</ele>
        <time>2020-08-08T09:37:05Z</time>
      </trkpt>
      <trkpt lat="45.45175" lon="7.02513">
        <ele>2027.7</ele>
        <time>2020-08-08T09:37:06Z</time>
      </trkpt>
      <trkpt lat="45.45179" lon="7.02525">
        <ele>2027.9</ele>
        <time>2020-08-08T09:37:08Z</time>
      </trkpt>
      <trkpt lat="45.45181" lon="7.02531">
        <ele>2028</ele>
        <time>2020-08-08T09:37:09Z</time>
      </trkpt>
      <trkpt lat="45.45186" lon="7.02544">
        <ele>2028.2</ele>
        <time>2020-08-08T09:37:11Z</time>
      </trkpt>
      <trkpt lat="45.45188" lon="7.0255">
        <ele>2028.2</ele>
        <time>2020-08-08T09:37:12Z</time>
      </trkpt>
      <trkpt lat="45.45191" lon="7.02557">
        <ele>2028.4</ele>
        <time>2020-08-08T09:37:13Z</time>
      </trkpt>
      <trkpt lat="45.45193" lon="7.02564">
        <ele>2028.5</ele>
        <time>2020-08-08T09:37:14Z</time>
      </trkpt>
      <trkpt lat="45.45198" lon="7.02579">
        <ele>2028.8</ele>
        <time>2020-08-08T09:37:16Z</time>
      </trkpt>
      <trkpt lat="45.45203" lon="7.02593">
        <ele>2029.1</ele>
        <time>2020-08-08T09:37:18Z</time>
      </trkpt>
      <trkpt lat="45.45205" lon="7.02599">
        <ele>2029.2</ele>
        <time>2020-08-08T09:37:19Z</time>
      </trkpt>
      <trkpt lat="45.4521" lon="7.02612">
        <ele>2029.5</ele>
        <time>2020-08-08T09:37:21Z</time>
      </trkpt>
      <trkpt lat="45.45215" lon="7.02625">
        <ele>2029.9</ele>
        <time>2020-08-08T09:37:23Z</time>
      </trkpt>
      <trkpt lat="45.45219" lon="7.02637">
        <ele>2030.1</ele>
        <time>2020-08-08T09:37:25Z</time>
      </trkpt>
      <trkpt lat="45.45224" lon="7.02649">
        <ele>2030.4</ele>
        <time>2020-08-08T09:37:27Z</time>
      </trkpt>
      <trkpt lat="45.45229" lon="7.02662">
        <ele>2030.7</ele>
        <time>2020-08-08T09:37:29Z</time>
      </trkpt>
      <trkpt lat="45.45233" lon="7.02674">
        <ele>2030.9</ele>
        <time>2020-08-08T09:37:31Z</time>
      </trkpt>
      <trkpt lat="45.45235" lon="7.02681">
        <ele>2031</ele>
        <time>2020-08-08T09:37:32Z</time>
      </trkpt>
      <trkpt lat="45.4524" lon="7.02694">
        <ele>2031.3</ele>
        <time>2020-08-08T09:37:34Z</time>
      </trkpt>
      <trkpt lat="45.45242" lon="7.02701">
        <ele>2031.4</ele>
        <time>2020-08-08T09:37:35Z</time>
      </trkpt>
      <trkpt lat="45.45244" lon="7.02708">
        <ele>2031.6</ele>
        <time>2020-08-08T09:37:36Z</time>
      </trkpt>
      <trkpt lat="45.45247" lon="7.0272">
        <ele>2031.8</ele>
        <time>2020-08-08T09:37:38Z</time>
      </trkpt>
      <trkpt lat="45.45248" lon="7.02727">
        <ele>2032</ele>
        <time>2020-08-08T09:37:39Z</time>
      </trkpt>
      <trkpt lat="45.45251" lon="7.02741">
        <ele>2032.3</ele>
        <time>2020-08-08T09:37:41Z</time>
      </trkpt>
      <trkpt lat="45.45251" lon="7.02755">
        <ele>2032.6</ele>
        <time>2020-08-08T09:37:43Z</time>
      </trkpt>
      <trkpt lat="45.45252" lon="7.02762">
        <ele>2032.8</ele>
        <time>2020-08-08T09:37:44Z</time>
      </trkpt>
      <trkpt lat="45.45253" lon="7.02775">
        <ele>2033.1</ele>
        <time>2020-08-08T09:37:46Z</time>
      </trkpt>
      <trkpt lat="45.45254" lon="7.02782">
        <ele>2033.3</ele>
        <time>2020-08-08T09:37:47Z</time>
      </trkpt>
      <trkpt lat="45.45255" lon="7.02796">
        <ele>2033.7</ele>
        <time>2020-08-08T09:37:49Z</time>
      </trkpt>
      <trkpt lat="45.45256" lon="7.02809">
        <ele>2034.1</ele>
        <time>2020-08-08T09:37:51Z</time>
      </trkpt>
      <trkpt lat="45.45257" lon="7.02823">
        <ele>2034.5</ele>
        <time>2020-08-08T09:37:53Z</time>
      </trkpt>
      <trkpt lat="45.45259" lon="7.02836">
        <ele>2034.9</ele>
        <time>2020-08-08T09:37:55Z</time>
      </trkpt>
      <trkpt lat="45.4526" lon="7.02842">
        <ele>2035.1</ele>
        <time>2020-08-08T09:37:56Z</time>
      </trkpt>
      <trkpt lat="45.45261" lon="7.02849">
        <ele>2035.3</ele>
        <time>2020-08-08T09:37:57Z</time>
      </trkpt>
      <trkpt lat="45.45263" lon="7.02861">
        <ele>2035.6</ele>
        <time>2020-08-08T09:37:59Z</time>
      </trkpt>
      <trkpt lat="45.45264" lon="7.02867">
        <ele>2035.8</ele>
        <time>2020-08-08T09:38:00Z</time>
      </trkpt>
      <trkpt lat="45.45266" lon="7.02874">
        <ele>2036</ele>
        <time>2020-08-08T09:38:01Z</time>
      </trkpt>
      <trkpt lat="45.45269" lon="7.02883">
        <ele>2036.2</ele>
        <time>2020-08-08T09:38:03Z</time>
      </trkpt>
      <trkpt lat="45.45273" lon="7.02895">
        <ele>2036.5</ele>
        <time>2020-08-08T09:38:05Z</time>
      </trkpt>
      <trkpt lat="45.45277" lon="7.02907">
        <ele>2036.8</ele>
        <time>2020-08-08T09:38:07Z</time>
      </trkpt>
      <trkpt lat="45.45282" lon="7.02917">
        <ele>2037.1</ele>
        <time>2020-08-08T09:38:09Z</time>
      </trkpt>
      <trkpt lat="45.45287" lon="7.0293">
        <ele>2037.4</ele>
        <time>2020-08-08T09:38:11Z</time>
      </trkpt>
      <trkpt lat="45.45289" lon="7.02936">
        <ele>2037.5</ele>
        <time>2020-08-08T09:38:12Z</time>
      </trkpt>
      <trkpt lat="45.45291" lon="7.02942">
        <ele>2037.7</ele>
        <time>2020-08-08T09:38:13Z</time>
      </trkpt>
      <trkpt lat="45.45295" lon="7.02951">
        <ele>2037.9</ele>
        <time>2020-08-08T09:38:14Z</time>
      </trkpt>
      <trkpt lat="45.45299" lon="7.02961">
        <ele>2038.1</ele>
        <time>2020-08-08T09:38:16Z</time>
      </trkpt>
      <trkpt lat="45.45302" lon="7.02969">
        <ele>2038.2</ele>
        <time>2020-08-08T09:38:17Z</time>
      </trkpt>
      <trkpt lat="45.45306" lon="7.02979">
        <ele>2038.5</ele>
        <time>2020-08-08T09:38:20Z</time>
      </trkpt>
      <trkpt lat="45.45305" lon="7.02989">
        <ele>2038.6</ele>
        <time>2020-08-08T09:38:21Z</time>
      </trkpt>
      <trkpt lat="45.4531" lon="7.02997">
        <ele>2038.9</ele>
        <time>2020-08-08T09:38:23Z</time>
      </trkpt>
      <trkpt lat="45.45315" lon="7.03007">
        <ele>2039.1</ele>
        <time>2020-08-08T09:38:25Z</time>
      </trkpt>
      <trkpt lat="45.45321" lon="7.03019">
        <ele>2039.5</ele>
        <time>2020-08-08T09:38:26Z</time>
      </trkpt>
      <trkpt lat="45.45328" lon="7.03035">
        <ele>2040.1</ele>
        <time>2020-08-08T09:38:29Z</time>
      </trkpt>
      <trkpt lat="45.45331" lon="7.03042">
        <ele>2040.3</ele>
        <time>2020-08-08T09:38:32Z</time>
      </trkpt>
      <trkpt lat="45.45336" lon="7.03056">
        <ele>2040.7</ele>
        <time>2020-08-08T09:38:33Z</time>
      </trkpt>
      <trkpt lat="45.45338" lon="7.0306">
        <ele>2040.9</ele>
        <time>2020-08-08T09:38:34Z</time>
      </trkpt>
      <trkpt lat="45.45341" lon="7.03069">
        <ele>2041.2</ele>
        <time>2020-08-08T09:38:36Z</time>
      </trkpt>
      <trkpt lat="45.45344" lon="7.03075">
        <ele>2041.4</ele>
        <time>2020-08-08T09:38:37Z</time>
      </trkpt>
      <trkpt lat="45.45346" lon="7.03081">
        <ele>2041.6</ele>
        <time>2020-08-08T09:38:38Z</time>
      </trkpt>
      <trkpt lat="45.45349" lon="7.03088">
        <ele>2041.8</ele>
        <time>2020-08-08T09:38:41Z</time>
      </trkpt>
      <trkpt lat="45.45351" lon="7.03093">
        <ele>2042</ele>
        <time>2020-08-08T09:38:42Z</time>
      </trkpt>
      <trkpt lat="45.45359" lon="7.03112">
        <ele>2042.5</ele>
        <time>2020-08-08T09:38:44Z</time>
      </trkpt>
      <trkpt lat="45.45362" lon="7.03119">
        <ele>2042.7</ele>
        <time>2020-08-08T09:38:46Z</time>
      </trkpt>
      <trkpt lat="45.45364" lon="7.03126">
        <ele>2042.9</ele>
        <time>2020-08-08T09:38:48Z</time>
      </trkpt>
      <trkpt lat="45.4537" lon="7.03142">
        <ele>2043.3</ele>
        <time>2020-08-08T09:38:50Z</time>
      </trkpt>
      <trkpt lat="45.45377" lon="7.03159">
        <ele>2043.8</ele>
        <time>2020-08-08T09:38:53Z</time>
      </trkpt>
      <trkpt lat="45.45379" lon="7.03166">
        <ele>2043.9</ele>
        <time>2020-08-08T09:38:54Z</time>
      </trkpt>
      <trkpt lat="45.45385" lon="7.03179">
        <ele>2044.3</ele>
        <time>2020-08-08T09:38:57Z</time>
      </trkpt>
      <trkpt lat="45.45388" lon="7.03187">
        <ele>2044.5</ele>
        <time>2020-08-08T09:38:59Z</time>
      </trkpt>
      <trkpt lat="45.45391" lon="7.03193">
        <ele>2044.6</ele>
        <time>2020-08-08T09:39:00Z</time>
      </trkpt>
      <trkpt lat="45.45395" lon="7.03201">
        <ele>2044.8</ele>
        <time>2020-08-08T09:39:02Z</time>
      </trkpt>
      <trkpt lat="45.45398" lon="7.03207">
        <ele>2044.8</ele>
        <time>2020-08-08T09:39:03Z</time>
      </trkpt>
      <trkpt lat="45.45403" lon="7.03219">
        <ele>2044.9</ele>
        <time>2020-08-08T09:39:05Z</time>
      </trkpt>
      <trkpt lat="45.45409" lon="7.03231">
        <ele>2045.1</ele>
        <time>2020-08-08T09:39:07Z</time>
      </trkpt>
      <trkpt lat="45.45412" lon="7.03237">
        <ele>2045.1</ele>
        <time>2020-08-08T09:39:08Z</time>
      </trkpt>
      <trkpt lat="45.45415" lon="7.03243">
        <ele>2045.1</ele>
        <time>2020-08-08T09:39:09Z</time>
      </trkpt>
      <trkpt lat="45.45421" lon="7.03255">
        <ele>2045.3</ele>
        <time>2020-08-08T09:39:11Z</time>
      </trkpt>
      <trkpt lat="45.45424" lon="7.03261">
        <ele>2045.3</ele>
        <time>2020-08-08T09:39:12Z</time>
      </trkpt>
      <trkpt lat="45.45431" lon="7.03274">
        <ele>2045.5</ele>
        <time>2020-08-08T09:39:14Z</time>
      </trkpt>
      <trkpt lat="45.45437" lon="7.03286">
        <ele>2045.7</ele>
        <time>2020-08-08T09:39:16Z</time>
      </trkpt>
      <trkpt lat="45.45443" lon="7.03299">
        <ele>2045.8</ele>
        <time>2020-08-08T09:39:18Z</time>
      </trkpt>
      <trkpt lat="45.45449" lon="7.03312">
        <ele>2045.9</ele>
        <time>2020-08-08T09:39:20Z</time>
      </trkpt>
      <trkpt lat="45.45453" lon="7.03319">
        <ele>2045.9</ele>
        <time>2020-08-08T09:39:21Z</time>
      </trkpt>
      <trkpt lat="45.45459" lon="7.03332">
        <ele>2045.9</ele>
        <time>2020-08-08T09:39:23Z</time>
      </trkpt>
      <trkpt lat="45.45462" lon="7.03338">
        <ele>2046</ele>
        <time>2020-08-08T09:39:24Z</time>
      </trkpt>
      <trkpt lat="45.45467" lon="7.03352">
        <ele>2046.1</ele>
        <time>2020-08-08T09:39:26Z</time>
      </trkpt>
      <trkpt lat="45.45471" lon="7.03367">
        <ele>2046.2</ele>
        <time>2020-08-08T09:39:28Z</time>
      </trkpt>
      <trkpt lat="45.45473" lon="7.03374">
        <ele>2046.2</ele>
        <time>2020-08-08T09:39:29Z</time>
      </trkpt>
      <trkpt lat="45.45476" lon="7.03389">
        <ele>2046.3</ele>
        <time>2020-08-08T09:39:31Z</time>
      </trkpt>
      <trkpt lat="45.45478" lon="7.03397">
        <ele>2046.3</ele>
        <time>2020-08-08T09:39:32Z</time>
      </trkpt>
      <trkpt lat="45.45481" lon="7.03412">
        <ele>2046.4</ele>
        <time>2020-08-08T09:39:34Z</time>
      </trkpt>
      <trkpt lat="45.45484" lon="7.03428">
        <ele>2046.4</ele>
        <time>2020-08-08T09:39:36Z</time>
      </trkpt>
      <trkpt lat="45.45486" lon="7.03436">
        <ele>2046.5</ele>
        <time>2020-08-08T09:39:37Z</time>
      </trkpt>
      <trkpt lat="45.45487" lon="7.03444">
        <ele>2046.5</ele>
        <time>2020-08-08T09:39:38Z</time>
      </trkpt>
      <trkpt lat="45.45491" lon="7.0346">
        <ele>2046.6</ele>
        <time>2020-08-08T09:39:40Z</time>
      </trkpt>
      <trkpt lat="45.45494" lon="7.03475">
        <ele>2046.8</ele>
        <time>2020-08-08T09:39:42Z</time>
      </trkpt>
      <trkpt lat="45.45497" lon="7.0349">
        <ele>2047.1</ele>
        <time>2020-08-08T09:39:44Z</time>
      </trkpt>
      <trkpt lat="45.45498" lon="7.03505">
        <ele>2047.4</ele>
        <time>2020-08-08T09:39:46Z</time>
      </trkpt>
      <trkpt lat="45.45498" lon="7.03512">
        <ele>2047.7</ele>
        <time>2020-08-08T09:39:47Z</time>
      </trkpt>
      <trkpt lat="45.45498" lon="7.0352">
        <ele>2047.9</ele>
        <time>2020-08-08T09:39:48Z</time>
      </trkpt>
      <trkpt lat="45.45497" lon="7.03527">
        <ele>2048.2</ele>
        <time>2020-08-08T09:39:49Z</time>
      </trkpt>
      <trkpt lat="45.45496" lon="7.0354">
        <ele>2048.7</ele>
        <time>2020-08-08T09:39:51Z</time>
      </trkpt>
      <trkpt lat="45.45496" lon="7.03547">
        <ele>2048.9</ele>
        <time>2020-08-08T09:39:52Z</time>
      </trkpt>
      <trkpt lat="45.45496" lon="7.03553">
        <ele>2049.2</ele>
        <time>2020-08-08T09:39:53Z</time>
      </trkpt>
      <trkpt lat="45.45496" lon="7.03559">
        <ele>2049.4</ele>
        <time>2020-08-08T09:39:54Z</time>
      </trkpt>
      <trkpt lat="45.45495" lon="7.0357">
        <ele>2049.8</ele>
        <time>2020-08-08T09:39:56Z</time>
      </trkpt>
      <trkpt lat="45.45494" lon="7.03581">
        <ele>2050.3</ele>
        <time>2020-08-08T09:39:58Z</time>
      </trkpt>
      <trkpt lat="45.4549" lon="7.03597">
        <ele>2051</ele>
        <time>2020-08-08T09:40:00Z</time>
      </trkpt>
      <trkpt lat="45.4549" lon="7.03605">
        <ele>2051.4</ele>
        <time>2020-08-08T09:40:03Z</time>
      </trkpt>
      <trkpt lat="45.4549" lon="7.03617">
        <ele>2051.9</ele>
        <time>2020-08-08T09:40:05Z</time>
      </trkpt>
      <trkpt lat="45.4549" lon="7.0363">
        <ele>2052.4</ele>
        <time>2020-08-08T09:40:06Z</time>
      </trkpt>
      <trkpt lat="45.45489" lon="7.03637">
        <ele>2052.8</ele>
        <time>2020-08-08T09:40:09Z</time>
      </trkpt>
      <trkpt lat="45.45488" lon="7.03641">
        <ele>2053</ele>
        <time>2020-08-08T09:40:10Z</time>
      </trkpt>
      <trkpt lat="45.45484" lon="7.03651">
        <ele>2053.5</ele>
        <time>2020-08-08T09:40:12Z</time>
      </trkpt>
      <trkpt lat="45.45482" lon="7.03655">
        <ele>2053.7</ele>
        <time>2020-08-08T09:40:13Z</time>
      </trkpt>
      <trkpt lat="45.45477" lon="7.03661">
        <ele>2053.7</ele>
        <time>2020-08-08T09:40:14Z</time>
      </trkpt>
      <trkpt lat="45.45471" lon="7.03666">
        <ele>2053.6</ele>
        <time>2020-08-08T09:40:15Z</time>
      </trkpt>
      <trkpt lat="45.45468" lon="7.03667">
        <ele>2053.6</ele>
        <time>2020-08-08T09:40:16Z</time>
      </trkpt>
      <trkpt lat="45.45461" lon="7.03669">
        <ele>2053.4</ele>
        <time>2020-08-08T09:40:18Z</time>
      </trkpt>
      <trkpt lat="45.45456" lon="7.03668">
        <ele>2053.3</ele>
        <time>2020-08-08T09:40:21Z</time>
      </trkpt>
      <trkpt lat="45.45452" lon="7.03668">
        <ele>2053.1</ele>
        <time>2020-08-08T09:40:22Z</time>
      </trkpt>
      <trkpt lat="45.45446" lon="7.03668">
        <ele>2052.8</ele>
        <time>2020-08-08T09:40:23Z</time>
      </trkpt>
      <trkpt lat="45.45438" lon="7.03666">
        <ele>2052.7</ele>
        <time>2020-08-08T09:40:25Z</time>
      </trkpt>
      <trkpt lat="45.45429" lon="7.03664">
        <ele>2052.7</ele>
        <time>2020-08-08T09:40:28Z</time>
      </trkpt>
      <trkpt lat="45.45424" lon="7.03663">
        <ele>2052.7</ele>
        <time>2020-08-08T09:40:29Z</time>
      </trkpt>
      <trkpt lat="45.45419" lon="7.03663">
        <ele>2052.6</ele>
        <time>2020-08-08T09:40:32Z</time>
      </trkpt>
      <trkpt lat="45.45414" lon="7.03661">
        <ele>2052.7</ele>
        <time>2020-08-08T09:40:33Z</time>
      </trkpt>
      <trkpt lat="45.45407" lon="7.03657">
        <ele>2053.1</ele>
        <time>2020-08-08T09:40:35Z</time>
      </trkpt>
      <trkpt lat="45.45404" lon="7.03655">
        <ele>2053.4</ele>
        <time>2020-08-08T09:40:36Z</time>
      </trkpt>
      <trkpt lat="45.45401" lon="7.03653">
        <ele>2053.6</ele>
        <time>2020-08-08T09:40:38Z</time>
      </trkpt>
      <trkpt lat="45.45398" lon="7.03649">
        <ele>2053.8</ele>
        <time>2020-08-08T09:40:40Z</time>
      </trkpt>
      <trkpt lat="45.4539" lon="7.03637">
        <ele>2054.6</ele>
        <time>2020-08-08T09:40:42Z</time>
      </trkpt>
      <trkpt lat="45.45384" lon="7.03628">
        <ele>2055</ele>
        <time>2020-08-08T09:40:45Z</time>
      </trkpt>
      <trkpt lat="45.45382" lon="7.03623">
        <ele>2055.3</ele>
        <time>2020-08-08T09:40:46Z</time>
      </trkpt>
      <trkpt lat="45.45379" lon="7.03618">
        <ele>2055.5</ele>
        <time>2020-08-08T09:40:48Z</time>
      </trkpt>
      <trkpt lat="45.45376" lon="7.03613">
        <ele>2055.8</ele>
        <time>2020-08-08T09:40:50Z</time>
      </trkpt>
      <trkpt lat="45.45371" lon="7.03604">
        <ele>2056.2</ele>
        <time>2020-08-08T09:40:52Z</time>
      </trkpt>
      <trkpt lat="45.45368" lon="7.03599">
        <ele>2056.4</ele>
        <time>2020-08-08T09:40:54Z</time>
      </trkpt>
      <trkpt lat="45.45364" lon="7.0359">
        <ele>2056.9</ele>
        <time>2020-08-08T09:40:56Z</time>
      </trkpt>
      <trkpt lat="45.45361" lon="7.03586">
        <ele>2057.1</ele>
        <time>2020-08-08T09:40:58Z</time>
      </trkpt>
      <trkpt lat="45.45358" lon="7.0358">
        <ele>2057.3</ele>
        <time>2020-08-08T09:40:59Z</time>
      </trkpt>
      <trkpt lat="45.45356" lon="7.03575">
        <ele>2057.6</ele>
        <time>2020-08-08T09:41:01Z</time>
      </trkpt>
      <trkpt lat="45.45353" lon="7.03567">
        <ele>2058</ele>
        <time>2020-08-08T09:41:03Z</time>
      </trkpt>
      <trkpt lat="45.45352" lon="7.03561">
        <ele>2058.2</ele>
        <time>2020-08-08T09:41:04Z</time>
      </trkpt>
      <trkpt lat="45.45351" lon="7.03555">
        <ele>2058.5</ele>
        <time>2020-08-08T09:41:05Z</time>
      </trkpt>
      <trkpt lat="45.4535" lon="7.03544">
        <ele>2058.9</ele>
        <time>2020-08-08T09:41:08Z</time>
      </trkpt>
      <trkpt lat="45.4535" lon="7.0354">
        <ele>2059</ele>
        <time>2020-08-08T09:41:09Z</time>
      </trkpt>
      <trkpt lat="45.45349" lon="7.03535">
        <ele>2059.2</ele>
        <time>2020-08-08T09:41:10Z</time>
      </trkpt>
      <trkpt lat="45.45349" lon="7.03529">
        <ele>2059.4</ele>
        <time>2020-08-08T09:41:12Z</time>
      </trkpt>
      <trkpt lat="45.45346" lon="7.03521">
        <ele>2059.8</ele>
        <time>2020-08-08T09:41:14Z</time>
      </trkpt>
      <trkpt lat="45.45341" lon="7.03514">
        <ele>2060.2</ele>
        <time>2020-08-08T09:41:15Z</time>
      </trkpt>
      <trkpt lat="45.45335" lon="7.03512">
        <ele>2060.6</ele>
        <time>2020-08-08T09:41:16Z</time>
      </trkpt>
      <trkpt lat="45.45329" lon="7.03514">
        <ele>2060.9</ele>
        <time>2020-08-08T09:41:18Z</time>
      </trkpt>
      <trkpt lat="45.45325" lon="7.0352">
        <ele>2061.2</ele>
        <time>2020-08-08T09:41:19Z</time>
      </trkpt>
      <trkpt lat="45.45323" lon="7.03526">
        <ele>2061.4</ele>
        <time>2020-08-08T09:41:22Z</time>
      </trkpt>
      <trkpt lat="45.45322" lon="7.03532">
        <ele>2061.6</ele>
        <time>2020-08-08T09:41:23Z</time>
      </trkpt>
      <trkpt lat="45.45322" lon="7.03544">
        <ele>2061.9</ele>
        <time>2020-08-08T09:41:24Z</time>
      </trkpt>
      <trkpt lat="45.45324" lon="7.03548">
        <ele>2062</ele>
        <time>2020-08-08T09:41:25Z</time>
      </trkpt>
      <trkpt lat="45.45327" lon="7.03554">
        <ele>2062.1</ele>
        <time>2020-08-08T09:41:28Z</time>
      </trkpt>
      <trkpt lat="45.45329" lon="7.03559">
        <ele>2062.3</ele>
        <time>2020-08-08T09:41:29Z</time>
      </trkpt>
      <trkpt lat="45.45336" lon="7.03571">
        <ele>2062.7</ele>
        <time>2020-08-08T09:41:30Z</time>
      </trkpt>
      <trkpt lat="45.45339" lon="7.03578">
        <ele>2063</ele>
        <time>2020-08-08T09:41:32Z</time>
      </trkpt>
      <trkpt lat="45.45343" lon="7.03588">
        <ele>2063.4</ele>
        <time>2020-08-08T09:41:34Z</time>
      </trkpt>
      <trkpt lat="45.45345" lon="7.03596">
        <ele>2063.7</ele>
        <time>2020-08-08T09:41:37Z</time>
      </trkpt>
      <trkpt lat="45.45347" lon="7.03605">
        <ele>2064.2</ele>
        <time>2020-08-08T09:41:38Z</time>
      </trkpt>
      <trkpt lat="45.45348" lon="7.03613">
        <ele>2064.5</ele>
        <time>2020-08-08T09:41:40Z</time>
      </trkpt>
      <trkpt lat="45.45349" lon="7.03621">
        <ele>2064.9</ele>
        <time>2020-08-08T09:41:41Z</time>
      </trkpt>
      <trkpt lat="45.4535" lon="7.03626">
        <ele>2065.2</ele>
        <time>2020-08-08T09:41:43Z</time>
      </trkpt>
      <trkpt lat="45.45352" lon="7.03634">
        <ele>2065.7</ele>
        <time>2020-08-08T09:41:45Z</time>
      </trkpt>
      <trkpt lat="45.45353" lon="7.03638">
        <ele>2065.9</ele>
        <time>2020-08-08T09:41:46Z</time>
      </trkpt>
      <trkpt lat="45.45354" lon="7.03643">
        <ele>2066.2</ele>
        <time>2020-08-08T09:41:47Z</time>
      </trkpt>
      <trkpt lat="45.45355" lon="7.03649">
        <ele>2066.5</ele>
        <time>2020-08-08T09:41:49Z</time>
      </trkpt>
      <trkpt lat="45.45357" lon="7.03661">
        <ele>2067.2</ele>
        <time>2020-08-08T09:41:51Z</time>
      </trkpt>
      <trkpt lat="45.4536" lon="7.03671">
        <ele>2067.9</ele>
        <time>2020-08-08T09:41:54Z</time>
      </trkpt>
      <trkpt lat="45.45361" lon="7.03678">
        <ele>2068.4</ele>
        <time>2020-08-08T09:41:57Z</time>
      </trkpt>
      <trkpt lat="45.45362" lon="7.03682">
        <ele>2068.6</ele>
        <time>2020-08-08T09:41:58Z</time>
      </trkpt>
      <trkpt lat="45.45363" lon="7.03686">
        <ele>2068.9</ele>
        <time>2020-08-08T09:41:59Z</time>
      </trkpt>
      <trkpt lat="45.45364" lon="7.03693">
        <ele>2069.3</ele>
        <time>2020-08-08T09:42:00Z</time>
      </trkpt>
      <trkpt lat="45.45366" lon="7.03704">
        <ele>2070.1</ele>
        <time>2020-08-08T09:42:03Z</time>
      </trkpt>
      <trkpt lat="45.45367" lon="7.0371">
        <ele>2070.4</ele>
        <time>2020-08-08T09:42:04Z</time>
      </trkpt>
      <trkpt lat="45.45368" lon="7.03714">
        <ele>2070.7</ele>
        <time>2020-08-08T09:42:05Z</time>
      </trkpt>
      <trkpt lat="45.45369" lon="7.03719">
        <ele>2071</ele>
        <time>2020-08-08T09:42:06Z</time>
      </trkpt>
      <trkpt lat="45.45371" lon="7.0373">
        <ele>2071.7</ele>
        <time>2020-08-08T09:42:09Z</time>
      </trkpt>
      <trkpt lat="45.45372" lon="7.03734">
        <ele>2071.9</ele>
        <time>2020-08-08T09:42:10Z</time>
      </trkpt>
      <trkpt lat="45.45373" lon="7.03739">
        <ele>2072.2</ele>
        <time>2020-08-08T09:42:13Z</time>
      </trkpt>
      <trkpt lat="45.45374" lon="7.03744">
        <ele>2072.6</ele>
        <time>2020-08-08T09:42:14Z</time>
      </trkpt>
      <trkpt lat="45.45374" lon="7.03749">
        <ele>2072.8</ele>
        <time>2020-08-08T09:42:16Z</time>
      </trkpt>
      <trkpt lat="45.45375" lon="7.03752">
        <ele>2073.1</ele>
        <time>2020-08-08T09:42:17Z</time>
      </trkpt>
      <trkpt lat="45.45376" lon="7.03759">
        <ele>2073.5</ele>
        <time>2020-08-08T09:42:19Z</time>
      </trkpt>
      <trkpt lat="45.45376" lon="7.03766">
        <ele>2073.9</ele>
        <time>2020-08-08T09:42:20Z</time>
      </trkpt>
      <trkpt lat="45.45377" lon="7.03769">
        <ele>2074.1</ele>
        <time>2020-08-08T09:42:21Z</time>
      </trkpt>
      <trkpt lat="45.45377" lon="7.03779">
        <ele>2074.8</ele>
        <time>2020-08-08T09:42:23Z</time>
      </trkpt>
      <trkpt lat="45.45378" lon="7.03787">
        <ele>2075.2</ele>
        <time>2020-08-08T09:42:25Z</time>
      </trkpt>
      <trkpt lat="45.45378" lon="7.03789">
        <ele>2075.4</ele>
        <time>2020-08-08T09:42:27Z</time>
      </trkpt>
      <trkpt lat="45.45378" lon="7.03791">
        <ele>2075.5</ele>
        <time>2020-08-08T09:42:28Z</time>
      </trkpt>
      <trkpt lat="45.45378" lon="7.03797">
        <ele>2075.9</ele>
        <time>2020-08-08T09:42:29Z</time>
      </trkpt>
      <trkpt lat="45.4538" lon="7.03806">
        <ele>2076.4</ele>
        <time>2020-08-08T09:42:31Z</time>
      </trkpt>
      <trkpt lat="45.45381" lon="7.03816">
        <ele>2077.1</ele>
        <time>2020-08-08T09:42:34Z</time>
      </trkpt>
      <trkpt lat="45.45382" lon="7.03826">
        <ele>2077.7</ele>
        <time>2020-08-08T09:42:37Z</time>
      </trkpt>
      <trkpt lat="45.45382" lon="7.03829">
        <ele>2077.9</ele>
        <time>2020-08-08T09:42:38Z</time>
      </trkpt>
      <trkpt lat="45.45382" lon="7.03833">
        <ele>2078.2</ele>
        <time>2020-08-08T09:42:40Z</time>
      </trkpt>
      <trkpt lat="45.45383" lon="7.03841">
        <ele>2078.7</ele>
        <time>2020-08-08T09:42:42Z</time>
      </trkpt>
      <trkpt lat="45.45382" lon="7.03851">
        <ele>2079.3</ele>
        <time>2020-08-08T09:42:44Z</time>
      </trkpt>
      <trkpt lat="45.45382" lon="7.03855">
        <ele>2079.6</ele>
        <time>2020-08-08T09:42:46Z</time>
      </trkpt>
      <trkpt lat="45.45382" lon="7.0386">
        <ele>2079.9</ele>
        <time>2020-08-08T09:42:47Z</time>
      </trkpt>
      <trkpt lat="45.45382" lon="7.03864">
        <ele>2080.2</ele>
        <time>2020-08-08T09:42:49Z</time>
      </trkpt>
      <trkpt lat="45.45381" lon="7.0387">
        <ele>2080.6</ele>
        <time>2020-08-08T09:42:51Z</time>
      </trkpt>
      <trkpt lat="45.45381" lon="7.03876">
        <ele>2080.9</ele>
        <time>2020-08-08T09:42:52Z</time>
      </trkpt>
      <trkpt lat="45.4538" lon="7.03878">
        <ele>2081.1</ele>
        <time>2020-08-08T09:42:53Z</time>
      </trkpt>
      <trkpt lat="45.4538" lon="7.03883">
        <ele>2081.4</ele>
        <time>2020-08-08T09:42:54Z</time>
      </trkpt>
      <trkpt lat="45.45379" lon="7.03893">
        <ele>2082</ele>
        <time>2020-08-08T09:42:57Z</time>
      </trkpt>
      <trkpt lat="45.45378" lon="7.03904">
        <ele>2082.6</ele>
        <time>2020-08-08T09:43:00Z</time>
      </trkpt>
      <trkpt lat="45.45378" lon="7.03908">
        <ele>2082.9</ele>
        <time>2020-08-08T09:43:02Z</time>
      </trkpt>
      <trkpt lat="45.45378" lon="7.03913">
        <ele>2083.1</ele>
        <time>2020-08-08T09:43:04Z</time>
      </trkpt>
      <trkpt lat="45.45378" lon="7.0392">
        <ele>2083.5</ele>
        <time>2020-08-08T09:43:05Z</time>
      </trkpt>
      <trkpt lat="45.45379" lon="7.03925">
        <ele>2083.7</ele>
        <time>2020-08-08T09:43:06Z</time>
      </trkpt>
      <trkpt lat="45.4538" lon="7.03931">
        <ele>2084</ele>
        <time>2020-08-08T09:43:08Z</time>
      </trkpt>
      <trkpt lat="45.45382" lon="7.03935">
        <ele>2084.3</ele>
        <time>2020-08-08T09:43:10Z</time>
      </trkpt>
      <trkpt lat="45.45384" lon="7.0394">
        <ele>2084.5</ele>
        <time>2020-08-08T09:43:11Z</time>
      </trkpt>
      <trkpt lat="45.45387" lon="7.03947">
        <ele>2084.8</ele>
        <time>2020-08-08T09:43:12Z</time>
      </trkpt>
      <trkpt lat="45.45389" lon="7.03952">
        <ele>2085</ele>
        <time>2020-08-08T09:43:14Z</time>
      </trkpt>
      <trkpt lat="45.45393" lon="7.03958">
        <ele>2085.4</ele>
        <time>2020-08-08T09:43:15Z</time>
      </trkpt>
      <trkpt lat="45.45394" lon="7.03971">
        <ele>2085.8</ele>
        <time>2020-08-08T09:43:17Z</time>
      </trkpt>
      <trkpt lat="45.45392" lon="7.03976">
        <ele>2086.1</ele>
        <time>2020-08-08T09:43:18Z</time>
      </trkpt>
      <trkpt lat="45.45388" lon="7.0398">
        <ele>2086.3</ele>
        <time>2020-08-08T09:43:20Z</time>
      </trkpt>
      <trkpt lat="45.45384" lon="7.03981">
        <ele>2086.5</ele>
        <time>2020-08-08T09:43:22Z</time>
      </trkpt>
      <trkpt lat="45.45378" lon="7.03976">
        <ele>2086.9</ele>
        <time>2020-08-08T09:43:23Z</time>
      </trkpt>
      <trkpt lat="45.45374" lon="7.03966">
        <ele>2087.3</ele>
        <time>2020-08-08T09:43:24Z</time>
      </trkpt>
      <trkpt lat="45.45373" lon="7.03959">
        <ele>2087.6</ele>
        <time>2020-08-08T09:43:26Z</time>
      </trkpt>
      <trkpt lat="45.45372" lon="7.03951">
        <ele>2088</ele>
        <time>2020-08-08T09:43:27Z</time>
      </trkpt>
      <trkpt lat="45.45372" lon="7.03944">
        <ele>2088.2</ele>
        <time>2020-08-08T09:43:30Z</time>
      </trkpt>
      <trkpt lat="45.45369" lon="7.03928">
        <ele>2088.9</ele>
        <time>2020-08-08T09:43:32Z</time>
      </trkpt>
      <trkpt lat="45.45368" lon="7.03922">
        <ele>2089.2</ele>
        <time>2020-08-08T09:43:33Z</time>
      </trkpt>
      <trkpt lat="45.45367" lon="7.03916">
        <ele>2089.4</ele>
        <time>2020-08-08T09:43:35Z</time>
      </trkpt>
      <trkpt lat="45.45366" lon="7.03909">
        <ele>2089.7</ele>
        <time>2020-08-08T09:43:37Z</time>
      </trkpt>
      <trkpt lat="45.45363" lon="7.03891">
        <ele>2090.5</ele>
        <time>2020-08-08T09:43:39Z</time>
      </trkpt>
      <trkpt lat="45.45362" lon="7.03884">
        <ele>2090.7</ele>
        <time>2020-08-08T09:43:42Z</time>
      </trkpt>
      <trkpt lat="45.45361" lon="7.03879">
        <ele>2090.9</ele>
        <time>2020-08-08T09:43:43Z</time>
      </trkpt>
      <trkpt lat="45.4536" lon="7.03868">
        <ele>2091.4</ele>
        <time>2020-08-08T09:43:45Z</time>
      </trkpt>
      <trkpt lat="45.45357" lon="7.0386">
        <ele>2091.8</ele>
        <time>2020-08-08T09:43:46Z</time>
      </trkpt>
      <trkpt lat="45.45356" lon="7.03852">
        <ele>2092.2</ele>
        <time>2020-08-08T09:43:48Z</time>
      </trkpt>
      <trkpt lat="45.45355" lon="7.03848">
        <ele>2092.3</ele>
        <time>2020-08-08T09:43:49Z</time>
      </trkpt>
      <trkpt lat="45.45352" lon="7.03838">
        <ele>2092.9</ele>
        <time>2020-08-08T09:43:51Z</time>
      </trkpt>
      <trkpt lat="45.45347" lon="7.03826">
        <ele>2093.5</ele>
        <time>2020-08-08T09:43:54Z</time>
      </trkpt>
      <trkpt lat="45.45346" lon="7.03821">
        <ele>2093.8</ele>
        <time>2020-08-08T09:43:56Z</time>
      </trkpt>
      <trkpt lat="45.45344" lon="7.03816">
        <ele>2094.1</ele>
        <time>2020-08-08T09:43:57Z</time>
      </trkpt>
      <trkpt lat="45.45342" lon="7.03811">
        <ele>2094.4</ele>
        <time>2020-08-08T09:43:59Z</time>
      </trkpt>
      <trkpt lat="45.45338" lon="7.03801">
        <ele>2094.9</ele>
        <time>2020-08-08T09:44:01Z</time>
      </trkpt>
      <trkpt lat="45.45336" lon="7.03796">
        <ele>2095.2</ele>
        <time>2020-08-08T09:44:03Z</time>
      </trkpt>
      <trkpt lat="45.45332" lon="7.03784">
        <ele>2096</ele>
        <time>2020-08-08T09:44:06Z</time>
      </trkpt>
      <trkpt lat="45.4533" lon="7.03779">
        <ele>2096.3</ele>
        <time>2020-08-08T09:44:08Z</time>
      </trkpt>
      <trkpt lat="45.45328" lon="7.03775">
        <ele>2096.6</ele>
        <time>2020-08-08T09:44:09Z</time>
      </trkpt>
      <trkpt lat="45.45325" lon="7.03767">
        <ele>2097.1</ele>
        <time>2020-08-08T09:44:11Z</time>
      </trkpt>
      <trkpt lat="45.45324" lon="7.03763">
        <ele>2097.4</ele>
        <time>2020-08-08T09:44:12Z</time>
      </trkpt>
      <trkpt lat="45.45322" lon="7.03758">
        <ele>2097.7</ele>
        <time>2020-08-08T09:44:13Z</time>
      </trkpt>
      <trkpt lat="45.45321" lon="7.03756">
        <ele>2097.8</ele>
        <time>2020-08-08T09:44:14Z</time>
      </trkpt>
      <trkpt lat="45.4532" lon="7.03751">
        <ele>2098.1</ele>
        <time>2020-08-08T09:44:16Z</time>
      </trkpt>
      <trkpt lat="45.45318" lon="7.03746">
        <ele>2098.5</ele>
        <time>2020-08-08T09:44:17Z</time>
      </trkpt>
      <trkpt lat="45.45316" lon="7.03742">
        <ele>2098.8</ele>
        <time>2020-08-08T09:44:18Z</time>
      </trkpt>
      <trkpt lat="45.45315" lon="7.03741">
        <ele>2098.9</ele>
        <time>2020-08-08T09:44:19Z</time>
      </trkpt>
      <trkpt lat="45.45313" lon="7.03737">
        <ele>2099.2</ele>
        <time>2020-08-08T09:44:20Z</time>
      </trkpt>
      <trkpt lat="45.45312" lon="7.03734">
        <ele>2099.4</ele>
        <time>2020-08-08T09:44:21Z</time>
      </trkpt>
      <trkpt lat="45.4531" lon="7.0373">
        <ele>2099.7</ele>
        <time>2020-08-08T09:44:23Z</time>
      </trkpt>
      <trkpt lat="45.45309" lon="7.03727">
        <ele>2099.9</ele>
        <time>2020-08-08T09:44:24Z</time>
      </trkpt>
      <trkpt lat="45.45306" lon="7.03719">
        <ele>2100.5</ele>
        <time>2020-08-08T09:44:26Z</time>
      </trkpt>
      <trkpt lat="45.45304" lon="7.03712">
        <ele>2101</ele>
        <time>2020-08-08T09:44:28Z</time>
      </trkpt>
      <trkpt lat="45.45303" lon="7.0371">
        <ele>2101.1</ele>
        <time>2020-08-08T09:44:30Z</time>
      </trkpt>
      <trkpt lat="45.45303" lon="7.03708">
        <ele>2101.2</ele>
        <time>2020-08-08T09:44:31Z</time>
      </trkpt>
      <trkpt lat="45.45301" lon="7.03702">
        <ele>2101.6</ele>
        <time>2020-08-08T09:44:33Z</time>
      </trkpt>
      <trkpt lat="45.45296" lon="7.03692">
        <ele>2102.3</ele>
        <time>2020-08-08T09:44:35Z</time>
      </trkpt>
      <trkpt lat="45.45294" lon="7.03687">
        <ele>2102.6</ele>
        <time>2020-08-08T09:44:38Z</time>
      </trkpt>
      <trkpt lat="45.45293" lon="7.03684">
        <ele>2102.8</ele>
        <time>2020-08-08T09:44:39Z</time>
      </trkpt>
      <trkpt lat="45.4529" lon="7.03679">
        <ele>2103.2</ele>
        <time>2020-08-08T09:44:40Z</time>
      </trkpt>
      <trkpt lat="45.45288" lon="7.03673">
        <ele>2103.5</ele>
        <time>2020-08-08T09:44:42Z</time>
      </trkpt>
      <trkpt lat="45.45287" lon="7.03669">
        <ele>2103.8</ele>
        <time>2020-08-08T09:44:44Z</time>
      </trkpt>
      <trkpt lat="45.45285" lon="7.03666">
        <ele>2104</ele>
        <time>2020-08-08T09:44:45Z</time>
      </trkpt>
      <trkpt lat="45.45282" lon="7.0366">
        <ele>2104.4</ele>
        <time>2020-08-08T09:44:47Z</time>
      </trkpt>
      <trkpt lat="45.45278" lon="7.03652">
        <ele>2105</ele>
        <time>2020-08-08T09:44:48Z</time>
      </trkpt>
      <trkpt lat="45.45276" lon="7.03648">
        <ele>2105.2</ele>
        <time>2020-08-08T09:44:51Z</time>
      </trkpt>
      <trkpt lat="45.45273" lon="7.03641">
        <ele>2105.6</ele>
        <time>2020-08-08T09:44:53Z</time>
      </trkpt>
      <trkpt lat="45.45271" lon="7.03636">
        <ele>2105.9</ele>
        <time>2020-08-08T09:44:54Z</time>
      </trkpt>
      <trkpt lat="45.45269" lon="7.03634">
        <ele>2106.1</ele>
        <time>2020-08-08T09:44:55Z</time>
      </trkpt>
      <trkpt lat="45.45266" lon="7.03626">
        <ele>2106.6</ele>
        <time>2020-08-08T09:44:57Z</time>
      </trkpt>
      <trkpt lat="45.45264" lon="7.03622">
        <ele>2106.8</ele>
        <time>2020-08-08T09:44:58Z</time>
      </trkpt>
      <trkpt lat="45.45262" lon="7.03618">
        <ele>2107.1</ele>
        <time>2020-08-08T09:44:59Z</time>
      </trkpt>
      <trkpt lat="45.4526" lon="7.03614">
        <ele>2107.4</ele>
        <time>2020-08-08T09:45:01Z</time>
      </trkpt>
      <trkpt lat="45.45258" lon="7.03609">
        <ele>2107.7</ele>
        <time>2020-08-08T09:45:03Z</time>
      </trkpt>
      <trkpt lat="45.45256" lon="7.03605">
        <ele>2107.9</ele>
        <time>2020-08-08T09:45:04Z</time>
      </trkpt>
      <trkpt lat="45.45254" lon="7.03601">
        <ele>2108.2</ele>
        <time>2020-08-08T09:45:05Z</time>
      </trkpt>
      <trkpt lat="45.4525" lon="7.0359">
        <ele>2108.8</ele>
        <time>2020-08-08T09:45:08Z</time>
      </trkpt>
      <trkpt lat="45.45248" lon="7.03587">
        <ele>2109</ele>
        <time>2020-08-08T09:45:09Z</time>
      </trkpt>
      <trkpt lat="45.45246" lon="7.03584">
        <ele>2109.2</ele>
        <time>2020-08-08T09:45:12Z</time>
      </trkpt>
      <trkpt lat="45.45244" lon="7.0358">
        <ele>2109.4</ele>
        <time>2020-08-08T09:45:13Z</time>
      </trkpt>
      <trkpt lat="45.45242" lon="7.03575">
        <ele>2109.7</ele>
        <time>2020-08-08T09:45:14Z</time>
      </trkpt>
      <trkpt lat="45.45241" lon="7.03572">
        <ele>2109.8</ele>
        <time>2020-08-08T09:45:15Z</time>
      </trkpt>
      <trkpt lat="45.45238" lon="7.03566">
        <ele>2110.2</ele>
        <time>2020-08-08T09:45:16Z</time>
      </trkpt>
      <trkpt lat="45.45236" lon="7.03561">
        <ele>2110.5</ele>
        <time>2020-08-08T09:45:19Z</time>
      </trkpt>
      <trkpt lat="45.45235" lon="7.03557">
        <ele>2110.8</ele>
        <time>2020-08-08T09:45:20Z</time>
      </trkpt>
      <trkpt lat="45.45233" lon="7.03551">
        <ele>2111.1</ele>
        <time>2020-08-08T09:45:21Z</time>
      </trkpt>
      <trkpt lat="45.4523" lon="7.03543">
        <ele>2111.7</ele>
        <time>2020-08-08T09:45:23Z</time>
      </trkpt>
      <trkpt lat="45.45227" lon="7.03535">
        <ele>2112.2</ele>
        <time>2020-08-08T09:45:26Z</time>
      </trkpt>
      <trkpt lat="45.45226" lon="7.03532">
        <ele>2112.4</ele>
        <time>2020-08-08T09:45:27Z</time>
      </trkpt>
      <trkpt lat="45.45225" lon="7.03528">
        <ele>2112.6</ele>
        <time>2020-08-08T09:45:28Z</time>
      </trkpt>
      <trkpt lat="45.45224" lon="7.03524">
        <ele>2112.9</ele>
        <time>2020-08-08T09:45:29Z</time>
      </trkpt>
      <trkpt lat="45.45222" lon="7.03518">
        <ele>2113.3</ele>
        <time>2020-08-08T09:45:31Z</time>
      </trkpt>
      <trkpt lat="45.4522" lon="7.03515">
        <ele>2113.5</ele>
        <time>2020-08-08T09:45:32Z</time>
      </trkpt>
      <trkpt lat="45.45219" lon="7.0351">
        <ele>2113.8</ele>
        <time>2020-08-08T09:45:34Z</time>
      </trkpt>
      <trkpt lat="45.45218" lon="7.03506">
        <ele>2114.1</ele>
        <time>2020-08-08T09:45:36Z</time>
      </trkpt>
      <trkpt lat="45.45214" lon="7.03495">
        <ele>2114.8</ele>
        <time>2020-08-08T09:45:38Z</time>
      </trkpt>
      <trkpt lat="45.45212" lon="7.03491">
        <ele>2115.1</ele>
        <time>2020-08-08T09:45:39Z</time>
      </trkpt>
      <trkpt lat="45.4521" lon="7.03485">
        <ele>2115.5</ele>
        <time>2020-08-08T09:45:41Z</time>
      </trkpt>
      <trkpt lat="45.45209" lon="7.03483">
        <ele>2115.6</ele>
        <time>2020-08-08T09:45:43Z</time>
      </trkpt>
      <trkpt lat="45.45208" lon="7.03481">
        <ele>2115.7</ele>
        <time>2020-08-08T09:45:44Z</time>
      </trkpt>
      <trkpt lat="45.45205" lon="7.03473">
        <ele>2116.2</ele>
        <time>2020-08-08T09:45:45Z</time>
      </trkpt>
      <trkpt lat="45.45203" lon="7.03468">
        <ele>2116.6</ele>
        <time>2020-08-08T09:45:47Z</time>
      </trkpt>
      <trkpt lat="45.452" lon="7.03464">
        <ele>2116.9</ele>
        <time>2020-08-08T09:45:48Z</time>
      </trkpt>
      <trkpt lat="45.45199" lon="7.0346">
        <ele>2117.1</ele>
        <time>2020-08-08T09:45:49Z</time>
      </trkpt>
      <trkpt lat="45.45196" lon="7.03455">
        <ele>2117.5</ele>
        <time>2020-08-08T09:45:51Z</time>
      </trkpt>
      <trkpt lat="45.45194" lon="7.0345">
        <ele>2117.8</ele>
        <time>2020-08-08T09:45:52Z</time>
      </trkpt>
      <trkpt lat="45.45193" lon="7.03447">
        <ele>2118</ele>
        <time>2020-08-08T09:45:53Z</time>
      </trkpt>
      <trkpt lat="45.45191" lon="7.03444">
        <ele>2118.3</ele>
        <time>2020-08-08T09:45:54Z</time>
      </trkpt>
      <trkpt lat="45.45189" lon="7.03442">
        <ele>2118.5</ele>
        <time>2020-08-08T09:45:55Z</time>
      </trkpt>
      <trkpt lat="45.45187" lon="7.03439">
        <ele>2118.7</ele>
        <time>2020-08-08T09:45:56Z</time>
      </trkpt>
      <trkpt lat="45.45184" lon="7.03435">
        <ele>2119</ele>
        <time>2020-08-08T09:45:58Z</time>
      </trkpt>
      <trkpt lat="45.45178" lon="7.03428">
        <ele>2119.7</ele>
        <time>2020-08-08T09:46:00Z</time>
      </trkpt>
      <trkpt lat="45.45174" lon="7.03423">
        <ele>2120.1</ele>
        <time>2020-08-08T09:46:03Z</time>
      </trkpt>
      <trkpt lat="45.45172" lon="7.03421">
        <ele>2120.3</ele>
        <time>2020-08-08T09:46:04Z</time>
      </trkpt>
      <trkpt lat="45.4517" lon="7.03419">
        <ele>2120.5</ele>
        <time>2020-08-08T09:46:05Z</time>
      </trkpt>
      <trkpt lat="45.45168" lon="7.03416">
        <ele>2120.8</ele>
        <time>2020-08-08T09:46:06Z</time>
      </trkpt>
      <trkpt lat="45.45165" lon="7.03413">
        <ele>2121</ele>
        <time>2020-08-08T09:46:07Z</time>
      </trkpt>
      <trkpt lat="45.45163" lon="7.03411">
        <ele>2121.2</ele>
        <time>2020-08-08T09:46:08Z</time>
      </trkpt>
      <trkpt lat="45.45161" lon="7.03407">
        <ele>2121.5</ele>
        <time>2020-08-08T09:46:10Z</time>
      </trkpt>
      <trkpt lat="45.45158" lon="7.03401">
        <ele>2121.9</ele>
        <time>2020-08-08T09:46:12Z</time>
      </trkpt>
      <trkpt lat="45.45156" lon="7.03398">
        <ele>2122.1</ele>
        <time>2020-08-08T09:46:13Z</time>
      </trkpt>
      <trkpt lat="45.45154" lon="7.03394">
        <ele>2122.3</ele>
        <time>2020-08-08T09:46:14Z</time>
      </trkpt>
      <trkpt lat="45.45152" lon="7.03388">
        <ele>2122.7</ele>
        <time>2020-08-08T09:46:17Z</time>
      </trkpt>
      <trkpt lat="45.45152" lon="7.03386">
        <ele>2122.8</ele>
        <time>2020-08-08T09:46:18Z</time>
      </trkpt>
      <trkpt lat="45.45151" lon="7.03383">
        <ele>2122.9</ele>
        <time>2020-08-08T09:46:19Z</time>
      </trkpt>
      <trkpt lat="45.45149" lon="7.03376">
        <ele>2123.3</ele>
        <time>2020-08-08T09:46:20Z</time>
      </trkpt>
      <trkpt lat="45.45146" lon="7.0337">
        <ele>2123.6</ele>
        <time>2020-08-08T09:46:23Z</time>
      </trkpt>
      <trkpt lat="45.45145" lon="7.03364">
        <ele>2123.9</ele>
        <time>2020-08-08T09:46:24Z</time>
      </trkpt>
      <trkpt lat="45.45143" lon="7.0336">
        <ele>2124.2</ele>
        <time>2020-08-08T09:46:25Z</time>
      </trkpt>
      <trkpt lat="45.45141" lon="7.03355">
        <ele>2124.5</ele>
        <time>2020-08-08T09:46:27Z</time>
      </trkpt>
      <trkpt lat="45.45139" lon="7.03348">
        <ele>2124.9</ele>
        <time>2020-08-08T09:46:29Z</time>
      </trkpt>
      <trkpt lat="45.45138" lon="7.03344">
        <ele>2125.1</ele>
        <time>2020-08-08T09:46:30Z</time>
      </trkpt>
      <trkpt lat="45.45137" lon="7.03341">
        <ele>2125.2</ele>
        <time>2020-08-08T09:46:31Z</time>
      </trkpt>
      <trkpt lat="45.45135" lon="7.03335">
        <ele>2125.6</ele>
        <time>2020-08-08T09:46:33Z</time>
      </trkpt>
      <trkpt lat="45.45133" lon="7.03331">
        <ele>2125.8</ele>
        <time>2020-08-08T09:46:35Z</time>
      </trkpt>
      <trkpt lat="45.45132" lon="7.03324">
        <ele>2126.2</ele>
        <time>2020-08-08T09:46:37Z</time>
      </trkpt>
      <trkpt lat="45.4513" lon="7.0332">
        <ele>2126.4</ele>
        <time>2020-08-08T09:46:38Z</time>
      </trkpt>
      <trkpt lat="45.45128" lon="7.03314">
        <ele>2126.7</ele>
        <time>2020-08-08T09:46:39Z</time>
      </trkpt>
      <trkpt lat="45.45125" lon="7.03305">
        <ele>2127.3</ele>
        <time>2020-08-08T09:46:41Z</time>
      </trkpt>
      <trkpt lat="45.45124" lon="7.033">
        <ele>2127.6</ele>
        <time>2020-08-08T09:46:44Z</time>
      </trkpt>
      <trkpt lat="45.45122" lon="7.03293">
        <ele>2127.9</ele>
        <time>2020-08-08T09:46:45Z</time>
      </trkpt>
      <trkpt lat="45.4512" lon="7.03288">
        <ele>2128.2</ele>
        <time>2020-08-08T09:46:46Z</time>
      </trkpt>
      <trkpt lat="45.45118" lon="7.03284">
        <ele>2128.5</ele>
        <time>2020-08-08T09:46:49Z</time>
      </trkpt>
      <trkpt lat="45.45117" lon="7.0328">
        <ele>2128.7</ele>
        <time>2020-08-08T09:46:50Z</time>
      </trkpt>
      <trkpt lat="45.45114" lon="7.03272">
        <ele>2129.1</ele>
        <time>2020-08-08T09:46:51Z</time>
      </trkpt>
      <trkpt lat="45.45112" lon="7.03267">
        <ele>2129.4</ele>
        <time>2020-08-08T09:46:53Z</time>
      </trkpt>
      <trkpt lat="45.45108" lon="7.03257">
        <ele>2129.9</ele>
        <time>2020-08-08T09:46:55Z</time>
      </trkpt>
      <trkpt lat="45.45106" lon="7.03252">
        <ele>2130.2</ele>
        <time>2020-08-08T09:46:57Z</time>
      </trkpt>
      <trkpt lat="45.45105" lon="7.03247">
        <ele>2130.5</ele>
        <time>2020-08-08T09:46:58Z</time>
      </trkpt>
      <trkpt lat="45.45104" lon="7.03242">
        <ele>2130.7</ele>
        <time>2020-08-08T09:47:00Z</time>
      </trkpt>
      <trkpt lat="45.45102" lon="7.03236">
        <ele>2131.1</ele>
        <time>2020-08-08T09:47:02Z</time>
      </trkpt>
      <trkpt lat="45.45098" lon="7.03228">
        <ele>2131.5</ele>
        <time>2020-08-08T09:47:04Z</time>
      </trkpt>
      <trkpt lat="45.45097" lon="7.03223">
        <ele>2131.8</ele>
        <time>2020-08-08T09:47:06Z</time>
      </trkpt>
      <trkpt lat="45.45094" lon="7.03214">
        <ele>2132.3</ele>
        <time>2020-08-08T09:47:08Z</time>
      </trkpt>
      <trkpt lat="45.45092" lon="7.03209">
        <ele>2132.6</ele>
        <time>2020-08-08T09:47:09Z</time>
      </trkpt>
      <trkpt lat="45.45091" lon="7.03206">
        <ele>2132.8</ele>
        <time>2020-08-08T09:47:10Z</time>
      </trkpt>
      <trkpt lat="45.45086" lon="7.03196">
        <ele>2133.4</ele>
        <time>2020-08-08T09:47:13Z</time>
      </trkpt>
      <trkpt lat="45.45084" lon="7.03191">
        <ele>2133.7</ele>
        <time>2020-08-08T09:47:16Z</time>
      </trkpt>
      <trkpt lat="45.45082" lon="7.03187">
        <ele>2133.9</ele>
        <time>2020-08-08T09:47:17Z</time>
      </trkpt>
      <trkpt lat="45.45078" lon="7.03178">
        <ele>2134.5</ele>
        <time>2020-08-08T09:47:19Z</time>
      </trkpt>
      <trkpt lat="45.45073" lon="7.03168">
        <ele>2135.1</ele>
        <time>2020-08-08T09:47:22Z</time>
      </trkpt>
      <trkpt lat="45.45068" lon="7.03158">
        <ele>2135.7</ele>
        <time>2020-08-08T09:47:25Z</time>
      </trkpt>
      <trkpt lat="45.45066" lon="7.03153">
        <ele>2136</ele>
        <time>2020-08-08T09:47:26Z</time>
      </trkpt>
      <trkpt lat="45.45065" lon="7.03152">
        <ele>2136</ele>
        <time>2020-08-08T09:47:27Z</time>
      </trkpt>
      <trkpt lat="45.45062" lon="7.03142">
        <ele>2136.6</ele>
        <time>2020-08-08T09:47:30Z</time>
      </trkpt>
      <trkpt lat="45.45061" lon="7.03139">
        <ele>2136.7</ele>
        <time>2020-08-08T09:47:31Z</time>
      </trkpt>
      <trkpt lat="45.4506" lon="7.03134">
        <ele>2137</ele>
        <time>2020-08-08T09:47:33Z</time>
      </trkpt>
      <trkpt lat="45.45058" lon="7.03128">
        <ele>2137.3</ele>
        <time>2020-08-08T09:47:35Z</time>
      </trkpt>
      <trkpt lat="45.45056" lon="7.03118">
        <ele>2137.8</ele>
        <time>2020-08-08T09:47:37Z</time>
      </trkpt>
      <trkpt lat="45.45052" lon="7.03107">
        <ele>2138.4</ele>
        <time>2020-08-08T09:47:40Z</time>
      </trkpt>
      <trkpt lat="45.45051" lon="7.03101">
        <ele>2138.6</ele>
        <time>2020-08-08T09:47:42Z</time>
      </trkpt>
      <trkpt lat="45.45048" lon="7.03092">
        <ele>2139.1</ele>
        <time>2020-08-08T09:47:44Z</time>
      </trkpt>
      <trkpt lat="45.45045" lon="7.03082">
        <ele>2139.6</ele>
        <time>2020-08-08T09:47:47Z</time>
      </trkpt>
      <trkpt lat="45.45045" lon="7.03079">
        <ele>2139.8</ele>
        <time>2020-08-08T09:47:48Z</time>
      </trkpt>
      <trkpt lat="45.45043" lon="7.03075">
        <ele>2140</ele>
        <time>2020-08-08T09:47:49Z</time>
      </trkpt>
      <trkpt lat="45.45042" lon="7.0307">
        <ele>2140.2</ele>
        <time>2020-08-08T09:47:50Z</time>
      </trkpt>
      <trkpt lat="45.45036" lon="7.03059">
        <ele>2140.8</ele>
        <time>2020-08-08T09:47:53Z</time>
      </trkpt>
      <trkpt lat="45.45033" lon="7.03055">
        <ele>2141</ele>
        <time>2020-08-08T09:47:55Z</time>
      </trkpt>
      <trkpt lat="45.4503" lon="7.03051">
        <ele>2141.3</ele>
        <time>2020-08-08T09:47:56Z</time>
      </trkpt>
      <trkpt lat="45.45026" lon="7.03047">
        <ele>2141.5</ele>
        <time>2020-08-08T09:47:59Z</time>
      </trkpt>
      <trkpt lat="45.45021" lon="7.03042">
        <ele>2141.8</ele>
        <time>2020-08-08T09:48:01Z</time>
      </trkpt>
      <trkpt lat="45.45016" lon="7.03033">
        <ele>2142.2</ele>
        <time>2020-08-08T09:48:02Z</time>
      </trkpt>
      <trkpt lat="45.45013" lon="7.03029">
        <ele>2142.5</ele>
        <time>2020-08-08T09:48:05Z</time>
      </trkpt>
      <trkpt lat="45.45011" lon="7.03026">
        <ele>2142.6</ele>
        <time>2020-08-08T09:48:06Z</time>
      </trkpt>
      <trkpt lat="45.45007" lon="7.03019">
        <ele>2142.9</ele>
        <time>2020-08-08T09:48:07Z</time>
      </trkpt>
      <trkpt lat="45.45004" lon="7.03013">
        <ele>2143.2</ele>
        <time>2020-08-08T09:48:08Z</time>
      </trkpt>
      <trkpt lat="45.45" lon="7.03007">
        <ele>2143.5</ele>
        <time>2020-08-08T09:48:10Z</time>
      </trkpt>
      <trkpt lat="45.44997" lon="7.03">
        <ele>2143.9</ele>
        <time>2020-08-08T09:48:12Z</time>
      </trkpt>
      <trkpt lat="45.44995" lon="7.02997">
        <ele>2144</ele>
        <time>2020-08-08T09:48:13Z</time>
      </trkpt>
      <trkpt lat="45.44993" lon="7.02992">
        <ele>2144.3</ele>
        <time>2020-08-08T09:48:15Z</time>
      </trkpt>
      <trkpt lat="45.44991" lon="7.02988">
        <ele>2144.5</ele>
        <time>2020-08-08T09:48:16Z</time>
      </trkpt>
      <trkpt lat="45.44989" lon="7.02983">
        <ele>2144.6</ele>
        <time>2020-08-08T09:48:17Z</time>
      </trkpt>
      <trkpt lat="45.44986" lon="7.02974">
        <ele>2145</ele>
        <time>2020-08-08T09:48:18Z</time>
      </trkpt>
      <trkpt lat="45.44985" lon="7.02968">
        <ele>2145.2</ele>
        <time>2020-08-08T09:48:19Z</time>
      </trkpt>
      <trkpt lat="45.44982" lon="7.02961">
        <ele>2145.5</ele>
        <time>2020-08-08T09:48:22Z</time>
      </trkpt>
      <trkpt lat="45.44979" lon="7.02948">
        <ele>2145.9</ele>
        <time>2020-08-08T09:48:23Z</time>
      </trkpt>
      <trkpt lat="45.44976" lon="7.02936">
        <ele>2146.4</ele>
        <time>2020-08-08T09:48:26Z</time>
      </trkpt>
      <trkpt lat="45.44974" lon="7.0293">
        <ele>2146.6</ele>
        <time>2020-08-08T09:48:27Z</time>
      </trkpt>
      <trkpt lat="45.44972" lon="7.02923">
        <ele>2146.9</ele>
        <time>2020-08-08T09:48:30Z</time>
      </trkpt>
      <trkpt lat="45.44971" lon="7.02919">
        <ele>2147.1</ele>
        <time>2020-08-08T09:48:31Z</time>
      </trkpt>
      <trkpt lat="45.44968" lon="7.0291">
        <ele>2147.5</ele>
        <time>2020-08-08T09:48:32Z</time>
      </trkpt>
      <trkpt lat="45.44967" lon="7.02905">
        <ele>2147.7</ele>
        <time>2020-08-08T09:48:33Z</time>
      </trkpt>
      <trkpt lat="45.44965" lon="7.029">
        <ele>2148</ele>
        <time>2020-08-08T09:48:34Z</time>
      </trkpt>
      <trkpt lat="45.44963" lon="7.02894">
        <ele>2148.2</ele>
        <time>2020-08-08T09:48:36Z</time>
      </trkpt>
      <trkpt lat="45.44962" lon="7.0289">
        <ele>2148.4</ele>
        <time>2020-08-08T09:48:38Z</time>
      </trkpt>
      <trkpt lat="45.44959" lon="7.02881">
        <ele>2148.8</ele>
        <time>2020-08-08T09:48:40Z</time>
      </trkpt>
      <trkpt lat="45.44956" lon="7.02871">
        <ele>2149.3</ele>
        <time>2020-08-08T09:48:41Z</time>
      </trkpt>
      <trkpt lat="45.44954" lon="7.02865">
        <ele>2149.6</ele>
        <time>2020-08-08T09:48:44Z</time>
      </trkpt>
      <trkpt lat="45.44952" lon="7.02861">
        <ele>2149.8</ele>
        <time>2020-08-08T09:48:45Z</time>
      </trkpt>
      <trkpt lat="45.44949" lon="7.02851">
        <ele>2150.4</ele>
        <time>2020-08-08T09:48:46Z</time>
      </trkpt>
      <trkpt lat="45.44947" lon="7.02847">
        <ele>2150.6</ele>
        <time>2020-08-08T09:48:47Z</time>
      </trkpt>
      <trkpt lat="45.44945" lon="7.02842">
        <ele>2150.9</ele>
        <time>2020-08-08T09:48:49Z</time>
      </trkpt>
      <trkpt lat="45.44942" lon="7.02833">
        <ele>2151.5</ele>
        <time>2020-08-08T09:48:51Z</time>
      </trkpt>
      <trkpt lat="45.4494" lon="7.02828">
        <ele>2151.8</ele>
        <time>2020-08-08T09:48:53Z</time>
      </trkpt>
      <trkpt lat="45.44936" lon="7.02819">
        <ele>2152.4</ele>
        <time>2020-08-08T09:48:55Z</time>
      </trkpt>
      <trkpt lat="45.44932" lon="7.02811">
        <ele>2152.9</ele>
        <time>2020-08-08T09:48:58Z</time>
      </trkpt>
      <trkpt lat="45.4493" lon="7.02807">
        <ele>2153.2</ele>
        <time>2020-08-08T09:48:59Z</time>
      </trkpt>
      <trkpt lat="45.44926" lon="7.02798">
        <ele>2153.8</ele>
        <time>2020-08-08T09:49:02Z</time>
      </trkpt>
      <trkpt lat="45.44925" lon="7.02795">
        <ele>2154</ele>
        <time>2020-08-08T09:49:03Z</time>
      </trkpt>
      <trkpt lat="45.44923" lon="7.02791">
        <ele>2154.2</ele>
        <time>2020-08-08T09:49:04Z</time>
      </trkpt>
      <trkpt lat="45.44921" lon="7.02785">
        <ele>2154.6</ele>
        <time>2020-08-08T09:49:06Z</time>
      </trkpt>
      <trkpt lat="45.4492" lon="7.02781">
        <ele>2154.8</ele>
        <time>2020-08-08T09:49:07Z</time>
      </trkpt>
      <trkpt lat="45.44918" lon="7.02778">
        <ele>2155</ele>
        <time>2020-08-08T09:49:08Z</time>
      </trkpt>
      <trkpt lat="45.44917" lon="7.02775">
        <ele>2155.2</ele>
        <time>2020-08-08T09:49:09Z</time>
      </trkpt>
      <trkpt lat="45.44915" lon="7.02772">
        <ele>2155.4</ele>
        <time>2020-08-08T09:49:10Z</time>
      </trkpt>
      <trkpt lat="45.44914" lon="7.02767">
        <ele>2155.7</ele>
        <time>2020-08-08T09:49:11Z</time>
      </trkpt>
      <trkpt lat="45.44913" lon="7.02765">
        <ele>2155.8</ele>
        <time>2020-08-08T09:49:12Z</time>
      </trkpt>
      <trkpt lat="45.44911" lon="7.0276">
        <ele>2156.1</ele>
        <time>2020-08-08T09:49:13Z</time>
      </trkpt>
      <trkpt lat="45.4491" lon="7.02755">
        <ele>2156.4</ele>
        <time>2020-08-08T09:49:15Z</time>
      </trkpt>
      <trkpt lat="45.44909" lon="7.02751">
        <ele>2156.6</ele>
        <time>2020-08-08T09:49:16Z</time>
      </trkpt>
      <trkpt lat="45.44906" lon="7.02745">
        <ele>2157</ele>
        <time>2020-08-08T09:49:18Z</time>
      </trkpt>
      <trkpt lat="45.44905" lon="7.02741">
        <ele>2157.2</ele>
        <time>2020-08-08T09:49:19Z</time>
      </trkpt>
      <trkpt lat="45.44904" lon="7.02734">
        <ele>2157.6</ele>
        <time>2020-08-08T09:49:21Z</time>
      </trkpt>
      <trkpt lat="45.44903" lon="7.0273">
        <ele>2157.8</ele>
        <time>2020-08-08T09:49:22Z</time>
      </trkpt>
      <trkpt lat="45.44903" lon="7.02726">
        <ele>2158</ele>
        <time>2020-08-08T09:49:23Z</time>
      </trkpt>
      <trkpt lat="45.44902" lon="7.02721">
        <ele>2158.3</ele>
        <time>2020-08-08T09:49:24Z</time>
      </trkpt>
      <trkpt lat="45.44901" lon="7.02719">
        <ele>2158.4</ele>
        <time>2020-08-08T09:49:25Z</time>
      </trkpt>
      <trkpt lat="45.44901" lon="7.02715">
        <ele>2158.6</ele>
        <time>2020-08-08T09:49:26Z</time>
      </trkpt>
      <trkpt lat="45.449" lon="7.02711">
        <ele>2158.8</ele>
        <time>2020-08-08T09:49:28Z</time>
      </trkpt>
      <trkpt lat="45.44899" lon="7.02705">
        <ele>2159.2</ele>
        <time>2020-08-08T09:49:29Z</time>
      </trkpt>
      <trkpt lat="45.44897" lon="7.02698">
        <ele>2159.6</ele>
        <time>2020-08-08T09:49:30Z</time>
      </trkpt>
      <trkpt lat="45.44896" lon="7.02696">
        <ele>2159.7</ele>
        <time>2020-08-08T09:49:31Z</time>
      </trkpt>
      <trkpt lat="45.44895" lon="7.02692">
        <ele>2159.9</ele>
        <time>2020-08-08T09:49:32Z</time>
      </trkpt>
      <trkpt lat="45.44894" lon="7.02686">
        <ele>2160.3</ele>
        <time>2020-08-08T09:49:34Z</time>
      </trkpt>
      <trkpt lat="45.44891" lon="7.02678">
        <ele>2160.8</ele>
        <time>2020-08-08T09:49:36Z</time>
      </trkpt>
      <trkpt lat="45.4489" lon="7.02674">
        <ele>2161</ele>
        <time>2020-08-08T09:49:37Z</time>
      </trkpt>
      <trkpt lat="45.44888" lon="7.02669">
        <ele>2161.3</ele>
        <time>2020-08-08T09:49:38Z</time>
      </trkpt>
      <trkpt lat="45.44887" lon="7.02666">
        <ele>2161.5</ele>
        <time>2020-08-08T09:49:39Z</time>
      </trkpt>
      <trkpt lat="45.44886" lon="7.02661">
        <ele>2161.8</ele>
        <time>2020-08-08T09:49:42Z</time>
      </trkpt>
      <trkpt lat="45.44883" lon="7.02649">
        <ele>2162.5</ele>
        <time>2020-08-08T09:49:44Z</time>
      </trkpt>
      <trkpt lat="45.44881" lon="7.02639">
        <ele>2163.1</ele>
        <time>2020-08-08T09:49:47Z</time>
      </trkpt>
      <trkpt lat="45.4488" lon="7.02635">
        <ele>2163.3</ele>
        <time>2020-08-08T09:49:48Z</time>
      </trkpt>
      <trkpt lat="45.44878" lon="7.02627">
        <ele>2163.8</ele>
        <time>2020-08-08T09:49:50Z</time>
      </trkpt>
      <trkpt lat="45.44877" lon="7.02625">
        <ele>2163.9</ele>
        <time>2020-08-08T09:49:52Z</time>
      </trkpt>
      <trkpt lat="45.44876" lon="7.02622">
        <ele>2164.1</ele>
        <time>2020-08-08T09:49:53Z</time>
      </trkpt>
      <trkpt lat="45.44875" lon="7.02619">
        <ele>2164.3</ele>
        <time>2020-08-08T09:49:54Z</time>
      </trkpt>
      <trkpt lat="45.44874" lon="7.02615">
        <ele>2164.5</ele>
        <time>2020-08-08T09:49:56Z</time>
      </trkpt>
      <trkpt lat="45.44872" lon="7.02608">
        <ele>2164.9</ele>
        <time>2020-08-08T09:49:57Z</time>
      </trkpt>
      <trkpt lat="45.44872" lon="7.02605">
        <ele>2165.1</ele>
        <time>2020-08-08T09:49:58Z</time>
      </trkpt>
      <trkpt lat="45.44871" lon="7.02601">
        <ele>2165.3</ele>
        <time>2020-08-08T09:50:00Z</time>
      </trkpt>
      <trkpt lat="45.44869" lon="7.02595">
        <ele>2165.6</ele>
        <time>2020-08-08T09:50:01Z</time>
      </trkpt>
      <trkpt lat="45.44866" lon="7.02586">
        <ele>2166</ele>
        <time>2020-08-08T09:50:03Z</time>
      </trkpt>
      <trkpt lat="45.44864" lon="7.02578">
        <ele>2166.5</ele>
        <time>2020-08-08T09:50:06Z</time>
      </trkpt>
      <trkpt lat="45.44863" lon="7.02575">
        <ele>2166.6</ele>
        <time>2020-08-08T09:50:07Z</time>
      </trkpt>
      <trkpt lat="45.44861" lon="7.0257">
        <ele>2166.9</ele>
        <time>2020-08-08T09:50:09Z</time>
      </trkpt>
      <trkpt lat="45.44858" lon="7.02561">
        <ele>2167.3</ele>
        <time>2020-08-08T09:50:11Z</time>
      </trkpt>
      <trkpt lat="45.44857" lon="7.02557">
        <ele>2167.6</ele>
        <time>2020-08-08T09:50:12Z</time>
      </trkpt>
      <trkpt lat="45.44855" lon="7.02553">
        <ele>2167.8</ele>
        <time>2020-08-08T09:50:14Z</time>
      </trkpt>
      <trkpt lat="45.44854" lon="7.02548">
        <ele>2168.1</ele>
        <time>2020-08-08T09:50:16Z</time>
      </trkpt>
      <trkpt lat="45.44852" lon="7.02542">
        <ele>2168.5</ele>
        <time>2020-08-08T09:50:17Z</time>
      </trkpt>
      <trkpt lat="45.4485" lon="7.02536">
        <ele>2168.8</ele>
        <time>2020-08-08T09:50:19Z</time>
      </trkpt>
      <trkpt lat="45.4485" lon="7.02534">
        <ele>2169</ele>
        <time>2020-08-08T09:50:20Z</time>
      </trkpt>
      <trkpt lat="45.44847" lon="7.02525">
        <ele>2169.5</ele>
        <time>2020-08-08T09:50:22Z</time>
      </trkpt>
      <trkpt lat="45.44846" lon="7.02521">
        <ele>2169.7</ele>
        <time>2020-08-08T09:50:24Z</time>
      </trkpt>
      <trkpt lat="45.44843" lon="7.02512">
        <ele>2170.2</ele>
        <time>2020-08-08T09:50:26Z</time>
      </trkpt>
      <trkpt lat="45.44841" lon="7.02506">
        <ele>2170.5</ele>
        <time>2020-08-08T09:50:28Z</time>
      </trkpt>
      <trkpt lat="45.44839" lon="7.02501">
        <ele>2170.9</ele>
        <time>2020-08-08T09:50:30Z</time>
      </trkpt>
      <trkpt lat="45.44836" lon="7.02492">
        <ele>2171.4</ele>
        <time>2020-08-08T09:50:32Z</time>
      </trkpt>
      <trkpt lat="45.44835" lon="7.02488">
        <ele>2171.6</ele>
        <time>2020-08-08T09:50:34Z</time>
      </trkpt>
      <trkpt lat="45.44833" lon="7.02485">
        <ele>2171.7</ele>
        <time>2020-08-08T09:50:36Z</time>
      </trkpt>
      <trkpt lat="45.4483" lon="7.02479">
        <ele>2172.1</ele>
        <time>2020-08-08T09:50:38Z</time>
      </trkpt>
      <trkpt lat="45.44827" lon="7.02473">
        <ele>2172.5</ele>
        <time>2020-08-08T09:50:39Z</time>
      </trkpt>
      <trkpt lat="45.44825" lon="7.0247">
        <ele>2172.7</ele>
        <time>2020-08-08T09:50:40Z</time>
      </trkpt>
      <trkpt lat="45.44822" lon="7.02465">
        <ele>2173.1</ele>
        <time>2020-08-08T09:50:42Z</time>
      </trkpt>
      <trkpt lat="45.44819" lon="7.02461">
        <ele>2173.4</ele>
        <time>2020-08-08T09:50:43Z</time>
      </trkpt>
      <trkpt lat="45.44817" lon="7.02458">
        <ele>2173.6</ele>
        <time>2020-08-08T09:50:45Z</time>
      </trkpt>
      <trkpt lat="45.44814" lon="7.02454">
        <ele>2174</ele>
        <time>2020-08-08T09:50:46Z</time>
      </trkpt>
      <trkpt lat="45.44811" lon="7.02449">
        <ele>2174.3</ele>
        <time>2020-08-08T09:50:49Z</time>
      </trkpt>
      <trkpt lat="45.44808" lon="7.02445">
        <ele>2174.7</ele>
        <time>2020-08-08T09:50:50Z</time>
      </trkpt>
      <trkpt lat="45.44806" lon="7.02441">
        <ele>2175</ele>
        <time>2020-08-08T09:50:52Z</time>
      </trkpt>
      <trkpt lat="45.44803" lon="7.02436">
        <ele>2175.4</ele>
        <time>2020-08-08T09:50:53Z</time>
      </trkpt>
      <trkpt lat="45.44801" lon="7.02432">
        <ele>2175.6</ele>
        <time>2020-08-08T09:50:54Z</time>
      </trkpt>
      <trkpt lat="45.44799" lon="7.02426">
        <ele>2176</ele>
        <time>2020-08-08T09:50:55Z</time>
      </trkpt>
      <trkpt lat="45.44798" lon="7.02423">
        <ele>2176.1</ele>
        <time>2020-08-08T09:50:56Z</time>
      </trkpt>
      <trkpt lat="45.44795" lon="7.02413">
        <ele>2175.9</ele>
        <time>2020-08-08T09:50:59Z</time>
      </trkpt>
      <trkpt lat="45.44794" lon="7.02408">
        <ele>2175.7</ele>
        <time>2020-08-08T09:51:00Z</time>
      </trkpt>
      <trkpt lat="45.44792" lon="7.02401">
        <ele>2175.7</ele>
        <time>2020-08-08T09:51:03Z</time>
      </trkpt>
      <trkpt lat="45.44791" lon="7.02396">
        <ele>2175.9</ele>
        <time>2020-08-08T09:51:04Z</time>
      </trkpt>
      <trkpt lat="45.44788" lon="7.02388">
        <ele>2176.2</ele>
        <time>2020-08-08T09:51:06Z</time>
      </trkpt>
      <trkpt lat="45.44786" lon="7.02384">
        <ele>2176.4</ele>
        <time>2020-08-08T09:51:07Z</time>
      </trkpt>
      <trkpt lat="45.44784" lon="7.02378">
        <ele>2176.7</ele>
        <time>2020-08-08T09:51:10Z</time>
      </trkpt>
      <trkpt lat="45.44781" lon="7.02373">
        <ele>2177.1</ele>
        <time>2020-08-08T09:51:11Z</time>
      </trkpt>
      <trkpt lat="45.44777" lon="7.02366">
        <ele>2177.5</ele>
        <time>2020-08-08T09:51:13Z</time>
      </trkpt>
      <trkpt lat="45.44776" lon="7.02362">
        <ele>2177.8</ele>
        <time>2020-08-08T09:51:14Z</time>
      </trkpt>
      <trkpt lat="45.44774" lon="7.02359">
        <ele>2178</ele>
        <time>2020-08-08T09:51:16Z</time>
      </trkpt>
      <trkpt lat="45.44772" lon="7.02355">
        <ele>2178.3</ele>
        <time>2020-08-08T09:51:18Z</time>
      </trkpt>
      <trkpt lat="45.44771" lon="7.02352">
        <ele>2178.5</ele>
        <time>2020-08-08T09:51:19Z</time>
      </trkpt>
      <trkpt lat="45.44767" lon="7.02346">
        <ele>2179</ele>
        <time>2020-08-08T09:51:20Z</time>
      </trkpt>
      <trkpt lat="45.44765" lon="7.02342">
        <ele>2179.3</ele>
        <time>2020-08-08T09:51:21Z</time>
      </trkpt>
      <trkpt lat="45.44762" lon="7.02335">
        <ele>2179.8</ele>
        <time>2020-08-08T09:51:24Z</time>
      </trkpt>
      <trkpt lat="45.4476" lon="7.02329">
        <ele>2180.2</ele>
        <time>2020-08-08T09:51:26Z</time>
      </trkpt>
      <trkpt lat="45.44759" lon="7.02327">
        <ele>2180.3</ele>
        <time>2020-08-08T09:51:27Z</time>
      </trkpt>
      <trkpt lat="45.44758" lon="7.02325">
        <ele>2180.5</ele>
        <time>2020-08-08T09:51:28Z</time>
      </trkpt>
      <trkpt lat="45.44755" lon="7.0232">
        <ele>2180.9</ele>
        <time>2020-08-08T09:51:30Z</time>
      </trkpt>
      <trkpt lat="45.44752" lon="7.02314">
        <ele>2181.3</ele>
        <time>2020-08-08T09:51:32Z</time>
      </trkpt>
      <trkpt lat="45.44751" lon="7.02311">
        <ele>2181.5</ele>
        <time>2020-08-08T09:51:33Z</time>
      </trkpt>
      <trkpt lat="45.44749" lon="7.02307">
        <ele>2181.8</ele>
        <time>2020-08-08T09:51:34Z</time>
      </trkpt>
      <trkpt lat="45.44747" lon="7.02303">
        <ele>2182.1</ele>
        <time>2020-08-08T09:51:37Z</time>
      </trkpt>
      <trkpt lat="45.44745" lon="7.02301">
        <ele>2182.3</ele>
        <time>2020-08-08T09:51:38Z</time>
      </trkpt>
      <trkpt lat="45.44742" lon="7.02294">
        <ele>2182.7</ele>
        <time>2020-08-08T09:51:40Z</time>
      </trkpt>
      <trkpt lat="45.4474" lon="7.0229">
        <ele>2183</ele>
        <time>2020-08-08T09:51:41Z</time>
      </trkpt>
      <trkpt lat="45.44738" lon="7.02286">
        <ele>2183.3</ele>
        <time>2020-08-08T09:51:42Z</time>
      </trkpt>
      <trkpt lat="45.44733" lon="7.02277">
        <ele>2183.8</ele>
        <time>2020-08-08T09:51:44Z</time>
      </trkpt>
      <trkpt lat="45.44731" lon="7.02273">
        <ele>2184.1</ele>
        <time>2020-08-08T09:51:47Z</time>
      </trkpt>
      <trkpt lat="45.44728" lon="7.02268">
        <ele>2184.5</ele>
        <time>2020-08-08T09:51:48Z</time>
      </trkpt>
      <trkpt lat="45.44725" lon="7.02262">
        <ele>2184.9</ele>
        <time>2020-08-08T09:51:50Z</time>
      </trkpt>
      <trkpt lat="45.44723" lon="7.02257">
        <ele>2185.2</ele>
        <time>2020-08-08T09:51:52Z</time>
      </trkpt>
      <trkpt lat="45.44723" lon="7.02256">
        <ele>2185.3</ele>
        <time>2020-08-08T09:51:53Z</time>
      </trkpt>
      <trkpt lat="45.4472" lon="7.02249">
        <ele>2185.6</ele>
        <time>2020-08-08T09:51:54Z</time>
      </trkpt>
      <trkpt lat="45.44718" lon="7.02244">
        <ele>2186</ele>
        <time>2020-08-08T09:51:55Z</time>
      </trkpt>
      <trkpt lat="45.44717" lon="7.02242">
        <ele>2186.1</ele>
        <time>2020-08-08T09:51:56Z</time>
      </trkpt>
      <trkpt lat="45.44714" lon="7.02237">
        <ele>2186.4</ele>
        <time>2020-08-08T09:51:58Z</time>
      </trkpt>
      <trkpt lat="45.44712" lon="7.02233">
        <ele>2186.7</ele>
        <time>2020-08-08T09:52:00Z</time>
      </trkpt>
      <trkpt lat="45.4471" lon="7.02229">
        <ele>2186.9</ele>
        <time>2020-08-08T09:52:01Z</time>
      </trkpt>
      <trkpt lat="45.44707" lon="7.02222">
        <ele>2187.4</ele>
        <time>2020-08-08T09:52:02Z</time>
      </trkpt>
      <trkpt lat="45.44704" lon="7.02217">
        <ele>2187.7</ele>
        <time>2020-08-08T09:52:03Z</time>
      </trkpt>
      <trkpt lat="45.44704" lon="7.02216">
        <ele>2187.8</ele>
        <time>2020-08-08T09:52:04Z</time>
      </trkpt>
      <trkpt lat="45.44699" lon="7.02206">
        <ele>2188.4</ele>
        <time>2020-08-08T09:52:07Z</time>
      </trkpt>
      <trkpt lat="45.44697" lon="7.02201">
        <ele>2188.6</ele>
        <time>2020-08-08T09:52:08Z</time>
      </trkpt>
      <trkpt lat="45.44694" lon="7.02197">
        <ele>2188.9</ele>
        <time>2020-08-08T09:52:10Z</time>
      </trkpt>
      <trkpt lat="45.44691" lon="7.0219">
        <ele>2189.3</ele>
        <time>2020-08-08T09:52:12Z</time>
      </trkpt>
      <trkpt lat="45.44689" lon="7.02187">
        <ele>2189.6</ele>
        <time>2020-08-08T09:52:13Z</time>
      </trkpt>
      <trkpt lat="45.44687" lon="7.02182">
        <ele>2189.9</ele>
        <time>2020-08-08T09:52:14Z</time>
      </trkpt>
      <trkpt lat="45.44684" lon="7.02178">
        <ele>2190.2</ele>
        <time>2020-08-08T09:52:16Z</time>
      </trkpt>
      <trkpt lat="45.4468" lon="7.02171">
        <ele>2190.7</ele>
        <time>2020-08-08T09:52:18Z</time>
      </trkpt>
      <trkpt lat="45.44676" lon="7.02164">
        <ele>2191.2</ele>
        <time>2020-08-08T09:52:21Z</time>
      </trkpt>
      <trkpt lat="45.44674" lon="7.02162">
        <ele>2191.5</ele>
        <time>2020-08-08T09:52:22Z</time>
      </trkpt>
      <trkpt lat="45.44672" lon="7.02159">
        <ele>2191.7</ele>
        <time>2020-08-08T09:52:23Z</time>
      </trkpt>
      <trkpt lat="45.4467" lon="7.02156">
        <ele>2192</ele>
        <time>2020-08-08T09:52:25Z</time>
      </trkpt>
      <trkpt lat="45.44665" lon="7.02149">
        <ele>2192.5</ele>
        <time>2020-08-08T09:52:27Z</time>
      </trkpt>
      <trkpt lat="45.44663" lon="7.02146">
        <ele>2192.8</ele>
        <time>2020-08-08T09:52:29Z</time>
      </trkpt>
      <trkpt lat="45.44661" lon="7.02143">
        <ele>2193.1</ele>
        <time>2020-08-08T09:52:30Z</time>
      </trkpt>
      <trkpt lat="45.44658" lon="7.0214">
        <ele>2193.4</ele>
        <time>2020-08-08T09:52:32Z</time>
      </trkpt>
      <trkpt lat="45.44656" lon="7.02138">
        <ele>2193.6</ele>
        <time>2020-08-08T09:52:33Z</time>
      </trkpt>
      <trkpt lat="45.44651" lon="7.02132">
        <ele>2194.2</ele>
        <time>2020-08-08T09:52:35Z</time>
      </trkpt>
      <trkpt lat="45.44646" lon="7.02125">
        <ele>2194.8</ele>
        <time>2020-08-08T09:52:38Z</time>
      </trkpt>
      <trkpt lat="45.44644" lon="7.02121">
        <ele>2195.1</ele>
        <time>2020-08-08T09:52:41Z</time>
      </trkpt>
      <trkpt lat="45.44642" lon="7.02118">
        <ele>2195.4</ele>
        <time>2020-08-08T09:52:42Z</time>
      </trkpt>
      <trkpt lat="45.44637" lon="7.02112">
        <ele>2195.9</ele>
        <time>2020-08-08T09:52:44Z</time>
      </trkpt>
      <trkpt lat="45.44635" lon="7.02108">
        <ele>2196.3</ele>
        <time>2020-08-08T09:52:45Z</time>
      </trkpt>
      <trkpt lat="45.44632" lon="7.02105">
        <ele>2196.6</ele>
        <time>2020-08-08T09:52:46Z</time>
      </trkpt>
      <trkpt lat="45.4463" lon="7.02101">
        <ele>2196.9</ele>
        <time>2020-08-08T09:52:47Z</time>
      </trkpt>
      <trkpt lat="45.44629" lon="7.021">
        <ele>2197</ele>
        <time>2020-08-08T09:52:48Z</time>
      </trkpt>
      <trkpt lat="45.44624" lon="7.02094">
        <ele>2197.5</ele>
        <time>2020-08-08T09:52:50Z</time>
      </trkpt>
      <trkpt lat="45.44623" lon="7.02092">
        <ele>2197.7</ele>
        <time>2020-08-08T09:52:52Z</time>
      </trkpt>
      <trkpt lat="45.44621" lon="7.0209">
        <ele>2197.9</ele>
        <time>2020-08-08T09:52:53Z</time>
      </trkpt>
      <trkpt lat="45.44618" lon="7.02085">
        <ele>2198.4</ele>
        <time>2020-08-08T09:52:55Z</time>
      </trkpt>
      <trkpt lat="45.44616" lon="7.02082">
        <ele>2198.7</ele>
        <time>2020-08-08T09:52:56Z</time>
      </trkpt>
      <trkpt lat="45.44613" lon="7.02078">
        <ele>2199</ele>
        <time>2020-08-08T09:52:57Z</time>
      </trkpt>
      <trkpt lat="45.44612" lon="7.02077">
        <ele>2199.1</ele>
        <time>2020-08-08T09:52:58Z</time>
      </trkpt>
      <trkpt lat="45.4461" lon="7.02074">
        <ele>2199.4</ele>
        <time>2020-08-08T09:53:00Z</time>
      </trkpt>
      <trkpt lat="45.44608" lon="7.02071">
        <ele>2199.7</ele>
        <time>2020-08-08T09:53:02Z</time>
      </trkpt>
      <trkpt lat="45.44604" lon="7.02067">
        <ele>2200.1</ele>
        <time>2020-08-08T09:53:03Z</time>
      </trkpt>
      <trkpt lat="45.44602" lon="7.02063">
        <ele>2200.4</ele>
        <time>2020-08-08T09:53:04Z</time>
      </trkpt>
      <trkpt lat="45.44601" lon="7.02062">
        <ele>2200.5</ele>
        <time>2020-08-08T09:53:05Z</time>
      </trkpt>
      <trkpt lat="45.44599" lon="7.0206">
        <ele>2200.7</ele>
        <time>2020-08-08T09:53:06Z</time>
      </trkpt>
      <trkpt lat="45.44597" lon="7.02056">
        <ele>2201</ele>
        <time>2020-08-08T09:53:08Z</time>
      </trkpt>
      <trkpt lat="45.44595" lon="7.02054">
        <ele>2201.2</ele>
        <time>2020-08-08T09:53:09Z</time>
      </trkpt>
      <trkpt lat="45.4459" lon="7.02048">
        <ele>2201.8</ele>
        <time>2020-08-08T09:53:10Z</time>
      </trkpt>
      <trkpt lat="45.44587" lon="7.02045">
        <ele>2202</ele>
        <time>2020-08-08T09:53:11Z</time>
      </trkpt>
      <trkpt lat="45.44586" lon="7.02042">
        <ele>2202.2</ele>
        <time>2020-08-08T09:53:12Z</time>
      </trkpt>
      <trkpt lat="45.44584" lon="7.02037">
        <ele>2202.5</ele>
        <time>2020-08-08T09:53:14Z</time>
      </trkpt>
      <trkpt lat="45.44582" lon="7.02033">
        <ele>2202.8</ele>
        <time>2020-08-08T09:53:16Z</time>
      </trkpt>
      <trkpt lat="45.44578" lon="7.02028">
        <ele>2203.2</ele>
        <time>2020-08-08T09:53:17Z</time>
      </trkpt>
      <trkpt lat="45.44577" lon="7.02025">
        <ele>2203.4</ele>
        <time>2020-08-08T09:53:18Z</time>
      </trkpt>
      <trkpt lat="45.44575" lon="7.02021">
        <ele>2203.6</ele>
        <time>2020-08-08T09:53:19Z</time>
      </trkpt>
      <trkpt lat="45.44572" lon="7.02015">
        <ele>2204.1</ele>
        <time>2020-08-08T09:53:21Z</time>
      </trkpt>
      <trkpt lat="45.44569" lon="7.0201">
        <ele>2204.4</ele>
        <time>2020-08-08T09:53:23Z</time>
      </trkpt>
      <trkpt lat="45.44566" lon="7.02006">
        <ele>2204.8</ele>
        <time>2020-08-08T09:53:25Z</time>
      </trkpt>
      <trkpt lat="45.44564" lon="7.02001">
        <ele>2205.1</ele>
        <time>2020-08-08T09:53:26Z</time>
      </trkpt>
      <trkpt lat="45.44563" lon="7.01997">
        <ele>2205.3</ele>
        <time>2020-08-08T09:53:27Z</time>
      </trkpt>
      <trkpt lat="45.4456" lon="7.01993">
        <ele>2205.7</ele>
        <time>2020-08-08T09:53:29Z</time>
      </trkpt>
      <trkpt lat="45.44557" lon="7.01986">
        <ele>2206.1</ele>
        <time>2020-08-08T09:53:31Z</time>
      </trkpt>
      <trkpt lat="45.44556" lon="7.01983">
        <ele>2206.3</ele>
        <time>2020-08-08T09:53:32Z</time>
      </trkpt>
      <trkpt lat="45.44553" lon="7.0198">
        <ele>2206.6</ele>
        <time>2020-08-08T09:53:33Z</time>
      </trkpt>
      <trkpt lat="45.44551" lon="7.01976">
        <ele>2206.8</ele>
        <time>2020-08-08T09:53:35Z</time>
      </trkpt>
      <trkpt lat="45.4455" lon="7.01973">
        <ele>2207.1</ele>
        <time>2020-08-08T09:53:37Z</time>
      </trkpt>
      <trkpt lat="45.44547" lon="7.01968">
        <ele>2207.4</ele>
        <time>2020-08-08T09:53:38Z</time>
      </trkpt>
      <trkpt lat="45.44544" lon="7.01962">
        <ele>2207.9</ele>
        <time>2020-08-08T09:53:40Z</time>
      </trkpt>
      <trkpt lat="45.44543" lon="7.01959">
        <ele>2208.1</ele>
        <time>2020-08-08T09:53:41Z</time>
      </trkpt>
      <trkpt lat="45.4454" lon="7.01954">
        <ele>2208.5</ele>
        <time>2020-08-08T09:53:43Z</time>
      </trkpt>
      <trkpt lat="45.44537" lon="7.01949">
        <ele>2208.8</ele>
        <time>2020-08-08T09:53:44Z</time>
      </trkpt>
      <trkpt lat="45.44533" lon="7.0194">
        <ele>2209.4</ele>
        <time>2020-08-08T09:53:47Z</time>
      </trkpt>
      <trkpt lat="45.44531" lon="7.01936">
        <ele>2209.7</ele>
        <time>2020-08-08T09:53:49Z</time>
      </trkpt>
      <trkpt lat="45.44529" lon="7.01932">
        <ele>2210</ele>
        <time>2020-08-08T09:53:50Z</time>
      </trkpt>
      <trkpt lat="45.44527" lon="7.01927">
        <ele>2210.3</ele>
        <time>2020-08-08T09:53:52Z</time>
      </trkpt>
      <trkpt lat="45.44526" lon="7.01923">
        <ele>2210.6</ele>
        <time>2020-08-08T09:53:53Z</time>
      </trkpt>
      <trkpt lat="45.44525" lon="7.01922">
        <ele>2210.7</ele>
        <time>2020-08-08T09:53:54Z</time>
      </trkpt>
      <trkpt lat="45.44523" lon="7.01917">
        <ele>2211</ele>
        <time>2020-08-08T09:53:55Z</time>
      </trkpt>
      <trkpt lat="45.44522" lon="7.01913">
        <ele>2211.2</ele>
        <time>2020-08-08T09:53:56Z</time>
      </trkpt>
      <trkpt lat="45.4452" lon="7.01908">
        <ele>2211.5</ele>
        <time>2020-08-08T09:53:58Z</time>
      </trkpt>
      <trkpt lat="45.44519" lon="7.01904">
        <ele>2211.8</ele>
        <time>2020-08-08T09:53:59Z</time>
      </trkpt>
      <trkpt lat="45.44516" lon="7.01895">
        <ele>2212.3</ele>
        <time>2020-08-08T09:54:02Z</time>
      </trkpt>
      <trkpt lat="45.44515" lon="7.01892">
        <ele>2212.5</ele>
        <time>2020-08-08T09:54:03Z</time>
      </trkpt>
      <trkpt lat="45.44514" lon="7.01888">
        <ele>2212.8</ele>
        <time>2020-08-08T09:54:04Z</time>
      </trkpt>
      <trkpt lat="45.44513" lon="7.01883">
        <ele>2213.1</ele>
        <time>2020-08-08T09:54:05Z</time>
      </trkpt>
      <trkpt lat="45.44512" lon="7.01882">
        <ele>2213.2</ele>
        <time>2020-08-08T09:54:06Z</time>
      </trkpt>
      <trkpt lat="45.4451" lon="7.01877">
        <ele>2213.5</ele>
        <time>2020-08-08T09:54:07Z</time>
      </trkpt>
      <trkpt lat="45.4451" lon="7.01875">
        <ele>2213.7</ele>
        <time>2020-08-08T09:54:08Z</time>
      </trkpt>
      <trkpt lat="45.44508" lon="7.01871">
        <ele>2213.9</ele>
        <time>2020-08-08T09:54:09Z</time>
      </trkpt>
      <trkpt lat="45.44507" lon="7.01867">
        <ele>2214.2</ele>
        <time>2020-08-08T09:54:10Z</time>
      </trkpt>
      <trkpt lat="45.44506" lon="7.01864">
        <ele>2214.5</ele>
        <time>2020-08-08T09:54:11Z</time>
      </trkpt>
      <trkpt lat="45.44504" lon="7.0186">
        <ele>2214.8</ele>
        <time>2020-08-08T09:54:12Z</time>
      </trkpt>
      <trkpt lat="45.44503" lon="7.01857">
        <ele>2215</ele>
        <time>2020-08-08T09:54:13Z</time>
      </trkpt>
      <trkpt lat="45.44501" lon="7.01854">
        <ele>2215.3</ele>
        <time>2020-08-08T09:54:15Z</time>
      </trkpt>
      <trkpt lat="45.44497" lon="7.01849">
        <ele>2215.8</ele>
        <time>2020-08-08T09:54:17Z</time>
      </trkpt>
      <trkpt lat="45.44495" lon="7.01846">
        <ele>2216.1</ele>
        <time>2020-08-08T09:54:18Z</time>
      </trkpt>
      <trkpt lat="45.44493" lon="7.01846">
        <ele>2216.3</ele>
        <time>2020-08-08T09:54:19Z</time>
      </trkpt>
      <trkpt lat="45.4449" lon="7.01847">
        <ele>2216.5</ele>
        <time>2020-08-08T09:54:21Z</time>
      </trkpt>
      <trkpt lat="45.44485" lon="7.0185">
        <ele>2217</ele>
        <time>2020-08-08T09:54:23Z</time>
      </trkpt>
      <trkpt lat="45.4448" lon="7.01858">
        <ele>2217.6</ele>
        <time>2020-08-08T09:54:25Z</time>
      </trkpt>
      <trkpt lat="45.44478" lon="7.01863">
        <ele>2217.8</ele>
        <time>2020-08-08T09:54:27Z</time>
      </trkpt>
      <trkpt lat="45.44478" lon="7.01867">
        <ele>2218</ele>
        <time>2020-08-08T09:54:29Z</time>
      </trkpt>
      <trkpt lat="45.44478" lon="7.0187">
        <ele>2218.1</ele>
        <time>2020-08-08T09:54:30Z</time>
      </trkpt>
      <trkpt lat="45.44485" lon="7.01883">
        <ele>2218.7</ele>
        <time>2020-08-08T09:54:32Z</time>
      </trkpt>
      <trkpt lat="45.44488" lon="7.01887">
        <ele>2218.9</ele>
        <time>2020-08-08T09:54:33Z</time>
      </trkpt>
      <trkpt lat="45.44494" lon="7.01898">
        <ele>2219.3</ele>
        <time>2020-08-08T09:54:36Z</time>
      </trkpt>
      <trkpt lat="45.44496" lon="7.01903">
        <ele>2219.5</ele>
        <time>2020-08-08T09:54:38Z</time>
      </trkpt>
      <trkpt lat="45.44498" lon="7.01907">
        <ele>2219.6</ele>
        <time>2020-08-08T09:54:40Z</time>
      </trkpt>
      <trkpt lat="45.44501" lon="7.01917">
        <ele>2220</ele>
        <time>2020-08-08T09:54:41Z</time>
      </trkpt>
      <trkpt lat="45.44503" lon="7.01923">
        <ele>2220.3</ele>
        <time>2020-08-08T09:54:42Z</time>
      </trkpt>
      <trkpt lat="45.44505" lon="7.01928">
        <ele>2220.5</ele>
        <time>2020-08-08T09:54:43Z</time>
      </trkpt>
      <trkpt lat="45.44506" lon="7.01933">
        <ele>2220.7</ele>
        <time>2020-08-08T09:54:45Z</time>
      </trkpt>
      <trkpt lat="45.44508" lon="7.01938">
        <ele>2220.9</ele>
        <time>2020-08-08T09:54:47Z</time>
      </trkpt>
      <trkpt lat="45.44509" lon="7.01942">
        <ele>2221.1</ele>
        <time>2020-08-08T09:54:48Z</time>
      </trkpt>
      <trkpt lat="45.44511" lon="7.01951">
        <ele>2221.5</ele>
        <time>2020-08-08T09:54:49Z</time>
      </trkpt>
      <trkpt lat="45.44513" lon="7.01955">
        <ele>2221.7</ele>
        <time>2020-08-08T09:54:50Z</time>
      </trkpt>
      <trkpt lat="45.44516" lon="7.01963">
        <ele>2221.8</ele>
        <time>2020-08-08T09:54:52Z</time>
      </trkpt>
      <trkpt lat="45.44519" lon="7.01974">
        <ele>2221.9</ele>
        <time>2020-08-08T09:54:54Z</time>
      </trkpt>
      <trkpt lat="45.44521" lon="7.01981">
        <ele>2222</ele>
        <time>2020-08-08T09:54:55Z</time>
      </trkpt>
      <trkpt lat="45.44525" lon="7.01993">
        <ele>2222.4</ele>
        <time>2020-08-08T09:54:58Z</time>
      </trkpt>
      <trkpt lat="45.44527" lon="7.01999">
        <ele>2222.6</ele>
        <time>2020-08-08T09:55:00Z</time>
      </trkpt>
      <trkpt lat="45.44529" lon="7.02006">
        <ele>2222.8</ele>
        <time>2020-08-08T09:55:02Z</time>
      </trkpt>
      <trkpt lat="45.44532" lon="7.02014">
        <ele>2223.1</ele>
        <time>2020-08-08T09:55:04Z</time>
      </trkpt>
      <trkpt lat="45.44533" lon="7.02019">
        <ele>2223.2</ele>
        <time>2020-08-08T09:55:05Z</time>
      </trkpt>
      <trkpt lat="45.44535" lon="7.02023">
        <ele>2223.4</ele>
        <time>2020-08-08T09:55:06Z</time>
      </trkpt>
      <trkpt lat="45.44538" lon="7.02033">
        <ele>2223.7</ele>
        <time>2020-08-08T09:55:08Z</time>
      </trkpt>
      <trkpt lat="45.4454" lon="7.02038">
        <ele>2223.8</ele>
        <time>2020-08-08T09:55:09Z</time>
      </trkpt>
      <trkpt lat="45.44542" lon="7.02046">
        <ele>2224</ele>
        <time>2020-08-08T09:55:10Z</time>
      </trkpt>
      <trkpt lat="45.44545" lon="7.02054">
        <ele>2224.3</ele>
        <time>2020-08-08T09:55:12Z</time>
      </trkpt>
      <trkpt lat="45.44548" lon="7.02062">
        <ele>2224.5</ele>
        <time>2020-08-08T09:55:13Z</time>
      </trkpt>
      <trkpt lat="45.44553" lon="7.02078">
        <ele>2225</ele>
        <time>2020-08-08T09:55:16Z</time>
      </trkpt>
      <trkpt lat="45.44555" lon="7.02085">
        <ele>2225.3</ele>
        <time>2020-08-08T09:55:18Z</time>
      </trkpt>
      <trkpt lat="45.44557" lon="7.02094">
        <ele>2225.7</ele>
        <time>2020-08-08T09:55:20Z</time>
      </trkpt>
      <trkpt lat="45.4456" lon="7.02106">
        <ele>2226.2</ele>
        <time>2020-08-08T09:55:22Z</time>
      </trkpt>
      <trkpt lat="45.44562" lon="7.02113">
        <ele>2226.5</ele>
        <time>2020-08-08T09:55:24Z</time>
      </trkpt>
      <trkpt lat="45.44563" lon="7.02119">
        <ele>2226.9</ele>
        <time>2020-08-08T09:55:25Z</time>
      </trkpt>
      <trkpt lat="45.44564" lon="7.02126">
        <ele>2227.2</ele>
        <time>2020-08-08T09:55:27Z</time>
      </trkpt>
      <trkpt lat="45.44565" lon="7.02131">
        <ele>2227.5</ele>
        <time>2020-08-08T09:55:29Z</time>
      </trkpt>
      <trkpt lat="45.44566" lon="7.02135">
        <ele>2227.8</ele>
        <time>2020-08-08T09:55:30Z</time>
      </trkpt>
      <trkpt lat="45.44568" lon="7.02142">
        <ele>2228.2</ele>
        <time>2020-08-08T09:55:31Z</time>
      </trkpt>
      <trkpt lat="45.44569" lon="7.02147">
        <ele>2228.4</ele>
        <time>2020-08-08T09:55:32Z</time>
      </trkpt>
      <trkpt lat="45.4457" lon="7.0215">
        <ele>2228.7</ele>
        <time>2020-08-08T09:55:33Z</time>
      </trkpt>
      <trkpt lat="45.44571" lon="7.02158">
        <ele>2229.2</ele>
        <time>2020-08-08T09:55:35Z</time>
      </trkpt>
      <trkpt lat="45.44572" lon="7.02162">
        <ele>2229.4</ele>
        <time>2020-08-08T09:55:36Z</time>
      </trkpt>
      <trkpt lat="45.44573" lon="7.02166">
        <ele>2229.6</ele>
        <time>2020-08-08T09:55:37Z</time>
      </trkpt>
      <trkpt lat="45.44574" lon="7.02177">
        <ele>2230.3</ele>
        <time>2020-08-08T09:55:39Z</time>
      </trkpt>
      <trkpt lat="45.44575" lon="7.02181">
        <ele>2230.5</ele>
        <time>2020-08-08T09:55:40Z</time>
      </trkpt>
      <trkpt lat="45.44577" lon="7.02187">
        <ele>2230.9</ele>
        <time>2020-08-08T09:55:42Z</time>
      </trkpt>
      <trkpt lat="45.44578" lon="7.0219">
        <ele>2231.1</ele>
        <time>2020-08-08T09:55:43Z</time>
      </trkpt>
      <trkpt lat="45.4458" lon="7.02196">
        <ele>2231.4</ele>
        <time>2020-08-08T09:55:44Z</time>
      </trkpt>
      <trkpt lat="45.44582" lon="7.02201">
        <ele>2231.7</ele>
        <time>2020-08-08T09:55:45Z</time>
      </trkpt>
      <trkpt lat="45.44587" lon="7.02211">
        <ele>2232.3</ele>
        <time>2020-08-08T09:55:48Z</time>
      </trkpt>
      <trkpt lat="45.44589" lon="7.02216">
        <ele>2232.5</ele>
        <time>2020-08-08T09:55:50Z</time>
      </trkpt>
      <trkpt lat="45.44593" lon="7.02223">
        <ele>2232.9</ele>
        <time>2020-08-08T09:55:52Z</time>
      </trkpt>
      <trkpt lat="45.44594" lon="7.02226">
        <ele>2233.1</ele>
        <time>2020-08-08T09:55:53Z</time>
      </trkpt>
      <trkpt lat="45.44599" lon="7.02234">
        <ele>2233.5</ele>
        <time>2020-08-08T09:55:55Z</time>
      </trkpt>
      <trkpt lat="45.44602" lon="7.02237">
        <ele>2233.7</ele>
        <time>2020-08-08T09:55:56Z</time>
      </trkpt>
      <trkpt lat="45.44605" lon="7.02243">
        <ele>2234</ele>
        <time>2020-08-08T09:55:59Z</time>
      </trkpt>
      <trkpt lat="45.44609" lon="7.02249">
        <ele>2234.4</ele>
        <time>2020-08-08T09:56:01Z</time>
      </trkpt>
      <trkpt lat="45.44613" lon="7.02255">
        <ele>2234.7</ele>
        <time>2020-08-08T09:56:02Z</time>
      </trkpt>
      <trkpt lat="45.44616" lon="7.02259">
        <ele>2234.9</ele>
        <time>2020-08-08T09:56:03Z</time>
      </trkpt>
      <trkpt lat="45.44622" lon="7.02268">
        <ele>2235.4</ele>
        <time>2020-08-08T09:56:05Z</time>
      </trkpt>
      <trkpt lat="45.44624" lon="7.02272">
        <ele>2235.6</ele>
        <time>2020-08-08T09:56:07Z</time>
      </trkpt>
      <trkpt lat="45.44627" lon="7.02276">
        <ele>2235.8</ele>
        <time>2020-08-08T09:56:09Z</time>
      </trkpt>
      <trkpt lat="45.44629" lon="7.02279">
        <ele>2235.9</ele>
        <time>2020-08-08T09:56:10Z</time>
      </trkpt>
      <trkpt lat="45.44633" lon="7.02285">
        <ele>2236.2</ele>
        <time>2020-08-08T09:56:11Z</time>
      </trkpt>
      <trkpt lat="45.44635" lon="7.02289">
        <ele>2236.4</ele>
        <time>2020-08-08T09:56:13Z</time>
      </trkpt>
      <trkpt lat="45.44636" lon="7.02292">
        <ele>2236.6</ele>
        <time>2020-08-08T09:56:14Z</time>
      </trkpt>
      <trkpt lat="45.44638" lon="7.02296">
        <ele>2236.7</ele>
        <time>2020-08-08T09:56:15Z</time>
      </trkpt>
      <trkpt lat="45.4464" lon="7.023">
        <ele>2236.9</ele>
        <time>2020-08-08T09:56:16Z</time>
      </trkpt>
      <trkpt lat="45.44642" lon="7.02303">
        <ele>2237.1</ele>
        <time>2020-08-08T09:56:17Z</time>
      </trkpt>
      <trkpt lat="45.44643" lon="7.02307">
        <ele>2237.2</ele>
        <time>2020-08-08T09:56:18Z</time>
      </trkpt>
      <trkpt lat="45.44646" lon="7.02313">
        <ele>2237.5</ele>
        <time>2020-08-08T09:56:19Z</time>
      </trkpt>
      <trkpt lat="45.4465" lon="7.02323">
        <ele>2237.9</ele>
        <time>2020-08-08T09:56:21Z</time>
      </trkpt>
      <trkpt lat="45.44653" lon="7.02332">
        <ele>2238.3</ele>
        <time>2020-08-08T09:56:24Z</time>
      </trkpt>
      <trkpt lat="45.44654" lon="7.02336">
        <ele>2238.5</ele>
        <time>2020-08-08T09:56:25Z</time>
      </trkpt>
      <trkpt lat="45.44657" lon="7.02347">
        <ele>2239</ele>
        <time>2020-08-08T09:56:27Z</time>
      </trkpt>
      <trkpt lat="45.44658" lon="7.02352">
        <ele>2239.2</ele>
        <time>2020-08-08T09:56:29Z</time>
      </trkpt>
      <trkpt lat="45.44659" lon="7.02357">
        <ele>2239.4</ele>
        <time>2020-08-08T09:56:30Z</time>
      </trkpt>
      <trkpt lat="45.44662" lon="7.02366">
        <ele>2239.8</ele>
        <time>2020-08-08T09:56:32Z</time>
      </trkpt>
      <trkpt lat="45.44664" lon="7.02371">
        <ele>2240</ele>
        <time>2020-08-08T09:56:33Z</time>
      </trkpt>
      <trkpt lat="45.44668" lon="7.0238">
        <ele>2240.4</ele>
        <time>2020-08-08T09:56:36Z</time>
      </trkpt>
      <trkpt lat="45.4467" lon="7.02384">
        <ele>2240.6</ele>
        <time>2020-08-08T09:56:37Z</time>
      </trkpt>
      <trkpt lat="45.44671" lon="7.02388">
        <ele>2240.8</ele>
        <time>2020-08-08T09:56:38Z</time>
      </trkpt>
      <trkpt lat="45.44675" lon="7.02396">
        <ele>2241.2</ele>
        <time>2020-08-08T09:56:41Z</time>
      </trkpt>
      <trkpt lat="45.44677" lon="7.02399">
        <ele>2241.4</ele>
        <time>2020-08-08T09:56:42Z</time>
      </trkpt>
      <trkpt lat="45.44679" lon="7.02404">
        <ele>2241.6</ele>
        <time>2020-08-08T09:56:43Z</time>
      </trkpt>
      <trkpt lat="45.4468" lon="7.02413">
        <ele>2242.1</ele>
        <time>2020-08-08T09:56:46Z</time>
      </trkpt>
      <trkpt lat="45.4468" lon="7.02417">
        <ele>2242.2</ele>
        <time>2020-08-08T09:56:47Z</time>
      </trkpt>
      <trkpt lat="45.44679" lon="7.02421">
        <ele>2242.5</ele>
        <time>2020-08-08T09:56:48Z</time>
      </trkpt>
      <trkpt lat="45.44669" lon="7.0242">
        <ele>2243</ele>
        <time>2020-08-08T09:56:51Z</time>
      </trkpt>
      <trkpt lat="45.44666" lon="7.02414">
        <ele>2243.3</ele>
        <time>2020-08-08T09:56:53Z</time>
      </trkpt>
      <trkpt lat="45.44664" lon="7.02405">
        <ele>2243.6</ele>
        <time>2020-08-08T09:56:56Z</time>
      </trkpt>
      <trkpt lat="45.44663" lon="7.024">
        <ele>2243.8</ele>
        <time>2020-08-08T09:56:57Z</time>
      </trkpt>
      <trkpt lat="45.44661" lon="7.02395">
        <ele>2244</ele>
        <time>2020-08-08T09:56:58Z</time>
      </trkpt>
      <trkpt lat="45.44658" lon="7.02387">
        <ele>2244.3</ele>
        <time>2020-08-08T09:57:00Z</time>
      </trkpt>
      <trkpt lat="45.44653" lon="7.02373">
        <ele>2244.9</ele>
        <time>2020-08-08T09:57:02Z</time>
      </trkpt>
      <trkpt lat="45.44651" lon="7.02367">
        <ele>2245.1</ele>
        <time>2020-08-08T09:57:04Z</time>
      </trkpt>
      <trkpt lat="45.44649" lon="7.02363">
        <ele>2245.3</ele>
        <time>2020-08-08T09:57:06Z</time>
      </trkpt>
      <trkpt lat="45.44647" lon="7.02359">
        <ele>2245.5</ele>
        <time>2020-08-08T09:57:07Z</time>
      </trkpt>
      <trkpt lat="45.44643" lon="7.02351">
        <ele>2246</ele>
        <time>2020-08-08T09:57:08Z</time>
      </trkpt>
      <trkpt lat="45.44641" lon="7.02346">
        <ele>2246.3</ele>
        <time>2020-08-08T09:57:11Z</time>
      </trkpt>
      <trkpt lat="45.44639" lon="7.02342">
        <ele>2246.5</ele>
        <time>2020-08-08T09:57:12Z</time>
      </trkpt>
      <trkpt lat="45.44636" lon="7.02336">
        <ele>2246.9</ele>
        <time>2020-08-08T09:57:13Z</time>
      </trkpt>
      <trkpt lat="45.44634" lon="7.02331">
        <ele>2247.2</ele>
        <time>2020-08-08T09:57:14Z</time>
      </trkpt>
      <trkpt lat="45.44631" lon="7.02326">
        <ele>2247.6</ele>
        <time>2020-08-08T09:57:17Z</time>
      </trkpt>
      <trkpt lat="45.44629" lon="7.02323">
        <ele>2247.8</ele>
        <time>2020-08-08T09:57:18Z</time>
      </trkpt>
      <trkpt lat="45.44624" lon="7.02315">
        <ele>2248.5</ele>
        <time>2020-08-08T09:57:20Z</time>
      </trkpt>
      <trkpt lat="45.44622" lon="7.0231">
        <ele>2248.8</ele>
        <time>2020-08-08T09:57:23Z</time>
      </trkpt>
      <trkpt lat="45.44615" lon="7.02304">
        <ele>2249.5</ele>
        <time>2020-08-08T09:57:25Z</time>
      </trkpt>
      <trkpt lat="45.44612" lon="7.023">
        <ele>2249.8</ele>
        <time>2020-08-08T09:57:27Z</time>
      </trkpt>
      <trkpt lat="45.44609" lon="7.02297">
        <ele>2250.1</ele>
        <time>2020-08-08T09:57:28Z</time>
      </trkpt>
      <trkpt lat="45.44607" lon="7.02295">
        <ele>2250.3</ele>
        <time>2020-08-08T09:57:30Z</time>
      </trkpt>
      <trkpt lat="45.44602" lon="7.02291">
        <ele>2250.8</ele>
        <time>2020-08-08T09:57:33Z</time>
      </trkpt>
      <trkpt lat="45.446" lon="7.02289">
        <ele>2251</ele>
        <time>2020-08-08T09:57:34Z</time>
      </trkpt>
      <trkpt lat="45.44594" lon="7.02283">
        <ele>2251.5</ele>
        <time>2020-08-08T09:57:36Z</time>
      </trkpt>
      <trkpt lat="45.4459" lon="7.02279">
        <ele>2251.7</ele>
        <time>2020-08-08T09:57:38Z</time>
      </trkpt>
      <trkpt lat="45.44588" lon="7.02276">
        <ele>2251.9</ele>
        <time>2020-08-08T09:57:40Z</time>
      </trkpt>
      <trkpt lat="45.44583" lon="7.02272">
        <ele>2252.3</ele>
        <time>2020-08-08T09:57:42Z</time>
      </trkpt>
      <trkpt lat="45.44579" lon="7.02269">
        <ele>2252.6</ele>
        <time>2020-08-08T09:57:43Z</time>
      </trkpt>
      <trkpt lat="45.44577" lon="7.02267">
        <ele>2252.7</ele>
        <time>2020-08-08T09:57:44Z</time>
      </trkpt>
      <trkpt lat="45.44572" lon="7.02261">
        <ele>2253.2</ele>
        <time>2020-08-08T09:57:46Z</time>
      </trkpt>
      <trkpt lat="45.44569" lon="7.02257">
        <ele>2253.5</ele>
        <time>2020-08-08T09:57:49Z</time>
      </trkpt>
      <trkpt lat="45.44565" lon="7.02253">
        <ele>2253.8</ele>
        <time>2020-08-08T09:57:50Z</time>
      </trkpt>
      <trkpt lat="45.44561" lon="7.0225">
        <ele>2254.1</ele>
        <time>2020-08-08T09:57:52Z</time>
      </trkpt>
      <trkpt lat="45.44557" lon="7.02246">
        <ele>2254.4</ele>
        <time>2020-08-08T09:57:53Z</time>
      </trkpt>
      <trkpt lat="45.44554" lon="7.02243">
        <ele>2254.6</ele>
        <time>2020-08-08T09:57:54Z</time>
      </trkpt>
      <trkpt lat="45.44552" lon="7.02241">
        <ele>2254.8</ele>
        <time>2020-08-08T09:57:56Z</time>
      </trkpt>
      <trkpt lat="45.44548" lon="7.02237">
        <ele>2255.1</ele>
        <time>2020-08-08T09:57:57Z</time>
      </trkpt>
      <trkpt lat="45.44546" lon="7.02233">
        <ele>2255.4</ele>
        <time>2020-08-08T09:57:59Z</time>
      </trkpt>
      <trkpt lat="45.44543" lon="7.02229">
        <ele>2255.7</ele>
        <time>2020-08-08T09:58:01Z</time>
      </trkpt>
      <trkpt lat="45.4454" lon="7.02226">
        <ele>2255.9</ele>
        <time>2020-08-08T09:58:02Z</time>
      </trkpt>
      <trkpt lat="45.44536" lon="7.0222">
        <ele>2256.4</ele>
        <time>2020-08-08T09:58:04Z</time>
      </trkpt>
      <trkpt lat="45.44534" lon="7.02216">
        <ele>2256.6</ele>
        <time>2020-08-08T09:58:05Z</time>
      </trkpt>
      <trkpt lat="45.44529" lon="7.02209">
        <ele>2257.2</ele>
        <time>2020-08-08T09:58:08Z</time>
      </trkpt>
      <trkpt lat="45.44526" lon="7.02203">
        <ele>2257.6</ele>
        <time>2020-08-08T09:58:09Z</time>
      </trkpt>
      <trkpt lat="45.44522" lon="7.02195">
        <ele>2258.1</ele>
        <time>2020-08-08T09:58:12Z</time>
      </trkpt>
      <trkpt lat="45.4452" lon="7.02192">
        <ele>2258.3</ele>
        <time>2020-08-08T09:58:13Z</time>
      </trkpt>
      <trkpt lat="45.44518" lon="7.02187">
        <ele>2258.7</ele>
        <time>2020-08-08T09:58:15Z</time>
      </trkpt>
      <trkpt lat="45.44514" lon="7.02177">
        <ele>2259.4</ele>
        <time>2020-08-08T09:58:17Z</time>
      </trkpt>
      <trkpt lat="45.44511" lon="7.02171">
        <ele>2259.8</ele>
        <time>2020-08-08T09:58:19Z</time>
      </trkpt>
      <trkpt lat="45.4451" lon="7.02169">
        <ele>2259.9</ele>
        <time>2020-08-08T09:58:20Z</time>
      </trkpt>
      <trkpt lat="45.44509" lon="7.02167">
        <ele>2260.1</ele>
        <time>2020-08-08T09:58:21Z</time>
      </trkpt>
      <trkpt lat="45.44508" lon="7.02164">
        <ele>2260.3</ele>
        <time>2020-08-08T09:58:22Z</time>
      </trkpt>
      <trkpt lat="45.44505" lon="7.02155">
        <ele>2260.9</ele>
        <time>2020-08-08T09:58:24Z</time>
      </trkpt>
      <trkpt lat="45.44504" lon="7.02154">
        <ele>2261</ele>
        <time>2020-08-08T09:58:25Z</time>
      </trkpt>
      <trkpt lat="45.44503" lon="7.0215">
        <ele>2261.2</ele>
        <time>2020-08-08T09:58:26Z</time>
      </trkpt>
      <trkpt lat="45.44501" lon="7.02147">
        <ele>2261.4</ele>
        <time>2020-08-08T09:58:27Z</time>
      </trkpt>
      <trkpt lat="45.44499" lon="7.02143">
        <ele>2261.7</ele>
        <time>2020-08-08T09:58:30Z</time>
      </trkpt>
      <trkpt lat="45.44497" lon="7.02135">
        <ele>2262.2</ele>
        <time>2020-08-08T09:58:31Z</time>
      </trkpt>
      <trkpt lat="45.44495" lon="7.0213">
        <ele>2262.5</ele>
        <time>2020-08-08T09:58:34Z</time>
      </trkpt>
      <trkpt lat="45.44493" lon="7.02126">
        <ele>2262.9</ele>
        <time>2020-08-08T09:58:35Z</time>
      </trkpt>
      <trkpt lat="45.4449" lon="7.0212">
        <ele>2263.2</ele>
        <time>2020-08-08T09:58:37Z</time>
      </trkpt>
      <trkpt lat="45.44488" lon="7.02116">
        <ele>2263.5</ele>
        <time>2020-08-08T09:58:38Z</time>
      </trkpt>
      <trkpt lat="45.44487" lon="7.02115">
        <ele>2263.6</ele>
        <time>2020-08-08T09:58:39Z</time>
      </trkpt>
      <trkpt lat="45.44485" lon="7.02111">
        <ele>2263.9</ele>
        <time>2020-08-08T09:58:41Z</time>
      </trkpt>
      <trkpt lat="45.44483" lon="7.02109">
        <ele>2264.1</ele>
        <time>2020-08-08T09:58:42Z</time>
      </trkpt>
      <trkpt lat="45.4448" lon="7.02104">
        <ele>2264.4</ele>
        <time>2020-08-08T09:58:44Z</time>
      </trkpt>
      <trkpt lat="45.44479" lon="7.02102">
        <ele>2264.6</ele>
        <time>2020-08-08T09:58:45Z</time>
      </trkpt>
      <trkpt lat="45.44475" lon="7.02095">
        <ele>2265.1</ele>
        <time>2020-08-08T09:58:47Z</time>
      </trkpt>
      <trkpt lat="45.44473" lon="7.02091">
        <ele>2265.4</ele>
        <time>2020-08-08T09:58:48Z</time>
      </trkpt>
      <trkpt lat="45.44469" lon="7.02085">
        <ele>2265.8</ele>
        <time>2020-08-08T09:58:51Z</time>
      </trkpt>
      <trkpt lat="45.44467" lon="7.02083">
        <ele>2266</ele>
        <time>2020-08-08T09:58:52Z</time>
      </trkpt>
      <trkpt lat="45.44466" lon="7.0208">
        <ele>2266.2</ele>
        <time>2020-08-08T09:58:53Z</time>
      </trkpt>
      <trkpt lat="45.44464" lon="7.02077">
        <ele>2266.4</ele>
        <time>2020-08-08T09:58:54Z</time>
      </trkpt>
      <trkpt lat="45.44462" lon="7.02074">
        <ele>2266.6</ele>
        <time>2020-08-08T09:58:56Z</time>
      </trkpt>
      <trkpt lat="45.44458" lon="7.02068">
        <ele>2267.1</ele>
        <time>2020-08-08T09:58:58Z</time>
      </trkpt>
      <trkpt lat="45.44456" lon="7.02065">
        <ele>2267.3</ele>
        <time>2020-08-08T09:58:59Z</time>
      </trkpt>
      <trkpt lat="45.44451" lon="7.02057">
        <ele>2267.8</ele>
        <time>2020-08-08T09:59:02Z</time>
      </trkpt>
      <trkpt lat="45.4445" lon="7.02053">
        <ele>2268.1</ele>
        <time>2020-08-08T09:59:04Z</time>
      </trkpt>
      <trkpt lat="45.44446" lon="7.02048">
        <ele>2268.5</ele>
        <time>2020-08-08T09:59:05Z</time>
      </trkpt>
      <trkpt lat="45.44444" lon="7.02044">
        <ele>2268.7</ele>
        <time>2020-08-08T09:59:08Z</time>
      </trkpt>
      <trkpt lat="45.44442" lon="7.02041">
        <ele>2268.9</ele>
        <time>2020-08-08T09:59:09Z</time>
      </trkpt>
      <trkpt lat="45.44439" lon="7.02037">
        <ele>2269.3</ele>
        <time>2020-08-08T09:59:10Z</time>
      </trkpt>
      <trkpt lat="45.44437" lon="7.02032">
        <ele>2269.6</ele>
        <time>2020-08-08T09:59:11Z</time>
      </trkpt>
      <trkpt lat="45.44435" lon="7.02029">
        <ele>2269.9</ele>
        <time>2020-08-08T09:59:12Z</time>
      </trkpt>
      <trkpt lat="45.44431" lon="7.02023">
        <ele>2270.4</ele>
        <time>2020-08-08T09:59:15Z</time>
      </trkpt>
      <trkpt lat="45.4443" lon="7.0202">
        <ele>2270.6</ele>
        <time>2020-08-08T09:59:16Z</time>
      </trkpt>
      <trkpt lat="45.44429" lon="7.02018">
        <ele>2270.8</ele>
        <time>2020-08-08T09:59:17Z</time>
      </trkpt>
      <trkpt lat="45.44427" lon="7.02014">
        <ele>2271.2</ele>
        <time>2020-08-08T09:59:18Z</time>
      </trkpt>
      <trkpt lat="45.44424" lon="7.02011">
        <ele>2271.6</ele>
        <time>2020-08-08T09:59:19Z</time>
      </trkpt>
      <trkpt lat="45.4442" lon="7.02003">
        <ele>2272.3</ele>
        <time>2020-08-08T09:59:22Z</time>
      </trkpt>
      <trkpt lat="45.44417" lon="7.01999">
        <ele>2272.7</ele>
        <time>2020-08-08T09:59:24Z</time>
      </trkpt>
      <trkpt lat="45.44415" lon="7.01997">
        <ele>2273</ele>
        <time>2020-08-08T09:59:25Z</time>
      </trkpt>
      <trkpt lat="45.44412" lon="7.01991">
        <ele>2273.5</ele>
        <time>2020-08-08T09:59:27Z</time>
      </trkpt>
      <trkpt lat="45.4441" lon="7.01987">
        <ele>2273.8</ele>
        <time>2020-08-08T09:59:28Z</time>
      </trkpt>
      <trkpt lat="45.44406" lon="7.01981">
        <ele>2274.4</ele>
        <time>2020-08-08T09:59:31Z</time>
      </trkpt>
      <trkpt lat="45.44404" lon="7.01979">
        <ele>2274.6</ele>
        <time>2020-08-08T09:59:32Z</time>
      </trkpt>
      <trkpt lat="45.44402" lon="7.01977">
        <ele>2274.9</ele>
        <time>2020-08-08T09:59:33Z</time>
      </trkpt>
      <trkpt lat="45.444" lon="7.01974">
        <ele>2275.2</ele>
        <time>2020-08-08T09:59:35Z</time>
      </trkpt>
      <trkpt lat="45.44396" lon="7.0197">
        <ele>2275.7</ele>
        <time>2020-08-08T09:59:36Z</time>
      </trkpt>
      <trkpt lat="45.44392" lon="7.01964">
        <ele>2276.1</ele>
        <time>2020-08-08T09:59:38Z</time>
      </trkpt>
      <trkpt lat="45.44391" lon="7.01961">
        <ele>2276.4</ele>
        <time>2020-08-08T09:59:39Z</time>
      </trkpt>
      <trkpt lat="45.44389" lon="7.01959">
        <ele>2276.6</ele>
        <time>2020-08-08T09:59:40Z</time>
      </trkpt>
      <trkpt lat="45.44386" lon="7.01954">
        <ele>2277</ele>
        <time>2020-08-08T09:59:41Z</time>
      </trkpt>
      <trkpt lat="45.44383" lon="7.01951">
        <ele>2277.3</ele>
        <time>2020-08-08T09:59:43Z</time>
      </trkpt>
      <trkpt lat="45.4438" lon="7.01948">
        <ele>2277.6</ele>
        <time>2020-08-08T09:59:45Z</time>
      </trkpt>
      <trkpt lat="45.44376" lon="7.01943">
        <ele>2278</ele>
        <time>2020-08-08T09:59:46Z</time>
      </trkpt>
      <trkpt lat="45.44373" lon="7.01938">
        <ele>2278.4</ele>
        <time>2020-08-08T09:59:47Z</time>
      </trkpt>
      <trkpt lat="45.44368" lon="7.01932">
        <ele>2279</ele>
        <time>2020-08-08T09:59:50Z</time>
      </trkpt>
      <trkpt lat="45.44366" lon="7.01929">
        <ele>2279.2</ele>
        <time>2020-08-08T09:59:51Z</time>
      </trkpt>
      <trkpt lat="45.44361" lon="7.01924">
        <ele>2279.8</ele>
        <time>2020-08-08T09:59:53Z</time>
      </trkpt>
      <trkpt lat="45.44358" lon="7.01921">
        <ele>2280.2</ele>
        <time>2020-08-08T09:59:56Z</time>
      </trkpt>
      <trkpt lat="45.44354" lon="7.01916">
        <ele>2280.6</ele>
        <time>2020-08-08T09:59:58Z</time>
      </trkpt>
      <trkpt lat="45.44346" lon="7.0191">
        <ele>2281.4</ele>
        <time>2020-08-08T10:00:00Z</time>
      </trkpt>
      <trkpt lat="45.4434" lon="7.01906">
        <ele>2282</ele>
        <time>2020-08-08T10:00:03Z</time>
      </trkpt>
      <trkpt lat="45.44333" lon="7.01902">
        <ele>2282.6</ele>
        <time>2020-08-08T10:00:05Z</time>
      </trkpt>
      <trkpt lat="45.44325" lon="7.01897">
        <ele>2283.3</ele>
        <time>2020-08-08T10:00:08Z</time>
      </trkpt>
      <trkpt lat="45.44324" lon="7.01896">
        <ele>2283.4</ele>
        <time>2020-08-08T10:00:09Z</time>
      </trkpt>
      <trkpt lat="45.44321" lon="7.01894">
        <ele>2283.7</ele>
        <time>2020-08-08T10:00:10Z</time>
      </trkpt>
      <trkpt lat="45.44317" lon="7.01891">
        <ele>2284.1</ele>
        <time>2020-08-08T10:00:12Z</time>
      </trkpt>
      <trkpt lat="45.44313" lon="7.01888">
        <ele>2284.5</ele>
        <time>2020-08-08T10:00:14Z</time>
      </trkpt>
      <trkpt lat="45.44307" lon="7.01884">
        <ele>2285</ele>
        <time>2020-08-08T10:00:16Z</time>
      </trkpt>
      <trkpt lat="45.44303" lon="7.0188">
        <ele>2285.4</ele>
        <time>2020-08-08T10:00:18Z</time>
      </trkpt>
      <trkpt lat="45.44298" lon="7.01876">
        <ele>2285.9</ele>
        <time>2020-08-08T10:00:20Z</time>
      </trkpt>
      <trkpt lat="45.44296" lon="7.01874">
        <ele>2286.2</ele>
        <time>2020-08-08T10:00:21Z</time>
      </trkpt>
      <trkpt lat="45.44294" lon="7.01872">
        <ele>2286.4</ele>
        <time>2020-08-08T10:00:22Z</time>
      </trkpt>
      <trkpt lat="45.44291" lon="7.01869">
        <ele>2286.7</ele>
        <time>2020-08-08T10:00:23Z</time>
      </trkpt>
      <trkpt lat="45.44289" lon="7.01867">
        <ele>2287</ele>
        <time>2020-08-08T10:00:24Z</time>
      </trkpt>
      <trkpt lat="45.44287" lon="7.01865">
        <ele>2287.2</ele>
        <time>2020-08-08T10:00:25Z</time>
      </trkpt>
      <trkpt lat="45.44284" lon="7.01862">
        <ele>2287.6</ele>
        <time>2020-08-08T10:00:27Z</time>
      </trkpt>
      <trkpt lat="45.44282" lon="7.01859">
        <ele>2287.8</ele>
        <time>2020-08-08T10:00:29Z</time>
      </trkpt>
      <trkpt lat="45.44279" lon="7.01853">
        <ele>2288.3</ele>
        <time>2020-08-08T10:00:31Z</time>
      </trkpt>
      <trkpt lat="45.44276" lon="7.01847">
        <ele>2288.8</ele>
        <time>2020-08-08T10:00:32Z</time>
      </trkpt>
      <trkpt lat="45.44275" lon="7.01837">
        <ele>2289.5</ele>
        <time>2020-08-08T10:00:34Z</time>
      </trkpt>
      <trkpt lat="45.44276" lon="7.01825">
        <ele>2290.3</ele>
        <time>2020-08-08T10:00:37Z</time>
      </trkpt>
      <trkpt lat="45.44277" lon="7.0182">
        <ele>2290.6</ele>
        <time>2020-08-08T10:00:39Z</time>
      </trkpt>
      <trkpt lat="45.44278" lon="7.01816">
        <ele>2290.9</ele>
        <time>2020-08-08T10:00:41Z</time>
      </trkpt>
      <trkpt lat="45.44282" lon="7.0181">
        <ele>2291.3</ele>
        <time>2020-08-08T10:00:43Z</time>
      </trkpt>
      <trkpt lat="45.44285" lon="7.01804">
        <ele>2291.7</ele>
        <time>2020-08-08T10:00:44Z</time>
      </trkpt>
      <trkpt lat="45.44286" lon="7.01801">
        <ele>2292</ele>
        <time>2020-08-08T10:00:46Z</time>
      </trkpt>
      <trkpt lat="45.44289" lon="7.01794">
        <ele>2292.5</ele>
        <time>2020-08-08T10:00:48Z</time>
      </trkpt>
      <trkpt lat="45.44291" lon="7.01788">
        <ele>2292.9</ele>
        <time>2020-08-08T10:00:49Z</time>
      </trkpt>
      <trkpt lat="45.44292" lon="7.01778">
        <ele>2293.5</ele>
        <time>2020-08-08T10:00:51Z</time>
      </trkpt>
      <trkpt lat="45.44293" lon="7.01773">
        <ele>2293.8</ele>
        <time>2020-08-08T10:00:52Z</time>
      </trkpt>
      <trkpt lat="45.44293" lon="7.01768">
        <ele>2294.1</ele>
        <time>2020-08-08T10:00:53Z</time>
      </trkpt>
      <trkpt lat="45.44294" lon="7.0176">
        <ele>2294.6</ele>
        <time>2020-08-08T10:00:56Z</time>
      </trkpt>
      <trkpt lat="45.44294" lon="7.01756">
        <ele>2294.8</ele>
        <time>2020-08-08T10:00:58Z</time>
      </trkpt>
      <trkpt lat="45.44294" lon="7.01748">
        <ele>2295.1</ele>
        <time>2020-08-08T10:00:59Z</time>
      </trkpt>
      <trkpt lat="45.44293" lon="7.0174">
        <ele>2295.5</ele>
        <time>2020-08-08T10:01:00Z</time>
      </trkpt>
      <trkpt lat="45.44292" lon="7.01734">
        <ele>2295.8</ele>
        <time>2020-08-08T10:01:03Z</time>
      </trkpt>
      <trkpt lat="45.44291" lon="7.0173">
        <ele>2296</ele>
        <time>2020-08-08T10:01:04Z</time>
      </trkpt>
      <trkpt lat="45.44289" lon="7.01721">
        <ele>2296.4</ele>
        <time>2020-08-08T10:01:05Z</time>
      </trkpt>
      <trkpt lat="45.44288" lon="7.01716">
        <ele>2296.7</ele>
        <time>2020-08-08T10:01:07Z</time>
      </trkpt>
      <trkpt lat="45.44286" lon="7.01712">
        <ele>2296.9</ele>
        <time>2020-08-08T10:01:08Z</time>
      </trkpt>
      <trkpt lat="45.44282" lon="7.01704">
        <ele>2297.3</ele>
        <time>2020-08-08T10:01:10Z</time>
      </trkpt>
      <trkpt lat="45.44277" lon="7.01696">
        <ele>2297.9</ele>
        <time>2020-08-08T10:01:11Z</time>
      </trkpt>
      <trkpt lat="45.44274" lon="7.01693">
        <ele>2298.1</ele>
        <time>2020-08-08T10:01:12Z</time>
      </trkpt>
      <trkpt lat="45.44271" lon="7.0169">
        <ele>2298.4</ele>
        <time>2020-08-08T10:01:14Z</time>
      </trkpt>
      <trkpt lat="45.44264" lon="7.01683">
        <ele>2299.1</ele>
        <time>2020-08-08T10:01:16Z</time>
      </trkpt>
      <trkpt lat="45.4426" lon="7.0168">
        <ele>2299.4</ele>
        <time>2020-08-08T10:01:18Z</time>
      </trkpt>
      <trkpt lat="45.44256" lon="7.01678">
        <ele>2299.7</ele>
        <time>2020-08-08T10:01:19Z</time>
      </trkpt>
      <trkpt lat="45.4425" lon="7.01676">
        <ele>2300.3</ele>
        <time>2020-08-08T10:01:21Z</time>
      </trkpt>
      <trkpt lat="45.44246" lon="7.01675">
        <ele>2300.7</ele>
        <time>2020-08-08T10:01:22Z</time>
      </trkpt>
      <trkpt lat="45.44241" lon="7.01674">
        <ele>2301.1</ele>
        <time>2020-08-08T10:01:24Z</time>
      </trkpt>
      <trkpt lat="45.44236" lon="7.01674">
        <ele>2301.5</ele>
        <time>2020-08-08T10:01:25Z</time>
      </trkpt>
      <trkpt lat="45.44232" lon="7.01675">
        <ele>2301.8</ele>
        <time>2020-08-08T10:01:27Z</time>
      </trkpt>
      <trkpt lat="45.44228" lon="7.01676">
        <ele>2302.1</ele>
        <time>2020-08-08T10:01:29Z</time>
      </trkpt>
      <trkpt lat="45.44224" lon="7.01677">
        <ele>2302.5</ele>
        <time>2020-08-08T10:01:30Z</time>
      </trkpt>
      <trkpt lat="45.44217" lon="7.01678">
        <ele>2302.9</ele>
        <time>2020-08-08T10:01:31Z</time>
      </trkpt>
      <trkpt lat="45.44213" lon="7.01677">
        <ele>2303.2</ele>
        <time>2020-08-08T10:01:34Z</time>
      </trkpt>
      <trkpt lat="45.44201" lon="7.01674">
        <ele>2303.9</ele>
        <time>2020-08-08T10:01:36Z</time>
      </trkpt>
      <trkpt lat="45.44197" lon="7.01672">
        <ele>2304.1</ele>
        <time>2020-08-08T10:01:38Z</time>
      </trkpt>
      <trkpt lat="45.44192" lon="7.01667">
        <ele>2304.4</ele>
        <time>2020-08-08T10:01:39Z</time>
      </trkpt>
      <trkpt lat="45.44189" lon="7.01663">
        <ele>2304.6</ele>
        <time>2020-08-08T10:01:42Z</time>
      </trkpt>
      <trkpt lat="45.44187" lon="7.01661">
        <ele>2304.8</ele>
        <time>2020-08-08T10:01:43Z</time>
      </trkpt>
      <trkpt lat="45.44183" lon="7.01654">
        <ele>2305.1</ele>
        <time>2020-08-08T10:01:45Z</time>
      </trkpt>
      <trkpt lat="45.44181" lon="7.0165">
        <ele>2305.3</ele>
        <time>2020-08-08T10:01:46Z</time>
      </trkpt>
      <trkpt lat="45.4418" lon="7.01647">
        <ele>2305.4</ele>
        <time>2020-08-08T10:01:47Z</time>
      </trkpt>
      <trkpt lat="45.44179" lon="7.01638">
        <ele>2305.4</ele>
        <time>2020-08-08T10:01:49Z</time>
      </trkpt>
      <trkpt lat="45.44179" lon="7.01629">
        <ele>2305.4</ele>
        <time>2020-08-08T10:01:50Z</time>
      </trkpt>
      <trkpt lat="45.44179" lon="7.01623">
        <ele>2305.4</ele>
        <time>2020-08-08T10:01:51Z</time>
      </trkpt>
      <trkpt lat="45.44179" lon="7.01617">
        <ele>2305.4</ele>
        <time>2020-08-08T10:01:52Z</time>
      </trkpt>
      <trkpt lat="45.44179" lon="7.01613">
        <ele>2305.4</ele>
        <time>2020-08-08T10:01:53Z</time>
      </trkpt>
      <trkpt lat="45.4418" lon="7.01605">
        <ele>2305.5</ele>
        <time>2020-08-08T10:01:56Z</time>
      </trkpt>
      <trkpt lat="45.4418" lon="7.016">
        <ele>2305.5</ele>
        <time>2020-08-08T10:01:57Z</time>
      </trkpt>
      <trkpt lat="45.4418" lon="7.01595">
        <ele>2305.6</ele>
        <time>2020-08-08T10:01:58Z</time>
      </trkpt>
      <trkpt lat="45.4418" lon="7.01582">
        <ele>2305.6</ele>
        <time>2020-08-08T10:02:00Z</time>
      </trkpt>
      <trkpt lat="45.44179" lon="7.01575">
        <ele>2305.6</ele>
        <time>2020-08-08T10:02:01Z</time>
      </trkpt>
      <trkpt lat="45.4418" lon="7.01563">
        <ele>2305.7</ele>
        <time>2020-08-08T10:02:04Z</time>
      </trkpt>
      <trkpt lat="45.4418" lon="7.01558">
        <ele>2305.7</ele>
        <time>2020-08-08T10:02:06Z</time>
      </trkpt>
      <trkpt lat="45.4418" lon="7.01545">
        <ele>2305.6</ele>
        <time>2020-08-08T10:02:08Z</time>
      </trkpt>
      <trkpt lat="45.4418" lon="7.01539">
        <ele>2305.6</ele>
        <time>2020-08-08T10:02:10Z</time>
      </trkpt>
      <trkpt lat="45.4418" lon="7.01534">
        <ele>2305.5</ele>
        <time>2020-08-08T10:02:11Z</time>
      </trkpt>
      <trkpt lat="45.44181" lon="7.01528">
        <ele>2305.5</ele>
        <time>2020-08-08T10:02:13Z</time>
      </trkpt>
      <trkpt lat="45.44183" lon="7.01515">
        <ele>2305.4</ele>
        <time>2020-08-08T10:02:14Z</time>
      </trkpt>
      <trkpt lat="45.44184" lon="7.01508">
        <ele>2305.3</ele>
        <time>2020-08-08T10:02:17Z</time>
      </trkpt>
      <trkpt lat="45.44187" lon="7.01498">
        <ele>2305.3</ele>
        <time>2020-08-08T10:02:19Z</time>
      </trkpt>
      <trkpt lat="45.44191" lon="7.01483">
        <ele>2305.2</ele>
        <time>2020-08-08T10:02:21Z</time>
      </trkpt>
      <trkpt lat="45.44193" lon="7.01475">
        <ele>2305.2</ele>
        <time>2020-08-08T10:02:23Z</time>
      </trkpt>
      <trkpt lat="45.44195" lon="7.01469">
        <ele>2305.2</ele>
        <time>2020-08-08T10:02:25Z</time>
      </trkpt>
      <trkpt lat="45.44197" lon="7.01459">
        <ele>2305.2</ele>
        <time>2020-08-08T10:02:26Z</time>
      </trkpt>
      <trkpt lat="45.44199" lon="7.01453">
        <ele>2305.3</ele>
        <time>2020-08-08T10:02:27Z</time>
      </trkpt>
      <trkpt lat="45.44201" lon="7.01447">
        <ele>2305.3</ele>
        <time>2020-08-08T10:02:29Z</time>
      </trkpt>
      <trkpt lat="45.44203" lon="7.01438">
        <ele>2305.4</ele>
        <time>2020-08-08T10:02:31Z</time>
      </trkpt>
      <trkpt lat="45.44204" lon="7.01428">
        <ele>2305.5</ele>
        <time>2020-08-08T10:02:33Z</time>
      </trkpt>
      <trkpt lat="45.44205" lon="7.01422">
        <ele>2305.5</ele>
        <time>2020-08-08T10:02:34Z</time>
      </trkpt>
      <trkpt lat="45.44206" lon="7.01416">
        <ele>2305.6</ele>
        <time>2020-08-08T10:02:36Z</time>
      </trkpt>
      <trkpt lat="45.44207" lon="7.0141">
        <ele>2305.7</ele>
        <time>2020-08-08T10:02:38Z</time>
      </trkpt>
      <trkpt lat="45.44208" lon="7.01405">
        <ele>2305.8</ele>
        <time>2020-08-08T10:02:39Z</time>
      </trkpt>
      <trkpt lat="45.44208" lon="7.01398">
        <ele>2305.9</ele>
        <time>2020-08-08T10:02:40Z</time>
      </trkpt>
      <trkpt lat="45.44209" lon="7.01393">
        <ele>2306</ele>
        <time>2020-08-08T10:02:42Z</time>
      </trkpt>
      <trkpt lat="45.44211" lon="7.01378">
        <ele>2306.3</ele>
        <time>2020-08-08T10:02:44Z</time>
      </trkpt>
      <trkpt lat="45.44211" lon="7.01373">
        <ele>2306.4</ele>
        <time>2020-08-08T10:02:46Z</time>
      </trkpt>
      <trkpt lat="45.44211" lon="7.01364">
        <ele>2306.6</ele>
        <time>2020-08-08T10:02:48Z</time>
      </trkpt>
      <trkpt lat="45.44211" lon="7.01359">
        <ele>2306.6</ele>
        <time>2020-08-08T10:02:51Z</time>
      </trkpt>
      <trkpt lat="45.44211" lon="7.01355">
        <ele>2306.7</ele>
        <time>2020-08-08T10:02:52Z</time>
      </trkpt>
      <trkpt lat="45.44211" lon="7.01348">
        <ele>2306.9</ele>
        <time>2020-08-08T10:02:53Z</time>
      </trkpt>
      <trkpt lat="45.4421" lon="7.01341">
        <ele>2307</ele>
        <time>2020-08-08T10:02:55Z</time>
      </trkpt>
      <trkpt lat="45.44209" lon="7.01337">
        <ele>2307</ele>
        <time>2020-08-08T10:02:57Z</time>
      </trkpt>
      <trkpt lat="45.44209" lon="7.0133">
        <ele>2307.2</ele>
        <time>2020-08-08T10:02:59Z</time>
      </trkpt>
      <trkpt lat="45.44207" lon="7.01323">
        <ele>2307.3</ele>
        <time>2020-08-08T10:03:00Z</time>
      </trkpt>
      <trkpt lat="45.44206" lon="7.01317">
        <ele>2307.3</ele>
        <time>2020-08-08T10:03:02Z</time>
      </trkpt>
      <trkpt lat="45.44204" lon="7.01307">
        <ele>2307.2</ele>
        <time>2020-08-08T10:03:04Z</time>
      </trkpt>
      <trkpt lat="45.44203" lon="7.01302">
        <ele>2307.1</ele>
        <time>2020-08-08T10:03:06Z</time>
      </trkpt>
      <trkpt lat="45.44203" lon="7.01298">
        <ele>2307</ele>
        <time>2020-08-08T10:03:08Z</time>
      </trkpt>
      <trkpt lat="45.442" lon="7.01283">
        <ele>2308.2</ele>
        <time>2020-08-08T10:03:10Z</time>
      </trkpt>
      <trkpt lat="45.44199" lon="7.01278">
        <ele>2308.6</ele>
        <time>2020-08-08T10:03:13Z</time>
      </trkpt>
      <trkpt lat="45.44198" lon="7.01274">
        <ele>2308.9</ele>
        <time>2020-08-08T10:03:14Z</time>
      </trkpt>
      <trkpt lat="45.44198" lon="7.01269">
        <ele>2309.2</ele>
        <time>2020-08-08T10:03:15Z</time>
      </trkpt>
      <trkpt lat="45.44195" lon="7.01254">
        <ele>2310.2</ele>
        <time>2020-08-08T10:03:17Z</time>
      </trkpt>
      <trkpt lat="45.44193" lon="7.01241">
        <ele>2311</ele>
        <time>2020-08-08T10:03:20Z</time>
      </trkpt>
      <trkpt lat="45.44192" lon="7.01235">
        <ele>2311.5</ele>
        <time>2020-08-08T10:03:21Z</time>
      </trkpt>
      <trkpt lat="45.44192" lon="7.01228">
        <ele>2311.9</ele>
        <time>2020-08-08T10:03:22Z</time>
      </trkpt>
      <trkpt lat="45.44191" lon="7.01221">
        <ele>2312.3</ele>
        <time>2020-08-08T10:03:24Z</time>
      </trkpt>
      <trkpt lat="45.44191" lon="7.01205">
        <ele>2313.2</ele>
        <time>2020-08-08T10:03:26Z</time>
      </trkpt>
      <trkpt lat="45.44192" lon="7.01198">
        <ele>2313.5</ele>
        <time>2020-08-08T10:03:28Z</time>
      </trkpt>
      <trkpt lat="45.44193" lon="7.01189">
        <ele>2313.9</ele>
        <time>2020-08-08T10:03:30Z</time>
      </trkpt>
      <trkpt lat="45.44193" lon="7.01178">
        <ele>2314.2</ele>
        <time>2020-08-08T10:03:32Z</time>
      </trkpt>
      <trkpt lat="45.44194" lon="7.01169">
        <ele>2314.5</ele>
        <time>2020-08-08T10:03:34Z</time>
      </trkpt>
      <trkpt lat="45.44193" lon="7.0116">
        <ele>2314.7</ele>
        <time>2020-08-08T10:03:36Z</time>
      </trkpt>
      <trkpt lat="45.44192" lon="7.01154">
        <ele>2314.7</ele>
        <time>2020-08-08T10:03:37Z</time>
      </trkpt>
      <trkpt lat="45.44192" lon="7.01149">
        <ele>2314.8</ele>
        <time>2020-08-08T10:03:38Z</time>
      </trkpt>
      <trkpt lat="45.44191" lon="7.01144">
        <ele>2314.8</ele>
        <time>2020-08-08T10:03:39Z</time>
      </trkpt>
      <trkpt lat="45.44189" lon="7.01129">
        <ele>2314.8</ele>
        <time>2020-08-08T10:03:41Z</time>
      </trkpt>
      <trkpt lat="45.44186" lon="7.01116">
        <ele>2314.7</ele>
        <time>2020-08-08T10:03:43Z</time>
      </trkpt>
      <trkpt lat="45.44184" lon="7.0111">
        <ele>2314.7</ele>
        <time>2020-08-08T10:03:44Z</time>
      </trkpt>
      <trkpt lat="45.44182" lon="7.01102">
        <ele>2314.6</ele>
        <time>2020-08-08T10:03:45Z</time>
      </trkpt>
      <trkpt lat="45.44178" lon="7.01087">
        <ele>2314.6</ele>
        <time>2020-08-08T10:03:47Z</time>
      </trkpt>
      <trkpt lat="45.44173" lon="7.01071">
        <ele>2314.5</ele>
        <time>2020-08-08T10:03:49Z</time>
      </trkpt>
      <trkpt lat="45.44168" lon="7.01053">
        <ele>2314.2</ele>
        <time>2020-08-08T10:03:51Z</time>
      </trkpt>
      <trkpt lat="45.44165" lon="7.01044">
        <ele>2314.1</ele>
        <time>2020-08-08T10:03:52Z</time>
      </trkpt>
      <trkpt lat="45.44163" lon="7.01035">
        <ele>2314</ele>
        <time>2020-08-08T10:03:53Z</time>
      </trkpt>
      <trkpt lat="45.4416" lon="7.01025">
        <ele>2313.8</ele>
        <time>2020-08-08T10:03:54Z</time>
      </trkpt>
      <trkpt lat="45.44155" lon="7.01006">
        <ele>2313.3</ele>
        <time>2020-08-08T10:03:56Z</time>
      </trkpt>
      <trkpt lat="45.44153" lon="7.00996">
        <ele>2313.1</ele>
        <time>2020-08-08T10:03:57Z</time>
      </trkpt>
      <trkpt lat="45.44149" lon="7.00974">
        <ele>2312.5</ele>
        <time>2020-08-08T10:03:59Z</time>
      </trkpt>
      <trkpt lat="45.44147" lon="7.00962">
        <ele>2312.2</ele>
        <time>2020-08-08T10:04:00Z</time>
      </trkpt>
      <trkpt lat="45.44145" lon="7.00937">
        <ele>2311.5</ele>
        <time>2020-08-08T10:04:02Z</time>
      </trkpt>
      <trkpt lat="45.44142" lon="7.00909">
        <ele>2310.6</ele>
        <time>2020-08-08T10:04:04Z</time>
      </trkpt>
      <trkpt lat="45.44138" lon="7.00881">
        <ele>2309.7</ele>
        <time>2020-08-08T10:04:06Z</time>
      </trkpt>
      <trkpt lat="45.44136" lon="7.00867">
        <ele>2309.2</ele>
        <time>2020-08-08T10:04:07Z</time>
      </trkpt>
      <trkpt lat="45.44127" lon="7.0084">
        <ele>2308.2</ele>
        <time>2020-08-08T10:04:09Z</time>
      </trkpt>
      <trkpt lat="45.44122" lon="7.00827">
        <ele>2307.8</ele>
        <time>2020-08-08T10:04:10Z</time>
      </trkpt>
      <trkpt lat="45.44111" lon="7.00802">
        <ele>2307.4</ele>
        <time>2020-08-08T10:04:12Z</time>
      </trkpt>
      <trkpt lat="45.44105" lon="7.0079">
        <ele>2307.3</ele>
        <time>2020-08-08T10:04:13Z</time>
      </trkpt>
      <trkpt lat="45.44096" lon="7.00769">
        <ele>2307.6</ele>
        <time>2020-08-08T10:04:15Z</time>
      </trkpt>
      <trkpt lat="45.44086" lon="7.00749">
        <ele>2308.2</ele>
        <time>2020-08-08T10:04:17Z</time>
      </trkpt>
      <trkpt lat="45.44077" lon="7.00734">
        <ele>2309.2</ele>
        <time>2020-08-08T10:04:19Z</time>
      </trkpt>
      <trkpt lat="45.44072" lon="7.00728">
        <ele>2309.7</ele>
        <time>2020-08-08T10:04:20Z</time>
      </trkpt>
      <trkpt lat="45.44064" lon="7.00716">
        <ele>2310.8</ele>
        <time>2020-08-08T10:04:22Z</time>
      </trkpt>
      <trkpt lat="45.44056" lon="7.00704">
        <ele>2311.9</ele>
        <time>2020-08-08T10:04:24Z</time>
      </trkpt>
      <trkpt lat="45.44053" lon="7.00699">
        <ele>2312.3</ele>
        <time>2020-08-08T10:04:25Z</time>
      </trkpt>
      <trkpt lat="45.44049" lon="7.0069">
        <ele>2313.2</ele>
        <time>2020-08-08T10:04:27Z</time>
      </trkpt>
      <trkpt lat="45.44046" lon="7.00682">
        <ele>2313.9</ele>
        <time>2020-08-08T10:04:29Z</time>
      </trkpt>
      <trkpt lat="45.44044" lon="7.00677">
        <ele>2314.4</ele>
        <time>2020-08-08T10:04:30Z</time>
      </trkpt>
      <trkpt lat="45.44041" lon="7.0067">
        <ele>2315.2</ele>
        <time>2020-08-08T10:04:32Z</time>
      </trkpt>
      <trkpt lat="45.44041" lon="7.00662">
        <ele>2315.9</ele>
        <time>2020-08-08T10:04:33Z</time>
      </trkpt>
      <trkpt lat="45.44038" lon="7.00658">
        <ele>2316.4</ele>
        <time>2020-08-08T10:04:35Z</time>
      </trkpt>
      <trkpt lat="45.44035" lon="7.00655">
        <ele>2316.9</ele>
        <time>2020-08-08T10:04:36Z</time>
      </trkpt>
      <trkpt lat="45.44033" lon="7.00652">
        <ele>2317.3</ele>
        <time>2020-08-08T10:04:37Z</time>
      </trkpt>
      <trkpt lat="45.44029" lon="7.00646">
        <ele>2318</ele>
        <time>2020-08-08T10:04:39Z</time>
      </trkpt>
      <trkpt lat="45.44027" lon="7.00643">
        <ele>2318.3</ele>
        <time>2020-08-08T10:04:40Z</time>
      </trkpt>
      <trkpt lat="45.4402" lon="7.00635">
        <ele>2319.4</ele>
        <time>2020-08-08T10:04:43Z</time>
      </trkpt>
      <trkpt lat="45.44018" lon="7.00632">
        <ele>2319.8</ele>
        <time>2020-08-08T10:04:44Z</time>
      </trkpt>
      <trkpt lat="45.44015" lon="7.00627">
        <ele>2320.3</ele>
        <time>2020-08-08T10:04:46Z</time>
      </trkpt>
      <trkpt lat="45.44012" lon="7.00624">
        <ele>2320.6</ele>
        <time>2020-08-08T10:04:48Z</time>
      </trkpt>
      <trkpt lat="45.4401" lon="7.00622">
        <ele>2320.9</ele>
        <time>2020-08-08T10:04:50Z</time>
      </trkpt>
      <trkpt lat="45.44006" lon="7.00618">
        <ele>2321.4</ele>
        <time>2020-08-08T10:04:51Z</time>
      </trkpt>
      <trkpt lat="45.44002" lon="7.00614">
        <ele>2322</ele>
        <time>2020-08-08T10:04:53Z</time>
      </trkpt>
      <trkpt lat="45.44" lon="7.00612">
        <ele>2322.2</ele>
        <time>2020-08-08T10:04:54Z</time>
      </trkpt>
      <trkpt lat="45.43998" lon="7.0061">
        <ele>2322.5</ele>
        <time>2020-08-08T10:04:55Z</time>
      </trkpt>
      <trkpt lat="45.43995" lon="7.00607">
        <ele>2322.9</ele>
        <time>2020-08-08T10:04:56Z</time>
      </trkpt>
      <trkpt lat="45.43992" lon="7.00605">
        <ele>2323.2</ele>
        <time>2020-08-08T10:04:58Z</time>
      </trkpt>
      <trkpt lat="45.43988" lon="7.00603">
        <ele>2323.7</ele>
        <time>2020-08-08T10:05:00Z</time>
      </trkpt>
      <trkpt lat="45.43987" lon="7.00601">
        <ele>2323.9</ele>
        <time>2020-08-08T10:05:01Z</time>
      </trkpt>
      <trkpt lat="45.43983" lon="7.00598">
        <ele>2324.4</ele>
        <time>2020-08-08T10:05:03Z</time>
      </trkpt>
      <trkpt lat="45.43977" lon="7.00595">
        <ele>2325</ele>
        <time>2020-08-08T10:05:05Z</time>
      </trkpt>
      <trkpt lat="45.43974" lon="7.00593">
        <ele>2325.4</ele>
        <time>2020-08-08T10:05:07Z</time>
      </trkpt>
      <trkpt lat="45.4397" lon="7.0059">
        <ele>2325.8</ele>
        <time>2020-08-08T10:05:08Z</time>
      </trkpt>
      <trkpt lat="45.43969" lon="7.00589">
        <ele>2326</ele>
        <time>2020-08-08T10:05:09Z</time>
      </trkpt>
      <trkpt lat="45.43966" lon="7.00588">
        <ele>2326.3</ele>
        <time>2020-08-08T10:05:10Z</time>
      </trkpt>
      <trkpt lat="45.43963" lon="7.00586">
        <ele>2326.7</ele>
        <time>2020-08-08T10:05:11Z</time>
      </trkpt>
      <trkpt lat="45.4396" lon="7.00584">
        <ele>2327</ele>
        <time>2020-08-08T10:05:13Z</time>
      </trkpt>
      <trkpt lat="45.43956" lon="7.00582">
        <ele>2327.4</ele>
        <time>2020-08-08T10:05:14Z</time>
      </trkpt>
      <trkpt lat="45.43952" lon="7.00579">
        <ele>2327.9</ele>
        <time>2020-08-08T10:05:16Z</time>
      </trkpt>
      <trkpt lat="45.43951" lon="7.00578">
        <ele>2328</ele>
        <time>2020-08-08T10:05:18Z</time>
      </trkpt>
      <trkpt lat="45.4395" lon="7.00576">
        <ele>2328.2</ele>
        <time>2020-08-08T10:05:19Z</time>
      </trkpt>
      <trkpt lat="45.43945" lon="7.00573">
        <ele>2328.7</ele>
        <time>2020-08-08T10:05:20Z</time>
      </trkpt>
      <trkpt lat="45.43942" lon="7.00571">
        <ele>2329</ele>
        <time>2020-08-08T10:05:21Z</time>
      </trkpt>
      <trkpt lat="45.43941" lon="7.00569">
        <ele>2329.2</ele>
        <time>2020-08-08T10:05:22Z</time>
      </trkpt>
      <trkpt lat="45.43938" lon="7.00566">
        <ele>2329.6</ele>
        <time>2020-08-08T10:05:25Z</time>
      </trkpt>
      <trkpt lat="45.43932" lon="7.0056">
        <ele>2330.4</ele>
        <time>2020-08-08T10:05:27Z</time>
      </trkpt>
      <trkpt lat="45.43928" lon="7.00557">
        <ele>2330.8</ele>
        <time>2020-08-08T10:05:28Z</time>
      </trkpt>
      <trkpt lat="45.43927" lon="7.00555">
        <ele>2330.9</ele>
        <time>2020-08-08T10:05:29Z</time>
      </trkpt>
      <trkpt lat="45.43925" lon="7.00551">
        <ele>2331.3</ele>
        <time>2020-08-08T10:05:32Z</time>
      </trkpt>
      <trkpt lat="45.43922" lon="7.00547">
        <ele>2331.7</ele>
        <time>2020-08-08T10:05:34Z</time>
      </trkpt>
      <trkpt lat="45.4392" lon="7.00543">
        <ele>2332.1</ele>
        <time>2020-08-08T10:05:35Z</time>
      </trkpt>
      <trkpt lat="45.4392" lon="7.00541">
        <ele>2332.2</ele>
        <time>2020-08-08T10:05:36Z</time>
      </trkpt>
      <trkpt lat="45.43918" lon="7.00537">
        <ele>2332.6</ele>
        <time>2020-08-08T10:05:37Z</time>
      </trkpt>
      <trkpt lat="45.43915" lon="7.00534">
        <ele>2333</ele>
        <time>2020-08-08T10:05:38Z</time>
      </trkpt>
      <trkpt lat="45.43914" lon="7.00533">
        <ele>2333.1</ele>
        <time>2020-08-08T10:05:39Z</time>
      </trkpt>
      <trkpt lat="45.43913" lon="7.00531">
        <ele>2333.3</ele>
        <time>2020-08-08T10:05:40Z</time>
      </trkpt>
      <trkpt lat="45.43909" lon="7.00525">
        <ele>2333.9</ele>
        <time>2020-08-08T10:05:42Z</time>
      </trkpt>
      <trkpt lat="45.43907" lon="7.00524">
        <ele>2334.2</ele>
        <time>2020-08-08T10:05:43Z</time>
      </trkpt>
      <trkpt lat="45.43905" lon="7.00522">
        <ele>2334.4</ele>
        <time>2020-08-08T10:05:45Z</time>
      </trkpt>
      <trkpt lat="45.43901" lon="7.00519">
        <ele>2334.8</ele>
        <time>2020-08-08T10:05:46Z</time>
      </trkpt>
      <trkpt lat="45.439" lon="7.00517">
        <ele>2335</ele>
        <time>2020-08-08T10:05:47Z</time>
      </trkpt>
      <trkpt lat="45.43892" lon="7.00513">
        <ele>2335.8</ele>
        <time>2020-08-08T10:05:50Z</time>
      </trkpt>
      <trkpt lat="45.43887" lon="7.00511">
        <ele>2336.4</ele>
        <time>2020-08-08T10:05:52Z</time>
      </trkpt>
      <trkpt lat="45.43884" lon="7.0051">
        <ele>2336.6</ele>
        <time>2020-08-08T10:05:54Z</time>
      </trkpt>
      <trkpt lat="45.43882" lon="7.00509">
        <ele>2336.9</ele>
        <time>2020-08-08T10:05:55Z</time>
      </trkpt>
      <trkpt lat="45.4388" lon="7.00509">
        <ele>2337.1</ele>
        <time>2020-08-08T10:05:56Z</time>
      </trkpt>
      <trkpt lat="45.43877" lon="7.00508">
        <ele>2337.3</ele>
        <time>2020-08-08T10:05:57Z</time>
      </trkpt>
      <trkpt lat="45.43872" lon="7.00507">
        <ele>2337.8</ele>
        <time>2020-08-08T10:05:59Z</time>
      </trkpt>
      <trkpt lat="45.43869" lon="7.00506">
        <ele>2338.2</ele>
        <time>2020-08-08T10:06:00Z</time>
      </trkpt>
      <trkpt lat="45.43866" lon="7.00504">
        <ele>2338.5</ele>
        <time>2020-08-08T10:06:02Z</time>
      </trkpt>
      <trkpt lat="45.43861" lon="7.005">
        <ele>2339.1</ele>
        <time>2020-08-08T10:06:04Z</time>
      </trkpt>
      <trkpt lat="45.43853" lon="7.00496">
        <ele>2339.9</ele>
        <time>2020-08-08T10:06:07Z</time>
      </trkpt>
      <trkpt lat="45.4385" lon="7.00494">
        <ele>2340.2</ele>
        <time>2020-08-08T10:06:09Z</time>
      </trkpt>
      <trkpt lat="45.43847" lon="7.00493">
        <ele>2340.5</ele>
        <time>2020-08-08T10:06:10Z</time>
      </trkpt>
      <trkpt lat="45.43842" lon="7.0049">
        <ele>2341.1</ele>
        <time>2020-08-08T10:06:12Z</time>
      </trkpt>
      <trkpt lat="45.43839" lon="7.00489">
        <ele>2341.4</ele>
        <time>2020-08-08T10:06:14Z</time>
      </trkpt>
      <trkpt lat="45.43836" lon="7.00488">
        <ele>2341.7</ele>
        <time>2020-08-08T10:06:15Z</time>
      </trkpt>
      <trkpt lat="45.43834" lon="7.00486">
        <ele>2342</ele>
        <time>2020-08-08T10:06:16Z</time>
      </trkpt>
      <trkpt lat="45.4383" lon="7.00484">
        <ele>2342.4</ele>
        <time>2020-08-08T10:06:17Z</time>
      </trkpt>
      <trkpt lat="45.43829" lon="7.00484">
        <ele>2342.5</ele>
        <time>2020-08-08T10:06:18Z</time>
      </trkpt>
      <trkpt lat="45.43826" lon="7.00481">
        <ele>2342.9</ele>
        <time>2020-08-08T10:06:21Z</time>
      </trkpt>
      <trkpt lat="45.43825" lon="7.0048">
        <ele>2343</ele>
        <time>2020-08-08T10:06:22Z</time>
      </trkpt>
      <trkpt lat="45.43822" lon="7.00478">
        <ele>2343.3</ele>
        <time>2020-08-08T10:06:23Z</time>
      </trkpt>
      <trkpt lat="45.4382" lon="7.00477">
        <ele>2343.5</ele>
        <time>2020-08-08T10:06:24Z</time>
      </trkpt>
      <trkpt lat="45.43817" lon="7.00475">
        <ele>2343.9</ele>
        <time>2020-08-08T10:06:26Z</time>
      </trkpt>
      <trkpt lat="45.4381" lon="7.0047">
        <ele>2344.7</ele>
        <time>2020-08-08T10:06:28Z</time>
      </trkpt>
      <trkpt lat="45.43808" lon="7.00468">
        <ele>2344.9</ele>
        <time>2020-08-08T10:06:29Z</time>
      </trkpt>
      <trkpt lat="45.43806" lon="7.00467">
        <ele>2345.1</ele>
        <time>2020-08-08T10:06:31Z</time>
      </trkpt>
      <trkpt lat="45.43803" lon="7.00464">
        <ele>2345.5</ele>
        <time>2020-08-08T10:06:32Z</time>
      </trkpt>
      <trkpt lat="45.43802" lon="7.00463">
        <ele>2345.6</ele>
        <time>2020-08-08T10:06:33Z</time>
      </trkpt>
      <trkpt lat="45.438" lon="7.00461">
        <ele>2345.9</ele>
        <time>2020-08-08T10:06:35Z</time>
      </trkpt>
      <trkpt lat="45.43796" lon="7.00458">
        <ele>2346.3</ele>
        <time>2020-08-08T10:06:36Z</time>
      </trkpt>
      <trkpt lat="45.43793" lon="7.00457">
        <ele>2346.6</ele>
        <time>2020-08-08T10:06:37Z</time>
      </trkpt>
      <trkpt lat="45.4379" lon="7.00454">
        <ele>2347</ele>
        <time>2020-08-08T10:06:39Z</time>
      </trkpt>
      <trkpt lat="45.43787" lon="7.00451">
        <ele>2347.4</ele>
        <time>2020-08-08T10:06:41Z</time>
      </trkpt>
      <trkpt lat="45.43786" lon="7.0045">
        <ele>2347.5</ele>
        <time>2020-08-08T10:06:42Z</time>
      </trkpt>
      <trkpt lat="45.4378" lon="7.00446">
        <ele>2348.2</ele>
        <time>2020-08-08T10:06:43Z</time>
      </trkpt>
      <trkpt lat="45.43776" lon="7.00444">
        <ele>2348.6</ele>
        <time>2020-08-08T10:06:45Z</time>
      </trkpt>
      <trkpt lat="45.43769" lon="7.0044">
        <ele>2349.3</ele>
        <time>2020-08-08T10:06:48Z</time>
      </trkpt>
      <trkpt lat="45.43764" lon="7.00436">
        <ele>2349.9</ele>
        <time>2020-08-08T10:06:51Z</time>
      </trkpt>
      <trkpt lat="45.43759" lon="7.00434">
        <ele>2350.4</ele>
        <time>2020-08-08T10:06:53Z</time>
      </trkpt>
      <trkpt lat="45.43755" lon="7.00432">
        <ele>2350.7</ele>
        <time>2020-08-08T10:06:54Z</time>
      </trkpt>
      <trkpt lat="45.43753" lon="7.0043">
        <ele>2351</ele>
        <time>2020-08-08T10:06:55Z</time>
      </trkpt>
      <trkpt lat="45.4375" lon="7.00429">
        <ele>2351.2</ele>
        <time>2020-08-08T10:06:56Z</time>
      </trkpt>
      <trkpt lat="45.43743" lon="7.00427">
        <ele>2351.9</ele>
        <time>2020-08-08T10:06:59Z</time>
      </trkpt>
      <trkpt lat="45.43739" lon="7.00426">
        <ele>2352.3</ele>
        <time>2020-08-08T10:07:01Z</time>
      </trkpt>
      <trkpt lat="45.43736" lon="7.00425">
        <ele>2352.5</ele>
        <time>2020-08-08T10:07:03Z</time>
      </trkpt>
      <trkpt lat="45.43731" lon="7.00424">
        <ele>2352.9</ele>
        <time>2020-08-08T10:07:05Z</time>
      </trkpt>
      <trkpt lat="45.43726" lon="7.00423">
        <ele>2353.3</ele>
        <time>2020-08-08T10:07:06Z</time>
      </trkpt>
      <trkpt lat="45.43723" lon="7.00422">
        <ele>2353.6</ele>
        <time>2020-08-08T10:07:07Z</time>
      </trkpt>
      <trkpt lat="45.4372" lon="7.00421">
        <ele>2353.9</ele>
        <time>2020-08-08T10:07:09Z</time>
      </trkpt>
      <trkpt lat="45.43716" lon="7.0042">
        <ele>2354.2</ele>
        <time>2020-08-08T10:07:11Z</time>
      </trkpt>
      <trkpt lat="45.43713" lon="7.00417">
        <ele>2354.5</ele>
        <time>2020-08-08T10:07:12Z</time>
      </trkpt>
      <trkpt lat="45.4371" lon="7.00415">
        <ele>2354.8</ele>
        <time>2020-08-08T10:07:13Z</time>
      </trkpt>
      <trkpt lat="45.43706" lon="7.00413">
        <ele>2355.2</ele>
        <time>2020-08-08T10:07:15Z</time>
      </trkpt>
      <trkpt lat="45.43705" lon="7.00412">
        <ele>2355.4</ele>
        <time>2020-08-08T10:07:16Z</time>
      </trkpt>
      <trkpt lat="45.43702" lon="7.0041">
        <ele>2355.6</ele>
        <time>2020-08-08T10:07:18Z</time>
      </trkpt>
      <trkpt lat="45.43698" lon="7.00408">
        <ele>2356</ele>
        <time>2020-08-08T10:07:19Z</time>
      </trkpt>
      <trkpt lat="45.43695" lon="7.00403">
        <ele>2356.5</ele>
        <time>2020-08-08T10:07:21Z</time>
      </trkpt>
      <trkpt lat="45.43693" lon="7.00401">
        <ele>2356.7</ele>
        <time>2020-08-08T10:07:22Z</time>
      </trkpt>
      <trkpt lat="45.43689" lon="7.00396">
        <ele>2357.2</ele>
        <time>2020-08-08T10:07:24Z</time>
      </trkpt>
      <trkpt lat="45.43687" lon="7.00394">
        <ele>2357.5</ele>
        <time>2020-08-08T10:07:26Z</time>
      </trkpt>
      <trkpt lat="45.43679" lon="7.00388">
        <ele>2358.3</ele>
        <time>2020-08-08T10:07:28Z</time>
      </trkpt>
      <trkpt lat="45.43676" lon="7.00385">
        <ele>2358.7</ele>
        <time>2020-08-08T10:07:29Z</time>
      </trkpt>
      <trkpt lat="45.43671" lon="7.0038">
        <ele>2359.2</ele>
        <time>2020-08-08T10:07:31Z</time>
      </trkpt>
      <trkpt lat="45.43669" lon="7.00377">
        <ele>2359.4</ele>
        <time>2020-08-08T10:07:33Z</time>
      </trkpt>
      <trkpt lat="45.43667" lon="7.00375">
        <ele>2359.7</ele>
        <time>2020-08-08T10:07:34Z</time>
      </trkpt>
      <trkpt lat="45.43665" lon="7.00372">
        <ele>2359.9</ele>
        <time>2020-08-08T10:07:35Z</time>
      </trkpt>
      <trkpt lat="45.43662" lon="7.00368">
        <ele>2360.2</ele>
        <time>2020-08-08T10:07:37Z</time>
      </trkpt>
      <trkpt lat="45.43659" lon="7.00364">
        <ele>2360.5</ele>
        <time>2020-08-08T10:07:39Z</time>
      </trkpt>
      <trkpt lat="45.43656" lon="7.00359">
        <ele>2360.9</ele>
        <time>2020-08-08T10:07:40Z</time>
      </trkpt>
      <trkpt lat="45.43653" lon="7.00355">
        <ele>2361.2</ele>
        <time>2020-08-08T10:07:41Z</time>
      </trkpt>
      <trkpt lat="45.43651" lon="7.00351">
        <ele>2361.4</ele>
        <time>2020-08-08T10:07:42Z</time>
      </trkpt>
      <trkpt lat="45.43647" lon="7.00345">
        <ele>2361.7</ele>
        <time>2020-08-08T10:07:45Z</time>
      </trkpt>
      <trkpt lat="45.43645" lon="7.00342">
        <ele>2361.8</ele>
        <time>2020-08-08T10:07:46Z</time>
      </trkpt>
      <trkpt lat="45.43642" lon="7.00337">
        <ele>2362</ele>
        <time>2020-08-08T10:07:47Z</time>
      </trkpt>
      <trkpt lat="45.43639" lon="7.00332">
        <ele>2362.4</ele>
        <time>2020-08-08T10:07:48Z</time>
      </trkpt>
      <trkpt lat="45.43635" lon="7.00323">
        <ele>2363</ele>
        <time>2020-08-08T10:07:51Z</time>
      </trkpt>
      <trkpt lat="45.43633" lon="7.0032">
        <ele>2363.2</ele>
        <time>2020-08-08T10:07:52Z</time>
      </trkpt>
      <trkpt lat="45.43631" lon="7.00317">
        <ele>2363.5</ele>
        <time>2020-08-08T10:07:53Z</time>
      </trkpt>
      <trkpt lat="45.4363" lon="7.00312">
        <ele>2363.8</ele>
        <time>2020-08-08T10:07:56Z</time>
      </trkpt>
      <trkpt lat="45.43627" lon="7.00308">
        <ele>2364.2</ele>
        <time>2020-08-08T10:07:57Z</time>
      </trkpt>
      <trkpt lat="45.43625" lon="7.00304">
        <ele>2364.5</ele>
        <time>2020-08-08T10:07:58Z</time>
      </trkpt>
      <trkpt lat="45.43622" lon="7.003">
        <ele>2364.8</ele>
        <time>2020-08-08T10:07:59Z</time>
      </trkpt>
      <trkpt lat="45.43621" lon="7.00298">
        <ele>2364.9</ele>
        <time>2020-08-08T10:08:00Z</time>
      </trkpt>
      <trkpt lat="45.43618" lon="7.00294">
        <ele>2365.3</ele>
        <time>2020-08-08T10:08:02Z</time>
      </trkpt>
      <trkpt lat="45.43615" lon="7.00291">
        <ele>2365.6</ele>
        <time>2020-08-08T10:08:03Z</time>
      </trkpt>
      <trkpt lat="45.43611" lon="7.00288">
        <ele>2366</ele>
        <time>2020-08-08T10:08:06Z</time>
      </trkpt>
      <trkpt lat="45.43606" lon="7.00284">
        <ele>2366.3</ele>
        <time>2020-08-08T10:08:07Z</time>
      </trkpt>
      <trkpt lat="45.43602" lon="7.00282">
        <ele>2366.7</ele>
        <time>2020-08-08T10:08:09Z</time>
      </trkpt>
      <trkpt lat="45.43597" lon="7.00279">
        <ele>2367</ele>
        <time>2020-08-08T10:08:11Z</time>
      </trkpt>
      <trkpt lat="45.43591" lon="7.00276">
        <ele>2367.4</ele>
        <time>2020-08-08T10:08:13Z</time>
      </trkpt>
      <trkpt lat="45.43588" lon="7.00274">
        <ele>2367.6</ele>
        <time>2020-08-08T10:08:14Z</time>
      </trkpt>
      <trkpt lat="45.43584" lon="7.0027">
        <ele>2368</ele>
        <time>2020-08-08T10:08:17Z</time>
      </trkpt>
      <trkpt lat="45.4358" lon="7.00268">
        <ele>2368.2</ele>
        <time>2020-08-08T10:08:18Z</time>
      </trkpt>
      <trkpt lat="45.43574" lon="7.00265">
        <ele>2368.6</ele>
        <time>2020-08-08T10:08:19Z</time>
      </trkpt>
      <trkpt lat="45.43568" lon="7.00261">
        <ele>2369.1</ele>
        <time>2020-08-08T10:08:22Z</time>
      </trkpt>
      <trkpt lat="45.43565" lon="7.00258">
        <ele>2369.3</ele>
        <time>2020-08-08T10:08:23Z</time>
      </trkpt>
      <trkpt lat="45.43562" lon="7.00256">
        <ele>2369.5</ele>
        <time>2020-08-08T10:08:25Z</time>
      </trkpt>
      <trkpt lat="45.43559" lon="7.00254">
        <ele>2369.7</ele>
        <time>2020-08-08T10:08:26Z</time>
      </trkpt>
      <trkpt lat="45.43555" lon="7.00251">
        <ele>2370</ele>
        <time>2020-08-08T10:08:28Z</time>
      </trkpt>
      <trkpt lat="45.4355" lon="7.00247">
        <ele>2370.4</ele>
        <time>2020-08-08T10:08:30Z</time>
      </trkpt>
      <trkpt lat="45.43544" lon="7.00243">
        <ele>2370.9</ele>
        <time>2020-08-08T10:08:32Z</time>
      </trkpt>
      <trkpt lat="45.4354" lon="7.00239">
        <ele>2371.2</ele>
        <time>2020-08-08T10:08:34Z</time>
      </trkpt>
      <trkpt lat="45.43537" lon="7.00237">
        <ele>2371.4</ele>
        <time>2020-08-08T10:08:35Z</time>
      </trkpt>
      <trkpt lat="45.43534" lon="7.00235">
        <ele>2371.6</ele>
        <time>2020-08-08T10:08:36Z</time>
      </trkpt>
      <trkpt lat="45.43531" lon="7.00232">
        <ele>2371.9</ele>
        <time>2020-08-08T10:08:38Z</time>
      </trkpt>
      <trkpt lat="45.43525" lon="7.00229">
        <ele>2372.3</ele>
        <time>2020-08-08T10:08:40Z</time>
      </trkpt>
      <trkpt lat="45.43522" lon="7.00227">
        <ele>2372.6</ele>
        <time>2020-08-08T10:08:41Z</time>
      </trkpt>
      <trkpt lat="45.43518" lon="7.00225">
        <ele>2372.9</ele>
        <time>2020-08-08T10:08:44Z</time>
      </trkpt>
      <trkpt lat="45.43514" lon="7.00223">
        <ele>2373.2</ele>
        <time>2020-08-08T10:08:45Z</time>
      </trkpt>
      <trkpt lat="45.43512" lon="7.00222">
        <ele>2373.4</ele>
        <time>2020-08-08T10:08:46Z</time>
      </trkpt>
      <trkpt lat="45.43509" lon="7.00222">
        <ele>2373.6</ele>
        <time>2020-08-08T10:08:48Z</time>
      </trkpt>
      <trkpt lat="45.43505" lon="7.00221">
        <ele>2373.9</ele>
        <time>2020-08-08T10:08:49Z</time>
      </trkpt>
      <trkpt lat="45.43502" lon="7.00221">
        <ele>2374.1</ele>
        <time>2020-08-08T10:08:50Z</time>
      </trkpt>
      <trkpt lat="45.43497" lon="7.00221">
        <ele>2374.5</ele>
        <time>2020-08-08T10:08:52Z</time>
      </trkpt>
      <trkpt lat="45.43495" lon="7.00222">
        <ele>2374.7</ele>
        <time>2020-08-08T10:08:53Z</time>
      </trkpt>
      <trkpt lat="45.43492" lon="7.00223">
        <ele>2374.9</ele>
        <time>2020-08-08T10:08:54Z</time>
      </trkpt>
      <trkpt lat="45.43488" lon="7.00224">
        <ele>2375.2</ele>
        <time>2020-08-08T10:08:57Z</time>
      </trkpt>
      <trkpt lat="45.43484" lon="7.00225">
        <ele>2375.5</ele>
        <time>2020-08-08T10:08:58Z</time>
      </trkpt>
      <trkpt lat="45.43482" lon="7.00224">
        <ele>2375.7</ele>
        <time>2020-08-08T10:09:00Z</time>
      </trkpt>
      <trkpt lat="45.43479" lon="7.00224">
        <ele>2375.9</ele>
        <time>2020-08-08T10:09:01Z</time>
      </trkpt>
      <trkpt lat="45.43476" lon="7.00226">
        <ele>2376.2</ele>
        <time>2020-08-08T10:09:03Z</time>
      </trkpt>
      <trkpt lat="45.43474" lon="7.00226">
        <ele>2376.4</ele>
        <time>2020-08-08T10:09:04Z</time>
      </trkpt>
      <trkpt lat="45.4347" lon="7.00224">
        <ele>2376.8</ele>
        <time>2020-08-08T10:09:06Z</time>
      </trkpt>
      <trkpt lat="45.43464" lon="7.00222">
        <ele>2377.4</ele>
        <time>2020-08-08T10:09:08Z</time>
      </trkpt>
      <trkpt lat="45.43462" lon="7.00221">
        <ele>2377.6</ele>
        <time>2020-08-08T10:09:09Z</time>
      </trkpt>
      <trkpt lat="45.4346" lon="7.0022">
        <ele>2377.8</ele>
        <time>2020-08-08T10:09:11Z</time>
      </trkpt>
      <trkpt lat="45.43456" lon="7.00219">
        <ele>2378.1</ele>
        <time>2020-08-08T10:09:12Z</time>
      </trkpt>
      <trkpt lat="45.43455" lon="7.00218">
        <ele>2378.2</ele>
        <time>2020-08-08T10:09:13Z</time>
      </trkpt>
      <trkpt lat="45.43451" lon="7.00216">
        <ele>2378.6</ele>
        <time>2020-08-08T10:09:14Z</time>
      </trkpt>
      <trkpt lat="45.4345" lon="7.00214">
        <ele>2378.8</ele>
        <time>2020-08-08T10:09:15Z</time>
      </trkpt>
      <trkpt lat="45.43445" lon="7.00211">
        <ele>2379.4</ele>
        <time>2020-08-08T10:09:18Z</time>
      </trkpt>
      <trkpt lat="45.43443" lon="7.0021">
        <ele>2379.7</ele>
        <time>2020-08-08T10:09:19Z</time>
      </trkpt>
      <trkpt lat="45.4344" lon="7.00209">
        <ele>2379.9</ele>
        <time>2020-08-08T10:09:20Z</time>
      </trkpt>
      <trkpt lat="45.43439" lon="7.00208">
        <ele>2380.1</ele>
        <time>2020-08-08T10:09:22Z</time>
      </trkpt>
      <trkpt lat="45.43433" lon="7.00205">
        <ele>2380.7</ele>
        <time>2020-08-08T10:09:24Z</time>
      </trkpt>
      <trkpt lat="45.43429" lon="7.00204">
        <ele>2381.2</ele>
        <time>2020-08-08T10:09:27Z</time>
      </trkpt>
      <trkpt lat="45.43428" lon="7.00203">
        <ele>2381.3</ele>
        <time>2020-08-08T10:09:28Z</time>
      </trkpt>
      <trkpt lat="45.43426" lon="7.00202">
        <ele>2381.6</ele>
        <time>2020-08-08T10:09:29Z</time>
      </trkpt>
      <trkpt lat="45.43424" lon="7.00201">
        <ele>2381.8</ele>
        <time>2020-08-08T10:09:31Z</time>
      </trkpt>
      <trkpt lat="45.43419" lon="7.00199">
        <ele>2382.4</ele>
        <time>2020-08-08T10:09:32Z</time>
      </trkpt>
      <trkpt lat="45.43415" lon="7.00199">
        <ele>2382.8</ele>
        <time>2020-08-08T10:09:33Z</time>
      </trkpt>
      <trkpt lat="45.43414" lon="7.00198">
        <ele>2382.9</ele>
        <time>2020-08-08T10:09:34Z</time>
      </trkpt>
      <trkpt lat="45.43411" lon="7.00198">
        <ele>2383.2</ele>
        <time>2020-08-08T10:09:36Z</time>
      </trkpt>
      <trkpt lat="45.4341" lon="7.00199">
        <ele>2383.4</ele>
        <time>2020-08-08T10:09:37Z</time>
      </trkpt>
      <trkpt lat="45.43407" lon="7.00199">
        <ele>2383.7</ele>
        <time>2020-08-08T10:09:38Z</time>
      </trkpt>
      <trkpt lat="45.43406" lon="7.00199">
        <ele>2383.8</ele>
        <time>2020-08-08T10:09:39Z</time>
      </trkpt>
      <trkpt lat="45.43401" lon="7.00202">
        <ele>2384.3</ele>
        <time>2020-08-08T10:09:41Z</time>
      </trkpt>
      <trkpt lat="45.43398" lon="7.00204">
        <ele>2384.7</ele>
        <time>2020-08-08T10:09:44Z</time>
      </trkpt>
      <trkpt lat="45.43395" lon="7.0021">
        <ele>2385.1</ele>
        <time>2020-08-08T10:09:46Z</time>
      </trkpt>
      <trkpt lat="45.43392" lon="7.00215">
        <ele>2385.5</ele>
        <time>2020-08-08T10:09:47Z</time>
      </trkpt>
      <trkpt lat="45.4339" lon="7.00217">
        <ele>2385.7</ele>
        <time>2020-08-08T10:09:48Z</time>
      </trkpt>
      <trkpt lat="45.43389" lon="7.0022">
        <ele>2385.9</ele>
        <time>2020-08-08T10:09:49Z</time>
      </trkpt>
      <trkpt lat="45.43387" lon="7.00224">
        <ele>2386.1</ele>
        <time>2020-08-08T10:09:51Z</time>
      </trkpt>
      <trkpt lat="45.43384" lon="7.00228">
        <ele>2386.4</ele>
        <time>2020-08-08T10:09:52Z</time>
      </trkpt>
      <trkpt lat="45.43384" lon="7.00229">
        <ele>2386.5</ele>
        <time>2020-08-08T10:09:53Z</time>
      </trkpt>
      <trkpt lat="45.4338" lon="7.00235">
        <ele>2386.9</ele>
        <time>2020-08-08T10:09:55Z</time>
      </trkpt>
      <trkpt lat="45.43376" lon="7.00242">
        <ele>2387.3</ele>
        <time>2020-08-08T10:09:57Z</time>
      </trkpt>
      <trkpt lat="45.43374" lon="7.00245">
        <ele>2387.5</ele>
        <time>2020-08-08T10:09:59Z</time>
      </trkpt>
      <trkpt lat="45.43372" lon="7.00248">
        <ele>2387.7</ele>
        <time>2020-08-08T10:10:00Z</time>
      </trkpt>
      <trkpt lat="45.4337" lon="7.0025">
        <ele>2387.8</ele>
        <time>2020-08-08T10:10:01Z</time>
      </trkpt>
      <trkpt lat="45.43367" lon="7.00254">
        <ele>2388.1</ele>
        <time>2020-08-08T10:10:03Z</time>
      </trkpt>
      <trkpt lat="45.43365" lon="7.00257">
        <ele>2388.3</ele>
        <time>2020-08-08T10:10:05Z</time>
      </trkpt>
      <trkpt lat="45.43362" lon="7.00259">
        <ele>2388.5</ele>
        <time>2020-08-08T10:10:06Z</time>
      </trkpt>
      <trkpt lat="45.43357" lon="7.0026">
        <ele>2388.9</ele>
        <time>2020-08-08T10:10:09Z</time>
      </trkpt>
      <trkpt lat="45.43355" lon="7.0026">
        <ele>2389.1</ele>
        <time>2020-08-08T10:10:10Z</time>
      </trkpt>
      <trkpt lat="45.43353" lon="7.00259">
        <ele>2389.2</ele>
        <time>2020-08-08T10:10:11Z</time>
      </trkpt>
      <trkpt lat="45.43349" lon="7.00258">
        <ele>2389.5</ele>
        <time>2020-08-08T10:10:12Z</time>
      </trkpt>
      <trkpt lat="45.43346" lon="7.00256">
        <ele>2389.8</ele>
        <time>2020-08-08T10:10:14Z</time>
      </trkpt>
      <trkpt lat="45.43344" lon="7.00256">
        <ele>2390</ele>
        <time>2020-08-08T10:10:16Z</time>
      </trkpt>
      <trkpt lat="45.43339" lon="7.00254">
        <ele>2390.3</ele>
        <time>2020-08-08T10:10:18Z</time>
      </trkpt>
      <trkpt lat="45.43337" lon="7.00252">
        <ele>2390.5</ele>
        <time>2020-08-08T10:10:19Z</time>
      </trkpt>
      <trkpt lat="45.43333" lon="7.00247">
        <ele>2390.9</ele>
        <time>2020-08-08T10:10:21Z</time>
      </trkpt>
      <trkpt lat="45.43327" lon="7.00244">
        <ele>2391.4</ele>
        <time>2020-08-08T10:10:22Z</time>
      </trkpt>
      <trkpt lat="45.43325" lon="7.00241">
        <ele>2391.6</ele>
        <time>2020-08-08T10:10:24Z</time>
      </trkpt>
      <trkpt lat="45.43321" lon="7.00239">
        <ele>2391.9</ele>
        <time>2020-08-08T10:10:26Z</time>
      </trkpt>
      <trkpt lat="45.43314" lon="7.00236">
        <ele>2392.4</ele>
        <time>2020-08-08T10:10:29Z</time>
      </trkpt>
      <trkpt lat="45.43312" lon="7.00235">
        <ele>2392.6</ele>
        <time>2020-08-08T10:10:31Z</time>
      </trkpt>
      <trkpt lat="45.43307" lon="7.00231">
        <ele>2392.9</ele>
        <time>2020-08-08T10:10:33Z</time>
      </trkpt>
      <trkpt lat="45.43304" lon="7.0023">
        <ele>2393.2</ele>
        <time>2020-08-08T10:10:34Z</time>
      </trkpt>
      <trkpt lat="45.43301" lon="7.00229">
        <ele>2393.4</ele>
        <time>2020-08-08T10:10:37Z</time>
      </trkpt>
      <trkpt lat="45.43296" lon="7.00227">
        <ele>2393.7</ele>
        <time>2020-08-08T10:10:38Z</time>
      </trkpt>
      <trkpt lat="45.43292" lon="7.00226">
        <ele>2394</ele>
        <time>2020-08-08T10:10:40Z</time>
      </trkpt>
      <trkpt lat="45.43288" lon="7.00225">
        <ele>2394.1</ele>
        <time>2020-08-08T10:10:42Z</time>
      </trkpt>
      <trkpt lat="45.43283" lon="7.00225">
        <ele>2394.4</ele>
        <time>2020-08-08T10:10:44Z</time>
      </trkpt>
      <trkpt lat="45.43278" lon="7.00224">
        <ele>2394.8</ele>
        <time>2020-08-08T10:10:45Z</time>
      </trkpt>
      <trkpt lat="45.43272" lon="7.00222">
        <ele>2395.1</ele>
        <time>2020-08-08T10:10:48Z</time>
      </trkpt>
      <trkpt lat="45.4327" lon="7.00222">
        <ele>2395.2</ele>
        <time>2020-08-08T10:10:49Z</time>
      </trkpt>
      <trkpt lat="45.43268" lon="7.00221">
        <ele>2395.3</ele>
        <time>2020-08-08T10:10:50Z</time>
      </trkpt>
      <trkpt lat="45.43264" lon="7.0022">
        <ele>2395.5</ele>
        <time>2020-08-08T10:10:51Z</time>
      </trkpt>
      <trkpt lat="45.43259" lon="7.00219">
        <ele>2395.8</ele>
        <time>2020-08-08T10:10:53Z</time>
      </trkpt>
      <trkpt lat="45.43257" lon="7.00218">
        <ele>2395.9</ele>
        <time>2020-08-08T10:10:55Z</time>
      </trkpt>
      <trkpt lat="45.43248" lon="7.00216">
        <ele>2396.4</ele>
        <time>2020-08-08T10:10:57Z</time>
      </trkpt>
      <trkpt lat="45.43245" lon="7.00215">
        <ele>2396.6</ele>
        <time>2020-08-08T10:11:00Z</time>
      </trkpt>
      <trkpt lat="45.43241" lon="7.00212">
        <ele>2396.8</ele>
        <time>2020-08-08T10:11:01Z</time>
      </trkpt>
      <trkpt lat="45.43238" lon="7.00211">
        <ele>2397</ele>
        <time>2020-08-08T10:11:02Z</time>
      </trkpt>
      <trkpt lat="45.43232" lon="7.0021">
        <ele>2397.3</ele>
        <time>2020-08-08T10:11:04Z</time>
      </trkpt>
      <trkpt lat="45.43229" lon="7.00209">
        <ele>2397.5</ele>
        <time>2020-08-08T10:11:05Z</time>
      </trkpt>
      <trkpt lat="45.43226" lon="7.00208">
        <ele>2397.7</ele>
        <time>2020-08-08T10:11:08Z</time>
      </trkpt>
      <trkpt lat="45.43221" lon="7.00206">
        <ele>2398</ele>
        <time>2020-08-08T10:11:09Z</time>
      </trkpt>
      <trkpt lat="45.43216" lon="7.00202">
        <ele>2398.3</ele>
        <time>2020-08-08T10:11:11Z</time>
      </trkpt>
      <trkpt lat="45.43213" lon="7.002">
        <ele>2398.5</ele>
        <time>2020-08-08T10:11:12Z</time>
      </trkpt>
      <trkpt lat="45.43208" lon="7.00196">
        <ele>2398.9</ele>
        <time>2020-08-08T10:11:15Z</time>
      </trkpt>
      <trkpt lat="45.43206" lon="7.00194">
        <ele>2399</ele>
        <time>2020-08-08T10:11:16Z</time>
      </trkpt>
      <trkpt lat="45.43204" lon="7.00191">
        <ele>2399.1</ele>
        <time>2020-08-08T10:11:17Z</time>
      </trkpt>
      <trkpt lat="45.43199" lon="7.00188">
        <ele>2399.4</ele>
        <time>2020-08-08T10:11:19Z</time>
      </trkpt>
      <trkpt lat="45.43196" lon="7.00185">
        <ele>2399.6</ele>
        <time>2020-08-08T10:11:20Z</time>
      </trkpt>
      <trkpt lat="45.43192" lon="7.00183">
        <ele>2399.9</ele>
        <time>2020-08-08T10:11:21Z</time>
      </trkpt>
      <trkpt lat="45.43191" lon="7.00183">
        <ele>2400</ele>
        <time>2020-08-08T10:11:22Z</time>
      </trkpt>
      <trkpt lat="45.43188" lon="7.00181">
        <ele>2400.2</ele>
        <time>2020-08-08T10:11:23Z</time>
      </trkpt>
      <trkpt lat="45.43186" lon="7.00179">
        <ele>2400.4</ele>
        <time>2020-08-08T10:11:24Z</time>
      </trkpt>
      <trkpt lat="45.43184" lon="7.00177">
        <ele>2400.6</ele>
        <time>2020-08-08T10:11:26Z</time>
      </trkpt>
      <trkpt lat="45.4318" lon="7.00175">
        <ele>2400.9</ele>
        <time>2020-08-08T10:11:27Z</time>
      </trkpt>
      <trkpt lat="45.43179" lon="7.00174">
        <ele>2401</ele>
        <time>2020-08-08T10:11:28Z</time>
      </trkpt>
      <trkpt lat="45.43174" lon="7.00172">
        <ele>2401.4</ele>
        <time>2020-08-08T10:11:30Z</time>
      </trkpt>
      <trkpt lat="45.43172" lon="7.00171">
        <ele>2401.6</ele>
        <time>2020-08-08T10:11:32Z</time>
      </trkpt>
      <trkpt lat="45.43164" lon="7.00169">
        <ele>2402.1</ele>
        <time>2020-08-08T10:11:34Z</time>
      </trkpt>
      <trkpt lat="45.43162" lon="7.00169">
        <ele>2402.3</ele>
        <time>2020-08-08T10:11:35Z</time>
      </trkpt>
      <trkpt lat="45.43154" lon="7.00169">
        <ele>2402.9</ele>
        <time>2020-08-08T10:11:38Z</time>
      </trkpt>
      <trkpt lat="45.43151" lon="7.00168">
        <ele>2403.1</ele>
        <time>2020-08-08T10:11:39Z</time>
      </trkpt>
      <trkpt lat="45.43147" lon="7.00169">
        <ele>2403.3</ele>
        <time>2020-08-08T10:11:40Z</time>
      </trkpt>
      <trkpt lat="45.43146" lon="7.00169">
        <ele>2403.4</ele>
        <time>2020-08-08T10:11:41Z</time>
      </trkpt>
      <trkpt lat="45.4314" lon="7.0017">
        <ele>2403.8</ele>
        <time>2020-08-08T10:11:43Z</time>
      </trkpt>
      <trkpt lat="45.43137" lon="7.00172">
        <ele>2404</ele>
        <time>2020-08-08T10:11:45Z</time>
      </trkpt>
      <trkpt lat="45.43134" lon="7.00173">
        <ele>2404.2</ele>
        <time>2020-08-08T10:11:46Z</time>
      </trkpt>
      <trkpt lat="45.43131" lon="7.00175">
        <ele>2404.4</ele>
        <time>2020-08-08T10:11:49Z</time>
      </trkpt>
      <trkpt lat="45.43126" lon="7.00178">
        <ele>2404.7</ele>
        <time>2020-08-08T10:11:51Z</time>
      </trkpt>
      <trkpt lat="45.43122" lon="7.00183">
        <ele>2404.9</ele>
        <time>2020-08-08T10:11:52Z</time>
      </trkpt>
      <trkpt lat="45.4312" lon="7.00185">
        <ele>2405</ele>
        <time>2020-08-08T10:11:53Z</time>
      </trkpt>
      <trkpt lat="45.43117" lon="7.00194">
        <ele>2405.4</ele>
        <time>2020-08-08T10:11:56Z</time>
      </trkpt>
      <trkpt lat="45.43116" lon="7.00197">
        <ele>2405.5</ele>
        <time>2020-08-08T10:11:57Z</time>
      </trkpt>
      <trkpt lat="45.43114" lon="7.00201">
        <ele>2405.6</ele>
        <time>2020-08-08T10:11:58Z</time>
      </trkpt>
      <trkpt lat="45.43113" lon="7.00205">
        <ele>2405.7</ele>
        <time>2020-08-08T10:12:00Z</time>
      </trkpt>
      <trkpt lat="45.43113" lon="7.00214">
        <ele>2405.9</ele>
        <time>2020-08-08T10:12:02Z</time>
      </trkpt>
      <trkpt lat="45.43112" lon="7.00226">
        <ele>2406.2</ele>
        <time>2020-08-08T10:12:03Z</time>
      </trkpt>
      <trkpt lat="45.43114" lon="7.0024">
        <ele>2406.6</ele>
        <time>2020-08-08T10:12:06Z</time>
      </trkpt>
      <trkpt lat="45.43116" lon="7.00246">
        <ele>2406.8</ele>
        <time>2020-08-08T10:12:08Z</time>
      </trkpt>
      <trkpt lat="45.43117" lon="7.00253">
        <ele>2406.9</ele>
        <time>2020-08-08T10:12:09Z</time>
      </trkpt>
      <trkpt lat="45.43119" lon="7.0026">
        <ele>2407.1</ele>
        <time>2020-08-08T10:12:12Z</time>
      </trkpt>
      <trkpt lat="45.43121" lon="7.00265">
        <ele>2407.2</ele>
        <time>2020-08-08T10:12:13Z</time>
      </trkpt>
      <trkpt lat="45.43123" lon="7.0027">
        <ele>2407.4</ele>
        <time>2020-08-08T10:12:14Z</time>
      </trkpt>
      <trkpt lat="45.43128" lon="7.00278">
        <ele>2407.7</ele>
        <time>2020-08-08T10:12:15Z</time>
      </trkpt>
      <trkpt lat="45.4313" lon="7.00282">
        <ele>2407.8</ele>
        <time>2020-08-08T10:12:17Z</time>
      </trkpt>
      <trkpt lat="45.43133" lon="7.00285">
        <ele>2407.9</ele>
        <time>2020-08-08T10:12:18Z</time>
      </trkpt>
      <trkpt lat="45.43139" lon="7.00289">
        <ele>2408.2</ele>
        <time>2020-08-08T10:12:21Z</time>
      </trkpt>
      <trkpt lat="45.43147" lon="7.00294">
        <ele>2408.5</ele>
        <time>2020-08-08T10:12:22Z</time>
      </trkpt>
      <trkpt lat="45.43152" lon="7.00294">
        <ele>2408.8</ele>
        <time>2020-08-08T10:12:25Z</time>
      </trkpt>
      <trkpt lat="45.43159" lon="7.00294">
        <ele>2409</ele>
        <time>2020-08-08T10:12:27Z</time>
      </trkpt>
      <trkpt lat="45.43167" lon="7.00295">
        <ele>2409.4</ele>
        <time>2020-08-08T10:12:28Z</time>
      </trkpt>
      <trkpt lat="45.43172" lon="7.00294">
        <ele>2409.7</ele>
        <time>2020-08-08T10:12:29Z</time>
      </trkpt>
      <trkpt lat="45.43176" lon="7.00294">
        <ele>2409.9</ele>
        <time>2020-08-08T10:12:30Z</time>
      </trkpt>
      <trkpt lat="45.43184" lon="7.00293">
        <ele>2410.4</ele>
        <time>2020-08-08T10:12:33Z</time>
      </trkpt>
      <trkpt lat="45.43188" lon="7.00292">
        <ele>2410.7</ele>
        <time>2020-08-08T10:12:34Z</time>
      </trkpt>
      <trkpt lat="45.43191" lon="7.00293">
        <ele>2410.9</ele>
        <time>2020-08-08T10:12:35Z</time>
      </trkpt>
      <trkpt lat="45.43196" lon="7.00293">
        <ele>2411.2</ele>
        <time>2020-08-08T10:12:37Z</time>
      </trkpt>
      <trkpt lat="45.43205" lon="7.00294">
        <ele>2411.8</ele>
        <time>2020-08-08T10:12:39Z</time>
      </trkpt>
      <trkpt lat="45.43211" lon="7.00293">
        <ele>2412.3</ele>
        <time>2020-08-08T10:12:42Z</time>
      </trkpt>
      <trkpt lat="45.43214" lon="7.00293">
        <ele>2412.5</ele>
        <time>2020-08-08T10:12:44Z</time>
      </trkpt>
      <trkpt lat="45.43218" lon="7.00294">
        <ele>2412.7</ele>
        <time>2020-08-08T10:12:45Z</time>
      </trkpt>
      <trkpt lat="45.43221" lon="7.00296">
        <ele>2412.9</ele>
        <time>2020-08-08T10:12:48Z</time>
      </trkpt>
      <trkpt lat="45.43224" lon="7.00297">
        <ele>2413.1</ele>
        <time>2020-08-08T10:12:49Z</time>
      </trkpt>
      <trkpt lat="45.43231" lon="7.003">
        <ele>2413.6</ele>
        <time>2020-08-08T10:12:50Z</time>
      </trkpt>
      <trkpt lat="45.43234" lon="7.00302">
        <ele>2413.9</ele>
        <time>2020-08-08T10:12:52Z</time>
      </trkpt>
      <trkpt lat="45.43239" lon="7.00307">
        <ele>2414.3</ele>
        <time>2020-08-08T10:12:54Z</time>
      </trkpt>
      <trkpt lat="45.43241" lon="7.0031">
        <ele>2414.5</ele>
        <time>2020-08-08T10:12:55Z</time>
      </trkpt>
      <trkpt lat="45.43244" lon="7.00313">
        <ele>2414.7</ele>
        <time>2020-08-08T10:12:56Z</time>
      </trkpt>
      <trkpt lat="45.43246" lon="7.00316">
        <ele>2414.9</ele>
        <time>2020-08-08T10:12:57Z</time>
      </trkpt>
      <trkpt lat="45.43248" lon="7.00318">
        <ele>2415.1</ele>
        <time>2020-08-08T10:12:58Z</time>
      </trkpt>
      <trkpt lat="45.43251" lon="7.00321">
        <ele>2415.3</ele>
        <time>2020-08-08T10:12:59Z</time>
      </trkpt>
      <trkpt lat="45.43254" lon="7.00324">
        <ele>2415.6</ele>
        <time>2020-08-08T10:13:01Z</time>
      </trkpt>
      <trkpt lat="45.43255" lon="7.00325">
        <ele>2415.6</ele>
        <time>2020-08-08T10:13:02Z</time>
      </trkpt>
      <trkpt lat="45.43257" lon="7.00327">
        <ele>2415.9</ele>
        <time>2020-08-08T10:13:04Z</time>
      </trkpt>
      <trkpt lat="45.43261" lon="7.00331">
        <ele>2416.2</ele>
        <time>2020-08-08T10:13:05Z</time>
      </trkpt>
      <trkpt lat="45.43263" lon="7.00332">
        <ele>2416.4</ele>
        <time>2020-08-08T10:13:06Z</time>
      </trkpt>
      <trkpt lat="45.43266" lon="7.00334">
        <ele>2416.6</ele>
        <time>2020-08-08T10:13:08Z</time>
      </trkpt>
      <trkpt lat="45.43272" lon="7.00337">
        <ele>2417.1</ele>
        <time>2020-08-08T10:13:09Z</time>
      </trkpt>
      <trkpt lat="45.43275" lon="7.00338">
        <ele>2417.3</ele>
        <time>2020-08-08T10:13:11Z</time>
      </trkpt>
      <trkpt lat="45.43282" lon="7.00339">
        <ele>2417.8</ele>
        <time>2020-08-08T10:13:13Z</time>
      </trkpt>
      <trkpt lat="45.43285" lon="7.00339">
        <ele>2418</ele>
        <time>2020-08-08T10:13:16Z</time>
      </trkpt>
      <trkpt lat="45.4329" lon="7.00339">
        <ele>2418.3</ele>
        <time>2020-08-08T10:13:18Z</time>
      </trkpt>
      <trkpt lat="45.43292" lon="7.00339">
        <ele>2418.5</ele>
        <time>2020-08-08T10:13:19Z</time>
      </trkpt>
      <trkpt lat="45.43301" lon="7.00337">
        <ele>2419.2</ele>
        <time>2020-08-08T10:13:21Z</time>
      </trkpt>
      <trkpt lat="45.43304" lon="7.00337">
        <ele>2419.4</ele>
        <time>2020-08-08T10:13:22Z</time>
      </trkpt>
      <trkpt lat="45.43308" lon="7.00336">
        <ele>2419.7</ele>
        <time>2020-08-08T10:13:24Z</time>
      </trkpt>
      <trkpt lat="45.43311" lon="7.00336">
        <ele>2419.9</ele>
        <time>2020-08-08T10:13:26Z</time>
      </trkpt>
      <trkpt lat="45.43315" lon="7.00334">
        <ele>2420.2</ele>
        <time>2020-08-08T10:13:27Z</time>
      </trkpt>
      <trkpt lat="45.43318" lon="7.00334">
        <ele>2420.5</ele>
        <time>2020-08-08T10:13:29Z</time>
      </trkpt>
      <trkpt lat="45.43323" lon="7.00333">
        <ele>2420.8</ele>
        <time>2020-08-08T10:13:30Z</time>
      </trkpt>
      <trkpt lat="45.4333" lon="7.00331">
        <ele>2421.3</ele>
        <time>2020-08-08T10:13:33Z</time>
      </trkpt>
      <trkpt lat="45.43336" lon="7.00331">
        <ele>2421.7</ele>
        <time>2020-08-08T10:13:36Z</time>
      </trkpt>
      <trkpt lat="45.43339" lon="7.0033">
        <ele>2421.8</ele>
        <time>2020-08-08T10:13:37Z</time>
      </trkpt>
      <trkpt lat="45.43343" lon="7.0033">
        <ele>2422.1</ele>
        <time>2020-08-08T10:13:40Z</time>
      </trkpt>
      <trkpt lat="45.43347" lon="7.00332">
        <ele>2422.3</ele>
        <time>2020-08-08T10:13:41Z</time>
      </trkpt>
      <trkpt lat="45.43352" lon="7.00335">
        <ele>2422.6</ele>
        <time>2020-08-08T10:13:42Z</time>
      </trkpt>
      <trkpt lat="45.43357" lon="7.00345">
        <ele>2423</ele>
        <time>2020-08-08T10:13:45Z</time>
      </trkpt>
      <trkpt lat="45.43361" lon="7.00355">
        <ele>2423.3</ele>
        <time>2020-08-08T10:13:48Z</time>
      </trkpt>
      <trkpt lat="45.43362" lon="7.0036">
        <ele>2423.5</ele>
        <time>2020-08-08T10:13:50Z</time>
      </trkpt>
      <trkpt lat="45.43364" lon="7.00367">
        <ele>2423.6</ele>
        <time>2020-08-08T10:13:52Z</time>
      </trkpt>
      <trkpt lat="45.43367" lon="7.00375">
        <ele>2423.9</ele>
        <time>2020-08-08T10:13:54Z</time>
      </trkpt>
      <trkpt lat="45.43369" lon="7.00379">
        <ele>2424.1</ele>
        <time>2020-08-08T10:13:55Z</time>
      </trkpt>
      <trkpt lat="45.43371" lon="7.00383">
        <ele>2424.2</ele>
        <time>2020-08-08T10:13:57Z</time>
      </trkpt>
      <trkpt lat="45.43374" lon="7.00389">
        <ele>2424.4</ele>
        <time>2020-08-08T10:13:58Z</time>
      </trkpt>
      <trkpt lat="45.43377" lon="7.00394">
        <ele>2424.6</ele>
        <time>2020-08-08T10:14:00Z</time>
      </trkpt>
      <trkpt lat="45.43382" lon="7.00402">
        <ele>2425</ele>
        <time>2020-08-08T10:14:01Z</time>
      </trkpt>
      <trkpt lat="45.43386" lon="7.00406">
        <ele>2425.3</ele>
        <time>2020-08-08T10:14:02Z</time>
      </trkpt>
      <trkpt lat="45.43388" lon="7.00409">
        <ele>2425.5</ele>
        <time>2020-08-08T10:14:04Z</time>
      </trkpt>
      <trkpt lat="45.43394" lon="7.00417">
        <ele>2426</ele>
        <time>2020-08-08T10:14:06Z</time>
      </trkpt>
      <trkpt lat="45.43397" lon="7.0042">
        <ele>2426.2</ele>
        <time>2020-08-08T10:14:08Z</time>
      </trkpt>
      <trkpt lat="45.43401" lon="7.00424">
        <ele>2426.6</ele>
        <time>2020-08-08T10:14:10Z</time>
      </trkpt>
      <trkpt lat="45.43402" lon="7.00425">
        <ele>2426.7</ele>
        <time>2020-08-08T10:14:11Z</time>
      </trkpt>
      <trkpt lat="45.43408" lon="7.00432">
        <ele>2427.3</ele>
        <time>2020-08-08T10:14:13Z</time>
      </trkpt>
      <trkpt lat="45.4341" lon="7.00436">
        <ele>2427.6</ele>
        <time>2020-08-08T10:14:14Z</time>
      </trkpt>
      <trkpt lat="45.43415" lon="7.00442">
        <ele>2428.2</ele>
        <time>2020-08-08T10:14:17Z</time>
      </trkpt>
      <trkpt lat="45.43417" lon="7.00445">
        <ele>2428.5</ele>
        <time>2020-08-08T10:14:18Z</time>
      </trkpt>
      <trkpt lat="45.43419" lon="7.00448">
        <ele>2428.8</ele>
        <time>2020-08-08T10:14:19Z</time>
      </trkpt>
      <trkpt lat="45.43425" lon="7.00454">
        <ele>2429.5</ele>
        <time>2020-08-08T10:14:22Z</time>
      </trkpt>
      <trkpt lat="45.43429" lon="7.0046">
        <ele>2430.1</ele>
        <time>2020-08-08T10:14:24Z</time>
      </trkpt>
      <trkpt lat="45.43431" lon="7.00462">
        <ele>2430.3</ele>
        <time>2020-08-08T10:14:26Z</time>
      </trkpt>
      <trkpt lat="45.43433" lon="7.00465">
        <ele>2430.5</ele>
        <time>2020-08-08T10:14:27Z</time>
      </trkpt>
      <trkpt lat="45.43435" lon="7.00467">
        <ele>2430.7</ele>
        <time>2020-08-08T10:14:28Z</time>
      </trkpt>
      <trkpt lat="45.43438" lon="7.00471">
        <ele>2431.1</ele>
        <time>2020-08-08T10:14:30Z</time>
      </trkpt>
      <trkpt lat="45.43444" lon="7.0048">
        <ele>2431.8</ele>
        <time>2020-08-08T10:14:33Z</time>
      </trkpt>
      <trkpt lat="45.43446" lon="7.00482">
        <ele>2432</ele>
        <time>2020-08-08T10:14:34Z</time>
      </trkpt>
      <trkpt lat="45.43449" lon="7.00486">
        <ele>2432.3</ele>
        <time>2020-08-08T10:14:37Z</time>
      </trkpt>
      <trkpt lat="45.43452" lon="7.00489">
        <ele>2432.6</ele>
        <time>2020-08-08T10:14:39Z</time>
      </trkpt>
      <trkpt lat="45.43457" lon="7.00493">
        <ele>2433</ele>
        <time>2020-08-08T10:14:40Z</time>
      </trkpt>
      <trkpt lat="45.43459" lon="7.00494">
        <ele>2433.2</ele>
        <time>2020-08-08T10:14:41Z</time>
      </trkpt>
      <trkpt lat="45.43462" lon="7.00496">
        <ele>2433.4</ele>
        <time>2020-08-08T10:14:43Z</time>
      </trkpt>
      <trkpt lat="45.43465" lon="7.00497">
        <ele>2433.6</ele>
        <time>2020-08-08T10:14:45Z</time>
      </trkpt>
      <trkpt lat="45.43469" lon="7.00498">
        <ele>2433.9</ele>
        <time>2020-08-08T10:14:47Z</time>
      </trkpt>
      <trkpt lat="45.43475" lon="7.00501">
        <ele>2434.3</ele>
        <time>2020-08-08T10:14:48Z</time>
      </trkpt>
      <trkpt lat="45.43479" lon="7.00502">
        <ele>2434.6</ele>
        <time>2020-08-08T10:14:50Z</time>
      </trkpt>
      <trkpt lat="45.43484" lon="7.00504">
        <ele>2434.9</ele>
        <time>2020-08-08T10:14:52Z</time>
      </trkpt>
      <trkpt lat="45.43491" lon="7.00508">
        <ele>2435.4</ele>
        <time>2020-08-08T10:14:54Z</time>
      </trkpt>
      <trkpt lat="45.43498" lon="7.0051">
        <ele>2435.8</ele>
        <time>2020-08-08T10:14:57Z</time>
      </trkpt>
      <trkpt lat="45.435" lon="7.00511">
        <ele>2436</ele>
        <time>2020-08-08T10:14:58Z</time>
      </trkpt>
      <trkpt lat="45.43505" lon="7.00511">
        <ele>2436.3</ele>
        <time>2020-08-08T10:14:59Z</time>
      </trkpt>
      <trkpt lat="45.43512" lon="7.00511">
        <ele>2436.9</ele>
        <time>2020-08-08T10:15:02Z</time>
      </trkpt>
      <trkpt lat="45.43519" lon="7.00512">
        <ele>2437.4</ele>
        <time>2020-08-08T10:15:05Z</time>
      </trkpt>
      <trkpt lat="45.43523" lon="7.00511">
        <ele>2437.7</ele>
        <time>2020-08-08T10:15:07Z</time>
      </trkpt>
      <trkpt lat="45.43527" lon="7.00511">
        <ele>2438.1</ele>
        <time>2020-08-08T10:15:08Z</time>
      </trkpt>
      <trkpt lat="45.43533" lon="7.0051">
        <ele>2438.6</ele>
        <time>2020-08-08T10:15:11Z</time>
      </trkpt>
      <trkpt lat="45.43536" lon="7.0051">
        <ele>2438.9</ele>
        <time>2020-08-08T10:15:12Z</time>
      </trkpt>
      <trkpt lat="45.4354" lon="7.00509">
        <ele>2439.2</ele>
        <time>2020-08-08T10:15:14Z</time>
      </trkpt>
      <trkpt lat="45.43543" lon="7.00508">
        <ele>2439.5</ele>
        <time>2020-08-08T10:15:15Z</time>
      </trkpt>
      <trkpt lat="45.43547" lon="7.00508">
        <ele>2439.8</ele>
        <time>2020-08-08T10:15:17Z</time>
      </trkpt>
      <trkpt lat="45.43551" lon="7.00508">
        <ele>2440.2</ele>
        <time>2020-08-08T10:15:18Z</time>
      </trkpt>
      <trkpt lat="45.43552" lon="7.00508">
        <ele>2440.3</ele>
        <time>2020-08-08T10:15:19Z</time>
      </trkpt>
      <trkpt lat="45.43557" lon="7.00509">
        <ele>2440.7</ele>
        <time>2020-08-08T10:15:21Z</time>
      </trkpt>
      <trkpt lat="45.43559" lon="7.0051">
        <ele>2440.9</ele>
        <time>2020-08-08T10:15:22Z</time>
      </trkpt>
      <trkpt lat="45.43562" lon="7.00512">
        <ele>2441.2</ele>
        <time>2020-08-08T10:15:24Z</time>
      </trkpt>
      <trkpt lat="45.43565" lon="7.00513">
        <ele>2441.5</ele>
        <time>2020-08-08T10:15:26Z</time>
      </trkpt>
      <trkpt lat="45.43569" lon="7.00515">
        <ele>2442</ele>
        <time>2020-08-08T10:15:27Z</time>
      </trkpt>
      <trkpt lat="45.43572" lon="7.00517">
        <ele>2442.2</ele>
        <time>2020-08-08T10:15:28Z</time>
      </trkpt>
      <trkpt lat="45.43578" lon="7.00523">
        <ele>2442.9</ele>
        <time>2020-08-08T10:15:31Z</time>
      </trkpt>
      <trkpt lat="45.4358" lon="7.00527">
        <ele>2443.3</ele>
        <time>2020-08-08T10:15:32Z</time>
      </trkpt>
      <trkpt lat="45.43581" lon="7.00528">
        <ele>2443.4</ele>
        <time>2020-08-08T10:15:33Z</time>
      </trkpt>
      <trkpt lat="45.43587" lon="7.00534">
        <ele>2444.1</ele>
        <time>2020-08-08T10:15:36Z</time>
      </trkpt>
      <trkpt lat="45.4359" lon="7.00537">
        <ele>2444.4</ele>
        <time>2020-08-08T10:15:38Z</time>
      </trkpt>
      <trkpt lat="45.43592" lon="7.0054">
        <ele>2444.8</ele>
        <time>2020-08-08T10:15:39Z</time>
      </trkpt>
      <trkpt lat="45.43595" lon="7.00543">
        <ele>2445.1</ele>
        <time>2020-08-08T10:15:41Z</time>
      </trkpt>
      <trkpt lat="45.43597" lon="7.00546">
        <ele>2445.5</ele>
        <time>2020-08-08T10:15:42Z</time>
      </trkpt>
      <trkpt lat="45.43599" lon="7.00548">
        <ele>2445.7</ele>
        <time>2020-08-08T10:15:43Z</time>
      </trkpt>
      <trkpt lat="45.43601" lon="7.00551">
        <ele>2446</ele>
        <time>2020-08-08T10:15:45Z</time>
      </trkpt>
      <trkpt lat="45.43607" lon="7.00557">
        <ele>2446.8</ele>
        <time>2020-08-08T10:15:48Z</time>
      </trkpt>
      <trkpt lat="45.43613" lon="7.00564">
        <ele>2447.5</ele>
        <time>2020-08-08T10:15:51Z</time>
      </trkpt>
      <trkpt lat="45.43618" lon="7.00568">
        <ele>2448</ele>
        <time>2020-08-08T10:15:52Z</time>
      </trkpt>
      <trkpt lat="45.4362" lon="7.0057">
        <ele>2448.2</ele>
        <time>2020-08-08T10:15:55Z</time>
      </trkpt>
      <trkpt lat="45.43623" lon="7.00572">
        <ele>2448.4</ele>
        <time>2020-08-08T10:15:56Z</time>
      </trkpt>
      <trkpt lat="45.43626" lon="7.00574">
        <ele>2448.7</ele>
        <time>2020-08-08T10:15:58Z</time>
      </trkpt>
      <trkpt lat="45.43631" lon="7.00576">
        <ele>2449</ele>
        <time>2020-08-08T10:16:00Z</time>
      </trkpt>
      <trkpt lat="45.43634" lon="7.00577">
        <ele>2449.3</ele>
        <time>2020-08-08T10:16:02Z</time>
      </trkpt>
      <trkpt lat="45.4364" lon="7.0058">
        <ele>2449.6</ele>
        <time>2020-08-08T10:16:04Z</time>
      </trkpt>
      <trkpt lat="45.43643" lon="7.00582">
        <ele>2449.8</ele>
        <time>2020-08-08T10:16:05Z</time>
      </trkpt>
      <trkpt lat="45.43646" lon="7.00585">
        <ele>2450</ele>
        <time>2020-08-08T10:16:08Z</time>
      </trkpt>
      <trkpt lat="45.43649" lon="7.00586">
        <ele>2450.2</ele>
        <time>2020-08-08T10:16:09Z</time>
      </trkpt>
      <trkpt lat="45.43653" lon="7.00589">
        <ele>2450.5</ele>
        <time>2020-08-08T10:16:10Z</time>
      </trkpt>
      <trkpt lat="45.43656" lon="7.00591">
        <ele>2450.6</ele>
        <time>2020-08-08T10:16:12Z</time>
      </trkpt>
      <trkpt lat="45.43661" lon="7.00594">
        <ele>2450.9</ele>
        <time>2020-08-08T10:16:14Z</time>
      </trkpt>
      <trkpt lat="45.43664" lon="7.00596">
        <ele>2451.1</ele>
        <time>2020-08-08T10:16:15Z</time>
      </trkpt>
      <trkpt lat="45.43668" lon="7.00598">
        <ele>2451.3</ele>
        <time>2020-08-08T10:16:16Z</time>
      </trkpt>
      <trkpt lat="45.43677" lon="7.00604">
        <ele>2451.8</ele>
        <time>2020-08-08T10:16:18Z</time>
      </trkpt>
      <trkpt lat="45.4368" lon="7.00606">
        <ele>2451.9</ele>
        <time>2020-08-08T10:16:20Z</time>
      </trkpt>
      <trkpt lat="45.43687" lon="7.00613">
        <ele>2452.3</ele>
        <time>2020-08-08T10:16:22Z</time>
      </trkpt>
      <trkpt lat="45.43691" lon="7.00617">
        <ele>2452.6</ele>
        <time>2020-08-08T10:16:25Z</time>
      </trkpt>
      <trkpt lat="45.43696" lon="7.00621">
        <ele>2452.9</ele>
        <time>2020-08-08T10:16:26Z</time>
      </trkpt>
      <trkpt lat="45.43699" lon="7.00623">
        <ele>2453.1</ele>
        <time>2020-08-08T10:16:28Z</time>
      </trkpt>
      <trkpt lat="45.43702" lon="7.00625">
        <ele>2453.2</ele>
        <time>2020-08-08T10:16:29Z</time>
      </trkpt>
      <trkpt lat="45.43707" lon="7.00629">
        <ele>2453.5</ele>
        <time>2020-08-08T10:16:30Z</time>
      </trkpt>
      <trkpt lat="45.43711" lon="7.00632">
        <ele>2453.8</ele>
        <time>2020-08-08T10:16:31Z</time>
      </trkpt>
      <trkpt lat="45.43714" lon="7.00637">
        <ele>2454</ele>
        <time>2020-08-08T10:16:32Z</time>
      </trkpt>
      <trkpt lat="45.43714" lon="7.00647">
        <ele>2454.5</ele>
        <time>2020-08-08T10:16:35Z</time>
      </trkpt>
      <trkpt lat="45.43711" lon="7.00651">
        <ele>2454.8</ele>
        <time>2020-08-08T10:16:37Z</time>
      </trkpt>
      <trkpt lat="45.43707" lon="7.00653">
        <ele>2455</ele>
        <time>2020-08-08T10:16:38Z</time>
      </trkpt>
      <trkpt lat="45.43703" lon="7.00652">
        <ele>2455.3</ele>
        <time>2020-08-08T10:16:40Z</time>
      </trkpt>
      <trkpt lat="45.43696" lon="7.00643">
        <ele>2455.8</ele>
        <time>2020-08-08T10:16:42Z</time>
      </trkpt>
      <trkpt lat="45.43693" lon="7.00639">
        <ele>2456</ele>
        <time>2020-08-08T10:16:44Z</time>
      </trkpt>
      <trkpt lat="45.4369" lon="7.00636">
        <ele>2456.2</ele>
        <time>2020-08-08T10:16:45Z</time>
      </trkpt>
      <trkpt lat="45.43682" lon="7.00627">
        <ele>2456.9</ele>
        <time>2020-08-08T10:16:48Z</time>
      </trkpt>
      <trkpt lat="45.43677" lon="7.00625">
        <ele>2457.2</ele>
        <time>2020-08-08T10:16:50Z</time>
      </trkpt>
      <trkpt lat="45.43671" lon="7.00623">
        <ele>2457.6</ele>
        <time>2020-08-08T10:16:52Z</time>
      </trkpt>
      <trkpt lat="45.43668" lon="7.00622">
        <ele>2457.8</ele>
        <time>2020-08-08T10:16:53Z</time>
      </trkpt>
      <trkpt lat="45.43665" lon="7.00621">
        <ele>2458.1</ele>
        <time>2020-08-08T10:16:54Z</time>
      </trkpt>
      <trkpt lat="45.4366" lon="7.00621">
        <ele>2458.4</ele>
        <time>2020-08-08T10:16:57Z</time>
      </trkpt>
      <trkpt lat="45.43657" lon="7.0062">
        <ele>2458.6</ele>
        <time>2020-08-08T10:16:58Z</time>
      </trkpt>
      <trkpt lat="45.43652" lon="7.00619">
        <ele>2459</ele>
        <time>2020-08-08T10:17:00Z</time>
      </trkpt>
      <trkpt lat="45.43642" lon="7.00616">
        <ele>2459.7</ele>
        <time>2020-08-08T10:17:02Z</time>
      </trkpt>
      <trkpt lat="45.43639" lon="7.00614">
        <ele>2459.9</ele>
        <time>2020-08-08T10:17:04Z</time>
      </trkpt>
      <trkpt lat="45.43636" lon="7.00612">
        <ele>2460.1</ele>
        <time>2020-08-08T10:17:05Z</time>
      </trkpt>
      <trkpt lat="45.43631" lon="7.0061">
        <ele>2460.6</ele>
        <time>2020-08-08T10:17:07Z</time>
      </trkpt>
      <trkpt lat="45.43624" lon="7.00605">
        <ele>2461.1</ele>
        <time>2020-08-08T10:17:09Z</time>
      </trkpt>
      <trkpt lat="45.43618" lon="7.006">
        <ele>2461.7</ele>
        <time>2020-08-08T10:17:12Z</time>
      </trkpt>
      <trkpt lat="45.43614" lon="7.00598">
        <ele>2461.9</ele>
        <time>2020-08-08T10:17:13Z</time>
      </trkpt>
      <trkpt lat="45.43608" lon="7.00593">
        <ele>2462.5</ele>
        <time>2020-08-08T10:17:16Z</time>
      </trkpt>
      <trkpt lat="45.43605" lon="7.00592">
        <ele>2462.8</ele>
        <time>2020-08-08T10:17:17Z</time>
      </trkpt>
      <trkpt lat="45.43601" lon="7.00589">
        <ele>2463.1</ele>
        <time>2020-08-08T10:17:19Z</time>
      </trkpt>
      <trkpt lat="45.43598" lon="7.00587">
        <ele>2463.4</ele>
        <time>2020-08-08T10:17:21Z</time>
      </trkpt>
      <trkpt lat="45.43593" lon="7.00584">
        <ele>2463.7</ele>
        <time>2020-08-08T10:17:22Z</time>
      </trkpt>
      <trkpt lat="45.43589" lon="7.00582">
        <ele>2464</ele>
        <time>2020-08-08T10:17:23Z</time>
      </trkpt>
      <trkpt lat="45.43586" lon="7.00579">
        <ele>2464.4</ele>
        <time>2020-08-08T10:17:24Z</time>
      </trkpt>
      <trkpt lat="45.43578" lon="7.00575">
        <ele>2465</ele>
        <time>2020-08-08T10:17:27Z</time>
      </trkpt>
      <trkpt lat="45.43571" lon="7.00572">
        <ele>2465.5</ele>
        <time>2020-08-08T10:17:30Z</time>
      </trkpt>
      <trkpt lat="45.43568" lon="7.00571">
        <ele>2465.7</ele>
        <time>2020-08-08T10:17:31Z</time>
      </trkpt>
      <trkpt lat="45.43564" lon="7.00571">
        <ele>2466</ele>
        <time>2020-08-08T10:17:32Z</time>
      </trkpt>
      <trkpt lat="45.43563" lon="7.00571">
        <ele>2466.1</ele>
        <time>2020-08-08T10:17:33Z</time>
      </trkpt>
      <trkpt lat="45.43559" lon="7.0057">
        <ele>2466.3</ele>
        <time>2020-08-08T10:17:34Z</time>
      </trkpt>
      <trkpt lat="45.43553" lon="7.0057">
        <ele>2466.7</ele>
        <time>2020-08-08T10:17:37Z</time>
      </trkpt>
      <trkpt lat="45.43549" lon="7.0057">
        <ele>2467</ele>
        <time>2020-08-08T10:17:40Z</time>
      </trkpt>
      <trkpt lat="45.43543" lon="7.00571">
        <ele>2467.3</ele>
        <time>2020-08-08T10:17:42Z</time>
      </trkpt>
      <trkpt lat="45.43536" lon="7.00573">
        <ele>2467.7</ele>
        <time>2020-08-08T10:17:43Z</time>
      </trkpt>
      <trkpt lat="45.43532" lon="7.00574">
        <ele>2467.9</ele>
        <time>2020-08-08T10:17:46Z</time>
      </trkpt>
      <trkpt lat="45.43521" lon="7.00577">
        <ele>2468.5</ele>
        <time>2020-08-08T10:17:48Z</time>
      </trkpt>
      <trkpt lat="45.43513" lon="7.0058">
        <ele>2468.9</ele>
        <time>2020-08-08T10:17:52Z</time>
      </trkpt>
      <trkpt lat="45.43508" lon="7.00582">
        <ele>2469.2</ele>
        <time>2020-08-08T10:17:54Z</time>
      </trkpt>
      <trkpt lat="45.43502" lon="7.00585">
        <ele>2469.5</ele>
        <time>2020-08-08T10:17:56Z</time>
      </trkpt>
      <trkpt lat="45.43495" lon="7.00589">
        <ele>2469.9</ele>
        <time>2020-08-08T10:17:57Z</time>
      </trkpt>
      <trkpt lat="45.4349" lon="7.00591">
        <ele>2470.1</ele>
        <time>2020-08-08T10:18:00Z</time>
      </trkpt>
      <trkpt lat="45.43484" lon="7.00594">
        <ele>2470.5</ele>
        <time>2020-08-08T10:18:02Z</time>
      </trkpt>
      <trkpt lat="45.43479" lon="7.00596">
        <ele>2470.8</ele>
        <time>2020-08-08T10:18:03Z</time>
      </trkpt>
      <trkpt lat="45.43475" lon="7.00597">
        <ele>2471</ele>
        <time>2020-08-08T10:18:05Z</time>
      </trkpt>
      <trkpt lat="45.43469" lon="7.00596">
        <ele>2471.4</ele>
        <time>2020-08-08T10:18:06Z</time>
      </trkpt>
      <trkpt lat="45.43464" lon="7.00597">
        <ele>2471.7</ele>
        <time>2020-08-08T10:18:07Z</time>
      </trkpt>
      <trkpt lat="45.4346" lon="7.00597">
        <ele>2471.9</ele>
        <time>2020-08-08T10:18:09Z</time>
      </trkpt>
      <trkpt lat="45.43457" lon="7.00596">
        <ele>2472.1</ele>
        <time>2020-08-08T10:18:11Z</time>
      </trkpt>
      <trkpt lat="45.43452" lon="7.00596">
        <ele>2472.4</ele>
        <time>2020-08-08T10:18:12Z</time>
      </trkpt>
      <trkpt lat="45.43449" lon="7.00596">
        <ele>2472.6</ele>
        <time>2020-08-08T10:18:14Z</time>
      </trkpt>
      <trkpt lat="45.43446" lon="7.00595">
        <ele>2472.8</ele>
        <time>2020-08-08T10:18:15Z</time>
      </trkpt>
      <trkpt lat="45.43443" lon="7.00594">
        <ele>2473</ele>
        <time>2020-08-08T10:18:16Z</time>
      </trkpt>
      <trkpt lat="45.43436" lon="7.00591">
        <ele>2473.5</ele>
        <time>2020-08-08T10:18:17Z</time>
      </trkpt>
      <trkpt lat="45.43433" lon="7.00591">
        <ele>2473.7</ele>
        <time>2020-08-08T10:18:18Z</time>
      </trkpt>
      <trkpt lat="45.4343" lon="7.0059">
        <ele>2473.8</ele>
        <time>2020-08-08T10:18:19Z</time>
      </trkpt>
      <trkpt lat="45.43425" lon="7.00591">
        <ele>2474.2</ele>
        <time>2020-08-08T10:18:21Z</time>
      </trkpt>
      <trkpt lat="45.43422" lon="7.00592">
        <ele>2474.5</ele>
        <time>2020-08-08T10:18:23Z</time>
      </trkpt>
      <trkpt lat="45.43419" lon="7.00594">
        <ele>2474.7</ele>
        <time>2020-08-08T10:18:24Z</time>
      </trkpt>
      <trkpt lat="45.43418" lon="7.00598">
        <ele>2474.9</ele>
        <time>2020-08-08T10:18:25Z</time>
      </trkpt>
      <trkpt lat="45.43418" lon="7.0061">
        <ele>2475.6</ele>
        <time>2020-08-08T10:18:28Z</time>
      </trkpt>
      <trkpt lat="45.43419" lon="7.00615">
        <ele>2475.9</ele>
        <time>2020-08-08T10:18:29Z</time>
      </trkpt>
      <trkpt lat="45.43422" lon="7.0062">
        <ele>2476.1</ele>
        <time>2020-08-08T10:18:31Z</time>
      </trkpt>
      <trkpt lat="45.43426" lon="7.00622">
        <ele>2476.3</ele>
        <time>2020-08-08T10:18:33Z</time>
      </trkpt>
      <trkpt lat="45.43434" lon="7.00623">
        <ele>2476.6</ele>
        <time>2020-08-08T10:18:35Z</time>
      </trkpt>
      <trkpt lat="45.43438" lon="7.00624">
        <ele>2476.8</ele>
        <time>2020-08-08T10:18:36Z</time>
      </trkpt>
      <trkpt lat="45.43446" lon="7.00626">
        <ele>2477.2</ele>
        <time>2020-08-08T10:18:39Z</time>
      </trkpt>
      <trkpt lat="45.43449" lon="7.00627">
        <ele>2477.4</ele>
        <time>2020-08-08T10:18:40Z</time>
      </trkpt>
      <trkpt lat="45.43452" lon="7.00628">
        <ele>2477.5</ele>
        <time>2020-08-08T10:18:41Z</time>
      </trkpt>
      <trkpt lat="45.43457" lon="7.0063">
        <ele>2477.7</ele>
        <time>2020-08-08T10:18:43Z</time>
      </trkpt>
      <trkpt lat="45.4346" lon="7.0063">
        <ele>2477.9</ele>
        <time>2020-08-08T10:18:44Z</time>
      </trkpt>
      <trkpt lat="45.43467" lon="7.00632">
        <ele>2478.2</ele>
        <time>2020-08-08T10:18:47Z</time>
      </trkpt>
      <trkpt lat="45.43471" lon="7.00633">
        <ele>2478.5</ele>
        <time>2020-08-08T10:18:48Z</time>
      </trkpt>
      <trkpt lat="45.43475" lon="7.00633">
        <ele>2478.7</ele>
        <time>2020-08-08T10:18:50Z</time>
      </trkpt>
      <trkpt lat="45.4348" lon="7.00632">
        <ele>2479</ele>
        <time>2020-08-08T10:18:52Z</time>
      </trkpt>
      <trkpt lat="45.43487" lon="7.00629">
        <ele>2479.5</ele>
        <time>2020-08-08T10:18:54Z</time>
      </trkpt>
      <trkpt lat="45.43492" lon="7.00627">
        <ele>2479.8</ele>
        <time>2020-08-08T10:18:57Z</time>
      </trkpt>
      <trkpt lat="45.43495" lon="7.00625">
        <ele>2480</ele>
        <time>2020-08-08T10:18:58Z</time>
      </trkpt>
      <trkpt lat="45.43499" lon="7.00621">
        <ele>2480.3</ele>
        <time>2020-08-08T10:18:59Z</time>
      </trkpt>
      <trkpt lat="45.43503" lon="7.00619">
        <ele>2480.6</ele>
        <time>2020-08-08T10:19:00Z</time>
      </trkpt>
      <trkpt lat="45.43507" lon="7.00618">
        <ele>2480.8</ele>
        <time>2020-08-08T10:19:01Z</time>
      </trkpt>
      <trkpt lat="45.43511" lon="7.00618">
        <ele>2481</ele>
        <time>2020-08-08T10:19:04Z</time>
      </trkpt>
      <trkpt lat="45.43515" lon="7.00618">
        <ele>2481.3</ele>
        <time>2020-08-08T10:19:05Z</time>
      </trkpt>
      <trkpt lat="45.43523" lon="7.00618">
        <ele>2481.8</ele>
        <time>2020-08-08T10:19:07Z</time>
      </trkpt>
      <trkpt lat="45.4353" lon="7.00621">
        <ele>2482.3</ele>
        <time>2020-08-08T10:19:10Z</time>
      </trkpt>
      <trkpt lat="45.43536" lon="7.00625">
        <ele>2482.7</ele>
        <time>2020-08-08T10:19:13Z</time>
      </trkpt>
      <trkpt lat="45.43543" lon="7.00631">
        <ele>2483.3</ele>
        <time>2020-08-08T10:19:16Z</time>
      </trkpt>
      <trkpt lat="45.43546" lon="7.00635">
        <ele>2483.5</ele>
        <time>2020-08-08T10:19:19Z</time>
      </trkpt>
      <trkpt lat="45.43549" lon="7.00639">
        <ele>2483.8</ele>
        <time>2020-08-08T10:19:20Z</time>
      </trkpt>
      <trkpt lat="45.43552" lon="7.00643">
        <ele>2484</ele>
        <time>2020-08-08T10:19:21Z</time>
      </trkpt>
      <trkpt lat="45.43553" lon="7.00644">
        <ele>2484.2</ele>
        <time>2020-08-08T10:19:22Z</time>
      </trkpt>
      <trkpt lat="45.43556" lon="7.00648">
        <ele>2484.4</ele>
        <time>2020-08-08T10:19:24Z</time>
      </trkpt>
      <trkpt lat="45.43559" lon="7.00651">
        <ele>2484.7</ele>
        <time>2020-08-08T10:19:25Z</time>
      </trkpt>
      <trkpt lat="45.43561" lon="7.00652">
        <ele>2484.8</ele>
        <time>2020-08-08T10:19:26Z</time>
      </trkpt>
      <trkpt lat="45.43563" lon="7.00655">
        <ele>2485</ele>
        <time>2020-08-08T10:19:28Z</time>
      </trkpt>
      <trkpt lat="45.43566" lon="7.00658">
        <ele>2485.3</ele>
        <time>2020-08-08T10:19:29Z</time>
      </trkpt>
      <trkpt lat="45.43572" lon="7.00661">
        <ele>2485.7</ele>
        <time>2020-08-08T10:19:31Z</time>
      </trkpt>
      <trkpt lat="45.43574" lon="7.00662">
        <ele>2485.9</ele>
        <time>2020-08-08T10:19:33Z</time>
      </trkpt>
      <trkpt lat="45.43577" lon="7.00663">
        <ele>2486</ele>
        <time>2020-08-08T10:19:34Z</time>
      </trkpt>
      <trkpt lat="45.43579" lon="7.00663">
        <ele>2486.2</ele>
        <time>2020-08-08T10:19:35Z</time>
      </trkpt>
      <trkpt lat="45.43583" lon="7.00665">
        <ele>2486.4</ele>
        <time>2020-08-08T10:19:36Z</time>
      </trkpt>
      <trkpt lat="45.4359" lon="7.00667">
        <ele>2486.9</ele>
        <time>2020-08-08T10:19:39Z</time>
      </trkpt>
      <trkpt lat="45.43591" lon="7.00668">
        <ele>2487</ele>
        <time>2020-08-08T10:19:40Z</time>
      </trkpt>
      <trkpt lat="45.43594" lon="7.00669">
        <ele>2487.2</ele>
        <time>2020-08-08T10:19:41Z</time>
      </trkpt>
      <trkpt lat="45.43597" lon="7.00671">
        <ele>2487.4</ele>
        <time>2020-08-08T10:19:42Z</time>
      </trkpt>
      <trkpt lat="45.436" lon="7.00673">
        <ele>2487.6</ele>
        <time>2020-08-08T10:19:45Z</time>
      </trkpt>
      <trkpt lat="45.43603" lon="7.00677">
        <ele>2487.9</ele>
        <time>2020-08-08T10:19:46Z</time>
      </trkpt>
      <trkpt lat="45.43606" lon="7.00679">
        <ele>2488.1</ele>
        <time>2020-08-08T10:19:47Z</time>
      </trkpt>
      <trkpt lat="45.43609" lon="7.00683">
        <ele>2488.3</ele>
        <time>2020-08-08T10:19:49Z</time>
      </trkpt>
      <trkpt lat="45.43613" lon="7.00688">
        <ele>2488.6</ele>
        <time>2020-08-08T10:19:51Z</time>
      </trkpt>
      <trkpt lat="45.43615" lon="7.00691">
        <ele>2488.7</ele>
        <time>2020-08-08T10:19:52Z</time>
      </trkpt>
      <trkpt lat="45.43617" lon="7.00694">
        <ele>2488.9</ele>
        <time>2020-08-08T10:19:53Z</time>
      </trkpt>
      <trkpt lat="45.43622" lon="7.00703">
        <ele>2489.2</ele>
        <time>2020-08-08T10:19:56Z</time>
      </trkpt>
      <trkpt lat="45.43623" lon="7.00704">
        <ele>2489.3</ele>
        <time>2020-08-08T10:19:57Z</time>
      </trkpt>
      <trkpt lat="45.43626" lon="7.00708">
        <ele>2489.5</ele>
        <time>2020-08-08T10:19:58Z</time>
      </trkpt>
      <trkpt lat="45.4363" lon="7.00715">
        <ele>2489.7</ele>
        <time>2020-08-08T10:20:00Z</time>
      </trkpt>
      <trkpt lat="45.43634" lon="7.00721">
        <ele>2489.9</ele>
        <time>2020-08-08T10:20:03Z</time>
      </trkpt>
      <trkpt lat="45.43642" lon="7.00734">
        <ele>2490.2</ele>
        <time>2020-08-08T10:20:05Z</time>
      </trkpt>
      <trkpt lat="45.43645" lon="7.00739">
        <ele>2490.3</ele>
        <time>2020-08-08T10:20:08Z</time>
      </trkpt>
      <trkpt lat="45.43653" lon="7.0075">
        <ele>2490.5</ele>
        <time>2020-08-08T10:20:10Z</time>
      </trkpt>
      <trkpt lat="45.43657" lon="7.00755">
        <ele>2490.6</ele>
        <time>2020-08-08T10:20:12Z</time>
      </trkpt>
      <trkpt lat="45.4366" lon="7.00759">
        <ele>2490.7</ele>
        <time>2020-08-08T10:20:14Z</time>
      </trkpt>
      <trkpt lat="45.43665" lon="7.00765">
        <ele>2490.8</ele>
        <time>2020-08-08T10:20:15Z</time>
      </trkpt>
      <trkpt lat="45.43667" lon="7.0077">
        <ele>2490.9</ele>
        <time>2020-08-08T10:20:17Z</time>
      </trkpt>
      <trkpt lat="45.43672" lon="7.00777">
        <ele>2491</ele>
        <time>2020-08-08T10:20:18Z</time>
      </trkpt>
      <trkpt lat="45.43678" lon="7.00788">
        <ele>2491.1</ele>
        <time>2020-08-08T10:20:20Z</time>
      </trkpt>
      <trkpt lat="45.43681" lon="7.00794">
        <ele>2491.2</ele>
        <time>2020-08-08T10:20:22Z</time>
      </trkpt>
      <trkpt lat="45.43683" lon="7.00798">
        <ele>2491.3</ele>
        <time>2020-08-08T10:20:24Z</time>
      </trkpt>
      <trkpt lat="45.43687" lon="7.00805">
        <ele>2491.5</ele>
        <time>2020-08-08T10:20:25Z</time>
      </trkpt>
      <trkpt lat="45.4369" lon="7.0081">
        <ele>2491.6</ele>
        <time>2020-08-08T10:20:26Z</time>
      </trkpt>
      <trkpt lat="45.43693" lon="7.00815">
        <ele>2491.7</ele>
        <time>2020-08-08T10:20:27Z</time>
      </trkpt>
      <trkpt lat="45.43695" lon="7.0082">
        <ele>2491.8</ele>
        <time>2020-08-08T10:20:28Z</time>
      </trkpt>
      <trkpt lat="45.43701" lon="7.00828">
        <ele>2492.1</ele>
        <time>2020-08-08T10:20:31Z</time>
      </trkpt>
      <trkpt lat="45.43703" lon="7.00831">
        <ele>2492.3</ele>
        <time>2020-08-08T10:20:32Z</time>
      </trkpt>
      <trkpt lat="45.43706" lon="7.00836">
        <ele>2492.5</ele>
        <time>2020-08-08T10:20:34Z</time>
      </trkpt>
      <trkpt lat="45.43708" lon="7.00839">
        <ele>2492.6</ele>
        <time>2020-08-08T10:20:35Z</time>
      </trkpt>
      <trkpt lat="45.43711" lon="7.00844">
        <ele>2492.8</ele>
        <time>2020-08-08T10:20:36Z</time>
      </trkpt>
      <trkpt lat="45.43714" lon="7.00848">
        <ele>2493</ele>
        <time>2020-08-08T10:20:37Z</time>
      </trkpt>
      <trkpt lat="45.43717" lon="7.00851">
        <ele>2493.2</ele>
        <time>2020-08-08T10:20:39Z</time>
      </trkpt>
      <trkpt lat="45.43722" lon="7.00857">
        <ele>2493.6</ele>
        <time>2020-08-08T10:20:41Z</time>
      </trkpt>
      <trkpt lat="45.43725" lon="7.00859">
        <ele>2493.8</ele>
        <time>2020-08-08T10:20:42Z</time>
      </trkpt>
      <trkpt lat="45.43727" lon="7.00862">
        <ele>2494</ele>
        <time>2020-08-08T10:20:43Z</time>
      </trkpt>
      <trkpt lat="45.4373" lon="7.00865">
        <ele>2494.2</ele>
        <time>2020-08-08T10:20:44Z</time>
      </trkpt>
      <trkpt lat="45.43732" lon="7.00867">
        <ele>2494.3</ele>
        <time>2020-08-08T10:20:45Z</time>
      </trkpt>
      <trkpt lat="45.43736" lon="7.0087">
        <ele>2494.6</ele>
        <time>2020-08-08T10:20:47Z</time>
      </trkpt>
      <trkpt lat="45.43738" lon="7.00873">
        <ele>2494.8</ele>
        <time>2020-08-08T10:20:48Z</time>
      </trkpt>
      <trkpt lat="45.43741" lon="7.00876">
        <ele>2495</ele>
        <time>2020-08-08T10:20:49Z</time>
      </trkpt>
      <trkpt lat="45.43745" lon="7.00878">
        <ele>2495.3</ele>
        <time>2020-08-08T10:20:52Z</time>
      </trkpt>
      <trkpt lat="45.43747" lon="7.00881">
        <ele>2495.4</ele>
        <time>2020-08-08T10:20:53Z</time>
      </trkpt>
      <trkpt lat="45.43751" lon="7.00885">
        <ele>2495.8</ele>
        <time>2020-08-08T10:20:55Z</time>
      </trkpt>
      <trkpt lat="45.43754" lon="7.00888">
        <ele>2496</ele>
        <time>2020-08-08T10:20:56Z</time>
      </trkpt>
      <trkpt lat="45.43755" lon="7.00889">
        <ele>2496.1</ele>
        <time>2020-08-08T10:20:57Z</time>
      </trkpt>
      <trkpt lat="45.4376" lon="7.00892">
        <ele>2496.5</ele>
        <time>2020-08-08T10:20:58Z</time>
      </trkpt>
      <trkpt lat="45.43766" lon="7.00898">
        <ele>2497</ele>
        <time>2020-08-08T10:21:01Z</time>
      </trkpt>
      <trkpt lat="45.43769" lon="7.00901">
        <ele>2497.3</ele>
        <time>2020-08-08T10:21:03Z</time>
      </trkpt>
      <trkpt lat="45.43772" lon="7.00904">
        <ele>2497.6</ele>
        <time>2020-08-08T10:21:05Z</time>
      </trkpt>
      <trkpt lat="45.43774" lon="7.00905">
        <ele>2497.7</ele>
        <time>2020-08-08T10:21:06Z</time>
      </trkpt>
      <trkpt lat="45.43779" lon="7.00909">
        <ele>2498.1</ele>
        <time>2020-08-08T10:21:07Z</time>
      </trkpt>
      <trkpt lat="45.43785" lon="7.00914">
        <ele>2498.6</ele>
        <time>2020-08-08T10:21:10Z</time>
      </trkpt>
      <trkpt lat="45.43789" lon="7.00918">
        <ele>2498.9</ele>
        <time>2020-08-08T10:21:13Z</time>
      </trkpt>
      <trkpt lat="45.43791" lon="7.0092">
        <ele>2499.1</ele>
        <time>2020-08-08T10:21:14Z</time>
      </trkpt>
      <trkpt lat="45.43794" lon="7.00924">
        <ele>2499.3</ele>
        <time>2020-08-08T10:21:15Z</time>
      </trkpt>
      <trkpt lat="45.43796" lon="7.00925">
        <ele>2499.4</ele>
        <time>2020-08-08T10:21:16Z</time>
      </trkpt>
      <trkpt lat="45.43801" lon="7.0093">
        <ele>2499.9</ele>
        <time>2020-08-08T10:21:18Z</time>
      </trkpt>
      <trkpt lat="45.43803" lon="7.00932">
        <ele>2500.1</ele>
        <time>2020-08-08T10:21:20Z</time>
      </trkpt>
      <trkpt lat="45.43805" lon="7.00934">
        <ele>2500.3</ele>
        <time>2020-08-08T10:21:21Z</time>
      </trkpt>
      <trkpt lat="45.43808" lon="7.00937">
        <ele>2500.5</ele>
        <time>2020-08-08T10:21:24Z</time>
      </trkpt>
      <trkpt lat="45.4381" lon="7.00939">
        <ele>2500.7</ele>
        <time>2020-08-08T10:21:25Z</time>
      </trkpt>
      <trkpt lat="45.43815" lon="7.00944">
        <ele>2501.1</ele>
        <time>2020-08-08T10:21:26Z</time>
      </trkpt>
      <trkpt lat="45.43818" lon="7.00951">
        <ele>2501.6</ele>
        <time>2020-08-08T10:21:29Z</time>
      </trkpt>
      <trkpt lat="45.43822" lon="7.00955">
        <ele>2502</ele>
        <time>2020-08-08T10:21:31Z</time>
      </trkpt>
      <trkpt lat="45.43825" lon="7.00959">
        <ele>2502.4</ele>
        <time>2020-08-08T10:21:32Z</time>
      </trkpt>
      <trkpt lat="45.43827" lon="7.00962">
        <ele>2502.6</ele>
        <time>2020-08-08T10:21:34Z</time>
      </trkpt>
      <trkpt lat="45.43829" lon="7.00965">
        <ele>2502.8</ele>
        <time>2020-08-08T10:21:36Z</time>
      </trkpt>
      <trkpt lat="45.43835" lon="7.00972">
        <ele>2503.5</ele>
        <time>2020-08-08T10:21:38Z</time>
      </trkpt>
      <trkpt lat="45.43838" lon="7.00977">
        <ele>2503.9</ele>
        <time>2020-08-08T10:21:40Z</time>
      </trkpt>
      <trkpt lat="45.43839" lon="7.00978">
        <ele>2504</ele>
        <time>2020-08-08T10:21:41Z</time>
      </trkpt>
      <trkpt lat="45.4384" lon="7.0098">
        <ele>2504.1</ele>
        <time>2020-08-08T10:21:42Z</time>
      </trkpt>
      <trkpt lat="45.43842" lon="7.00986">
        <ele>2504.5</ele>
        <time>2020-08-08T10:21:44Z</time>
      </trkpt>
      <trkpt lat="45.43844" lon="7.00989">
        <ele>2504.8</ele>
        <time>2020-08-08T10:21:45Z</time>
      </trkpt>
      <trkpt lat="45.43845" lon="7.00992">
        <ele>2505</ele>
        <time>2020-08-08T10:21:46Z</time>
      </trkpt>
      <trkpt lat="45.43847" lon="7.00996">
        <ele>2505.2</ele>
        <time>2020-08-08T10:21:48Z</time>
      </trkpt>
      <trkpt lat="45.43849" lon="7.01002">
        <ele>2505.6</ele>
        <time>2020-08-08T10:21:50Z</time>
      </trkpt>
      <trkpt lat="45.43851" lon="7.01007">
        <ele>2506</ele>
        <time>2020-08-08T10:21:53Z</time>
      </trkpt>
      <trkpt lat="45.43853" lon="7.01012">
        <ele>2506.3</ele>
        <time>2020-08-08T10:21:54Z</time>
      </trkpt>
      <trkpt lat="45.43854" lon="7.01014">
        <ele>2506.3</ele>
        <time>2020-08-08T10:21:55Z</time>
      </trkpt>
      <trkpt lat="45.43855" lon="7.01017">
        <ele>2506.6</ele>
        <time>2020-08-08T10:21:56Z</time>
      </trkpt>
      <trkpt lat="45.43857" lon="7.01021">
        <ele>2506.8</ele>
        <time>2020-08-08T10:21:57Z</time>
      </trkpt>
      <trkpt lat="45.43858" lon="7.01022">
        <ele>2506.9</ele>
        <time>2020-08-08T10:21:58Z</time>
      </trkpt>
      <trkpt lat="45.43858" lon="7.01028">
        <ele>2507.2</ele>
        <time>2020-08-08T10:22:00Z</time>
      </trkpt>
      <trkpt lat="45.43857" lon="7.01034">
        <ele>2507.4</ele>
        <time>2020-08-08T10:22:01Z</time>
      </trkpt>
      <trkpt lat="45.43855" lon="7.0104">
        <ele>2507.7</ele>
        <time>2020-08-08T10:22:02Z</time>
      </trkpt>
      <trkpt lat="45.43848" lon="7.01044">
        <ele>2508.8</ele>
        <time>2020-08-08T10:22:05Z</time>
      </trkpt>
      <trkpt lat="45.43839" lon="7.01042">
        <ele>2509.5</ele>
        <time>2020-08-08T10:22:08Z</time>
      </trkpt>
      <trkpt lat="45.43837" lon="7.0104">
        <ele>2509.7</ele>
        <time>2020-08-08T10:22:09Z</time>
      </trkpt>
      <trkpt lat="45.43834" lon="7.01037">
        <ele>2510</ele>
        <time>2020-08-08T10:22:11Z</time>
      </trkpt>
      <trkpt lat="45.43829" lon="7.01034">
        <ele>2510.4</ele>
        <time>2020-08-08T10:22:13Z</time>
      </trkpt>
      <trkpt lat="45.43825" lon="7.01032">
        <ele>2510.7</ele>
        <time>2020-08-08T10:22:14Z</time>
      </trkpt>
      <trkpt lat="45.43821" lon="7.0103">
        <ele>2510.9</ele>
        <time>2020-08-08T10:22:16Z</time>
      </trkpt>
      <trkpt lat="45.43812" lon="7.01029">
        <ele>2511.5</ele>
        <time>2020-08-08T10:22:18Z</time>
      </trkpt>
      <trkpt lat="45.43809" lon="7.01029">
        <ele>2511.7</ele>
        <time>2020-08-08T10:22:19Z</time>
      </trkpt>
      <trkpt lat="45.43804" lon="7.01031">
        <ele>2511.9</ele>
        <time>2020-08-08T10:22:21Z</time>
      </trkpt>
      <trkpt lat="45.438" lon="7.01033">
        <ele>2512.2</ele>
        <time>2020-08-08T10:22:22Z</time>
      </trkpt>
      <trkpt lat="45.43796" lon="7.01035">
        <ele>2512.5</ele>
        <time>2020-08-08T10:22:24Z</time>
      </trkpt>
      <trkpt lat="45.43788" lon="7.01043">
        <ele>2513.1</ele>
        <time>2020-08-08T10:22:26Z</time>
      </trkpt>
      <trkpt lat="45.43785" lon="7.01048">
        <ele>2513.4</ele>
        <time>2020-08-08T10:22:28Z</time>
      </trkpt>
      <trkpt lat="45.43781" lon="7.01053">
        <ele>2513.7</ele>
        <time>2020-08-08T10:22:29Z</time>
      </trkpt>
      <trkpt lat="45.43778" lon="7.01058">
        <ele>2514</ele>
        <time>2020-08-08T10:22:31Z</time>
      </trkpt>
      <trkpt lat="45.43773" lon="7.01069">
        <ele>2514.5</ele>
        <time>2020-08-08T10:22:33Z</time>
      </trkpt>
      <trkpt lat="45.4377" lon="7.01075">
        <ele>2514.9</ele>
        <time>2020-08-08T10:22:35Z</time>
      </trkpt>
      <trkpt lat="45.43768" lon="7.01081">
        <ele>2515.1</ele>
        <time>2020-08-08T10:22:37Z</time>
      </trkpt>
      <trkpt lat="45.43765" lon="7.01089">
        <ele>2515.6</ele>
        <time>2020-08-08T10:22:38Z</time>
      </trkpt>
      <trkpt lat="45.43762" lon="7.01097">
        <ele>2516.1</ele>
        <time>2020-08-08T10:22:40Z</time>
      </trkpt>
      <trkpt lat="45.4376" lon="7.01103">
        <ele>2516.4</ele>
        <time>2020-08-08T10:22:41Z</time>
      </trkpt>
      <trkpt lat="45.43758" lon="7.01108">
        <ele>2516.8</ele>
        <time>2020-08-08T10:22:43Z</time>
      </trkpt>
      <trkpt lat="45.43755" lon="7.01119">
        <ele>2517.6</ele>
        <time>2020-08-08T10:22:45Z</time>
      </trkpt>
      <trkpt lat="45.43751" lon="7.01129">
        <ele>2518.4</ele>
        <time>2020-08-08T10:22:48Z</time>
      </trkpt>
      <trkpt lat="45.4375" lon="7.01134">
        <ele>2518.7</ele>
        <time>2020-08-08T10:22:49Z</time>
      </trkpt>
      <trkpt lat="45.43748" lon="7.01139">
        <ele>2519.2</ele>
        <time>2020-08-08T10:22:51Z</time>
      </trkpt>
      <trkpt lat="45.43746" lon="7.01144">
        <ele>2519.6</ele>
        <time>2020-08-08T10:22:52Z</time>
      </trkpt>
      <trkpt lat="45.43744" lon="7.01149">
        <ele>2520</ele>
        <time>2020-08-08T10:22:54Z</time>
      </trkpt>
      <trkpt lat="45.43741" lon="7.01153">
        <ele>2520.4</ele>
        <time>2020-08-08T10:22:55Z</time>
      </trkpt>
      <trkpt lat="45.4374" lon="7.01156">
        <ele>2520.6</ele>
        <time>2020-08-08T10:22:56Z</time>
      </trkpt>
      <trkpt lat="45.43736" lon="7.01162">
        <ele>2521.2</ele>
        <time>2020-08-08T10:22:58Z</time>
      </trkpt>
      <trkpt lat="45.43734" lon="7.01165">
        <ele>2521.5</ele>
        <time>2020-08-08T10:23:00Z</time>
      </trkpt>
      <trkpt lat="45.43732" lon="7.01168">
        <ele>2521.8</ele>
        <time>2020-08-08T10:23:01Z</time>
      </trkpt>
      <trkpt lat="45.43731" lon="7.0117">
        <ele>2522</ele>
        <time>2020-08-08T10:23:02Z</time>
      </trkpt>
      <trkpt lat="45.43729" lon="7.01174">
        <ele>2522.3</ele>
        <time>2020-08-08T10:23:03Z</time>
      </trkpt>
      <trkpt lat="45.43728" lon="7.01177">
        <ele>2522.6</ele>
        <time>2020-08-08T10:23:04Z</time>
      </trkpt>
      <trkpt lat="45.43723" lon="7.01184">
        <ele>2523.3</ele>
        <time>2020-08-08T10:23:07Z</time>
      </trkpt>
      <trkpt lat="45.43722" lon="7.01187">
        <ele>2523.5</ele>
        <time>2020-08-08T10:23:08Z</time>
      </trkpt>
      <trkpt lat="45.4372" lon="7.0119">
        <ele>2523.8</ele>
        <time>2020-08-08T10:23:11Z</time>
      </trkpt>
      <trkpt lat="45.43717" lon="7.01195">
        <ele>2524.3</ele>
        <time>2020-08-08T10:23:12Z</time>
      </trkpt>
      <trkpt lat="45.43716" lon="7.01199">
        <ele>2524.6</ele>
        <time>2020-08-08T10:23:13Z</time>
      </trkpt>
      <trkpt lat="45.43713" lon="7.01208">
        <ele>2525.3</ele>
        <time>2020-08-08T10:23:16Z</time>
      </trkpt>
      <trkpt lat="45.43712" lon="7.01212">
        <ele>2525.6</ele>
        <time>2020-08-08T10:23:18Z</time>
      </trkpt>
      <trkpt lat="45.43711" lon="7.01218">
        <ele>2526</ele>
        <time>2020-08-08T10:23:20Z</time>
      </trkpt>
      <trkpt lat="45.43711" lon="7.01221">
        <ele>2526.3</ele>
        <time>2020-08-08T10:23:21Z</time>
      </trkpt>
      <trkpt lat="45.4371" lon="7.01229">
        <ele>2526.8</ele>
        <time>2020-08-08T10:23:23Z</time>
      </trkpt>
      <trkpt lat="45.43709" lon="7.01233">
        <ele>2527</ele>
        <time>2020-08-08T10:23:24Z</time>
      </trkpt>
      <trkpt lat="45.43709" lon="7.01237">
        <ele>2527.3</ele>
        <time>2020-08-08T10:23:25Z</time>
      </trkpt>
      <trkpt lat="45.43708" lon="7.01241">
        <ele>2527.5</ele>
        <time>2020-08-08T10:23:27Z</time>
      </trkpt>
      <trkpt lat="45.43706" lon="7.01246">
        <ele>2527.9</ele>
        <time>2020-08-08T10:23:28Z</time>
      </trkpt>
      <trkpt lat="45.43706" lon="7.0125">
        <ele>2528.2</ele>
        <time>2020-08-08T10:23:29Z</time>
      </trkpt>
      <trkpt lat="45.43704" lon="7.01255">
        <ele>2528.5</ele>
        <time>2020-08-08T10:23:31Z</time>
      </trkpt>
      <trkpt lat="45.43702" lon="7.01259">
        <ele>2528.9</ele>
        <time>2020-08-08T10:23:32Z</time>
      </trkpt>
      <trkpt lat="45.437" lon="7.01263">
        <ele>2529.2</ele>
        <time>2020-08-08T10:23:34Z</time>
      </trkpt>
      <trkpt lat="45.43697" lon="7.01267">
        <ele>2529.6</ele>
        <time>2020-08-08T10:23:35Z</time>
      </trkpt>
      <trkpt lat="45.43696" lon="7.01269">
        <ele>2529.8</ele>
        <time>2020-08-08T10:23:36Z</time>
      </trkpt>
      <trkpt lat="45.43693" lon="7.01271">
        <ele>2530.1</ele>
        <time>2020-08-08T10:23:37Z</time>
      </trkpt>
      <trkpt lat="45.43689" lon="7.01276">
        <ele>2530.6</ele>
        <time>2020-08-08T10:23:39Z</time>
      </trkpt>
      <trkpt lat="45.43687" lon="7.01279">
        <ele>2530.8</ele>
        <time>2020-08-08T10:23:41Z</time>
      </trkpt>
      <trkpt lat="45.43685" lon="7.01281">
        <ele>2531.1</ele>
        <time>2020-08-08T10:23:42Z</time>
      </trkpt>
      <trkpt lat="45.43683" lon="7.01283">
        <ele>2531.3</ele>
        <time>2020-08-08T10:23:43Z</time>
      </trkpt>
      <trkpt lat="45.4368" lon="7.01288">
        <ele>2531.7</ele>
        <time>2020-08-08T10:23:45Z</time>
      </trkpt>
      <trkpt lat="45.43675" lon="7.01294">
        <ele>2532.4</ele>
        <time>2020-08-08T10:23:47Z</time>
      </trkpt>
      <trkpt lat="45.43673" lon="7.01297">
        <ele>2532.7</ele>
        <time>2020-08-08T10:23:49Z</time>
      </trkpt>
      <trkpt lat="45.43668" lon="7.01303">
        <ele>2533.3</ele>
        <time>2020-08-08T10:23:51Z</time>
      </trkpt>
      <trkpt lat="45.43665" lon="7.01307">
        <ele>2533.7</ele>
        <time>2020-08-08T10:23:54Z</time>
      </trkpt>
      <trkpt lat="45.43662" lon="7.01312">
        <ele>2534.1</ele>
        <time>2020-08-08T10:23:55Z</time>
      </trkpt>
      <trkpt lat="45.43659" lon="7.01315">
        <ele>2534.4</ele>
        <time>2020-08-08T10:23:57Z</time>
      </trkpt>
      <trkpt lat="45.43658" lon="7.01317">
        <ele>2534.5</ele>
        <time>2020-08-08T10:23:58Z</time>
      </trkpt>
      <trkpt lat="45.43655" lon="7.01322">
        <ele>2534.9</ele>
        <time>2020-08-08T10:23:59Z</time>
      </trkpt>
      <trkpt lat="45.43654" lon="7.01324">
        <ele>2535.1</ele>
        <time>2020-08-08T10:24:00Z</time>
      </trkpt>
      <trkpt lat="45.4365" lon="7.01329">
        <ele>2535.6</ele>
        <time>2020-08-08T10:24:02Z</time>
      </trkpt>
      <trkpt lat="45.43648" lon="7.01331">
        <ele>2535.8</ele>
        <time>2020-08-08T10:24:03Z</time>
      </trkpt>
      <trkpt lat="45.43646" lon="7.01334">
        <ele>2536</ele>
        <time>2020-08-08T10:24:04Z</time>
      </trkpt>
      <trkpt lat="45.43644" lon="7.01338">
        <ele>2536.3</ele>
        <time>2020-08-08T10:24:05Z</time>
      </trkpt>
      <trkpt lat="45.4364" lon="7.01344">
        <ele>2536.8</ele>
        <time>2020-08-08T10:24:07Z</time>
      </trkpt>
      <trkpt lat="45.43637" lon="7.01347">
        <ele>2537.1</ele>
        <time>2020-08-08T10:24:08Z</time>
      </trkpt>
      <trkpt lat="45.43632" lon="7.01356">
        <ele>2537.8</ele>
        <time>2020-08-08T10:24:11Z</time>
      </trkpt>
      <trkpt lat="45.43628" lon="7.01363">
        <ele>2538.4</ele>
        <time>2020-08-08T10:24:14Z</time>
      </trkpt>
      <trkpt lat="45.43626" lon="7.01366">
        <ele>2538.7</ele>
        <time>2020-08-08T10:24:15Z</time>
      </trkpt>
      <trkpt lat="45.43624" lon="7.01369">
        <ele>2538.9</ele>
        <time>2020-08-08T10:24:16Z</time>
      </trkpt>
      <trkpt lat="45.43619" lon="7.01377">
        <ele>2539.6</ele>
        <time>2020-08-08T10:24:19Z</time>
      </trkpt>
      <trkpt lat="45.43617" lon="7.01381">
        <ele>2540</ele>
        <time>2020-08-08T10:24:20Z</time>
      </trkpt>
      <trkpt lat="45.43614" lon="7.01382">
        <ele>2540.2</ele>
        <time>2020-08-08T10:24:21Z</time>
      </trkpt>
      <trkpt lat="45.43608" lon="7.01385">
        <ele>2540.8</ele>
        <time>2020-08-08T10:24:24Z</time>
      </trkpt>
      <trkpt lat="45.43604" lon="7.01385">
        <ele>2541.1</ele>
        <time>2020-08-08T10:24:25Z</time>
      </trkpt>
      <trkpt lat="45.43599" lon="7.01386">
        <ele>2541.5</ele>
        <time>2020-08-08T10:24:27Z</time>
      </trkpt>
      <trkpt lat="45.43594" lon="7.01387">
        <ele>2542</ele>
        <time>2020-08-08T10:24:28Z</time>
      </trkpt>
      <trkpt lat="45.4359" lon="7.01387">
        <ele>2542.3</ele>
        <time>2020-08-08T10:24:31Z</time>
      </trkpt>
      <trkpt lat="45.43585" lon="7.01386">
        <ele>2542.7</ele>
        <time>2020-08-08T10:24:33Z</time>
      </trkpt>
      <trkpt lat="45.43582" lon="7.01386">
        <ele>2543</ele>
        <time>2020-08-08T10:24:34Z</time>
      </trkpt>
      <trkpt lat="45.43579" lon="7.01384">
        <ele>2543.2</ele>
        <time>2020-08-08T10:24:35Z</time>
      </trkpt>
      <trkpt lat="45.43574" lon="7.01382">
        <ele>2543.6</ele>
        <time>2020-08-08T10:24:36Z</time>
      </trkpt>
      <trkpt lat="45.43567" lon="7.0138">
        <ele>2544.1</ele>
        <time>2020-08-08T10:24:38Z</time>
      </trkpt>
      <trkpt lat="45.43563" lon="7.01379">
        <ele>2544.4</ele>
        <time>2020-08-08T10:24:39Z</time>
      </trkpt>
      <trkpt lat="45.43556" lon="7.01379">
        <ele>2544.9</ele>
        <time>2020-08-08T10:24:42Z</time>
      </trkpt>
      <trkpt lat="45.43552" lon="7.01379">
        <ele>2545.1</ele>
        <time>2020-08-08T10:24:43Z</time>
      </trkpt>
      <trkpt lat="45.43546" lon="7.01382">
        <ele>2545.6</ele>
        <time>2020-08-08T10:24:45Z</time>
      </trkpt>
      <trkpt lat="45.43541" lon="7.01386">
        <ele>2545.9</ele>
        <time>2020-08-08T10:24:48Z</time>
      </trkpt>
      <trkpt lat="45.43539" lon="7.01388">
        <ele>2546.1</ele>
        <time>2020-08-08T10:24:49Z</time>
      </trkpt>
      <trkpt lat="45.43533" lon="7.01395">
        <ele>2546.5</ele>
        <time>2020-08-08T10:24:51Z</time>
      </trkpt>
      <trkpt lat="45.43529" lon="7.014">
        <ele>2546.8</ele>
        <time>2020-08-08T10:24:53Z</time>
      </trkpt>
      <trkpt lat="45.43527" lon="7.01403">
        <ele>2547</ele>
        <time>2020-08-08T10:24:54Z</time>
      </trkpt>
      <trkpt lat="45.43523" lon="7.01408">
        <ele>2547.3</ele>
        <time>2020-08-08T10:24:55Z</time>
      </trkpt>
      <trkpt lat="45.4352" lon="7.01411">
        <ele>2547.4</ele>
        <time>2020-08-08T10:24:57Z</time>
      </trkpt>
      <trkpt lat="45.43517" lon="7.01415">
        <ele>2547.7</ele>
        <time>2020-08-08T10:24:58Z</time>
      </trkpt>
      <trkpt lat="45.43512" lon="7.0142">
        <ele>2548.1</ele>
        <time>2020-08-08T10:25:00Z</time>
      </trkpt>
      <trkpt lat="45.43509" lon="7.01423">
        <ele>2548.3</ele>
        <time>2020-08-08T10:25:01Z</time>
      </trkpt>
      <trkpt lat="45.43504" lon="7.01428">
        <ele>2548.6</ele>
        <time>2020-08-08T10:25:02Z</time>
      </trkpt>
      <trkpt lat="45.43498" lon="7.01433">
        <ele>2549</ele>
        <time>2020-08-08T10:25:04Z</time>
      </trkpt>
      <trkpt lat="45.43494" lon="7.01436">
        <ele>2549.3</ele>
        <time>2020-08-08T10:25:05Z</time>
      </trkpt>
      <trkpt lat="45.43491" lon="7.01439">
        <ele>2549.5</ele>
        <time>2020-08-08T10:25:07Z</time>
      </trkpt>
      <trkpt lat="45.43487" lon="7.01442">
        <ele>2549.8</ele>
        <time>2020-08-08T10:25:09Z</time>
      </trkpt>
      <trkpt lat="45.43481" lon="7.01446">
        <ele>2550.1</ele>
        <time>2020-08-08T10:25:10Z</time>
      </trkpt>
      <trkpt lat="45.43474" lon="7.01451">
        <ele>2550.6</ele>
        <time>2020-08-08T10:25:12Z</time>
      </trkpt>
      <trkpt lat="45.43467" lon="7.01456">
        <ele>2551</ele>
        <time>2020-08-08T10:25:15Z</time>
      </trkpt>
      <trkpt lat="45.43464" lon="7.01459">
        <ele>2551.2</ele>
        <time>2020-08-08T10:25:16Z</time>
      </trkpt>
      <trkpt lat="45.43459" lon="7.01463">
        <ele>2551.6</ele>
        <time>2020-08-08T10:25:18Z</time>
      </trkpt>
      <trkpt lat="45.43456" lon="7.01465">
        <ele>2551.8</ele>
        <time>2020-08-08T10:25:20Z</time>
      </trkpt>
      <trkpt lat="45.43449" lon="7.01471">
        <ele>2552.3</ele>
        <time>2020-08-08T10:25:21Z</time>
      </trkpt>
      <trkpt lat="45.43445" lon="7.01473">
        <ele>2552.5</ele>
        <time>2020-08-08T10:25:22Z</time>
      </trkpt>
      <trkpt lat="45.43435" lon="7.01479">
        <ele>2553.2</ele>
        <time>2020-08-08T10:25:25Z</time>
      </trkpt>
      <trkpt lat="45.43431" lon="7.01482">
        <ele>2553.5</ele>
        <time>2020-08-08T10:25:28Z</time>
      </trkpt>
      <trkpt lat="45.43428" lon="7.01484">
        <ele>2553.7</ele>
        <time>2020-08-08T10:25:29Z</time>
      </trkpt>
      <trkpt lat="45.43425" lon="7.01487">
        <ele>2553.9</ele>
        <time>2020-08-08T10:25:30Z</time>
      </trkpt>
      <trkpt lat="45.43419" lon="7.01491">
        <ele>2554.3</ele>
        <time>2020-08-08T10:25:31Z</time>
      </trkpt>
      <trkpt lat="45.43416" lon="7.01494">
        <ele>2554.6</ele>
        <time>2020-08-08T10:25:32Z</time>
      </trkpt>
      <trkpt lat="45.43413" lon="7.01496">
        <ele>2554.8</ele>
        <time>2020-08-08T10:25:34Z</time>
      </trkpt>
      <trkpt lat="45.43408" lon="7.015">
        <ele>2555.2</ele>
        <time>2020-08-08T10:25:36Z</time>
      </trkpt>
      <trkpt lat="45.434" lon="7.01506">
        <ele>2555.7</ele>
        <time>2020-08-08T10:25:37Z</time>
      </trkpt>
      <trkpt lat="45.43396" lon="7.01508">
        <ele>2556</ele>
        <time>2020-08-08T10:25:39Z</time>
      </trkpt>
      <trkpt lat="45.43393" lon="7.01511">
        <ele>2556.2</ele>
        <time>2020-08-08T10:25:41Z</time>
      </trkpt>
      <trkpt lat="45.43388" lon="7.01515">
        <ele>2556.6</ele>
        <time>2020-08-08T10:25:43Z</time>
      </trkpt>
      <trkpt lat="45.43382" lon="7.01521">
        <ele>2557</ele>
        <time>2020-08-08T10:25:45Z</time>
      </trkpt>
      <trkpt lat="45.43378" lon="7.01527">
        <ele>2557.4</ele>
        <time>2020-08-08T10:25:47Z</time>
      </trkpt>
      <trkpt lat="45.43373" lon="7.01535">
        <ele>2557.8</ele>
        <time>2020-08-08T10:25:48Z</time>
      </trkpt>
      <trkpt lat="45.43371" lon="7.01539">
        <ele>2558</ele>
        <time>2020-08-08T10:25:50Z</time>
      </trkpt>
      <trkpt lat="45.43367" lon="7.01546">
        <ele>2558.3</ele>
        <time>2020-08-08T10:25:51Z</time>
      </trkpt>
      <trkpt lat="45.43362" lon="7.01555">
        <ele>2558.9</ele>
        <time>2020-08-08T10:25:53Z</time>
      </trkpt>
      <trkpt lat="45.43357" lon="7.01566">
        <ele>2559.5</ele>
        <time>2020-08-08T10:25:56Z</time>
      </trkpt>
      <trkpt lat="45.43355" lon="7.01571">
        <ele>2559.7</ele>
        <time>2020-08-08T10:25:57Z</time>
      </trkpt>
      <trkpt lat="45.43352" lon="7.01576">
        <ele>2560</ele>
        <time>2020-08-08T10:25:59Z</time>
      </trkpt>
      <trkpt lat="45.43351" lon="7.01581">
        <ele>2560.2</ele>
        <time>2020-08-08T10:26:00Z</time>
      </trkpt>
      <trkpt lat="45.43347" lon="7.01591">
        <ele>2560.7</ele>
        <time>2020-08-08T10:26:02Z</time>
      </trkpt>
      <trkpt lat="45.43344" lon="7.01596">
        <ele>2561</ele>
        <time>2020-08-08T10:26:04Z</time>
      </trkpt>
      <trkpt lat="45.43342" lon="7.01602">
        <ele>2561.3</ele>
        <time>2020-08-08T10:26:05Z</time>
      </trkpt>
      <trkpt lat="45.4334" lon="7.01607">
        <ele>2561.7</ele>
        <time>2020-08-08T10:26:06Z</time>
      </trkpt>
      <trkpt lat="45.43336" lon="7.01615">
        <ele>2562.1</ele>
        <time>2020-08-08T10:26:09Z</time>
      </trkpt>
      <trkpt lat="45.43333" lon="7.01621">
        <ele>2562.5</ele>
        <time>2020-08-08T10:26:10Z</time>
      </trkpt>
      <trkpt lat="45.43331" lon="7.01628">
        <ele>2562.9</ele>
        <time>2020-08-08T10:26:11Z</time>
      </trkpt>
      <trkpt lat="45.43328" lon="7.01632">
        <ele>2563.2</ele>
        <time>2020-08-08T10:26:13Z</time>
      </trkpt>
      <trkpt lat="45.43325" lon="7.01637">
        <ele>2563.5</ele>
        <time>2020-08-08T10:26:15Z</time>
      </trkpt>
      <trkpt lat="45.43322" lon="7.01644">
        <ele>2563.9</ele>
        <time>2020-08-08T10:26:16Z</time>
      </trkpt>
      <trkpt lat="45.4332" lon="7.01649">
        <ele>2564.2</ele>
        <time>2020-08-08T10:26:17Z</time>
      </trkpt>
      <trkpt lat="45.43317" lon="7.01655">
        <ele>2564.5</ele>
        <time>2020-08-08T10:26:20Z</time>
      </trkpt>
      <trkpt lat="45.43314" lon="7.01662">
        <ele>2565</ele>
        <time>2020-08-08T10:26:22Z</time>
      </trkpt>
      <trkpt lat="45.4331" lon="7.01671">
        <ele>2565.5</ele>
        <time>2020-08-08T10:26:24Z</time>
      </trkpt>
      <trkpt lat="45.43309" lon="7.01675">
        <ele>2565.7</ele>
        <time>2020-08-08T10:26:25Z</time>
      </trkpt>
      <trkpt lat="45.43306" lon="7.01682">
        <ele>2566.1</ele>
        <time>2020-08-08T10:26:26Z</time>
      </trkpt>
      <trkpt lat="45.43304" lon="7.01687">
        <ele>2566.4</ele>
        <time>2020-08-08T10:26:28Z</time>
      </trkpt>
      <trkpt lat="45.433" lon="7.01696">
        <ele>2567.1</ele>
        <time>2020-08-08T10:26:29Z</time>
      </trkpt>
      <trkpt lat="45.43297" lon="7.01701">
        <ele>2567.4</ele>
        <time>2020-08-08T10:26:31Z</time>
      </trkpt>
      <trkpt lat="45.43295" lon="7.01706">
        <ele>2567.7</ele>
        <time>2020-08-08T10:26:32Z</time>
      </trkpt>
      <trkpt lat="45.43293" lon="7.0171">
        <ele>2568</ele>
        <time>2020-08-08T10:26:33Z</time>
      </trkpt>
      <trkpt lat="45.43291" lon="7.01713">
        <ele>2568.2</ele>
        <time>2020-08-08T10:26:34Z</time>
      </trkpt>
      <trkpt lat="45.43285" lon="7.01721">
        <ele>2568.9</ele>
        <time>2020-08-08T10:26:37Z</time>
      </trkpt>
      <trkpt lat="45.43282" lon="7.01725">
        <ele>2569.2</ele>
        <time>2020-08-08T10:26:38Z</time>
      </trkpt>
      <trkpt lat="45.43279" lon="7.01728">
        <ele>2569.5</ele>
        <time>2020-08-08T10:26:40Z</time>
      </trkpt>
      <trkpt lat="45.43276" lon="7.01731">
        <ele>2569.8</ele>
        <time>2020-08-08T10:26:42Z</time>
      </trkpt>
      <trkpt lat="45.43275" lon="7.01732">
        <ele>2569.9</ele>
        <time>2020-08-08T10:26:43Z</time>
      </trkpt>
      <trkpt lat="45.43271" lon="7.01736">
        <ele>2570.3</ele>
        <time>2020-08-08T10:26:44Z</time>
      </trkpt>
      <trkpt lat="45.43266" lon="7.0174">
        <ele>2570.7</ele>
        <time>2020-08-08T10:26:46Z</time>
      </trkpt>
      <trkpt lat="45.43262" lon="7.01742">
        <ele>2571</ele>
        <time>2020-08-08T10:26:47Z</time>
      </trkpt>
      <trkpt lat="45.43259" lon="7.01745">
        <ele>2571.3</ele>
        <time>2020-08-08T10:26:49Z</time>
      </trkpt>
      <trkpt lat="45.43256" lon="7.01747">
        <ele>2571.6</ele>
        <time>2020-08-08T10:26:51Z</time>
      </trkpt>
      <trkpt lat="45.43252" lon="7.01751">
        <ele>2572</ele>
        <time>2020-08-08T10:26:53Z</time>
      </trkpt>
      <trkpt lat="45.43248" lon="7.01755">
        <ele>2572.4</ele>
        <time>2020-08-08T10:26:54Z</time>
      </trkpt>
      <trkpt lat="45.43245" lon="7.01758">
        <ele>2572.7</ele>
        <time>2020-08-08T10:26:56Z</time>
      </trkpt>
      <trkpt lat="45.4324" lon="7.01761">
        <ele>2573</ele>
        <time>2020-08-08T10:26:57Z</time>
      </trkpt>
      <trkpt lat="45.43235" lon="7.01766">
        <ele>2573.4</ele>
        <time>2020-08-08T10:26:59Z</time>
      </trkpt>
      <trkpt lat="45.43232" lon="7.01769">
        <ele>2573.6</ele>
        <time>2020-08-08T10:27:00Z</time>
      </trkpt>
      <trkpt lat="45.43228" lon="7.01773">
        <ele>2573.9</ele>
        <time>2020-08-08T10:27:02Z</time>
      </trkpt>
      <trkpt lat="45.43225" lon="7.01776">
        <ele>2574.2</ele>
        <time>2020-08-08T10:27:03Z</time>
      </trkpt>
      <trkpt lat="45.43219" lon="7.01782">
        <ele>2574.6</ele>
        <time>2020-08-08T10:27:06Z</time>
      </trkpt>
      <trkpt lat="45.43217" lon="7.01784">
        <ele>2574.8</ele>
        <time>2020-08-08T10:27:07Z</time>
      </trkpt>
      <trkpt lat="45.43214" lon="7.01787">
        <ele>2575</ele>
        <time>2020-08-08T10:27:08Z</time>
      </trkpt>
      <trkpt lat="45.43212" lon="7.01789">
        <ele>2575.2</ele>
        <time>2020-08-08T10:27:09Z</time>
      </trkpt>
      <trkpt lat="45.43204" lon="7.01796">
        <ele>2575.8</ele>
        <time>2020-08-08T10:27:12Z</time>
      </trkpt>
      <trkpt lat="45.43201" lon="7.01799">
        <ele>2576</ele>
        <time>2020-08-08T10:27:13Z</time>
      </trkpt>
      <trkpt lat="45.43199" lon="7.01802">
        <ele>2576.2</ele>
        <time>2020-08-08T10:27:14Z</time>
      </trkpt>
      <trkpt lat="45.43196" lon="7.01804">
        <ele>2576.4</ele>
        <time>2020-08-08T10:27:15Z</time>
      </trkpt>
      <trkpt lat="45.43194" lon="7.01807">
        <ele>2576.6</ele>
        <time>2020-08-08T10:27:17Z</time>
      </trkpt>
      <trkpt lat="45.43191" lon="7.0181">
        <ele>2576.8</ele>
        <time>2020-08-08T10:27:19Z</time>
      </trkpt>
      <trkpt lat="45.43187" lon="7.01813">
        <ele>2577.1</ele>
        <time>2020-08-08T10:27:20Z</time>
      </trkpt>
      <trkpt lat="45.43184" lon="7.01816">
        <ele>2577.4</ele>
        <time>2020-08-08T10:27:21Z</time>
      </trkpt>
      <trkpt lat="45.4318" lon="7.01819">
        <ele>2577.6</ele>
        <time>2020-08-08T10:27:22Z</time>
      </trkpt>
      <trkpt lat="45.43177" lon="7.01822">
        <ele>2577.9</ele>
        <time>2020-08-08T10:27:25Z</time>
      </trkpt>
      <trkpt lat="45.43174" lon="7.01825">
        <ele>2578.1</ele>
        <time>2020-08-08T10:27:26Z</time>
      </trkpt>
      <trkpt lat="45.43167" lon="7.01829">
        <ele>2578.6</ele>
        <time>2020-08-08T10:27:27Z</time>
      </trkpt>
      <trkpt lat="45.43164" lon="7.01831">
        <ele>2578.9</ele>
        <time>2020-08-08T10:27:29Z</time>
      </trkpt>
      <trkpt lat="45.4316" lon="7.01833">
        <ele>2579.2</ele>
        <time>2020-08-08T10:27:30Z</time>
      </trkpt>
      <trkpt lat="45.43156" lon="7.01835">
        <ele>2579.5</ele>
        <time>2020-08-08T10:27:32Z</time>
      </trkpt>
      <trkpt lat="45.43153" lon="7.01836">
        <ele>2579.8</ele>
        <time>2020-08-08T10:27:34Z</time>
      </trkpt>
      <trkpt lat="45.43149" lon="7.01838">
        <ele>2580.1</ele>
        <time>2020-08-08T10:27:35Z</time>
      </trkpt>
      <trkpt lat="45.43146" lon="7.0184">
        <ele>2580.2</ele>
        <time>2020-08-08T10:27:36Z</time>
      </trkpt>
      <trkpt lat="45.43143" lon="7.01841">
        <ele>2580.4</ele>
        <time>2020-08-08T10:27:38Z</time>
      </trkpt>
      <trkpt lat="45.4314" lon="7.01842">
        <ele>2580.6</ele>
        <time>2020-08-08T10:27:39Z</time>
      </trkpt>
      <trkpt lat="45.43136" lon="7.01844">
        <ele>2580.9</ele>
        <time>2020-08-08T10:27:40Z</time>
      </trkpt>
      <trkpt lat="45.43133" lon="7.01845">
        <ele>2581.2</ele>
        <time>2020-08-08T10:27:41Z</time>
      </trkpt>
      <trkpt lat="45.43129" lon="7.01847">
        <ele>2581.4</ele>
        <time>2020-08-08T10:27:42Z</time>
      </trkpt>
      <trkpt lat="45.43125" lon="7.01849">
        <ele>2581.7</ele>
        <time>2020-08-08T10:27:44Z</time>
      </trkpt>
      <trkpt lat="45.43122" lon="7.01851">
        <ele>2582</ele>
        <time>2020-08-08T10:27:46Z</time>
      </trkpt>
      <trkpt lat="45.4312" lon="7.01852">
        <ele>2582.2</ele>
        <time>2020-08-08T10:27:47Z</time>
      </trkpt>
      <trkpt lat="45.43115" lon="7.01855">
        <ele>2582.6</ele>
        <time>2020-08-08T10:27:48Z</time>
      </trkpt>
      <trkpt lat="45.43112" lon="7.01857">
        <ele>2582.8</ele>
        <time>2020-08-08T10:27:49Z</time>
      </trkpt>
      <trkpt lat="45.43105" lon="7.01862">
        <ele>2583.3</ele>
        <time>2020-08-08T10:27:52Z</time>
      </trkpt>
      <trkpt lat="45.43103" lon="7.01863">
        <ele>2583.5</ele>
        <time>2020-08-08T10:27:53Z</time>
      </trkpt>
      <trkpt lat="45.431" lon="7.01865">
        <ele>2583.7</ele>
        <time>2020-08-08T10:27:54Z</time>
      </trkpt>
      <trkpt lat="45.43095" lon="7.01868">
        <ele>2584.1</ele>
        <time>2020-08-08T10:27:57Z</time>
      </trkpt>
      <trkpt lat="45.43093" lon="7.01869">
        <ele>2584.3</ele>
        <time>2020-08-08T10:27:58Z</time>
      </trkpt>
      <trkpt lat="45.43084" lon="7.01875">
        <ele>2584.9</ele>
        <time>2020-08-08T10:28:00Z</time>
      </trkpt>
      <trkpt lat="45.4308" lon="7.01878">
        <ele>2585.2</ele>
        <time>2020-08-08T10:28:02Z</time>
      </trkpt>
      <trkpt lat="45.43077" lon="7.0188">
        <ele>2585.5</ele>
        <time>2020-08-08T10:28:03Z</time>
      </trkpt>
      <trkpt lat="45.43073" lon="7.01882">
        <ele>2585.8</ele>
        <time>2020-08-08T10:28:06Z</time>
      </trkpt>
      <trkpt lat="45.43068" lon="7.01885">
        <ele>2586.2</ele>
        <time>2020-08-08T10:28:08Z</time>
      </trkpt>
      <trkpt lat="45.43061" lon="7.01889">
        <ele>2586.7</ele>
        <time>2020-08-08T10:28:09Z</time>
      </trkpt>
      <trkpt lat="45.43055" lon="7.01893">
        <ele>2587.3</ele>
        <time>2020-08-08T10:28:12Z</time>
      </trkpt>
      <trkpt lat="45.43052" lon="7.01895">
        <ele>2587.5</ele>
        <time>2020-08-08T10:28:13Z</time>
      </trkpt>
      <trkpt lat="45.4305" lon="7.01896">
        <ele>2587.7</ele>
        <time>2020-08-08T10:28:14Z</time>
      </trkpt>
      <trkpt lat="45.43043" lon="7.01901">
        <ele>2588.2</ele>
        <time>2020-08-08T10:28:17Z</time>
      </trkpt>
      <trkpt lat="45.4304" lon="7.01903">
        <ele>2588.5</ele>
        <time>2020-08-08T10:28:18Z</time>
      </trkpt>
      <trkpt lat="45.43031" lon="7.0191">
        <ele>2589.4</ele>
        <time>2020-08-08T10:28:21Z</time>
      </trkpt>
      <trkpt lat="45.43028" lon="7.01912">
        <ele>2589.6</ele>
        <time>2020-08-08T10:28:23Z</time>
      </trkpt>
      <trkpt lat="45.43025" lon="7.01915">
        <ele>2589.9</ele>
        <time>2020-08-08T10:28:24Z</time>
      </trkpt>
      <trkpt lat="45.43021" lon="7.01921">
        <ele>2590.4</ele>
        <time>2020-08-08T10:28:26Z</time>
      </trkpt>
      <trkpt lat="45.43019" lon="7.01924">
        <ele>2590.6</ele>
        <time>2020-08-08T10:28:27Z</time>
      </trkpt>
      <trkpt lat="45.43017" lon="7.01928">
        <ele>2590.9</ele>
        <time>2020-08-08T10:28:28Z</time>
      </trkpt>
      <trkpt lat="45.43015" lon="7.01931">
        <ele>2591.2</ele>
        <time>2020-08-08T10:28:30Z</time>
      </trkpt>
      <trkpt lat="45.43013" lon="7.01934">
        <ele>2591.4</ele>
        <time>2020-08-08T10:28:31Z</time>
      </trkpt>
      <trkpt lat="45.43011" lon="7.01937">
        <ele>2591.7</ele>
        <time>2020-08-08T10:28:32Z</time>
      </trkpt>
      <trkpt lat="45.43009" lon="7.0194">
        <ele>2592</ele>
        <time>2020-08-08T10:28:33Z</time>
      </trkpt>
      <trkpt lat="45.43006" lon="7.01943">
        <ele>2592.3</ele>
        <time>2020-08-08T10:28:34Z</time>
      </trkpt>
      <trkpt lat="45.43004" lon="7.01946">
        <ele>2592.6</ele>
        <time>2020-08-08T10:28:35Z</time>
      </trkpt>
      <trkpt lat="45.43002" lon="7.01949">
        <ele>2592.8</ele>
        <time>2020-08-08T10:28:37Z</time>
      </trkpt>
      <trkpt lat="45.43" lon="7.01952">
        <ele>2593.1</ele>
        <time>2020-08-08T10:28:38Z</time>
      </trkpt>
      <trkpt lat="45.42998" lon="7.01955">
        <ele>2593.4</ele>
        <time>2020-08-08T10:28:39Z</time>
      </trkpt>
      <trkpt lat="45.42996" lon="7.01959">
        <ele>2593.7</ele>
        <time>2020-08-08T10:28:40Z</time>
      </trkpt>
      <trkpt lat="45.42995" lon="7.01961">
        <ele>2593.9</ele>
        <time>2020-08-08T10:28:41Z</time>
      </trkpt>
      <trkpt lat="45.42993" lon="7.01963">
        <ele>2594.1</ele>
        <time>2020-08-08T10:28:43Z</time>
      </trkpt>
      <trkpt lat="45.42991" lon="7.01967">
        <ele>2594.3</ele>
        <time>2020-08-08T10:28:45Z</time>
      </trkpt>
      <trkpt lat="45.42987" lon="7.01972">
        <ele>2594.8</ele>
        <time>2020-08-08T10:28:46Z</time>
      </trkpt>
      <trkpt lat="45.42984" lon="7.01976">
        <ele>2595.1</ele>
        <time>2020-08-08T10:28:49Z</time>
      </trkpt>
      <trkpt lat="45.42981" lon="7.01981">
        <ele>2595.5</ele>
        <time>2020-08-08T10:28:50Z</time>
      </trkpt>
      <trkpt lat="45.4298" lon="7.01983">
        <ele>2595.6</ele>
        <time>2020-08-08T10:28:51Z</time>
      </trkpt>
      <trkpt lat="45.42975" lon="7.01989">
        <ele>2596.1</ele>
        <time>2020-08-08T10:28:53Z</time>
      </trkpt>
      <trkpt lat="45.42971" lon="7.01995">
        <ele>2596.6</ele>
        <time>2020-08-08T10:28:55Z</time>
      </trkpt>
      <trkpt lat="45.42969" lon="7.01997">
        <ele>2596.8</ele>
        <time>2020-08-08T10:28:58Z</time>
      </trkpt>
      <trkpt lat="45.42966" lon="7.02">
        <ele>2597</ele>
        <time>2020-08-08T10:28:59Z</time>
      </trkpt>
      <trkpt lat="45.42964" lon="7.02003">
        <ele>2597.2</ele>
        <time>2020-08-08T10:29:00Z</time>
      </trkpt>
      <trkpt lat="45.42962" lon="7.02006">
        <ele>2597.5</ele>
        <time>2020-08-08T10:29:02Z</time>
      </trkpt>
      <trkpt lat="45.42958" lon="7.02011">
        <ele>2597.8</ele>
        <time>2020-08-08T10:29:04Z</time>
      </trkpt>
      <trkpt lat="45.42955" lon="7.02016">
        <ele>2598.2</ele>
        <time>2020-08-08T10:29:06Z</time>
      </trkpt>
      <trkpt lat="45.42951" lon="7.02022">
        <ele>2598.5</ele>
        <time>2020-08-08T10:29:08Z</time>
      </trkpt>
      <trkpt lat="45.42944" lon="7.0203">
        <ele>2599.1</ele>
        <time>2020-08-08T10:29:10Z</time>
      </trkpt>
      <trkpt lat="45.42941" lon="7.02034">
        <ele>2599.4</ele>
        <time>2020-08-08T10:29:13Z</time>
      </trkpt>
      <trkpt lat="45.42937" lon="7.0204">
        <ele>2599.8</ele>
        <time>2020-08-08T10:29:15Z</time>
      </trkpt>
      <trkpt lat="45.42934" lon="7.02044">
        <ele>2600</ele>
        <time>2020-08-08T10:29:16Z</time>
      </trkpt>
      <trkpt lat="45.42927" lon="7.02052">
        <ele>2600.6</ele>
        <time>2020-08-08T10:29:19Z</time>
      </trkpt>
      <trkpt lat="45.42921" lon="7.02061">
        <ele>2601.3</ele>
        <time>2020-08-08T10:29:22Z</time>
      </trkpt>
      <trkpt lat="45.42916" lon="7.02068">
        <ele>2601.8</ele>
        <time>2020-08-08T10:29:24Z</time>
      </trkpt>
      <trkpt lat="45.42914" lon="7.02072">
        <ele>2602.1</ele>
        <time>2020-08-08T10:29:26Z</time>
      </trkpt>
      <trkpt lat="45.42912" lon="7.02075">
        <ele>2602.4</ele>
        <time>2020-08-08T10:29:27Z</time>
      </trkpt>
      <trkpt lat="45.4291" lon="7.02079">
        <ele>2602.6</ele>
        <time>2020-08-08T10:29:29Z</time>
      </trkpt>
      <trkpt lat="45.42909" lon="7.02082">
        <ele>2602.9</ele>
        <time>2020-08-08T10:29:30Z</time>
      </trkpt>
      <trkpt lat="45.42906" lon="7.02087">
        <ele>2603.3</ele>
        <time>2020-08-08T10:29:31Z</time>
      </trkpt>
      <trkpt lat="45.42904" lon="7.02088">
        <ele>2603.4</ele>
        <time>2020-08-08T10:29:32Z</time>
      </trkpt>
      <trkpt lat="45.42902" lon="7.02091">
        <ele>2603.7</ele>
        <time>2020-08-08T10:29:34Z</time>
      </trkpt>
      <trkpt lat="45.42898" lon="7.02098">
        <ele>2604.3</ele>
        <time>2020-08-08T10:29:36Z</time>
      </trkpt>
      <trkpt lat="45.42895" lon="7.02101">
        <ele>2604.6</ele>
        <time>2020-08-08T10:29:38Z</time>
      </trkpt>
      <trkpt lat="45.42892" lon="7.02104">
        <ele>2605</ele>
        <time>2020-08-08T10:29:39Z</time>
      </trkpt>
      <trkpt lat="45.42889" lon="7.02108">
        <ele>2605.3</ele>
        <time>2020-08-08T10:29:41Z</time>
      </trkpt>
      <trkpt lat="45.42887" lon="7.02111">
        <ele>2605.7</ele>
        <time>2020-08-08T10:29:43Z</time>
      </trkpt>
      <trkpt lat="45.42886" lon="7.02112">
        <ele>2605.8</ele>
        <time>2020-08-08T10:29:44Z</time>
      </trkpt>
      <trkpt lat="45.42882" lon="7.02116">
        <ele>2606.2</ele>
        <time>2020-08-08T10:29:45Z</time>
      </trkpt>
      <trkpt lat="45.42879" lon="7.02118">
        <ele>2606.5</ele>
        <time>2020-08-08T10:29:46Z</time>
      </trkpt>
      <trkpt lat="45.42875" lon="7.02119">
        <ele>2606.8</ele>
        <time>2020-08-08T10:29:48Z</time>
      </trkpt>
      <trkpt lat="45.42873" lon="7.02121">
        <ele>2607.1</ele>
        <time>2020-08-08T10:29:49Z</time>
      </trkpt>
      <trkpt lat="45.42866" lon="7.02124">
        <ele>2607.8</ele>
        <time>2020-08-08T10:29:52Z</time>
      </trkpt>
      <trkpt lat="45.42863" lon="7.02125">
        <ele>2608</ele>
        <time>2020-08-08T10:29:53Z</time>
      </trkpt>
      <trkpt lat="45.42858" lon="7.02128">
        <ele>2608.6</ele>
        <time>2020-08-08T10:29:55Z</time>
      </trkpt>
      <trkpt lat="45.42855" lon="7.02129">
        <ele>2608.8</ele>
        <time>2020-08-08T10:29:57Z</time>
      </trkpt>
      <trkpt lat="45.42853" lon="7.0213">
        <ele>2609</ele>
        <time>2020-08-08T10:29:58Z</time>
      </trkpt>
      <trkpt lat="45.4285" lon="7.02131">
        <ele>2609.3</ele>
        <time>2020-08-08T10:29:59Z</time>
      </trkpt>
      <trkpt lat="45.42848" lon="7.02132">
        <ele>2609.5</ele>
        <time>2020-08-08T10:30:00Z</time>
      </trkpt>
      <trkpt lat="45.42846" lon="7.02133">
        <ele>2609.7</ele>
        <time>2020-08-08T10:30:01Z</time>
      </trkpt>
      <trkpt lat="45.42842" lon="7.02135">
        <ele>2610.1</ele>
        <time>2020-08-08T10:30:04Z</time>
      </trkpt>
      <trkpt lat="45.42838" lon="7.02136">
        <ele>2610.5</ele>
        <time>2020-08-08T10:30:05Z</time>
      </trkpt>
      <trkpt lat="45.42835" lon="7.02137">
        <ele>2610.8</ele>
        <time>2020-08-08T10:30:06Z</time>
      </trkpt>
      <trkpt lat="45.42834" lon="7.02137">
        <ele>2610.9</ele>
        <time>2020-08-08T10:30:07Z</time>
      </trkpt>
      <trkpt lat="45.4283" lon="7.02138">
        <ele>2611.2</ele>
        <time>2020-08-08T10:30:08Z</time>
      </trkpt>
      <trkpt lat="45.42829" lon="7.02139">
        <ele>2611.3</ele>
        <time>2020-08-08T10:30:09Z</time>
      </trkpt>
      <trkpt lat="45.42825" lon="7.0214">
        <ele>2611.8</ele>
        <time>2020-08-08T10:30:10Z</time>
      </trkpt>
      <trkpt lat="45.42823" lon="7.02141">
        <ele>2611.9</ele>
        <time>2020-08-08T10:30:11Z</time>
      </trkpt>
      <trkpt lat="45.4282" lon="7.02143">
        <ele>2612.3</ele>
        <time>2020-08-08T10:30:13Z</time>
      </trkpt>
      <trkpt lat="45.42816" lon="7.02144">
        <ele>2612.6</ele>
        <time>2020-08-08T10:30:14Z</time>
      </trkpt>
      <trkpt lat="45.42815" lon="7.02144">
        <ele>2612.7</ele>
        <time>2020-08-08T10:30:15Z</time>
      </trkpt>
      <trkpt lat="45.42811" lon="7.02146">
        <ele>2613.1</ele>
        <time>2020-08-08T10:30:17Z</time>
      </trkpt>
      <trkpt lat="45.42809" lon="7.02147">
        <ele>2613.3</ele>
        <time>2020-08-08T10:30:18Z</time>
      </trkpt>
      <trkpt lat="45.42805" lon="7.02149">
        <ele>2613.6</ele>
        <time>2020-08-08T10:30:20Z</time>
      </trkpt>
      <trkpt lat="45.42802" lon="7.02151">
        <ele>2613.8</ele>
        <time>2020-08-08T10:30:22Z</time>
      </trkpt>
      <trkpt lat="45.42801" lon="7.02152">
        <ele>2613.9</ele>
        <time>2020-08-08T10:30:23Z</time>
      </trkpt>
      <trkpt lat="45.42797" lon="7.02153">
        <ele>2614.2</ele>
        <time>2020-08-08T10:30:25Z</time>
      </trkpt>
      <trkpt lat="45.42793" lon="7.02155">
        <ele>2614.5</ele>
        <time>2020-08-08T10:30:26Z</time>
      </trkpt>
      <trkpt lat="45.42788" lon="7.02157">
        <ele>2614.8</ele>
        <time>2020-08-08T10:30:29Z</time>
      </trkpt>
      <trkpt lat="45.4278" lon="7.0216">
        <ele>2615.3</ele>
        <time>2020-08-08T10:30:31Z</time>
      </trkpt>
      <trkpt lat="45.42777" lon="7.02161">
        <ele>2615.5</ele>
        <time>2020-08-08T10:30:33Z</time>
      </trkpt>
      <trkpt lat="45.42774" lon="7.02163">
        <ele>2615.7</ele>
        <time>2020-08-08T10:30:35Z</time>
      </trkpt>
      <trkpt lat="45.42769" lon="7.02164">
        <ele>2616</ele>
        <time>2020-08-08T10:30:37Z</time>
      </trkpt>
      <trkpt lat="45.42764" lon="7.02166">
        <ele>2616.2</ele>
        <time>2020-08-08T10:30:39Z</time>
      </trkpt>
      <trkpt lat="45.4276" lon="7.02168">
        <ele>2616.5</ele>
        <time>2020-08-08T10:30:41Z</time>
      </trkpt>
      <trkpt lat="45.42757" lon="7.0217">
        <ele>2616.7</ele>
        <time>2020-08-08T10:30:42Z</time>
      </trkpt>
      <trkpt lat="45.42752" lon="7.02172">
        <ele>2616.9</ele>
        <time>2020-08-08T10:30:43Z</time>
      </trkpt>
      <trkpt lat="45.42749" lon="7.02174">
        <ele>2617</ele>
        <time>2020-08-08T10:30:45Z</time>
      </trkpt>
      <trkpt lat="45.42745" lon="7.02176">
        <ele>2617.2</ele>
        <time>2020-08-08T10:30:46Z</time>
      </trkpt>
      <trkpt lat="45.42744" lon="7.02176">
        <ele>2617.3</ele>
        <time>2020-08-08T10:30:47Z</time>
      </trkpt>
      <trkpt lat="45.4274" lon="7.02178">
        <ele>2617.5</ele>
        <time>2020-08-08T10:30:48Z</time>
      </trkpt>
      <trkpt lat="45.42734" lon="7.0218">
        <ele>2617.7</ele>
        <time>2020-08-08T10:30:50Z</time>
      </trkpt>
      <trkpt lat="45.42732" lon="7.02181">
        <ele>2617.9</ele>
        <time>2020-08-08T10:30:51Z</time>
      </trkpt>
      <trkpt lat="45.42729" lon="7.02183">
        <ele>2618</ele>
        <time>2020-08-08T10:30:52Z</time>
      </trkpt>
      <trkpt lat="45.42726" lon="7.02185">
        <ele>2618.2</ele>
        <time>2020-08-08T10:30:53Z</time>
      </trkpt>
      <trkpt lat="45.42723" lon="7.02186">
        <ele>2618.4</ele>
        <time>2020-08-08T10:30:54Z</time>
      </trkpt>
      <trkpt lat="45.4272" lon="7.02187">
        <ele>2618.6</ele>
        <time>2020-08-08T10:30:57Z</time>
      </trkpt>
      <trkpt lat="45.42717" lon="7.02188">
        <ele>2618.8</ele>
        <time>2020-08-08T10:30:58Z</time>
      </trkpt>
      <trkpt lat="45.42712" lon="7.0219">
        <ele>2619.1</ele>
        <time>2020-08-08T10:30:59Z</time>
      </trkpt>
      <trkpt lat="45.42708" lon="7.02191">
        <ele>2619.4</ele>
        <time>2020-08-08T10:31:02Z</time>
      </trkpt>
      <trkpt lat="45.42704" lon="7.02194">
        <ele>2619.7</ele>
        <time>2020-08-08T10:31:04Z</time>
      </trkpt>
      <trkpt lat="45.42699" lon="7.02196">
        <ele>2620.1</ele>
        <time>2020-08-08T10:31:05Z</time>
      </trkpt>
      <trkpt lat="45.42697" lon="7.02197">
        <ele>2620.2</ele>
        <time>2020-08-08T10:31:06Z</time>
      </trkpt>
      <trkpt lat="45.42694" lon="7.02198">
        <ele>2620.5</ele>
        <time>2020-08-08T10:31:07Z</time>
      </trkpt>
      <trkpt lat="45.42691" lon="7.022">
        <ele>2620.6</ele>
        <time>2020-08-08T10:31:08Z</time>
      </trkpt>
      <trkpt lat="45.42688" lon="7.02201">
        <ele>2620.9</ele>
        <time>2020-08-08T10:31:10Z</time>
      </trkpt>
      <trkpt lat="45.42685" lon="7.02203">
        <ele>2621.1</ele>
        <time>2020-08-08T10:31:11Z</time>
      </trkpt>
      <trkpt lat="45.42683" lon="7.02204">
        <ele>2621.2</ele>
        <time>2020-08-08T10:31:12Z</time>
      </trkpt>
      <trkpt lat="45.42677" lon="7.02207">
        <ele>2621.6</ele>
        <time>2020-08-08T10:31:14Z</time>
      </trkpt>
      <trkpt lat="45.42674" lon="7.02208">
        <ele>2621.9</ele>
        <time>2020-08-08T10:31:16Z</time>
      </trkpt>
      <trkpt lat="45.42671" lon="7.0221">
        <ele>2622.1</ele>
        <time>2020-08-08T10:31:18Z</time>
      </trkpt>
      <trkpt lat="45.42667" lon="7.02212">
        <ele>2622.4</ele>
        <time>2020-08-08T10:31:19Z</time>
      </trkpt>
      <trkpt lat="45.42663" lon="7.02215">
        <ele>2622.8</ele>
        <time>2020-08-08T10:31:21Z</time>
      </trkpt>
      <trkpt lat="45.42659" lon="7.02218">
        <ele>2623</ele>
        <time>2020-08-08T10:31:22Z</time>
      </trkpt>
      <trkpt lat="45.42658" lon="7.02219">
        <ele>2623.2</ele>
        <time>2020-08-08T10:31:23Z</time>
      </trkpt>
      <trkpt lat="45.42654" lon="7.02222">
        <ele>2623.5</ele>
        <time>2020-08-08T10:31:25Z</time>
      </trkpt>
      <trkpt lat="45.42653" lon="7.02223">
        <ele>2623.6</ele>
        <time>2020-08-08T10:31:26Z</time>
      </trkpt>
      <trkpt lat="45.42651" lon="7.02225">
        <ele>2623.8</ele>
        <time>2020-08-08T10:31:27Z</time>
      </trkpt>
      <trkpt lat="45.42646" lon="7.02228">
        <ele>2624.3</ele>
        <time>2020-08-08T10:31:29Z</time>
      </trkpt>
      <trkpt lat="45.42644" lon="7.02231">
        <ele>2624.5</ele>
        <time>2020-08-08T10:31:31Z</time>
      </trkpt>
      <trkpt lat="45.42641" lon="7.02233">
        <ele>2624.8</ele>
        <time>2020-08-08T10:31:32Z</time>
      </trkpt>
      <trkpt lat="45.42637" lon="7.02237">
        <ele>2625.3</ele>
        <time>2020-08-08T10:31:34Z</time>
      </trkpt>
      <trkpt lat="45.42635" lon="7.02239">
        <ele>2625.5</ele>
        <time>2020-08-08T10:31:35Z</time>
      </trkpt>
      <trkpt lat="45.42633" lon="7.02241">
        <ele>2625.7</ele>
        <time>2020-08-08T10:31:37Z</time>
      </trkpt>
      <trkpt lat="45.42629" lon="7.02244">
        <ele>2626.1</ele>
        <time>2020-08-08T10:31:39Z</time>
      </trkpt>
      <trkpt lat="45.42627" lon="7.02245">
        <ele>2626.3</ele>
        <time>2020-08-08T10:31:40Z</time>
      </trkpt>
      <trkpt lat="45.42624" lon="7.02248">
        <ele>2626.6</ele>
        <time>2020-08-08T10:31:42Z</time>
      </trkpt>
      <trkpt lat="45.42623" lon="7.02248">
        <ele>2626.7</ele>
        <time>2020-08-08T10:31:43Z</time>
      </trkpt>
      <trkpt lat="45.42618" lon="7.02254">
        <ele>2627.3</ele>
        <time>2020-08-08T10:31:45Z</time>
      </trkpt>
      <trkpt lat="45.42615" lon="7.02256">
        <ele>2627.5</ele>
        <time>2020-08-08T10:31:46Z</time>
      </trkpt>
      <trkpt lat="45.42613" lon="7.02257">
        <ele>2627.7</ele>
        <time>2020-08-08T10:31:48Z</time>
      </trkpt>
      <trkpt lat="45.4261" lon="7.02259">
        <ele>2628</ele>
        <time>2020-08-08T10:31:50Z</time>
      </trkpt>
      <trkpt lat="45.42606" lon="7.02262">
        <ele>2628.5</ele>
        <time>2020-08-08T10:31:51Z</time>
      </trkpt>
      <trkpt lat="45.42601" lon="7.02264">
        <ele>2628.9</ele>
        <time>2020-08-08T10:31:52Z</time>
      </trkpt>
      <trkpt lat="45.42599" lon="7.02265">
        <ele>2629.1</ele>
        <time>2020-08-08T10:31:55Z</time>
      </trkpt>
      <trkpt lat="45.42596" lon="7.02267">
        <ele>2629.4</ele>
        <time>2020-08-08T10:31:56Z</time>
      </trkpt>
      <trkpt lat="45.42593" lon="7.02268">
        <ele>2629.6</ele>
        <time>2020-08-08T10:31:57Z</time>
      </trkpt>
      <trkpt lat="45.42591" lon="7.02269">
        <ele>2629.8</ele>
        <time>2020-08-08T10:31:59Z</time>
      </trkpt>
      <trkpt lat="45.42588" lon="7.02269">
        <ele>2630</ele>
        <time>2020-08-08T10:32:00Z</time>
      </trkpt>
      <trkpt lat="45.42583" lon="7.02269">
        <ele>2630.5</ele>
        <time>2020-08-08T10:32:02Z</time>
      </trkpt>
      <trkpt lat="45.42578" lon="7.0227">
        <ele>2630.9</ele>
        <time>2020-08-08T10:32:05Z</time>
      </trkpt>
      <trkpt lat="45.42576" lon="7.02271">
        <ele>2631.1</ele>
        <time>2020-08-08T10:32:06Z</time>
      </trkpt>
      <trkpt lat="45.42574" lon="7.02272">
        <ele>2631.2</ele>
        <time>2020-08-08T10:32:07Z</time>
      </trkpt>
      <trkpt lat="45.42571" lon="7.0227">
        <ele>2631.5</ele>
        <time>2020-08-08T10:32:09Z</time>
      </trkpt>
      <trkpt lat="45.42568" lon="7.02269">
        <ele>2631.7</ele>
        <time>2020-08-08T10:32:10Z</time>
      </trkpt>
      <trkpt lat="45.42564" lon="7.02268">
        <ele>2632</ele>
        <time>2020-08-08T10:32:12Z</time>
      </trkpt>
      <trkpt lat="45.42562" lon="7.02268">
        <ele>2632.1</ele>
        <time>2020-08-08T10:32:13Z</time>
      </trkpt>
      <trkpt lat="45.42557" lon="7.02268">
        <ele>2632.5</ele>
        <time>2020-08-08T10:32:15Z</time>
      </trkpt>
      <trkpt lat="45.42554" lon="7.02267">
        <ele>2632.7</ele>
        <time>2020-08-08T10:32:16Z</time>
      </trkpt>
      <trkpt lat="45.42553" lon="7.02267">
        <ele>2632.8</ele>
        <time>2020-08-08T10:32:17Z</time>
      </trkpt>
      <trkpt lat="45.42545" lon="7.02266">
        <ele>2633.4</ele>
        <time>2020-08-08T10:32:19Z</time>
      </trkpt>
      <trkpt lat="45.4254" lon="7.02265">
        <ele>2633.8</ele>
        <time>2020-08-08T10:32:22Z</time>
      </trkpt>
      <trkpt lat="45.42538" lon="7.02265">
        <ele>2633.9</ele>
        <time>2020-08-08T10:32:23Z</time>
      </trkpt>
      <trkpt lat="45.42535" lon="7.02265">
        <ele>2634.1</ele>
        <time>2020-08-08T10:32:24Z</time>
      </trkpt>
      <trkpt lat="45.42532" lon="7.02265">
        <ele>2634.3</ele>
        <time>2020-08-08T10:32:26Z</time>
      </trkpt>
      <trkpt lat="45.42529" lon="7.02264">
        <ele>2634.5</ele>
        <time>2020-08-08T10:32:27Z</time>
      </trkpt>
      <trkpt lat="45.42525" lon="7.02264">
        <ele>2634.9</ele>
        <time>2020-08-08T10:32:29Z</time>
      </trkpt>
      <trkpt lat="45.42521" lon="7.02264">
        <ele>2635.1</ele>
        <time>2020-08-08T10:32:31Z</time>
      </trkpt>
      <trkpt lat="45.42516" lon="7.02263">
        <ele>2635.4</ele>
        <time>2020-08-08T10:32:33Z</time>
      </trkpt>
      <trkpt lat="45.42513" lon="7.02264">
        <ele>2635.6</ele>
        <time>2020-08-08T10:32:34Z</time>
      </trkpt>
      <trkpt lat="45.42508" lon="7.02265">
        <ele>2636</ele>
        <time>2020-08-08T10:32:35Z</time>
      </trkpt>
      <trkpt lat="45.42504" lon="7.02266">
        <ele>2636.2</ele>
        <time>2020-08-08T10:32:38Z</time>
      </trkpt>
      <trkpt lat="45.42498" lon="7.02266">
        <ele>2636.7</ele>
        <time>2020-08-08T10:32:40Z</time>
      </trkpt>
      <trkpt lat="45.42494" lon="7.02267">
        <ele>2636.9</ele>
        <time>2020-08-08T10:32:42Z</time>
      </trkpt>
      <trkpt lat="45.42491" lon="7.02268">
        <ele>2637.1</ele>
        <time>2020-08-08T10:32:44Z</time>
      </trkpt>
      <trkpt lat="45.42482" lon="7.02269">
        <ele>2637.7</ele>
        <time>2020-08-08T10:32:46Z</time>
      </trkpt>
      <trkpt lat="45.42476" lon="7.0227">
        <ele>2638.1</ele>
        <time>2020-08-08T10:32:49Z</time>
      </trkpt>
      <trkpt lat="45.42472" lon="7.02271">
        <ele>2638.4</ele>
        <time>2020-08-08T10:32:52Z</time>
      </trkpt>
      <trkpt lat="45.42468" lon="7.02271">
        <ele>2638.6</ele>
        <time>2020-08-08T10:32:54Z</time>
      </trkpt>
      <trkpt lat="45.42464" lon="7.02272">
        <ele>2638.9</ele>
        <time>2020-08-08T10:32:55Z</time>
      </trkpt>
      <trkpt lat="45.42456" lon="7.02273">
        <ele>2639.4</ele>
        <time>2020-08-08T10:32:57Z</time>
      </trkpt>
      <trkpt lat="45.42453" lon="7.02273">
        <ele>2639.6</ele>
        <time>2020-08-08T10:33:00Z</time>
      </trkpt>
      <trkpt lat="45.4245" lon="7.02273">
        <ele>2639.8</ele>
        <time>2020-08-08T10:33:01Z</time>
      </trkpt>
      <trkpt lat="45.42448" lon="7.02274">
        <ele>2640</ele>
        <time>2020-08-08T10:33:02Z</time>
      </trkpt>
      <trkpt lat="45.42443" lon="7.02274">
        <ele>2640.3</ele>
        <time>2020-08-08T10:33:04Z</time>
      </trkpt>
      <trkpt lat="45.42438" lon="7.02276">
        <ele>2640.7</ele>
        <time>2020-08-08T10:33:06Z</time>
      </trkpt>
      <trkpt lat="45.42433" lon="7.02276">
        <ele>2641.1</ele>
        <time>2020-08-08T10:33:07Z</time>
      </trkpt>
      <trkpt lat="45.4243" lon="7.02278">
        <ele>2641.4</ele>
        <time>2020-08-08T10:33:08Z</time>
      </trkpt>
      <trkpt lat="45.42425" lon="7.02279">
        <ele>2641.8</ele>
        <time>2020-08-08T10:33:10Z</time>
      </trkpt>
      <trkpt lat="45.42423" lon="7.02279">
        <ele>2642</ele>
        <time>2020-08-08T10:33:11Z</time>
      </trkpt>
      <trkpt lat="45.42421" lon="7.02279">
        <ele>2642.1</ele>
        <time>2020-08-08T10:33:12Z</time>
      </trkpt>
      <trkpt lat="45.42419" lon="7.0228">
        <ele>2642.3</ele>
        <time>2020-08-08T10:33:13Z</time>
      </trkpt>
      <trkpt lat="45.42412" lon="7.02282">
        <ele>2643</ele>
        <time>2020-08-08T10:33:16Z</time>
      </trkpt>
      <trkpt lat="45.42408" lon="7.02283">
        <ele>2643.3</ele>
        <time>2020-08-08T10:33:19Z</time>
      </trkpt>
      <trkpt lat="45.42404" lon="7.02283">
        <ele>2643.7</ele>
        <time>2020-08-08T10:33:20Z</time>
      </trkpt>
      <trkpt lat="45.424" lon="7.02285">
        <ele>2644</ele>
        <time>2020-08-08T10:33:21Z</time>
      </trkpt>
      <trkpt lat="45.42398" lon="7.02286">
        <ele>2644.1</ele>
        <time>2020-08-08T10:33:22Z</time>
      </trkpt>
      <trkpt lat="45.42392" lon="7.0229">
        <ele>2644.7</ele>
        <time>2020-08-08T10:33:25Z</time>
      </trkpt>
      <trkpt lat="45.42389" lon="7.02293">
        <ele>2645</ele>
        <time>2020-08-08T10:33:27Z</time>
      </trkpt>
      <trkpt lat="45.42387" lon="7.02295">
        <ele>2645.2</ele>
        <time>2020-08-08T10:33:28Z</time>
      </trkpt>
      <trkpt lat="45.42384" lon="7.02297">
        <ele>2645.4</ele>
        <time>2020-08-08T10:33:29Z</time>
      </trkpt>
      <trkpt lat="45.42381" lon="7.02301">
        <ele>2645.7</ele>
        <time>2020-08-08T10:33:30Z</time>
      </trkpt>
      <trkpt lat="45.42378" lon="7.02305">
        <ele>2646.1</ele>
        <time>2020-08-08T10:33:32Z</time>
      </trkpt>
      <trkpt lat="45.42377" lon="7.02307">
        <ele>2646.2</ele>
        <time>2020-08-08T10:33:33Z</time>
      </trkpt>
      <trkpt lat="45.42376" lon="7.02308">
        <ele>2646.3</ele>
        <time>2020-08-08T10:33:34Z</time>
      </trkpt>
      <trkpt lat="45.42373" lon="7.02312">
        <ele>2646.6</ele>
        <time>2020-08-08T10:33:35Z</time>
      </trkpt>
      <trkpt lat="45.42371" lon="7.02314">
        <ele>2646.9</ele>
        <time>2020-08-08T10:33:36Z</time>
      </trkpt>
      <trkpt lat="45.42367" lon="7.02319">
        <ele>2647.2</ele>
        <time>2020-08-08T10:33:38Z</time>
      </trkpt>
      <trkpt lat="45.42366" lon="7.02321">
        <ele>2647.3</ele>
        <time>2020-08-08T10:33:39Z</time>
      </trkpt>
      <trkpt lat="45.42365" lon="7.02324">
        <ele>2647.5</ele>
        <time>2020-08-08T10:33:40Z</time>
      </trkpt>
      <trkpt lat="45.42363" lon="7.02329">
        <ele>2647.8</ele>
        <time>2020-08-08T10:33:41Z</time>
      </trkpt>
      <trkpt lat="45.42363" lon="7.0233">
        <ele>2647.8</ele>
        <time>2020-08-08T10:33:42Z</time>
      </trkpt>
      <trkpt lat="45.42362" lon="7.02334">
        <ele>2648.1</ele>
        <time>2020-08-08T10:33:43Z</time>
      </trkpt>
      <trkpt lat="45.4236" lon="7.02339">
        <ele>2648.3</ele>
        <time>2020-08-08T10:33:44Z</time>
      </trkpt>
      <trkpt lat="45.42359" lon="7.02341">
        <ele>2648.4</ele>
        <time>2020-08-08T10:33:45Z</time>
      </trkpt>
      <trkpt lat="45.42358" lon="7.02346">
        <ele>2648.7</ele>
        <time>2020-08-08T10:33:46Z</time>
      </trkpt>
      <trkpt lat="45.42357" lon="7.02348">
        <ele>2648.8</ele>
        <time>2020-08-08T10:33:47Z</time>
      </trkpt>
      <trkpt lat="45.42356" lon="7.02352">
        <ele>2649</ele>
        <time>2020-08-08T10:33:50Z</time>
      </trkpt>
      <trkpt lat="45.42356" lon="7.02358">
        <ele>2649.3</ele>
        <time>2020-08-08T10:33:51Z</time>
      </trkpt>
      <trkpt lat="45.42356" lon="7.02361">
        <ele>2649.5</ele>
        <time>2020-08-08T10:33:53Z</time>
      </trkpt>
      <trkpt lat="45.42355" lon="7.02373">
        <ele>2650.1</ele>
        <time>2020-08-08T10:33:55Z</time>
      </trkpt>
      <trkpt lat="45.42355" lon="7.02381">
        <ele>2650.5</ele>
        <time>2020-08-08T10:33:57Z</time>
      </trkpt>
      <trkpt lat="45.42355" lon="7.02385">
        <ele>2650.7</ele>
        <time>2020-08-08T10:33:59Z</time>
      </trkpt>
      <trkpt lat="45.42355" lon="7.02389">
        <ele>2650.9</ele>
        <time>2020-08-08T10:34:00Z</time>
      </trkpt>
      <trkpt lat="45.42356" lon="7.02392">
        <ele>2651</ele>
        <time>2020-08-08T10:34:01Z</time>
      </trkpt>
      <trkpt lat="45.42357" lon="7.02401">
        <ele>2651.5</ele>
        <time>2020-08-08T10:34:03Z</time>
      </trkpt>
      <trkpt lat="45.42358" lon="7.02405">
        <ele>2651.7</ele>
        <time>2020-08-08T10:34:04Z</time>
      </trkpt>
      <trkpt lat="45.42358" lon="7.0241">
        <ele>2651.9</ele>
        <time>2020-08-08T10:34:05Z</time>
      </trkpt>
      <trkpt lat="45.42358" lon="7.02411">
        <ele>2652</ele>
        <time>2020-08-08T10:34:06Z</time>
      </trkpt>
      <trkpt lat="45.42359" lon="7.02415">
        <ele>2652.2</ele>
        <time>2020-08-08T10:34:07Z</time>
      </trkpt>
      <trkpt lat="45.42361" lon="7.02424">
        <ele>2652.7</ele>
        <time>2020-08-08T10:34:10Z</time>
      </trkpt>
      <trkpt lat="45.42362" lon="7.02428">
        <ele>2652.9</ele>
        <time>2020-08-08T10:34:12Z</time>
      </trkpt>
      <trkpt lat="45.42362" lon="7.02435">
        <ele>2653.2</ele>
        <time>2020-08-08T10:34:13Z</time>
      </trkpt>
      <trkpt lat="45.42362" lon="7.02444">
        <ele>2653.7</ele>
        <time>2020-08-08T10:34:16Z</time>
      </trkpt>
      <trkpt lat="45.42364" lon="7.0245">
        <ele>2653.9</ele>
        <time>2020-08-08T10:34:18Z</time>
      </trkpt>
      <trkpt lat="45.42364" lon="7.02454">
        <ele>2654.1</ele>
        <time>2020-08-08T10:34:19Z</time>
      </trkpt>
      <trkpt lat="45.42364" lon="7.0246">
        <ele>2654.4</ele>
        <time>2020-08-08T10:34:22Z</time>
      </trkpt>
      <trkpt lat="45.42366" lon="7.02472">
        <ele>2655</ele>
        <time>2020-08-08T10:34:24Z</time>
      </trkpt>
      <trkpt lat="45.42367" lon="7.02477">
        <ele>2655.2</ele>
        <time>2020-08-08T10:34:26Z</time>
      </trkpt>
      <trkpt lat="45.42366" lon="7.02488">
        <ele>2655.8</ele>
        <time>2020-08-08T10:34:28Z</time>
      </trkpt>
      <trkpt lat="45.42366" lon="7.02493">
        <ele>2656.1</ele>
        <time>2020-08-08T10:34:31Z</time>
      </trkpt>
      <trkpt lat="45.42366" lon="7.02499">
        <ele>2656.4</ele>
        <time>2020-08-08T10:34:32Z</time>
      </trkpt>
      <trkpt lat="45.42365" lon="7.02504">
        <ele>2656.7</ele>
        <time>2020-08-08T10:34:33Z</time>
      </trkpt>
      <trkpt lat="45.42364" lon="7.02509">
        <ele>2656.9</ele>
        <time>2020-08-08T10:34:35Z</time>
      </trkpt>
      <trkpt lat="45.42362" lon="7.02518">
        <ele>2657.4</ele>
        <time>2020-08-08T10:34:37Z</time>
      </trkpt>
      <trkpt lat="45.42361" lon="7.02521">
        <ele>2657.6</ele>
        <time>2020-08-08T10:34:39Z</time>
      </trkpt>
      <trkpt lat="45.42359" lon="7.02528">
        <ele>2658</ele>
        <time>2020-08-08T10:34:41Z</time>
      </trkpt>
      <trkpt lat="45.42357" lon="7.02534">
        <ele>2658.4</ele>
        <time>2020-08-08T10:34:43Z</time>
      </trkpt>
      <trkpt lat="45.42357" lon="7.02536">
        <ele>2658.5</ele>
        <time>2020-08-08T10:34:44Z</time>
      </trkpt>
      <trkpt lat="45.42356" lon="7.02538">
        <ele>2658.6</ele>
        <time>2020-08-08T10:34:45Z</time>
      </trkpt>
      <trkpt lat="45.42355" lon="7.02542">
        <ele>2658.9</ele>
        <time>2020-08-08T10:34:46Z</time>
      </trkpt>
      <trkpt lat="45.42354" lon="7.02545">
        <ele>2659</ele>
        <time>2020-08-08T10:34:47Z</time>
      </trkpt>
      <trkpt lat="45.42351" lon="7.02554">
        <ele>2659.7</ele>
        <time>2020-08-08T10:34:50Z</time>
      </trkpt>
      <trkpt lat="45.42351" lon="7.02558">
        <ele>2659.9</ele>
        <time>2020-08-08T10:34:51Z</time>
      </trkpt>
      <trkpt lat="45.4235" lon="7.02562">
        <ele>2660.2</ele>
        <time>2020-08-08T10:34:54Z</time>
      </trkpt>
      <trkpt lat="45.42347" lon="7.0257">
        <ele>2660.7</ele>
        <time>2020-08-08T10:34:55Z</time>
      </trkpt>
      <trkpt lat="45.42346" lon="7.02575">
        <ele>2661</ele>
        <time>2020-08-08T10:34:57Z</time>
      </trkpt>
      <trkpt lat="45.42345" lon="7.02578">
        <ele>2661.2</ele>
        <time>2020-08-08T10:34:59Z</time>
      </trkpt>
      <trkpt lat="45.42343" lon="7.02581">
        <ele>2661.4</ele>
        <time>2020-08-08T10:35:01Z</time>
      </trkpt>
      <trkpt lat="45.42342" lon="7.02587">
        <ele>2661.8</ele>
        <time>2020-08-08T10:35:02Z</time>
      </trkpt>
      <trkpt lat="45.42341" lon="7.02591">
        <ele>2662.1</ele>
        <time>2020-08-08T10:35:03Z</time>
      </trkpt>
      <trkpt lat="45.4234" lon="7.02593">
        <ele>2662.2</ele>
        <time>2020-08-08T10:35:04Z</time>
      </trkpt>
      <trkpt lat="45.42339" lon="7.02598">
        <ele>2662.6</ele>
        <time>2020-08-08T10:35:05Z</time>
      </trkpt>
      <trkpt lat="45.42338" lon="7.02599">
        <ele>2662.7</ele>
        <time>2020-08-08T10:35:06Z</time>
      </trkpt>
      <trkpt lat="45.42337" lon="7.02604">
        <ele>2663.1</ele>
        <time>2020-08-08T10:35:08Z</time>
      </trkpt>
      <trkpt lat="45.42336" lon="7.02606">
        <ele>2663.2</ele>
        <time>2020-08-08T10:35:09Z</time>
      </trkpt>
      <trkpt lat="45.42335" lon="7.02611">
        <ele>2663.6</ele>
        <time>2020-08-08T10:35:10Z</time>
      </trkpt>
      <trkpt lat="45.42335" lon="7.02613">
        <ele>2663.8</ele>
        <time>2020-08-08T10:35:11Z</time>
      </trkpt>
      <trkpt lat="45.42335" lon="7.0262">
        <ele>2664.2</ele>
        <time>2020-08-08T10:35:13Z</time>
      </trkpt>
      <trkpt lat="45.42335" lon="7.02622">
        <ele>2664.4</ele>
        <time>2020-08-08T10:35:15Z</time>
      </trkpt>
      <trkpt lat="45.42335" lon="7.02624">
        <ele>2664.5</ele>
        <time>2020-08-08T10:35:16Z</time>
      </trkpt>
      <trkpt lat="45.42334" lon="7.02629">
        <ele>2664.8</ele>
        <time>2020-08-08T10:35:17Z</time>
      </trkpt>
      <trkpt lat="45.42334" lon="7.02633">
        <ele>2665.1</ele>
        <time>2020-08-08T10:35:18Z</time>
      </trkpt>
      <trkpt lat="45.42334" lon="7.02635">
        <ele>2665.2</ele>
        <time>2020-08-08T10:35:19Z</time>
      </trkpt>
      <trkpt lat="45.42335" lon="7.02642">
        <ele>2665.7</ele>
        <time>2020-08-08T10:35:21Z</time>
      </trkpt>
      <trkpt lat="45.42337" lon="7.02646">
        <ele>2666</ele>
        <time>2020-08-08T10:35:22Z</time>
      </trkpt>
      <trkpt lat="45.42337" lon="7.02647">
        <ele>2666.1</ele>
        <time>2020-08-08T10:35:23Z</time>
      </trkpt>
      <trkpt lat="45.42338" lon="7.02651">
        <ele>2666.3</ele>
        <time>2020-08-08T10:35:26Z</time>
      </trkpt>
      <trkpt lat="45.4234" lon="7.0266">
        <ele>2666.9</ele>
        <time>2020-08-08T10:35:28Z</time>
      </trkpt>
      <trkpt lat="45.42341" lon="7.02665">
        <ele>2667.2</ele>
        <time>2020-08-08T10:35:31Z</time>
      </trkpt>
      <trkpt lat="45.42342" lon="7.02669">
        <ele>2667.5</ele>
        <time>2020-08-08T10:35:33Z</time>
      </trkpt>
      <trkpt lat="45.42343" lon="7.02671">
        <ele>2667.7</ele>
        <time>2020-08-08T10:35:34Z</time>
      </trkpt>
      <trkpt lat="45.42343" lon="7.0268">
        <ele>2668.1</ele>
        <time>2020-08-08T10:35:36Z</time>
      </trkpt>
      <trkpt lat="45.42343" lon="7.02685">
        <ele>2668.5</ele>
        <time>2020-08-08T10:35:39Z</time>
      </trkpt>
      <trkpt lat="45.42342" lon="7.02689">
        <ele>2668.9</ele>
        <time>2020-08-08T10:35:41Z</time>
      </trkpt>
      <trkpt lat="45.42341" lon="7.02692">
        <ele>2669.1</ele>
        <time>2020-08-08T10:35:42Z</time>
      </trkpt>
      <trkpt lat="45.4234" lon="7.02699">
        <ele>2669.7</ele>
        <time>2020-08-08T10:35:44Z</time>
      </trkpt>
      <trkpt lat="45.42337" lon="7.02708">
        <ele>2670.4</ele>
        <time>2020-08-08T10:35:45Z</time>
      </trkpt>
      <trkpt lat="45.42335" lon="7.02714">
        <ele>2670.9</ele>
        <time>2020-08-08T10:35:48Z</time>
      </trkpt>
      <trkpt lat="45.42334" lon="7.02716">
        <ele>2671.2</ele>
        <time>2020-08-08T10:35:49Z</time>
      </trkpt>
      <trkpt lat="45.42334" lon="7.02719">
        <ele>2671.4</ele>
        <time>2020-08-08T10:35:50Z</time>
      </trkpt>
      <trkpt lat="45.42332" lon="7.02722">
        <ele>2671.7</ele>
        <time>2020-08-08T10:35:52Z</time>
      </trkpt>
      <trkpt lat="45.42331" lon="7.02727">
        <ele>2672.1</ele>
        <time>2020-08-08T10:35:54Z</time>
      </trkpt>
      <trkpt lat="45.4233" lon="7.0273">
        <ele>2672.3</ele>
        <time>2020-08-08T10:35:55Z</time>
      </trkpt>
      <trkpt lat="45.42328" lon="7.02735">
        <ele>2672.7</ele>
        <time>2020-08-08T10:35:57Z</time>
      </trkpt>
      <trkpt lat="45.42325" lon="7.02739">
        <ele>2673.2</ele>
        <time>2020-08-08T10:35:59Z</time>
      </trkpt>
      <trkpt lat="45.42324" lon="7.02742">
        <ele>2673.5</ele>
        <time>2020-08-08T10:36:00Z</time>
      </trkpt>
      <trkpt lat="45.42322" lon="7.02747">
        <ele>2673.9</ele>
        <time>2020-08-08T10:36:02Z</time>
      </trkpt>
      <trkpt lat="45.42319" lon="7.02752">
        <ele>2674.3</ele>
        <time>2020-08-08T10:36:03Z</time>
      </trkpt>
      <trkpt lat="45.42318" lon="7.02755">
        <ele>2674.6</ele>
        <time>2020-08-08T10:36:04Z</time>
      </trkpt>
      <trkpt lat="45.42316" lon="7.0276">
        <ele>2675</ele>
        <time>2020-08-08T10:36:05Z</time>
      </trkpt>
      <trkpt lat="45.42315" lon="7.02764">
        <ele>2675.3</ele>
        <time>2020-08-08T10:36:07Z</time>
      </trkpt>
      <trkpt lat="45.42313" lon="7.02769">
        <ele>2675.7</ele>
        <time>2020-08-08T10:36:09Z</time>
      </trkpt>
      <trkpt lat="45.42312" lon="7.02771">
        <ele>2675.9</ele>
        <time>2020-08-08T10:36:10Z</time>
      </trkpt>
      <trkpt lat="45.42311" lon="7.02774">
        <ele>2676.1</ele>
        <time>2020-08-08T10:36:12Z</time>
      </trkpt>
      <trkpt lat="45.42309" lon="7.02776">
        <ele>2676.4</ele>
        <time>2020-08-08T10:36:13Z</time>
      </trkpt>
      <trkpt lat="45.42307" lon="7.02781">
        <ele>2676.8</ele>
        <time>2020-08-08T10:36:15Z</time>
      </trkpt>
      <trkpt lat="45.42305" lon="7.02785">
        <ele>2677.2</ele>
        <time>2020-08-08T10:36:16Z</time>
      </trkpt>
      <trkpt lat="45.42303" lon="7.02789">
        <ele>2677.5</ele>
        <time>2020-08-08T10:36:18Z</time>
      </trkpt>
      <trkpt lat="45.42303" lon="7.0279">
        <ele>2677.6</ele>
        <time>2020-08-08T10:36:19Z</time>
      </trkpt>
      <trkpt lat="45.423" lon="7.02794">
        <ele>2678</ele>
        <time>2020-08-08T10:36:21Z</time>
      </trkpt>
      <trkpt lat="45.42297" lon="7.02798">
        <ele>2678.4</ele>
        <time>2020-08-08T10:36:22Z</time>
      </trkpt>
      <trkpt lat="45.42295" lon="7.02802">
        <ele>2678.7</ele>
        <time>2020-08-08T10:36:23Z</time>
      </trkpt>
      <trkpt lat="45.42294" lon="7.02803">
        <ele>2678.8</ele>
        <time>2020-08-08T10:36:24Z</time>
      </trkpt>
      <trkpt lat="45.42292" lon="7.02807">
        <ele>2679.3</ele>
        <time>2020-08-08T10:36:26Z</time>
      </trkpt>
      <trkpt lat="45.4229" lon="7.02811">
        <ele>2679.6</ele>
        <time>2020-08-08T10:36:27Z</time>
      </trkpt>
      <trkpt lat="45.42289" lon="7.02812">
        <ele>2679.8</ele>
        <time>2020-08-08T10:36:28Z</time>
      </trkpt>
      <trkpt lat="45.42286" lon="7.02815">
        <ele>2680.1</ele>
        <time>2020-08-08T10:36:30Z</time>
      </trkpt>
      <trkpt lat="45.42285" lon="7.02816">
        <ele>2680.2</ele>
        <time>2020-08-08T10:36:31Z</time>
      </trkpt>
      <trkpt lat="45.42283" lon="7.0282">
        <ele>2680.6</ele>
        <time>2020-08-08T10:36:32Z</time>
      </trkpt>
      <trkpt lat="45.42282" lon="7.02821">
        <ele>2680.8</ele>
        <time>2020-08-08T10:36:33Z</time>
      </trkpt>
      <trkpt lat="45.4228" lon="7.02826">
        <ele>2681.2</ele>
        <time>2020-08-08T10:36:34Z</time>
      </trkpt>
      <trkpt lat="45.42276" lon="7.02832">
        <ele>2681.8</ele>
        <time>2020-08-08T10:36:36Z</time>
      </trkpt>
      <trkpt lat="45.42274" lon="7.02834">
        <ele>2682.1</ele>
        <time>2020-08-08T10:36:37Z</time>
      </trkpt>
      <trkpt lat="45.42272" lon="7.02838">
        <ele>2682.4</ele>
        <time>2020-08-08T10:36:40Z</time>
      </trkpt>
      <trkpt lat="45.42268" lon="7.02843">
        <ele>2682.9</ele>
        <time>2020-08-08T10:36:41Z</time>
      </trkpt>
      <trkpt lat="45.42266" lon="7.02846">
        <ele>2683.3</ele>
        <time>2020-08-08T10:36:42Z</time>
      </trkpt>
      <trkpt lat="45.42265" lon="7.02849">
        <ele>2683.5</ele>
        <time>2020-08-08T10:36:43Z</time>
      </trkpt>
      <trkpt lat="45.42263" lon="7.02851">
        <ele>2683.7</ele>
        <time>2020-08-08T10:36:45Z</time>
      </trkpt>
      <trkpt lat="45.42259" lon="7.02855">
        <ele>2684.3</ele>
        <time>2020-08-08T10:36:47Z</time>
      </trkpt>
      <trkpt lat="45.42257" lon="7.02859">
        <ele>2684.6</ele>
        <time>2020-08-08T10:36:50Z</time>
      </trkpt>
      <trkpt lat="45.42256" lon="7.02861">
        <ele>2684.8</ele>
        <time>2020-08-08T10:36:51Z</time>
      </trkpt>
      <trkpt lat="45.42253" lon="7.02865">
        <ele>2685.3</ele>
        <time>2020-08-08T10:36:53Z</time>
      </trkpt>
      <trkpt lat="45.4225" lon="7.02869">
        <ele>2685.7</ele>
        <time>2020-08-08T10:36:55Z</time>
      </trkpt>
      <trkpt lat="45.42245" lon="7.02873">
        <ele>2686.3</ele>
        <time>2020-08-08T10:36:56Z</time>
      </trkpt>
      <trkpt lat="45.42242" lon="7.02875">
        <ele>2686.6</ele>
        <time>2020-08-08T10:36:57Z</time>
      </trkpt>
      <trkpt lat="45.42241" lon="7.02876">
        <ele>2686.8</ele>
        <time>2020-08-08T10:36:58Z</time>
      </trkpt>
      <trkpt lat="45.42236" lon="7.02878">
        <ele>2687.4</ele>
        <time>2020-08-08T10:37:01Z</time>
      </trkpt>
      <trkpt lat="45.42232" lon="7.02879">
        <ele>2687.8</ele>
        <time>2020-08-08T10:37:03Z</time>
      </trkpt>
      <trkpt lat="45.4223" lon="7.02879">
        <ele>2688</ele>
        <time>2020-08-08T10:37:04Z</time>
      </trkpt>
      <trkpt lat="45.42226" lon="7.02878">
        <ele>2688.5</ele>
        <time>2020-08-08T10:37:06Z</time>
      </trkpt>
      <trkpt lat="45.42221" lon="7.02875">
        <ele>2689.1</ele>
        <time>2020-08-08T10:37:08Z</time>
      </trkpt>
      <trkpt lat="45.42218" lon="7.02873">
        <ele>2689.5</ele>
        <time>2020-08-08T10:37:09Z</time>
      </trkpt>
      <trkpt lat="45.42217" lon="7.02872">
        <ele>2689.7</ele>
        <time>2020-08-08T10:37:10Z</time>
      </trkpt>
      <trkpt lat="45.42214" lon="7.02871">
        <ele>2689.9</ele>
        <time>2020-08-08T10:37:12Z</time>
      </trkpt>
      <trkpt lat="45.42209" lon="7.02867">
        <ele>2690.5</ele>
        <time>2020-08-08T10:37:14Z</time>
      </trkpt>
      <trkpt lat="45.42207" lon="7.02865">
        <ele>2690.8</ele>
        <time>2020-08-08T10:37:15Z</time>
      </trkpt>
      <trkpt lat="45.42205" lon="7.02862">
        <ele>2691.2</ele>
        <time>2020-08-08T10:37:18Z</time>
      </trkpt>
      <trkpt lat="45.42203" lon="7.0286">
        <ele>2691.4</ele>
        <time>2020-08-08T10:37:19Z</time>
      </trkpt>
      <trkpt lat="45.422" lon="7.02856">
        <ele>2691.9</ele>
        <time>2020-08-08T10:37:21Z</time>
      </trkpt>
      <trkpt lat="45.42197" lon="7.02853">
        <ele>2692.3</ele>
        <time>2020-08-08T10:37:22Z</time>
      </trkpt>
      <trkpt lat="45.42196" lon="7.02853">
        <ele>2692.4</ele>
        <time>2020-08-08T10:37:23Z</time>
      </trkpt>
      <trkpt lat="45.42193" lon="7.02849">
        <ele>2692.8</ele>
        <time>2020-08-08T10:37:24Z</time>
      </trkpt>
      <trkpt lat="45.42191" lon="7.02846">
        <ele>2693.1</ele>
        <time>2020-08-08T10:37:25Z</time>
      </trkpt>
      <trkpt lat="45.42188" lon="7.02843">
        <ele>2693.4</ele>
        <time>2020-08-08T10:37:27Z</time>
      </trkpt>
      <trkpt lat="45.42186" lon="7.02841">
        <ele>2693.7</ele>
        <time>2020-08-08T10:37:28Z</time>
      </trkpt>
      <trkpt lat="45.42183" lon="7.02838">
        <ele>2694</ele>
        <time>2020-08-08T10:37:29Z</time>
      </trkpt>
      <trkpt lat="45.4218" lon="7.02833">
        <ele>2694.5</ele>
        <time>2020-08-08T10:37:31Z</time>
      </trkpt>
      <trkpt lat="45.42177" lon="7.02829">
        <ele>2694.8</ele>
        <time>2020-08-08T10:37:32Z</time>
      </trkpt>
      <trkpt lat="45.42171" lon="7.02823">
        <ele>2695.5</ele>
        <time>2020-08-08T10:37:35Z</time>
      </trkpt>
      <trkpt lat="45.42166" lon="7.02815">
        <ele>2696.2</ele>
        <time>2020-08-08T10:37:38Z</time>
      </trkpt>
      <trkpt lat="45.42163" lon="7.02812">
        <ele>2696.5</ele>
        <time>2020-08-08T10:37:39Z</time>
      </trkpt>
      <trkpt lat="45.4216" lon="7.02809">
        <ele>2696.8</ele>
        <time>2020-08-08T10:37:42Z</time>
      </trkpt>
      <trkpt lat="45.42157" lon="7.02805">
        <ele>2697.2</ele>
        <time>2020-08-08T10:37:44Z</time>
      </trkpt>
      <trkpt lat="45.42154" lon="7.02801">
        <ele>2697.6</ele>
        <time>2020-08-08T10:37:45Z</time>
      </trkpt>
      <trkpt lat="45.42153" lon="7.02799">
        <ele>2697.8</ele>
        <time>2020-08-08T10:37:46Z</time>
      </trkpt>
      <trkpt lat="45.42149" lon="7.02794">
        <ele>2698.3</ele>
        <time>2020-08-08T10:37:48Z</time>
      </trkpt>
      <trkpt lat="45.42146" lon="7.02791">
        <ele>2698.6</ele>
        <time>2020-08-08T10:37:49Z</time>
      </trkpt>
      <trkpt lat="45.42145" lon="7.02789">
        <ele>2698.9</ele>
        <time>2020-08-08T10:37:50Z</time>
      </trkpt>
      <trkpt lat="45.42143" lon="7.02786">
        <ele>2699.2</ele>
        <time>2020-08-08T10:37:53Z</time>
      </trkpt>
      <trkpt lat="45.4214" lon="7.02783">
        <ele>2699.5</ele>
        <time>2020-08-08T10:37:54Z</time>
      </trkpt>
      <trkpt lat="45.42138" lon="7.02779">
        <ele>2699.8</ele>
        <time>2020-08-08T10:37:56Z</time>
      </trkpt>
      <trkpt lat="45.42137" lon="7.02778">
        <ele>2699.9</ele>
        <time>2020-08-08T10:37:57Z</time>
      </trkpt>
      <trkpt lat="45.42133" lon="7.02773">
        <ele>2700.6</ele>
        <time>2020-08-08T10:37:58Z</time>
      </trkpt>
      <trkpt lat="45.42128" lon="7.02767">
        <ele>2701.1</ele>
        <time>2020-08-08T10:38:01Z</time>
      </trkpt>
      <trkpt lat="45.42126" lon="7.02765">
        <ele>2701.4</ele>
        <time>2020-08-08T10:38:02Z</time>
      </trkpt>
      <trkpt lat="45.42124" lon="7.02762">
        <ele>2701.6</ele>
        <time>2020-08-08T10:38:04Z</time>
      </trkpt>
      <trkpt lat="45.42123" lon="7.02761">
        <ele>2701.7</ele>
        <time>2020-08-08T10:38:05Z</time>
      </trkpt>
      <trkpt lat="45.42121" lon="7.02758">
        <ele>2701.9</ele>
        <time>2020-08-08T10:38:06Z</time>
      </trkpt>
      <trkpt lat="45.4212" lon="7.02756">
        <ele>2702.1</ele>
        <time>2020-08-08T10:38:08Z</time>
      </trkpt>
      <trkpt lat="45.42117" lon="7.02752">
        <ele>2702.4</ele>
        <time>2020-08-08T10:38:09Z</time>
      </trkpt>
      <trkpt lat="45.42115" lon="7.0275">
        <ele>2702.6</ele>
        <time>2020-08-08T10:38:10Z</time>
      </trkpt>
      <trkpt lat="45.42112" lon="7.02748">
        <ele>2702.8</ele>
        <time>2020-08-08T10:38:12Z</time>
      </trkpt>
      <trkpt lat="45.42109" lon="7.02745">
        <ele>2703</ele>
        <time>2020-08-08T10:38:13Z</time>
      </trkpt>
      <trkpt lat="45.42108" lon="7.02744">
        <ele>2703.1</ele>
        <time>2020-08-08T10:38:14Z</time>
      </trkpt>
      <trkpt lat="45.42106" lon="7.02743">
        <ele>2703.3</ele>
        <time>2020-08-08T10:38:15Z</time>
      </trkpt>
      <trkpt lat="45.42105" lon="7.02741">
        <ele>2703.4</ele>
        <time>2020-08-08T10:38:17Z</time>
      </trkpt>
      <trkpt lat="45.42102" lon="7.0274">
        <ele>2703.6</ele>
        <time>2020-08-08T10:38:18Z</time>
      </trkpt>
      <trkpt lat="45.42098" lon="7.0274">
        <ele>2703.8</ele>
        <time>2020-08-08T10:38:19Z</time>
      </trkpt>
      <trkpt lat="45.42095" lon="7.0274">
        <ele>2704</ele>
        <time>2020-08-08T10:38:21Z</time>
      </trkpt>
      <trkpt lat="45.42091" lon="7.02741">
        <ele>2704.2</ele>
        <time>2020-08-08T10:38:22Z</time>
      </trkpt>
      <trkpt lat="45.42088" lon="7.02742">
        <ele>2704.4</ele>
        <time>2020-08-08T10:38:23Z</time>
      </trkpt>
      <trkpt lat="45.42085" lon="7.02743">
        <ele>2704.6</ele>
        <time>2020-08-08T10:38:24Z</time>
      </trkpt>
      <trkpt lat="45.42084" lon="7.02744">
        <ele>2704.7</ele>
        <time>2020-08-08T10:38:25Z</time>
      </trkpt>
      <trkpt lat="45.42081" lon="7.02746">
        <ele>2704.8</ele>
        <time>2020-08-08T10:38:26Z</time>
      </trkpt>
      <trkpt lat="45.4208" lon="7.02747">
        <ele>2704.9</ele>
        <time>2020-08-08T10:38:27Z</time>
      </trkpt>
      <trkpt lat="45.42077" lon="7.0275">
        <ele>2705.1</ele>
        <time>2020-08-08T10:38:30Z</time>
      </trkpt>
      <trkpt lat="45.42076" lon="7.02752">
        <ele>2705.2</ele>
        <time>2020-08-08T10:38:31Z</time>
      </trkpt>
      <trkpt lat="45.42074" lon="7.02757">
        <ele>2705.4</ele>
        <time>2020-08-08T10:38:33Z</time>
      </trkpt>
      <trkpt lat="45.42073" lon="7.02761">
        <ele>2705.6</ele>
        <time>2020-08-08T10:38:34Z</time>
      </trkpt>
      <trkpt lat="45.42073" lon="7.02765">
        <ele>2705.7</ele>
        <time>2020-08-08T10:38:35Z</time>
      </trkpt>
      <trkpt lat="45.42071" lon="7.02771">
        <ele>2705.9</ele>
        <time>2020-08-08T10:38:37Z</time>
      </trkpt>
      <trkpt lat="45.42069" lon="7.02777">
        <ele>2706.2</ele>
        <time>2020-08-08T10:38:38Z</time>
      </trkpt>
      <trkpt lat="45.42068" lon="7.0278">
        <ele>2706.4</ele>
        <time>2020-08-08T10:38:39Z</time>
      </trkpt>
      <trkpt lat="45.42066" lon="7.02789">
        <ele>2706.8</ele>
        <time>2020-08-08T10:38:42Z</time>
      </trkpt>
      <trkpt lat="45.42065" lon="7.02792">
        <ele>2707</ele>
        <time>2020-08-08T10:38:43Z</time>
      </trkpt>
      <trkpt lat="45.42063" lon="7.02795">
        <ele>2707.2</ele>
        <time>2020-08-08T10:38:46Z</time>
      </trkpt>
      <trkpt lat="45.42061" lon="7.02799">
        <ele>2707.4</ele>
        <time>2020-08-08T10:38:47Z</time>
      </trkpt>
      <trkpt lat="45.42061" lon="7.02802">
        <ele>2707.5</ele>
        <time>2020-08-08T10:38:48Z</time>
      </trkpt>
      <trkpt lat="45.4206" lon="7.02805">
        <ele>2707.7</ele>
        <time>2020-08-08T10:38:50Z</time>
      </trkpt>
      <trkpt lat="45.42058" lon="7.02809">
        <ele>2707.9</ele>
        <time>2020-08-08T10:38:52Z</time>
      </trkpt>
      <trkpt lat="45.42058" lon="7.02812">
        <ele>2708</ele>
        <time>2020-08-08T10:38:53Z</time>
      </trkpt>
      <trkpt lat="45.42056" lon="7.02817">
        <ele>2708.3</ele>
        <time>2020-08-08T10:38:55Z</time>
      </trkpt>
      <trkpt lat="45.42055" lon="7.0282">
        <ele>2708.4</ele>
        <time>2020-08-08T10:38:56Z</time>
      </trkpt>
      <trkpt lat="45.42053" lon="7.02825">
        <ele>2708.7</ele>
        <time>2020-08-08T10:38:58Z</time>
      </trkpt>
      <trkpt lat="45.4205" lon="7.02834">
        <ele>2709.3</ele>
        <time>2020-08-08T10:39:00Z</time>
      </trkpt>
      <trkpt lat="45.42048" lon="7.02839">
        <ele>2709.5</ele>
        <time>2020-08-08T10:39:01Z</time>
      </trkpt>
      <trkpt lat="45.42047" lon="7.02841">
        <ele>2709.7</ele>
        <time>2020-08-08T10:39:04Z</time>
      </trkpt>
      <trkpt lat="45.42046" lon="7.02844">
        <ele>2709.8</ele>
        <time>2020-08-08T10:39:05Z</time>
      </trkpt>
      <trkpt lat="45.42045" lon="7.02846">
        <ele>2709.9</ele>
        <time>2020-08-08T10:39:06Z</time>
      </trkpt>
      <trkpt lat="45.42043" lon="7.0285">
        <ele>2710.2</ele>
        <time>2020-08-08T10:39:07Z</time>
      </trkpt>
      <trkpt lat="45.42042" lon="7.02852">
        <ele>2710.3</ele>
        <time>2020-08-08T10:39:08Z</time>
      </trkpt>
      <trkpt lat="45.42041" lon="7.02856">
        <ele>2710.5</ele>
        <time>2020-08-08T10:39:09Z</time>
      </trkpt>
      <trkpt lat="45.42039" lon="7.02859">
        <ele>2710.7</ele>
        <time>2020-08-08T10:39:12Z</time>
      </trkpt>
      <trkpt lat="45.42036" lon="7.02862">
        <ele>2710.9</ele>
        <time>2020-08-08T10:39:13Z</time>
      </trkpt>
      <trkpt lat="45.42035" lon="7.02864">
        <ele>2711</ele>
        <time>2020-08-08T10:39:14Z</time>
      </trkpt>
      <trkpt lat="45.42031" lon="7.02869">
        <ele>2711.3</ele>
        <time>2020-08-08T10:39:16Z</time>
      </trkpt>
      <trkpt lat="45.4203" lon="7.0287">
        <ele>2711.3</ele>
        <time>2020-08-08T10:39:17Z</time>
      </trkpt>
      <trkpt lat="45.42025" lon="7.02874">
        <ele>2711.5</ele>
        <time>2020-08-08T10:39:19Z</time>
      </trkpt>
      <trkpt lat="45.42022" lon="7.02877">
        <ele>2711.6</ele>
        <time>2020-08-08T10:39:21Z</time>
      </trkpt>
      <trkpt lat="45.4202" lon="7.02879">
        <ele>2711.8</ele>
        <time>2020-08-08T10:39:22Z</time>
      </trkpt>
      <trkpt lat="45.42016" lon="7.0288">
        <ele>2712.1</ele>
        <time>2020-08-08T10:39:24Z</time>
      </trkpt>
      <trkpt lat="45.42014" lon="7.02881">
        <ele>2712.3</ele>
        <time>2020-08-08T10:39:25Z</time>
      </trkpt>
      <trkpt lat="45.42012" lon="7.02881">
        <ele>2712.4</ele>
        <time>2020-08-08T10:39:27Z</time>
      </trkpt>
      <trkpt lat="45.4201" lon="7.02882">
        <ele>2712.6</ele>
        <time>2020-08-08T10:39:28Z</time>
      </trkpt>
      <trkpt lat="45.42009" lon="7.02882">
        <ele>2712.7</ele>
        <time>2020-08-08T10:39:29Z</time>
      </trkpt>
      <trkpt lat="45.42004" lon="7.02882">
        <ele>2713.1</ele>
        <time>2020-08-08T10:39:30Z</time>
      </trkpt>
      <trkpt lat="45.42001" lon="7.02882">
        <ele>2713.3</ele>
        <time>2020-08-08T10:39:31Z</time>
      </trkpt>
      <trkpt lat="45.41997" lon="7.02882">
        <ele>2713.6</ele>
        <time>2020-08-08T10:39:32Z</time>
      </trkpt>
      <trkpt lat="45.41991" lon="7.02881">
        <ele>2714.1</ele>
        <time>2020-08-08T10:39:35Z</time>
      </trkpt>
      <trkpt lat="45.41988" lon="7.0288">
        <ele>2714.4</ele>
        <time>2020-08-08T10:39:36Z</time>
      </trkpt>
      <trkpt lat="45.41985" lon="7.0288">
        <ele>2714.6</ele>
        <time>2020-08-08T10:39:37Z</time>
      </trkpt>
      <trkpt lat="45.41983" lon="7.0288">
        <ele>2714.8</ele>
        <time>2020-08-08T10:39:39Z</time>
      </trkpt>
      <trkpt lat="45.4198" lon="7.02879">
        <ele>2715.1</ele>
        <time>2020-08-08T10:39:40Z</time>
      </trkpt>
      <trkpt lat="45.41978" lon="7.02879">
        <ele>2715.2</ele>
        <time>2020-08-08T10:39:41Z</time>
      </trkpt>
      <trkpt lat="45.41975" lon="7.02878">
        <ele>2715.6</ele>
        <time>2020-08-08T10:39:42Z</time>
      </trkpt>
      <trkpt lat="45.41972" lon="7.02878">
        <ele>2715.8</ele>
        <time>2020-08-08T10:39:43Z</time>
      </trkpt>
      <trkpt lat="45.4197" lon="7.02878">
        <ele>2716</ele>
        <time>2020-08-08T10:39:45Z</time>
      </trkpt>
      <trkpt lat="45.41968" lon="7.02878">
        <ele>2716.2</ele>
        <time>2020-08-08T10:39:46Z</time>
      </trkpt>
      <trkpt lat="45.41965" lon="7.02877">
        <ele>2716.5</ele>
        <time>2020-08-08T10:39:48Z</time>
      </trkpt>
      <trkpt lat="45.41961" lon="7.02876">
        <ele>2716.9</ele>
        <time>2020-08-08T10:39:49Z</time>
      </trkpt>
      <trkpt lat="45.4196" lon="7.02875">
        <ele>2717.1</ele>
        <time>2020-08-08T10:39:50Z</time>
      </trkpt>
      <trkpt lat="45.41957" lon="7.02875">
        <ele>2717.3</ele>
        <time>2020-08-08T10:39:51Z</time>
      </trkpt>
      <trkpt lat="45.41954" lon="7.02874">
        <ele>2717.7</ele>
        <time>2020-08-08T10:39:53Z</time>
      </trkpt>
      <trkpt lat="45.41953" lon="7.02874">
        <ele>2717.8</ele>
        <time>2020-08-08T10:39:54Z</time>
      </trkpt>
      <trkpt lat="45.41948" lon="7.02873">
        <ele>2718.3</ele>
        <time>2020-08-08T10:39:56Z</time>
      </trkpt>
      <trkpt lat="45.41946" lon="7.02873">
        <ele>2718.5</ele>
        <time>2020-08-08T10:39:57Z</time>
      </trkpt>
      <trkpt lat="45.41944" lon="7.02872">
        <ele>2718.8</ele>
        <time>2020-08-08T10:39:58Z</time>
      </trkpt>
      <trkpt lat="45.41941" lon="7.02872">
        <ele>2719</ele>
        <time>2020-08-08T10:39:59Z</time>
      </trkpt>
      <trkpt lat="45.41939" lon="7.02873">
        <ele>2719.3</ele>
        <time>2020-08-08T10:40:01Z</time>
      </trkpt>
      <trkpt lat="45.41935" lon="7.02872">
        <ele>2719.8</ele>
        <time>2020-08-08T10:40:03Z</time>
      </trkpt>
      <trkpt lat="45.41932" lon="7.02872">
        <ele>2720.1</ele>
        <time>2020-08-08T10:40:05Z</time>
      </trkpt>
      <trkpt lat="45.41928" lon="7.02872">
        <ele>2720.6</ele>
        <time>2020-08-08T10:40:07Z</time>
      </trkpt>
      <trkpt lat="45.41924" lon="7.02871">
        <ele>2721</ele>
        <time>2020-08-08T10:40:09Z</time>
      </trkpt>
      <trkpt lat="45.41923" lon="7.02871">
        <ele>2721.1</ele>
        <time>2020-08-08T10:40:10Z</time>
      </trkpt>
      <trkpt lat="45.4192" lon="7.02871">
        <ele>2721.5</ele>
        <time>2020-08-08T10:40:12Z</time>
      </trkpt>
      <trkpt lat="45.41919" lon="7.02871">
        <ele>2721.6</ele>
        <time>2020-08-08T10:40:13Z</time>
      </trkpt>
      <trkpt lat="45.41916" lon="7.02871">
        <ele>2721.9</ele>
        <time>2020-08-08T10:40:15Z</time>
      </trkpt>
      <trkpt lat="45.41915" lon="7.02871">
        <ele>2722</ele>
        <time>2020-08-08T10:40:16Z</time>
      </trkpt>
      <trkpt lat="45.41911" lon="7.02871">
        <ele>2722.5</ele>
        <time>2020-08-08T10:40:18Z</time>
      </trkpt>
      <trkpt lat="45.41908" lon="7.02871">
        <ele>2722.8</ele>
        <time>2020-08-08T10:40:19Z</time>
      </trkpt>
      <trkpt lat="45.41906" lon="7.0287">
        <ele>2723.1</ele>
        <time>2020-08-08T10:40:20Z</time>
      </trkpt>
      <trkpt lat="45.419" lon="7.02869">
        <ele>2723.7</ele>
        <time>2020-08-08T10:40:22Z</time>
      </trkpt>
      <trkpt lat="45.41896" lon="7.02869">
        <ele>2724.2</ele>
        <time>2020-08-08T10:40:24Z</time>
      </trkpt>
      <trkpt lat="45.41894" lon="7.02869">
        <ele>2724.4</ele>
        <time>2020-08-08T10:40:25Z</time>
      </trkpt>
      <trkpt lat="45.41893" lon="7.02869">
        <ele>2724.5</ele>
        <time>2020-08-08T10:40:26Z</time>
      </trkpt>
      <trkpt lat="45.41888" lon="7.02867">
        <ele>2725.1</ele>
        <time>2020-08-08T10:40:29Z</time>
      </trkpt>
      <trkpt lat="45.41885" lon="7.02866">
        <ele>2725.4</ele>
        <time>2020-08-08T10:40:30Z</time>
      </trkpt>
      <trkpt lat="45.41882" lon="7.02867">
        <ele>2725.7</ele>
        <time>2020-08-08T10:40:33Z</time>
      </trkpt>
      <trkpt lat="45.41879" lon="7.02867">
        <ele>2726.1</ele>
        <time>2020-08-08T10:40:34Z</time>
      </trkpt>
      <trkpt lat="45.41875" lon="7.02869">
        <ele>2726.4</ele>
        <time>2020-08-08T10:40:35Z</time>
      </trkpt>
      <trkpt lat="45.41874" lon="7.0287">
        <ele>2726.6</ele>
        <time>2020-08-08T10:40:36Z</time>
      </trkpt>
      <trkpt lat="45.41869" lon="7.02872">
        <ele>2727.1</ele>
        <time>2020-08-08T10:40:38Z</time>
      </trkpt>
      <trkpt lat="45.41868" lon="7.02874">
        <ele>2727.2</ele>
        <time>2020-08-08T10:40:40Z</time>
      </trkpt>
      <trkpt lat="45.41867" lon="7.02875">
        <ele>2727.4</ele>
        <time>2020-08-08T10:40:41Z</time>
      </trkpt>
      <trkpt lat="45.41863" lon="7.02883">
        <ele>2727.9</ele>
        <time>2020-08-08T10:40:43Z</time>
      </trkpt>
      <trkpt lat="45.41863" lon="7.02888">
        <ele>2728.2</ele>
        <time>2020-08-08T10:40:44Z</time>
      </trkpt>
      <trkpt lat="45.41863" lon="7.0289">
        <ele>2728.3</ele>
        <time>2020-08-08T10:40:45Z</time>
      </trkpt>
      <trkpt lat="45.41865" lon="7.02894">
        <ele>2728.5</ele>
        <time>2020-08-08T10:40:47Z</time>
      </trkpt>
      <trkpt lat="45.4187" lon="7.02899">
        <ele>2728.9</ele>
        <time>2020-08-08T10:40:49Z</time>
      </trkpt>
      <trkpt lat="45.41874" lon="7.02902">
        <ele>2729.2</ele>
        <time>2020-08-08T10:40:51Z</time>
      </trkpt>
      <trkpt lat="45.41881" lon="7.02905">
        <ele>2729.6</ele>
        <time>2020-08-08T10:40:53Z</time>
      </trkpt>
      <trkpt lat="45.41885" lon="7.02906">
        <ele>2729.8</ele>
        <time>2020-08-08T10:40:54Z</time>
      </trkpt>
      <trkpt lat="45.41889" lon="7.02906">
        <ele>2730.1</ele>
        <time>2020-08-08T10:40:56Z</time>
      </trkpt>
      <trkpt lat="45.41894" lon="7.02907">
        <ele>2730.4</ele>
        <time>2020-08-08T10:40:58Z</time>
      </trkpt>
      <trkpt lat="45.41899" lon="7.02909">
        <ele>2730.7</ele>
        <time>2020-08-08T10:40:59Z</time>
      </trkpt>
      <trkpt lat="45.41903" lon="7.02917">
        <ele>2731.2</ele>
        <time>2020-08-08T10:41:01Z</time>
      </trkpt>
      <trkpt lat="45.41907" lon="7.02926">
        <ele>2731.9</ele>
        <time>2020-08-08T10:41:04Z</time>
      </trkpt>
      <trkpt lat="45.41909" lon="7.0293">
        <ele>2732.2</ele>
        <time>2020-08-08T10:41:05Z</time>
      </trkpt>
      <trkpt lat="45.41913" lon="7.02938">
        <ele>2732.9</ele>
        <time>2020-08-08T10:41:08Z</time>
      </trkpt>
      <trkpt lat="45.41915" lon="7.02942">
        <ele>2733.2</ele>
        <time>2020-08-08T10:41:10Z</time>
      </trkpt>
      <trkpt lat="45.41917" lon="7.02947">
        <ele>2733.6</ele>
        <time>2020-08-08T10:41:11Z</time>
      </trkpt>
      <trkpt lat="45.41919" lon="7.02951">
        <ele>2734</ele>
        <time>2020-08-08T10:41:13Z</time>
      </trkpt>
      <trkpt lat="45.4192" lon="7.02954">
        <ele>2734.3</ele>
        <time>2020-08-08T10:41:15Z</time>
      </trkpt>
      <trkpt lat="45.41923" lon="7.0296">
        <ele>2734.8</ele>
        <time>2020-08-08T10:41:16Z</time>
      </trkpt>
      <trkpt lat="45.41924" lon="7.02964">
        <ele>2735.1</ele>
        <time>2020-08-08T10:41:17Z</time>
      </trkpt>
      <trkpt lat="45.41927" lon="7.02972">
        <ele>2735.8</ele>
        <time>2020-08-08T10:41:19Z</time>
      </trkpt>
      <trkpt lat="45.41929" lon="7.02976">
        <ele>2736.1</ele>
        <time>2020-08-08T10:41:21Z</time>
      </trkpt>
      <trkpt lat="45.4193" lon="7.0298">
        <ele>2736.4</ele>
        <time>2020-08-08T10:41:22Z</time>
      </trkpt>
      <trkpt lat="45.41932" lon="7.02987">
        <ele>2736.8</ele>
        <time>2020-08-08T10:41:25Z</time>
      </trkpt>
      <trkpt lat="45.41933" lon="7.0299">
        <ele>2737</ele>
        <time>2020-08-08T10:41:26Z</time>
      </trkpt>
      <trkpt lat="45.41933" lon="7.02994">
        <ele>2737.1</ele>
        <time>2020-08-08T10:41:27Z</time>
      </trkpt>
      <trkpt lat="45.41935" lon="7.02997">
        <ele>2737.2</ele>
        <time>2020-08-08T10:41:29Z</time>
      </trkpt>
      <trkpt lat="45.41935" lon="7.03004">
        <ele>2737.4</ele>
        <time>2020-08-08T10:41:30Z</time>
      </trkpt>
      <trkpt lat="45.41935" lon="7.0301">
        <ele>2737.6</ele>
        <time>2020-08-08T10:41:31Z</time>
      </trkpt>
      <trkpt lat="45.41933" lon="7.03014">
        <ele>2737.8</ele>
        <time>2020-08-08T10:41:33Z</time>
      </trkpt>
      <trkpt lat="45.41926" lon="7.03017">
        <ele>2738.1</ele>
        <time>2020-08-08T10:41:35Z</time>
      </trkpt>
      <trkpt lat="45.41924" lon="7.03015">
        <ele>2738.1</ele>
        <time>2020-08-08T10:41:37Z</time>
      </trkpt>
      <trkpt lat="45.41921" lon="7.03011">
        <ele>2738.2</ele>
        <time>2020-08-08T10:41:38Z</time>
      </trkpt>
      <trkpt lat="45.4192" lon="7.03007">
        <ele>2738.2</ele>
        <time>2020-08-08T10:41:40Z</time>
      </trkpt>
      <trkpt lat="45.41918" lon="7.03001">
        <ele>2738.3</ele>
        <time>2020-08-08T10:41:41Z</time>
      </trkpt>
      <trkpt lat="45.41916" lon="7.02996">
        <ele>2738.3</ele>
        <time>2020-08-08T10:41:42Z</time>
      </trkpt>
      <trkpt lat="45.41914" lon="7.02991">
        <ele>2738.3</ele>
        <time>2020-08-08T10:41:45Z</time>
      </trkpt>
      <trkpt lat="45.41912" lon="7.02986">
        <ele>2738.7</ele>
        <time>2020-08-08T10:41:46Z</time>
      </trkpt>
      <trkpt lat="45.4191" lon="7.02983">
        <ele>2739.1</ele>
        <time>2020-08-08T10:41:48Z</time>
      </trkpt>
      <trkpt lat="45.41907" lon="7.02978">
        <ele>2739.5</ele>
        <time>2020-08-08T10:41:49Z</time>
      </trkpt>
      <trkpt lat="45.41904" lon="7.02975">
        <ele>2739.9</ele>
        <time>2020-08-08T10:41:50Z</time>
      </trkpt>
      <trkpt lat="45.41901" lon="7.02973">
        <ele>2740.3</ele>
        <time>2020-08-08T10:41:51Z</time>
      </trkpt>
      <trkpt lat="45.41895" lon="7.02968">
        <ele>2741</ele>
        <time>2020-08-08T10:41:54Z</time>
      </trkpt>
      <trkpt lat="45.41892" lon="7.02967">
        <ele>2741.3</ele>
        <time>2020-08-08T10:41:55Z</time>
      </trkpt>
      <trkpt lat="45.4189" lon="7.02967">
        <ele>2741.4</ele>
        <time>2020-08-08T10:41:56Z</time>
      </trkpt>
      <trkpt lat="45.41884" lon="7.02965">
        <ele>2742.1</ele>
        <time>2020-08-08T10:41:59Z</time>
      </trkpt>
      <trkpt lat="45.41875" lon="7.02965">
        <ele>2742.8</ele>
        <time>2020-08-08T10:42:02Z</time>
      </trkpt>
      <trkpt lat="45.41867" lon="7.02967">
        <ele>2743.5</ele>
        <time>2020-08-08T10:42:05Z</time>
      </trkpt>
      <trkpt lat="45.41861" lon="7.02972">
        <ele>2744.1</ele>
        <time>2020-08-08T10:42:08Z</time>
      </trkpt>
      <trkpt lat="45.41858" lon="7.02976">
        <ele>2744.3</ele>
        <time>2020-08-08T10:42:09Z</time>
      </trkpt>
      <trkpt lat="45.41854" lon="7.02981">
        <ele>2744.7</ele>
        <time>2020-08-08T10:42:10Z</time>
      </trkpt>
      <trkpt lat="45.41849" lon="7.0299">
        <ele>2745.3</ele>
        <time>2020-08-08T10:42:13Z</time>
      </trkpt>
      <trkpt lat="45.41846" lon="7.02996">
        <ele>2745.7</ele>
        <time>2020-08-08T10:42:15Z</time>
      </trkpt>
      <trkpt lat="45.41842" lon="7.03001">
        <ele>2746</ele>
        <time>2020-08-08T10:42:16Z</time>
      </trkpt>
      <trkpt lat="45.41839" lon="7.03006">
        <ele>2746.4</ele>
        <time>2020-08-08T10:42:17Z</time>
      </trkpt>
      <trkpt lat="45.41836" lon="7.03011">
        <ele>2746.7</ele>
        <time>2020-08-08T10:42:19Z</time>
      </trkpt>
      <trkpt lat="45.4183" lon="7.03022">
        <ele>2747.5</ele>
        <time>2020-08-08T10:42:21Z</time>
      </trkpt>
      <trkpt lat="45.41823" lon="7.0303">
        <ele>2748.3</ele>
        <time>2020-08-08T10:42:24Z</time>
      </trkpt>
      <trkpt lat="45.41818" lon="7.03035">
        <ele>2748.8</ele>
        <time>2020-08-08T10:42:25Z</time>
      </trkpt>
      <trkpt lat="45.41809" lon="7.03041">
        <ele>2749.7</ele>
        <time>2020-08-08T10:42:27Z</time>
      </trkpt>
      <trkpt lat="45.41804" lon="7.03043">
        <ele>2750.1</ele>
        <time>2020-08-08T10:42:28Z</time>
      </trkpt>
      <trkpt lat="45.41798" lon="7.03045">
        <ele>2750.6</ele>
        <time>2020-08-08T10:42:29Z</time>
      </trkpt>
      <trkpt lat="45.41786" lon="7.03049">
        <ele>2751.6</ele>
        <time>2020-08-08T10:42:31Z</time>
      </trkpt>
      <trkpt lat="45.4178" lon="7.03051">
        <ele>2752.2</ele>
        <time>2020-08-08T10:42:32Z</time>
      </trkpt>
      <trkpt lat="45.41767" lon="7.03055">
        <ele>2753.2</ele>
        <time>2020-08-08T10:42:34Z</time>
      </trkpt>
      <trkpt lat="45.4176" lon="7.03056">
        <ele>2753.9</ele>
        <time>2020-08-08T10:42:35Z</time>
      </trkpt>
      <trkpt lat="45.41747" lon="7.0306">
        <ele>2755.7</ele>
        <time>2020-08-08T10:42:37Z</time>
      </trkpt>
      <trkpt lat="45.4174" lon="7.03062">
        <ele>2756.4</ele>
        <time>2020-08-08T10:42:38Z</time>
      </trkpt>
      <trkpt lat="45.41728" lon="7.03068">
        <ele>2757.9</ele>
        <time>2020-08-08T10:42:40Z</time>
      </trkpt>
      <trkpt lat="45.41715" lon="7.03079">
        <ele>2759</ele>
        <time>2020-08-08T10:42:42Z</time>
      </trkpt>
      <trkpt lat="45.4171" lon="7.03087">
        <ele>2759.3</ele>
        <time>2020-08-08T10:42:43Z</time>
      </trkpt>
      <trkpt lat="45.41701" lon="7.03104">
        <ele>2759.7</ele>
        <time>2020-08-08T10:42:45Z</time>
      </trkpt>
      <trkpt lat="45.41695" lon="7.03123">
        <ele>2760.1</ele>
        <time>2020-08-08T10:42:47Z</time>
      </trkpt>
      <trkpt lat="45.41693" lon="7.03132">
        <ele>2760.3</ele>
        <time>2020-08-08T10:42:48Z</time>
      </trkpt>
      <trkpt lat="45.41693" lon="7.0315">
        <ele>2760.4</ele>
        <time>2020-08-08T10:42:50Z</time>
      </trkpt>
      <trkpt lat="45.41693" lon="7.03168">
        <ele>2760.4</ele>
        <time>2020-08-08T10:42:52Z</time>
      </trkpt>
      <trkpt lat="45.41697" lon="7.03177">
        <ele>2760.3</ele>
        <time>2020-08-08T10:42:54Z</time>
      </trkpt>
      <trkpt lat="45.41699" lon="7.0318">
        <ele>2760.3</ele>
        <time>2020-08-08T10:42:55Z</time>
      </trkpt>
      <trkpt lat="45.41702" lon="7.03185">
        <ele>2760.2</ele>
        <time>2020-08-08T10:42:56Z</time>
      </trkpt>
      <trkpt lat="45.41706" lon="7.0319">
        <ele>2760.1</ele>
        <time>2020-08-08T10:42:58Z</time>
      </trkpt>
      <trkpt lat="45.41708" lon="7.03193">
        <ele>2760</ele>
        <time>2020-08-08T10:42:59Z</time>
      </trkpt>
      <trkpt lat="45.41712" lon="7.03195">
        <ele>2759.9</ele>
        <time>2020-08-08T10:43:00Z</time>
      </trkpt>
      <trkpt lat="45.41713" lon="7.03196">
        <ele>2759.9</ele>
        <time>2020-08-08T10:43:03Z</time>
      </trkpt>
      <trkpt lat="45.41713" lon="7.03197">
        <ele>2759.8</ele>
        <time>2020-08-08T10:43:05Z</time>
      </trkpt>
      <trkpt lat="45.41713" lon="7.03197">
        <ele>2759.8</ele>
        <time>2020-08-08T10:43:07Z</time>
      </trkpt>
      <trkpt lat="45.41713" lon="7.03197">
        <ele>2759.8</ele>
        <time>2020-08-08T10:43:08Z</time>
      </trkpt>
      <trkpt lat="45.41712" lon="7.03197">
        <ele>2759.9</ele>
        <time>2020-08-08T10:43:10Z</time>
      </trkpt>
      <trkpt lat="45.41712" lon="7.03198">
        <ele>2759.9</ele>
        <time>2020-08-08T10:43:13Z</time>
      </trkpt>
      <trkpt lat="45.41712" lon="7.03198">
        <ele>2759.9</ele>
        <time>2020-08-08T10:43:15Z</time>
      </trkpt>
      <trkpt lat="45.41712" lon="7.03199">
        <ele>2759.9</ele>
        <time>2020-08-08T10:43:17Z</time>
      </trkpt>
      <trkpt lat="45.41711" lon="7.032">
        <ele>2760</ele>
        <time>2020-08-08T10:43:19Z</time>
      </trkpt>
      <trkpt lat="45.4171" lon="7.032">
        <ele>2760</ele>
        <time>2020-08-08T10:43:21Z</time>
      </trkpt>
      <trkpt lat="45.41709" lon="7.032">
        <ele>2760</ele>
        <time>2020-08-08T10:43:23Z</time>
      </trkpt>
      <trkpt lat="45.41709" lon="7.03199">
        <ele>2760</ele>
        <time>2020-08-08T10:43:24Z</time>
      </trkpt>
      <trkpt lat="45.41709" lon="7.03198">
        <ele>2760</ele>
        <time>2020-08-08T10:43:25Z</time>
      </trkpt>
      <trkpt lat="45.41708" lon="7.03198">
        <ele>2760</ele>
        <time>2020-08-08T10:43:27Z</time>
      </trkpt>
      <trkpt lat="45.41707" lon="7.03197">
        <ele>2760.1</ele>
        <time>2020-08-08T10:43:29Z</time>
      </trkpt>
      <trkpt lat="45.41706" lon="7.03196">
        <ele>2760.1</ele>
        <time>2020-08-08T10:43:30Z</time>
      </trkpt>
      <trkpt lat="45.41705" lon="7.03195">
        <ele>2760.1</ele>
        <time>2020-08-08T10:43:31Z</time>
      </trkpt>
      <trkpt lat="45.41704" lon="7.03193">
        <ele>2760.2</ele>
        <time>2020-08-08T10:43:32Z</time>
      </trkpt>
      <trkpt lat="45.41702" lon="7.03189">
        <ele>2760.2</ele>
        <time>2020-08-08T10:43:34Z</time>
      </trkpt>
      <trkpt lat="45.41701" lon="7.03188">
        <ele>2760.2</ele>
        <time>2020-08-08T10:43:35Z</time>
      </trkpt>
      <trkpt lat="45.41698" lon="7.03183">
        <ele>2760.3</ele>
        <time>2020-08-08T10:43:38Z</time>
      </trkpt>
      <trkpt lat="45.41697" lon="7.03179">
        <ele>2760.3</ele>
        <time>2020-08-08T10:43:40Z</time>
      </trkpt>
      <trkpt lat="45.41695" lon="7.03171">
        <ele>2760.4</ele>
        <time>2020-08-08T10:43:41Z</time>
      </trkpt>
      <trkpt lat="45.41693" lon="7.03166">
        <ele>2760.4</ele>
        <time>2020-08-08T10:43:42Z</time>
      </trkpt>
      <trkpt lat="45.41692" lon="7.03159">
        <ele>2760.4</ele>
        <time>2020-08-08T10:43:44Z</time>
      </trkpt>
      <trkpt lat="45.41692" lon="7.03155">
        <ele>2760.4</ele>
        <time>2020-08-08T10:43:45Z</time>
      </trkpt>
      <trkpt lat="45.41692" lon="7.0315">
        <ele>2760.4</ele>
        <time>2020-08-08T10:43:46Z</time>
      </trkpt>
      <trkpt lat="45.41692" lon="7.03142">
        <ele>2760.3</ele>
        <time>2020-08-08T10:43:48Z</time>
      </trkpt>
      <trkpt lat="45.41692" lon="7.03136">
        <ele>2760.3</ele>
        <time>2020-08-08T10:43:50Z</time>
      </trkpt>
      <trkpt lat="45.41693" lon="7.03129">
        <ele>2760.2</ele>
        <time>2020-08-08T10:43:52Z</time>
      </trkpt>
      <trkpt lat="45.41695" lon="7.03124">
        <ele>2760.1</ele>
        <time>2020-08-08T10:43:53Z</time>
      </trkpt>
      <trkpt lat="45.41696" lon="7.03121">
        <ele>2760.1</ele>
        <time>2020-08-08T10:43:54Z</time>
      </trkpt>
      <trkpt lat="45.41697" lon="7.03114">
        <ele>2759.9</ele>
        <time>2020-08-08T10:43:56Z</time>
      </trkpt>
      <trkpt lat="45.41698" lon="7.03111">
        <ele>2759.9</ele>
        <time>2020-08-08T10:43:57Z</time>
      </trkpt>
      <trkpt lat="45.41701" lon="7.03105">
        <ele>2759.7</ele>
        <time>2020-08-08T10:43:59Z</time>
      </trkpt>
      <trkpt lat="45.41703" lon="7.03099">
        <ele>2759.5</ele>
        <time>2020-08-08T10:44:01Z</time>
      </trkpt>
      <trkpt lat="45.41704" lon="7.03094">
        <ele>2759.4</ele>
        <time>2020-08-08T10:44:03Z</time>
      </trkpt>
      <trkpt lat="45.41705" lon="7.03091">
        <ele>2759.4</ele>
        <time>2020-08-08T10:44:04Z</time>
      </trkpt>
      <trkpt lat="45.41705" lon="7.03088">
        <ele>2759.4</ele>
        <time>2020-08-08T10:44:06Z</time>
      </trkpt>
      <trkpt lat="45.41705" lon="7.03087">
        <ele>2759.4</ele>
        <time>2020-08-08T10:44:07Z</time>
      </trkpt>
      <trkpt lat="45.41704" lon="7.03087">
        <ele>2759.4</ele>
        <time>2020-08-08T10:44:08Z</time>
      </trkpt>
      <trkpt lat="45.41702" lon="7.03087">
        <ele>2759.4</ele>
        <time>2020-08-08T10:44:10Z</time>
      </trkpt>
      <trkpt lat="45.41702" lon="7.03088">
        <ele>2759.4</ele>
        <time>2020-08-08T10:44:11Z</time>
      </trkpt>
      <trkpt lat="45.41701" lon="7.03088">
        <ele>2759.4</ele>
        <time>2020-08-08T10:44:13Z</time>
      </trkpt>
      <trkpt lat="45.41701" lon="7.03088">
        <ele>2759.4</ele>
        <time>2020-08-08T10:44:15Z</time>
      </trkpt>
      <trkpt lat="45.417" lon="7.03089">
        <ele>2759.4</ele>
        <time>2020-08-08T10:44:17Z</time>
      </trkpt>
      <trkpt lat="45.41699" lon="7.03089">
        <ele>2759.4</ele>
        <time>2020-08-08T10:44:19Z</time>
      </trkpt>
      <trkpt lat="45.41698" lon="7.03089">
        <ele>2759.4</ele>
        <time>2020-08-08T10:44:20Z</time>
      </trkpt>
      <trkpt lat="45.41698" lon="7.03092">
        <ele>2759.4</ele>
        <time>2020-08-08T10:44:26Z</time>
      </trkpt>
      <trkpt lat="45.41697" lon="7.03092">
        <ele>2759.4</ele>
        <time>2020-08-08T10:44:27Z</time>
      </trkpt>
      <trkpt lat="45.41697" lon="7.03091">
        <ele>2759.4</ele>
        <time>2020-08-08T10:44:29Z</time>
      </trkpt>
      <trkpt lat="45.41697" lon="7.03091">
        <ele>2759.4</ele>
        <time>2020-08-08T10:44:31Z</time>
      </trkpt>
      <trkpt lat="45.41697" lon="7.03091">
        <ele>2759.4</ele>
        <time>2020-08-08T10:44:33Z</time>
      </trkpt>
      <trkpt lat="45.41697" lon="7.03091">
        <ele>2759.4</ele>
        <time>2020-08-08T10:44:34Z</time>
      </trkpt>
      <trkpt lat="45.41697" lon="7.03091">
        <ele>2759.4</ele>
        <time>2020-08-08T10:44:35Z</time>
      </trkpt>
      <trkpt lat="45.41698" lon="7.03091">
        <ele>2759.4</ele>
        <time>2020-08-08T10:44:37Z</time>
      </trkpt>
      <trkpt lat="45.41698" lon="7.03091">
        <ele>2759.4</ele>
        <time>2020-08-08T10:44:39Z</time>
      </trkpt>
      <trkpt lat="45.41699" lon="7.0309">
        <ele>2759.4</ele>
        <time>2020-08-08T10:44:41Z</time>
      </trkpt>
      <trkpt lat="45.41699" lon="7.0309">
        <ele>2759.4</ele>
        <time>2020-08-08T10:44:43Z</time>
      </trkpt>
      <trkpt lat="45.41699" lon="7.0309">
        <ele>2759.4</ele>
        <time>2020-08-08T10:44:44Z</time>
      </trkpt>
      <trkpt lat="45.41699" lon="7.0309">
        <ele>2759.4</ele>
        <time>2020-08-08T10:44:45Z</time>
      </trkpt>
      <trkpt lat="45.417" lon="7.0309">
        <ele>2759.4</ele>
        <time>2020-08-08T10:44:47Z</time>
      </trkpt>
      <trkpt lat="45.417" lon="7.0309">
        <ele>2759.4</ele>
        <time>2020-08-08T10:44:48Z</time>
      </trkpt>
      <trkpt lat="45.417" lon="7.03089">
        <ele>2759.4</ele>
        <time>2020-08-08T10:44:50Z</time>
      </trkpt>
      <trkpt lat="45.41701" lon="7.03089">
        <ele>2759.4</ele>
        <time>2020-08-08T10:44:51Z</time>
      </trkpt>
      <trkpt lat="45.417" lon="7.03089">
        <ele>2759.4</ele>
        <time>2020-08-08T10:44:52Z</time>
      </trkpt>
      <trkpt lat="45.41701" lon="7.03089">
        <ele>2759.4</ele>
        <time>2020-08-08T10:44:53Z</time>
      </trkpt>
      <trkpt lat="45.41701" lon="7.0309">
        <ele>2759.3</ele>
        <time>2020-08-08T10:44:55Z</time>
      </trkpt>
      <trkpt lat="45.41701" lon="7.0309">
        <ele>2759.3</ele>
        <time>2020-08-08T10:44:58Z</time>
      </trkpt>
      <trkpt lat="45.41701" lon="7.03091">
        <ele>2759.3</ele>
        <time>2020-08-08T10:44:59Z</time>
      </trkpt>
      <trkpt lat="45.41701" lon="7.03092">
        <ele>2759.3</ele>
        <time>2020-08-08T10:45:01Z</time>
      </trkpt>
      <trkpt lat="45.41701" lon="7.03093">
        <ele>2759.3</ele>
        <time>2020-08-08T10:45:02Z</time>
      </trkpt>
      <trkpt lat="45.41701" lon="7.03093">
        <ele>2759.3</ele>
        <time>2020-08-08T10:45:04Z</time>
      </trkpt>
      <trkpt lat="45.41701" lon="7.03093">
        <ele>2759.3</ele>
        <time>2020-08-08T10:45:05Z</time>
      </trkpt>
      <trkpt lat="45.41701" lon="7.03093">
        <ele>2759.3</ele>
        <time>2020-08-08T10:45:06Z</time>
      </trkpt>
      <trkpt lat="45.41701" lon="7.03092">
        <ele>2759.3</ele>
        <time>2020-08-08T10:45:08Z</time>
      </trkpt>
      <trkpt lat="45.41701" lon="7.03092">
        <ele>2759.3</ele>
        <time>2020-08-08T10:45:09Z</time>
      </trkpt>
      <trkpt lat="45.41701" lon="7.03092">
        <ele>2759.3</ele>
        <time>2020-08-08T10:45:11Z</time>
      </trkpt>
      <trkpt lat="45.41701" lon="7.03093">
        <ele>2759.3</ele>
        <time>2020-08-08T10:45:13Z</time>
      </trkpt>
      <trkpt lat="45.417" lon="7.03094">
        <ele>2759.3</ele>
        <time>2020-08-08T10:45:14Z</time>
      </trkpt>
      <trkpt lat="45.417" lon="7.03095">
        <ele>2759.3</ele>
        <time>2020-08-08T10:45:16Z</time>
      </trkpt>
      <trkpt lat="45.417" lon="7.03095">
        <ele>2759.3</ele>
        <time>2020-08-08T10:45:17Z</time>
      </trkpt>
      <trkpt lat="45.417" lon="7.03094">
        <ele>2759.3</ele>
        <time>2020-08-08T10:45:19Z</time>
      </trkpt>
      <trkpt lat="45.417" lon="7.03094">
        <ele>2759.3</ele>
        <time>2020-08-08T10:45:20Z</time>
      </trkpt>
      <trkpt lat="45.417" lon="7.03094">
        <ele>2759.3</ele>
        <time>2020-08-08T10:45:21Z</time>
      </trkpt>
      <trkpt lat="45.417" lon="7.03094">
        <ele>2759.3</ele>
        <time>2020-08-08T10:45:23Z</time>
      </trkpt>
      <trkpt lat="45.417" lon="7.03095">
        <ele>2759.3</ele>
        <time>2020-08-08T10:45:24Z</time>
      </trkpt>
      <trkpt lat="45.417" lon="7.03095">
        <ele>2759.3</ele>
        <time>2020-08-08T10:45:25Z</time>
      </trkpt>
      <trkpt lat="45.417" lon="7.03095">
        <ele>2759.3</ele>
        <time>2020-08-08T10:45:26Z</time>
      </trkpt>
      <trkpt lat="45.417" lon="7.03095">
        <ele>2759.3</ele>
        <time>2020-08-08T10:45:27Z</time>
      </trkpt>
      <trkpt lat="45.417" lon="7.03096">
        <ele>2759.3</ele>
        <time>2020-08-08T10:45:29Z</time>
      </trkpt>
      <trkpt lat="45.417" lon="7.03096">
        <ele>2759.3</ele>
        <time>2020-08-08T10:45:30Z</time>
      </trkpt>
      <trkpt lat="45.417" lon="7.03096">
        <ele>2759.3</ele>
        <time>2020-08-08T10:45:31Z</time>
      </trkpt>
      <trkpt lat="45.417" lon="7.03096">
        <ele>2759.3</ele>
        <time>2020-08-08T10:45:33Z</time>
      </trkpt>
      <trkpt lat="45.417" lon="7.03096">
        <ele>2759.3</ele>
        <time>2020-08-08T10:45:35Z</time>
      </trkpt>
      <trkpt lat="45.417" lon="7.03096">
        <ele>2759.3</ele>
        <time>2020-08-08T10:45:37Z</time>
      </trkpt>
      <trkpt lat="45.417" lon="7.03096">
        <ele>2759.3</ele>
        <time>2020-08-08T10:45:39Z</time>
      </trkpt>
      <trkpt lat="45.417" lon="7.03097">
        <ele>2759.3</ele>
        <time>2020-08-08T10:45:41Z</time>
      </trkpt>
      <trkpt lat="45.41701" lon="7.03095">
        <ele>2759.3</ele>
        <time>2020-08-08T10:45:43Z</time>
      </trkpt>
      <trkpt lat="45.41701" lon="7.03094">
        <ele>2759.3</ele>
        <time>2020-08-08T10:45:45Z</time>
      </trkpt>
      <trkpt lat="45.41701" lon="7.03094">
        <ele>2759.3</ele>
        <time>2020-08-08T10:45:47Z</time>
      </trkpt>
      <trkpt lat="45.41701" lon="7.03094">
        <ele>2759.3</ele>
        <time>2020-08-08T10:45:48Z</time>
      </trkpt>
      <trkpt lat="45.41701" lon="7.03093">
        <ele>2759.3</ele>
        <time>2020-08-08T10:45:49Z</time>
      </trkpt>
      <trkpt lat="45.41701" lon="7.03092">
        <ele>2759.3</ele>
        <time>2020-08-08T10:45:50Z</time>
      </trkpt>
      <trkpt lat="45.41701" lon="7.03091">
        <ele>2759.3</ele>
        <time>2020-08-08T10:45:52Z</time>
      </trkpt>
      <trkpt lat="45.41701" lon="7.03091">
        <ele>2759.3</ele>
        <time>2020-08-08T10:45:54Z</time>
      </trkpt>
      <trkpt lat="45.41701" lon="7.03091">
        <ele>2759.3</ele>
        <time>2020-08-08T10:45:55Z</time>
      </trkpt>
      <trkpt lat="45.41701" lon="7.0309">
        <ele>2759.3</ele>
        <time>2020-08-08T10:45:57Z</time>
      </trkpt>
      <trkpt lat="45.41701" lon="7.0309">
        <ele>2759.3</ele>
        <time>2020-08-08T10:45:58Z</time>
      </trkpt>
      <trkpt lat="45.41701" lon="7.03089">
        <ele>2759.3</ele>
        <time>2020-08-08T10:46:01Z</time>
      </trkpt>
      <trkpt lat="45.41702" lon="7.0309">
        <ele>2759.3</ele>
        <time>2020-08-08T10:46:03Z</time>
      </trkpt>
      <trkpt lat="45.41702" lon="7.0309">
        <ele>2759.3</ele>
        <time>2020-08-08T10:46:04Z</time>
      </trkpt>
      <trkpt lat="45.41702" lon="7.0309">
        <ele>2759.3</ele>
        <time>2020-08-08T10:46:05Z</time>
      </trkpt>
      <trkpt lat="45.41702" lon="7.0309">
        <ele>2759.3</ele>
        <time>2020-08-08T10:46:06Z</time>
      </trkpt>
      <trkpt lat="45.41704" lon="7.03094">
        <ele>2759.3</ele>
        <time>2020-08-08T10:58:14Z</time>
      </trkpt>
      <trkpt lat="45.41708" lon="7.03091">
        <ele>2759.2</ele>
        <time>2020-08-08T10:58:16Z</time>
      </trkpt>
      <trkpt lat="45.4171" lon="7.03088">
        <ele>2759.2</ele>
        <time>2020-08-08T10:58:17Z</time>
      </trkpt>
      <trkpt lat="45.41713" lon="7.03085">
        <ele>2759.2</ele>
        <time>2020-08-08T10:58:18Z</time>
      </trkpt>
      <trkpt lat="45.41714" lon="7.03084">
        <ele>2759.1</ele>
        <time>2020-08-08T10:58:19Z</time>
      </trkpt>
      <trkpt lat="45.41713" lon="7.03082">
        <ele>2759.1</ele>
        <time>2020-08-08T10:58:20Z</time>
      </trkpt>
      <trkpt lat="45.41716" lon="7.03077">
        <ele>2758.9</ele>
        <time>2020-08-08T10:58:23Z</time>
      </trkpt>
      <trkpt lat="45.41718" lon="7.03075">
        <ele>2758.8</ele>
        <time>2020-08-08T10:58:24Z</time>
      </trkpt>
      <trkpt lat="45.41727" lon="7.03069">
        <ele>2758</ele>
        <time>2020-08-08T10:58:25Z</time>
      </trkpt>
      <trkpt lat="45.41731" lon="7.03066">
        <ele>2757.5</ele>
        <time>2020-08-08T10:58:27Z</time>
      </trkpt>
      <trkpt lat="45.41739" lon="7.03063">
        <ele>2756.6</ele>
        <time>2020-08-08T10:58:29Z</time>
      </trkpt>
      <trkpt lat="45.41745" lon="7.03061">
        <ele>2755.9</ele>
        <time>2020-08-08T10:58:30Z</time>
      </trkpt>
      <trkpt lat="45.41758" lon="7.03057">
        <ele>2754.2</ele>
        <time>2020-08-08T10:58:32Z</time>
      </trkpt>
      <trkpt lat="45.41765" lon="7.03055">
        <ele>2753.3</ele>
        <time>2020-08-08T10:58:33Z</time>
      </trkpt>
      <trkpt lat="45.41778" lon="7.03052">
        <ele>2752.3</ele>
        <time>2020-08-08T10:58:35Z</time>
      </trkpt>
      <trkpt lat="45.4179" lon="7.0305">
        <ele>2751.2</ele>
        <time>2020-08-08T10:58:37Z</time>
      </trkpt>
      <trkpt lat="45.41796" lon="7.03048">
        <ele>2750.7</ele>
        <time>2020-08-08T10:58:38Z</time>
      </trkpt>
      <trkpt lat="45.41809" lon="7.03043">
        <ele>2749.5</ele>
        <time>2020-08-08T10:58:40Z</time>
      </trkpt>
      <trkpt lat="45.41823" lon="7.03033">
        <ele>2748.1</ele>
        <time>2020-08-08T10:58:42Z</time>
      </trkpt>
      <trkpt lat="45.41835" lon="7.03016">
        <ele>2746.7</ele>
        <time>2020-08-08T10:58:44Z</time>
      </trkpt>
      <trkpt lat="45.41842" lon="7.03007">
        <ele>2746</ele>
        <time>2020-08-08T10:58:45Z</time>
      </trkpt>
      <trkpt lat="45.41848" lon="7.02997">
        <ele>2745.3</ele>
        <time>2020-08-08T10:58:46Z</time>
      </trkpt>
      <trkpt lat="45.41862" lon="7.0298">
        <ele>2743.9</ele>
        <time>2020-08-08T10:58:48Z</time>
      </trkpt>
      <trkpt lat="45.41878" lon="7.0297">
        <ele>2742.5</ele>
        <time>2020-08-08T10:58:50Z</time>
      </trkpt>
      <trkpt lat="45.41896" lon="7.02973">
        <ele>2740.7</ele>
        <time>2020-08-08T10:58:52Z</time>
      </trkpt>
      <trkpt lat="45.4191" lon="7.02987">
        <ele>2738.8</ele>
        <time>2020-08-08T10:58:54Z</time>
      </trkpt>
      <trkpt lat="45.41914" lon="7.02997">
        <ele>2738.3</ele>
        <time>2020-08-08T10:58:55Z</time>
      </trkpt>
      <trkpt lat="45.4192" lon="7.03013">
        <ele>2738.2</ele>
        <time>2020-08-08T10:58:57Z</time>
      </trkpt>
      <trkpt lat="45.41925" lon="7.03018">
        <ele>2738.2</ele>
        <time>2020-08-08T10:58:58Z</time>
      </trkpt>
      <trkpt lat="45.41936" lon="7.03016">
        <ele>2737.8</ele>
        <time>2020-08-08T10:59:00Z</time>
      </trkpt>
      <trkpt lat="45.41939" lon="7.03008">
        <ele>2737.6</ele>
        <time>2020-08-08T10:59:01Z</time>
      </trkpt>
      <trkpt lat="45.41935" lon="7.02988">
        <ele>2737</ele>
        <time>2020-08-08T10:59:03Z</time>
      </trkpt>
      <trkpt lat="45.41932" lon="7.02979">
        <ele>2736.5</ele>
        <time>2020-08-08T10:59:04Z</time>
      </trkpt>
      <trkpt lat="45.41925" lon="7.02959">
        <ele>2734.8</ele>
        <time>2020-08-08T10:59:06Z</time>
      </trkpt>
      <trkpt lat="45.41921" lon="7.02949">
        <ele>2733.8</ele>
        <time>2020-08-08T10:59:07Z</time>
      </trkpt>
      <trkpt lat="45.41916" lon="7.02937">
        <ele>2732.8</ele>
        <time>2020-08-08T10:59:08Z</time>
      </trkpt>
      <trkpt lat="45.41906" lon="7.02916">
        <ele>2731.1</ele>
        <time>2020-08-08T10:59:10Z</time>
      </trkpt>
      <trkpt lat="45.41893" lon="7.02904">
        <ele>2730</ele>
        <time>2020-08-08T10:59:12Z</time>
      </trkpt>
      <trkpt lat="45.41878" lon="7.02902">
        <ele>2729.1</ele>
        <time>2020-08-08T10:59:14Z</time>
      </trkpt>
      <trkpt lat="45.41873" lon="7.02899">
        <ele>2728.7</ele>
        <time>2020-08-08T10:59:15Z</time>
      </trkpt>
      <trkpt lat="45.4187" lon="7.02893">
        <ele>2728.4</ele>
        <time>2020-08-08T10:59:16Z</time>
      </trkpt>
      <trkpt lat="45.41869" lon="7.02885">
        <ele>2728</ele>
        <time>2020-08-08T10:59:17Z</time>
      </trkpt>
      <trkpt lat="45.41877" lon="7.02873">
        <ele>2726.9</ele>
        <time>2020-08-08T10:59:19Z</time>
      </trkpt>
      <trkpt lat="45.41888" lon="7.02873">
        <ele>2725.7</ele>
        <time>2020-08-08T10:59:21Z</time>
      </trkpt>
      <trkpt lat="45.41895" lon="7.02874">
        <ele>2725</ele>
        <time>2020-08-08T10:59:22Z</time>
      </trkpt>
      <trkpt lat="45.41909" lon="7.02876">
        <ele>2723.3</ele>
        <time>2020-08-08T10:59:24Z</time>
      </trkpt>
      <trkpt lat="45.41925" lon="7.02878">
        <ele>2721.4</ele>
        <time>2020-08-08T10:59:26Z</time>
      </trkpt>
      <trkpt lat="45.41942" lon="7.0288">
        <ele>2719.4</ele>
        <time>2020-08-08T10:59:28Z</time>
      </trkpt>
      <trkpt lat="45.41955" lon="7.02881">
        <ele>2717.8</ele>
        <time>2020-08-08T10:59:30Z</time>
      </trkpt>
      <trkpt lat="45.41962" lon="7.02882">
        <ele>2717.1</ele>
        <time>2020-08-08T10:59:31Z</time>
      </trkpt>
      <trkpt lat="45.41969" lon="7.02883">
        <ele>2716.4</ele>
        <time>2020-08-08T10:59:32Z</time>
      </trkpt>
      <trkpt lat="45.41976" lon="7.02884">
        <ele>2715.6</ele>
        <time>2020-08-08T10:59:33Z</time>
      </trkpt>
      <trkpt lat="45.41991" lon="7.02886">
        <ele>2714.2</ele>
        <time>2020-08-08T10:59:35Z</time>
      </trkpt>
      <trkpt lat="45.42004" lon="7.02886">
        <ele>2713.1</ele>
        <time>2020-08-08T10:59:37Z</time>
      </trkpt>
      <trkpt lat="45.4201" lon="7.02885">
        <ele>2712.7</ele>
        <time>2020-08-08T10:59:38Z</time>
      </trkpt>
      <trkpt lat="45.4202" lon="7.0288">
        <ele>2711.8</ele>
        <time>2020-08-08T10:59:40Z</time>
      </trkpt>
      <trkpt lat="45.4203" lon="7.02872">
        <ele>2711.3</ele>
        <time>2020-08-08T10:59:42Z</time>
      </trkpt>
      <trkpt lat="45.42036" lon="7.02866">
        <ele>2711</ele>
        <time>2020-08-08T10:59:43Z</time>
      </trkpt>
      <trkpt lat="45.42041" lon="7.02859">
        <ele>2710.5</ele>
        <time>2020-08-08T10:59:44Z</time>
      </trkpt>
      <trkpt lat="45.42045" lon="7.02851">
        <ele>2710</ele>
        <time>2020-08-08T10:59:45Z</time>
      </trkpt>
      <trkpt lat="45.42053" lon="7.02834">
        <ele>2708.9</ele>
        <time>2020-08-08T10:59:47Z</time>
      </trkpt>
      <trkpt lat="45.4206" lon="7.02814">
        <ele>2707.8</ele>
        <time>2020-08-08T10:59:49Z</time>
      </trkpt>
      <trkpt lat="45.42063" lon="7.02805">
        <ele>2707.3</ele>
        <time>2020-08-08T10:59:50Z</time>
      </trkpt>
      <trkpt lat="45.42067" lon="7.02795">
        <ele>2706.7</ele>
        <time>2020-08-08T10:59:51Z</time>
      </trkpt>
      <trkpt lat="45.4207" lon="7.02786">
        <ele>2706.3</ele>
        <time>2020-08-08T10:59:52Z</time>
      </trkpt>
      <trkpt lat="45.42076" lon="7.02771">
        <ele>2705.5</ele>
        <time>2020-08-08T10:59:54Z</time>
      </trkpt>
      <trkpt lat="45.4208" lon="7.02763">
        <ele>2705.2</ele>
        <time>2020-08-08T10:59:55Z</time>
      </trkpt>
      <trkpt lat="45.42084" lon="7.02755">
        <ele>2704.8</ele>
        <time>2020-08-08T10:59:56Z</time>
      </trkpt>
      <trkpt lat="45.42089" lon="7.02749">
        <ele>2704.4</ele>
        <time>2020-08-08T10:59:57Z</time>
      </trkpt>
      <trkpt lat="45.42095" lon="7.02746">
        <ele>2704</ele>
        <time>2020-08-08T10:59:58Z</time>
      </trkpt>
      <trkpt lat="45.42109" lon="7.02748">
        <ele>2703</ele>
        <time>2020-08-08T11:00:00Z</time>
      </trkpt>
      <trkpt lat="45.42116" lon="7.02752">
        <ele>2702.5</ele>
        <time>2020-08-08T11:00:01Z</time>
      </trkpt>
      <trkpt lat="45.42127" lon="7.02766">
        <ele>2701.3</ele>
        <time>2020-08-08T11:00:03Z</time>
      </trkpt>
      <trkpt lat="45.42138" lon="7.0278">
        <ele>2699.9</ele>
        <time>2020-08-08T11:00:05Z</time>
      </trkpt>
      <trkpt lat="45.42148" lon="7.02794">
        <ele>2698.5</ele>
        <time>2020-08-08T11:00:07Z</time>
      </trkpt>
      <trkpt lat="45.42154" lon="7.02801">
        <ele>2697.8</ele>
        <time>2020-08-08T11:00:08Z</time>
      </trkpt>
      <trkpt lat="45.42159" lon="7.02808">
        <ele>2697.1</ele>
        <time>2020-08-08T11:00:09Z</time>
      </trkpt>
      <trkpt lat="45.4217" lon="7.02822">
        <ele>2695.8</ele>
        <time>2020-08-08T11:00:11Z</time>
      </trkpt>
      <trkpt lat="45.42176" lon="7.0283">
        <ele>2695.1</ele>
        <time>2020-08-08T11:00:12Z</time>
      </trkpt>
      <trkpt lat="45.42187" lon="7.02845">
        <ele>2693.7</ele>
        <time>2020-08-08T11:00:14Z</time>
      </trkpt>
      <trkpt lat="45.42197" lon="7.02859">
        <ele>2692.2</ele>
        <time>2020-08-08T11:00:16Z</time>
      </trkpt>
      <trkpt lat="45.42208" lon="7.02873">
        <ele>2690.7</ele>
        <time>2020-08-08T11:00:18Z</time>
      </trkpt>
      <trkpt lat="45.42221" lon="7.02882">
        <ele>2689.2</ele>
        <time>2020-08-08T11:00:20Z</time>
      </trkpt>
      <trkpt lat="45.42227" lon="7.02883">
        <ele>2688.5</ele>
        <time>2020-08-08T11:00:21Z</time>
      </trkpt>
      <trkpt lat="45.42234" lon="7.02883">
        <ele>2687.7</ele>
        <time>2020-08-08T11:00:22Z</time>
      </trkpt>
      <trkpt lat="45.42242" lon="7.0288">
        <ele>2686.8</ele>
        <time>2020-08-08T11:00:23Z</time>
      </trkpt>
      <trkpt lat="45.42256" lon="7.02867">
        <ele>2685</ele>
        <time>2020-08-08T11:00:25Z</time>
      </trkpt>
      <trkpt lat="45.42263" lon="7.02858">
        <ele>2684.1</ele>
        <time>2020-08-08T11:00:26Z</time>
      </trkpt>
      <trkpt lat="45.42275" lon="7.02838">
        <ele>2682.2</ele>
        <time>2020-08-08T11:00:28Z</time>
      </trkpt>
      <trkpt lat="45.42281" lon="7.02828">
        <ele>2681.2</ele>
        <time>2020-08-08T11:00:29Z</time>
      </trkpt>
      <trkpt lat="45.42287" lon="7.02818">
        <ele>2680.2</ele>
        <time>2020-08-08T11:00:30Z</time>
      </trkpt>
      <trkpt lat="45.42301" lon="7.02797">
        <ele>2678.1</ele>
        <time>2020-08-08T11:00:32Z</time>
      </trkpt>
      <trkpt lat="45.42313" lon="7.02775">
        <ele>2676.1</ele>
        <time>2020-08-08T11:00:34Z</time>
      </trkpt>
      <trkpt lat="45.42319" lon="7.02761">
        <ele>2675</ele>
        <time>2020-08-08T11:00:35Z</time>
      </trkpt>
      <trkpt lat="45.4233" lon="7.02735">
        <ele>2672.7</ele>
        <time>2020-08-08T11:00:37Z</time>
      </trkpt>
      <trkpt lat="45.42335" lon="7.02723">
        <ele>2671.7</ele>
        <time>2020-08-08T11:00:38Z</time>
      </trkpt>
      <trkpt lat="45.42343" lon="7.02701">
        <ele>2669.8</ele>
        <time>2020-08-08T11:00:40Z</time>
      </trkpt>
      <trkpt lat="45.42346" lon="7.02688">
        <ele>2668.8</ele>
        <time>2020-08-08T11:00:41Z</time>
      </trkpt>
      <trkpt lat="45.42345" lon="7.02659">
        <ele>2666.8</ele>
        <time>2020-08-08T11:00:43Z</time>
      </trkpt>
      <trkpt lat="45.42342" lon="7.02643">
        <ele>2665.8</ele>
        <time>2020-08-08T11:00:44Z</time>
      </trkpt>
      <trkpt lat="45.42339" lon="7.02609">
        <ele>2663.5</ele>
        <time>2020-08-08T11:00:46Z</time>
      </trkpt>
      <trkpt lat="45.42348" lon="7.02575">
        <ele>2661</ele>
        <time>2020-08-08T11:00:48Z</time>
      </trkpt>
      <trkpt lat="45.4236" lon="7.02542">
        <ele>2658.8</ele>
        <time>2020-08-08T11:00:50Z</time>
      </trkpt>
      <trkpt lat="45.42364" lon="7.02525">
        <ele>2657.7</ele>
        <time>2020-08-08T11:00:51Z</time>
      </trkpt>
      <trkpt lat="45.42369" lon="7.02508">
        <ele>2656.8</ele>
        <time>2020-08-08T11:00:52Z</time>
      </trkpt>
      <trkpt lat="45.42372" lon="7.02474">
        <ele>2655</ele>
        <time>2020-08-08T11:00:54Z</time>
      </trkpt>
      <trkpt lat="45.4237" lon="7.02457">
        <ele>2654.2</ele>
        <time>2020-08-08T11:00:55Z</time>
      </trkpt>
      <trkpt lat="45.42365" lon="7.02422">
        <ele>2652.5</ele>
        <time>2020-08-08T11:00:57Z</time>
      </trkpt>
      <trkpt lat="45.42362" lon="7.02404">
        <ele>2651.6</ele>
        <time>2020-08-08T11:00:58Z</time>
      </trkpt>
      <trkpt lat="45.4236" lon="7.02387">
        <ele>2650.7</ele>
        <time>2020-08-08T11:00:59Z</time>
      </trkpt>
      <trkpt lat="45.42358" lon="7.0237">
        <ele>2649.8</ele>
        <time>2020-08-08T11:01:00Z</time>
      </trkpt>
      <trkpt lat="45.42363" lon="7.02336">
        <ele>2648</ele>
        <time>2020-08-08T11:01:02Z</time>
      </trkpt>
      <trkpt lat="45.4237" lon="7.0232">
        <ele>2647.1</ele>
        <time>2020-08-08T11:01:03Z</time>
      </trkpt>
      <trkpt lat="45.42392" lon="7.02298">
        <ele>2645</ele>
        <time>2020-08-08T11:01:05Z</time>
      </trkpt>
      <trkpt lat="45.42416" lon="7.02287">
        <ele>2642.9</ele>
        <time>2020-08-08T11:01:07Z</time>
      </trkpt>
      <trkpt lat="45.42428" lon="7.02284">
        <ele>2641.8</ele>
        <time>2020-08-08T11:01:08Z</time>
      </trkpt>
      <trkpt lat="45.42454" lon="7.02281">
        <ele>2639.8</ele>
        <time>2020-08-08T11:01:10Z</time>
      </trkpt>
      <trkpt lat="45.42467" lon="7.02279">
        <ele>2638.8</ele>
        <time>2020-08-08T11:01:11Z</time>
      </trkpt>
      <trkpt lat="45.42481" lon="7.02278">
        <ele>2638</ele>
        <time>2020-08-08T11:01:12Z</time>
      </trkpt>
      <trkpt lat="45.42495" lon="7.02275">
        <ele>2637.1</ele>
        <time>2020-08-08T11:01:13Z</time>
      </trkpt>
      <trkpt lat="45.42522" lon="7.02273">
        <ele>2635.2</ele>
        <time>2020-08-08T11:01:15Z</time>
      </trkpt>
      <trkpt lat="45.42551" lon="7.02275">
        <ele>2633.1</ele>
        <time>2020-08-08T11:01:17Z</time>
      </trkpt>
      <trkpt lat="45.42577" lon="7.02276">
        <ele>2631.2</ele>
        <time>2020-08-08T11:01:19Z</time>
      </trkpt>
      <trkpt lat="45.42588" lon="7.02275">
        <ele>2630.2</ele>
        <time>2020-08-08T11:01:20Z</time>
      </trkpt>
      <trkpt lat="45.42611" lon="7.02268">
        <ele>2628.2</ele>
        <time>2020-08-08T11:01:22Z</time>
      </trkpt>
      <trkpt lat="45.42622" lon="7.02261">
        <ele>2627.1</ele>
        <time>2020-08-08T11:01:23Z</time>
      </trkpt>
      <trkpt lat="45.42633" lon="7.02252">
        <ele>2626</ele>
        <time>2020-08-08T11:01:24Z</time>
      </trkpt>
      <trkpt lat="45.42655" lon="7.02231">
        <ele>2623.6</ele>
        <time>2020-08-08T11:01:26Z</time>
      </trkpt>
      <trkpt lat="45.42666" lon="7.02221">
        <ele>2622.6</ele>
        <time>2020-08-08T11:01:27Z</time>
      </trkpt>
      <trkpt lat="45.42692" lon="7.02207">
        <ele>2620.7</ele>
        <time>2020-08-08T11:01:29Z</time>
      </trkpt>
      <trkpt lat="45.42705" lon="7.02201">
        <ele>2619.7</ele>
        <time>2020-08-08T11:01:30Z</time>
      </trkpt>
      <trkpt lat="45.42732" lon="7.02189">
        <ele>2617.9</ele>
        <time>2020-08-08T11:01:32Z</time>
      </trkpt>
      <trkpt lat="45.42745" lon="7.02183">
        <ele>2617.2</ele>
        <time>2020-08-08T11:01:33Z</time>
      </trkpt>
      <trkpt lat="45.42759" lon="7.02177">
        <ele>2616.6</ele>
        <time>2020-08-08T11:01:34Z</time>
      </trkpt>
      <trkpt lat="45.42785" lon="7.02167">
        <ele>2615.1</ele>
        <time>2020-08-08T11:01:36Z</time>
      </trkpt>
      <trkpt lat="45.42811" lon="7.02156">
        <ele>2613.2</ele>
        <time>2020-08-08T11:01:38Z</time>
      </trkpt>
      <trkpt lat="45.42836" lon="7.02144">
        <ele>2610.8</ele>
        <time>2020-08-08T11:01:40Z</time>
      </trkpt>
      <trkpt lat="45.42849" lon="7.02139">
        <ele>2609.5</ele>
        <time>2020-08-08T11:01:41Z</time>
      </trkpt>
      <trkpt lat="45.42861" lon="7.02134">
        <ele>2608.4</ele>
        <time>2020-08-08T11:01:42Z</time>
      </trkpt>
      <trkpt lat="45.42879" lon="7.02124">
        <ele>2606.6</ele>
        <time>2020-08-08T11:01:44Z</time>
      </trkpt>
      <trkpt lat="45.42887" lon="7.02117">
        <ele>2605.7</ele>
        <time>2020-08-08T11:01:45Z</time>
      </trkpt>
      <trkpt lat="45.42902" lon="7.02098">
        <ele>2603.8</ele>
        <time>2020-08-08T11:01:47Z</time>
      </trkpt>
      <trkpt lat="45.42918" lon="7.02076">
        <ele>2601.9</ele>
        <time>2020-08-08T11:01:49Z</time>
      </trkpt>
      <trkpt lat="45.42934" lon="7.02053">
        <ele>2600.2</ele>
        <time>2020-08-08T11:01:51Z</time>
      </trkpt>
      <trkpt lat="45.42951" lon="7.02032">
        <ele>2598.7</ele>
        <time>2020-08-08T11:01:53Z</time>
      </trkpt>
      <trkpt lat="45.42967" lon="7.02012">
        <ele>2597.2</ele>
        <time>2020-08-08T11:01:55Z</time>
      </trkpt>
      <trkpt lat="45.42983" lon="7.01991">
        <ele>2595.6</ele>
        <time>2020-08-08T11:01:57Z</time>
      </trkpt>
      <trkpt lat="45.42992" lon="7.01981">
        <ele>2594.7</ele>
        <time>2020-08-08T11:01:58Z</time>
      </trkpt>
      <trkpt lat="45.43009" lon="7.01962">
        <ele>2592.7</ele>
        <time>2020-08-08T11:02:00Z</time>
      </trkpt>
      <trkpt lat="45.43018" lon="7.01953">
        <ele>2591.6</ele>
        <time>2020-08-08T11:02:01Z</time>
      </trkpt>
      <trkpt lat="45.43035" lon="7.01934">
        <ele>2589.8</ele>
        <time>2020-08-08T11:02:03Z</time>
      </trkpt>
      <trkpt lat="45.43043" lon="7.01923">
        <ele>2588.9</ele>
        <time>2020-08-08T11:02:04Z</time>
      </trkpt>
      <trkpt lat="45.43051" lon="7.01914">
        <ele>2588.1</ele>
        <time>2020-08-08T11:02:05Z</time>
      </trkpt>
      <trkpt lat="45.43069" lon="7.01897">
        <ele>2586.5</ele>
        <time>2020-08-08T11:02:07Z</time>
      </trkpt>
      <trkpt lat="45.43079" lon="7.01891">
        <ele>2585.7</ele>
        <time>2020-08-08T11:02:08Z</time>
      </trkpt>
      <trkpt lat="45.43101" lon="7.01879">
        <ele>2584</ele>
        <time>2020-08-08T11:02:10Z</time>
      </trkpt>
      <trkpt lat="45.43124" lon="7.01868">
        <ele>2582.3</ele>
        <time>2020-08-08T11:02:12Z</time>
      </trkpt>
      <trkpt lat="45.43134" lon="7.01861">
        <ele>2581.5</ele>
        <time>2020-08-08T11:02:13Z</time>
      </trkpt>
      <trkpt lat="45.43143" lon="7.01855">
        <ele>2580.8</ele>
        <time>2020-08-08T11:02:14Z</time>
      </trkpt>
      <trkpt lat="45.43152" lon="7.01848">
        <ele>2580.1</ele>
        <time>2020-08-08T11:02:15Z</time>
      </trkpt>
      <trkpt lat="45.43158" lon="7.01842">
        <ele>2579.6</ele>
        <time>2020-08-08T11:02:16Z</time>
      </trkpt>
      <trkpt lat="45.43175" lon="7.0183">
        <ele>2578.3</ele>
        <time>2020-08-08T11:02:18Z</time>
      </trkpt>
      <trkpt lat="45.43192" lon="7.01816">
        <ele>2576.9</ele>
        <time>2020-08-08T11:02:20Z</time>
      </trkpt>
      <trkpt lat="45.432" lon="7.01807">
        <ele>2576.3</ele>
        <time>2020-08-08T11:02:21Z</time>
      </trkpt>
      <trkpt lat="45.43208" lon="7.01798">
        <ele>2575.6</ele>
        <time>2020-08-08T11:02:22Z</time>
      </trkpt>
      <trkpt lat="45.43225" lon="7.01782">
        <ele>2574.3</ele>
        <time>2020-08-08T11:02:24Z</time>
      </trkpt>
      <trkpt lat="45.43243" lon="7.01766">
        <ele>2572.9</ele>
        <time>2020-08-08T11:02:26Z</time>
      </trkpt>
      <trkpt lat="45.43262" lon="7.01749">
        <ele>2571.3</ele>
        <time>2020-08-08T11:02:28Z</time>
      </trkpt>
      <trkpt lat="45.43271" lon="7.0174">
        <ele>2570.3</ele>
        <time>2020-08-08T11:02:29Z</time>
      </trkpt>
      <trkpt lat="45.43289" lon="7.0172">
        <ele>2568.6</ele>
        <time>2020-08-08T11:02:31Z</time>
      </trkpt>
      <trkpt lat="45.43297" lon="7.01709">
        <ele>2567.7</ele>
        <time>2020-08-08T11:02:32Z</time>
      </trkpt>
      <trkpt lat="45.4331" lon="7.01681">
        <ele>2565.8</ele>
        <time>2020-08-08T11:02:34Z</time>
      </trkpt>
      <trkpt lat="45.43322" lon="7.01654">
        <ele>2564.2</ele>
        <time>2020-08-08T11:02:36Z</time>
      </trkpt>
      <trkpt lat="45.43335" lon="7.01627">
        <ele>2562.6</ele>
        <time>2020-08-08T11:02:38Z</time>
      </trkpt>
      <trkpt lat="45.43346" lon="7.01602">
        <ele>2561.1</ele>
        <time>2020-08-08T11:02:40Z</time>
      </trkpt>
      <trkpt lat="45.43352" lon="7.01589">
        <ele>2560.4</ele>
        <time>2020-08-08T11:02:41Z</time>
      </trkpt>
      <trkpt lat="45.43365" lon="7.01562">
        <ele>2559</ele>
        <time>2020-08-08T11:02:43Z</time>
      </trkpt>
      <trkpt lat="45.43371" lon="7.01547">
        <ele>2558.2</ele>
        <time>2020-08-08T11:02:44Z</time>
      </trkpt>
      <trkpt lat="45.43378" lon="7.01534">
        <ele>2557.5</ele>
        <time>2020-08-08T11:02:45Z</time>
      </trkpt>
      <trkpt lat="45.43386" lon="7.01522">
        <ele>2556.9</ele>
        <time>2020-08-08T11:02:46Z</time>
      </trkpt>
      <trkpt lat="45.43395" lon="7.01513">
        <ele>2556.2</ele>
        <time>2020-08-08T11:02:47Z</time>
      </trkpt>
      <trkpt lat="45.43415" lon="7.01499">
        <ele>2554.8</ele>
        <time>2020-08-08T11:02:49Z</time>
      </trkpt>
      <trkpt lat="45.43425" lon="7.01492">
        <ele>2554.1</ele>
        <time>2020-08-08T11:02:50Z</time>
      </trkpt>
      <trkpt lat="45.43434" lon="7.01485">
        <ele>2553.4</ele>
        <time>2020-08-08T11:02:51Z</time>
      </trkpt>
      <trkpt lat="45.43444" lon="7.01478">
        <ele>2552.7</ele>
        <time>2020-08-08T11:02:52Z</time>
      </trkpt>
      <trkpt lat="45.43462" lon="7.01466">
        <ele>2551.5</ele>
        <time>2020-08-08T11:02:54Z</time>
      </trkpt>
      <trkpt lat="45.43471" lon="7.0146">
        <ele>2550.9</ele>
        <time>2020-08-08T11:02:55Z</time>
      </trkpt>
      <trkpt lat="45.4349" lon="7.01448">
        <ele>2549.7</ele>
        <time>2020-08-08T11:02:57Z</time>
      </trkpt>
      <trkpt lat="45.43499" lon="7.0144">
        <ele>2549.1</ele>
        <time>2020-08-08T11:02:58Z</time>
      </trkpt>
      <trkpt lat="45.43508" lon="7.01433">
        <ele>2548.5</ele>
        <time>2020-08-08T11:02:59Z</time>
      </trkpt>
      <trkpt lat="45.43524" lon="7.01415">
        <ele>2547.3</ele>
        <time>2020-08-08T11:03:01Z</time>
      </trkpt>
      <trkpt lat="45.43539" lon="7.01395">
        <ele>2546.2</ele>
        <time>2020-08-08T11:03:03Z</time>
      </trkpt>
      <trkpt lat="45.43548" lon="7.01387">
        <ele>2545.6</ele>
        <time>2020-08-08T11:03:04Z</time>
      </trkpt>
      <trkpt lat="45.43569" lon="7.01385">
        <ele>2544.2</ele>
        <time>2020-08-08T11:03:06Z</time>
      </trkpt>
      <trkpt lat="45.43579" lon="7.0139">
        <ele>2543.4</ele>
        <time>2020-08-08T11:03:07Z</time>
      </trkpt>
      <trkpt lat="45.43589" lon="7.01394">
        <ele>2542.6</ele>
        <time>2020-08-08T11:03:08Z</time>
      </trkpt>
      <trkpt lat="45.43608" lon="7.01392">
        <ele>2540.9</ele>
        <time>2020-08-08T11:03:10Z</time>
      </trkpt>
      <trkpt lat="45.43626" lon="7.01377">
        <ele>2539</ele>
        <time>2020-08-08T11:03:12Z</time>
      </trkpt>
      <trkpt lat="45.43634" lon="7.01365">
        <ele>2538</ele>
        <time>2020-08-08T11:03:13Z</time>
      </trkpt>
      <trkpt lat="45.43647" lon="7.01339">
        <ele>2536</ele>
        <time>2020-08-08T11:03:15Z</time>
      </trkpt>
      <trkpt lat="45.43655" lon="7.01328">
        <ele>2535.1</ele>
        <time>2020-08-08T11:03:16Z</time>
      </trkpt>
      <trkpt lat="45.43663" lon="7.01316">
        <ele>2534.1</ele>
        <time>2020-08-08T11:03:17Z</time>
      </trkpt>
      <trkpt lat="45.43671" lon="7.01305">
        <ele>2533</ele>
        <time>2020-08-08T11:03:18Z</time>
      </trkpt>
      <trkpt lat="45.4368" lon="7.01294">
        <ele>2531.9</ele>
        <time>2020-08-08T11:03:19Z</time>
      </trkpt>
      <trkpt lat="45.43698" lon="7.01271">
        <ele>2529.7</ele>
        <time>2020-08-08T11:03:21Z</time>
      </trkpt>
      <trkpt lat="45.43705" lon="7.0126">
        <ele>2528.6</ele>
        <time>2020-08-08T11:03:22Z</time>
      </trkpt>
      <trkpt lat="45.43714" lon="7.0123">
        <ele>2526.5</ele>
        <time>2020-08-08T11:03:24Z</time>
      </trkpt>
      <trkpt lat="45.43717" lon="7.01213">
        <ele>2525.3</ele>
        <time>2020-08-08T11:03:25Z</time>
      </trkpt>
      <trkpt lat="45.43728" lon="7.01183">
        <ele>2522.8</ele>
        <time>2020-08-08T11:03:27Z</time>
      </trkpt>
      <trkpt lat="45.43743" lon="7.01157">
        <ele>2520.4</ele>
        <time>2020-08-08T11:03:29Z</time>
      </trkpt>
      <trkpt lat="45.4375" lon="7.01142">
        <ele>2519.1</ele>
        <time>2020-08-08T11:03:30Z</time>
      </trkpt>
      <trkpt lat="45.43756" lon="7.01126">
        <ele>2517.8</ele>
        <time>2020-08-08T11:03:31Z</time>
      </trkpt>
      <trkpt lat="45.43769" lon="7.01093">
        <ele>2515.5</ele>
        <time>2020-08-08T11:03:33Z</time>
      </trkpt>
      <trkpt lat="45.43776" lon="7.01076">
        <ele>2514.6</ele>
        <time>2020-08-08T11:03:34Z</time>
      </trkpt>
      <trkpt lat="45.43782" lon="7.0106">
        <ele>2513.9</ele>
        <time>2020-08-08T11:03:35Z</time>
      </trkpt>
      <trkpt lat="45.43798" lon="7.01037">
        <ele>2512.5</ele>
        <time>2020-08-08T11:03:37Z</time>
      </trkpt>
      <trkpt lat="45.43808" lon="7.01032">
        <ele>2511.8</ele>
        <time>2020-08-08T11:03:38Z</time>
      </trkpt>
      <trkpt lat="45.43829" lon="7.01036">
        <ele>2510.5</ele>
        <time>2020-08-08T11:03:40Z</time>
      </trkpt>
      <trkpt lat="45.43843" lon="7.01052">
        <ele>2509.1</ele>
        <time>2020-08-08T11:03:42Z</time>
      </trkpt>
      <trkpt lat="45.43856" lon="7.01049">
        <ele>2507.9</ele>
        <time>2020-08-08T11:03:44Z</time>
      </trkpt>
      <trkpt lat="45.4386" lon="7.0104">
        <ele>2507.5</ele>
        <time>2020-08-08T11:03:45Z</time>
      </trkpt>
      <trkpt lat="45.43861" lon="7.01028">
        <ele>2507</ele>
        <time>2020-08-08T11:03:46Z</time>
      </trkpt>
      <trkpt lat="45.43855" lon="7.01004">
        <ele>2505.6</ele>
        <time>2020-08-08T11:03:48Z</time>
      </trkpt>
      <trkpt lat="45.43849" lon="7.00993">
        <ele>2504.9</ele>
        <time>2020-08-08T11:03:49Z</time>
      </trkpt>
      <trkpt lat="45.43838" lon="7.0097">
        <ele>2503.2</ele>
        <time>2020-08-08T11:03:51Z</time>
      </trkpt>
      <trkpt lat="45.43823" lon="7.00948">
        <ele>2501.5</ele>
        <time>2020-08-08T11:03:53Z</time>
      </trkpt>
      <trkpt lat="45.43814" lon="7.00938">
        <ele>2500.6</ele>
        <time>2020-08-08T11:03:54Z</time>
      </trkpt>
      <trkpt lat="45.43795" lon="7.00917">
        <ele>2499</ele>
        <time>2020-08-08T11:03:56Z</time>
      </trkpt>
      <trkpt lat="45.43776" lon="7.00897">
        <ele>2497.3</ele>
        <time>2020-08-08T11:03:58Z</time>
      </trkpt>
      <trkpt lat="45.43765" lon="7.00888">
        <ele>2496.5</ele>
        <time>2020-08-08T11:03:59Z</time>
      </trkpt>
      <trkpt lat="45.43745" lon="7.00869">
        <ele>2494.8</ele>
        <time>2020-08-08T11:04:01Z</time>
      </trkpt>
      <trkpt lat="45.43735" lon="7.0086">
        <ele>2494.1</ele>
        <time>2020-08-08T11:04:02Z</time>
      </trkpt>
      <trkpt lat="45.43714" lon="7.0084">
        <ele>2492.7</ele>
        <time>2020-08-08T11:04:04Z</time>
      </trkpt>
      <trkpt lat="45.43704" lon="7.00828">
        <ele>2492.2</ele>
        <time>2020-08-08T11:04:05Z</time>
      </trkpt>
      <trkpt lat="45.43686" lon="7.008">
        <ele>2491.4</ele>
        <time>2020-08-08T11:04:07Z</time>
      </trkpt>
      <trkpt lat="45.43679" lon="7.00785">
        <ele>2491.1</ele>
        <time>2020-08-08T11:04:08Z</time>
      </trkpt>
      <trkpt lat="45.43663" lon="7.00756">
        <ele>2490.7</ele>
        <time>2020-08-08T11:04:10Z</time>
      </trkpt>
      <trkpt lat="45.43656" lon="7.00744">
        <ele>2490.5</ele>
        <time>2020-08-08T11:04:11Z</time>
      </trkpt>
      <trkpt lat="45.43648" lon="7.00733">
        <ele>2490.3</ele>
        <time>2020-08-08T11:04:12Z</time>
      </trkpt>
      <trkpt lat="45.43632" lon="7.00709">
        <ele>2489.7</ele>
        <time>2020-08-08T11:04:14Z</time>
      </trkpt>
      <trkpt lat="45.43619" lon="7.00688">
        <ele>2488.8</ele>
        <time>2020-08-08T11:04:16Z</time>
      </trkpt>
      <trkpt lat="45.43613" lon="7.0068">
        <ele>2488.4</ele>
        <time>2020-08-08T11:04:17Z</time>
      </trkpt>
      <trkpt lat="45.43597" lon="7.00666">
        <ele>2487.3</ele>
        <time>2020-08-08T11:04:19Z</time>
      </trkpt>
      <trkpt lat="45.43587" lon="7.00661">
        <ele>2486.6</ele>
        <time>2020-08-08T11:04:20Z</time>
      </trkpt>
      <trkpt lat="45.43566" lon="7.0065">
        <ele>2485.1</ele>
        <time>2020-08-08T11:04:22Z</time>
      </trkpt>
      <trkpt lat="45.43547" lon="7.00629">
        <ele>2483.5</ele>
        <time>2020-08-08T11:04:24Z</time>
      </trkpt>
      <trkpt lat="45.43539" lon="7.00618">
        <ele>2482.7</ele>
        <time>2020-08-08T11:04:25Z</time>
      </trkpt>
      <trkpt lat="45.43529" lon="7.00611">
        <ele>2482.1</ele>
        <time>2020-08-08T11:04:26Z</time>
      </trkpt>
      <trkpt lat="45.43518" lon="7.00609">
        <ele>2481.4</ele>
        <time>2020-08-08T11:04:27Z</time>
      </trkpt>
      <trkpt lat="45.43506" lon="7.0061">
        <ele>2480.6</ele>
        <time>2020-08-08T11:04:28Z</time>
      </trkpt>
      <trkpt lat="45.43484" lon="7.00621">
        <ele>2479.2</ele>
        <time>2020-08-08T11:04:30Z</time>
      </trkpt>
      <trkpt lat="45.43464" lon="7.00623">
        <ele>2478.1</ele>
        <time>2020-08-08T11:04:32Z</time>
      </trkpt>
      <trkpt lat="45.43455" lon="7.00621">
        <ele>2477.6</ele>
        <time>2020-08-08T11:04:33Z</time>
      </trkpt>
      <trkpt lat="45.43445" lon="7.00617">
        <ele>2477.1</ele>
        <time>2020-08-08T11:04:35Z</time>
      </trkpt>
      <trkpt lat="45.43435" lon="7.00614">
        <ele>2476.7</ele>
        <time>2020-08-08T11:04:37Z</time>
      </trkpt>
      <trkpt lat="45.4343" lon="7.00613">
        <ele>2476.4</ele>
        <time>2020-08-08T11:04:38Z</time>
      </trkpt>
      <trkpt lat="45.43425" lon="7.00612">
        <ele>2476.2</ele>
        <time>2020-08-08T11:04:39Z</time>
      </trkpt>
      <trkpt lat="45.43421" lon="7.00609">
        <ele>2476</ele>
        <time>2020-08-08T11:04:40Z</time>
      </trkpt>
      <trkpt lat="45.4342" lon="7.00597">
        <ele>2475.6</ele>
        <time>2020-08-08T11:04:42Z</time>
      </trkpt>
      <trkpt lat="45.43425" lon="7.00591">
        <ele>2474.9</ele>
        <time>2020-08-08T11:04:43Z</time>
      </trkpt>
      <trkpt lat="45.43432" lon="7.0059">
        <ele>2474.3</ele>
        <time>2020-08-08T11:04:44Z</time>
      </trkpt>
      <trkpt lat="45.43446" lon="7.00595">
        <ele>2473.3</ele>
        <time>2020-08-08T11:04:46Z</time>
      </trkpt>
      <trkpt lat="45.43452" lon="7.00597">
        <ele>2472.8</ele>
        <time>2020-08-08T11:04:47Z</time>
      </trkpt>
      <trkpt lat="45.43459" lon="7.00599">
        <ele>2472.4</ele>
        <time>2020-08-08T11:04:48Z</time>
      </trkpt>
      <trkpt lat="45.43473" lon="7.00599">
        <ele>2471.5</ele>
        <time>2020-08-08T11:04:50Z</time>
      </trkpt>
      <trkpt lat="45.43481" lon="7.00597">
        <ele>2471.1</ele>
        <time>2020-08-08T11:04:51Z</time>
      </trkpt>
      <trkpt lat="45.43495" lon="7.0059">
        <ele>2470.2</ele>
        <time>2020-08-08T11:04:53Z</time>
      </trkpt>
      <trkpt lat="45.4351" lon="7.00582">
        <ele>2469.3</ele>
        <time>2020-08-08T11:04:55Z</time>
      </trkpt>
      <trkpt lat="45.43527" lon="7.00576">
        <ele>2468.4</ele>
        <time>2020-08-08T11:04:57Z</time>
      </trkpt>
      <trkpt lat="45.43535" lon="7.00574">
        <ele>2468</ele>
        <time>2020-08-08T11:04:58Z</time>
      </trkpt>
      <trkpt lat="45.43543" lon="7.00572">
        <ele>2467.5</ele>
        <time>2020-08-08T11:04:59Z</time>
      </trkpt>
      <trkpt lat="45.43552" lon="7.00571">
        <ele>2467</ele>
        <time>2020-08-08T11:05:00Z</time>
      </trkpt>
      <trkpt lat="45.43561" lon="7.00572">
        <ele>2466.4</ele>
        <time>2020-08-08T11:05:01Z</time>
      </trkpt>
      <trkpt lat="45.4358" lon="7.00582">
        <ele>2464.9</ele>
        <time>2020-08-08T11:05:03Z</time>
      </trkpt>
      <trkpt lat="45.4359" lon="7.00588">
        <ele>2464.1</ele>
        <time>2020-08-08T11:05:04Z</time>
      </trkpt>
      <trkpt lat="45.43599" lon="7.00594">
        <ele>2463.3</ele>
        <time>2020-08-08T11:05:05Z</time>
      </trkpt>
      <trkpt lat="45.43619" lon="7.00607">
        <ele>2461.5</ele>
        <time>2020-08-08T11:05:07Z</time>
      </trkpt>
      <trkpt lat="45.4364" lon="7.00619">
        <ele>2459.8</ele>
        <time>2020-08-08T11:05:09Z</time>
      </trkpt>
      <trkpt lat="45.4365" lon="7.00624">
        <ele>2459</ele>
        <time>2020-08-08T11:05:10Z</time>
      </trkpt>
      <trkpt lat="45.43661" lon="7.00627">
        <ele>2458.2</ele>
        <time>2020-08-08T11:05:11Z</time>
      </trkpt>
      <trkpt lat="45.43671" lon="7.00629">
        <ele>2457.5</ele>
        <time>2020-08-08T11:05:12Z</time>
      </trkpt>
      <trkpt lat="45.43688" lon="7.00638">
        <ele>2456.2</ele>
        <time>2020-08-08T11:05:14Z</time>
      </trkpt>
      <trkpt lat="45.43699" lon="7.00652">
        <ele>2455.5</ele>
        <time>2020-08-08T11:05:16Z</time>
      </trkpt>
      <trkpt lat="45.43704" lon="7.00657">
        <ele>2455.1</ele>
        <time>2020-08-08T11:05:17Z</time>
      </trkpt>
      <trkpt lat="45.43709" lon="7.00659">
        <ele>2454.8</ele>
        <time>2020-08-08T11:05:18Z</time>
      </trkpt>
      <trkpt lat="45.43716" lon="7.00655">
        <ele>2454.3</ele>
        <time>2020-08-08T11:05:20Z</time>
      </trkpt>
      <trkpt lat="45.4372" lon="7.00645">
        <ele>2453.8</ele>
        <time>2020-08-08T11:05:22Z</time>
      </trkpt>
      <trkpt lat="45.43719" lon="7.00637">
        <ele>2453.5</ele>
        <time>2020-08-08T11:05:24Z</time>
      </trkpt>
      <trkpt lat="45.43713" lon="7.00625">
        <ele>2453</ele>
        <time>2020-08-08T11:05:26Z</time>
      </trkpt>
      <trkpt lat="45.43709" lon="7.00623">
        <ele>2452.7</ele>
        <time>2020-08-08T11:05:28Z</time>
      </trkpt>
      <trkpt lat="45.43705" lon="7.00622">
        <ele>2452.6</ele>
        <time>2020-08-08T11:05:30Z</time>
      </trkpt>
      <trkpt lat="45.43698" lon="7.00618">
        <ele>2452.2</ele>
        <time>2020-08-08T11:05:32Z</time>
      </trkpt>
      <trkpt lat="45.43692" lon="7.00613">
        <ele>2451.9</ele>
        <time>2020-08-08T11:05:34Z</time>
      </trkpt>
      <trkpt lat="45.43686" lon="7.00606">
        <ele>2451.5</ele>
        <time>2020-08-08T11:05:36Z</time>
      </trkpt>
      <trkpt lat="45.43682" lon="7.00603">
        <ele>2451.3</ele>
        <time>2020-08-08T11:05:37Z</time>
      </trkpt>
      <trkpt lat="45.43675" lon="7.00597">
        <ele>2450.9</ele>
        <time>2020-08-08T11:05:39Z</time>
      </trkpt>
      <trkpt lat="45.43666" lon="7.00592">
        <ele>2450.4</ele>
        <time>2020-08-08T11:05:41Z</time>
      </trkpt>
      <trkpt lat="45.43658" lon="7.00586">
        <ele>2449.9</ele>
        <time>2020-08-08T11:05:43Z</time>
      </trkpt>
      <trkpt lat="45.43653" lon="7.00583">
        <ele>2449.6</ele>
        <time>2020-08-08T11:05:44Z</time>
      </trkpt>
      <trkpt lat="45.43644" lon="7.00577">
        <ele>2449</ele>
        <time>2020-08-08T11:05:46Z</time>
      </trkpt>
      <trkpt lat="45.43639" lon="7.00574">
        <ele>2448.5</ele>
        <time>2020-08-08T11:05:47Z</time>
      </trkpt>
      <trkpt lat="45.43633" lon="7.00571">
        <ele>2448.1</ele>
        <time>2020-08-08T11:05:48Z</time>
      </trkpt>
      <trkpt lat="45.43622" lon="7.00564">
        <ele>2447</ele>
        <time>2020-08-08T11:05:50Z</time>
      </trkpt>
      <trkpt lat="45.43616" lon="7.0056">
        <ele>2446.4</ele>
        <time>2020-08-08T11:05:51Z</time>
      </trkpt>
      <trkpt lat="45.43611" lon="7.00555">
        <ele>2445.7</ele>
        <time>2020-08-08T11:05:52Z</time>
      </trkpt>
      <trkpt lat="45.43606" lon="7.00549">
        <ele>2445</ele>
        <time>2020-08-08T11:05:53Z</time>
      </trkpt>
      <trkpt lat="45.43593" lon="7.00535">
        <ele>2443.5</ele>
        <time>2020-08-08T11:05:55Z</time>
      </trkpt>
      <trkpt lat="45.4358" lon="7.0052">
        <ele>2441.9</ele>
        <time>2020-08-08T11:05:57Z</time>
      </trkpt>
      <trkpt lat="45.43565" lon="7.00507">
        <ele>2440.3</ele>
        <time>2020-08-08T11:05:59Z</time>
      </trkpt>
      <trkpt lat="45.43549" lon="7.00501">
        <ele>2438.8</ele>
        <time>2020-08-08T11:06:01Z</time>
      </trkpt>
      <trkpt lat="45.43539" lon="7.00501">
        <ele>2438</ele>
        <time>2020-08-08T11:06:02Z</time>
      </trkpt>
      <trkpt lat="45.43518" lon="7.00502">
        <ele>2436.3</ele>
        <time>2020-08-08T11:06:04Z</time>
      </trkpt>
      <trkpt lat="45.43496" lon="7.00499">
        <ele>2434.9</ele>
        <time>2020-08-08T11:06:06Z</time>
      </trkpt>
      <trkpt lat="45.43485" lon="7.00496">
        <ele>2434.2</ele>
        <time>2020-08-08T11:06:07Z</time>
      </trkpt>
      <trkpt lat="45.43474" lon="7.00492">
        <ele>2433.4</ele>
        <time>2020-08-08T11:06:08Z</time>
      </trkpt>
      <trkpt lat="45.43451" lon="7.00482">
        <ele>2431.7</ele>
        <time>2020-08-08T11:06:10Z</time>
      </trkpt>
      <trkpt lat="45.43434" lon="7.00461">
        <ele>2429.7</ele>
        <time>2020-08-08T11:06:12Z</time>
      </trkpt>
      <trkpt lat="45.43419" lon="7.0044">
        <ele>2427.7</ele>
        <time>2020-08-08T11:06:14Z</time>
      </trkpt>
      <trkpt lat="45.43404" lon="7.00421">
        <ele>2426.1</ele>
        <time>2020-08-08T11:06:16Z</time>
      </trkpt>
      <trkpt lat="45.43397" lon="7.00412">
        <ele>2425.5</ele>
        <time>2020-08-08T11:06:17Z</time>
      </trkpt>
      <trkpt lat="45.43382" lon="7.00392">
        <ele>2424.5</ele>
        <time>2020-08-08T11:06:19Z</time>
      </trkpt>
      <trkpt lat="45.43376" lon="7.00382">
        <ele>2424.1</ele>
        <time>2020-08-08T11:06:20Z</time>
      </trkpt>
      <trkpt lat="45.43367" lon="7.00359">
        <ele>2423.3</ele>
        <time>2020-08-08T11:06:22Z</time>
      </trkpt>
      <trkpt lat="45.43364" lon="7.00348">
        <ele>2423</ele>
        <time>2020-08-08T11:06:23Z</time>
      </trkpt>
      <trkpt lat="45.43361" lon="7.00338">
        <ele>2422.7</ele>
        <time>2020-08-08T11:06:24Z</time>
      </trkpt>
      <trkpt lat="45.43349" lon="7.00325">
        <ele>2421.9</ele>
        <time>2020-08-08T11:06:26Z</time>
      </trkpt>
      <trkpt lat="45.43333" lon="7.00324">
        <ele>2420.9</ele>
        <time>2020-08-08T11:06:28Z</time>
      </trkpt>
      <trkpt lat="45.43324" lon="7.00326">
        <ele>2420.2</ele>
        <time>2020-08-08T11:06:29Z</time>
      </trkpt>
      <trkpt lat="45.43315" lon="7.00328">
        <ele>2419.6</ele>
        <time>2020-08-08T11:06:30Z</time>
      </trkpt>
      <trkpt lat="45.43296" lon="7.00331">
        <ele>2418.2</ele>
        <time>2020-08-08T11:06:32Z</time>
      </trkpt>
      <trkpt lat="45.43276" lon="7.00329">
        <ele>2416.7</ele>
        <time>2020-08-08T11:06:34Z</time>
      </trkpt>
      <trkpt lat="45.43266" lon="7.00325">
        <ele>2416</ele>
        <time>2020-08-08T11:06:35Z</time>
      </trkpt>
      <trkpt lat="45.43248" lon="7.00311">
        <ele>2414.6</ele>
        <time>2020-08-08T11:06:37Z</time>
      </trkpt>
      <trkpt lat="45.4324" lon="7.00302">
        <ele>2413.9</ele>
        <time>2020-08-08T11:06:38Z</time>
      </trkpt>
      <trkpt lat="45.43232" lon="7.00294">
        <ele>2413.3</ele>
        <time>2020-08-08T11:06:39Z</time>
      </trkpt>
      <trkpt lat="45.43213" lon="7.00287">
        <ele>2411.9</ele>
        <time>2020-08-08T11:06:41Z</time>
      </trkpt>
      <trkpt lat="45.43191" lon="7.00286">
        <ele>2410.5</ele>
        <time>2020-08-08T11:06:43Z</time>
      </trkpt>
      <trkpt lat="45.4318" lon="7.00287">
        <ele>2409.8</ele>
        <time>2020-08-08T11:06:44Z</time>
      </trkpt>
      <trkpt lat="45.43156" lon="7.0029">
        <ele>2408.7</ele>
        <time>2020-08-08T11:06:46Z</time>
      </trkpt>
      <trkpt lat="45.43144" lon="7.00288">
        <ele>2408.2</ele>
        <time>2020-08-08T11:06:47Z</time>
      </trkpt>
      <trkpt lat="45.43125" lon="7.00269">
        <ele>2407.3</ele>
        <time>2020-08-08T11:06:49Z</time>
      </trkpt>
      <trkpt lat="45.4312" lon="7.00253">
        <ele>2406.9</ele>
        <time>2020-08-08T11:06:50Z</time>
      </trkpt>
      <trkpt lat="45.43117" lon="7.00237">
        <ele>2406.5</ele>
        <time>2020-08-08T11:06:51Z</time>
      </trkpt>
      <trkpt lat="45.43114" lon="7.00204">
        <ele>2405.7</ele>
        <time>2020-08-08T11:06:53Z</time>
      </trkpt>
      <trkpt lat="45.43116" lon="7.00189">
        <ele>2405.3</ele>
        <time>2020-08-08T11:06:54Z</time>
      </trkpt>
      <trkpt lat="45.43123" lon="7.00176">
        <ele>2404.7</ele>
        <time>2020-08-08T11:06:55Z</time>
      </trkpt>
      <trkpt lat="45.43135" lon="7.00168">
        <ele>2404</ele>
        <time>2020-08-08T11:06:56Z</time>
      </trkpt>
      <trkpt lat="45.43159" lon="7.0017">
        <ele>2402.4</ele>
        <time>2020-08-08T11:06:58Z</time>
      </trkpt>
      <trkpt lat="45.43183" lon="7.0018">
        <ele>2400.6</ele>
        <time>2020-08-08T11:07:00Z</time>
      </trkpt>
      <trkpt lat="45.43194" lon="7.00188">
        <ele>2399.7</ele>
        <time>2020-08-08T11:07:01Z</time>
      </trkpt>
      <trkpt lat="45.43205" lon="7.00196">
        <ele>2399</ele>
        <time>2020-08-08T11:07:02Z</time>
      </trkpt>
      <trkpt lat="45.43225" lon="7.00212">
        <ele>2397.6</ele>
        <time>2020-08-08T11:07:04Z</time>
      </trkpt>
      <trkpt lat="45.43236" lon="7.00217">
        <ele>2397</ele>
        <time>2020-08-08T11:07:05Z</time>
      </trkpt>
      <trkpt lat="45.43258" lon="7.00223">
        <ele>2395.7</ele>
        <time>2020-08-08T11:07:07Z</time>
      </trkpt>
      <trkpt lat="45.43282" lon="7.00229">
        <ele>2394.4</ele>
        <time>2020-08-08T11:07:09Z</time>
      </trkpt>
      <trkpt lat="45.43293" lon="7.00232">
        <ele>2393.7</ele>
        <time>2020-08-08T11:07:10Z</time>
      </trkpt>
      <trkpt lat="45.43314" lon="7.00242">
        <ele>2392.3</ele>
        <time>2020-08-08T11:07:12Z</time>
      </trkpt>
      <trkpt lat="45.43323" lon="7.00248">
        <ele>2391.5</ele>
        <time>2020-08-08T11:07:13Z</time>
      </trkpt>
      <trkpt lat="45.4334" lon="7.0026">
        <ele>2390</ele>
        <time>2020-08-08T11:07:15Z</time>
      </trkpt>
      <trkpt lat="45.43349" lon="7.00263">
        <ele>2389.4</ele>
        <time>2020-08-08T11:07:16Z</time>
      </trkpt>
      <trkpt lat="45.43359" lon="7.00261">
        <ele>2388.6</ele>
        <time>2020-08-08T11:07:17Z</time>
      </trkpt>
      <trkpt lat="45.43378" lon="7.00243">
        <ele>2387.1</ele>
        <time>2020-08-08T11:07:19Z</time>
      </trkpt>
      <trkpt lat="45.43393" lon="7.0022">
        <ele>2385.4</ele>
        <time>2020-08-08T11:07:21Z</time>
      </trkpt>
      <trkpt lat="45.43405" lon="7.00203">
        <ele>2383.9</ele>
        <time>2020-08-08T11:07:23Z</time>
      </trkpt>
      <trkpt lat="45.43423" lon="7.002">
        <ele>2382</ele>
        <time>2020-08-08T11:07:25Z</time>
      </trkpt>
      <trkpt lat="45.43433" lon="7.00205">
        <ele>2380.8</ele>
        <time>2020-08-08T11:07:26Z</time>
      </trkpt>
      <trkpt lat="45.43451" lon="7.00218">
        <ele>2378.6</ele>
        <time>2020-08-08T11:07:28Z</time>
      </trkpt>
      <trkpt lat="45.4347" lon="7.0023">
        <ele>2376.6</ele>
        <time>2020-08-08T11:07:30Z</time>
      </trkpt>
      <trkpt lat="45.4348" lon="7.00233">
        <ele>2375.7</ele>
        <time>2020-08-08T11:07:31Z</time>
      </trkpt>
      <trkpt lat="45.43502" lon="7.0023">
        <ele>2374</ele>
        <time>2020-08-08T11:07:33Z</time>
      </trkpt>
      <trkpt lat="45.43513" lon="7.00229">
        <ele>2373.2</ele>
        <time>2020-08-08T11:07:34Z</time>
      </trkpt>
      <trkpt lat="45.43534" lon="7.00238">
        <ele>2371.6</ele>
        <time>2020-08-08T11:07:36Z</time>
      </trkpt>
      <trkpt lat="45.43554" lon="7.00255">
        <ele>2370</ele>
        <time>2020-08-08T11:07:38Z</time>
      </trkpt>
      <trkpt lat="45.43565" lon="7.00264">
        <ele>2369.2</ele>
        <time>2020-08-08T11:07:39Z</time>
      </trkpt>
      <trkpt lat="45.43587" lon="7.00277">
        <ele>2367.7</ele>
        <time>2020-08-08T11:07:41Z</time>
      </trkpt>
      <trkpt lat="45.43598" lon="7.00283">
        <ele>2366.9</ele>
        <time>2020-08-08T11:07:42Z</time>
      </trkpt>
      <trkpt lat="45.43609" lon="7.00289">
        <ele>2366</ele>
        <time>2020-08-08T11:07:43Z</time>
      </trkpt>
      <trkpt lat="45.43626" lon="7.00307">
        <ele>2364.3</ele>
        <time>2020-08-08T11:07:45Z</time>
      </trkpt>
      <trkpt lat="45.43639" lon="7.00332">
        <ele>2362.4</ele>
        <time>2020-08-08T11:07:47Z</time>
      </trkpt>
      <trkpt lat="45.43652" lon="7.0036">
        <ele>2361.1</ele>
        <time>2020-08-08T11:07:49Z</time>
      </trkpt>
      <trkpt lat="45.4366" lon="7.00374">
        <ele>2360.1</ele>
        <time>2020-08-08T11:07:50Z</time>
      </trkpt>
      <trkpt lat="45.43668" lon="7.00387">
        <ele>2359.2</ele>
        <time>2020-08-08T11:07:51Z</time>
      </trkpt>
      <trkpt lat="45.43687" lon="7.00407">
        <ele>2356.9</ele>
        <time>2020-08-08T11:07:53Z</time>
      </trkpt>
      <trkpt lat="45.43698" lon="7.00415">
        <ele>2355.7</ele>
        <time>2020-08-08T11:07:54Z</time>
      </trkpt>
      <trkpt lat="45.43718" lon="7.0043">
        <ele>2353.7</ele>
        <time>2020-08-08T11:07:56Z</time>
      </trkpt>
      <trkpt lat="45.43743" lon="7.00439">
        <ele>2351.4</ele>
        <time>2020-08-08T11:07:58Z</time>
      </trkpt>
      <trkpt lat="45.43756" lon="7.00443">
        <ele>2350.3</ele>
        <time>2020-08-08T11:07:59Z</time>
      </trkpt>
      <trkpt lat="45.43781" lon="7.00455">
        <ele>2347.7</ele>
        <time>2020-08-08T11:08:01Z</time>
      </trkpt>
      <trkpt lat="45.43794" lon="7.00463">
        <ele>2346.2</ele>
        <time>2020-08-08T11:08:02Z</time>
      </trkpt>
      <trkpt lat="45.43817" lon="7.00478">
        <ele>2343.7</ele>
        <time>2020-08-08T11:08:04Z</time>
      </trkpt>
      <trkpt lat="45.43828" lon="7.00485">
        <ele>2342.4</ele>
        <time>2020-08-08T11:08:05Z</time>
      </trkpt>
      <trkpt lat="45.43848" lon="7.00497">
        <ele>2340.2</ele>
        <time>2020-08-08T11:08:07Z</time>
      </trkpt>
      <trkpt lat="45.43865" lon="7.00506">
        <ele>2338.4</ele>
        <time>2020-08-08T11:08:09Z</time>
      </trkpt>
      <trkpt lat="45.43873" lon="7.0051">
        <ele>2337.6</ele>
        <time>2020-08-08T11:08:10Z</time>
      </trkpt>
      <trkpt lat="45.43881" lon="7.00513">
        <ele>2336.7</ele>
        <time>2020-08-08T11:08:11Z</time>
      </trkpt>
      <trkpt lat="45.4389" lon="7.00516">
        <ele>2335.9</ele>
        <time>2020-08-08T11:08:12Z</time>
      </trkpt>
      <trkpt lat="45.43906" lon="7.00528">
        <ele>2334</ele>
        <time>2020-08-08T11:08:14Z</time>
      </trkpt>
      <trkpt lat="45.4392" lon="7.00547">
        <ele>2331.9</ele>
        <time>2020-08-08T11:08:16Z</time>
      </trkpt>
      <trkpt lat="45.43934" lon="7.00564">
        <ele>2330</ele>
        <time>2020-08-08T11:08:18Z</time>
      </trkpt>
      <trkpt lat="45.43948" lon="7.00577">
        <ele>2328.4</ele>
        <time>2020-08-08T11:08:20Z</time>
      </trkpt>
      <trkpt lat="45.43955" lon="7.00583">
        <ele>2327.5</ele>
        <time>2020-08-08T11:08:21Z</time>
      </trkpt>
      <trkpt lat="45.4397" lon="7.00593">
        <ele>2325.8</ele>
        <time>2020-08-08T11:08:23Z</time>
      </trkpt>
      <trkpt lat="45.43985" lon="7.00603">
        <ele>2324</ele>
        <time>2020-08-08T11:08:25Z</time>
      </trkpt>
      <trkpt lat="45.43992" lon="7.00609">
        <ele>2323.1</ele>
        <time>2020-08-08T11:08:26Z</time>
      </trkpt>
      <trkpt lat="45.44006" lon="7.00624">
        <ele>2321.3</ele>
        <time>2020-08-08T11:08:28Z</time>
      </trkpt>
      <trkpt lat="45.44017" lon="7.00639">
        <ele>2319.5</ele>
        <time>2020-08-08T11:08:30Z</time>
      </trkpt>
      <trkpt lat="45.44023" lon="7.00647">
        <ele>2318.5</ele>
        <time>2020-08-08T11:08:31Z</time>
      </trkpt>
      <trkpt lat="45.44034" lon="7.00665">
        <ele>2316.5</ele>
        <time>2020-08-08T11:08:33Z</time>
      </trkpt>
      <trkpt lat="45.44039" lon="7.00674">
        <ele>2315.4</ele>
        <time>2020-08-08T11:08:34Z</time>
      </trkpt>
      <trkpt lat="45.44044" lon="7.00684">
        <ele>2314.3</ele>
        <time>2020-08-08T11:08:35Z</time>
      </trkpt>
      <trkpt lat="45.44054" lon="7.00705">
        <ele>2312.3</ele>
        <time>2020-08-08T11:08:37Z</time>
      </trkpt>
      <trkpt lat="45.4406" lon="7.00715">
        <ele>2311.4</ele>
        <time>2020-08-08T11:08:38Z</time>
      </trkpt>
      <trkpt lat="45.44066" lon="7.00724">
        <ele>2310.5</ele>
        <time>2020-08-08T11:08:39Z</time>
      </trkpt>
      <trkpt lat="45.44079" lon="7.00741">
        <ele>2309.1</ele>
        <time>2020-08-08T11:08:41Z</time>
      </trkpt>
      <trkpt lat="45.44092" lon="7.00761">
        <ele>2307.9</ele>
        <time>2020-08-08T11:08:43Z</time>
      </trkpt>
      <trkpt lat="45.44103" lon="7.00785">
        <ele>2307.4</ele>
        <time>2020-08-08T11:08:45Z</time>
      </trkpt>
      <trkpt lat="45.44108" lon="7.00797">
        <ele>2307.3</ele>
        <time>2020-08-08T11:08:46Z</time>
      </trkpt>
      <trkpt lat="45.44119" lon="7.00821">
        <ele>2307.6</ele>
        <time>2020-08-08T11:08:48Z</time>
      </trkpt>
      <trkpt lat="45.44129" lon="7.00845">
        <ele>2308.3</ele>
        <time>2020-08-08T11:08:50Z</time>
      </trkpt>
      <trkpt lat="45.44132" lon="7.00856">
        <ele>2308.7</ele>
        <time>2020-08-08T11:08:51Z</time>
      </trkpt>
      <trkpt lat="45.44135" lon="7.00867">
        <ele>2309.1</ele>
        <time>2020-08-08T11:08:52Z</time>
      </trkpt>
      <trkpt lat="45.44138" lon="7.00887">
        <ele>2309.8</ele>
        <time>2020-08-08T11:08:54Z</time>
      </trkpt>
      <trkpt lat="45.44138" lon="7.00897">
        <ele>2310.1</ele>
        <time>2020-08-08T11:08:55Z</time>
      </trkpt>
      <trkpt lat="45.44139" lon="7.00915">
        <ele>2310.7</ele>
        <time>2020-08-08T11:08:57Z</time>
      </trkpt>
      <trkpt lat="45.44139" lon="7.00931">
        <ele>2311.2</ele>
        <time>2020-08-08T11:08:59Z</time>
      </trkpt>
      <trkpt lat="45.4414" lon="7.00945">
        <ele>2311.6</ele>
        <time>2020-08-08T11:09:01Z</time>
      </trkpt>
      <trkpt lat="45.44141" lon="7.00959">
        <ele>2312</ele>
        <time>2020-08-08T11:09:03Z</time>
      </trkpt>
      <trkpt lat="45.44142" lon="7.0097">
        <ele>2312.3</ele>
        <time>2020-08-08T11:09:05Z</time>
      </trkpt>
      <trkpt lat="45.44142" lon="7.00979">
        <ele>2312.5</ele>
        <time>2020-08-08T11:09:07Z</time>
      </trkpt>
      <trkpt lat="45.44143" lon="7.00989">
        <ele>2312.8</ele>
        <time>2020-08-08T11:09:09Z</time>
      </trkpt>
      <trkpt lat="45.44143" lon="7.00994">
        <ele>2312.9</ele>
        <time>2020-08-08T11:09:10Z</time>
      </trkpt>
      <trkpt lat="45.44145" lon="7.01005">
        <ele>2313.2</ele>
        <time>2020-08-08T11:09:12Z</time>
      </trkpt>
      <trkpt lat="45.44146" lon="7.01009">
        <ele>2313.3</ele>
        <time>2020-08-08T11:09:13Z</time>
      </trkpt>
      <trkpt lat="45.44147" lon="7.01014">
        <ele>2313.4</ele>
        <time>2020-08-08T11:09:15Z</time>
      </trkpt>
      <trkpt lat="45.4415" lon="7.01022">
        <ele>2313.6</ele>
        <time>2020-08-08T11:09:17Z</time>
      </trkpt>
      <trkpt lat="45.44151" lon="7.01027">
        <ele>2313.7</ele>
        <time>2020-08-08T11:09:19Z</time>
      </trkpt>
      <trkpt lat="45.44152" lon="7.0103">
        <ele>2313.8</ele>
        <time>2020-08-08T11:09:21Z</time>
      </trkpt>
      <trkpt lat="45.44153" lon="7.01035">
        <ele>2313.9</ele>
        <time>2020-08-08T11:09:23Z</time>
      </trkpt>
      <trkpt lat="45.44155" lon="7.01042">
        <ele>2314</ele>
        <time>2020-08-08T11:09:24Z</time>
      </trkpt>
      <trkpt lat="45.44157" lon="7.01046">
        <ele>2314.1</ele>
        <time>2020-08-08T11:09:25Z</time>
      </trkpt>
      <trkpt lat="45.44158" lon="7.0105">
        <ele>2314.1</ele>
        <time>2020-08-08T11:09:27Z</time>
      </trkpt>
      <trkpt lat="45.44159" lon="7.01053">
        <ele>2314.2</ele>
        <time>2020-08-08T11:09:29Z</time>
      </trkpt>
      <trkpt lat="45.44162" lon="7.0106">
        <ele>2314.3</ele>
        <time>2020-08-08T11:09:31Z</time>
      </trkpt>
      <trkpt lat="45.44165" lon="7.0107">
        <ele>2314.4</ele>
        <time>2020-08-08T11:09:32Z</time>
      </trkpt>
      <trkpt lat="45.44167" lon="7.01079">
        <ele>2314.5</ele>
        <time>2020-08-08T11:09:34Z</time>
      </trkpt>
      <trkpt lat="45.44168" lon="7.01083">
        <ele>2314.5</ele>
        <time>2020-08-08T11:09:36Z</time>
      </trkpt>
      <trkpt lat="45.4417" lon="7.01088">
        <ele>2314.5</ele>
        <time>2020-08-08T11:09:37Z</time>
      </trkpt>
      <trkpt lat="45.44172" lon="7.01092">
        <ele>2314.6</ele>
        <time>2020-08-08T11:09:38Z</time>
      </trkpt>
      <trkpt lat="45.44174" lon="7.01096">
        <ele>2314.6</ele>
        <time>2020-08-08T11:09:40Z</time>
      </trkpt>
      <trkpt lat="45.44175" lon="7.01101">
        <ele>2314.6</ele>
        <time>2020-08-08T11:09:41Z</time>
      </trkpt>
      <trkpt lat="45.44176" lon="7.01106">
        <ele>2314.6</ele>
        <time>2020-08-08T11:09:43Z</time>
      </trkpt>
      <trkpt lat="45.44177" lon="7.01114">
        <ele>2314.7</ele>
        <time>2020-08-08T11:09:45Z</time>
      </trkpt>
      <trkpt lat="45.44182" lon="7.01129">
        <ele>2314.7</ele>
        <time>2020-08-08T11:09:47Z</time>
      </trkpt>
      <trkpt lat="45.44184" lon="7.01134">
        <ele>2314.8</ele>
        <time>2020-08-08T11:09:49Z</time>
      </trkpt>
      <trkpt lat="45.44185" lon="7.01139">
        <ele>2314.8</ele>
        <time>2020-08-08T11:09:51Z</time>
      </trkpt>
      <trkpt lat="45.44187" lon="7.01145">
        <ele>2314.8</ele>
        <time>2020-08-08T11:09:53Z</time>
      </trkpt>
      <trkpt lat="45.4419" lon="7.01156">
        <ele>2314.7</ele>
        <time>2020-08-08T11:09:54Z</time>
      </trkpt>
      <trkpt lat="45.44191" lon="7.01161">
        <ele>2314.7</ele>
        <time>2020-08-08T11:09:55Z</time>
      </trkpt>
      <trkpt lat="45.44191" lon="7.01165">
        <ele>2314.6</ele>
        <time>2020-08-08T11:09:56Z</time>
      </trkpt>
      <trkpt lat="45.44192" lon="7.01178">
        <ele>2314.3</ele>
        <time>2020-08-08T11:09:59Z</time>
      </trkpt>
      <trkpt lat="45.44191" lon="7.01183">
        <ele>2314.1</ele>
        <time>2020-08-08T11:10:00Z</time>
      </trkpt>
      <trkpt lat="45.44191" lon="7.01189">
        <ele>2313.9</ele>
        <time>2020-08-08T11:10:01Z</time>
      </trkpt>
      <trkpt lat="45.4419" lon="7.01199">
        <ele>2313.5</ele>
        <time>2020-08-08T11:10:04Z</time>
      </trkpt>
      <trkpt lat="45.4419" lon="7.01215">
        <ele>2312.7</ele>
        <time>2020-08-08T11:10:06Z</time>
      </trkpt>
      <trkpt lat="45.4419" lon="7.01223">
        <ele>2312.2</ele>
        <time>2020-08-08T11:10:07Z</time>
      </trkpt>
      <trkpt lat="45.44191" lon="7.01239">
        <ele>2311.2</ele>
        <time>2020-08-08T11:10:09Z</time>
      </trkpt>
      <trkpt lat="45.44193" lon="7.01256">
        <ele>2310.1</ele>
        <time>2020-08-08T11:10:11Z</time>
      </trkpt>
      <trkpt lat="45.44194" lon="7.01265">
        <ele>2309.5</ele>
        <time>2020-08-08T11:10:12Z</time>
      </trkpt>
      <trkpt lat="45.44198" lon="7.01284">
        <ele>2308.2</ele>
        <time>2020-08-08T11:10:14Z</time>
      </trkpt>
      <trkpt lat="45.442" lon="7.01294">
        <ele>2307.4</ele>
        <time>2020-08-08T11:10:15Z</time>
      </trkpt>
      <trkpt lat="45.44204" lon="7.01314">
        <ele>2307.3</ele>
        <time>2020-08-08T11:10:17Z</time>
      </trkpt>
      <trkpt lat="45.44208" lon="7.01336">
        <ele>2307.1</ele>
        <time>2020-08-08T11:10:19Z</time>
      </trkpt>
      <trkpt lat="45.44209" lon="7.01348">
        <ele>2306.9</ele>
        <time>2020-08-08T11:10:20Z</time>
      </trkpt>
      <trkpt lat="45.44209" lon="7.01362">
        <ele>2306.6</ele>
        <time>2020-08-08T11:10:21Z</time>
      </trkpt>
      <trkpt lat="45.44208" lon="7.01389">
        <ele>2306.1</ele>
        <time>2020-08-08T11:10:23Z</time>
      </trkpt>
      <trkpt lat="45.44206" lon="7.01404">
        <ele>2305.8</ele>
        <time>2020-08-08T11:10:24Z</time>
      </trkpt>
      <trkpt lat="45.44201" lon="7.01434">
        <ele>2305.4</ele>
        <time>2020-08-08T11:10:26Z</time>
      </trkpt>
      <trkpt lat="45.44194" lon="7.01463">
        <ele>2305.2</ele>
        <time>2020-08-08T11:10:28Z</time>
      </trkpt>
      <trkpt lat="45.4419" lon="7.01478">
        <ele>2305.2</ele>
        <time>2020-08-08T11:10:29Z</time>
      </trkpt>
      <trkpt lat="45.44182" lon="7.01509">
        <ele>2305.3</ele>
        <time>2020-08-08T11:10:31Z</time>
      </trkpt>
      <trkpt lat="45.44175" lon="7.01542">
        <ele>2305.6</ele>
        <time>2020-08-08T11:10:33Z</time>
      </trkpt>
      <trkpt lat="45.44175" lon="7.01558">
        <ele>2305.7</ele>
        <time>2020-08-08T11:10:34Z</time>
      </trkpt>
      <trkpt lat="45.44175" lon="7.0159">
        <ele>2305.6</ele>
        <time>2020-08-08T11:10:36Z</time>
      </trkpt>
      <trkpt lat="45.44175" lon="7.01623">
        <ele>2305.4</ele>
        <time>2020-08-08T11:10:38Z</time>
      </trkpt>
      <trkpt lat="45.44175" lon="7.01639">
        <ele>2305.4</ele>
        <time>2020-08-08T11:10:39Z</time>
      </trkpt>
      <trkpt lat="45.44175" lon="7.01652">
        <ele>2305.4</ele>
        <time>2020-08-08T11:10:40Z</time>
      </trkpt>
      <trkpt lat="45.44184" lon="7.01674">
        <ele>2304.6</ele>
        <time>2020-08-08T11:10:42Z</time>
      </trkpt>
      <trkpt lat="45.44192" lon="7.01682">
        <ele>2304.1</ele>
        <time>2020-08-08T11:10:43Z</time>
      </trkpt>
      <trkpt lat="45.442" lon="7.01687">
        <ele>2303.8</ele>
        <time>2020-08-08T11:10:44Z</time>
      </trkpt>
      <trkpt lat="45.44219" lon="7.01685">
        <ele>2302.7</ele>
        <time>2020-08-08T11:10:46Z</time>
      </trkpt>
      <trkpt lat="45.44236" lon="7.0168">
        <ele>2301.4</ele>
        <time>2020-08-08T11:10:48Z</time>
      </trkpt>
      <trkpt lat="45.44245" lon="7.01679">
        <ele>2300.6</ele>
        <time>2020-08-08T11:10:49Z</time>
      </trkpt>
      <trkpt lat="45.44254" lon="7.01681">
        <ele>2299.8</ele>
        <time>2020-08-08T11:10:50Z</time>
      </trkpt>
      <trkpt lat="45.44263" lon="7.01687">
        <ele>2299.1</ele>
        <time>2020-08-08T11:10:51Z</time>
      </trkpt>
      <trkpt lat="45.4427" lon="7.01696">
        <ele>2298.3</ele>
        <time>2020-08-08T11:10:52Z</time>
      </trkpt>
      <trkpt lat="45.44283" lon="7.0172">
        <ele>2296.9</ele>
        <time>2020-08-08T11:10:54Z</time>
      </trkpt>
      <trkpt lat="45.44291" lon="7.01749">
        <ele>2295.5</ele>
        <time>2020-08-08T11:10:56Z</time>
      </trkpt>
      <trkpt lat="45.44292" lon="7.01764">
        <ele>2294.8</ele>
        <time>2020-08-08T11:10:57Z</time>
      </trkpt>
      <trkpt lat="45.4429" lon="7.01794">
        <ele>2293.1</ele>
        <time>2020-08-08T11:10:59Z</time>
      </trkpt>
      <trkpt lat="45.44285" lon="7.01806">
        <ele>2292.2</ele>
        <time>2020-08-08T11:11:00Z</time>
      </trkpt>
      <trkpt lat="45.44271" lon="7.01827">
        <ele>2290.4</ele>
        <time>2020-08-08T11:11:02Z</time>
      </trkpt>
      <trkpt lat="45.44271" lon="7.01857">
        <ele>2288.5</ele>
        <time>2020-08-08T11:11:04Z</time>
      </trkpt>
      <trkpt lat="45.44277" lon="7.0187">
        <ele>2287.4</ele>
        <time>2020-08-08T11:11:05Z</time>
      </trkpt>
      <trkpt lat="45.44294" lon="7.01888">
        <ele>2285.5</ele>
        <time>2020-08-08T11:11:07Z</time>
      </trkpt>
      <trkpt lat="45.44304" lon="7.01894">
        <ele>2284.6</ele>
        <time>2020-08-08T11:11:08Z</time>
      </trkpt>
      <trkpt lat="45.44323" lon="7.01905">
        <ele>2282.9</ele>
        <time>2020-08-08T11:11:10Z</time>
      </trkpt>
      <trkpt lat="45.44334" lon="7.01912">
        <ele>2281.9</ele>
        <time>2020-08-08T11:11:11Z</time>
      </trkpt>
      <trkpt lat="45.44344" lon="7.01917">
        <ele>2281</ele>
        <time>2020-08-08T11:11:12Z</time>
      </trkpt>
      <trkpt lat="45.44354" lon="7.01925">
        <ele>2280.1</ele>
        <time>2020-08-08T11:11:13Z</time>
      </trkpt>
      <trkpt lat="45.44372" lon="7.01944">
        <ele>2278.1</ele>
        <time>2020-08-08T11:11:15Z</time>
      </trkpt>
      <trkpt lat="45.44381" lon="7.01956">
        <ele>2277.1</ele>
        <time>2020-08-08T11:11:16Z</time>
      </trkpt>
      <trkpt lat="45.44398" lon="7.01979">
        <ele>2275</ele>
        <time>2020-08-08T11:11:18Z</time>
      </trkpt>
      <trkpt lat="45.44406" lon="7.01993">
        <ele>2273.8</ele>
        <time>2020-08-08T11:11:19Z</time>
      </trkpt>
      <trkpt lat="45.44422" lon="7.0202">
        <ele>2271.1</ele>
        <time>2020-08-08T11:11:21Z</time>
      </trkpt>
      <trkpt lat="45.44431" lon="7.02034">
        <ele>2269.9</ele>
        <time>2020-08-08T11:11:22Z</time>
      </trkpt>
      <trkpt lat="45.44449" lon="7.02063">
        <ele>2267.8</ele>
        <time>2020-08-08T11:11:24Z</time>
      </trkpt>
      <trkpt lat="45.44458" lon="7.02078">
        <ele>2266.8</ele>
        <time>2020-08-08T11:11:25Z</time>
      </trkpt>
      <trkpt lat="45.44477" lon="7.02107">
        <ele>2264.7</ele>
        <time>2020-08-08T11:11:27Z</time>
      </trkpt>
      <trkpt lat="45.44495" lon="7.02139">
        <ele>2262.4</ele>
        <time>2020-08-08T11:11:29Z</time>
      </trkpt>
      <trkpt lat="45.44509" lon="7.02176">
        <ele>2260</ele>
        <time>2020-08-08T11:11:31Z</time>
      </trkpt>
      <trkpt lat="45.44516" lon="7.02196">
        <ele>2258.7</ele>
        <time>2020-08-08T11:11:32Z</time>
      </trkpt>
      <trkpt lat="45.44534" lon="7.02231">
        <ele>2256.4</ele>
        <time>2020-08-08T11:11:34Z</time>
      </trkpt>
      <trkpt lat="45.44545" lon="7.02246">
        <ele>2255.2</ele>
        <time>2020-08-08T11:11:35Z</time>
      </trkpt>
      <trkpt lat="45.4457" lon="7.02271">
        <ele>2253.3</ele>
        <time>2020-08-08T11:11:37Z</time>
      </trkpt>
      <trkpt lat="45.44583" lon="7.02282">
        <ele>2252.3</ele>
        <time>2020-08-08T11:11:38Z</time>
      </trkpt>
      <trkpt lat="45.44606" lon="7.02304">
        <ele>2250.5</ele>
        <time>2020-08-08T11:11:40Z</time>
      </trkpt>
      <trkpt lat="45.44617" lon="7.02316">
        <ele>2249.4</ele>
        <time>2020-08-08T11:11:41Z</time>
      </trkpt>
      <trkpt lat="45.44633" lon="7.0234">
        <ele>2247.5</ele>
        <time>2020-08-08T11:11:43Z</time>
      </trkpt>
      <trkpt lat="45.44641" lon="7.02353">
        <ele>2246.5</ele>
        <time>2020-08-08T11:11:44Z</time>
      </trkpt>
      <trkpt lat="45.44652" lon="7.0238">
        <ele>2245.2</ele>
        <time>2020-08-08T11:11:46Z</time>
      </trkpt>
      <trkpt lat="45.44657" lon="7.02401">
        <ele>2244.3</ele>
        <time>2020-08-08T11:11:48Z</time>
      </trkpt>
      <trkpt lat="45.44658" lon="7.02412">
        <ele>2244</ele>
        <time>2020-08-08T11:11:49Z</time>
      </trkpt>
      <trkpt lat="45.4466" lon="7.02421">
        <ele>2243.6</ele>
        <time>2020-08-08T11:11:50Z</time>
      </trkpt>
      <trkpt lat="45.44667" lon="7.02438">
        <ele>2243</ele>
        <time>2020-08-08T11:11:52Z</time>
      </trkpt>
      <trkpt lat="45.44678" lon="7.0243">
        <ele>2242.2</ele>
        <time>2020-08-08T11:11:54Z</time>
      </trkpt>
      <trkpt lat="45.44678" lon="7.02402">
        <ele>2241</ele>
        <time>2020-08-08T11:11:56Z</time>
      </trkpt>
      <trkpt lat="45.44673" lon="7.0239">
        <ele>2240.5</ele>
        <time>2020-08-08T11:11:57Z</time>
      </trkpt>
      <trkpt lat="45.44662" lon="7.02371">
        <ele>2239.5</ele>
        <time>2020-08-08T11:11:59Z</time>
      </trkpt>
      <trkpt lat="45.44654" lon="7.02349">
        <ele>2238.6</ele>
        <time>2020-08-08T11:12:01Z</time>
      </trkpt>
      <trkpt lat="45.44648" lon="7.02325">
        <ele>2237.6</ele>
        <time>2020-08-08T11:12:03Z</time>
      </trkpt>
      <trkpt lat="45.44639" lon="7.02304">
        <ele>2236.7</ele>
        <time>2020-08-08T11:12:05Z</time>
      </trkpt>
      <trkpt lat="45.44629" lon="7.02283">
        <ele>2235.8</ele>
        <time>2020-08-08T11:12:07Z</time>
      </trkpt>
      <trkpt lat="45.44623" lon="7.02272">
        <ele>2235.3</ele>
        <time>2020-08-08T11:12:08Z</time>
      </trkpt>
      <trkpt lat="45.44617" lon="7.02262">
        <ele>2234.8</ele>
        <time>2020-08-08T11:12:09Z</time>
      </trkpt>
      <trkpt lat="45.44604" lon="7.02242">
        <ele>2233.7</ele>
        <time>2020-08-08T11:12:11Z</time>
      </trkpt>
      <trkpt lat="45.44598" lon="7.02231">
        <ele>2233.1</ele>
        <time>2020-08-08T11:12:12Z</time>
      </trkpt>
      <trkpt lat="45.44587" lon="7.02207">
        <ele>2231.9</ele>
        <time>2020-08-08T11:12:14Z</time>
      </trkpt>
      <trkpt lat="45.44579" lon="7.02182">
        <ele>2230.5</ele>
        <time>2020-08-08T11:12:16Z</time>
      </trkpt>
      <trkpt lat="45.44572" lon="7.02154">
        <ele>2228.8</ele>
        <time>2020-08-08T11:12:18Z</time>
      </trkpt>
      <trkpt lat="45.44569" lon="7.02139">
        <ele>2227.9</ele>
        <time>2020-08-08T11:12:19Z</time>
      </trkpt>
      <trkpt lat="45.44563" lon="7.02109">
        <ele>2226.4</ele>
        <time>2020-08-08T11:12:21Z</time>
      </trkpt>
      <trkpt lat="45.44554" lon="7.02078">
        <ele>2225.1</ele>
        <time>2020-08-08T11:12:23Z</time>
      </trkpt>
      <trkpt lat="45.44544" lon="7.02049">
        <ele>2224.1</ele>
        <time>2020-08-08T11:12:25Z</time>
      </trkpt>
      <trkpt lat="45.44539" lon="7.02034">
        <ele>2223.7</ele>
        <time>2020-08-08T11:12:26Z</time>
      </trkpt>
      <trkpt lat="45.44529" lon="7.02007">
        <ele>2222.9</ele>
        <time>2020-08-08T11:12:28Z</time>
      </trkpt>
      <trkpt lat="45.4452" lon="7.01981">
        <ele>2222</ele>
        <time>2020-08-08T11:12:30Z</time>
      </trkpt>
      <trkpt lat="45.44515" lon="7.01968">
        <ele>2221.9</ele>
        <time>2020-08-08T11:12:31Z</time>
      </trkpt>
      <trkpt lat="45.44507" lon="7.01942">
        <ele>2220.9</ele>
        <time>2020-08-08T11:12:33Z</time>
      </trkpt>
      <trkpt lat="45.445" lon="7.01915">
        <ele>2219.8</ele>
        <time>2020-08-08T11:12:35Z</time>
      </trkpt>
      <trkpt lat="45.44496" lon="7.01903">
        <ele>2219.4</ele>
        <time>2020-08-08T11:12:36Z</time>
      </trkpt>
      <trkpt lat="45.44487" lon="7.01884">
        <ele>2218.7</ele>
        <time>2020-08-08T11:12:38Z</time>
      </trkpt>
      <trkpt lat="45.44482" lon="7.01877">
        <ele>2218.4</ele>
        <time>2020-08-08T11:12:39Z</time>
      </trkpt>
      <trkpt lat="45.44477" lon="7.0187">
        <ele>2218</ele>
        <time>2020-08-08T11:12:40Z</time>
      </trkpt>
      <trkpt lat="45.44475" lon="7.01856">
        <ele>2217.3</ele>
        <time>2020-08-08T11:12:42Z</time>
      </trkpt>
      <trkpt lat="45.44481" lon="7.0185">
        <ele>2216.8</ele>
        <time>2020-08-08T11:12:43Z</time>
      </trkpt>
      <trkpt lat="45.44499" lon="7.01861">
        <ele>2214.9</ele>
        <time>2020-08-08T11:12:45Z</time>
      </trkpt>
      <trkpt lat="45.4451" lon="7.01891">
        <ele>2212.8</ele>
        <time>2020-08-08T11:12:47Z</time>
      </trkpt>
      <trkpt lat="45.44518" lon="7.01919">
        <ele>2211.1</ele>
        <time>2020-08-08T11:12:49Z</time>
      </trkpt>
      <trkpt lat="45.44526" lon="7.01942">
        <ele>2209.6</ele>
        <time>2020-08-08T11:12:51Z</time>
      </trkpt>
      <trkpt lat="45.4453" lon="7.01954">
        <ele>2208.8</ele>
        <time>2020-08-08T11:12:52Z</time>
      </trkpt>
      <trkpt lat="45.44542" lon="7.01978">
        <ele>2207.1</ele>
        <time>2020-08-08T11:12:54Z</time>
      </trkpt>
      <trkpt lat="45.44556" lon="7.02004">
        <ele>2205.2</ele>
        <time>2020-08-08T11:12:56Z</time>
      </trkpt>
      <trkpt lat="45.44564" lon="7.02017">
        <ele>2204.3</ele>
        <time>2020-08-08T11:12:57Z</time>
      </trkpt>
      <trkpt lat="45.44571" lon="7.0203">
        <ele>2203.4</ele>
        <time>2020-08-08T11:12:58Z</time>
      </trkpt>
      <trkpt lat="45.44586" lon="7.02056">
        <ele>2201.5</ele>
        <time>2020-08-08T11:13:00Z</time>
      </trkpt>
      <trkpt lat="45.44594" lon="7.02069">
        <ele>2200.4</ele>
        <time>2020-08-08T11:13:01Z</time>
      </trkpt>
      <trkpt lat="45.44603" lon="7.02081">
        <ele>2199.3</ele>
        <time>2020-08-08T11:13:02Z</time>
      </trkpt>
      <trkpt lat="45.44622" lon="7.02106">
        <ele>2197</ele>
        <time>2020-08-08T11:13:04Z</time>
      </trkpt>
      <trkpt lat="45.44643" lon="7.02132">
        <ele>2194.5</ele>
        <time>2020-08-08T11:13:06Z</time>
      </trkpt>
      <trkpt lat="45.44665" lon="7.02156">
        <ele>2192.1</ele>
        <time>2020-08-08T11:13:08Z</time>
      </trkpt>
      <trkpt lat="45.44676" lon="7.02169">
        <ele>2190.9</ele>
        <time>2020-08-08T11:13:09Z</time>
      </trkpt>
      <trkpt lat="45.44686" lon="7.02183">
        <ele>2189.7</ele>
        <time>2020-08-08T11:13:10Z</time>
      </trkpt>
      <trkpt lat="45.44704" lon="7.02216">
        <ele>2187.6</ele>
        <time>2020-08-08T11:13:12Z</time>
      </trkpt>
      <trkpt lat="45.44713" lon="7.02233">
        <ele>2186.5</ele>
        <time>2020-08-08T11:13:13Z</time>
      </trkpt>
      <trkpt lat="45.44729" lon="7.02266">
        <ele>2184.4</ele>
        <time>2020-08-08T11:13:15Z</time>
      </trkpt>
      <trkpt lat="45.44737" lon="7.02282">
        <ele>2183.3</ele>
        <time>2020-08-08T11:13:16Z</time>
      </trkpt>
      <trkpt lat="45.44753" lon="7.02314">
        <ele>2181.1</ele>
        <time>2020-08-08T11:13:18Z</time>
      </trkpt>
      <trkpt lat="45.44761" lon="7.02331">
        <ele>2179.9</ele>
        <time>2020-08-08T11:13:19Z</time>
      </trkpt>
      <trkpt lat="45.44777" lon="7.02363">
        <ele>2177.5</ele>
        <time>2020-08-08T11:13:21Z</time>
      </trkpt>
      <trkpt lat="45.44791" lon="7.02393">
        <ele>2175.9</ele>
        <time>2020-08-08T11:13:23Z</time>
      </trkpt>
      <trkpt lat="45.44802" lon="7.02419">
        <ele>2176.1</ele>
        <time>2020-08-08T11:13:25Z</time>
      </trkpt>
      <trkpt lat="45.44807" lon="7.02432">
        <ele>2175.4</ele>
        <time>2020-08-08T11:13:26Z</time>
      </trkpt>
      <trkpt lat="45.44812" lon="7.02445">
        <ele>2174.5</ele>
        <time>2020-08-08T11:13:27Z</time>
      </trkpt>
      <trkpt lat="45.44824" lon="7.02469">
        <ele>2172.8</ele>
        <time>2020-08-08T11:13:29Z</time>
      </trkpt>
      <trkpt lat="45.44835" lon="7.02497">
        <ele>2171.2</ele>
        <time>2020-08-08T11:13:31Z</time>
      </trkpt>
      <trkpt lat="45.4484" lon="7.02513">
        <ele>2170.3</ele>
        <time>2020-08-08T11:13:32Z</time>
      </trkpt>
      <trkpt lat="45.44844" lon="7.02529">
        <ele>2169.3</ele>
        <time>2020-08-08T11:13:33Z</time>
      </trkpt>
      <trkpt lat="45.44849" lon="7.02545">
        <ele>2168.4</ele>
        <time>2020-08-08T11:13:34Z</time>
      </trkpt>
      <trkpt lat="45.44858" lon="7.02578">
        <ele>2166.6</ele>
        <time>2020-08-08T11:13:36Z</time>
      </trkpt>
      <trkpt lat="45.44862" lon="7.02594">
        <ele>2165.8</ele>
        <time>2020-08-08T11:13:37Z</time>
      </trkpt>
      <trkpt lat="45.44871" lon="7.02626">
        <ele>2164</ele>
        <time>2020-08-08T11:13:39Z</time>
      </trkpt>
      <trkpt lat="45.44881" lon="7.02657">
        <ele>2162.2</ele>
        <time>2020-08-08T11:13:41Z</time>
      </trkpt>
      <trkpt lat="45.44885" lon="7.02672">
        <ele>2161.2</ele>
        <time>2020-08-08T11:13:42Z</time>
      </trkpt>
      <trkpt lat="45.4489" lon="7.02689">
        <ele>2160.2</ele>
        <time>2020-08-08T11:13:43Z</time>
      </trkpt>
      <trkpt lat="45.44901" lon="7.02724">
        <ele>2158.2</ele>
        <time>2020-08-08T11:13:45Z</time>
      </trkpt>
      <trkpt lat="45.44905" lon="7.02741">
        <ele>2157.2</ele>
        <time>2020-08-08T11:13:46Z</time>
      </trkpt>
      <trkpt lat="45.44914" lon="7.02777">
        <ele>2155.2</ele>
        <time>2020-08-08T11:13:48Z</time>
      </trkpt>
      <trkpt lat="45.44919" lon="7.02795">
        <ele>2154.2</ele>
        <time>2020-08-08T11:13:49Z</time>
      </trkpt>
      <trkpt lat="45.44933" lon="7.02829">
        <ele>2152</ele>
        <time>2020-08-08T11:13:51Z</time>
      </trkpt>
      <trkpt lat="45.44948" lon="7.02863">
        <ele>2149.8</ele>
        <time>2020-08-08T11:13:53Z</time>
      </trkpt>
      <trkpt lat="45.44963" lon="7.02898">
        <ele>2148.1</ele>
        <time>2020-08-08T11:13:55Z</time>
      </trkpt>
      <trkpt lat="45.44976" lon="7.02934">
        <ele>2146.4</ele>
        <time>2020-08-08T11:13:57Z</time>
      </trkpt>
      <trkpt lat="45.44983" lon="7.02953">
        <ele>2145.7</ele>
        <time>2020-08-08T11:13:58Z</time>
      </trkpt>
      <trkpt lat="45.44995" lon="7.0299">
        <ele>2144.3</ele>
        <time>2020-08-08T11:14:00Z</time>
      </trkpt>
      <trkpt lat="45.45002" lon="7.03009">
        <ele>2143.4</ele>
        <time>2020-08-08T11:14:01Z</time>
      </trkpt>
      <trkpt lat="45.45013" lon="7.03042">
        <ele>2142.1</ele>
        <time>2020-08-08T11:14:03Z</time>
      </trkpt>
      <trkpt lat="45.45025" lon="7.03066">
        <ele>2141</ele>
        <time>2020-08-08T11:14:05Z</time>
      </trkpt>
      <trkpt lat="45.4504" lon="7.0308">
        <ele>2139.9</ele>
        <time>2020-08-08T11:14:07Z</time>
      </trkpt>
      <trkpt lat="45.4505" lon="7.03101">
        <ele>2138.7</ele>
        <time>2020-08-08T11:14:09Z</time>
      </trkpt>
      <trkpt lat="45.45057" lon="7.03127">
        <ele>2137.4</ele>
        <time>2020-08-08T11:14:11Z</time>
      </trkpt>
      <trkpt lat="45.45062" lon="7.03155">
        <ele>2136</ele>
        <time>2020-08-08T11:14:13Z</time>
      </trkpt>
      <trkpt lat="45.45072" lon="7.03183">
        <ele>2134.4</ele>
        <time>2020-08-08T11:14:15Z</time>
      </trkpt>
      <trkpt lat="45.45078" lon="7.03197">
        <ele>2133.6</ele>
        <time>2020-08-08T11:14:16Z</time>
      </trkpt>
      <trkpt lat="45.45084" lon="7.03211">
        <ele>2132.8</ele>
        <time>2020-08-08T11:14:17Z</time>
      </trkpt>
      <trkpt lat="45.45095" lon="7.03241">
        <ele>2131</ele>
        <time>2020-08-08T11:14:19Z</time>
      </trkpt>
      <trkpt lat="45.45101" lon="7.03257">
        <ele>2130.2</ele>
        <time>2020-08-08T11:14:20Z</time>
      </trkpt>
      <trkpt lat="45.45111" lon="7.03289">
        <ele>2128.4</ele>
        <time>2020-08-08T11:14:22Z</time>
      </trkpt>
      <trkpt lat="45.45122" lon="7.03322">
        <ele>2126.6</ele>
        <time>2020-08-08T11:14:24Z</time>
      </trkpt>
      <trkpt lat="45.45134" lon="7.03355">
        <ele>2124.7</ele>
        <time>2020-08-08T11:14:26Z</time>
      </trkpt>
      <trkpt lat="45.4514" lon="7.03373">
        <ele>2123.7</ele>
        <time>2020-08-08T11:14:27Z</time>
      </trkpt>
      <trkpt lat="45.45151" lon="7.03406">
        <ele>2121.9</ele>
        <time>2020-08-08T11:14:29Z</time>
      </trkpt>
      <trkpt lat="45.45159" lon="7.0342">
        <ele>2120.9</ele>
        <time>2020-08-08T11:14:30Z</time>
      </trkpt>
      <trkpt lat="45.45167" lon="7.03431">
        <ele>2120</ele>
        <time>2020-08-08T11:14:31Z</time>
      </trkpt>
      <trkpt lat="45.45184" lon="7.03451">
        <ele>2118.2</ele>
        <time>2020-08-08T11:14:33Z</time>
      </trkpt>
      <trkpt lat="45.45192" lon="7.03463">
        <ele>2117.2</ele>
        <time>2020-08-08T11:14:34Z</time>
      </trkpt>
      <trkpt lat="45.45205" lon="7.03491">
        <ele>2115.3</ele>
        <time>2020-08-08T11:14:36Z</time>
      </trkpt>
      <trkpt lat="45.45211" lon="7.03507">
        <ele>2114.2</ele>
        <time>2020-08-08T11:14:37Z</time>
      </trkpt>
      <trkpt lat="45.45223" lon="7.0354">
        <ele>2112.1</ele>
        <time>2020-08-08T11:14:39Z</time>
      </trkpt>
      <trkpt lat="45.4523" lon="7.03558">
        <ele>2110.9</ele>
        <time>2020-08-08T11:14:40Z</time>
      </trkpt>
      <trkpt lat="45.45243" lon="7.03592">
        <ele>2109</ele>
        <time>2020-08-08T11:14:42Z</time>
      </trkpt>
      <trkpt lat="45.45251" lon="7.0361">
        <ele>2108</ele>
        <time>2020-08-08T11:14:43Z</time>
      </trkpt>
      <trkpt lat="45.45267" lon="7.03643">
        <ele>2105.8</ele>
        <time>2020-08-08T11:14:45Z</time>
      </trkpt>
      <trkpt lat="45.45275" lon="7.03661">
        <ele>2104.8</ele>
        <time>2020-08-08T11:14:46Z</time>
      </trkpt>
      <trkpt lat="45.45283" lon="7.03678">
        <ele>2103.7</ele>
        <time>2020-08-08T11:14:47Z</time>
      </trkpt>
      <trkpt lat="45.45299" lon="7.03714">
        <ele>2101.3</ele>
        <time>2020-08-08T11:14:49Z</time>
      </trkpt>
      <trkpt lat="45.45313" lon="7.03752">
        <ele>2098.7</ele>
        <time>2020-08-08T11:14:51Z</time>
      </trkpt>
      <trkpt lat="45.45326" lon="7.0379">
        <ele>2096.3</ele>
        <time>2020-08-08T11:14:53Z</time>
      </trkpt>
      <trkpt lat="45.45333" lon="7.03809">
        <ele>2095.1</ele>
        <time>2020-08-08T11:14:54Z</time>
      </trkpt>
      <trkpt lat="45.45347" lon="7.03845">
        <ele>2093.1</ele>
        <time>2020-08-08T11:14:56Z</time>
      </trkpt>
      <trkpt lat="45.45353" lon="7.03861">
        <ele>2092.3</ele>
        <time>2020-08-08T11:14:57Z</time>
      </trkpt>
      <trkpt lat="45.45359" lon="7.03894">
        <ele>2090.8</ele>
        <time>2020-08-08T11:14:59Z</time>
      </trkpt>
      <trkpt lat="45.45361" lon="7.03911">
        <ele>2090.2</ele>
        <time>2020-08-08T11:15:00Z</time>
      </trkpt>
      <trkpt lat="45.45364" lon="7.03939">
        <ele>2089</ele>
        <time>2020-08-08T11:15:02Z</time>
      </trkpt>
      <trkpt lat="45.45366" lon="7.03962">
        <ele>2088.1</ele>
        <time>2020-08-08T11:15:04Z</time>
      </trkpt>
      <trkpt lat="45.4537" lon="7.0398">
        <ele>2087.4</ele>
        <time>2020-08-08T11:15:06Z</time>
      </trkpt>
      <trkpt lat="45.45373" lon="7.03987">
        <ele>2087.1</ele>
        <time>2020-08-08T11:15:07Z</time>
      </trkpt>
      <trkpt lat="45.45383" lon="7.03991">
        <ele>2086.5</ele>
        <time>2020-08-08T11:15:09Z</time>
      </trkpt>
      <trkpt lat="45.45389" lon="7.03987">
        <ele>2086.2</ele>
        <time>2020-08-08T11:15:10Z</time>
      </trkpt>
      <trkpt lat="45.45395" lon="7.03971">
        <ele>2085.5</ele>
        <time>2020-08-08T11:15:12Z</time>
      </trkpt>
      <trkpt lat="45.45394" lon="7.03963">
        <ele>2085.2</ele>
        <time>2020-08-08T11:15:13Z</time>
      </trkpt>
      <trkpt lat="45.45388" lon="7.03949">
        <ele>2084.6</ele>
        <time>2020-08-08T11:15:15Z</time>
      </trkpt>
      <trkpt lat="45.45383" lon="7.03942">
        <ele>2084.2</ele>
        <time>2020-08-08T11:15:16Z</time>
      </trkpt>
      <trkpt lat="45.45376" lon="7.03927">
        <ele>2083.4</ele>
        <time>2020-08-08T11:15:18Z</time>
      </trkpt>
      <trkpt lat="45.45374" lon="7.03918">
        <ele>2082.8</ele>
        <time>2020-08-08T11:15:19Z</time>
      </trkpt>
      <trkpt lat="45.45375" lon="7.03907">
        <ele>2082.3</ele>
        <time>2020-08-08T11:15:20Z</time>
      </trkpt>
      <trkpt lat="45.45376" lon="7.03886">
        <ele>2081</ele>
        <time>2020-08-08T11:15:22Z</time>
      </trkpt>
      <trkpt lat="45.45378" lon="7.03862">
        <ele>2079.5</ele>
        <time>2020-08-08T11:15:24Z</time>
      </trkpt>
      <trkpt lat="45.45379" lon="7.03837">
        <ele>2077.9</ele>
        <time>2020-08-08T11:15:26Z</time>
      </trkpt>
      <trkpt lat="45.45378" lon="7.03824">
        <ele>2077.1</ele>
        <time>2020-08-08T11:15:27Z</time>
      </trkpt>
      <trkpt lat="45.45375" lon="7.03796">
        <ele>2075.4</ele>
        <time>2020-08-08T11:15:29Z</time>
      </trkpt>
      <trkpt lat="45.45372" lon="7.03767">
        <ele>2073.6</ele>
        <time>2020-08-08T11:15:31Z</time>
      </trkpt>
      <trkpt lat="45.45368" lon="7.03736">
        <ele>2071.8</ele>
        <time>2020-08-08T11:15:33Z</time>
      </trkpt>
      <trkpt lat="45.45362" lon="7.03705">
        <ele>2069.8</ele>
        <time>2020-08-08T11:15:35Z</time>
      </trkpt>
      <trkpt lat="45.45356" lon="7.03673">
        <ele>2067.8</ele>
        <time>2020-08-08T11:15:37Z</time>
      </trkpt>
      <trkpt lat="45.45349" lon="7.0364">
        <ele>2065.8</ele>
        <time>2020-08-08T11:15:39Z</time>
      </trkpt>
      <trkpt lat="45.45343" lon="7.03609">
        <ele>2064.2</ele>
        <time>2020-08-08T11:15:41Z</time>
      </trkpt>
      <trkpt lat="45.4534" lon="7.03594">
        <ele>2063.6</ele>
        <time>2020-08-08T11:15:42Z</time>
      </trkpt>
      <trkpt lat="45.45333" lon="7.0357">
        <ele>2062.7</ele>
        <time>2020-08-08T11:15:44Z</time>
      </trkpt>
      <trkpt lat="45.45329" lon="7.03561">
        <ele>2062.3</ele>
        <time>2020-08-08T11:15:45Z</time>
      </trkpt>
      <trkpt lat="45.45325" lon="7.03552">
        <ele>2062.1</ele>
        <time>2020-08-08T11:15:46Z</time>
      </trkpt>
      <trkpt lat="45.45317" lon="7.03537">
        <ele>2061.7</ele>
        <time>2020-08-08T11:15:48Z</time>
      </trkpt>
      <trkpt lat="45.45316" lon="7.03529">
        <ele>2061.5</ele>
        <time>2020-08-08T11:15:49Z</time>
      </trkpt>
      <trkpt lat="45.45319" lon="7.0352">
        <ele>2061.2</ele>
        <time>2020-08-08T11:15:50Z</time>
      </trkpt>
      <trkpt lat="45.45336" lon="7.03516">
        <ele>2060.3</ele>
        <time>2020-08-08T11:15:52Z</time>
      </trkpt>
      <trkpt lat="45.45343" lon="7.03525">
        <ele>2059.8</ele>
        <time>2020-08-08T11:15:53Z</time>
      </trkpt>
      <trkpt lat="45.45344" lon="7.0355">
        <ele>2058.9</ele>
        <time>2020-08-08T11:15:55Z</time>
      </trkpt>
      <trkpt lat="45.45343" lon="7.03562">
        <ele>2059</ele>
        <time>2020-08-08T11:15:56Z</time>
      </trkpt>
      <trkpt lat="45.45345" lon="7.03573">
        <ele>2058.6</ele>
        <time>2020-08-08T11:15:57Z</time>
      </trkpt>
      <trkpt lat="45.45349" lon="7.03583">
        <ele>2057.8</ele>
        <time>2020-08-08T11:15:58Z</time>
      </trkpt>
      <trkpt lat="45.45359" lon="7.03602">
        <ele>2056.8</ele>
        <time>2020-08-08T11:16:00Z</time>
      </trkpt>
      <trkpt lat="45.45365" lon="7.03611">
        <ele>2056.3</ele>
        <time>2020-08-08T11:16:01Z</time>
      </trkpt>
      <trkpt lat="45.45376" lon="7.03632">
        <ele>2055.4</ele>
        <time>2020-08-08T11:16:03Z</time>
      </trkpt>
      <trkpt lat="45.45381" lon="7.03642">
        <ele>2054.9</ele>
        <time>2020-08-08T11:16:04Z</time>
      </trkpt>
      <trkpt lat="45.45395" lon="7.03661">
        <ele>2053.9</ele>
        <time>2020-08-08T11:16:06Z</time>
      </trkpt>
      <trkpt lat="45.45403" lon="7.03669">
        <ele>2053.3</ele>
        <time>2020-08-08T11:16:07Z</time>
      </trkpt>
      <trkpt lat="45.45423" lon="7.03675">
        <ele>2052.7</ele>
        <time>2020-08-08T11:16:09Z</time>
      </trkpt>
      <trkpt lat="45.45444" lon="7.03677">
        <ele>2052.7</ele>
        <time>2020-08-08T11:16:11Z</time>
      </trkpt>
      <trkpt lat="45.45465" lon="7.03676">
        <ele>2053.5</ele>
        <time>2020-08-08T11:16:13Z</time>
      </trkpt>
      <trkpt lat="45.45483" lon="7.03655">
        <ele>2053.7</ele>
        <time>2020-08-08T11:16:15Z</time>
      </trkpt>
      <trkpt lat="45.45491" lon="7.03622">
        <ele>2052.1</ele>
        <time>2020-08-08T11:16:17Z</time>
      </trkpt>
      <trkpt lat="45.45492" lon="7.03605">
        <ele>2051.4</ele>
        <time>2020-08-08T11:16:18Z</time>
      </trkpt>
      <trkpt lat="45.45492" lon="7.03589">
        <ele>2050.7</ele>
        <time>2020-08-08T11:16:19Z</time>
      </trkpt>
      <trkpt lat="45.45493" lon="7.03557">
        <ele>2049.4</ele>
        <time>2020-08-08T11:16:21Z</time>
      </trkpt>
      <trkpt lat="45.45495" lon="7.03523">
        <ele>2048.1</ele>
        <time>2020-08-08T11:16:23Z</time>
      </trkpt>
      <trkpt lat="45.45496" lon="7.03507">
        <ele>2047.5</ele>
        <time>2020-08-08T11:16:24Z</time>
      </trkpt>
      <trkpt lat="45.45496" lon="7.0349">
        <ele>2047.1</ele>
        <time>2020-08-08T11:16:25Z</time>
      </trkpt>
      <trkpt lat="45.45493" lon="7.03461">
        <ele>2046.7</ele>
        <time>2020-08-08T11:16:27Z</time>
      </trkpt>
      <trkpt lat="45.4549" lon="7.03447">
        <ele>2046.6</ele>
        <time>2020-08-08T11:16:28Z</time>
      </trkpt>
      <trkpt lat="45.45483" lon="7.0342">
        <ele>2046.4</ele>
        <time>2020-08-08T11:16:30Z</time>
      </trkpt>
      <trkpt lat="45.45479" lon="7.03406">
        <ele>2046.3</ele>
        <time>2020-08-08T11:16:31Z</time>
      </trkpt>
      <trkpt lat="45.45477" lon="7.03394">
        <ele>2046.3</ele>
        <time>2020-08-08T11:16:32Z</time>
      </trkpt>
      <trkpt lat="45.45473" lon="7.0337">
        <ele>2046.2</ele>
        <time>2020-08-08T11:16:34Z</time>
      </trkpt>
      <trkpt lat="45.45467" lon="7.03349">
        <ele>2046.1</ele>
        <time>2020-08-08T11:16:36Z</time>
      </trkpt>
      <trkpt lat="45.4546" lon="7.0333">
        <ele>2045.9</ele>
        <time>2020-08-08T11:16:38Z</time>
      </trkpt>
      <trkpt lat="45.45455" lon="7.03321">
        <ele>2045.9</ele>
        <time>2020-08-08T11:16:39Z</time>
      </trkpt>
      <trkpt lat="45.45448" lon="7.03305">
        <ele>2045.8</ele>
        <time>2020-08-08T11:16:41Z</time>
      </trkpt>
      <trkpt lat="45.45445" lon="7.03298">
        <ele>2045.8</ele>
        <time>2020-08-08T11:16:42Z</time>
      </trkpt>
      <trkpt lat="45.45442" lon="7.03291">
        <ele>2045.7</ele>
        <time>2020-08-08T11:16:43Z</time>
      </trkpt>
      <trkpt lat="45.45439" lon="7.03285">
        <ele>2045.7</ele>
        <time>2020-08-08T11:16:44Z</time>
      </trkpt>
      <trkpt lat="45.45433" lon="7.03274">
        <ele>2045.5</ele>
        <time>2020-08-08T11:16:46Z</time>
      </trkpt>
      <trkpt lat="45.45431" lon="7.0327">
        <ele>2045.5</ele>
        <time>2020-08-08T11:16:47Z</time>
      </trkpt>
      <trkpt lat="45.45428" lon="7.03264">
        <ele>2045.4</ele>
        <time>2020-08-08T11:16:49Z</time>
      </trkpt>
      <trkpt lat="45.45427" lon="7.03263">
        <ele>2045.4</ele>
        <time>2020-08-08T11:16:51Z</time>
      </trkpt>
      <trkpt lat="45.45427" lon="7.03262">
        <ele>2045.4</ele>
        <time>2020-08-08T11:16:52Z</time>
      </trkpt>
      <trkpt lat="45.45427" lon="7.03262">
        <ele>2045.4</ele>
        <time>2020-08-08T11:16:54Z</time>
      </trkpt>
      <trkpt lat="45.45427" lon="7.03261">
        <ele>2045.4</ele>
        <time>2020-08-08T11:16:55Z</time>
      </trkpt>
      <trkpt lat="45.45427" lon="7.03261">
        <ele>2045.4</ele>
        <time>2020-08-08T11:16:57Z</time>
      </trkpt>
      <trkpt lat="45.45426" lon="7.0326">
        <ele>2045.3</ele>
        <time>2020-08-08T11:16:59Z</time>
      </trkpt>
      <trkpt lat="45.45426" lon="7.0326">
        <ele>2045.3</ele>
        <time>2020-08-08T11:19:39Z</time>
      </trkpt>
      <trkpt lat="45.45426" lon="7.03259">
        <ele>2045.3</ele>
        <time>2020-08-08T11:19:40Z</time>
      </trkpt>
      <trkpt lat="45.45423" lon="7.03254">
        <ele>2045.2</ele>
        <time>2020-08-08T11:19:42Z</time>
      </trkpt>
      <trkpt lat="45.4542" lon="7.03248">
        <ele>2045.2</ele>
        <time>2020-08-08T11:19:44Z</time>
      </trkpt>
      <trkpt lat="45.45418" lon="7.03244">
        <ele>2045.2</ele>
        <time>2020-08-08T11:19:45Z</time>
      </trkpt>
      <trkpt lat="45.45411" lon="7.03232">
        <ele>2045.1</ele>
        <time>2020-08-08T11:19:47Z</time>
      </trkpt>
      <trkpt lat="45.45407" lon="7.03223">
        <ele>2045</ele>
        <time>2020-08-08T11:19:50Z</time>
      </trkpt>
      <trkpt lat="45.45405" lon="7.03218">
        <ele>2044.9</ele>
        <time>2020-08-08T11:19:51Z</time>
      </trkpt>
      <trkpt lat="45.45402" lon="7.03212">
        <ele>2044.9</ele>
        <time>2020-08-08T11:19:52Z</time>
      </trkpt>
      <trkpt lat="45.45398" lon="7.03201">
        <ele>2044.8</ele>
        <time>2020-08-08T11:19:54Z</time>
      </trkpt>
      <trkpt lat="45.45395" lon="7.03195">
        <ele>2044.7</ele>
        <time>2020-08-08T11:19:55Z</time>
      </trkpt>
      <trkpt lat="45.45389" lon="7.03184">
        <ele>2044.4</ele>
        <time>2020-08-08T11:19:57Z</time>
      </trkpt>
      <trkpt lat="45.45387" lon="7.03178">
        <ele>2044.3</ele>
        <time>2020-08-08T11:19:58Z</time>
      </trkpt>
      <trkpt lat="45.45385" lon="7.03172">
        <ele>2044.1</ele>
        <time>2020-08-08T11:19:59Z</time>
      </trkpt>
      <trkpt lat="45.45379" lon="7.03159">
        <ele>2043.8</ele>
        <time>2020-08-08T11:20:01Z</time>
      </trkpt>
      <trkpt lat="45.45374" lon="7.03145">
        <ele>2043.4</ele>
        <time>2020-08-08T11:20:03Z</time>
      </trkpt>
      <trkpt lat="45.45368" lon="7.03132">
        <ele>2043</ele>
        <time>2020-08-08T11:20:05Z</time>
      </trkpt>
      <trkpt lat="45.45365" lon="7.03124">
        <ele>2042.8</ele>
        <time>2020-08-08T11:20:06Z</time>
      </trkpt>
      <trkpt lat="45.45362" lon="7.03117">
        <ele>2042.6</ele>
        <time>2020-08-08T11:20:07Z</time>
      </trkpt>
      <trkpt lat="45.45356" lon="7.03102">
        <ele>2042.2</ele>
        <time>2020-08-08T11:20:09Z</time>
      </trkpt>
      <trkpt lat="45.45353" lon="7.03095">
        <ele>2042</ele>
        <time>2020-08-08T11:20:10Z</time>
      </trkpt>
      <trkpt lat="45.45348" lon="7.0308">
        <ele>2041.5</ele>
        <time>2020-08-08T11:20:12Z</time>
      </trkpt>
      <trkpt lat="45.45342" lon="7.03063">
        <ele>2041</ele>
        <time>2020-08-08T11:20:14Z</time>
      </trkpt>
      <trkpt lat="45.45339" lon="7.03056">
        <ele>2040.7</ele>
        <time>2020-08-08T11:20:15Z</time>
      </trkpt>
      <trkpt lat="45.45336" lon="7.03047">
        <ele>2040.5</ele>
        <time>2020-08-08T11:20:16Z</time>
      </trkpt>
      <trkpt lat="45.45332" lon="7.03039">
        <ele>2040.2</ele>
        <time>2020-08-08T11:20:17Z</time>
      </trkpt>
      <trkpt lat="45.45326" lon="7.03022">
        <ele>2039.6</ele>
        <time>2020-08-08T11:20:19Z</time>
      </trkpt>
      <trkpt lat="45.45319" lon="7.03005">
        <ele>2039.1</ele>
        <time>2020-08-08T11:20:21Z</time>
      </trkpt>
      <trkpt lat="45.45312" lon="7.02987">
        <ele>2038.7</ele>
        <time>2020-08-08T11:20:23Z</time>
      </trkpt>
      <trkpt lat="45.45305" lon="7.02971">
        <ele>2038.3</ele>
        <time>2020-08-08T11:20:25Z</time>
      </trkpt>
      <trkpt lat="45.45298" lon="7.02955">
        <ele>2038</ele>
        <time>2020-08-08T11:20:27Z</time>
      </trkpt>
      <trkpt lat="45.45291" lon="7.02939">
        <ele>2037.6</ele>
        <time>2020-08-08T11:20:29Z</time>
      </trkpt>
      <trkpt lat="45.45284" lon="7.02921">
        <ele>2037.2</ele>
        <time>2020-08-08T11:20:31Z</time>
      </trkpt>
      <trkpt lat="45.45281" lon="7.02912">
        <ele>2037</ele>
        <time>2020-08-08T11:20:32Z</time>
      </trkpt>
      <trkpt lat="45.45274" lon="7.02894">
        <ele>2036.5</ele>
        <time>2020-08-08T11:20:34Z</time>
      </trkpt>
      <trkpt lat="45.45268" lon="7.02877">
        <ele>2036.1</ele>
        <time>2020-08-08T11:20:36Z</time>
      </trkpt>
      <trkpt lat="45.45265" lon="7.02868">
        <ele>2035.8</ele>
        <time>2020-08-08T11:20:37Z</time>
      </trkpt>
      <trkpt lat="45.4526" lon="7.02849">
        <ele>2035.3</ele>
        <time>2020-08-08T11:20:39Z</time>
      </trkpt>
      <trkpt lat="45.45259" lon="7.02839">
        <ele>2035</ele>
        <time>2020-08-08T11:20:40Z</time>
      </trkpt>
      <trkpt lat="45.45257" lon="7.0282">
        <ele>2034.5</ele>
        <time>2020-08-08T11:20:42Z</time>
      </trkpt>
      <trkpt lat="45.45256" lon="7.0281">
        <ele>2034.2</ele>
        <time>2020-08-08T11:20:43Z</time>
      </trkpt>
      <trkpt lat="45.45255" lon="7.028">
        <ele>2033.8</ele>
        <time>2020-08-08T11:20:44Z</time>
      </trkpt>
      <trkpt lat="45.45254" lon="7.0278">
        <ele>2033.2</ele>
        <time>2020-08-08T11:20:46Z</time>
      </trkpt>
      <trkpt lat="45.45252" lon="7.0276">
        <ele>2032.8</ele>
        <time>2020-08-08T11:20:48Z</time>
      </trkpt>
      <trkpt lat="45.4525" lon="7.02739">
        <ele>2032.3</ele>
        <time>2020-08-08T11:20:50Z</time>
      </trkpt>
      <trkpt lat="45.45249" lon="7.02728">
        <ele>2032</ele>
        <time>2020-08-08T11:20:51Z</time>
      </trkpt>
      <trkpt lat="45.45248" lon="7.02718">
        <ele>2031.8</ele>
        <time>2020-08-08T11:20:52Z</time>
      </trkpt>
      <trkpt lat="45.45246" lon="7.02708">
        <ele>2031.6</ele>
        <time>2020-08-08T11:20:53Z</time>
      </trkpt>
      <trkpt lat="45.4524" lon="7.02688">
        <ele>2031.2</ele>
        <time>2020-08-08T11:20:55Z</time>
      </trkpt>
      <trkpt lat="45.45233" lon="7.02669">
        <ele>2030.8</ele>
        <time>2020-08-08T11:20:57Z</time>
      </trkpt>
      <trkpt lat="45.45227" lon="7.02651">
        <ele>2030.5</ele>
        <time>2020-08-08T11:20:59Z</time>
      </trkpt>
      <trkpt lat="45.45224" lon="7.02642">
        <ele>2030.3</ele>
        <time>2020-08-08T11:21:00Z</time>
      </trkpt>
      <trkpt lat="45.45221" lon="7.02633">
        <ele>2030.1</ele>
        <time>2020-08-08T11:21:01Z</time>
      </trkpt>
      <trkpt lat="45.45217" lon="7.02624">
        <ele>2029.9</ele>
        <time>2020-08-08T11:21:02Z</time>
      </trkpt>
      <trkpt lat="45.45214" lon="7.02615">
        <ele>2029.7</ele>
        <time>2020-08-08T11:21:03Z</time>
      </trkpt>
      <trkpt lat="45.45208" lon="7.02595">
        <ele>2029.2</ele>
        <time>2020-08-08T11:21:05Z</time>
      </trkpt>
      <trkpt lat="45.45201" lon="7.02577">
        <ele>2028.9</ele>
        <time>2020-08-08T11:21:07Z</time>
      </trkpt>
      <trkpt lat="45.45195" lon="7.02558">
        <ele>2028.5</ele>
        <time>2020-08-08T11:21:09Z</time>
      </trkpt>
      <trkpt lat="45.45187" lon="7.02539">
        <ele>2028.2</ele>
        <time>2020-08-08T11:21:11Z</time>
      </trkpt>
      <trkpt lat="45.45181" lon="7.02521">
        <ele>2027.9</ele>
        <time>2020-08-08T11:21:13Z</time>
      </trkpt>
      <trkpt lat="45.45174" lon="7.02502">
        <ele>2027.6</ele>
        <time>2020-08-08T11:21:15Z</time>
      </trkpt>
      <trkpt lat="45.4517" lon="7.02493">
        <ele>2027.4</ele>
        <time>2020-08-08T11:21:16Z</time>
      </trkpt>
      <trkpt lat="45.45164" lon="7.02476">
        <ele>2027</ele>
        <time>2020-08-08T11:21:18Z</time>
      </trkpt>
      <trkpt lat="45.45161" lon="7.02467">
        <ele>2026.9</ele>
        <time>2020-08-08T11:21:19Z</time>
      </trkpt>
      <trkpt lat="45.45158" lon="7.02459">
        <ele>2026.7</ele>
        <time>2020-08-08T11:21:20Z</time>
      </trkpt>
      <trkpt lat="45.45151" lon="7.02441">
        <ele>2026.5</ele>
        <time>2020-08-08T11:21:22Z</time>
      </trkpt>
      <trkpt lat="45.45145" lon="7.02422">
        <ele>2026.1</ele>
        <time>2020-08-08T11:21:24Z</time>
      </trkpt>
      <trkpt lat="45.45143" lon="7.02412">
        <ele>2025.8</ele>
        <time>2020-08-08T11:21:25Z</time>
      </trkpt>
      <trkpt lat="45.45141" lon="7.02392">
        <ele>2025</ele>
        <time>2020-08-08T11:21:27Z</time>
      </trkpt>
      <trkpt lat="45.45141" lon="7.02381">
        <ele>2024.5</ele>
        <time>2020-08-08T11:21:28Z</time>
      </trkpt>
      <trkpt lat="45.45143" lon="7.02358">
        <ele>2023.3</ele>
        <time>2020-08-08T11:21:30Z</time>
      </trkpt>
      <trkpt lat="45.45153" lon="7.02337">
        <ele>2021.8</ele>
        <time>2020-08-08T11:21:32Z</time>
      </trkpt>
      <trkpt lat="45.45164" lon="7.02319">
        <ele>2020.4</ele>
        <time>2020-08-08T11:21:34Z</time>
      </trkpt>
      <trkpt lat="45.45174" lon="7.02303">
        <ele>2019.2</ele>
        <time>2020-08-08T11:21:36Z</time>
      </trkpt>
      <trkpt lat="45.4518" lon="7.02296">
        <ele>2018.6</ele>
        <time>2020-08-08T11:21:37Z</time>
      </trkpt>
      <trkpt lat="45.45187" lon="7.02291">
        <ele>2018</ele>
        <time>2020-08-08T11:21:38Z</time>
      </trkpt>
      <trkpt lat="45.45202" lon="7.02288">
        <ele>2016.7</ele>
        <time>2020-08-08T11:21:40Z</time>
      </trkpt>
      <trkpt lat="45.45209" lon="7.02288">
        <ele>2016.1</ele>
        <time>2020-08-08T11:21:41Z</time>
      </trkpt>
      <trkpt lat="45.45224" lon="7.02285">
        <ele>2014.8</ele>
        <time>2020-08-08T11:21:43Z</time>
      </trkpt>
      <trkpt lat="45.45231" lon="7.0228">
        <ele>2014.1</ele>
        <time>2020-08-08T11:21:44Z</time>
      </trkpt>
      <trkpt lat="45.45238" lon="7.02273">
        <ele>2013.4</ele>
        <time>2020-08-08T11:21:45Z</time>
      </trkpt>
      <trkpt lat="45.45244" lon="7.02265">
        <ele>2012.7</ele>
        <time>2020-08-08T11:21:46Z</time>
      </trkpt>
      <trkpt lat="45.45252" lon="7.02245">
        <ele>2011.3</ele>
        <time>2020-08-08T11:21:48Z</time>
      </trkpt>
      <trkpt lat="45.45256" lon="7.02234">
        <ele>2010.6</ele>
        <time>2020-08-08T11:21:49Z</time>
      </trkpt>
      <trkpt lat="45.45263" lon="7.02212">
        <ele>2009.3</ele>
        <time>2020-08-08T11:21:51Z</time>
      </trkpt>
      <trkpt lat="45.45266" lon="7.02201">
        <ele>2008.6</ele>
        <time>2020-08-08T11:21:52Z</time>
      </trkpt>
      <trkpt lat="45.45267" lon="7.02178">
        <ele>2007.4</ele>
        <time>2020-08-08T11:21:54Z</time>
      </trkpt>
      <trkpt lat="45.45264" lon="7.02155">
        <ele>2006.3</ele>
        <time>2020-08-08T11:21:56Z</time>
      </trkpt>
      <trkpt lat="45.45261" lon="7.02134">
        <ele>2005.8</ele>
        <time>2020-08-08T11:21:58Z</time>
      </trkpt>
      <trkpt lat="45.45261" lon="7.02123">
        <ele>2005.5</ele>
        <time>2020-08-08T11:21:59Z</time>
      </trkpt>
      <trkpt lat="45.45263" lon="7.02112">
        <ele>2005.1</ele>
        <time>2020-08-08T11:22:00Z</time>
      </trkpt>
      <trkpt lat="45.45267" lon="7.02101">
        <ele>2004.8</ele>
        <time>2020-08-08T11:22:01Z</time>
      </trkpt>
      <trkpt lat="45.45274" lon="7.02079">
        <ele>2004.1</ele>
        <time>2020-08-08T11:22:03Z</time>
      </trkpt>
      <trkpt lat="45.45282" lon="7.02056">
        <ele>2003.9</ele>
        <time>2020-08-08T11:22:05Z</time>
      </trkpt>
      <trkpt lat="45.4529" lon="7.02032">
        <ele>2003.7</ele>
        <time>2020-08-08T11:22:07Z</time>
      </trkpt>
      <trkpt lat="45.45297" lon="7.02009">
        <ele>2002.4</ele>
        <time>2020-08-08T11:22:09Z</time>
      </trkpt>
      <trkpt lat="45.45303" lon="7.01986">
        <ele>2001</ele>
        <time>2020-08-08T11:22:11Z</time>
      </trkpt>
      <trkpt lat="45.45303" lon="7.01961">
        <ele>1999.7</ele>
        <time>2020-08-08T11:22:13Z</time>
      </trkpt>
      <trkpt lat="45.45298" lon="7.01935">
        <ele>1998.2</ele>
        <time>2020-08-08T11:22:15Z</time>
      </trkpt>
      <trkpt lat="45.45295" lon="7.01922">
        <ele>1997.4</ele>
        <time>2020-08-08T11:22:16Z</time>
      </trkpt>
      <trkpt lat="45.4529" lon="7.01896">
        <ele>1995.9</ele>
        <time>2020-08-08T11:22:18Z</time>
      </trkpt>
      <trkpt lat="45.45288" lon="7.01883">
        <ele>1995.2</ele>
        <time>2020-08-08T11:22:19Z</time>
      </trkpt>
      <trkpt lat="45.45283" lon="7.01857">
        <ele>1993.7</ele>
        <time>2020-08-08T11:22:21Z</time>
      </trkpt>
      <trkpt lat="45.45278" lon="7.01832">
        <ele>1992.2</ele>
        <time>2020-08-08T11:22:23Z</time>
      </trkpt>
      <trkpt lat="45.45276" lon="7.01819">
        <ele>1991.4</ele>
        <time>2020-08-08T11:22:24Z</time>
      </trkpt>
      <trkpt lat="45.45273" lon="7.01795">
        <ele>1989.9</ele>
        <time>2020-08-08T11:22:26Z</time>
      </trkpt>
      <trkpt lat="45.45272" lon="7.01783">
        <ele>1989.1</ele>
        <time>2020-08-08T11:22:27Z</time>
      </trkpt>
      <trkpt lat="45.4527" lon="7.01759">
        <ele>1987.6</ele>
        <time>2020-08-08T11:22:29Z</time>
      </trkpt>
      <trkpt lat="45.45267" lon="7.01746">
        <ele>1986.8</ele>
        <time>2020-08-08T11:22:30Z</time>
      </trkpt>
      <trkpt lat="45.45264" lon="7.01734">
        <ele>1986.1</ele>
        <time>2020-08-08T11:22:31Z</time>
      </trkpt>
      <trkpt lat="45.45256" lon="7.01711">
        <ele>1984.6</ele>
        <time>2020-08-08T11:22:33Z</time>
      </trkpt>
      <trkpt lat="45.45249" lon="7.01689">
        <ele>1983.3</ele>
        <time>2020-08-08T11:22:35Z</time>
      </trkpt>
      <trkpt lat="45.45244" lon="7.01678">
        <ele>1982.7</ele>
        <time>2020-08-08T11:22:36Z</time>
      </trkpt>
      <trkpt lat="45.45236" lon="7.01658">
        <ele>1981.4</ele>
        <time>2020-08-08T11:22:38Z</time>
      </trkpt>
      <trkpt lat="45.45227" lon="7.01637">
        <ele>1980.1</ele>
        <time>2020-08-08T11:22:40Z</time>
      </trkpt>
      <trkpt lat="45.45218" lon="7.01616">
        <ele>1978.7</ele>
        <time>2020-08-08T11:22:42Z</time>
      </trkpt>
      <trkpt lat="45.4521" lon="7.01596">
        <ele>1977.4</ele>
        <time>2020-08-08T11:22:44Z</time>
      </trkpt>
      <trkpt lat="45.45206" lon="7.01585">
        <ele>1976.6</ele>
        <time>2020-08-08T11:22:45Z</time>
      </trkpt>
      <trkpt lat="45.45196" lon="7.01562">
        <ele>1975</ele>
        <time>2020-08-08T11:22:47Z</time>
      </trkpt>
      <trkpt lat="45.45188" lon="7.01539">
        <ele>1973.6</ele>
        <time>2020-08-08T11:22:49Z</time>
      </trkpt>
      <trkpt lat="45.4518" lon="7.01516">
        <ele>1972</ele>
        <time>2020-08-08T11:22:51Z</time>
      </trkpt>
      <trkpt lat="45.45175" lon="7.01504">
        <ele>1971.2</ele>
        <time>2020-08-08T11:22:52Z</time>
      </trkpt>
      <trkpt lat="45.45167" lon="7.01482">
        <ele>1969.6</ele>
        <time>2020-08-08T11:22:54Z</time>
      </trkpt>
      <trkpt lat="45.45158" lon="7.01457">
        <ele>1968</ele>
        <time>2020-08-08T11:22:56Z</time>
      </trkpt>
      <trkpt lat="45.45148" lon="7.01433">
        <ele>1966.2</ele>
        <time>2020-08-08T11:22:58Z</time>
      </trkpt>
      <trkpt lat="45.45143" lon="7.01421">
        <ele>1965.5</ele>
        <time>2020-08-08T11:22:59Z</time>
      </trkpt>
      <trkpt lat="45.45134" lon="7.01396">
        <ele>1963.9</ele>
        <time>2020-08-08T11:23:01Z</time>
      </trkpt>
      <trkpt lat="45.45125" lon="7.01372">
        <ele>1962.1</ele>
        <time>2020-08-08T11:23:03Z</time>
      </trkpt>
      <trkpt lat="45.45116" lon="7.01347">
        <ele>1960.4</ele>
        <time>2020-08-08T11:23:05Z</time>
      </trkpt>
      <trkpt lat="45.45111" lon="7.01335">
        <ele>1959.4</ele>
        <time>2020-08-08T11:23:06Z</time>
      </trkpt>
      <trkpt lat="45.45107" lon="7.01322">
        <ele>1958.7</ele>
        <time>2020-08-08T11:23:07Z</time>
      </trkpt>
      <trkpt lat="45.45097" lon="7.01298">
        <ele>1957.2</ele>
        <time>2020-08-08T11:23:09Z</time>
      </trkpt>
      <trkpt lat="45.45093" lon="7.01287">
        <ele>1956.4</ele>
        <time>2020-08-08T11:23:10Z</time>
      </trkpt>
      <trkpt lat="45.45088" lon="7.01275">
        <ele>1955.6</ele>
        <time>2020-08-08T11:23:11Z</time>
      </trkpt>
      <trkpt lat="45.4508" lon="7.01251">
        <ele>1954</ele>
        <time>2020-08-08T11:23:13Z</time>
      </trkpt>
      <trkpt lat="45.45075" lon="7.01227">
        <ele>1952.5</ele>
        <time>2020-08-08T11:23:15Z</time>
      </trkpt>
      <trkpt lat="45.4507" lon="7.01201">
        <ele>1951</ele>
        <time>2020-08-08T11:23:17Z</time>
      </trkpt>
      <trkpt lat="45.45065" lon="7.01176">
        <ele>1949.4</ele>
        <time>2020-08-08T11:23:19Z</time>
      </trkpt>
      <trkpt lat="45.45062" lon="7.01165">
        <ele>1948.7</ele>
        <time>2020-08-08T11:23:20Z</time>
      </trkpt>
      <trkpt lat="45.45057" lon="7.01155">
        <ele>1948.1</ele>
        <time>2020-08-08T11:23:21Z</time>
      </trkpt>
      <trkpt lat="45.45049" lon="7.01138">
        <ele>1948.2</ele>
        <time>2020-08-08T11:23:23Z</time>
      </trkpt>
      <trkpt lat="45.45047" lon="7.01127">
        <ele>1947.6</ele>
        <time>2020-08-08T11:23:24Z</time>
      </trkpt>
      <trkpt lat="45.45046" lon="7.01103">
        <ele>1946.5</ele>
        <time>2020-08-08T11:23:26Z</time>
      </trkpt>
      <trkpt lat="45.45042" lon="7.0108">
        <ele>1945.3</ele>
        <time>2020-08-08T11:23:28Z</time>
      </trkpt>
      <trkpt lat="45.45033" lon="7.0106">
        <ele>1944.4</ele>
        <time>2020-08-08T11:23:30Z</time>
      </trkpt>
      <trkpt lat="45.45028" lon="7.0105">
        <ele>1943.6</ele>
        <time>2020-08-08T11:23:31Z</time>
      </trkpt>
      <trkpt lat="45.45016" lon="7.01032">
        <ele>1942.1</ele>
        <time>2020-08-08T11:23:33Z</time>
      </trkpt>
      <trkpt lat="45.45009" lon="7.01024">
        <ele>1941.3</ele>
        <time>2020-08-08T11:23:34Z</time>
      </trkpt>
      <trkpt lat="45.44998" lon="7.01009">
        <ele>1939.9</ele>
        <time>2020-08-08T11:23:36Z</time>
      </trkpt>
      <trkpt lat="45.44986" lon="7.00994">
        <ele>1938.5</ele>
        <time>2020-08-08T11:23:38Z</time>
      </trkpt>
      <trkpt lat="45.44981" lon="7.00986">
        <ele>1938.5</ele>
        <time>2020-08-08T11:23:39Z</time>
      </trkpt>
      <trkpt lat="45.4497" lon="7.00969">
        <ele>1937.3</ele>
        <time>2020-08-08T11:23:41Z</time>
      </trkpt>
      <trkpt lat="45.44965" lon="7.00961">
        <ele>1936.2</ele>
        <time>2020-08-08T11:23:42Z</time>
      </trkpt>
      <trkpt lat="45.44955" lon="7.00942">
        <ele>1935.1</ele>
        <time>2020-08-08T11:23:44Z</time>
      </trkpt>
      <trkpt lat="45.44946" lon="7.00921">
        <ele>1933.3</ele>
        <time>2020-08-08T11:23:46Z</time>
      </trkpt>
      <trkpt lat="45.44941" lon="7.0091">
        <ele>1932.3</ele>
        <time>2020-08-08T11:23:47Z</time>
      </trkpt>
      <trkpt lat="45.44935" lon="7.00899">
        <ele>1931.3</ele>
        <time>2020-08-08T11:23:48Z</time>
      </trkpt>
      <trkpt lat="45.4493" lon="7.00888">
        <ele>1930.6</ele>
        <time>2020-08-08T11:23:49Z</time>
      </trkpt>
      <trkpt lat="45.4492" lon="7.00865">
        <ele>1929</ele>
        <time>2020-08-08T11:23:51Z</time>
      </trkpt>
      <trkpt lat="45.44914" lon="7.00853">
        <ele>1928.2</ele>
        <time>2020-08-08T11:23:52Z</time>
      </trkpt>
      <trkpt lat="45.44909" lon="7.00842">
        <ele>1927.4</ele>
        <time>2020-08-08T11:23:53Z</time>
      </trkpt>
      <trkpt lat="45.44899" lon="7.00819">
        <ele>1925.8</ele>
        <time>2020-08-08T11:23:55Z</time>
      </trkpt>
      <trkpt lat="45.44889" lon="7.00797">
        <ele>1924.2</ele>
        <time>2020-08-08T11:23:57Z</time>
      </trkpt>
      <trkpt lat="45.44879" lon="7.00775">
        <ele>1922.7</ele>
        <time>2020-08-08T11:23:59Z</time>
      </trkpt>
      <trkpt lat="45.44875" lon="7.00764">
        <ele>1922</ele>
        <time>2020-08-08T11:24:00Z</time>
      </trkpt>
      <trkpt lat="45.44864" lon="7.00742">
        <ele>1920.2</ele>
        <time>2020-08-08T11:24:02Z</time>
      </trkpt>
      <trkpt lat="45.44859" lon="7.0073">
        <ele>1919.2</ele>
        <time>2020-08-08T11:24:03Z</time>
      </trkpt>
      <trkpt lat="45.44853" lon="7.00718">
        <ele>1918.2</ele>
        <time>2020-08-08T11:24:04Z</time>
      </trkpt>
      <trkpt lat="45.44843" lon="7.00695">
        <ele>1916.8</ele>
        <time>2020-08-08T11:24:06Z</time>
      </trkpt>
      <trkpt lat="45.44839" lon="7.00683">
        <ele>1916.1</ele>
        <time>2020-08-08T11:24:07Z</time>
      </trkpt>
      <trkpt lat="45.44832" lon="7.00657">
        <ele>1914.7</ele>
        <time>2020-08-08T11:24:09Z</time>
      </trkpt>
      <trkpt lat="45.4483" lon="7.00643">
        <ele>1914</ele>
        <time>2020-08-08T11:24:10Z</time>
      </trkpt>
      <trkpt lat="45.44828" lon="7.00616">
        <ele>1912.9</ele>
        <time>2020-08-08T11:24:12Z</time>
      </trkpt>
      <trkpt lat="45.44827" lon="7.00602">
        <ele>1912.3</ele>
        <time>2020-08-08T11:24:13Z</time>
      </trkpt>
      <trkpt lat="45.44827" lon="7.00575">
        <ele>1911.2</ele>
        <time>2020-08-08T11:24:15Z</time>
      </trkpt>
      <trkpt lat="45.44826" lon="7.00549">
        <ele>1910.2</ele>
        <time>2020-08-08T11:24:17Z</time>
      </trkpt>
      <trkpt lat="45.44825" lon="7.00523">
        <ele>1909.1</ele>
        <time>2020-08-08T11:24:19Z</time>
      </trkpt>
      <trkpt lat="45.44825" lon="7.0051">
        <ele>1908.6</ele>
        <time>2020-08-08T11:24:20Z</time>
      </trkpt>
      <trkpt lat="45.44825" lon="7.00485">
        <ele>1907.6</ele>
        <time>2020-08-08T11:24:22Z</time>
      </trkpt>
      <trkpt lat="45.44824" lon="7.00473">
        <ele>1907.1</ele>
        <time>2020-08-08T11:24:23Z</time>
      </trkpt>
      <trkpt lat="45.44823" lon="7.0046">
        <ele>1906.6</ele>
        <time>2020-08-08T11:24:24Z</time>
      </trkpt>
      <trkpt lat="45.44822" lon="7.00436">
        <ele>1905.5</ele>
        <time>2020-08-08T11:24:26Z</time>
      </trkpt>
      <trkpt lat="45.44822" lon="7.00412">
        <ele>1904.6</ele>
        <time>2020-08-08T11:24:28Z</time>
      </trkpt>
      <trkpt lat="45.4482" lon="7.00389">
        <ele>1903.6</ele>
        <time>2020-08-08T11:24:30Z</time>
      </trkpt>
      <trkpt lat="45.44819" lon="7.00377">
        <ele>1903.2</ele>
        <time>2020-08-08T11:24:31Z</time>
      </trkpt>
      <trkpt lat="45.44817" lon="7.00353">
        <ele>1902.3</ele>
        <time>2020-08-08T11:24:33Z</time>
      </trkpt>
      <trkpt lat="45.44816" lon="7.00329">
        <ele>1901.5</ele>
        <time>2020-08-08T11:24:35Z</time>
      </trkpt>
      <trkpt lat="45.44815" lon="7.00317">
        <ele>1901.1</ele>
        <time>2020-08-08T11:24:36Z</time>
      </trkpt>
      <trkpt lat="45.44812" lon="7.00293">
        <ele>1900.2</ele>
        <time>2020-08-08T11:24:38Z</time>
      </trkpt>
      <trkpt lat="45.4481" lon="7.00282">
        <ele>1899.8</ele>
        <time>2020-08-08T11:24:39Z</time>
      </trkpt>
      <trkpt lat="45.44806" lon="7.00258">
        <ele>1898.9</ele>
        <time>2020-08-08T11:24:41Z</time>
      </trkpt>
      <trkpt lat="45.44804" lon="7.00246">
        <ele>1898.4</ele>
        <time>2020-08-08T11:24:42Z</time>
      </trkpt>
      <trkpt lat="45.44802" lon="7.00233">
        <ele>1898</ele>
        <time>2020-08-08T11:24:43Z</time>
      </trkpt>
      <trkpt lat="45.448" lon="7.00221">
        <ele>1897.5</ele>
        <time>2020-08-08T11:24:44Z</time>
      </trkpt>
      <trkpt lat="45.44795" lon="7.00196">
        <ele>1896.4</ele>
        <time>2020-08-08T11:24:46Z</time>
      </trkpt>
      <trkpt lat="45.4479" lon="7.00172">
        <ele>1895.1</ele>
        <time>2020-08-08T11:24:48Z</time>
      </trkpt>
      <trkpt lat="45.44788" lon="7.00159">
        <ele>1894.5</ele>
        <time>2020-08-08T11:24:49Z</time>
      </trkpt>
      <trkpt lat="45.44785" lon="7.00134">
        <ele>1893</ele>
        <time>2020-08-08T11:24:51Z</time>
      </trkpt>
      <trkpt lat="45.44784" lon="7.00107">
        <ele>1891.4</ele>
        <time>2020-08-08T11:24:53Z</time>
      </trkpt>
      <trkpt lat="45.44783" lon="7.00081">
        <ele>1889.9</ele>
        <time>2020-08-08T11:24:55Z</time>
      </trkpt>
      <trkpt lat="45.44782" lon="7.00067">
        <ele>1889.1</ele>
        <time>2020-08-08T11:24:56Z</time>
      </trkpt>
      <trkpt lat="45.44781" lon="7.00054">
        <ele>1888.4</ele>
        <time>2020-08-08T11:24:57Z</time>
      </trkpt>
      <trkpt lat="45.44778" lon="7.00027">
        <ele>1887.1</ele>
        <time>2020-08-08T11:24:59Z</time>
      </trkpt>
      <trkpt lat="45.44776" lon="7.00013">
        <ele>1886.4</ele>
        <time>2020-08-08T11:25:00Z</time>
      </trkpt>
      <trkpt lat="45.44773" lon="7">
        <ele>1885.7</ele>
        <time>2020-08-08T11:25:01Z</time>
      </trkpt>
      <trkpt lat="45.44768" lon="6.99974">
        <ele>1884.4</ele>
        <time>2020-08-08T11:25:03Z</time>
      </trkpt>
      <trkpt lat="45.44763" lon="6.99948">
        <ele>1883.2</ele>
        <time>2020-08-08T11:25:05Z</time>
      </trkpt>
      <trkpt lat="45.44759" lon="6.99922">
        <ele>1881.9</ele>
        <time>2020-08-08T11:25:07Z</time>
      </trkpt>
      <trkpt lat="45.44755" lon="6.99896">
        <ele>1880.8</ele>
        <time>2020-08-08T11:25:09Z</time>
      </trkpt>
      <trkpt lat="45.44751" lon="6.9987">
        <ele>1879.9</ele>
        <time>2020-08-08T11:25:11Z</time>
      </trkpt>
      <trkpt lat="45.44746" lon="6.99844">
        <ele>1879.1</ele>
        <time>2020-08-08T11:25:13Z</time>
      </trkpt>
      <trkpt lat="45.44745" lon="6.99831">
        <ele>1878.7</ele>
        <time>2020-08-08T11:25:14Z</time>
      </trkpt>
      <trkpt lat="45.44743" lon="6.99806">
        <ele>1877.9</ele>
        <time>2020-08-08T11:25:16Z</time>
      </trkpt>
      <trkpt lat="45.44742" lon="6.99783">
        <ele>1877.2</ele>
        <time>2020-08-08T11:25:18Z</time>
      </trkpt>
      <trkpt lat="45.44742" lon="6.9977">
        <ele>1876.8</ele>
        <time>2020-08-08T11:25:19Z</time>
      </trkpt>
      <trkpt lat="45.44741" lon="6.99744">
        <ele>1876.2</ele>
        <time>2020-08-08T11:25:21Z</time>
      </trkpt>
      <trkpt lat="45.4474" lon="6.99731">
        <ele>1875.8</ele>
        <time>2020-08-08T11:25:22Z</time>
      </trkpt>
      <trkpt lat="45.44739" lon="6.99706">
        <ele>1875.2</ele>
        <time>2020-08-08T11:25:24Z</time>
      </trkpt>
      <trkpt lat="45.44739" lon="6.99694">
        <ele>1874.9</ele>
        <time>2020-08-08T11:25:25Z</time>
      </trkpt>
      <trkpt lat="45.44738" lon="6.9967">
        <ele>1874.3</ele>
        <time>2020-08-08T11:25:27Z</time>
      </trkpt>
      <trkpt lat="45.44738" lon="6.99658">
        <ele>1874</ele>
        <time>2020-08-08T11:25:28Z</time>
      </trkpt>
      <trkpt lat="45.44738" lon="6.99634">
        <ele>1873.4</ele>
        <time>2020-08-08T11:25:30Z</time>
      </trkpt>
      <trkpt lat="45.44738" lon="6.9961">
        <ele>1872.7</ele>
        <time>2020-08-08T11:25:32Z</time>
      </trkpt>
      <trkpt lat="45.44738" lon="6.99587">
        <ele>1872.1</ele>
        <time>2020-08-08T11:25:34Z</time>
      </trkpt>
      <trkpt lat="45.44737" lon="6.99564">
        <ele>1871.4</ele>
        <time>2020-08-08T11:25:36Z</time>
      </trkpt>
      <trkpt lat="45.44737" lon="6.99542">
        <ele>1870.9</ele>
        <time>2020-08-08T11:25:38Z</time>
      </trkpt>
      <trkpt lat="45.44737" lon="6.99531">
        <ele>1870.5</ele>
        <time>2020-08-08T11:25:39Z</time>
      </trkpt>
      <trkpt lat="45.44737" lon="6.9951">
        <ele>1869.9</ele>
        <time>2020-08-08T11:25:41Z</time>
      </trkpt>
      <trkpt lat="45.44736" lon="6.99488">
        <ele>1869.2</ele>
        <time>2020-08-08T11:25:43Z</time>
      </trkpt>
      <trkpt lat="45.44737" lon="6.99466">
        <ele>1868.5</ele>
        <time>2020-08-08T11:25:45Z</time>
      </trkpt>
      <trkpt lat="45.44738" lon="6.99444">
        <ele>1867.9</ele>
        <time>2020-08-08T11:25:47Z</time>
      </trkpt>
      <trkpt lat="45.4474" lon="6.99421">
        <ele>1867.2</ele>
        <time>2020-08-08T11:25:49Z</time>
      </trkpt>
      <trkpt lat="45.44741" lon="6.99399">
        <ele>1866.3</ele>
        <time>2020-08-08T11:25:51Z</time>
      </trkpt>
      <trkpt lat="45.44742" lon="6.99376">
        <ele>1865.3</ele>
        <time>2020-08-08T11:25:53Z</time>
      </trkpt>
      <trkpt lat="45.4474" lon="6.99356">
        <ele>1864.5</ele>
        <time>2020-08-08T11:25:55Z</time>
      </trkpt>
      <trkpt lat="45.44739" lon="6.99335">
        <ele>1863.8</ele>
        <time>2020-08-08T11:25:57Z</time>
      </trkpt>
      <trkpt lat="45.44737" lon="6.99314">
        <ele>1863</ele>
        <time>2020-08-08T11:25:59Z</time>
      </trkpt>
      <trkpt lat="45.44735" lon="6.99293">
        <ele>1862.1</ele>
        <time>2020-08-08T11:26:01Z</time>
      </trkpt>
      <trkpt lat="45.44734" lon="6.99282">
        <ele>1861.7</ele>
        <time>2020-08-08T11:26:02Z</time>
      </trkpt>
      <trkpt lat="45.44732" lon="6.99271">
        <ele>1861.2</ele>
        <time>2020-08-08T11:26:03Z</time>
      </trkpt>
      <trkpt lat="45.44729" lon="6.99249">
        <ele>1860.3</ele>
        <time>2020-08-08T11:26:05Z</time>
      </trkpt>
      <trkpt lat="45.44726" lon="6.99227">
        <ele>1859.5</ele>
        <time>2020-08-08T11:26:07Z</time>
      </trkpt>
      <trkpt lat="45.44724" lon="6.99216">
        <ele>1859.1</ele>
        <time>2020-08-08T11:26:08Z</time>
      </trkpt>
      <trkpt lat="45.44721" lon="6.99195">
        <ele>1858.2</ele>
        <time>2020-08-08T11:26:10Z</time>
      </trkpt>
      <trkpt lat="45.44719" lon="6.99184">
        <ele>1857.8</ele>
        <time>2020-08-08T11:26:11Z</time>
      </trkpt>
      <trkpt lat="45.44715" lon="6.99164">
        <ele>1857</ele>
        <time>2020-08-08T11:26:13Z</time>
      </trkpt>
      <trkpt lat="45.44712" lon="6.99144">
        <ele>1856.3</ele>
        <time>2020-08-08T11:26:15Z</time>
      </trkpt>
      <trkpt lat="45.44711" lon="6.99134">
        <ele>1856.3</ele>
        <time>2020-08-08T11:26:16Z</time>
      </trkpt>
      <trkpt lat="45.44707" lon="6.99113">
        <ele>1856</ele>
        <time>2020-08-08T11:26:18Z</time>
      </trkpt>
      <trkpt lat="45.44706" lon="6.99102">
        <ele>1855.7</ele>
        <time>2020-08-08T11:26:19Z</time>
      </trkpt>
      <trkpt lat="45.44705" lon="6.99091">
        <ele>1855.4</ele>
        <time>2020-08-08T11:26:20Z</time>
      </trkpt>
      <trkpt lat="45.44702" lon="6.99069">
        <ele>1854.9</ele>
        <time>2020-08-08T11:26:22Z</time>
      </trkpt>
      <trkpt lat="45.447" lon="6.99058">
        <ele>1854.6</ele>
        <time>2020-08-08T11:26:23Z</time>
      </trkpt>
      <trkpt lat="45.44699" lon="6.99047">
        <ele>1854.4</ele>
        <time>2020-08-08T11:26:24Z</time>
      </trkpt>
      <trkpt lat="45.44697" lon="6.99037">
        <ele>1854.1</ele>
        <time>2020-08-08T11:26:25Z</time>
      </trkpt>
      <trkpt lat="45.44694" lon="6.99018">
        <ele>1853.6</ele>
        <time>2020-08-08T11:26:27Z</time>
      </trkpt>
      <trkpt lat="45.4469" lon="6.98999">
        <ele>1853.1</ele>
        <time>2020-08-08T11:26:29Z</time>
      </trkpt>
      <trkpt lat="45.44688" lon="6.98989">
        <ele>1852.9</ele>
        <time>2020-08-08T11:26:30Z</time>
      </trkpt>
      <trkpt lat="45.44684" lon="6.98968">
        <ele>1852.4</ele>
        <time>2020-08-08T11:26:32Z</time>
      </trkpt>
      <trkpt lat="45.44681" lon="6.98948">
        <ele>1851.9</ele>
        <time>2020-08-08T11:26:34Z</time>
      </trkpt>
      <trkpt lat="45.44678" lon="6.98927">
        <ele>1851.6</ele>
        <time>2020-08-08T11:26:36Z</time>
      </trkpt>
      <trkpt lat="45.44674" lon="6.98906">
        <ele>1851.3</ele>
        <time>2020-08-08T11:26:38Z</time>
      </trkpt>
      <trkpt lat="45.44671" lon="6.98886">
        <ele>1851.6</ele>
        <time>2020-08-08T11:26:40Z</time>
      </trkpt>
      <trkpt lat="45.44668" lon="6.9887">
        <ele>1851.8</ele>
        <time>2020-08-08T11:26:42Z</time>
      </trkpt>
      <trkpt lat="45.44666" lon="6.98862">
        <ele>1851.9</ele>
        <time>2020-08-08T11:26:43Z</time>
      </trkpt>
      <trkpt lat="45.44665" lon="6.98854">
        <ele>1852</ele>
        <time>2020-08-08T11:26:44Z</time>
      </trkpt>
      <trkpt lat="45.44664" lon="6.98847">
        <ele>1852.1</ele>
        <time>2020-08-08T11:26:45Z</time>
      </trkpt>
      <trkpt lat="45.44663" lon="6.98832">
        <ele>1852.1</ele>
        <time>2020-08-08T11:26:47Z</time>
      </trkpt>
      <trkpt lat="45.44664" lon="6.98825">
        <ele>1852.1</ele>
        <time>2020-08-08T11:26:48Z</time>
      </trkpt>
      <trkpt lat="45.44664" lon="6.98809">
        <ele>1852.1</ele>
        <time>2020-08-08T11:26:50Z</time>
      </trkpt>
      <trkpt lat="45.44662" lon="6.98793">
        <ele>1852.1</ele>
        <time>2020-08-08T11:26:52Z</time>
      </trkpt>
      <trkpt lat="45.44658" lon="6.98785">
        <ele>1851.8</ele>
        <time>2020-08-08T11:26:53Z</time>
      </trkpt>
      <trkpt lat="45.44653" lon="6.98771">
        <ele>1851.3</ele>
        <time>2020-08-08T11:26:55Z</time>
      </trkpt>
      <trkpt lat="45.44651" lon="6.98763">
        <ele>1851</ele>
        <time>2020-08-08T11:26:56Z</time>
      </trkpt>
      <trkpt lat="45.4465" lon="6.98747">
        <ele>1850.3</ele>
        <time>2020-08-08T11:26:58Z</time>
      </trkpt>
      <trkpt lat="45.44649" lon="6.98738">
        <ele>1849.9</ele>
        <time>2020-08-08T11:26:59Z</time>
      </trkpt>
      <trkpt lat="45.4465" lon="6.98719">
        <ele>1849</ele>
        <time>2020-08-08T11:27:01Z</time>
      </trkpt>
      <trkpt lat="45.44651" lon="6.987">
        <ele>1848.2</ele>
        <time>2020-08-08T11:27:03Z</time>
      </trkpt>
      <trkpt lat="45.44653" lon="6.9869">
        <ele>1847.8</ele>
        <time>2020-08-08T11:27:04Z</time>
      </trkpt>
      <trkpt lat="45.44656" lon="6.98672">
        <ele>1847</ele>
        <time>2020-08-08T11:27:06Z</time>
      </trkpt>
      <trkpt lat="45.44658" lon="6.98662">
        <ele>1846.6</ele>
        <time>2020-08-08T11:27:07Z</time>
      </trkpt>
      <trkpt lat="45.44659" lon="6.98653">
        <ele>1846.2</ele>
        <time>2020-08-08T11:27:08Z</time>
      </trkpt>
      <trkpt lat="45.44664" lon="6.98634">
        <ele>1845.5</ele>
        <time>2020-08-08T11:27:10Z</time>
      </trkpt>
      <trkpt lat="45.44667" lon="6.98625">
        <ele>1845.1</ele>
        <time>2020-08-08T11:27:11Z</time>
      </trkpt>
      <trkpt lat="45.44672" lon="6.98606">
        <ele>1844.5</ele>
        <time>2020-08-08T11:27:13Z</time>
      </trkpt>
      <trkpt lat="45.44677" lon="6.98589">
        <ele>1843.9</ele>
        <time>2020-08-08T11:27:15Z</time>
      </trkpt>
      <trkpt lat="45.44683" lon="6.98571">
        <ele>1843.3</ele>
        <time>2020-08-08T11:27:17Z</time>
      </trkpt>
      <trkpt lat="45.44692" lon="6.98552">
        <ele>1842.7</ele>
        <time>2020-08-08T11:27:19Z</time>
      </trkpt>
      <trkpt lat="45.447" lon="6.98534">
        <ele>1842.2</ele>
        <time>2020-08-08T11:27:21Z</time>
      </trkpt>
      <trkpt lat="45.44708" lon="6.98516">
        <ele>1841.8</ele>
        <time>2020-08-08T11:27:23Z</time>
      </trkpt>
      <trkpt lat="45.44715" lon="6.98498">
        <ele>1841.4</ele>
        <time>2020-08-08T11:27:25Z</time>
      </trkpt>
      <trkpt lat="45.44719" lon="6.98489">
        <ele>1841.2</ele>
        <time>2020-08-08T11:27:26Z</time>
      </trkpt>
      <trkpt lat="45.44725" lon="6.98472">
        <ele>1840.8</ele>
        <time>2020-08-08T11:27:28Z</time>
      </trkpt>
      <trkpt lat="45.44729" lon="6.98463">
        <ele>1840.6</ele>
        <time>2020-08-08T11:27:29Z</time>
      </trkpt>
      <trkpt lat="45.44732" lon="6.98454">
        <ele>1840.5</ele>
        <time>2020-08-08T11:27:30Z</time>
      </trkpt>
      <trkpt lat="45.44738" lon="6.98437">
        <ele>1840.2</ele>
        <time>2020-08-08T11:27:32Z</time>
      </trkpt>
      <trkpt lat="45.44743" lon="6.98419">
        <ele>1839.9</ele>
        <time>2020-08-08T11:27:34Z</time>
      </trkpt>
      <trkpt lat="45.44746" lon="6.98411">
        <ele>1839.8</ele>
        <time>2020-08-08T11:27:35Z</time>
      </trkpt>
      <trkpt lat="45.44751" lon="6.98395">
        <ele>1839.5</ele>
        <time>2020-08-08T11:27:37Z</time>
      </trkpt>
      <trkpt lat="45.44756" lon="6.98378">
        <ele>1839.2</ele>
        <time>2020-08-08T11:27:39Z</time>
      </trkpt>
      <trkpt lat="45.44759" lon="6.98369">
        <ele>1839.1</ele>
        <time>2020-08-08T11:27:40Z</time>
      </trkpt>
      <trkpt lat="45.44761" lon="6.98361">
        <ele>1838.9</ele>
        <time>2020-08-08T11:27:41Z</time>
      </trkpt>
      <trkpt lat="45.44767" lon="6.98344">
        <ele>1838.6</ele>
        <time>2020-08-08T11:27:43Z</time>
      </trkpt>
      <trkpt lat="45.44772" lon="6.98326">
        <ele>1838.4</ele>
        <time>2020-08-08T11:27:45Z</time>
      </trkpt>
      <trkpt lat="45.44778" lon="6.98309">
        <ele>1838.1</ele>
        <time>2020-08-08T11:27:47Z</time>
      </trkpt>
      <trkpt lat="45.44782" lon="6.98293">
        <ele>1837.8</ele>
        <time>2020-08-08T11:27:49Z</time>
      </trkpt>
      <trkpt lat="45.44784" lon="6.98285">
        <ele>1837.7</ele>
        <time>2020-08-08T11:27:50Z</time>
      </trkpt>
      <trkpt lat="45.44789" lon="6.98269">
        <ele>1837.3</ele>
        <time>2020-08-08T11:27:52Z</time>
      </trkpt>
      <trkpt lat="45.44792" lon="6.98262">
        <ele>1837.2</ele>
        <time>2020-08-08T11:27:53Z</time>
      </trkpt>
      <trkpt lat="45.44798" lon="6.98246">
        <ele>1836.8</ele>
        <time>2020-08-08T11:27:55Z</time>
      </trkpt>
      <trkpt lat="45.448" lon="6.98238">
        <ele>1836.5</ele>
        <time>2020-08-08T11:27:56Z</time>
      </trkpt>
      <trkpt lat="45.44803" lon="6.9823">
        <ele>1836.3</ele>
        <time>2020-08-08T11:27:57Z</time>
      </trkpt>
      <trkpt lat="45.44807" lon="6.98213">
        <ele>1835.9</ele>
        <time>2020-08-08T11:27:59Z</time>
      </trkpt>
      <trkpt lat="45.44813" lon="6.98195">
        <ele>1835.5</ele>
        <time>2020-08-08T11:28:01Z</time>
      </trkpt>
      <trkpt lat="45.44816" lon="6.98186">
        <ele>1835.3</ele>
        <time>2020-08-08T11:28:02Z</time>
      </trkpt>
      <trkpt lat="45.44823" lon="6.98168">
        <ele>1834.9</ele>
        <time>2020-08-08T11:28:04Z</time>
      </trkpt>
      <trkpt lat="45.44827" lon="6.98159">
        <ele>1834.7</ele>
        <time>2020-08-08T11:28:05Z</time>
      </trkpt>
      <trkpt lat="45.44831" lon="6.9815">
        <ele>1834.5</ele>
        <time>2020-08-08T11:28:06Z</time>
      </trkpt>
      <trkpt lat="45.44838" lon="6.98134">
        <ele>1834.3</ele>
        <time>2020-08-08T11:28:08Z</time>
      </trkpt>
      <trkpt lat="45.44842" lon="6.98127">
        <ele>1834.1</ele>
        <time>2020-08-08T11:28:09Z</time>
      </trkpt>
      <trkpt lat="45.44845" lon="6.98119">
        <ele>1834</ele>
        <time>2020-08-08T11:28:10Z</time>
      </trkpt>
      <trkpt lat="45.44849" lon="6.98111">
        <ele>1833.9</ele>
        <time>2020-08-08T11:28:11Z</time>
      </trkpt>
      <trkpt lat="45.44858" lon="6.98095">
        <ele>1833.7</ele>
        <time>2020-08-08T11:28:13Z</time>
      </trkpt>
      <trkpt lat="45.44861" lon="6.98087">
        <ele>1833.6</ele>
        <time>2020-08-08T11:28:14Z</time>
      </trkpt>
      <trkpt lat="45.44865" lon="6.98079">
        <ele>1833.5</ele>
        <time>2020-08-08T11:28:15Z</time>
      </trkpt>
      <trkpt lat="45.44869" lon="6.98071">
        <ele>1833.5</ele>
        <time>2020-08-08T11:28:16Z</time>
      </trkpt>
      <trkpt lat="45.44875" lon="6.98055">
        <ele>1833.5</ele>
        <time>2020-08-08T11:28:18Z</time>
      </trkpt>
      <trkpt lat="45.44881" lon="6.98041">
        <ele>1833.5</ele>
        <time>2020-08-08T11:28:20Z</time>
      </trkpt>
      <trkpt lat="45.44886" lon="6.98031">
        <ele>1833.4</ele>
        <time>2020-08-08T11:28:22Z</time>
      </trkpt>
      <trkpt lat="45.44888" lon="6.98027">
        <ele>1833.4</ele>
        <time>2020-08-08T11:28:23Z</time>
      </trkpt>
      <trkpt lat="45.4489" lon="6.98026">
        <ele>1833.4</ele>
        <time>2020-08-08T11:28:24Z</time>
      </trkpt>
      <trkpt lat="45.44895" lon="6.98023">
        <ele>1833.3</ele>
        <time>2020-08-08T11:28:26Z</time>
      </trkpt>
      <trkpt lat="45.44901" lon="6.98017">
        <ele>1833.4</ele>
        <time>2020-08-08T11:28:28Z</time>
      </trkpt>
      <trkpt lat="45.44903" lon="6.98012">
        <ele>1833.5</ele>
        <time>2020-08-08T11:28:29Z</time>
      </trkpt>
      <trkpt lat="45.44904" lon="6.98007">
        <ele>1833.5</ele>
        <time>2020-08-08T11:28:30Z</time>
      </trkpt>
      <trkpt lat="45.44905" lon="6.97996">
        <ele>1833.4</ele>
        <time>2020-08-08T11:28:32Z</time>
      </trkpt>
      <trkpt lat="45.44905" lon="6.9799">
        <ele>1833.3</ele>
        <time>2020-08-08T11:28:33Z</time>
      </trkpt>
      <trkpt lat="45.44906" lon="6.97984">
        <ele>1832.9</ele>
        <time>2020-08-08T11:28:34Z</time>
      </trkpt>
      <trkpt lat="45.44911" lon="6.97971">
        <ele>1832.4</ele>
        <time>2020-08-08T11:28:36Z</time>
      </trkpt>
      <trkpt lat="45.44914" lon="6.97965">
        <ele>1832.2</ele>
        <time>2020-08-08T11:28:37Z</time>
      </trkpt>
      <trkpt lat="45.44919" lon="6.97953">
        <ele>1831.7</ele>
        <time>2020-08-08T11:28:39Z</time>
      </trkpt>
      <trkpt lat="45.4492" lon="6.97949">
        <ele>1831.5</ele>
        <time>2020-08-08T11:28:40Z</time>
      </trkpt>
      <trkpt lat="45.44926" lon="6.97938">
        <ele>1831.1</ele>
        <time>2020-08-08T11:28:42Z</time>
      </trkpt>
      <trkpt lat="45.44928" lon="6.97932">
        <ele>1830.8</ele>
        <time>2020-08-08T11:28:43Z</time>
      </trkpt>
      <trkpt lat="45.44932" lon="6.97922">
        <ele>1830.4</ele>
        <time>2020-08-08T11:28:45Z</time>
      </trkpt>
      <trkpt lat="45.44938" lon="6.97909">
        <ele>1829.8</ele>
        <time>2020-08-08T11:28:47Z</time>
      </trkpt>
      <trkpt lat="45.44942" lon="6.97902">
        <ele>1829.5</ele>
        <time>2020-08-08T11:28:48Z</time>
      </trkpt>
      <trkpt lat="45.44945" lon="6.97896">
        <ele>1829.2</ele>
        <time>2020-08-08T11:28:49Z</time>
      </trkpt>
      <trkpt lat="45.4495" lon="6.97883">
        <ele>1828.6</ele>
        <time>2020-08-08T11:28:51Z</time>
      </trkpt>
      <trkpt lat="45.44952" lon="6.97876">
        <ele>1828.3</ele>
        <time>2020-08-08T11:28:52Z</time>
      </trkpt>
      <trkpt lat="45.44957" lon="6.97863">
        <ele>1827.8</ele>
        <time>2020-08-08T11:28:54Z</time>
      </trkpt>
      <trkpt lat="45.44961" lon="6.97849">
        <ele>1827.2</ele>
        <time>2020-08-08T11:28:56Z</time>
      </trkpt>
      <trkpt lat="45.44966" lon="6.97837">
        <ele>1826.7</ele>
        <time>2020-08-08T11:28:58Z</time>
      </trkpt>
      <trkpt lat="45.44968" lon="6.9783">
        <ele>1826.5</ele>
        <time>2020-08-08T11:28:59Z</time>
      </trkpt>
      <trkpt lat="45.4497" lon="6.97824">
        <ele>1826.2</ele>
        <time>2020-08-08T11:29:00Z</time>
      </trkpt>
      <trkpt lat="45.44974" lon="6.97811">
        <ele>1825.7</ele>
        <time>2020-08-08T11:29:02Z</time>
      </trkpt>
      <trkpt lat="45.44977" lon="6.97804">
        <ele>1825.4</ele>
        <time>2020-08-08T11:29:03Z</time>
      </trkpt>
      <trkpt lat="45.44981" lon="6.97791">
        <ele>1824.9</ele>
        <time>2020-08-08T11:29:05Z</time>
      </trkpt>
      <trkpt lat="45.44987" lon="6.97778">
        <ele>1824.4</ele>
        <time>2020-08-08T11:29:07Z</time>
      </trkpt>
      <trkpt lat="45.44993" lon="6.97765">
        <ele>1823.8</ele>
        <time>2020-08-08T11:29:09Z</time>
      </trkpt>
      <trkpt lat="45.44997" lon="6.97758">
        <ele>1823.5</ele>
        <time>2020-08-08T11:29:10Z</time>
      </trkpt>
      <trkpt lat="45.45007" lon="6.97748">
        <ele>1823.1</ele>
        <time>2020-08-08T11:29:12Z</time>
      </trkpt>
      <trkpt lat="45.45012" lon="6.97744">
        <ele>1823</ele>
        <time>2020-08-08T11:29:13Z</time>
      </trkpt>
      <trkpt lat="45.4502" lon="6.97733">
        <ele>1822.7</ele>
        <time>2020-08-08T11:29:15Z</time>
      </trkpt>
      <trkpt lat="45.45025" lon="6.97728">
        <ele>1822.6</ele>
        <time>2020-08-08T11:29:16Z</time>
      </trkpt>
      <trkpt lat="45.45035" lon="6.97719">
        <ele>1822.3</ele>
        <time>2020-08-08T11:29:18Z</time>
      </trkpt>
      <trkpt lat="45.45045" lon="6.97709">
        <ele>1822</ele>
        <time>2020-08-08T11:29:20Z</time>
      </trkpt>
      <trkpt lat="45.45049" lon="6.97703">
        <ele>1821.9</ele>
        <time>2020-08-08T11:29:21Z</time>
      </trkpt>
      <trkpt lat="45.45056" lon="6.97692">
        <ele>1821.7</ele>
        <time>2020-08-08T11:29:23Z</time>
      </trkpt>
      <trkpt lat="45.45059" lon="6.97687">
        <ele>1821.6</ele>
        <time>2020-08-08T11:29:24Z</time>
      </trkpt>
      <trkpt lat="45.4506" lon="6.97684">
        <ele>1821.6</ele>
        <time>2020-08-08T11:29:25Z</time>
      </trkpt>
      <trkpt lat="45.45064" lon="6.97674">
        <ele>1821.4</ele>
        <time>2020-08-08T11:29:27Z</time>
      </trkpt>
      <trkpt lat="45.45066" lon="6.9767">
        <ele>1821.3</ele>
        <time>2020-08-08T11:29:28Z</time>
      </trkpt>
      <trkpt lat="45.45069" lon="6.97664">
        <ele>1821.2</ele>
        <time>2020-08-08T11:29:29Z</time>
      </trkpt>
      <trkpt lat="45.45074" lon="6.9765">
        <ele>1820.9</ele>
        <time>2020-08-08T11:29:30Z</time>
      </trkpt>
      <trkpt lat="45.45077" lon="6.9764">
        <ele>1820.8</ele>
        <time>2020-08-08T11:29:33Z</time>
      </trkpt>
      <trkpt lat="45.45081" lon="6.97632">
        <ele>1820.6</ele>
        <time>2020-08-08T11:29:35Z</time>
      </trkpt>
      <trkpt lat="45.45082" lon="6.97624">
        <ele>1820.4</ele>
        <time>2020-08-08T11:29:37Z</time>
      </trkpt>
      <trkpt lat="45.45082" lon="6.9762">
        <ele>1820.4</ele>
        <time>2020-08-08T11:29:38Z</time>
      </trkpt>
      <trkpt lat="45.45082" lon="6.97615">
        <ele>1820.3</ele>
        <time>2020-08-08T11:29:40Z</time>
      </trkpt>
      <trkpt lat="45.45084" lon="6.97614">
        <ele>1820.2</ele>
        <time>2020-08-08T11:29:42Z</time>
      </trkpt>
      <trkpt lat="45.45087" lon="6.97616">
        <ele>1820.2</ele>
        <time>2020-08-08T11:29:43Z</time>
      </trkpt>
      <trkpt lat="45.45089" lon="6.97617">
        <ele>1820.1</ele>
        <time>2020-08-08T11:29:44Z</time>
      </trkpt>
      <trkpt lat="45.45091" lon="6.97619">
        <ele>1820.1</ele>
        <time>2020-08-08T11:29:46Z</time>
      </trkpt>
      <trkpt lat="45.45093" lon="6.9762">
        <ele>1820</ele>
        <time>2020-08-08T11:29:47Z</time>
      </trkpt>
      <trkpt lat="45.45095" lon="6.97622">
        <ele>1820</ele>
        <time>2020-08-08T11:29:48Z</time>
      </trkpt>
      <trkpt lat="45.45097" lon="6.97624">
        <ele>1819.9</ele>
        <time>2020-08-08T11:29:51Z</time>
      </trkpt>
      <trkpt lat="45.45099" lon="6.97625">
        <ele>1819.9</ele>
        <time>2020-08-08T11:29:52Z</time>
      </trkpt>
      <trkpt lat="45.45101" lon="6.97627">
        <ele>1819.8</ele>
        <time>2020-08-08T13:14:07Z</time>
      </trkpt>
      <trkpt lat="45.45103" lon="6.97629">
        <ele>1819.8</ele>
        <time>2020-08-08T13:14:08Z</time>
      </trkpt>
      <trkpt lat="45.45105" lon="6.9763">
        <ele>1819.7</ele>
        <time>2020-08-08T13:14:09Z</time>
      </trkpt>
      <trkpt lat="45.45108" lon="6.97636">
        <ele>1819.6</ele>
        <time>2020-08-08T13:14:10Z</time>
      </trkpt>
      <trkpt lat="45.45105" lon="6.97642">
        <ele>1819.5</ele>
        <time>2020-08-08T13:14:12Z</time>
      </trkpt>
      <trkpt lat="45.45102" lon="6.97644">
        <ele>1819.5</ele>
        <time>2020-08-08T13:14:13Z</time>
      </trkpt>
      <trkpt lat="45.451" lon="6.97643">
        <ele>1819.4</ele>
        <time>2020-08-08T13:14:14Z</time>
      </trkpt>
      <trkpt lat="45.45098" lon="6.97638">
        <ele>1819.4</ele>
        <time>2020-08-08T13:14:16Z</time>
      </trkpt>
      <trkpt lat="45.45096" lon="6.97635">
        <ele>1819.3</ele>
        <time>2020-08-08T13:14:18Z</time>
      </trkpt>
      <trkpt lat="45.45095" lon="6.97635">
        <ele>1819.3</ele>
        <time>2020-08-08T13:14:19Z</time>
      </trkpt>
      <trkpt lat="45.45093" lon="6.97635">
        <ele>1819.3</ele>
        <time>2020-08-08T13:14:21Z</time>
      </trkpt>
      <trkpt lat="45.45092" lon="6.97634">
        <ele>1819.2</ele>
        <time>2020-08-08T13:14:23Z</time>
      </trkpt>
      <trkpt lat="45.45091" lon="6.97631">
        <ele>1819.2</ele>
        <time>2020-08-08T13:14:25Z</time>
      </trkpt>
      <trkpt lat="45.45092" lon="6.97629">
        <ele>1819.2</ele>
        <time>2020-08-08T13:14:26Z</time>
      </trkpt>
      <trkpt lat="45.45094" lon="6.97626">
        <ele>1819.1</ele>
        <time>2020-08-08T13:14:27Z</time>
      </trkpt>
      <trkpt lat="45.45096" lon="6.97618">
        <ele>1819</ele>
        <time>2020-08-08T13:14:29Z</time>
      </trkpt>
      <trkpt lat="45.45098" lon="6.9761">
        <ele>1818.9</ele>
        <time>2020-08-08T13:14:31Z</time>
      </trkpt>
      <trkpt lat="45.45103" lon="6.97598">
        <ele>1818.7</ele>
        <time>2020-08-08T13:14:32Z</time>
      </trkpt>
      <trkpt lat="45.45107" lon="6.97588">
        <ele>1818.5</ele>
        <time>2020-08-08T13:14:35Z</time>
      </trkpt>
      <trkpt lat="45.45114" lon="6.97574">
        <ele>1818.3</ele>
        <time>2020-08-08T13:14:37Z</time>
      </trkpt>
      <trkpt lat="45.45117" lon="6.97567">
        <ele>1818.1</ele>
        <time>2020-08-08T13:14:38Z</time>
      </trkpt>
      <trkpt lat="45.45125" lon="6.97552">
        <ele>1817.8</ele>
        <time>2020-08-08T13:14:40Z</time>
      </trkpt>
      <trkpt lat="45.45132" lon="6.97538">
        <ele>1817.5</ele>
        <time>2020-08-08T13:14:42Z</time>
      </trkpt>
      <trkpt lat="45.45136" lon="6.9753">
        <ele>1817.4</ele>
        <time>2020-08-08T13:14:43Z</time>
      </trkpt>
      <trkpt lat="45.45143" lon="6.97515">
        <ele>1817.1</ele>
        <time>2020-08-08T13:14:45Z</time>
      </trkpt>
      <trkpt lat="45.45152" lon="6.97501">
        <ele>1816.8</ele>
        <time>2020-08-08T13:14:47Z</time>
      </trkpt>
      <trkpt lat="45.45157" lon="6.97495">
        <ele>1816.6</ele>
        <time>2020-08-08T13:14:48Z</time>
      </trkpt>
      <trkpt lat="45.45161" lon="6.97488">
        <ele>1816.5</ele>
        <time>2020-08-08T13:14:49Z</time>
      </trkpt>
      <trkpt lat="45.45171" lon="6.97474">
        <ele>1816.2</ele>
        <time>2020-08-08T13:14:51Z</time>
      </trkpt>
      <trkpt lat="45.45182" lon="6.9746">
        <ele>1815.9</ele>
        <time>2020-08-08T13:14:53Z</time>
      </trkpt>
      <trkpt lat="45.45193" lon="6.97446">
        <ele>1815.6</ele>
        <time>2020-08-08T13:14:55Z</time>
      </trkpt>
      <trkpt lat="45.45198" lon="6.97439">
        <ele>1815.5</ele>
        <time>2020-08-08T13:14:56Z</time>
      </trkpt>
      <trkpt lat="45.45204" lon="6.97432">
        <ele>1815.3</ele>
        <time>2020-08-08T13:14:57Z</time>
      </trkpt>
      <trkpt lat="45.45215" lon="6.97419">
        <ele>1815</ele>
        <time>2020-08-08T13:14:59Z</time>
      </trkpt>
      <trkpt lat="45.45221" lon="6.97413">
        <ele>1814.9</ele>
        <time>2020-08-08T13:15:00Z</time>
      </trkpt>
      <trkpt lat="45.45226" lon="6.97406">
        <ele>1814.7</ele>
        <time>2020-08-08T13:15:01Z</time>
      </trkpt>
      <trkpt lat="45.45232" lon="6.97401">
        <ele>1814.6</ele>
        <time>2020-08-08T13:15:02Z</time>
      </trkpt>
      <trkpt lat="45.45243" lon="6.97389">
        <ele>1814.4</ele>
        <time>2020-08-08T13:15:04Z</time>
      </trkpt>
      <trkpt lat="45.45249" lon="6.97383">
        <ele>1814.2</ele>
        <time>2020-08-08T13:15:05Z</time>
      </trkpt>
      <trkpt lat="45.45259" lon="6.97372">
        <ele>1814</ele>
        <time>2020-08-08T13:15:07Z</time>
      </trkpt>
      <trkpt lat="45.4527" lon="6.97361">
        <ele>1813.8</ele>
        <time>2020-08-08T13:15:09Z</time>
      </trkpt>
      <trkpt lat="45.45279" lon="6.9735">
        <ele>1813.5</ele>
        <time>2020-08-08T13:15:11Z</time>
      </trkpt>
      <trkpt lat="45.45283" lon="6.97345">
        <ele>1813.4</ele>
        <time>2020-08-08T13:15:12Z</time>
      </trkpt>
      <trkpt lat="45.45287" lon="6.97339">
        <ele>1813.2</ele>
        <time>2020-08-08T13:15:13Z</time>
      </trkpt>
      <trkpt lat="45.45296" lon="6.97328">
        <ele>1812.8</ele>
        <time>2020-08-08T13:15:15Z</time>
      </trkpt>
      <trkpt lat="45.45304" lon="6.97315">
        <ele>1812.5</ele>
        <time>2020-08-08T13:15:17Z</time>
      </trkpt>
      <trkpt lat="45.45309" lon="6.97308">
        <ele>1812.4</ele>
        <time>2020-08-08T13:15:18Z</time>
      </trkpt>
      <trkpt lat="45.45314" lon="6.97301">
        <ele>1812.2</ele>
        <time>2020-08-08T13:15:19Z</time>
      </trkpt>
      <trkpt lat="45.45322" lon="6.97286">
        <ele>1811.9</ele>
        <time>2020-08-08T13:15:21Z</time>
      </trkpt>
      <trkpt lat="45.45332" lon="6.9727">
        <ele>1811.5</ele>
        <time>2020-08-08T13:15:23Z</time>
      </trkpt>
      <trkpt lat="45.45342" lon="6.97254">
        <ele>1811</ele>
        <time>2020-08-08T13:15:25Z</time>
      </trkpt>
      <trkpt lat="45.45351" lon="6.97238">
        <ele>1810.7</ele>
        <time>2020-08-08T13:15:27Z</time>
      </trkpt>
      <trkpt lat="45.45356" lon="6.9723">
        <ele>1810.5</ele>
        <time>2020-08-08T13:15:28Z</time>
      </trkpt>
      <trkpt lat="45.45361" lon="6.97222">
        <ele>1810.4</ele>
        <time>2020-08-08T13:15:29Z</time>
      </trkpt>
      <trkpt lat="45.4537" lon="6.97205">
        <ele>1810</ele>
        <time>2020-08-08T13:15:31Z</time>
      </trkpt>
      <trkpt lat="45.45379" lon="6.97188">
        <ele>1809.5</ele>
        <time>2020-08-08T13:15:33Z</time>
      </trkpt>
      <trkpt lat="45.4539" lon="6.97172">
        <ele>1809.1</ele>
        <time>2020-08-08T13:15:35Z</time>
      </trkpt>
      <trkpt lat="45.454" lon="6.97156">
        <ele>1808.7</ele>
        <time>2020-08-08T13:15:37Z</time>
      </trkpt>
      <trkpt lat="45.4541" lon="6.9714">
        <ele>1808.2</ele>
        <time>2020-08-08T13:15:39Z</time>
      </trkpt>
      <trkpt lat="45.45415" lon="6.97132">
        <ele>1808</ele>
        <time>2020-08-08T13:15:40Z</time>
      </trkpt>
      <trkpt lat="45.45423" lon="6.97116">
        <ele>1807.4</ele>
        <time>2020-08-08T13:15:42Z</time>
      </trkpt>
      <trkpt lat="45.45432" lon="6.97101">
        <ele>1807</ele>
        <time>2020-08-08T13:15:44Z</time>
      </trkpt>
      <trkpt lat="45.45441" lon="6.97086">
        <ele>1806.7</ele>
        <time>2020-08-08T13:15:46Z</time>
      </trkpt>
      <trkpt lat="45.4545" lon="6.97071">
        <ele>1806.4</ele>
        <time>2020-08-08T13:15:48Z</time>
      </trkpt>
      <trkpt lat="45.4546" lon="6.97056">
        <ele>1806.1</ele>
        <time>2020-08-08T13:15:50Z</time>
      </trkpt>
      <trkpt lat="45.45465" lon="6.97049">
        <ele>1805.9</ele>
        <time>2020-08-08T13:15:51Z</time>
      </trkpt>
      <trkpt lat="45.45475" lon="6.97035">
        <ele>1805.6</ele>
        <time>2020-08-08T13:15:53Z</time>
      </trkpt>
      <trkpt lat="45.45485" lon="6.97022">
        <ele>1805.4</ele>
        <time>2020-08-08T13:15:55Z</time>
      </trkpt>
      <trkpt lat="45.45491" lon="6.97016">
        <ele>1805.2</ele>
        <time>2020-08-08T13:15:56Z</time>
      </trkpt>
      <trkpt lat="45.45497" lon="6.9701">
        <ele>1805</ele>
        <time>2020-08-08T13:15:57Z</time>
      </trkpt>
      <trkpt lat="45.45509" lon="6.96998">
        <ele>1804.5</ele>
        <time>2020-08-08T13:15:59Z</time>
      </trkpt>
      <trkpt lat="45.45521" lon="6.96988">
        <ele>1804</ele>
        <time>2020-08-08T13:16:01Z</time>
      </trkpt>
      <trkpt lat="45.45528" lon="6.96982">
        <ele>1803.9</ele>
        <time>2020-08-08T13:16:02Z</time>
      </trkpt>
      <trkpt lat="45.45541" lon="6.96971">
        <ele>1803.6</ele>
        <time>2020-08-08T13:16:04Z</time>
      </trkpt>
      <trkpt lat="45.45554" lon="6.96961">
        <ele>1803.4</ele>
        <time>2020-08-08T13:16:06Z</time>
      </trkpt>
      <trkpt lat="45.4556" lon="6.96956">
        <ele>1803.2</ele>
        <time>2020-08-08T13:16:07Z</time>
      </trkpt>
      <trkpt lat="45.45573" lon="6.96946">
        <ele>1802.9</ele>
        <time>2020-08-08T13:16:09Z</time>
      </trkpt>
      <trkpt lat="45.45579" lon="6.96942">
        <ele>1802.8</ele>
        <time>2020-08-08T13:16:10Z</time>
      </trkpt>
      <trkpt lat="45.4559" lon="6.96932">
        <ele>1802.5</ele>
        <time>2020-08-08T13:16:12Z</time>
      </trkpt>
      <trkpt lat="45.45596" lon="6.96927">
        <ele>1802.4</ele>
        <time>2020-08-08T13:16:13Z</time>
      </trkpt>
      <trkpt lat="45.45602" lon="6.96923">
        <ele>1802.3</ele>
        <time>2020-08-08T13:16:14Z</time>
      </trkpt>
      <trkpt lat="45.45608" lon="6.96918">
        <ele>1802.2</ele>
        <time>2020-08-08T13:16:15Z</time>
      </trkpt>
      <trkpt lat="45.4562" lon="6.96909">
        <ele>1802</ele>
        <time>2020-08-08T13:16:17Z</time>
      </trkpt>
      <trkpt lat="45.45626" lon="6.96905">
        <ele>1801.8</ele>
        <time>2020-08-08T13:16:18Z</time>
      </trkpt>
      <trkpt lat="45.45639" lon="6.96895">
        <ele>1801.6</ele>
        <time>2020-08-08T13:16:20Z</time>
      </trkpt>
      <trkpt lat="45.45645" lon="6.9689">
        <ele>1801.5</ele>
        <time>2020-08-08T13:16:21Z</time>
      </trkpt>
      <trkpt lat="45.45657" lon="6.96881">
        <ele>1801.3</ele>
        <time>2020-08-08T13:16:23Z</time>
      </trkpt>
      <trkpt lat="45.45669" lon="6.96872">
        <ele>1801.2</ele>
        <time>2020-08-08T13:16:25Z</time>
      </trkpt>
      <trkpt lat="45.45675" lon="6.96867">
        <ele>1801.1</ele>
        <time>2020-08-08T13:16:26Z</time>
      </trkpt>
      <trkpt lat="45.45687" lon="6.96857">
        <ele>1800.8</ele>
        <time>2020-08-08T13:16:28Z</time>
      </trkpt>
      <trkpt lat="45.45699" lon="6.96848">
        <ele>1800.6</ele>
        <time>2020-08-08T13:16:30Z</time>
      </trkpt>
      <trkpt lat="45.45711" lon="6.96838">
        <ele>1800.4</ele>
        <time>2020-08-08T13:16:32Z</time>
      </trkpt>
      <trkpt lat="45.45724" lon="6.96828">
        <ele>1800.3</ele>
        <time>2020-08-08T13:16:34Z</time>
      </trkpt>
      <trkpt lat="45.45736" lon="6.96819">
        <ele>1800.2</ele>
        <time>2020-08-08T13:16:36Z</time>
      </trkpt>
      <trkpt lat="45.45748" lon="6.9681">
        <ele>1800</ele>
        <time>2020-08-08T13:16:38Z</time>
      </trkpt>
      <trkpt lat="45.45753" lon="6.96805">
        <ele>1799.9</ele>
        <time>2020-08-08T13:16:39Z</time>
      </trkpt>
      <trkpt lat="45.45765" lon="6.96795">
        <ele>1799.7</ele>
        <time>2020-08-08T13:16:41Z</time>
      </trkpt>
      <trkpt lat="45.45771" lon="6.9679">
        <ele>1799.7</ele>
        <time>2020-08-08T13:16:42Z</time>
      </trkpt>
      <trkpt lat="45.45783" lon="6.9678">
        <ele>1799.5</ele>
        <time>2020-08-08T13:16:44Z</time>
      </trkpt>
      <trkpt lat="45.45789" lon="6.96775">
        <ele>1799.5</ele>
        <time>2020-08-08T13:16:45Z</time>
      </trkpt>
      <trkpt lat="45.458" lon="6.96766">
        <ele>1799.5</ele>
        <time>2020-08-08T13:16:47Z</time>
      </trkpt>
      <trkpt lat="45.45812" lon="6.96757">
        <ele>1799.4</ele>
        <time>2020-08-08T13:16:49Z</time>
      </trkpt>
      <trkpt lat="45.45818" lon="6.96752">
        <ele>1799.4</ele>
        <time>2020-08-08T13:16:50Z</time>
      </trkpt>
      <trkpt lat="45.4583" lon="6.96742">
        <ele>1799.4</ele>
        <time>2020-08-08T13:16:52Z</time>
      </trkpt>
      <trkpt lat="45.45836" lon="6.96737">
        <ele>1799.3</ele>
        <time>2020-08-08T13:16:53Z</time>
      </trkpt>
      <trkpt lat="45.45842" lon="6.96733">
        <ele>1799.3</ele>
        <time>2020-08-08T13:16:54Z</time>
      </trkpt>
      <trkpt lat="45.45848" lon="6.96728">
        <ele>1799.3</ele>
        <time>2020-08-08T13:16:55Z</time>
      </trkpt>
      <trkpt lat="45.4586" lon="6.96718">
        <ele>1799.2</ele>
        <time>2020-08-08T13:16:57Z</time>
      </trkpt>
      <trkpt lat="45.45867" lon="6.96713">
        <ele>1799.1</ele>
        <time>2020-08-08T13:16:58Z</time>
      </trkpt>
      <trkpt lat="45.45879" lon="6.96704">
        <ele>1799</ele>
        <time>2020-08-08T13:17:00Z</time>
      </trkpt>
      <trkpt lat="45.45892" lon="6.96694">
        <ele>1798.9</ele>
        <time>2020-08-08T13:17:02Z</time>
      </trkpt>
      <trkpt lat="45.45898" lon="6.96689">
        <ele>1798.8</ele>
        <time>2020-08-08T13:17:03Z</time>
      </trkpt>
      <trkpt lat="45.45912" lon="6.96679">
        <ele>1798.7</ele>
        <time>2020-08-08T13:17:05Z</time>
      </trkpt>
      <trkpt lat="45.45925" lon="6.96668">
        <ele>1798.6</ele>
        <time>2020-08-08T13:17:07Z</time>
      </trkpt>
      <trkpt lat="45.45931" lon="6.96662">
        <ele>1798.5</ele>
        <time>2020-08-08T13:17:08Z</time>
      </trkpt>
      <trkpt lat="45.45944" lon="6.96654">
        <ele>1798.3</ele>
        <time>2020-08-08T13:17:10Z</time>
      </trkpt>
      <trkpt lat="45.4595" lon="6.96651">
        <ele>1798.3</ele>
        <time>2020-08-08T13:17:11Z</time>
      </trkpt>
      <trkpt lat="45.45963" lon="6.96647">
        <ele>1798.9</ele>
        <time>2020-08-08T13:17:13Z</time>
      </trkpt>
      <trkpt lat="45.45974" lon="6.96636">
        <ele>1798.4</ele>
        <time>2020-08-08T13:17:15Z</time>
      </trkpt>
      <trkpt lat="45.45979" lon="6.9663">
        <ele>1798.3</ele>
        <time>2020-08-08T13:17:16Z</time>
      </trkpt>
      <trkpt lat="45.4599" lon="6.96616">
        <ele>1796.9</ele>
        <time>2020-08-08T13:17:18Z</time>
      </trkpt>
      <trkpt lat="45.46002" lon="6.96605">
        <ele>1796.5</ele>
        <time>2020-08-08T13:17:20Z</time>
      </trkpt>
      <trkpt lat="45.46009" lon="6.966">
        <ele>1796.3</ele>
        <time>2020-08-08T13:17:21Z</time>
      </trkpt>
      <trkpt lat="45.46016" lon="6.96595">
        <ele>1796.1</ele>
        <time>2020-08-08T13:17:22Z</time>
      </trkpt>
      <trkpt lat="45.46023" lon="6.96589">
        <ele>1795.9</ele>
        <time>2020-08-08T13:17:23Z</time>
      </trkpt>
      <trkpt lat="45.46036" lon="6.96579">
        <ele>1795.5</ele>
        <time>2020-08-08T13:17:25Z</time>
      </trkpt>
      <trkpt lat="45.46042" lon="6.96574">
        <ele>1795.3</ele>
        <time>2020-08-08T13:17:26Z</time>
      </trkpt>
      <trkpt lat="45.46055" lon="6.96564">
        <ele>1795.2</ele>
        <time>2020-08-08T13:17:28Z</time>
      </trkpt>
      <trkpt lat="45.46061" lon="6.9656">
        <ele>1795.1</ele>
        <time>2020-08-08T13:17:29Z</time>
      </trkpt>
      <trkpt lat="45.46068" lon="6.96555">
        <ele>1795.1</ele>
        <time>2020-08-08T13:17:30Z</time>
      </trkpt>
      <trkpt lat="45.46082" lon="6.96544">
        <ele>1795.1</ele>
        <time>2020-08-08T13:17:32Z</time>
      </trkpt>
      <trkpt lat="45.46088" lon="6.96539">
        <ele>1795.2</ele>
        <time>2020-08-08T13:17:33Z</time>
      </trkpt>
      <trkpt lat="45.46102" lon="6.9653">
        <ele>1795.2</ele>
        <time>2020-08-08T13:17:35Z</time>
      </trkpt>
      <trkpt lat="45.46115" lon="6.96521">
        <ele>1795.3</ele>
        <time>2020-08-08T13:17:37Z</time>
      </trkpt>
      <trkpt lat="45.46128" lon="6.96511">
        <ele>1795.4</ele>
        <time>2020-08-08T13:17:39Z</time>
      </trkpt>
      <trkpt lat="45.4614" lon="6.965">
        <ele>1794.7</ele>
        <time>2020-08-08T13:17:41Z</time>
      </trkpt>
      <trkpt lat="45.46153" lon="6.96491">
        <ele>1793.9</ele>
        <time>2020-08-08T13:17:43Z</time>
      </trkpt>
      <trkpt lat="45.46159" lon="6.96487">
        <ele>1793.6</ele>
        <time>2020-08-08T13:17:44Z</time>
      </trkpt>
      <trkpt lat="45.46166" lon="6.96483">
        <ele>1793.2</ele>
        <time>2020-08-08T13:17:45Z</time>
      </trkpt>
      <trkpt lat="45.46172" lon="6.96479">
        <ele>1792.9</ele>
        <time>2020-08-08T13:17:46Z</time>
      </trkpt>
      <trkpt lat="45.46186" lon="6.96473">
        <ele>1792.1</ele>
        <time>2020-08-08T13:17:48Z</time>
      </trkpt>
      <trkpt lat="45.46194" lon="6.96471">
        <ele>1791.6</ele>
        <time>2020-08-08T13:17:49Z</time>
      </trkpt>
      <trkpt lat="45.46209" lon="6.96466">
        <ele>1791.4</ele>
        <time>2020-08-08T13:17:51Z</time>
      </trkpt>
      <trkpt lat="45.46224" lon="6.96459">
        <ele>1791.2</ele>
        <time>2020-08-08T13:17:53Z</time>
      </trkpt>
      <trkpt lat="45.46231" lon="6.96455">
        <ele>1791.2</ele>
        <time>2020-08-08T13:17:54Z</time>
      </trkpt>
      <trkpt lat="45.46239" lon="6.96452">
        <ele>1791.3</ele>
        <time>2020-08-08T13:17:55Z</time>
      </trkpt>
      <trkpt lat="45.46252" lon="6.96446">
        <ele>1791.8</ele>
        <time>2020-08-08T13:17:57Z</time>
      </trkpt>
      <trkpt lat="45.46267" lon="6.96441">
        <ele>1792.3</ele>
        <time>2020-08-08T13:17:59Z</time>
      </trkpt>
      <trkpt lat="45.46281" lon="6.96435">
        <ele>1793</ele>
        <time>2020-08-08T13:18:01Z</time>
      </trkpt>
      <trkpt lat="45.46287" lon="6.96432">
        <ele>1793.5</ele>
        <time>2020-08-08T13:18:02Z</time>
      </trkpt>
      <trkpt lat="45.46297" lon="6.96421">
        <ele>1794.9</ele>
        <time>2020-08-08T13:18:04Z</time>
      </trkpt>
      <trkpt lat="45.46302" lon="6.96416">
        <ele>1795.4</ele>
        <time>2020-08-08T13:18:05Z</time>
      </trkpt>
      <trkpt lat="45.46311" lon="6.96406">
        <ele>1796.4</ele>
        <time>2020-08-08T13:18:07Z</time>
      </trkpt>
      <trkpt lat="45.46321" lon="6.96396">
        <ele>1797.5</ele>
        <time>2020-08-08T13:18:09Z</time>
      </trkpt>
      <trkpt lat="45.46329" lon="6.96386">
        <ele>1798.6</ele>
        <time>2020-08-08T13:18:11Z</time>
      </trkpt>
      <trkpt lat="45.46333" lon="6.96381">
        <ele>1799.2</ele>
        <time>2020-08-08T13:18:12Z</time>
      </trkpt>
      <trkpt lat="45.46337" lon="6.96376">
        <ele>1799.7</ele>
        <time>2020-08-08T13:18:13Z</time>
      </trkpt>
      <trkpt lat="45.46344" lon="6.96367">
        <ele>1800.8</ele>
        <time>2020-08-08T13:18:15Z</time>
      </trkpt>
      <trkpt lat="45.46347" lon="6.96362">
        <ele>1801.3</ele>
        <time>2020-08-08T13:18:16Z</time>
      </trkpt>
      <trkpt lat="45.4635" lon="6.96357">
        <ele>1801.8</ele>
        <time>2020-08-08T13:18:17Z</time>
      </trkpt>
      <trkpt lat="45.46353" lon="6.96352">
        <ele>1802.4</ele>
        <time>2020-08-08T13:18:18Z</time>
      </trkpt>
      <trkpt lat="45.46358" lon="6.96344">
        <ele>1803.3</ele>
        <time>2020-08-08T13:18:20Z</time>
      </trkpt>
      <trkpt lat="45.46361" lon="6.9634">
        <ele>1803.8</ele>
        <time>2020-08-08T13:18:21Z</time>
      </trkpt>
      <trkpt lat="45.46367" lon="6.96333">
        <ele>1804.9</ele>
        <time>2020-08-08T13:18:23Z</time>
      </trkpt>
      <trkpt lat="45.4637" lon="6.96329">
        <ele>1805.3</ele>
        <time>2020-08-08T13:18:24Z</time>
      </trkpt>
      <trkpt lat="45.46374" lon="6.96323">
        <ele>1806.1</ele>
        <time>2020-08-08T13:18:25Z</time>
      </trkpt>
      <trkpt lat="45.46377" lon="6.96321">
        <ele>1806.4</ele>
        <time>2020-08-08T13:18:26Z</time>
      </trkpt>
      <trkpt lat="45.4638" lon="6.96316">
        <ele>1807</ele>
        <time>2020-08-08T13:18:29Z</time>
      </trkpt>
      <trkpt lat="45.46385" lon="6.96312">
        <ele>1807.7</ele>
        <time>2020-08-08T13:18:32Z</time>
      </trkpt>
      <trkpt lat="45.46387" lon="6.9631">
        <ele>1808.1</ele>
        <time>2020-08-08T13:18:33Z</time>
      </trkpt>
      <trkpt lat="45.46394" lon="6.96305">
        <ele>1809</ele>
        <time>2020-08-08T13:18:35Z</time>
      </trkpt>
      <trkpt lat="45.46402" lon="6.96297">
        <ele>1810.1</ele>
        <time>2020-08-08T13:18:36Z</time>
      </trkpt>
      <trkpt lat="45.46409" lon="6.96291">
        <ele>1811</ele>
        <time>2020-08-08T13:18:37Z</time>
      </trkpt>
      <trkpt lat="45.46413" lon="6.96286">
        <ele>1811.6</ele>
        <time>2020-08-08T13:18:38Z</time>
      </trkpt>
      <trkpt lat="45.46417" lon="6.96282">
        <ele>1812.1</ele>
        <time>2020-08-08T13:18:39Z</time>
      </trkpt>
      <trkpt lat="45.46421" lon="6.96279">
        <ele>1812.5</ele>
        <time>2020-08-08T13:18:40Z</time>
      </trkpt>
      <trkpt lat="45.4643" lon="6.96271">
        <ele>1813.6</ele>
        <time>2020-08-08T13:18:43Z</time>
      </trkpt>
      <trkpt lat="45.46435" lon="6.96267">
        <ele>1814.2</ele>
        <time>2020-08-08T13:18:45Z</time>
      </trkpt>
      <trkpt lat="45.46444" lon="6.96259">
        <ele>1815.3</ele>
        <time>2020-08-08T13:18:47Z</time>
      </trkpt>
      <trkpt lat="45.46454" lon="6.96251">
        <ele>1816.4</ele>
        <time>2020-08-08T13:18:50Z</time>
      </trkpt>
      <trkpt lat="45.46459" lon="6.96248">
        <ele>1816.9</ele>
        <time>2020-08-08T13:18:51Z</time>
      </trkpt>
      <trkpt lat="45.46464" lon="6.96244">
        <ele>1817.5</ele>
        <time>2020-08-08T13:18:54Z</time>
      </trkpt>
      <trkpt lat="45.46468" lon="6.96241">
        <ele>1817.9</ele>
        <time>2020-08-08T13:18:55Z</time>
      </trkpt>
      <trkpt lat="45.4648" lon="6.96233">
        <ele>1819.1</ele>
        <time>2020-08-08T13:18:57Z</time>
      </trkpt>
      <trkpt lat="45.46484" lon="6.9623">
        <ele>1819.5</ele>
        <time>2020-08-08T13:19:00Z</time>
      </trkpt>
      <trkpt lat="45.46486" lon="6.96228">
        <ele>1819.8</ele>
        <time>2020-08-08T13:19:01Z</time>
      </trkpt>
      <trkpt lat="45.46493" lon="6.96222">
        <ele>1820.5</ele>
        <time>2020-08-08T13:19:02Z</time>
      </trkpt>
      <trkpt lat="45.46498" lon="6.96217">
        <ele>1821.1</ele>
        <time>2020-08-08T13:19:04Z</time>
      </trkpt>
      <trkpt lat="45.46506" lon="6.96212">
        <ele>1821.9</ele>
        <time>2020-08-08T13:19:06Z</time>
      </trkpt>
      <trkpt lat="45.4651" lon="6.96209">
        <ele>1822.2</ele>
        <time>2020-08-08T13:19:07Z</time>
      </trkpt>
      <trkpt lat="45.46515" lon="6.96205">
        <ele>1822.7</ele>
        <time>2020-08-08T13:19:09Z</time>
      </trkpt>
      <trkpt lat="45.4652" lon="6.962">
        <ele>1823.3</ele>
        <time>2020-08-08T13:19:10Z</time>
      </trkpt>
      <trkpt lat="45.46524" lon="6.96196">
        <ele>1823.7</ele>
        <time>2020-08-08T13:19:12Z</time>
      </trkpt>
      <trkpt lat="45.46527" lon="6.96193">
        <ele>1824.1</ele>
        <time>2020-08-08T13:19:14Z</time>
      </trkpt>
      <trkpt lat="45.4653" lon="6.9619">
        <ele>1824.5</ele>
        <time>2020-08-08T13:19:15Z</time>
      </trkpt>
      <trkpt lat="45.46538" lon="6.96182">
        <ele>1825.4</ele>
        <time>2020-08-08T13:19:16Z</time>
      </trkpt>
      <trkpt lat="45.46544" lon="6.96175">
        <ele>1826.1</ele>
        <time>2020-08-08T13:19:19Z</time>
      </trkpt>
      <trkpt lat="45.46554" lon="6.96164">
        <ele>1827.4</ele>
        <time>2020-08-08T13:19:22Z</time>
      </trkpt>
      <trkpt lat="45.46562" lon="6.96154">
        <ele>1828.5</ele>
        <time>2020-08-08T13:19:25Z</time>
      </trkpt>
      <trkpt lat="45.4657" lon="6.96143">
        <ele>1829.6</ele>
        <time>2020-08-08T13:19:28Z</time>
      </trkpt>
      <trkpt lat="45.46579" lon="6.96131">
        <ele>1830.8</ele>
        <time>2020-08-08T13:19:31Z</time>
      </trkpt>
      <trkpt lat="45.46585" lon="6.96122">
        <ele>1831.7</ele>
        <time>2020-08-08T13:19:34Z</time>
      </trkpt>
      <trkpt lat="45.46588" lon="6.96118">
        <ele>1832.1</ele>
        <time>2020-08-08T13:19:35Z</time>
      </trkpt>
      <trkpt lat="45.46592" lon="6.96112">
        <ele>1832.7</ele>
        <time>2020-08-08T13:19:36Z</time>
      </trkpt>
      <trkpt lat="45.466" lon="6.96101">
        <ele>1833.8</ele>
        <time>2020-08-08T13:19:39Z</time>
      </trkpt>
      <trkpt lat="45.46602" lon="6.96097">
        <ele>1834.2</ele>
        <time>2020-08-08T13:19:41Z</time>
      </trkpt>
      <trkpt lat="45.46609" lon="6.96088">
        <ele>1835.1</ele>
        <time>2020-08-08T13:19:43Z</time>
      </trkpt>
      <trkpt lat="45.46612" lon="6.96083">
        <ele>1835.6</ele>
        <time>2020-08-08T13:19:44Z</time>
      </trkpt>
      <trkpt lat="45.46619" lon="6.96073">
        <ele>1836.7</ele>
        <time>2020-08-08T13:19:47Z</time>
      </trkpt>
      <trkpt lat="45.46627" lon="6.96063">
        <ele>1837.8</ele>
        <time>2020-08-08T13:19:50Z</time>
      </trkpt>
      <trkpt lat="45.46635" lon="6.96054">
        <ele>1838.8</ele>
        <time>2020-08-08T13:19:53Z</time>
      </trkpt>
      <trkpt lat="45.46637" lon="6.9605">
        <ele>1839.2</ele>
        <time>2020-08-08T13:19:54Z</time>
      </trkpt>
      <trkpt lat="45.46641" lon="6.96046">
        <ele>1839.6</ele>
        <time>2020-08-08T13:19:55Z</time>
      </trkpt>
      <trkpt lat="45.46643" lon="6.96042">
        <ele>1840</ele>
        <time>2020-08-08T13:19:57Z</time>
      </trkpt>
      <trkpt lat="45.46646" lon="6.96038">
        <ele>1840.4</ele>
        <time>2020-08-08T13:19:59Z</time>
      </trkpt>
      <trkpt lat="45.46651" lon="6.96031">
        <ele>1841.1</ele>
        <time>2020-08-08T13:20:01Z</time>
      </trkpt>
      <trkpt lat="45.46656" lon="6.96025">
        <ele>1841.8</ele>
        <time>2020-08-08T13:20:02Z</time>
      </trkpt>
      <trkpt lat="45.46659" lon="6.9602">
        <ele>1842.3</ele>
        <time>2020-08-08T13:20:03Z</time>
      </trkpt>
      <trkpt lat="45.46663" lon="6.96016">
        <ele>1842.8</ele>
        <time>2020-08-08T13:20:04Z</time>
      </trkpt>
      <trkpt lat="45.46667" lon="6.9601">
        <ele>1843.5</ele>
        <time>2020-08-08T13:20:06Z</time>
      </trkpt>
      <trkpt lat="45.46671" lon="6.96005">
        <ele>1843.9</ele>
        <time>2020-08-08T13:20:08Z</time>
      </trkpt>
      <trkpt lat="45.46676" lon="6.96">
        <ele>1844.7</ele>
        <time>2020-08-08T13:20:09Z</time>
      </trkpt>
      <trkpt lat="45.46682" lon="6.95992">
        <ele>1845.6</ele>
        <time>2020-08-08T13:20:11Z</time>
      </trkpt>
      <trkpt lat="45.46686" lon="6.95985">
        <ele>1846.4</ele>
        <time>2020-08-08T13:20:14Z</time>
      </trkpt>
      <trkpt lat="45.46693" lon="6.9598">
        <ele>1847.2</ele>
        <time>2020-08-08T13:20:16Z</time>
      </trkpt>
      <trkpt lat="45.467" lon="6.95974">
        <ele>1848.1</ele>
        <time>2020-08-08T13:20:17Z</time>
      </trkpt>
      <trkpt lat="45.46703" lon="6.95971">
        <ele>1848.6</ele>
        <time>2020-08-08T13:20:19Z</time>
      </trkpt>
      <trkpt lat="45.46709" lon="6.95966">
        <ele>1849.3</ele>
        <time>2020-08-08T13:20:20Z</time>
      </trkpt>
      <trkpt lat="45.46713" lon="6.95965">
        <ele>1849.7</ele>
        <time>2020-08-08T13:20:22Z</time>
      </trkpt>
      <trkpt lat="45.46722" lon="6.9596">
        <ele>1850.7</ele>
        <time>2020-08-08T13:20:23Z</time>
      </trkpt>
      <trkpt lat="45.46727" lon="6.95959">
        <ele>1851.2</ele>
        <time>2020-08-08T13:20:26Z</time>
      </trkpt>
      <trkpt lat="45.46731" lon="6.95959">
        <ele>1851.6</ele>
        <time>2020-08-08T13:20:27Z</time>
      </trkpt>
      <trkpt lat="45.4674" lon="6.95958">
        <ele>1852.6</ele>
        <time>2020-08-08T13:20:29Z</time>
      </trkpt>
      <trkpt lat="45.46744" lon="6.9596">
        <ele>1853.2</ele>
        <time>2020-08-08T13:20:32Z</time>
      </trkpt>
      <trkpt lat="45.46745" lon="6.9596">
        <ele>1853.2</ele>
        <time>2020-08-08T13:20:35Z</time>
      </trkpt>
      <trkpt lat="45.46746" lon="6.95961">
        <ele>1853.3</ele>
        <time>2020-08-08T13:20:36Z</time>
      </trkpt>
      <trkpt lat="45.46746" lon="6.95961">
        <ele>1853.4</ele>
        <time>2020-08-08T13:20:37Z</time>
      </trkpt>
      <trkpt lat="45.46747" lon="6.95961">
        <ele>1853.5</ele>
        <time>2020-08-08T13:20:39Z</time>
      </trkpt>
      <trkpt lat="45.46748" lon="6.95962">
        <ele>1853.6</ele>
        <time>2020-08-08T13:20:41Z</time>
      </trkpt>
      <trkpt lat="45.46748" lon="6.95962">
        <ele>1853.6</ele>
        <time>2020-08-08T13:20:43Z</time>
      </trkpt>
      <trkpt lat="45.46749" lon="6.95963">
        <ele>1853.7</ele>
        <time>2020-08-08T13:20:51Z</time>
      </trkpt>
      <trkpt lat="45.4675" lon="6.95963">
        <ele>1853.8</ele>
        <time>2020-08-08T13:20:54Z</time>
      </trkpt>
      <trkpt lat="45.4675" lon="6.95963">
        <ele>1853.9</ele>
        <time>2020-08-08T13:20:55Z</time>
      </trkpt>
      <trkpt lat="45.46752" lon="6.95964">
        <ele>1854</ele>
        <time>2020-08-08T13:20:56Z</time>
      </trkpt>
      <trkpt lat="45.46753" lon="6.95965">
        <ele>1854.1</ele>
        <time>2020-08-08T13:20:57Z</time>
      </trkpt>
      <trkpt lat="45.46755" lon="6.95967">
        <ele>1854.1</ele>
        <time>2020-08-08T13:20:58Z</time>
      </trkpt>
      <trkpt lat="45.46758" lon="6.95968">
        <ele>1854.1</ele>
        <time>2020-08-08T13:21:00Z</time>
      </trkpt>
      <trkpt lat="45.4676" lon="6.9597">
        <ele>1854.1</ele>
        <time>2020-08-08T13:21:01Z</time>
      </trkpt>
      <trkpt lat="45.46761" lon="6.9597">
        <ele>1854.1</ele>
        <time>2020-08-08T13:21:03Z</time>
      </trkpt>
      <trkpt lat="45.46761" lon="6.9597">
        <ele>1854.1</ele>
        <time>2020-08-08T13:21:04Z</time>
      </trkpt>
      <trkpt lat="45.46764" lon="6.95972">
        <ele>1854</ele>
        <time>2020-08-08T13:21:06Z</time>
      </trkpt>
      <trkpt lat="45.46765" lon="6.95972">
        <ele>1854</ele>
        <time>2020-08-08T13:21:07Z</time>
      </trkpt>
      <trkpt lat="45.46767" lon="6.95974">
        <ele>1854</ele>
        <time>2020-08-08T13:21:08Z</time>
      </trkpt>
      <trkpt lat="45.46769" lon="6.95975">
        <ele>1854</ele>
        <time>2020-08-08T13:21:10Z</time>
      </trkpt>
      <trkpt lat="45.46758" lon="6.95962">
        <ele>1854</ele>
        <time>2020-08-08T13:21:13Z</time>
      </trkpt>
      <trkpt lat="45.47221" lon="6.95335">
        <ele>1824.2</ele>
        <time>2020-08-08T13:22:28Z</time>
      </trkpt>
      <trkpt lat="45.47227" lon="6.95328">
        <ele>1824.2</ele>
        <time>2020-08-08T13:22:29Z</time>
      </trkpt>
      <trkpt lat="45.47233" lon="6.95321">
        <ele>1823.6</ele>
        <time>2020-08-08T13:22:30Z</time>
      </trkpt>
      <trkpt lat="45.47244" lon="6.95306">
        <ele>1821</ele>
        <time>2020-08-08T13:22:32Z</time>
      </trkpt>
      <trkpt lat="45.47257" lon="6.95293">
        <ele>1820.4</ele>
        <time>2020-08-08T13:22:34Z</time>
      </trkpt>
      <trkpt lat="45.47257" lon="6.95294">
        <ele>1820.4</ele>
        <time>2020-08-08T13:22:46Z</time>
      </trkpt>
      <trkpt lat="45.47381" lon="6.94991">
        <ele>1799.4</ele>
        <time>2020-08-08T13:23:17Z</time>
      </trkpt>
      <trkpt lat="45.47384" lon="6.94978">
        <ele>1799.7</ele>
        <time>2020-08-08T13:23:19Z</time>
      </trkpt>
      <trkpt lat="45.47388" lon="6.94965">
        <ele>1799.8</ele>
        <time>2020-08-08T13:23:21Z</time>
      </trkpt>
      <trkpt lat="45.47393" lon="6.94951">
        <ele>1799.9</ele>
        <time>2020-08-08T13:23:23Z</time>
      </trkpt>
      <trkpt lat="45.47395" lon="6.94944">
        <ele>1799.9</ele>
        <time>2020-08-08T13:23:24Z</time>
      </trkpt>
      <trkpt lat="45.47396" lon="6.94937">
        <ele>1799.9</ele>
        <time>2020-08-08T13:23:25Z</time>
      </trkpt>
      <trkpt lat="45.47398" lon="6.94922">
        <ele>1799.8</ele>
        <time>2020-08-08T13:23:27Z</time>
      </trkpt>
      <trkpt lat="45.474" lon="6.94915">
        <ele>1799.8</ele>
        <time>2020-08-08T13:23:28Z</time>
      </trkpt>
      <trkpt lat="45.47401" lon="6.94908">
        <ele>1799.7</ele>
        <time>2020-08-08T13:23:29Z</time>
      </trkpt>
      <trkpt lat="45.47405" lon="6.94895">
        <ele>1799.6</ele>
        <time>2020-08-08T13:23:31Z</time>
      </trkpt>
      <trkpt lat="45.47412" lon="6.94883">
        <ele>1799.4</ele>
        <time>2020-08-08T13:23:33Z</time>
      </trkpt>
      <trkpt lat="45.4742" lon="6.94872">
        <ele>1799.2</ele>
        <time>2020-08-08T13:23:35Z</time>
      </trkpt>
      <trkpt lat="45.47425" lon="6.94868">
        <ele>1799.1</ele>
        <time>2020-08-08T13:23:36Z</time>
      </trkpt>
      <trkpt lat="45.47435" lon="6.94863">
        <ele>1798.8</ele>
        <time>2020-08-08T13:23:38Z</time>
      </trkpt>
      <trkpt lat="45.4744" lon="6.94861">
        <ele>1798.7</ele>
        <time>2020-08-08T13:23:39Z</time>
      </trkpt>
      <trkpt lat="45.47452" lon="6.94861">
        <ele>1798.4</ele>
        <time>2020-08-08T13:23:41Z</time>
      </trkpt>
      <trkpt lat="45.47457" lon="6.94863">
        <ele>1798.2</ele>
        <time>2020-08-08T13:23:42Z</time>
      </trkpt>
      <trkpt lat="45.47467" lon="6.94873">
        <ele>1797.9</ele>
        <time>2020-08-08T13:23:44Z</time>
      </trkpt>
      <trkpt lat="45.47471" lon="6.94879">
        <ele>1797.7</ele>
        <time>2020-08-08T13:23:45Z</time>
      </trkpt>
      <trkpt lat="45.47478" lon="6.94891">
        <ele>1797.4</ele>
        <time>2020-08-08T13:23:47Z</time>
      </trkpt>
      <trkpt lat="45.47482" lon="6.94897">
        <ele>1797.3</ele>
        <time>2020-08-08T13:23:48Z</time>
      </trkpt>
      <trkpt lat="45.47486" lon="6.94904">
        <ele>1797.1</ele>
        <time>2020-08-08T13:23:49Z</time>
      </trkpt>
      <trkpt lat="45.47494" lon="6.94915">
        <ele>1797</ele>
        <time>2020-08-08T13:23:51Z</time>
      </trkpt>
      <trkpt lat="45.47503" lon="6.94922">
        <ele>1796.8</ele>
        <time>2020-08-08T13:23:53Z</time>
      </trkpt>
      <trkpt lat="45.47508" lon="6.94923">
        <ele>1796.7</ele>
        <time>2020-08-08T13:23:54Z</time>
      </trkpt>
      <trkpt lat="45.47513" lon="6.94924">
        <ele>1796.6</ele>
        <time>2020-08-08T13:23:55Z</time>
      </trkpt>
      <trkpt lat="45.47518" lon="6.94924">
        <ele>1796.6</ele>
        <time>2020-08-08T13:23:56Z</time>
      </trkpt>
      <trkpt lat="45.47529" lon="6.94924">
        <ele>1796.4</ele>
        <time>2020-08-08T13:23:58Z</time>
      </trkpt>
      <trkpt lat="45.47537" lon="6.94923">
        <ele>1796.3</ele>
        <time>2020-08-08T13:24:00Z</time>
      </trkpt>
      <trkpt lat="45.47545" lon="6.94923">
        <ele>1796.2</ele>
        <time>2020-08-08T13:24:02Z</time>
      </trkpt>
      <trkpt lat="45.4755" lon="6.94922">
        <ele>1796.2</ele>
        <time>2020-08-08T13:24:03Z</time>
      </trkpt>
      <trkpt lat="45.47561" lon="6.94923">
        <ele>1796.1</ele>
        <time>2020-08-08T13:24:05Z</time>
      </trkpt>
      <trkpt lat="45.47573" lon="6.94925">
        <ele>1795.9</ele>
        <time>2020-08-08T13:24:07Z</time>
      </trkpt>
      <trkpt lat="45.47579" lon="6.94925">
        <ele>1795.9</ele>
        <time>2020-08-08T13:24:08Z</time>
      </trkpt>
      <trkpt lat="45.47592" lon="6.94925">
        <ele>1795.8</ele>
        <time>2020-08-08T13:24:10Z</time>
      </trkpt>
      <trkpt lat="45.47599" lon="6.94925">
        <ele>1795.8</ele>
        <time>2020-08-08T13:24:11Z</time>
      </trkpt>
      <trkpt lat="45.47605" lon="6.94925">
        <ele>1795.7</ele>
        <time>2020-08-08T13:24:12Z</time>
      </trkpt>
      <trkpt lat="45.47618" lon="6.94928">
        <ele>1795.7</ele>
        <time>2020-08-08T13:24:14Z</time>
      </trkpt>
      <trkpt lat="45.47631" lon="6.9493">
        <ele>1795.8</ele>
        <time>2020-08-08T13:24:16Z</time>
      </trkpt>
      <trkpt lat="45.47644" lon="6.94935">
        <ele>1795.9</ele>
        <time>2020-08-08T13:24:18Z</time>
      </trkpt>
      <trkpt lat="45.47655" lon="6.94943">
        <ele>1796.1</ele>
        <time>2020-08-08T13:24:20Z</time>
      </trkpt>
      <trkpt lat="45.47659" lon="6.94949">
        <ele>1796.2</ele>
        <time>2020-08-08T13:24:21Z</time>
      </trkpt>
      <trkpt lat="45.47667" lon="6.94962">
        <ele>1796.5</ele>
        <time>2020-08-08T13:24:23Z</time>
      </trkpt>
      <trkpt lat="45.4767" lon="6.94969">
        <ele>1796.8</ele>
        <time>2020-08-08T13:24:24Z</time>
      </trkpt>
      <trkpt lat="45.47675" lon="6.94985">
        <ele>1797.2</ele>
        <time>2020-08-08T13:24:26Z</time>
      </trkpt>
      <trkpt lat="45.47677" lon="6.94992">
        <ele>1797.5</ele>
        <time>2020-08-08T13:24:27Z</time>
      </trkpt>
      <trkpt lat="45.47681" lon="6.95007">
        <ele>1798</ele>
        <time>2020-08-08T13:24:29Z</time>
      </trkpt>
      <trkpt lat="45.47686" lon="6.95021">
        <ele>1798.6</ele>
        <time>2020-08-08T13:24:31Z</time>
      </trkpt>
      <trkpt lat="45.47759" lon="6.95015">
        <ele>1802.4</ele>
        <time>2020-08-08T13:24:46Z</time>
      </trkpt>
      <trkpt lat="45.47759" lon="6.95015">
        <ele>1802.4</ele>
        <time>2020-08-08T13:24:46Z</time>
      </trkpt>
      <trkpt lat="45.47768" lon="6.95016">
        <ele>1802.4</ele>
        <time>2020-08-08T13:24:48Z</time>
      </trkpt>
      <trkpt lat="45.47778" lon="6.95006">
        <ele>1802.5</ele>
        <time>2020-08-08T13:24:50Z</time>
      </trkpt>
      <trkpt lat="45.47787" lon="6.94998">
        <ele>1802.8</ele>
        <time>2020-08-08T13:24:52Z</time>
      </trkpt>
      <trkpt lat="45.47791" lon="6.94994">
        <ele>1802.9</ele>
        <time>2020-08-08T13:24:53Z</time>
      </trkpt>
      <trkpt lat="45.47795" lon="6.94991">
        <ele>1803</ele>
        <time>2020-08-08T13:24:54Z</time>
      </trkpt>
      <trkpt lat="45.47804" lon="6.94983">
        <ele>1803.1</ele>
        <time>2020-08-08T13:24:56Z</time>
      </trkpt>
      <trkpt lat="45.47808" lon="6.9498">
        <ele>1803.2</ele>
        <time>2020-08-08T13:24:57Z</time>
      </trkpt>
      <trkpt lat="45.47817" lon="6.94973">
        <ele>1803.2</ele>
        <time>2020-08-08T13:24:59Z</time>
      </trkpt>
      <trkpt lat="45.47821" lon="6.9497">
        <ele>1803.2</ele>
        <time>2020-08-08T13:25:00Z</time>
      </trkpt>
      <trkpt lat="45.47829" lon="6.94964">
        <ele>1803.1</ele>
        <time>2020-08-08T13:25:02Z</time>
      </trkpt>
      <trkpt lat="45.47837" lon="6.94958">
        <ele>1803.1</ele>
        <time>2020-08-08T13:25:04Z</time>
      </trkpt>
      <trkpt lat="45.47844" lon="6.94952">
        <ele>1803.2</ele>
        <time>2020-08-08T13:25:06Z</time>
      </trkpt>
      <trkpt lat="45.47847" lon="6.94949">
        <ele>1803.2</ele>
        <time>2020-08-08T13:25:07Z</time>
      </trkpt>
      <trkpt lat="45.47851" lon="6.94946">
        <ele>1803.3</ele>
        <time>2020-08-08T13:25:08Z</time>
      </trkpt>
      <trkpt lat="45.47859" lon="6.94938">
        <ele>1803.5</ele>
        <time>2020-08-08T13:25:10Z</time>
      </trkpt>
      <trkpt lat="45.47864" lon="6.94933">
        <ele>1803.7</ele>
        <time>2020-08-08T13:25:11Z</time>
      </trkpt>
      <trkpt lat="45.47869" lon="6.94929">
        <ele>1803.8</ele>
        <time>2020-08-08T13:25:13Z</time>
      </trkpt>
      <trkpt lat="45.47878" lon="6.94917">
        <ele>1803.9</ele>
        <time>2020-08-08T13:25:15Z</time>
      </trkpt>
      <trkpt lat="45.47882" lon="6.94912">
        <ele>1803.9</ele>
        <time>2020-08-08T13:25:16Z</time>
      </trkpt>
      <trkpt lat="45.47893" lon="6.94899">
        <ele>1804</ele>
        <time>2020-08-08T13:25:18Z</time>
      </trkpt>
      <trkpt lat="45.47899" lon="6.94891">
        <ele>1804</ele>
        <time>2020-08-08T13:25:21Z</time>
      </trkpt>
      <trkpt lat="45.47905" lon="6.94881">
        <ele>1804.2</ele>
        <time>2020-08-08T13:25:23Z</time>
      </trkpt>
      <trkpt lat="45.47911" lon="6.94871">
        <ele>1804.3</ele>
        <time>2020-08-08T13:25:25Z</time>
      </trkpt>
      <trkpt lat="45.47918" lon="6.94862">
        <ele>1804.4</ele>
        <time>2020-08-08T13:25:27Z</time>
      </trkpt>
      <trkpt lat="45.47925" lon="6.94852">
        <ele>1804.4</ele>
        <time>2020-08-08T13:25:28Z</time>
      </trkpt>
      <trkpt lat="45.47931" lon="6.94844">
        <ele>1804.5</ele>
        <time>2020-08-08T13:25:31Z</time>
      </trkpt>
      <trkpt lat="45.4793" lon="6.94843">
        <ele>1804.5</ele>
        <time>2020-08-08T13:25:32Z</time>
      </trkpt>
      <trkpt lat="45.47932" lon="6.94839">
        <ele>1804.6</ele>
        <time>2020-08-08T13:25:33Z</time>
      </trkpt>
      <trkpt lat="45.47941" lon="6.94829">
        <ele>1804.8</ele>
        <time>2020-08-08T13:25:35Z</time>
      </trkpt>
      <trkpt lat="45.47935" lon="6.94831">
        <ele>1804.9</ele>
        <time>2020-08-08T13:25:36Z</time>
      </trkpt>
      <trkpt lat="45.47954" lon="6.94813">
        <ele>1805.2</ele>
        <time>2020-08-08T13:25:38Z</time>
      </trkpt>
      <trkpt lat="45.47955" lon="6.9481">
        <ele>1805.3</ele>
        <time>2020-08-08T13:25:39Z</time>
      </trkpt>
      <trkpt lat="45.47961" lon="6.948">
        <ele>1805.4</ele>
        <time>2020-08-08T13:25:41Z</time>
      </trkpt>
      <trkpt lat="45.47964" lon="6.94794">
        <ele>1805.5</ele>
        <time>2020-08-08T13:25:42Z</time>
      </trkpt>
      <trkpt lat="45.47967" lon="6.94785">
        <ele>1805.6</ele>
        <time>2020-08-08T13:25:43Z</time>
      </trkpt>
      <trkpt lat="45.47971" lon="6.94778">
        <ele>1805.7</ele>
        <time>2020-08-08T13:25:44Z</time>
      </trkpt>
      <trkpt lat="45.47975" lon="6.94768">
        <ele>1805.9</ele>
        <time>2020-08-08T13:25:47Z</time>
      </trkpt>
      <trkpt lat="45.47977" lon="6.94763">
        <ele>1806</ele>
        <time>2020-08-08T13:25:48Z</time>
      </trkpt>
      <trkpt lat="45.47982" lon="6.94754">
        <ele>1806.2</ele>
        <time>2020-08-08T13:25:50Z</time>
      </trkpt>
      <trkpt lat="45.47984" lon="6.94745">
        <ele>1806.4</ele>
        <time>2020-08-08T13:25:51Z</time>
      </trkpt>
      <trkpt lat="45.47987" lon="6.94736">
        <ele>1806.5</ele>
        <time>2020-08-08T13:25:53Z</time>
      </trkpt>
      <trkpt lat="45.4799" lon="6.9473">
        <ele>1806.6</ele>
        <time>2020-08-08T13:25:55Z</time>
      </trkpt>
      <trkpt lat="45.47995" lon="6.9472">
        <ele>1806.8</ele>
        <time>2020-08-08T13:25:56Z</time>
      </trkpt>
      <trkpt lat="45.47998" lon="6.94714">
        <ele>1806.9</ele>
        <time>2020-08-08T13:25:57Z</time>
      </trkpt>
      <trkpt lat="45.48001" lon="6.94707">
        <ele>1807.1</ele>
        <time>2020-08-08T13:25:59Z</time>
      </trkpt>
      <trkpt lat="45.48004" lon="6.94702">
        <ele>1807.2</ele>
        <time>2020-08-08T13:26:00Z</time>
      </trkpt>
      <trkpt lat="45.48011" lon="6.94691">
        <ele>1807.6</ele>
        <time>2020-08-08T13:26:02Z</time>
      </trkpt>
      <trkpt lat="45.48013" lon="6.94687">
        <ele>1807.7</ele>
        <time>2020-08-08T13:26:03Z</time>
      </trkpt>
      <trkpt lat="45.4802" lon="6.94677">
        <ele>1808</ele>
        <time>2020-08-08T13:26:04Z</time>
      </trkpt>
      <trkpt lat="45.48024" lon="6.94672">
        <ele>1808.2</ele>
        <time>2020-08-08T13:26:07Z</time>
      </trkpt>
      <trkpt lat="45.48027" lon="6.94668">
        <ele>1808.3</ele>
        <time>2020-08-08T13:26:08Z</time>
      </trkpt>
      <trkpt lat="45.48038" lon="6.94659">
        <ele>1808.7</ele>
        <time>2020-08-08T13:26:10Z</time>
      </trkpt>
      <trkpt lat="45.48044" lon="6.94653">
        <ele>1808.9</ele>
        <time>2020-08-08T13:26:13Z</time>
      </trkpt>
      <trkpt lat="45.48054" lon="6.94647">
        <ele>1809.2</ele>
        <time>2020-08-08T13:26:14Z</time>
      </trkpt>
      <trkpt lat="45.48058" lon="6.94644">
        <ele>1809.3</ele>
        <time>2020-08-08T13:26:17Z</time>
      </trkpt>
      <trkpt lat="45.48061" lon="6.94642">
        <ele>1809.4</ele>
        <time>2020-08-08T13:26:18Z</time>
      </trkpt>
      <trkpt lat="45.48066" lon="6.94639">
        <ele>1809.6</ele>
        <time>2020-08-08T13:26:19Z</time>
      </trkpt>
      <trkpt lat="45.4807" lon="6.94636">
        <ele>1809.7</ele>
        <time>2020-08-08T13:26:21Z</time>
      </trkpt>
      <trkpt lat="45.48074" lon="6.94634">
        <ele>1809.8</ele>
        <time>2020-08-08T13:26:22Z</time>
      </trkpt>
      <trkpt lat="45.48085" lon="6.94628">
        <ele>1810.2</ele>
        <time>2020-08-08T13:26:23Z</time>
      </trkpt>
      <trkpt lat="45.48089" lon="6.94625">
        <ele>1810.3</ele>
        <time>2020-08-08T13:26:25Z</time>
      </trkpt>
      <trkpt lat="45.48099" lon="6.9462">
        <ele>1810.6</ele>
        <time>2020-08-08T13:26:27Z</time>
      </trkpt>
      <trkpt lat="45.48103" lon="6.94618">
        <ele>1810.7</ele>
        <time>2020-08-08T13:26:29Z</time>
      </trkpt>
      <trkpt lat="45.48107" lon="6.94616">
        <ele>1810.8</ele>
        <time>2020-08-08T13:26:31Z</time>
      </trkpt>
      <trkpt lat="45.48114" lon="6.94611">
        <ele>1810.9</ele>
        <time>2020-08-08T13:26:32Z</time>
      </trkpt>
      <trkpt lat="45.48118" lon="6.94609">
        <ele>1811</ele>
        <time>2020-08-08T13:26:35Z</time>
      </trkpt>
      <trkpt lat="45.4813" lon="6.94602">
        <ele>1811.2</ele>
        <time>2020-08-08T13:26:37Z</time>
      </trkpt>
      <trkpt lat="45.48135" lon="6.946">
        <ele>1811.3</ele>
        <time>2020-08-08T13:26:38Z</time>
      </trkpt>
      <trkpt lat="45.48139" lon="6.94598">
        <ele>1811.4</ele>
        <time>2020-08-08T13:26:39Z</time>
      </trkpt>
      <trkpt lat="45.48143" lon="6.94595">
        <ele>1811.5</ele>
        <time>2020-08-08T13:26:41Z</time>
      </trkpt>
      <trkpt lat="45.48147" lon="6.94593">
        <ele>1811.6</ele>
        <time>2020-08-08T13:26:43Z</time>
      </trkpt>
      <trkpt lat="45.48151" lon="6.94592">
        <ele>1811.6</ele>
        <time>2020-08-08T13:26:44Z</time>
      </trkpt>
      <trkpt lat="45.48158" lon="6.94589">
        <ele>1811.7</ele>
        <time>2020-08-08T13:26:46Z</time>
      </trkpt>
      <trkpt lat="45.48161" lon="6.94586">
        <ele>1811.6</ele>
        <time>2020-08-08T13:26:47Z</time>
      </trkpt>
      <trkpt lat="45.48168" lon="6.94581">
        <ele>1811.6</ele>
        <time>2020-08-08T13:26:49Z</time>
      </trkpt>
      <trkpt lat="45.48172" lon="6.94578">
        <ele>1811.5</ele>
        <time>2020-08-08T13:26:50Z</time>
      </trkpt>
      <trkpt lat="45.48175" lon="6.94576">
        <ele>1811.4</ele>
        <time>2020-08-08T13:26:51Z</time>
      </trkpt>
      <trkpt lat="45.48182" lon="6.94573">
        <ele>1811.2</ele>
        <time>2020-08-08T13:26:53Z</time>
      </trkpt>
      <trkpt lat="45.48189" lon="6.94571">
        <ele>1811</ele>
        <time>2020-08-08T13:26:55Z</time>
      </trkpt>
      <trkpt lat="45.48195" lon="6.94568">
        <ele>1810.9</ele>
        <time>2020-08-08T13:26:57Z</time>
      </trkpt>
      <trkpt lat="45.48202" lon="6.94565">
        <ele>1810.7</ele>
        <time>2020-08-08T13:26:58Z</time>
      </trkpt>
      <trkpt lat="45.48215" lon="6.94563">
        <ele>1810.3</ele>
        <time>2020-08-08T13:27:01Z</time>
      </trkpt>
      <trkpt lat="45.48221" lon="6.9456">
        <ele>1810.1</ele>
        <time>2020-08-08T13:27:04Z</time>
      </trkpt>
      <trkpt lat="45.48224" lon="6.94559">
        <ele>1810</ele>
        <time>2020-08-08T13:27:05Z</time>
      </trkpt>
      <trkpt lat="45.4823" lon="6.94555">
        <ele>1809.8</ele>
        <time>2020-08-08T13:27:07Z</time>
      </trkpt>
      <trkpt lat="45.48235" lon="6.94553">
        <ele>1809.5</ele>
        <time>2020-08-08T13:27:09Z</time>
      </trkpt>
      <trkpt lat="45.48237" lon="6.94552">
        <ele>1809.4</ele>
        <time>2020-08-08T13:27:10Z</time>
      </trkpt>
      <trkpt lat="45.48241" lon="6.9455">
        <ele>1809.2</ele>
        <time>2020-08-08T13:27:12Z</time>
      </trkpt>
      <trkpt lat="45.48246" lon="6.94549">
        <ele>1808.9</ele>
        <time>2020-08-08T13:27:13Z</time>
      </trkpt>
      <trkpt lat="45.4825" lon="6.94548">
        <ele>1808.8</ele>
        <time>2020-08-08T13:27:15Z</time>
      </trkpt>
      <trkpt lat="45.48254" lon="6.94547">
        <ele>1808.9</ele>
        <time>2020-08-08T13:27:16Z</time>
      </trkpt>
      <trkpt lat="45.48258" lon="6.94547">
        <ele>1809.2</ele>
        <time>2020-08-08T13:27:17Z</time>
      </trkpt>
      <trkpt lat="45.48321" lon="6.9454">
        <ele>1809.7</ele>
        <time>2020-08-08T13:27:32Z</time>
      </trkpt>
      <trkpt lat="45.48339" lon="6.94539">
        <ele>1809.6</ele>
        <time>2020-08-08T13:27:37Z</time>
      </trkpt>
      <trkpt lat="45.48264" lon="6.94548">
        <ele>1809.6</ele>
        <time>2020-08-08T13:27:42Z</time>
      </trkpt>
      <trkpt lat="45.48533" lon="6.94459">
        <ele>1808.4</ele>
        <time>2020-08-08T13:27:57Z</time>
      </trkpt>
      <trkpt lat="45.48548" lon="6.94449">
        <ele>1808.1</ele>
        <time>2020-08-08T13:27:59Z</time>
      </trkpt>
      <trkpt lat="45.48563" lon="6.9444">
        <ele>1807.3</ele>
        <time>2020-08-08T13:28:01Z</time>
      </trkpt>
      <trkpt lat="45.48571" lon="6.94435">
        <ele>1806.7</ele>
        <time>2020-08-08T13:28:02Z</time>
      </trkpt>
      <trkpt lat="45.48585" lon="6.94425">
        <ele>1805.3</ele>
        <time>2020-08-08T13:28:04Z</time>
      </trkpt>
      <trkpt lat="45.48593" lon="6.9442">
        <ele>1804.7</ele>
        <time>2020-08-08T13:28:05Z</time>
      </trkpt>
      <trkpt lat="45.486" lon="6.94415">
        <ele>1804.6</ele>
        <time>2020-08-08T13:28:06Z</time>
      </trkpt>
      <trkpt lat="45.48681" lon="6.94365">
        <ele>1804.3</ele>
        <time>2020-08-08T13:28:19Z</time>
      </trkpt>
      <trkpt lat="45.48655" lon="6.94389">
        <ele>1804.2</ele>
        <time>2020-08-08T13:28:24Z</time>
      </trkpt>
      <trkpt lat="45.486" lon="6.94415">
        <ele>1808.4</ele>
        <time>2020-08-08T13:28:29Z</time>
      </trkpt>
      <trkpt lat="45.486" lon="6.94415">
        <ele>1808.4</ele>
        <time>2020-08-08T13:28:34Z</time>
      </trkpt>
      <trkpt lat="45.49564" lon="6.93428">
        <ele>1782.2</ele>
        <time>2020-08-08T13:31:17Z</time>
      </trkpt>
      <trkpt lat="45.49572" lon="6.9342">
        <ele>1781.6</ele>
        <time>2020-08-08T13:31:18Z</time>
      </trkpt>
      <trkpt lat="45.49591" lon="6.93406">
        <ele>1780.4</ele>
        <time>2020-08-08T13:31:20Z</time>
      </trkpt>
      <trkpt lat="45.49611" lon="6.93394">
        <ele>1779.3</ele>
        <time>2020-08-08T13:31:22Z</time>
      </trkpt>
      <trkpt lat="45.49621" lon="6.93389">
        <ele>1778.8</ele>
        <time>2020-08-08T13:31:23Z</time>
      </trkpt>
      <trkpt lat="45.49641" lon="6.93378">
        <ele>1777.6</ele>
        <time>2020-08-08T13:31:25Z</time>
      </trkpt>
      <trkpt lat="45.4965" lon="6.93372">
        <ele>1777.2</ele>
        <time>2020-08-08T13:31:26Z</time>
      </trkpt>
      <trkpt lat="45.49669" lon="6.93359">
        <ele>1776.4</ele>
        <time>2020-08-08T13:31:28Z</time>
      </trkpt>
      <trkpt lat="45.49689" lon="6.93346">
        <ele>1775.3</ele>
        <time>2020-08-08T13:31:30Z</time>
      </trkpt>
      <trkpt lat="45.49698" lon="6.93339">
        <ele>1774.6</ele>
        <time>2020-08-08T13:31:31Z</time>
      </trkpt>
      <trkpt lat="45.49708" lon="6.93331">
        <ele>1773.9</ele>
        <time>2020-08-08T13:31:32Z</time>
      </trkpt>
      <trkpt lat="45.49726" lon="6.93314">
        <ele>1772.1</ele>
        <time>2020-08-08T13:31:34Z</time>
      </trkpt>
      <trkpt lat="45.49745" lon="6.93297">
        <ele>1770.7</ele>
        <time>2020-08-08T13:31:36Z</time>
      </trkpt>
      <trkpt lat="45.49765" lon="6.93279">
        <ele>1770.1</ele>
        <time>2020-08-08T13:31:38Z</time>
      </trkpt>
      <trkpt lat="45.49785" lon="6.93262">
        <ele>1771.2</ele>
        <time>2020-08-08T13:31:40Z</time>
      </trkpt>
      <trkpt lat="45.49804" lon="6.93246">
        <ele>1771.9</ele>
        <time>2020-08-08T13:31:42Z</time>
      </trkpt>
      <trkpt lat="45.49814" lon="6.93237">
        <ele>1772.3</ele>
        <time>2020-08-08T13:31:43Z</time>
      </trkpt>
      <trkpt lat="45.49836" lon="6.93222">
        <ele>1772.9</ele>
        <time>2020-08-08T13:31:45Z</time>
      </trkpt>
      <trkpt lat="45.49848" lon="6.93213">
        <ele>1773.2</ele>
        <time>2020-08-08T13:31:46Z</time>
      </trkpt>
      <trkpt lat="45.49872" lon="6.93197">
        <ele>1774</ele>
        <time>2020-08-08T13:31:48Z</time>
      </trkpt>
      <trkpt lat="45.49884" lon="6.9319">
        <ele>1774.6</ele>
        <time>2020-08-08T13:31:49Z</time>
      </trkpt>
      <trkpt lat="45.4991" lon="6.93177">
        <ele>1776.5</ele>
        <time>2020-08-08T13:31:51Z</time>
      </trkpt>
      <trkpt lat="45.49936" lon="6.93163">
        <ele>1775</ele>
        <time>2020-08-08T13:31:53Z</time>
      </trkpt>
      <trkpt lat="45.49962" lon="6.93147">
        <ele>1771.6</ele>
        <time>2020-08-08T13:31:55Z</time>
      </trkpt>
      <trkpt lat="45.49976" lon="6.93139">
        <ele>1768.7</ele>
        <time>2020-08-08T13:31:56Z</time>
      </trkpt>
      <trkpt lat="45.49989" lon="6.93129">
        <ele>1766.1</ele>
        <time>2020-08-08T13:31:57Z</time>
      </trkpt>
      <trkpt lat="45.50014" lon="6.9311">
        <ele>1761.2</ele>
        <time>2020-08-08T13:31:59Z</time>
      </trkpt>
      <trkpt lat="45.50027" lon="6.93101">
        <ele>1758.3</ele>
        <time>2020-08-08T13:32:00Z</time>
      </trkpt>
      <trkpt lat="45.50041" lon="6.93093">
        <ele>1755.1</ele>
        <time>2020-08-08T13:32:01Z</time>
      </trkpt>
      <trkpt lat="45.50069" lon="6.93082">
        <ele>1754.3</ele>
        <time>2020-08-08T13:32:03Z</time>
      </trkpt>
      <trkpt lat="45.50097" lon="6.93074">
        <ele>1753.2</ele>
        <time>2020-08-08T13:32:05Z</time>
      </trkpt>
      <trkpt lat="45.50112" lon="6.93068">
        <ele>1752.6</ele>
        <time>2020-08-08T13:32:06Z</time>
      </trkpt>
      <trkpt lat="45.5014" lon="6.93053">
        <ele>1751.5</ele>
        <time>2020-08-08T13:32:08Z</time>
      </trkpt>
      <trkpt lat="45.50154" lon="6.93045">
        <ele>1750.9</ele>
        <time>2020-08-08T13:32:09Z</time>
      </trkpt>
      <trkpt lat="45.50169" lon="6.93037">
        <ele>1750.3</ele>
        <time>2020-08-08T13:32:10Z</time>
      </trkpt>
      <trkpt lat="45.50197" lon="6.93022">
        <ele>1748.9</ele>
        <time>2020-08-08T13:32:12Z</time>
      </trkpt>
      <trkpt lat="45.50211" lon="6.93019">
        <ele>1748.2</ele>
        <time>2020-08-08T13:32:13Z</time>
      </trkpt>
      <trkpt lat="45.50241" lon="6.93024">
        <ele>1747</ele>
        <time>2020-08-08T13:32:15Z</time>
      </trkpt>
      <trkpt lat="45.50256" lon="6.93027">
        <ele>1746.4</ele>
        <time>2020-08-08T13:32:16Z</time>
      </trkpt>
      <trkpt lat="45.50271" lon="6.93027">
        <ele>1745.9</ele>
        <time>2020-08-08T13:32:17Z</time>
      </trkpt>
      <trkpt lat="45.50286" lon="6.93025">
        <ele>1745.4</ele>
        <time>2020-08-08T13:32:18Z</time>
      </trkpt>
      <trkpt lat="45.50317" lon="6.93016">
        <ele>1744.2</ele>
        <time>2020-08-08T13:32:20Z</time>
      </trkpt>
      <trkpt lat="45.50347" lon="6.93003">
        <ele>1743.2</ele>
        <time>2020-08-08T13:32:22Z</time>
      </trkpt>
      <trkpt lat="45.50378" lon="6.92987">
        <ele>1741.9</ele>
        <time>2020-08-08T13:32:24Z</time>
      </trkpt>
      <trkpt lat="45.50393" lon="6.92977">
        <ele>1741.3</ele>
        <time>2020-08-08T13:32:25Z</time>
      </trkpt>
      <trkpt lat="45.50422" lon="6.92952">
        <ele>1740.5</ele>
        <time>2020-08-08T13:32:27Z</time>
      </trkpt>
      <trkpt lat="45.5045" lon="6.92926">
        <ele>1739.6</ele>
        <time>2020-08-08T13:32:29Z</time>
      </trkpt>
      <trkpt lat="45.50463" lon="6.92912">
        <ele>1739.2</ele>
        <time>2020-08-08T13:32:30Z</time>
      </trkpt>
      <trkpt lat="45.50488" lon="6.92882">
        <ele>1737.9</ele>
        <time>2020-08-08T13:32:32Z</time>
      </trkpt>
      <trkpt lat="45.50499" lon="6.92863">
        <ele>1736.4</ele>
        <time>2020-08-08T13:32:33Z</time>
      </trkpt>
      <trkpt lat="45.5052" lon="6.92827">
        <ele>1728</ele>
        <time>2020-08-08T13:32:35Z</time>
      </trkpt>
      <trkpt lat="45.50681" lon="6.9262">
        <ele>1719.9</ele>
        <time>2020-08-08T13:32:49Z</time>
      </trkpt>
      <trkpt lat="45.50681" lon="6.9262">
        <ele>1719.9</ele>
        <time>2020-08-08T13:32:49Z</time>
      </trkpt>
      <trkpt lat="45.50701" lon="6.92616">
        <ele>1719.7</ele>
        <time>2020-08-08T13:32:51Z</time>
      </trkpt>
      <trkpt lat="45.50719" lon="6.92591">
        <ele>1718.3</ele>
        <time>2020-08-08T13:32:53Z</time>
      </trkpt>
      <trkpt lat="45.50734" lon="6.92564">
        <ele>1716.8</ele>
        <time>2020-08-08T13:32:55Z</time>
      </trkpt>
      <trkpt lat="45.50742" lon="6.92551">
        <ele>1715.9</ele>
        <time>2020-08-08T13:32:56Z</time>
      </trkpt>
      <trkpt lat="45.50763" lon="6.92528">
        <ele>1713.6</ele>
        <time>2020-08-08T13:32:58Z</time>
      </trkpt>
      <trkpt lat="45.50789" lon="6.92514">
        <ele>1710.9</ele>
        <time>2020-08-08T13:33:00Z</time>
      </trkpt>
      <trkpt lat="45.50817" lon="6.92504">
        <ele>1708.1</ele>
        <time>2020-08-08T13:33:02Z</time>
      </trkpt>
      <trkpt lat="45.50831" lon="6.92498">
        <ele>1706.7</ele>
        <time>2020-08-08T13:33:03Z</time>
      </trkpt>
      <trkpt lat="45.50845" lon="6.92491">
        <ele>1705.3</ele>
        <time>2020-08-08T13:33:04Z</time>
      </trkpt>
      <trkpt lat="45.50873" lon="6.92478">
        <ele>1702.7</ele>
        <time>2020-08-08T13:33:06Z</time>
      </trkpt>
      <trkpt lat="45.50887" lon="6.92472">
        <ele>1701.8</ele>
        <time>2020-08-08T13:33:07Z</time>
      </trkpt>
      <trkpt lat="45.50901" lon="6.92464">
        <ele>1701.3</ele>
        <time>2020-08-08T13:33:08Z</time>
      </trkpt>
      <trkpt lat="45.50916" lon="6.92455">
        <ele>1699.8</ele>
        <time>2020-08-08T13:33:09Z</time>
      </trkpt>
      <trkpt lat="45.50943" lon="6.92432">
        <ele>1694.1</ele>
        <time>2020-08-08T13:33:11Z</time>
      </trkpt>
      <trkpt lat="45.50966" lon="6.92404">
        <ele>1689.5</ele>
        <time>2020-08-08T13:33:13Z</time>
      </trkpt>
      <trkpt lat="45.50977" lon="6.92388">
        <ele>1687.6</ele>
        <time>2020-08-08T13:33:14Z</time>
      </trkpt>
      <trkpt lat="45.50995" lon="6.9235">
        <ele>1683.6</ele>
        <time>2020-08-08T13:33:16Z</time>
      </trkpt>
      <trkpt lat="45.51003" lon="6.92328">
        <ele>1681.4</ele>
        <time>2020-08-08T13:33:17Z</time>
      </trkpt>
      <trkpt lat="45.5102" lon="6.92285">
        <ele>1677.1</ele>
        <time>2020-08-08T13:33:19Z</time>
      </trkpt>
      <trkpt lat="45.51028" lon="6.92264">
        <ele>1675.1</ele>
        <time>2020-08-08T13:33:20Z</time>
      </trkpt>
      <trkpt lat="45.51046" lon="6.92223">
        <ele>1670.7</ele>
        <time>2020-08-08T13:33:22Z</time>
      </trkpt>
      <trkpt lat="45.51067" lon="6.92186">
        <ele>1666.2</ele>
        <time>2020-08-08T13:33:24Z</time>
      </trkpt>
      <trkpt lat="45.5109" lon="6.9215">
        <ele>1661.2</ele>
        <time>2020-08-08T13:33:26Z</time>
      </trkpt>
      <trkpt lat="45.51114" lon="6.92116">
        <ele>1656.4</ele>
        <time>2020-08-08T13:33:28Z</time>
      </trkpt>
      <trkpt lat="45.51139" lon="6.92082">
        <ele>1653.2</ele>
        <time>2020-08-08T13:33:30Z</time>
      </trkpt>
      <trkpt lat="45.51164" lon="6.92048">
        <ele>1649.7</ele>
        <time>2020-08-08T13:33:32Z</time>
      </trkpt>
      <trkpt lat="45.51191" lon="6.92016">
        <ele>1645.9</ele>
        <time>2020-08-08T13:33:34Z</time>
      </trkpt>
      <trkpt lat="45.51205" lon="6.91999">
        <ele>1643.9</ele>
        <time>2020-08-08T13:33:35Z</time>
      </trkpt>
      <trkpt lat="45.51219" lon="6.91983">
        <ele>1642.1</ele>
        <time>2020-08-08T13:33:36Z</time>
      </trkpt>
      <trkpt lat="45.51232" lon="6.91967">
        <ele>1640.2</ele>
        <time>2020-08-08T13:33:37Z</time>
      </trkpt>
      <trkpt lat="45.51259" lon="6.91933">
        <ele>1636.4</ele>
        <time>2020-08-08T13:33:39Z</time>
      </trkpt>
      <trkpt lat="45.51272" lon="6.91916">
        <ele>1634.4</ele>
        <time>2020-08-08T13:33:40Z</time>
      </trkpt>
      <trkpt lat="45.51299" lon="6.9188">
        <ele>1630.7</ele>
        <time>2020-08-08T13:33:42Z</time>
      </trkpt>
      <trkpt lat="45.51312" lon="6.91861">
        <ele>1628.9</ele>
        <time>2020-08-08T13:33:43Z</time>
      </trkpt>
      <trkpt lat="45.51337" lon="6.91823">
        <ele>1625.3</ele>
        <time>2020-08-08T13:33:45Z</time>
      </trkpt>
      <trkpt lat="45.51349" lon="6.91805">
        <ele>1623.6</ele>
        <time>2020-08-08T13:33:46Z</time>
      </trkpt>
      <trkpt lat="45.51375" lon="6.9177">
        <ele>1620.1</ele>
        <time>2020-08-08T13:33:48Z</time>
      </trkpt>
      <trkpt lat="45.51388" lon="6.91754">
        <ele>1618.6</ele>
        <time>2020-08-08T13:33:49Z</time>
      </trkpt>
      <trkpt lat="45.51416" lon="6.91726">
        <ele>1615.6</ele>
        <time>2020-08-08T13:33:51Z</time>
      </trkpt>
      <trkpt lat="45.51447" lon="6.91705">
        <ele>1613.1</ele>
        <time>2020-08-08T13:33:53Z</time>
      </trkpt>
      <trkpt lat="45.51478" lon="6.91687">
        <ele>1610.6</ele>
        <time>2020-08-08T13:33:55Z</time>
      </trkpt>
      <trkpt lat="45.51494" lon="6.91679">
        <ele>1609.4</ele>
        <time>2020-08-08T13:33:56Z</time>
      </trkpt>
      <trkpt lat="45.51526" lon="6.91666">
        <ele>1606.9</ele>
        <time>2020-08-08T13:33:58Z</time>
      </trkpt>
      <trkpt lat="45.51542" lon="6.9166">
        <ele>1605.8</ele>
        <time>2020-08-08T13:33:59Z</time>
      </trkpt>
      <trkpt lat="45.51558" lon="6.91655">
        <ele>1604.7</ele>
        <time>2020-08-08T13:34:00Z</time>
      </trkpt>
      <trkpt lat="45.51574" lon="6.9165">
        <ele>1603.6</ele>
        <time>2020-08-08T13:34:01Z</time>
      </trkpt>
      <trkpt lat="45.51605" lon="6.91642">
        <ele>1601.6</ele>
        <time>2020-08-08T13:34:03Z</time>
      </trkpt>
      <trkpt lat="45.51621" lon="6.91638">
        <ele>1600.5</ele>
        <time>2020-08-08T13:34:04Z</time>
      </trkpt>
      <trkpt lat="45.51652" lon="6.91635">
        <ele>1598.2</ele>
        <time>2020-08-08T13:34:06Z</time>
      </trkpt>
      <trkpt lat="45.51668" lon="6.91634">
        <ele>1596.8</ele>
        <time>2020-08-08T13:34:07Z</time>
      </trkpt>
      <trkpt lat="45.51698" lon="6.9163">
        <ele>1594</ele>
        <time>2020-08-08T13:34:09Z</time>
      </trkpt>
      <trkpt lat="45.51712" lon="6.91627">
        <ele>1592.7</ele>
        <time>2020-08-08T13:34:10Z</time>
      </trkpt>
      <trkpt lat="45.51726" lon="6.9162">
        <ele>1591.4</ele>
        <time>2020-08-08T13:34:11Z</time>
      </trkpt>
      <trkpt lat="45.51747" lon="6.91602">
        <ele>1589.3</ele>
        <time>2020-08-08T13:34:13Z</time>
      </trkpt>
      <trkpt lat="45.51756" lon="6.9159">
        <ele>1588.3</ele>
        <time>2020-08-08T13:34:14Z</time>
      </trkpt>
      <trkpt lat="45.51764" lon="6.91578">
        <ele>1587.3</ele>
        <time>2020-08-08T13:34:15Z</time>
      </trkpt>
      <trkpt lat="45.51784" lon="6.91556">
        <ele>1585.1</ele>
        <time>2020-08-08T13:34:17Z</time>
      </trkpt>
      <trkpt lat="45.51796" lon="6.91546">
        <ele>1583.8</ele>
        <time>2020-08-08T13:34:18Z</time>
      </trkpt>
      <trkpt lat="45.51821" lon="6.91532">
        <ele>1581.2</ele>
        <time>2020-08-08T13:34:20Z</time>
      </trkpt>
      <trkpt lat="45.51847" lon="6.91523">
        <ele>1578.6</ele>
        <time>2020-08-08T13:34:22Z</time>
      </trkpt>
      <trkpt lat="45.51874" lon="6.91513">
        <ele>1576.3</ele>
        <time>2020-08-08T13:34:24Z</time>
      </trkpt>
      <trkpt lat="45.519" lon="6.91498">
        <ele>1574.1</ele>
        <time>2020-08-08T13:34:26Z</time>
      </trkpt>
      <trkpt lat="45.51913" lon="6.91489">
        <ele>1572.8</ele>
        <time>2020-08-08T13:34:27Z</time>
      </trkpt>
      <trkpt lat="45.51926" lon="6.91479">
        <ele>1571.6</ele>
        <time>2020-08-08T13:34:28Z</time>
      </trkpt>
      <trkpt lat="45.5195" lon="6.9146">
        <ele>1569.1</ele>
        <time>2020-08-08T13:34:30Z</time>
      </trkpt>
      <trkpt lat="45.51963" lon="6.9145">
        <ele>1567.7</ele>
        <time>2020-08-08T13:34:31Z</time>
      </trkpt>
      <trkpt lat="45.51989" lon="6.91426">
        <ele>1564.8</ele>
        <time>2020-08-08T13:34:33Z</time>
      </trkpt>
      <trkpt lat="45.52011" lon="6.91393">
        <ele>1562.3</ele>
        <time>2020-08-08T13:34:35Z</time>
      </trkpt>
      <trkpt lat="45.52021" lon="6.91375">
        <ele>1561.4</ele>
        <time>2020-08-08T13:34:36Z</time>
      </trkpt>
      <trkpt lat="45.52032" lon="6.91359">
        <ele>1560.7</ele>
        <time>2020-08-08T13:34:37Z</time>
      </trkpt>
      <trkpt lat="45.52056" lon="6.91338">
        <ele>1560</ele>
        <time>2020-08-08T13:34:39Z</time>
      </trkpt>
      <trkpt lat="45.52069" lon="6.91334">
        <ele>1559.8</ele>
        <time>2020-08-08T13:34:40Z</time>
      </trkpt>
      <trkpt lat="45.52083" lon="6.91336">
        <ele>1559.6</ele>
        <time>2020-08-08T13:34:41Z</time>
      </trkpt>
      <trkpt lat="45.52108" lon="6.91353">
        <ele>1558.9</ele>
        <time>2020-08-08T13:34:43Z</time>
      </trkpt>
      <trkpt lat="45.52129" lon="6.9138">
        <ele>1558.3</ele>
        <time>2020-08-08T13:34:45Z</time>
      </trkpt>
      <trkpt lat="45.52154" lon="6.91398">
        <ele>1557.9</ele>
        <time>2020-08-08T13:34:47Z</time>
      </trkpt>
      <trkpt lat="45.52167" lon="6.91401">
        <ele>1557.6</ele>
        <time>2020-08-08T13:34:48Z</time>
      </trkpt>
      <trkpt lat="45.52193" lon="6.91402">
        <ele>1556.9</ele>
        <time>2020-08-08T13:34:50Z</time>
      </trkpt>
      <trkpt lat="45.52218" lon="6.91395">
        <ele>1556.2</ele>
        <time>2020-08-08T13:34:52Z</time>
      </trkpt>
      <trkpt lat="45.5223" lon="6.91389">
        <ele>1555.8</ele>
        <time>2020-08-08T13:34:53Z</time>
      </trkpt>
      <trkpt lat="45.52242" lon="6.91382">
        <ele>1555.3</ele>
        <time>2020-08-08T13:34:54Z</time>
      </trkpt>
      <trkpt lat="45.52253" lon="6.91377">
        <ele>1554.7</ele>
        <time>2020-08-08T13:34:55Z</time>
      </trkpt>
      <trkpt lat="45.52277" lon="6.91371">
        <ele>1553.4</ele>
        <time>2020-08-08T13:34:57Z</time>
      </trkpt>
      <trkpt lat="45.5229" lon="6.91368">
        <ele>1552.7</ele>
        <time>2020-08-08T13:34:58Z</time>
      </trkpt>
      <trkpt lat="45.52302" lon="6.91364">
        <ele>1552</ele>
        <time>2020-08-08T13:34:59Z</time>
      </trkpt>
      <trkpt lat="45.52313" lon="6.91357">
        <ele>1551.5</ele>
        <time>2020-08-08T13:35:00Z</time>
      </trkpt>
      <trkpt lat="45.52325" lon="6.91349">
        <ele>1551.8</ele>
        <time>2020-08-08T13:35:01Z</time>
      </trkpt>
      <trkpt lat="45.52346" lon="6.91331">
        <ele>1551.5</ele>
        <time>2020-08-08T13:35:03Z</time>
      </trkpt>
      <trkpt lat="45.52368" lon="6.91312">
        <ele>1551.6</ele>
        <time>2020-08-08T13:35:05Z</time>
      </trkpt>
      <trkpt lat="45.5238" lon="6.91305">
        <ele>1551.7</ele>
        <time>2020-08-08T13:35:06Z</time>
      </trkpt>
      <trkpt lat="45.52391" lon="6.91299">
        <ele>1551.9</ele>
        <time>2020-08-08T13:35:07Z</time>
      </trkpt>
      <trkpt lat="45.52402" lon="6.91293">
        <ele>1552.1</ele>
        <time>2020-08-08T13:35:08Z</time>
      </trkpt>
      <trkpt lat="45.52413" lon="6.91287">
        <ele>1552.4</ele>
        <time>2020-08-08T13:35:09Z</time>
      </trkpt>
      <trkpt lat="45.52424" lon="6.91283">
        <ele>1552.7</ele>
        <time>2020-08-08T13:35:10Z</time>
      </trkpt>
      <trkpt lat="45.52445" lon="6.91275">
        <ele>1553.2</ele>
        <time>2020-08-08T13:35:12Z</time>
      </trkpt>
      <trkpt lat="45.52466" lon="6.91269">
        <ele>1553.9</ele>
        <time>2020-08-08T13:35:14Z</time>
      </trkpt>
      <trkpt lat="45.52476" lon="6.91267">
        <ele>1554.2</ele>
        <time>2020-08-08T13:35:15Z</time>
      </trkpt>
      <trkpt lat="45.52495" lon="6.91267">
        <ele>1554.8</ele>
        <time>2020-08-08T13:35:17Z</time>
      </trkpt>
      <trkpt lat="45.52516" lon="6.9127">
        <ele>1555.2</ele>
        <time>2020-08-08T13:35:19Z</time>
      </trkpt>
      <trkpt lat="45.52537" lon="6.91271">
        <ele>1555.4</ele>
        <time>2020-08-08T13:35:21Z</time>
      </trkpt>
      <trkpt lat="45.52548" lon="6.91271">
        <ele>1555.4</ele>
        <time>2020-08-08T13:35:22Z</time>
      </trkpt>
      <trkpt lat="45.52569" lon="6.91274">
        <ele>1555.3</ele>
        <time>2020-08-08T13:35:24Z</time>
      </trkpt>
      <trkpt lat="45.5259" lon="6.91276">
        <ele>1555.1</ele>
        <time>2020-08-08T13:35:26Z</time>
      </trkpt>
      <trkpt lat="45.52611" lon="6.91276">
        <ele>1554.8</ele>
        <time>2020-08-08T13:35:28Z</time>
      </trkpt>
      <trkpt lat="45.52622" lon="6.91276">
        <ele>1554.5</ele>
        <time>2020-08-08T13:35:29Z</time>
      </trkpt>
      <trkpt lat="45.52633" lon="6.91278">
        <ele>1554.2</ele>
        <time>2020-08-08T13:35:30Z</time>
      </trkpt>
      <trkpt lat="45.52655" lon="6.91284">
        <ele>1553.5</ele>
        <time>2020-08-08T13:35:32Z</time>
      </trkpt>
      <trkpt lat="45.52666" lon="6.9129">
        <ele>1553.1</ele>
        <time>2020-08-08T13:35:33Z</time>
      </trkpt>
      <trkpt lat="45.52688" lon="6.91303">
        <ele>1552.2</ele>
        <time>2020-08-08T13:35:35Z</time>
      </trkpt>
      <trkpt lat="45.52701" lon="6.91309">
        <ele>1551.6</ele>
        <time>2020-08-08T13:35:36Z</time>
      </trkpt>
      <trkpt lat="45.52726" lon="6.91317">
        <ele>1550.4</ele>
        <time>2020-08-08T13:35:38Z</time>
      </trkpt>
      <trkpt lat="45.52751" lon="6.91325">
        <ele>1549.1</ele>
        <time>2020-08-08T13:35:40Z</time>
      </trkpt>
      <trkpt lat="45.52765" lon="6.91329">
        <ele>1548.3</ele>
        <time>2020-08-08T13:35:41Z</time>
      </trkpt>
      <trkpt lat="45.52792" lon="6.91336">
        <ele>1546.6</ele>
        <time>2020-08-08T13:35:43Z</time>
      </trkpt>
      <trkpt lat="45.52807" lon="6.9134">
        <ele>1545.8</ele>
        <time>2020-08-08T13:35:44Z</time>
      </trkpt>
      <trkpt lat="45.52835" lon="6.91352">
        <ele>1544</ele>
        <time>2020-08-08T13:35:46Z</time>
      </trkpt>
      <trkpt lat="45.52849" lon="6.91358">
        <ele>1543.2</ele>
        <time>2020-08-08T13:35:47Z</time>
      </trkpt>
      <trkpt lat="45.52864" lon="6.91363">
        <ele>1542.3</ele>
        <time>2020-08-08T13:35:48Z</time>
      </trkpt>
      <trkpt lat="45.52894" lon="6.91369">
        <ele>1540.5</ele>
        <time>2020-08-08T13:35:50Z</time>
      </trkpt>
      <trkpt lat="45.52909" lon="6.91373">
        <ele>1539.6</ele>
        <time>2020-08-08T13:35:51Z</time>
      </trkpt>
      <trkpt lat="45.52938" lon="6.9139">
        <ele>1537.8</ele>
        <time>2020-08-08T13:35:53Z</time>
      </trkpt>
      <trkpt lat="45.52951" lon="6.91402">
        <ele>1536.9</ele>
        <time>2020-08-08T13:35:54Z</time>
      </trkpt>
      <trkpt lat="45.52977" lon="6.91431">
        <ele>1535.2</ele>
        <time>2020-08-08T13:35:56Z</time>
      </trkpt>
      <trkpt lat="45.52989" lon="6.91446">
        <ele>1534.4</ele>
        <time>2020-08-08T13:35:57Z</time>
      </trkpt>
      <trkpt lat="45.53015" lon="6.91473">
        <ele>1532.9</ele>
        <time>2020-08-08T13:35:59Z</time>
      </trkpt>
      <trkpt lat="45.53044" lon="6.9149">
        <ele>1531.8</ele>
        <time>2020-08-08T13:36:01Z</time>
      </trkpt>
      <trkpt lat="45.53059" lon="6.91494">
        <ele>1531.3</ele>
        <time>2020-08-08T13:36:02Z</time>
      </trkpt>
      <trkpt lat="45.53089" lon="6.91508">
        <ele>1530.5</ele>
        <time>2020-08-08T13:36:04Z</time>
      </trkpt>
      <trkpt lat="45.53113" lon="6.91535">
        <ele>1529.9</ele>
        <time>2020-08-08T13:36:06Z</time>
      </trkpt>
      <trkpt lat="45.53129" lon="6.91566">
        <ele>1529.4</ele>
        <time>2020-08-08T13:36:08Z</time>
      </trkpt>
      <trkpt lat="45.53137" lon="6.9158">
        <ele>1528.5</ele>
        <time>2020-08-08T13:36:09Z</time>
      </trkpt>
      <trkpt lat="45.53262" lon="6.91567">
        <ele>1502.6</ele>
        <time>2020-08-08T13:36:23Z</time>
      </trkpt>
      <trkpt lat="45.53262" lon="6.91567">
        <ele>1502.6</ele>
        <time>2020-08-08T13:36:23Z</time>
      </trkpt>
      <trkpt lat="45.5328" lon="6.91516">
        <ele>1503.3</ele>
        <time>2020-08-08T13:36:24Z</time>
      </trkpt>
      <trkpt lat="45.53291" lon="6.91507">
        <ele>1503.4</ele>
        <time>2020-08-08T13:36:26Z</time>
      </trkpt>
      <trkpt lat="45.53304" lon="6.91504">
        <ele>1503.3</ele>
        <time>2020-08-08T13:36:27Z</time>
      </trkpt>
      <trkpt lat="45.5333" lon="6.91501">
        <ele>1502.8</ele>
        <time>2020-08-08T13:36:29Z</time>
      </trkpt>
      <trkpt lat="45.53344" lon="6.91502">
        <ele>1502.5</ele>
        <time>2020-08-08T13:36:30Z</time>
      </trkpt>
      <trkpt lat="45.53371" lon="6.915">
        <ele>1501.9</ele>
        <time>2020-08-08T13:36:32Z</time>
      </trkpt>
      <trkpt lat="45.53399" lon="6.91494">
        <ele>1501.4</ele>
        <time>2020-08-08T13:36:34Z</time>
      </trkpt>
      <trkpt lat="45.53428" lon="6.91482">
        <ele>1501</ele>
        <time>2020-08-08T13:36:36Z</time>
      </trkpt>
      <trkpt lat="45.53443" lon="6.91475">
        <ele>1500.8</ele>
        <time>2020-08-08T13:36:37Z</time>
      </trkpt>
      <trkpt lat="45.53458" lon="6.91468">
        <ele>1500.6</ele>
        <time>2020-08-08T13:36:38Z</time>
      </trkpt>
      <trkpt lat="45.53489" lon="6.91461">
        <ele>1499.9</ele>
        <time>2020-08-08T13:36:40Z</time>
      </trkpt>
      <trkpt lat="45.5352" lon="6.91457">
        <ele>1499</ele>
        <time>2020-08-08T13:36:42Z</time>
      </trkpt>
      <trkpt lat="45.53552" lon="6.91447">
        <ele>1498.5</ele>
        <time>2020-08-08T13:36:44Z</time>
      </trkpt>
      <trkpt lat="45.53581" lon="6.91438">
        <ele>1498.3</ele>
        <time>2020-08-08T13:36:46Z</time>
      </trkpt>
      <trkpt lat="45.53595" lon="6.91437">
        <ele>1498.2</ele>
        <time>2020-08-08T13:36:47Z</time>
      </trkpt>
      <trkpt lat="45.53623" lon="6.91439">
        <ele>1497.8</ele>
        <time>2020-08-08T13:36:49Z</time>
      </trkpt>
      <trkpt lat="45.53636" lon="6.91436">
        <ele>1495.3</ele>
        <time>2020-08-08T13:36:50Z</time>
      </trkpt>
      <trkpt lat="45.53677" lon="6.91385">
        <ele>1484.9</ele>
        <time>2020-08-08T13:36:54Z</time>
      </trkpt>
      <trkpt lat="45.53677" lon="6.91347">
        <ele>1482.9</ele>
        <time>2020-08-08T13:36:56Z</time>
      </trkpt>
      <trkpt lat="45.53679" lon="6.9133">
        <ele>1481.9</ele>
        <time>2020-08-08T13:36:57Z</time>
      </trkpt>
      <trkpt lat="45.5369" lon="6.91299">
        <ele>1479.9</ele>
        <time>2020-08-08T13:36:59Z</time>
      </trkpt>
      <trkpt lat="45.53698" lon="6.91285">
        <ele>1478.8</ele>
        <time>2020-08-08T13:37:00Z</time>
      </trkpt>
      <trkpt lat="45.53709" lon="6.91273">
        <ele>1477.6</ele>
        <time>2020-08-08T13:37:01Z</time>
      </trkpt>
      <trkpt lat="45.5373" lon="6.91247">
        <ele>1475.4</ele>
        <time>2020-08-08T13:37:03Z</time>
      </trkpt>
      <trkpt lat="45.53741" lon="6.91233">
        <ele>1474.2</ele>
        <time>2020-08-08T13:37:04Z</time>
      </trkpt>
      <trkpt lat="45.53763" lon="6.91207">
        <ele>1471.7</ele>
        <time>2020-08-08T13:37:06Z</time>
      </trkpt>
      <trkpt lat="45.53775" lon="6.91194">
        <ele>1470.4</ele>
        <time>2020-08-08T13:37:07Z</time>
      </trkpt>
      <trkpt lat="45.538" lon="6.91171">
        <ele>1468.1</ele>
        <time>2020-08-08T13:37:09Z</time>
      </trkpt>
      <trkpt lat="45.53813" lon="6.91162">
        <ele>1467</ele>
        <time>2020-08-08T13:37:10Z</time>
      </trkpt>
      <trkpt lat="45.53842" lon="6.91148">
        <ele>1464.9</ele>
        <time>2020-08-08T13:37:12Z</time>
      </trkpt>
      <trkpt lat="45.53872" lon="6.91145">
        <ele>1462.6</ele>
        <time>2020-08-08T13:37:14Z</time>
      </trkpt>
      <trkpt lat="45.53902" lon="6.91149">
        <ele>1460</ele>
        <time>2020-08-08T13:37:16Z</time>
      </trkpt>
      <trkpt lat="45.53918" lon="6.91147">
        <ele>1458.6</ele>
        <time>2020-08-08T13:37:17Z</time>
      </trkpt>
      <trkpt lat="45.53933" lon="6.91142">
        <ele>1457.3</ele>
        <time>2020-08-08T13:37:18Z</time>
      </trkpt>
      <trkpt lat="45.5396" lon="6.91124">
        <ele>1454.5</ele>
        <time>2020-08-08T13:37:20Z</time>
      </trkpt>
      <trkpt lat="45.53974" lon="6.91117">
        <ele>1453.2</ele>
        <time>2020-08-08T13:37:21Z</time>
      </trkpt>
      <trkpt lat="45.53986" lon="6.91109">
        <ele>1452.1</ele>
        <time>2020-08-08T13:37:22Z</time>
      </trkpt>
      <trkpt lat="45.54007" lon="6.91093">
        <ele>1450</ele>
        <time>2020-08-08T13:37:24Z</time>
      </trkpt>
      <trkpt lat="45.54029" lon="6.91085">
        <ele>1447.9</ele>
        <time>2020-08-08T13:37:26Z</time>
      </trkpt>
      <trkpt lat="45.54041" lon="6.91086">
        <ele>1446.8</ele>
        <time>2020-08-08T13:37:27Z</time>
      </trkpt>
      <trkpt lat="45.54064" lon="6.91098">
        <ele>1444.5</ele>
        <time>2020-08-08T13:37:29Z</time>
      </trkpt>
      <trkpt lat="45.54091" lon="6.91104">
        <ele>1442.2</ele>
        <time>2020-08-08T13:37:31Z</time>
      </trkpt>
      <trkpt lat="45.5412" lon="6.91098">
        <ele>1439.9</ele>
        <time>2020-08-08T13:37:33Z</time>
      </trkpt>
      <trkpt lat="45.54135" lon="6.91091">
        <ele>1438.5</ele>
        <time>2020-08-08T13:37:34Z</time>
      </trkpt>
      <trkpt lat="45.54162" lon="6.91076">
        <ele>1436</ele>
        <time>2020-08-08T13:37:36Z</time>
      </trkpt>
      <trkpt lat="45.54176" lon="6.91066">
        <ele>1434.8</ele>
        <time>2020-08-08T13:37:37Z</time>
      </trkpt>
      <trkpt lat="45.5419" lon="6.91056">
        <ele>1433.5</ele>
        <time>2020-08-08T13:37:38Z</time>
      </trkpt>
      <trkpt lat="45.54202" lon="6.91043">
        <ele>1432.3</ele>
        <time>2020-08-08T13:37:39Z</time>
      </trkpt>
      <trkpt lat="45.54223" lon="6.91014">
        <ele>1430</ele>
        <time>2020-08-08T13:37:41Z</time>
      </trkpt>
      <trkpt lat="45.54235" lon="6.91">
        <ele>1428.8</ele>
        <time>2020-08-08T13:37:42Z</time>
      </trkpt>
      <trkpt lat="45.54257" lon="6.90974">
        <ele>1426.7</ele>
        <time>2020-08-08T13:37:44Z</time>
      </trkpt>
      <trkpt lat="45.5427" lon="6.90963">
        <ele>1425.6</ele>
        <time>2020-08-08T13:37:45Z</time>
      </trkpt>
      <trkpt lat="45.54295" lon="6.90946">
        <ele>1423.4</ele>
        <time>2020-08-08T13:37:47Z</time>
      </trkpt>
      <trkpt lat="45.54307" lon="6.90937">
        <ele>1422.7</ele>
        <time>2020-08-08T13:37:48Z</time>
      </trkpt>
      <trkpt lat="45.54331" lon="6.90915">
        <ele>1422</ele>
        <time>2020-08-08T13:37:50Z</time>
      </trkpt>
      <trkpt lat="45.54343" lon="6.90903">
        <ele>1421.6</ele>
        <time>2020-08-08T13:37:51Z</time>
      </trkpt>
      <trkpt lat="45.54355" lon="6.90893">
        <ele>1421</ele>
        <time>2020-08-08T13:37:52Z</time>
      </trkpt>
      <trkpt lat="45.54382" lon="6.90877">
        <ele>1419.9</ele>
        <time>2020-08-08T13:37:54Z</time>
      </trkpt>
      <trkpt lat="45.54396" lon="6.90872">
        <ele>1419.3</ele>
        <time>2020-08-08T13:37:55Z</time>
      </trkpt>
      <trkpt lat="45.54425" lon="6.90861">
        <ele>1418.3</ele>
        <time>2020-08-08T13:37:57Z</time>
      </trkpt>
      <trkpt lat="45.5444" lon="6.90854">
        <ele>1417.7</ele>
        <time>2020-08-08T13:37:58Z</time>
      </trkpt>
      <trkpt lat="45.54468" lon="6.90837">
        <ele>1416.6</ele>
        <time>2020-08-08T13:38:00Z</time>
      </trkpt>
      <trkpt lat="45.54481" lon="6.90827">
        <ele>1416.1</ele>
        <time>2020-08-08T13:38:01Z</time>
      </trkpt>
      <trkpt lat="45.54495" lon="6.90816">
        <ele>1415.6</ele>
        <time>2020-08-08T13:38:02Z</time>
      </trkpt>
      <trkpt lat="45.54523" lon="6.908">
        <ele>1414.5</ele>
        <time>2020-08-08T13:38:04Z</time>
      </trkpt>
      <trkpt lat="45.54537" lon="6.90793">
        <ele>1413.9</ele>
        <time>2020-08-08T13:38:05Z</time>
      </trkpt>
      <trkpt lat="45.54565" lon="6.90786">
        <ele>1412.8</ele>
        <time>2020-08-08T13:38:07Z</time>
      </trkpt>
      <trkpt lat="45.54579" lon="6.90784">
        <ele>1412.2</ele>
        <time>2020-08-08T13:38:08Z</time>
      </trkpt>
      <trkpt lat="45.54607" lon="6.90773">
        <ele>1411.2</ele>
        <time>2020-08-08T13:38:10Z</time>
      </trkpt>
      <trkpt lat="45.54635" lon="6.90759">
        <ele>1410.3</ele>
        <time>2020-08-08T13:38:12Z</time>
      </trkpt>
      <trkpt lat="45.54663" lon="6.90749">
        <ele>1408.8</ele>
        <time>2020-08-08T13:38:14Z</time>
      </trkpt>
      <trkpt lat="45.54691" lon="6.90746">
        <ele>1407.3</ele>
        <time>2020-08-08T13:38:16Z</time>
      </trkpt>
      <trkpt lat="45.5472" lon="6.90734">
        <ele>1405.9</ele>
        <time>2020-08-08T13:38:18Z</time>
      </trkpt>
      <trkpt lat="45.54734" lon="6.90723">
        <ele>1405.2</ele>
        <time>2020-08-08T13:38:19Z</time>
      </trkpt>
      <trkpt lat="45.5476" lon="6.90703">
        <ele>1403.6</ele>
        <time>2020-08-08T13:38:21Z</time>
      </trkpt>
      <trkpt lat="45.54786" lon="6.90683">
        <ele>1402.1</ele>
        <time>2020-08-08T13:38:23Z</time>
      </trkpt>
      <trkpt lat="45.548" lon="6.90674">
        <ele>1401.3</ele>
        <time>2020-08-08T13:38:24Z</time>
      </trkpt>
      <trkpt lat="45.54827" lon="6.90656">
        <ele>1399.8</ele>
        <time>2020-08-08T13:38:26Z</time>
      </trkpt>
      <trkpt lat="45.54855" lon="6.90636">
        <ele>1398.3</ele>
        <time>2020-08-08T13:38:28Z</time>
      </trkpt>
      <trkpt lat="45.54867" lon="6.90625">
        <ele>1397.5</ele>
        <time>2020-08-08T13:38:29Z</time>
      </trkpt>
      <trkpt lat="45.54886" lon="6.9059">
        <ele>1396</ele>
        <time>2020-08-08T13:38:31Z</time>
      </trkpt>
      <trkpt lat="45.54904" lon="6.90554">
        <ele>1394.6</ele>
        <time>2020-08-08T13:38:33Z</time>
      </trkpt>
      <trkpt lat="45.54923" lon="6.90521">
        <ele>1393.2</ele>
        <time>2020-08-08T13:38:35Z</time>
      </trkpt>
      <trkpt lat="45.54941" lon="6.90488">
        <ele>1391.7</ele>
        <time>2020-08-08T13:38:37Z</time>
      </trkpt>
      <trkpt lat="45.54959" lon="6.90454">
        <ele>1390.3</ele>
        <time>2020-08-08T13:38:39Z</time>
      </trkpt>
      <trkpt lat="45.54969" lon="6.90437">
        <ele>1389.5</ele>
        <time>2020-08-08T13:38:40Z</time>
      </trkpt>
      <trkpt lat="45.5499" lon="6.90406">
        <ele>1387.8</ele>
        <time>2020-08-08T13:38:42Z</time>
      </trkpt>
      <trkpt lat="45.55001" lon="6.90391">
        <ele>1386.9</ele>
        <time>2020-08-08T13:38:43Z</time>
      </trkpt>
      <trkpt lat="45.55012" lon="6.90377">
        <ele>1386.1</ele>
        <time>2020-08-08T13:38:44Z</time>
      </trkpt>
      <trkpt lat="45.55023" lon="6.90362">
        <ele>1385.3</ele>
        <time>2020-08-08T13:38:45Z</time>
      </trkpt>
      <trkpt lat="45.55046" lon="6.90332">
        <ele>1383.6</ele>
        <time>2020-08-08T13:38:47Z</time>
      </trkpt>
      <trkpt lat="45.55069" lon="6.90305">
        <ele>1381.9</ele>
        <time>2020-08-08T13:38:49Z</time>
      </trkpt>
      <trkpt lat="45.55081" lon="6.90293">
        <ele>1381.2</ele>
        <time>2020-08-08T13:38:50Z</time>
      </trkpt>
      <trkpt lat="45.55093" lon="6.90282">
        <ele>1380.4</ele>
        <time>2020-08-08T13:38:51Z</time>
      </trkpt>
      <trkpt lat="45.55106" lon="6.90271">
        <ele>1379.7</ele>
        <time>2020-08-08T13:38:52Z</time>
      </trkpt>
      <trkpt lat="45.55119" lon="6.90261">
        <ele>1378.9</ele>
        <time>2020-08-08T13:38:53Z</time>
      </trkpt>
      <trkpt lat="45.55132" lon="6.90251">
        <ele>1378.2</ele>
        <time>2020-08-08T13:38:54Z</time>
      </trkpt>
      <trkpt lat="45.55158" lon="6.90231">
        <ele>1376.7</ele>
        <time>2020-08-08T13:38:56Z</time>
      </trkpt>
      <trkpt lat="45.55184" lon="6.90211">
        <ele>1375.1</ele>
        <time>2020-08-08T13:38:58Z</time>
      </trkpt>
      <trkpt lat="45.55211" lon="6.90193">
        <ele>1373.4</ele>
        <time>2020-08-08T13:39:00Z</time>
      </trkpt>
      <trkpt lat="45.55224" lon="6.90184">
        <ele>1372.7</ele>
        <time>2020-08-08T13:39:01Z</time>
      </trkpt>
      <trkpt lat="45.5525" lon="6.90163">
        <ele>1371.7</ele>
        <time>2020-08-08T13:39:03Z</time>
      </trkpt>
      <trkpt lat="45.55276" lon="6.90148">
        <ele>1370.4</ele>
        <time>2020-08-08T13:39:05Z</time>
      </trkpt>
      <trkpt lat="45.55289" lon="6.90146">
        <ele>1369.6</ele>
        <time>2020-08-08T13:39:06Z</time>
      </trkpt>
      <trkpt lat="45.55303" lon="6.90148">
        <ele>1368.8</ele>
        <time>2020-08-08T13:39:07Z</time>
      </trkpt>
      <trkpt lat="45.5533" lon="6.90156">
        <ele>1367.3</ele>
        <time>2020-08-08T13:39:09Z</time>
      </trkpt>
      <trkpt lat="45.55344" lon="6.90159">
        <ele>1366.7</ele>
        <time>2020-08-08T13:39:10Z</time>
      </trkpt>
      <trkpt lat="45.55372" lon="6.90161">
        <ele>1365.4</ele>
        <time>2020-08-08T13:39:12Z</time>
      </trkpt>
      <trkpt lat="45.55385" lon="6.90163">
        <ele>1364.8</ele>
        <time>2020-08-08T13:39:13Z</time>
      </trkpt>
      <trkpt lat="45.55413" lon="6.90167">
        <ele>1363.5</ele>
        <time>2020-08-08T13:39:15Z</time>
      </trkpt>
      <trkpt lat="45.55427" lon="6.90169">
        <ele>1362.9</ele>
        <time>2020-08-08T13:39:16Z</time>
      </trkpt>
      <trkpt lat="45.55454" lon="6.90166">
        <ele>1361.6</ele>
        <time>2020-08-08T13:39:18Z</time>
      </trkpt>
      <trkpt lat="45.5548" lon="6.90154">
        <ele>1360.1</ele>
        <time>2020-08-08T13:39:20Z</time>
      </trkpt>
      <trkpt lat="45.55494" lon="6.90145">
        <ele>1359.4</ele>
        <time>2020-08-08T13:39:21Z</time>
      </trkpt>
      <trkpt lat="45.55508" lon="6.90137">
        <ele>1358.6</ele>
        <time>2020-08-08T13:39:22Z</time>
      </trkpt>
      <trkpt lat="45.55535" lon="6.90123">
        <ele>1357</ele>
        <time>2020-08-08T13:39:24Z</time>
      </trkpt>
      <trkpt lat="45.5555" lon="6.90118">
        <ele>1356.2</ele>
        <time>2020-08-08T13:39:25Z</time>
      </trkpt>
      <trkpt lat="45.55579" lon="6.90105">
        <ele>1354.6</ele>
        <time>2020-08-08T13:39:27Z</time>
      </trkpt>
      <trkpt lat="45.55606" lon="6.90085">
        <ele>1352.8</ele>
        <time>2020-08-08T13:39:29Z</time>
      </trkpt>
      <trkpt lat="45.55619" lon="6.90072">
        <ele>1351.9</ele>
        <time>2020-08-08T13:39:30Z</time>
      </trkpt>
      <trkpt lat="45.55629" lon="6.90056">
        <ele>1351.1</ele>
        <time>2020-08-08T13:39:31Z</time>
      </trkpt>
      <trkpt lat="45.55648" lon="6.90024">
        <ele>1349.5</ele>
        <time>2020-08-08T13:39:33Z</time>
      </trkpt>
      <trkpt lat="45.55658" lon="6.90008">
        <ele>1348.7</ele>
        <time>2020-08-08T13:39:34Z</time>
      </trkpt>
      <trkpt lat="45.55668" lon="6.89993">
        <ele>1348.2</ele>
        <time>2020-08-08T13:39:35Z</time>
      </trkpt>
      <trkpt lat="45.5569" lon="6.89965">
        <ele>1347.5</ele>
        <time>2020-08-08T13:39:37Z</time>
      </trkpt>
      <trkpt lat="45.55712" lon="6.89939">
        <ele>1350.3</ele>
        <time>2020-08-08T13:39:39Z</time>
      </trkpt>
      <trkpt lat="45.55722" lon="6.89925">
        <ele>1352.2</ele>
        <time>2020-08-08T13:39:40Z</time>
      </trkpt>
      <trkpt lat="45.5573" lon="6.89911">
        <ele>1353.4</ele>
        <time>2020-08-08T13:39:41Z</time>
      </trkpt>
      <trkpt lat="45.55747" lon="6.89881">
        <ele>1353.9</ele>
        <time>2020-08-08T13:39:43Z</time>
      </trkpt>
      <trkpt lat="45.55756" lon="6.89867">
        <ele>1353.9</ele>
        <time>2020-08-08T13:39:44Z</time>
      </trkpt>
      <trkpt lat="45.55777" lon="6.89842">
        <ele>1354</ele>
        <time>2020-08-08T13:39:46Z</time>
      </trkpt>
      <trkpt lat="45.55787" lon="6.8983">
        <ele>1354.1</ele>
        <time>2020-08-08T13:39:47Z</time>
      </trkpt>
      <trkpt lat="45.55807" lon="6.89804">
        <ele>1353.8</ele>
        <time>2020-08-08T13:39:49Z</time>
      </trkpt>
      <trkpt lat="45.55814" lon="6.8979">
        <ele>1353.4</ele>
        <time>2020-08-08T13:39:50Z</time>
      </trkpt>
      <trkpt lat="45.55822" lon="6.89757">
        <ele>1352.6</ele>
        <time>2020-08-08T13:39:52Z</time>
      </trkpt>
      <trkpt lat="45.55835" lon="6.89725">
        <ele>1351.6</ele>
        <time>2020-08-08T13:39:54Z</time>
      </trkpt>
      <trkpt lat="45.55848" lon="6.89718">
        <ele>1351</ele>
        <time>2020-08-08T13:39:55Z</time>
      </trkpt>
      <trkpt lat="45.55875" lon="6.89711">
        <ele>1350.2</ele>
        <time>2020-08-08T13:39:57Z</time>
      </trkpt>
      <trkpt lat="45.55894" lon="6.89684">
        <ele>1349.4</ele>
        <time>2020-08-08T13:39:59Z</time>
      </trkpt>
      <trkpt lat="45.55902" lon="6.89668">
        <ele>1348.9</ele>
        <time>2020-08-08T13:40:00Z</time>
      </trkpt>
      <trkpt lat="45.55918" lon="6.89639">
        <ele>1348.1</ele>
        <time>2020-08-08T13:40:02Z</time>
      </trkpt>
      <trkpt lat="45.55933" lon="6.89608">
        <ele>1347.4</ele>
        <time>2020-08-08T13:40:04Z</time>
      </trkpt>
      <trkpt lat="45.55944" lon="6.89574">
        <ele>1346.6</ele>
        <time>2020-08-08T13:40:06Z</time>
      </trkpt>
      <trkpt lat="45.55949" lon="6.89558">
        <ele>1346.2</ele>
        <time>2020-08-08T13:40:07Z</time>
      </trkpt>
      <trkpt lat="45.55954" lon="6.89543">
        <ele>1345.8</ele>
        <time>2020-08-08T13:40:08Z</time>
      </trkpt>
      <trkpt lat="45.55964" lon="6.89512">
        <ele>1344.9</ele>
        <time>2020-08-08T13:40:10Z</time>
      </trkpt>
      <trkpt lat="45.55969" lon="6.89496">
        <ele>1344.5</ele>
        <time>2020-08-08T13:40:11Z</time>
      </trkpt>
      <trkpt lat="45.55976" lon="6.89481">
        <ele>1344.1</ele>
        <time>2020-08-08T13:40:12Z</time>
      </trkpt>
      <trkpt lat="45.55997" lon="6.89465">
        <ele>1343.2</ele>
        <time>2020-08-08T13:40:14Z</time>
      </trkpt>
      <trkpt lat="45.5601" lon="6.89462">
        <ele>1342.6</ele>
        <time>2020-08-08T13:40:15Z</time>
      </trkpt>
      <trkpt lat="45.56035" lon="6.89458">
        <ele>1341.1</ele>
        <time>2020-08-08T13:40:17Z</time>
      </trkpt>
      <trkpt lat="45.56048" lon="6.89458">
        <ele>1340.2</ele>
        <time>2020-08-08T13:40:18Z</time>
      </trkpt>
      <trkpt lat="45.56073" lon="6.89458">
        <ele>1338.3</ele>
        <time>2020-08-08T13:40:20Z</time>
      </trkpt>
      <trkpt lat="45.56086" lon="6.89455">
        <ele>1337.5</ele>
        <time>2020-08-08T13:40:21Z</time>
      </trkpt>
      <trkpt lat="45.56111" lon="6.89445">
        <ele>1335.9</ele>
        <time>2020-08-08T13:40:23Z</time>
      </trkpt>
      <trkpt lat="45.56123" lon="6.89438">
        <ele>1335.2</ele>
        <time>2020-08-08T13:40:24Z</time>
      </trkpt>
      <trkpt lat="45.56145" lon="6.89423">
        <ele>1334.1</ele>
        <time>2020-08-08T13:40:26Z</time>
      </trkpt>
      <trkpt lat="45.56155" lon="6.89415">
        <ele>1333.7</ele>
        <time>2020-08-08T13:40:27Z</time>
      </trkpt>
      <trkpt lat="45.56177" lon="6.89396">
        <ele>1332.9</ele>
        <time>2020-08-08T13:40:29Z</time>
      </trkpt>
      <trkpt lat="45.56197" lon="6.89377">
        <ele>1332.4</ele>
        <time>2020-08-08T13:40:31Z</time>
      </trkpt>
      <trkpt lat="45.56207" lon="6.89368">
        <ele>1332.1</ele>
        <time>2020-08-08T13:40:32Z</time>
      </trkpt>
      <trkpt lat="45.56227" lon="6.8935">
        <ele>1331.8</ele>
        <time>2020-08-08T13:40:34Z</time>
      </trkpt>
      <trkpt lat="45.56247" lon="6.89332">
        <ele>1331.4</ele>
        <time>2020-08-08T13:40:36Z</time>
      </trkpt>
      <trkpt lat="45.56266" lon="6.89314">
        <ele>1330.9</ele>
        <time>2020-08-08T13:40:38Z</time>
      </trkpt>
      <trkpt lat="45.56285" lon="6.89296">
        <ele>1330.2</ele>
        <time>2020-08-08T13:40:40Z</time>
      </trkpt>
      <trkpt lat="45.56305" lon="6.89282">
        <ele>1328.9</ele>
        <time>2020-08-08T13:40:42Z</time>
      </trkpt>
      <trkpt lat="45.56327" lon="6.89273">
        <ele>1327.2</ele>
        <time>2020-08-08T13:40:44Z</time>
      </trkpt>
      <trkpt lat="45.56339" lon="6.89273">
        <ele>1326.2</ele>
        <time>2020-08-08T13:40:45Z</time>
      </trkpt>
      <trkpt lat="45.56351" lon="6.89272">
        <ele>1325.2</ele>
        <time>2020-08-08T13:40:46Z</time>
      </trkpt>
      <trkpt lat="45.56364" lon="6.8927">
        <ele>1324.2</ele>
        <time>2020-08-08T13:40:47Z</time>
      </trkpt>
      <trkpt lat="45.56389" lon="6.89259">
        <ele>1322.1</ele>
        <time>2020-08-08T13:40:49Z</time>
      </trkpt>
      <trkpt lat="45.56412" lon="6.89236">
        <ele>1319.7</ele>
        <time>2020-08-08T13:40:51Z</time>
      </trkpt>
      <trkpt lat="45.56434" lon="6.89209">
        <ele>1317.3</ele>
        <time>2020-08-08T13:40:53Z</time>
      </trkpt>
      <trkpt lat="45.56446" lon="6.89196">
        <ele>1316.1</ele>
        <time>2020-08-08T13:40:54Z</time>
      </trkpt>
      <trkpt lat="45.5647" lon="6.8917">
        <ele>1313.7</ele>
        <time>2020-08-08T13:40:56Z</time>
      </trkpt>
      <trkpt lat="45.56493" lon="6.89146">
        <ele>1311.5</ele>
        <time>2020-08-08T13:40:58Z</time>
      </trkpt>
      <trkpt lat="45.56519" lon="6.89127">
        <ele>1309.1</ele>
        <time>2020-08-08T13:41:00Z</time>
      </trkpt>
      <trkpt lat="45.56547" lon="6.89113">
        <ele>1306.5</ele>
        <time>2020-08-08T13:41:02Z</time>
      </trkpt>
      <trkpt lat="45.56562" lon="6.89105">
        <ele>1305.2</ele>
        <time>2020-08-08T13:41:03Z</time>
      </trkpt>
      <trkpt lat="45.5659" lon="6.89086">
        <ele>1302.7</ele>
        <time>2020-08-08T13:41:05Z</time>
      </trkpt>
      <trkpt lat="45.56614" lon="6.89057">
        <ele>1300.2</ele>
        <time>2020-08-08T13:41:07Z</time>
      </trkpt>
      <trkpt lat="45.56625" lon="6.89041">
        <ele>1298.8</ele>
        <time>2020-08-08T13:41:08Z</time>
      </trkpt>
      <trkpt lat="45.56646" lon="6.89011">
        <ele>1296</ele>
        <time>2020-08-08T13:41:10Z</time>
      </trkpt>
      <trkpt lat="45.56656" lon="6.88995">
        <ele>1294.5</ele>
        <time>2020-08-08T13:41:11Z</time>
      </trkpt>
      <trkpt lat="45.56676" lon="6.88965">
        <ele>1291.5</ele>
        <time>2020-08-08T13:41:13Z</time>
      </trkpt>
      <trkpt lat="45.56685" lon="6.88949">
        <ele>1290</ele>
        <time>2020-08-08T13:41:14Z</time>
      </trkpt>
      <trkpt lat="45.56694" lon="6.88936">
        <ele>1288.7</ele>
        <time>2020-08-08T13:41:15Z</time>
      </trkpt>
      <trkpt lat="45.5672" lon="6.88928">
        <ele>1285.8</ele>
        <time>2020-08-08T13:41:17Z</time>
      </trkpt>
      <trkpt lat="45.56748" lon="6.88937">
        <ele>1282.5</ele>
        <time>2020-08-08T13:41:19Z</time>
      </trkpt>
      <trkpt lat="45.56764" lon="6.88938">
        <ele>1281</ele>
        <time>2020-08-08T13:41:20Z</time>
      </trkpt>
      <trkpt lat="45.56794" lon="6.88928">
        <ele>1278.1</ele>
        <time>2020-08-08T13:41:22Z</time>
      </trkpt>
      <trkpt lat="45.56824" lon="6.88911">
        <ele>1275.3</ele>
        <time>2020-08-08T13:41:24Z</time>
      </trkpt>
      <trkpt lat="45.56839" lon="6.88901">
        <ele>1273.7</ele>
        <time>2020-08-08T13:41:25Z</time>
      </trkpt>
      <trkpt lat="45.56855" lon="6.88891">
        <ele>1272.1</ele>
        <time>2020-08-08T13:41:26Z</time>
      </trkpt>
      <trkpt lat="45.56886" lon="6.88876">
        <ele>1269</ele>
        <time>2020-08-08T13:41:28Z</time>
      </trkpt>
      <trkpt lat="45.56917" lon="6.88859">
        <ele>1266</ele>
        <time>2020-08-08T13:41:30Z</time>
      </trkpt>
      <trkpt lat="45.56946" lon="6.88835">
        <ele>1262.9</ele>
        <time>2020-08-08T13:41:32Z</time>
      </trkpt>
      <trkpt lat="45.5696" lon="6.88821">
        <ele>1261.2</ele>
        <time>2020-08-08T13:41:33Z</time>
      </trkpt>
      <trkpt lat="45.56974" lon="6.88807">
        <ele>1259.2</ele>
        <time>2020-08-08T13:41:34Z</time>
      </trkpt>
      <trkpt lat="45.57001" lon="6.88775">
        <ele>1254.9</ele>
        <time>2020-08-08T13:41:36Z</time>
      </trkpt>
      <trkpt lat="45.57025" lon="6.88741">
        <ele>1250.8</ele>
        <time>2020-08-08T13:41:38Z</time>
      </trkpt>
      <trkpt lat="45.57038" lon="6.88725">
        <ele>1248.6</ele>
        <time>2020-08-08T13:41:39Z</time>
      </trkpt>
      <trkpt lat="45.57052" lon="6.8871">
        <ele>1246.5</ele>
        <time>2020-08-08T13:41:40Z</time>
      </trkpt>
      <trkpt lat="45.57066" lon="6.88698">
        <ele>1244.7</ele>
        <time>2020-08-08T13:41:41Z</time>
      </trkpt>
      <trkpt lat="45.57096" lon="6.88681">
        <ele>1243.7</ele>
        <time>2020-08-08T13:41:43Z</time>
      </trkpt>
      <trkpt lat="45.57125" lon="6.88665">
        <ele>1245.8</ele>
        <time>2020-08-08T13:41:45Z</time>
      </trkpt>
      <trkpt lat="45.57153" lon="6.88652">
        <ele>1247.3</ele>
        <time>2020-08-08T13:41:47Z</time>
      </trkpt>
      <trkpt lat="45.57166" lon="6.88647">
        <ele>1247.9</ele>
        <time>2020-08-08T13:41:48Z</time>
      </trkpt>
      <trkpt lat="45.5718" lon="6.88644">
        <ele>1248.5</ele>
        <time>2020-08-08T13:41:49Z</time>
      </trkpt>
      <trkpt lat="45.57205" lon="6.88639">
        <ele>1249.3</ele>
        <time>2020-08-08T13:41:51Z</time>
      </trkpt>
      <trkpt lat="45.57228" lon="6.88633">
        <ele>1249.4</ele>
        <time>2020-08-08T13:41:53Z</time>
      </trkpt>
      <trkpt lat="45.57239" lon="6.88631">
        <ele>1249.3</ele>
        <time>2020-08-08T13:41:54Z</time>
      </trkpt>
      <trkpt lat="45.57263" lon="6.88627">
        <ele>1248.2</ele>
        <time>2020-08-08T13:41:56Z</time>
      </trkpt>
      <trkpt lat="45.57285" lon="6.88619">
        <ele>1245.7</ele>
        <time>2020-08-08T13:41:58Z</time>
      </trkpt>
      <trkpt lat="45.57302" lon="6.88599">
        <ele>1243.4</ele>
        <time>2020-08-08T13:42:00Z</time>
      </trkpt>
      <trkpt lat="45.57312" lon="6.88577">
        <ele>1240</ele>
        <time>2020-08-08T13:42:02Z</time>
      </trkpt>
      <trkpt lat="45.57317" lon="6.88567">
        <ele>1238.6</ele>
        <time>2020-08-08T13:42:03Z</time>
      </trkpt>
      <trkpt lat="45.57327" lon="6.8855">
        <ele>1235.8</ele>
        <time>2020-08-08T13:42:05Z</time>
      </trkpt>
      <trkpt lat="45.57334" lon="6.88543">
        <ele>1234.4</ele>
        <time>2020-08-08T13:42:06Z</time>
      </trkpt>
      <trkpt lat="45.57349" lon="6.88532">
        <ele>1232.8</ele>
        <time>2020-08-08T13:42:08Z</time>
      </trkpt>
      <trkpt lat="45.57368" lon="6.88522">
        <ele>1231.1</ele>
        <time>2020-08-08T13:42:10Z</time>
      </trkpt>
      <trkpt lat="45.57378" lon="6.88514">
        <ele>1230.2</ele>
        <time>2020-08-08T13:42:11Z</time>
      </trkpt>
      <trkpt lat="45.57397" lon="6.88495">
        <ele>1228.3</ele>
        <time>2020-08-08T13:42:13Z</time>
      </trkpt>
      <trkpt lat="45.57407" lon="6.88485">
        <ele>1227.5</ele>
        <time>2020-08-08T13:42:14Z</time>
      </trkpt>
      <trkpt lat="45.57417" lon="6.88475">
        <ele>1226.6</ele>
        <time>2020-08-08T13:42:15Z</time>
      </trkpt>
      <trkpt lat="45.57438" lon="6.88455">
        <ele>1224.4</ele>
        <time>2020-08-08T13:42:17Z</time>
      </trkpt>
      <trkpt lat="45.57461" lon="6.88437">
        <ele>1222.3</ele>
        <time>2020-08-08T13:42:19Z</time>
      </trkpt>
      <trkpt lat="45.57486" lon="6.88429">
        <ele>1219.9</ele>
        <time>2020-08-08T13:42:21Z</time>
      </trkpt>
      <trkpt lat="45.57511" lon="6.88433">
        <ele>1217.6</ele>
        <time>2020-08-08T13:42:23Z</time>
      </trkpt>
      <trkpt lat="45.57537" lon="6.8844">
        <ele>1215.3</ele>
        <time>2020-08-08T13:42:25Z</time>
      </trkpt>
      <trkpt lat="45.57564" lon="6.88435">
        <ele>1213.2</ele>
        <time>2020-08-08T13:42:27Z</time>
      </trkpt>
      <trkpt lat="45.57586" lon="6.88428">
        <ele>1211.3</ele>
        <time>2020-08-08T13:42:29Z</time>
      </trkpt>
      <trkpt lat="45.57607" lon="6.88418">
        <ele>1209.2</ele>
        <time>2020-08-08T13:42:31Z</time>
      </trkpt>
      <trkpt lat="45.57627" lon="6.88398">
        <ele>1207.2</ele>
        <time>2020-08-08T13:42:33Z</time>
      </trkpt>
      <trkpt lat="45.5764" lon="6.88368">
        <ele>1205.6</ele>
        <time>2020-08-08T13:42:35Z</time>
      </trkpt>
      <trkpt lat="45.57647" lon="6.88353">
        <ele>1204.7</ele>
        <time>2020-08-08T13:42:36Z</time>
      </trkpt>
      <trkpt lat="45.57657" lon="6.88338">
        <ele>1203.7</ele>
        <time>2020-08-08T13:42:37Z</time>
      </trkpt>
      <trkpt lat="45.57679" lon="6.88317">
        <ele>1201.8</ele>
        <time>2020-08-08T13:42:39Z</time>
      </trkpt>
      <trkpt lat="45.57691" lon="6.8831">
        <ele>1200.9</ele>
        <time>2020-08-08T13:42:40Z</time>
      </trkpt>
      <trkpt lat="45.57703" lon="6.88302">
        <ele>1200</ele>
        <time>2020-08-08T13:42:41Z</time>
      </trkpt>
      <trkpt lat="45.57725" lon="6.88292">
        <ele>1198.4</ele>
        <time>2020-08-08T13:42:43Z</time>
      </trkpt>
      <trkpt lat="45.57735" lon="6.8829">
        <ele>1197.4</ele>
        <time>2020-08-08T13:42:44Z</time>
      </trkpt>
      <trkpt lat="45.57746" lon="6.88289">
        <ele>1196.5</ele>
        <time>2020-08-08T13:42:45Z</time>
      </trkpt>
      <trkpt lat="45.57767" lon="6.88291">
        <ele>1194.9</ele>
        <time>2020-08-08T13:42:47Z</time>
      </trkpt>
      <trkpt lat="45.57788" lon="6.88291">
        <ele>1193.1</ele>
        <time>2020-08-08T13:42:49Z</time>
      </trkpt>
      <trkpt lat="45.578" lon="6.88292">
        <ele>1192.2</ele>
        <time>2020-08-08T13:42:50Z</time>
      </trkpt>
      <trkpt lat="45.57822" lon="6.88303">
        <ele>1190.1</ele>
        <time>2020-08-08T13:42:52Z</time>
      </trkpt>
      <trkpt lat="45.57833" lon="6.88314">
        <ele>1188.9</ele>
        <time>2020-08-08T13:42:53Z</time>
      </trkpt>
      <trkpt lat="45.57853" lon="6.88339">
        <ele>1186.5</ele>
        <time>2020-08-08T13:42:55Z</time>
      </trkpt>
      <trkpt lat="45.57862" lon="6.88352">
        <ele>1185.3</ele>
        <time>2020-08-08T13:42:56Z</time>
      </trkpt>
      <trkpt lat="45.5788" lon="6.88377">
        <ele>1183.2</ele>
        <time>2020-08-08T13:42:58Z</time>
      </trkpt>
      <trkpt lat="45.57889" lon="6.8839">
        <ele>1182.2</ele>
        <time>2020-08-08T13:42:59Z</time>
      </trkpt>
      <trkpt lat="45.57909" lon="6.88413">
        <ele>1180.1</ele>
        <time>2020-08-08T13:43:01Z</time>
      </trkpt>
      <trkpt lat="45.57919" lon="6.88425">
        <ele>1179</ele>
        <time>2020-08-08T13:43:02Z</time>
      </trkpt>
      <trkpt lat="45.57936" lon="6.8845">
        <ele>1176.7</ele>
        <time>2020-08-08T13:43:04Z</time>
      </trkpt>
      <trkpt lat="45.57945" lon="6.88461">
        <ele>1175.8</ele>
        <time>2020-08-08T13:43:05Z</time>
      </trkpt>
      <trkpt lat="45.5796" lon="6.88478">
        <ele>1174.4</ele>
        <time>2020-08-08T13:43:07Z</time>
      </trkpt>
      <trkpt lat="45.57968" lon="6.88483">
        <ele>1173.8</ele>
        <time>2020-08-08T13:43:08Z</time>
      </trkpt>
      <trkpt lat="45.57984" lon="6.88489">
        <ele>1172.9</ele>
        <time>2020-08-08T13:43:10Z</time>
      </trkpt>
      <trkpt lat="45.57996" lon="6.88488">
        <ele>1172.2</ele>
        <time>2020-08-08T13:43:12Z</time>
      </trkpt>
      <trkpt lat="45.58001" lon="6.88483">
        <ele>1171.8</ele>
        <time>2020-08-08T13:43:13Z</time>
      </trkpt>
      <trkpt lat="45.58003" lon="6.88464">
        <ele>1171</ele>
        <time>2020-08-08T13:43:15Z</time>
      </trkpt>
      <trkpt lat="45.57999" lon="6.88454">
        <ele>1170.5</ele>
        <time>2020-08-08T13:43:16Z</time>
      </trkpt>
      <trkpt lat="45.57992" lon="6.88449">
        <ele>1170</ele>
        <time>2020-08-08T13:43:17Z</time>
      </trkpt>
      <trkpt lat="45.57974" lon="6.88443">
        <ele>1169.1</ele>
        <time>2020-08-08T13:43:19Z</time>
      </trkpt>
      <trkpt lat="45.57966" lon="6.88439">
        <ele>1168.7</ele>
        <time>2020-08-08T13:43:20Z</time>
      </trkpt>
      <trkpt lat="45.57949" lon="6.88425">
        <ele>1167.6</ele>
        <time>2020-08-08T13:43:22Z</time>
      </trkpt>
      <trkpt lat="45.57934" lon="6.88406">
        <ele>1166.6</ele>
        <time>2020-08-08T13:43:24Z</time>
      </trkpt>
      <trkpt lat="45.57927" lon="6.88395">
        <ele>1166.1</ele>
        <time>2020-08-08T13:43:25Z</time>
      </trkpt>
      <trkpt lat="45.57913" lon="6.88373">
        <ele>1165.1</ele>
        <time>2020-08-08T13:43:27Z</time>
      </trkpt>
      <trkpt lat="45.57905" lon="6.88362">
        <ele>1164.7</ele>
        <time>2020-08-08T13:43:28Z</time>
      </trkpt>
      <trkpt lat="45.57898" lon="6.88351">
        <ele>1164.4</ele>
        <time>2020-08-08T13:43:29Z</time>
      </trkpt>
      <trkpt lat="45.5789" lon="6.88339">
        <ele>1164.1</ele>
        <time>2020-08-08T13:43:30Z</time>
      </trkpt>
      <trkpt lat="45.57875" lon="6.88315">
        <ele>1163.7</ele>
        <time>2020-08-08T13:43:32Z</time>
      </trkpt>
      <trkpt lat="45.57869" lon="6.88303">
        <ele>1163.6</ele>
        <time>2020-08-08T13:43:33Z</time>
      </trkpt>
      <trkpt lat="45.57856" lon="6.88281">
        <ele>1163.5</ele>
        <time>2020-08-08T13:43:35Z</time>
      </trkpt>
      <trkpt lat="45.57851" lon="6.88272">
        <ele>1163.5</ele>
        <time>2020-08-08T13:43:36Z</time>
      </trkpt>
      <trkpt lat="45.57841" lon="6.88257">
        <ele>1163.5</ele>
        <time>2020-08-08T13:43:38Z</time>
      </trkpt>
      <trkpt lat="45.57835" lon="6.88242">
        <ele>1163.4</ele>
        <time>2020-08-08T13:43:40Z</time>
      </trkpt>
      <trkpt lat="45.57837" lon="6.88235">
        <ele>1163</ele>
        <time>2020-08-08T13:43:41Z</time>
      </trkpt>
      <trkpt lat="45.57851" lon="6.88235">
        <ele>1161.8</ele>
        <time>2020-08-08T13:43:43Z</time>
      </trkpt>
      <trkpt lat="45.57859" lon="6.88255">
        <ele>1160.2</ele>
        <time>2020-08-08T13:43:45Z</time>
      </trkpt>
      <trkpt lat="45.57865" lon="6.88276">
        <ele>1158.4</ele>
        <time>2020-08-08T13:43:47Z</time>
      </trkpt>
      <trkpt lat="45.57869" lon="6.88286">
        <ele>1157.4</ele>
        <time>2020-08-08T13:43:48Z</time>
      </trkpt>
      <trkpt lat="45.5788" lon="6.88308">
        <ele>1155</ele>
        <time>2020-08-08T13:43:50Z</time>
      </trkpt>
      <trkpt lat="45.57893" lon="6.8833">
        <ele>1152.5</ele>
        <time>2020-08-08T13:43:52Z</time>
      </trkpt>
      <trkpt lat="45.579" lon="6.8834">
        <ele>1151.2</ele>
        <time>2020-08-08T13:43:53Z</time>
      </trkpt>
      <trkpt lat="45.57918" lon="6.88358">
        <ele>1148.6</ele>
        <time>2020-08-08T13:43:55Z</time>
      </trkpt>
      <trkpt lat="45.57927" lon="6.88366">
        <ele>1147.3</ele>
        <time>2020-08-08T13:43:56Z</time>
      </trkpt>
      <trkpt lat="45.57947" lon="6.88384">
        <ele>1144.5</ele>
        <time>2020-08-08T13:43:58Z</time>
      </trkpt>
      <trkpt lat="45.57969" lon="6.88397">
        <ele>1141.7</ele>
        <time>2020-08-08T13:44:00Z</time>
      </trkpt>
      <trkpt lat="45.57993" lon="6.88398">
        <ele>1139</ele>
        <time>2020-08-08T13:44:02Z</time>
      </trkpt>
      <trkpt lat="45.58017" lon="6.88388">
        <ele>1136.2</ele>
        <time>2020-08-08T13:44:04Z</time>
      </trkpt>
      <trkpt lat="45.58042" lon="6.88382">
        <ele>1133.1</ele>
        <time>2020-08-08T13:44:06Z</time>
      </trkpt>
      <trkpt lat="45.58055" lon="6.88382">
        <ele>1131.6</ele>
        <time>2020-08-08T13:44:07Z</time>
      </trkpt>
      <trkpt lat="45.58081" lon="6.88384">
        <ele>1128.6</ele>
        <time>2020-08-08T13:44:09Z</time>
      </trkpt>
      <trkpt lat="45.58094" lon="6.88386">
        <ele>1126.9</ele>
        <time>2020-08-08T13:44:10Z</time>
      </trkpt>
      <trkpt lat="45.58107" lon="6.88388">
        <ele>1125</ele>
        <time>2020-08-08T13:44:11Z</time>
      </trkpt>
      <trkpt lat="45.58135" lon="6.88397">
        <ele>1121.9</ele>
        <time>2020-08-08T13:44:13Z</time>
      </trkpt>
      <trkpt lat="45.58149" lon="6.88404">
        <ele>1120.8</ele>
        <time>2020-08-08T13:44:14Z</time>
      </trkpt>
      <trkpt lat="45.58164" lon="6.8841">
        <ele>1119.8</ele>
        <time>2020-08-08T13:44:15Z</time>
      </trkpt>
      <trkpt lat="45.58194" lon="6.8842">
        <ele>1117.9</ele>
        <time>2020-08-08T13:44:17Z</time>
      </trkpt>
      <trkpt lat="45.58209" lon="6.88423">
        <ele>1117.1</ele>
        <time>2020-08-08T13:44:18Z</time>
      </trkpt>
      <trkpt lat="45.58239" lon="6.88422">
        <ele>1115.5</ele>
        <time>2020-08-08T13:44:20Z</time>
      </trkpt>
      <trkpt lat="45.58268" lon="6.88422">
        <ele>1113.7</ele>
        <time>2020-08-08T13:44:22Z</time>
      </trkpt>
      <trkpt lat="45.58281" lon="6.88425">
        <ele>1112.9</ele>
        <time>2020-08-08T13:44:23Z</time>
      </trkpt>
      <trkpt lat="45.58305" lon="6.88441">
        <ele>1110.9</ele>
        <time>2020-08-08T13:44:25Z</time>
      </trkpt>
      <trkpt lat="45.58317" lon="6.88452">
        <ele>1109.9</ele>
        <time>2020-08-08T13:44:26Z</time>
      </trkpt>
      <trkpt lat="45.58339" lon="6.88471">
        <ele>1108</ele>
        <time>2020-08-08T13:44:28Z</time>
      </trkpt>
      <trkpt lat="45.5835" lon="6.88479">
        <ele>1107.1</ele>
        <time>2020-08-08T13:44:29Z</time>
      </trkpt>
      <trkpt lat="45.58376" lon="6.8849">
        <ele>1105</ele>
        <time>2020-08-08T13:44:31Z</time>
      </trkpt>
      <trkpt lat="45.58405" lon="6.88498">
        <ele>1102.6</ele>
        <time>2020-08-08T13:44:33Z</time>
      </trkpt>
      <trkpt lat="45.58435" lon="6.88497">
        <ele>1100.6</ele>
        <time>2020-08-08T13:44:35Z</time>
      </trkpt>
      <trkpt lat="45.5845" lon="6.88497">
        <ele>1099.6</ele>
        <time>2020-08-08T13:44:36Z</time>
      </trkpt>
      <trkpt lat="45.5848" lon="6.88503">
        <ele>1097.5</ele>
        <time>2020-08-08T13:44:38Z</time>
      </trkpt>
      <trkpt lat="45.58507" lon="6.88511">
        <ele>1095.4</ele>
        <time>2020-08-08T13:44:40Z</time>
      </trkpt>
      <trkpt lat="45.58521" lon="6.88512">
        <ele>1092.9</ele>
        <time>2020-08-08T13:44:41Z</time>
      </trkpt>
      <trkpt lat="45.58548" lon="6.88499">
        <ele>1088.1</ele>
        <time>2020-08-08T13:44:43Z</time>
      </trkpt>
      <trkpt lat="45.5856" lon="6.88489">
        <ele>1086.2</ele>
        <time>2020-08-08T13:44:44Z</time>
      </trkpt>
      <trkpt lat="45.58584" lon="6.88468">
        <ele>1081.7</ele>
        <time>2020-08-08T13:44:46Z</time>
      </trkpt>
      <trkpt lat="45.58605" lon="6.88451">
        <ele>1077.2</ele>
        <time>2020-08-08T13:44:48Z</time>
      </trkpt>
      <trkpt lat="45.58625" lon="6.88442">
        <ele>1075.1</ele>
        <time>2020-08-08T13:44:50Z</time>
      </trkpt>
      <trkpt lat="45.58635" lon="6.88442">
        <ele>1074.8</ele>
        <time>2020-08-08T13:44:51Z</time>
      </trkpt>
      <trkpt lat="45.58645" lon="6.88444">
        <ele>1074.4</ele>
        <time>2020-08-08T13:44:52Z</time>
      </trkpt>
      <trkpt lat="45.58665" lon="6.88453">
        <ele>1073.1</ele>
        <time>2020-08-08T13:44:54Z</time>
      </trkpt>
      <trkpt lat="45.58687" lon="6.88464">
        <ele>1071.7</ele>
        <time>2020-08-08T13:44:56Z</time>
      </trkpt>
      <trkpt lat="45.58709" lon="6.88475">
        <ele>1070.4</ele>
        <time>2020-08-08T13:44:58Z</time>
      </trkpt>
      <trkpt lat="45.5873" lon="6.88486">
        <ele>1069.2</ele>
        <time>2020-08-08T13:45:00Z</time>
      </trkpt>
      <trkpt lat="45.5875" lon="6.88496">
        <ele>1068</ele>
        <time>2020-08-08T13:45:02Z</time>
      </trkpt>
      <trkpt lat="45.5877" lon="6.88504">
        <ele>1067</ele>
        <time>2020-08-08T13:45:04Z</time>
      </trkpt>
      <trkpt lat="45.5879" lon="6.88496">
        <ele>1066.2</ele>
        <time>2020-08-08T13:45:06Z</time>
      </trkpt>
      <trkpt lat="45.5881" lon="6.88479">
        <ele>1065.6</ele>
        <time>2020-08-08T13:45:08Z</time>
      </trkpt>
      <trkpt lat="45.58827" lon="6.88465">
        <ele>1065.1</ele>
        <time>2020-08-08T13:45:10Z</time>
      </trkpt>
      <trkpt lat="45.58833" lon="6.8846">
        <ele>1064.7</ele>
        <time>2020-08-08T13:45:11Z</time>
      </trkpt>
      <trkpt lat="45.5884" lon="6.88455">
        <ele>1064.4</ele>
        <time>2020-08-08T13:45:12Z</time>
      </trkpt>
      <trkpt lat="45.58846" lon="6.8845">
        <ele>1064</ele>
        <time>2020-08-08T13:45:13Z</time>
      </trkpt>
      <trkpt lat="45.58854" lon="6.88436">
        <ele>1063.3</ele>
        <time>2020-08-08T13:45:15Z</time>
      </trkpt>
      <trkpt lat="45.58857" lon="6.88415">
        <ele>1062.5</ele>
        <time>2020-08-08T13:45:17Z</time>
      </trkpt>
      <trkpt lat="45.58858" lon="6.88401">
        <ele>1061</ele>
        <time>2020-08-08T13:45:19Z</time>
      </trkpt>
      <trkpt lat="45.58861" lon="6.88389">
        <ele>1059.1</ele>
        <time>2020-08-08T13:45:21Z</time>
      </trkpt>
      <trkpt lat="45.58863" lon="6.88382">
        <ele>1058.1</ele>
        <time>2020-08-08T13:45:22Z</time>
      </trkpt>
      <trkpt lat="45.58865" lon="6.88375">
        <ele>1056.9</ele>
        <time>2020-08-08T13:45:23Z</time>
      </trkpt>
      <trkpt lat="45.58873" lon="6.88361">
        <ele>1054</ele>
        <time>2020-08-08T13:45:25Z</time>
      </trkpt>
      <trkpt lat="45.5888" lon="6.88354">
        <ele>1052.5</ele>
        <time>2020-08-08T13:45:26Z</time>
      </trkpt>
      <trkpt lat="45.58895" lon="6.88346">
        <ele>1051.8</ele>
        <time>2020-08-08T13:45:28Z</time>
      </trkpt>
      <trkpt lat="45.58911" lon="6.88343">
        <ele>1051.2</ele>
        <time>2020-08-08T13:45:30Z</time>
      </trkpt>
      <trkpt lat="45.5892" lon="6.88343">
        <ele>1050.9</ele>
        <time>2020-08-08T13:45:31Z</time>
      </trkpt>
      <trkpt lat="45.58929" lon="6.88345">
        <ele>1050.5</ele>
        <time>2020-08-08T13:45:32Z</time>
      </trkpt>
      <trkpt lat="45.58938" lon="6.88349">
        <ele>1050.1</ele>
        <time>2020-08-08T13:45:33Z</time>
      </trkpt>
      <trkpt lat="45.58953" lon="6.88362">
        <ele>1049.4</ele>
        <time>2020-08-08T13:45:35Z</time>
      </trkpt>
      <trkpt lat="45.58966" lon="6.8838">
        <ele>1048.8</ele>
        <time>2020-08-08T13:45:37Z</time>
      </trkpt>
      <trkpt lat="45.58979" lon="6.88398">
        <ele>1048</ele>
        <time>2020-08-08T13:45:39Z</time>
      </trkpt>
      <trkpt lat="45.58985" lon="6.88406">
        <ele>1047</ele>
        <time>2020-08-08T13:45:40Z</time>
      </trkpt>
      <trkpt lat="45.58998" lon="6.88417">
        <ele>1045.6</ele>
        <time>2020-08-08T13:45:42Z</time>
      </trkpt>
      <trkpt lat="45.59004" lon="6.88419">
        <ele>1045</ele>
        <time>2020-08-08T13:45:43Z</time>
      </trkpt>
      <trkpt lat="45.59019" lon="6.88419">
        <ele>1043.8</ele>
        <time>2020-08-08T13:45:45Z</time>
      </trkpt>
      <trkpt lat="45.59031" lon="6.88409">
        <ele>1042.7</ele>
        <time>2020-08-08T13:45:47Z</time>
      </trkpt>
      <trkpt lat="45.59038" lon="6.88391">
        <ele>1041.6</ele>
        <time>2020-08-08T13:45:49Z</time>
      </trkpt>
      <trkpt lat="45.59041" lon="6.88371">
        <ele>1040.4</ele>
        <time>2020-08-08T13:45:51Z</time>
      </trkpt>
      <trkpt lat="45.59045" lon="6.8835">
        <ele>1039.1</ele>
        <time>2020-08-08T13:45:53Z</time>
      </trkpt>
      <trkpt lat="45.59048" lon="6.8833">
        <ele>1037.3</ele>
        <time>2020-08-08T13:45:55Z</time>
      </trkpt>
      <trkpt lat="45.59051" lon="6.8832">
        <ele>1036.3</ele>
        <time>2020-08-08T13:45:56Z</time>
      </trkpt>
      <trkpt lat="45.59056" lon="6.8831">
        <ele>1035.1</ele>
        <time>2020-08-08T13:45:57Z</time>
      </trkpt>
      <trkpt lat="45.5907" lon="6.88292">
        <ele>1032.4</ele>
        <time>2020-08-08T13:45:59Z</time>
      </trkpt>
      <trkpt lat="45.59088" lon="6.88282">
        <ele>1029.4</ele>
        <time>2020-08-08T13:46:01Z</time>
      </trkpt>
      <trkpt lat="45.59098" lon="6.88277">
        <ele>1027.8</ele>
        <time>2020-08-08T13:46:02Z</time>
      </trkpt>
      <trkpt lat="45.59118" lon="6.88268">
        <ele>1026</ele>
        <time>2020-08-08T13:46:04Z</time>
      </trkpt>
      <trkpt lat="45.59129" lon="6.88265">
        <ele>1025.1</ele>
        <time>2020-08-08T13:46:05Z</time>
      </trkpt>
      <trkpt lat="45.5914" lon="6.88263">
        <ele>1024.3</ele>
        <time>2020-08-08T13:46:06Z</time>
      </trkpt>
      <trkpt lat="45.59152" lon="6.88262">
        <ele>1023.9</ele>
        <time>2020-08-08T13:46:07Z</time>
      </trkpt>
      <trkpt lat="45.59164" lon="6.88261">
        <ele>1023.4</ele>
        <time>2020-08-08T13:46:08Z</time>
      </trkpt>
      <trkpt lat="45.59189" lon="6.8826">
        <ele>1022.2</ele>
        <time>2020-08-08T13:46:10Z</time>
      </trkpt>
      <trkpt lat="45.59202" lon="6.8826">
        <ele>1021.4</ele>
        <time>2020-08-08T13:46:11Z</time>
      </trkpt>
      <trkpt lat="45.59228" lon="6.88258">
        <ele>1020.3</ele>
        <time>2020-08-08T13:46:13Z</time>
      </trkpt>
      <trkpt lat="45.59253" lon="6.88259">
        <ele>1018.3</ele>
        <time>2020-08-08T13:46:15Z</time>
      </trkpt>
      <trkpt lat="45.59277" lon="6.88263">
        <ele>1016.1</ele>
        <time>2020-08-08T13:46:17Z</time>
      </trkpt>
      <trkpt lat="45.59302" lon="6.88258">
        <ele>1014</ele>
        <time>2020-08-08T13:46:19Z</time>
      </trkpt>
      <trkpt lat="45.59314" lon="6.88252">
        <ele>1013.2</ele>
        <time>2020-08-08T13:46:20Z</time>
      </trkpt>
      <trkpt lat="45.59326" lon="6.88246">
        <ele>1012.5</ele>
        <time>2020-08-08T13:46:21Z</time>
      </trkpt>
      <trkpt lat="45.59349" lon="6.88238">
        <ele>1010.3</ele>
        <time>2020-08-08T13:46:23Z</time>
      </trkpt>
      <trkpt lat="45.59374" lon="6.88238">
        <ele>1008.6</ele>
        <time>2020-08-08T13:46:25Z</time>
      </trkpt>
      <trkpt lat="45.59388" lon="6.8824">
        <ele>1008.2</ele>
        <time>2020-08-08T13:46:26Z</time>
      </trkpt>
      <trkpt lat="45.59401" lon="6.88241">
        <ele>1007.5</ele>
        <time>2020-08-08T13:46:27Z</time>
      </trkpt>
      <trkpt lat="45.59414" lon="6.88242">
        <ele>1007.1</ele>
        <time>2020-08-08T13:46:28Z</time>
      </trkpt>
      <trkpt lat="45.59441" lon="6.88244">
        <ele>1005.2</ele>
        <time>2020-08-08T13:46:30Z</time>
      </trkpt>
      <trkpt lat="45.59455" lon="6.88244">
        <ele>1004.1</ele>
        <time>2020-08-08T13:46:31Z</time>
      </trkpt>
      <trkpt lat="45.59469" lon="6.88245">
        <ele>1003.7</ele>
        <time>2020-08-08T13:46:32Z</time>
      </trkpt>
      <trkpt lat="45.59483" lon="6.88249">
        <ele>1003.5</ele>
        <time>2020-08-08T13:46:33Z</time>
      </trkpt>
      <trkpt lat="45.5951" lon="6.8826">
        <ele>1001.9</ele>
        <time>2020-08-08T13:46:35Z</time>
      </trkpt>
      <trkpt lat="45.59523" lon="6.88262">
        <ele>1001.1</ele>
        <time>2020-08-08T13:46:36Z</time>
      </trkpt>
      <trkpt lat="45.59536" lon="6.88261">
        <ele>1000.3</ele>
        <time>2020-08-08T13:46:37Z</time>
      </trkpt>
      <trkpt lat="45.59561" lon="6.88256">
        <ele>999.2</ele>
        <time>2020-08-08T13:46:39Z</time>
      </trkpt>
      <trkpt lat="45.59571" lon="6.88257">
        <ele>998.6</ele>
        <time>2020-08-08T13:46:40Z</time>
      </trkpt>
      <trkpt lat="45.5959" lon="6.88264">
        <ele>997.4</ele>
        <time>2020-08-08T13:46:42Z</time>
      </trkpt>
      <trkpt lat="45.59607" lon="6.88267">
        <ele>997</ele>
        <time>2020-08-08T13:46:44Z</time>
      </trkpt>
      <trkpt lat="45.59615" lon="6.88263">
        <ele>996.8</ele>
        <time>2020-08-08T13:46:45Z</time>
      </trkpt>
      <trkpt lat="45.5962" lon="6.88254">
        <ele>996.2</ele>
        <time>2020-08-08T13:46:46Z</time>
      </trkpt>
      <trkpt lat="45.59622" lon="6.88242">
        <ele>995.2</ele>
        <time>2020-08-08T13:46:47Z</time>
      </trkpt>
      <trkpt lat="45.59615" lon="6.8822">
        <ele>993.3</ele>
        <time>2020-08-08T13:46:49Z</time>
      </trkpt>
      <trkpt lat="45.59598" lon="6.8821">
        <ele>992</ele>
        <time>2020-08-08T13:46:51Z</time>
      </trkpt>
      <trkpt lat="45.59589" lon="6.88214">
        <ele>991.1</ele>
        <time>2020-08-08T13:46:52Z</time>
      </trkpt>
      <trkpt lat="45.5957" lon="6.88223">
        <ele>989.3</ele>
        <time>2020-08-08T13:46:54Z</time>
      </trkpt>
      <trkpt lat="45.59559" lon="6.88227">
        <ele>988.8</ele>
        <time>2020-08-08T13:46:55Z</time>
      </trkpt>
      <trkpt lat="45.59538" lon="6.88228">
        <ele>987.3</ele>
        <time>2020-08-08T13:46:57Z</time>
      </trkpt>
      <trkpt lat="45.59515" lon="6.88221">
        <ele>985.5</ele>
        <time>2020-08-08T13:46:59Z</time>
      </trkpt>
      <trkpt lat="45.59504" lon="6.88213">
        <ele>984.1</ele>
        <time>2020-08-08T13:47:00Z</time>
      </trkpt>
      <trkpt lat="45.59494" lon="6.882">
        <ele>982.1</ele>
        <time>2020-08-08T13:47:01Z</time>
      </trkpt>
      <trkpt lat="45.59484" lon="6.88187">
        <ele>980.3</ele>
        <time>2020-08-08T13:47:02Z</time>
      </trkpt>
      <trkpt lat="45.5946" lon="6.88165">
        <ele>978.1</ele>
        <time>2020-08-08T13:47:04Z</time>
      </trkpt>
      <trkpt lat="45.59434" lon="6.88152">
        <ele>976.2</ele>
        <time>2020-08-08T13:47:06Z</time>
      </trkpt>
      <trkpt lat="45.59405" lon="6.88147">
        <ele>975</ele>
        <time>2020-08-08T13:47:08Z</time>
      </trkpt>
      <trkpt lat="45.59391" lon="6.88146">
        <ele>973.9</ele>
        <time>2020-08-08T13:47:09Z</time>
      </trkpt>
      <trkpt lat="45.59376" lon="6.88145">
        <ele>972.9</ele>
        <time>2020-08-08T13:47:10Z</time>
      </trkpt>
      <trkpt lat="45.59361" lon="6.88144">
        <ele>972</ele>
        <time>2020-08-08T13:47:11Z</time>
      </trkpt>
      <trkpt lat="45.59331" lon="6.88143">
        <ele>970.4</ele>
        <time>2020-08-08T13:47:13Z</time>
      </trkpt>
      <trkpt lat="45.59317" lon="6.88141">
        <ele>969.6</ele>
        <time>2020-08-08T13:47:14Z</time>
      </trkpt>
      <trkpt lat="45.5929" lon="6.88132">
        <ele>968.3</ele>
        <time>2020-08-08T13:47:16Z</time>
      </trkpt>
      <trkpt lat="45.59265" lon="6.88116">
        <ele>967.5</ele>
        <time>2020-08-08T13:47:18Z</time>
      </trkpt>
      <trkpt lat="45.59253" lon="6.88109">
        <ele>967.5</ele>
        <time>2020-08-08T13:47:19Z</time>
      </trkpt>
      <trkpt lat="45.59233" lon="6.881">
        <ele>967.7</ele>
        <time>2020-08-08T13:47:21Z</time>
      </trkpt>
      <trkpt lat="45.59218" lon="6.88093">
        <ele>967.2</ele>
        <time>2020-08-08T13:47:23Z</time>
      </trkpt>
      <trkpt lat="45.59214" lon="6.88086">
        <ele>966.2</ele>
        <time>2020-08-08T13:47:24Z</time>
      </trkpt>
      <trkpt lat="45.59217" lon="6.88068">
        <ele>964.3</ele>
        <time>2020-08-08T13:47:26Z</time>
      </trkpt>
      <trkpt lat="45.59236" lon="6.88068">
        <ele>963.5</ele>
        <time>2020-08-08T13:47:28Z</time>
      </trkpt>
      <trkpt lat="45.59251" lon="6.88085">
        <ele>962.9</ele>
        <time>2020-08-08T13:47:30Z</time>
      </trkpt>
      <trkpt lat="45.59258" lon="6.88094">
        <ele>962.6</ele>
        <time>2020-08-08T13:47:31Z</time>
      </trkpt>
      <trkpt lat="45.59265" lon="6.881">
        <ele>962.3</ele>
        <time>2020-08-08T13:47:32Z</time>
      </trkpt>
      <trkpt lat="45.59282" lon="6.8811">
        <ele>961.6</ele>
        <time>2020-08-08T13:47:34Z</time>
      </trkpt>
      <trkpt lat="45.59301" lon="6.88115">
        <ele>960.7</ele>
        <time>2020-08-08T13:47:36Z</time>
      </trkpt>
      <trkpt lat="45.59312" lon="6.88116">
        <ele>960.2</ele>
        <time>2020-08-08T13:47:37Z</time>
      </trkpt>
      <trkpt lat="45.59333" lon="6.88114">
        <ele>959</ele>
        <time>2020-08-08T13:47:39Z</time>
      </trkpt>
      <trkpt lat="45.59356" lon="6.88108">
        <ele>957.6</ele>
        <time>2020-08-08T13:47:41Z</time>
      </trkpt>
      <trkpt lat="45.59367" lon="6.88103">
        <ele>957</ele>
        <time>2020-08-08T13:47:42Z</time>
      </trkpt>
      <trkpt lat="45.5939" lon="6.8809">
        <ele>955.8</ele>
        <time>2020-08-08T13:47:44Z</time>
      </trkpt>
      <trkpt lat="45.59402" lon="6.88082">
        <ele>955.3</ele>
        <time>2020-08-08T13:47:45Z</time>
      </trkpt>
      <trkpt lat="45.59426" lon="6.88073">
        <ele>953.9</ele>
        <time>2020-08-08T13:47:47Z</time>
      </trkpt>
      <trkpt lat="45.59452" lon="6.88076">
        <ele>952.4</ele>
        <time>2020-08-08T13:47:49Z</time>
      </trkpt>
      <trkpt lat="45.59466" lon="6.8808">
        <ele>951.7</ele>
        <time>2020-08-08T13:47:50Z</time>
      </trkpt>
      <trkpt lat="45.5948" lon="6.88083">
        <ele>950.9</ele>
        <time>2020-08-08T13:47:51Z</time>
      </trkpt>
      <trkpt lat="45.59506" lon="6.88096">
        <ele>949.2</ele>
        <time>2020-08-08T13:47:53Z</time>
      </trkpt>
      <trkpt lat="45.59518" lon="6.88106">
        <ele>948.3</ele>
        <time>2020-08-08T13:47:54Z</time>
      </trkpt>
      <trkpt lat="45.5954" lon="6.88125">
        <ele>946.6</ele>
        <time>2020-08-08T13:47:56Z</time>
      </trkpt>
      <trkpt lat="45.59565" lon="6.88124">
        <ele>945.1</ele>
        <time>2020-08-08T13:47:58Z</time>
      </trkpt>
      <trkpt lat="45.59576" lon="6.88111">
        <ele>944.2</ele>
        <time>2020-08-08T13:47:59Z</time>
      </trkpt>
      <trkpt lat="45.59599" lon="6.88085">
        <ele>942.4</ele>
        <time>2020-08-08T13:48:01Z</time>
      </trkpt>
      <trkpt lat="45.59611" lon="6.88073">
        <ele>941.5</ele>
        <time>2020-08-08T13:48:02Z</time>
      </trkpt>
      <trkpt lat="45.59624" lon="6.88062">
        <ele>940.5</ele>
        <time>2020-08-08T13:48:03Z</time>
      </trkpt>
      <trkpt lat="45.59637" lon="6.88051">
        <ele>939.6</ele>
        <time>2020-08-08T13:48:04Z</time>
      </trkpt>
      <trkpt lat="45.59649" lon="6.88039">
        <ele>938.7</ele>
        <time>2020-08-08T13:48:05Z</time>
      </trkpt>
      <trkpt lat="45.59674" lon="6.88015">
        <ele>936.8</ele>
        <time>2020-08-08T13:48:07Z</time>
      </trkpt>
      <trkpt lat="45.59699" lon="6.8799">
        <ele>935.1</ele>
        <time>2020-08-08T13:48:09Z</time>
      </trkpt>
      <trkpt lat="45.59722" lon="6.87962">
        <ele>934.3</ele>
        <time>2020-08-08T13:48:11Z</time>
      </trkpt>
      <trkpt lat="45.59737" lon="6.87931">
        <ele>933.3</ele>
        <time>2020-08-08T13:48:13Z</time>
      </trkpt>
      <trkpt lat="45.5974" lon="6.87913">
        <ele>932.3</ele>
        <time>2020-08-08T13:48:14Z</time>
      </trkpt>
      <trkpt lat="45.59742" lon="6.87873">
        <ele>929.9</ele>
        <time>2020-08-08T13:48:16Z</time>
      </trkpt>
      <trkpt lat="45.59746" lon="6.87832">
        <ele>927.4</ele>
        <time>2020-08-08T13:48:18Z</time>
      </trkpt>
      <trkpt lat="45.59753" lon="6.8779">
        <ele>925</ele>
        <time>2020-08-08T13:48:20Z</time>
      </trkpt>
      <trkpt lat="45.59759" lon="6.8775">
        <ele>922.7</ele>
        <time>2020-08-08T13:48:22Z</time>
      </trkpt>
      <trkpt lat="45.59762" lon="6.87729">
        <ele>921.5</ele>
        <time>2020-08-08T13:48:23Z</time>
      </trkpt>
      <trkpt lat="45.59769" lon="6.87688">
        <ele>919.1</ele>
        <time>2020-08-08T13:48:25Z</time>
      </trkpt>
      <trkpt lat="45.59772" lon="6.87667">
        <ele>917.9</ele>
        <time>2020-08-08T13:48:26Z</time>
      </trkpt>
      <trkpt lat="45.5978" lon="6.87625">
        <ele>915.9</ele>
        <time>2020-08-08T13:48:28Z</time>
      </trkpt>
      <trkpt lat="45.59785" lon="6.87604">
        <ele>915</ele>
        <time>2020-08-08T13:48:29Z</time>
      </trkpt>
      <trkpt lat="45.59791" lon="6.87583">
        <ele>914.1</ele>
        <time>2020-08-08T13:48:30Z</time>
      </trkpt>
      <trkpt lat="45.59802" lon="6.87543">
        <ele>912.6</ele>
        <time>2020-08-08T13:48:32Z</time>
      </trkpt>
      <trkpt lat="45.59813" lon="6.87502">
        <ele>911.1</ele>
        <time>2020-08-08T13:48:34Z</time>
      </trkpt>
      <trkpt lat="45.59823" lon="6.87462">
        <ele>909.7</ele>
        <time>2020-08-08T13:48:36Z</time>
      </trkpt>
      <trkpt lat="45.59828" lon="6.87441">
        <ele>909.2</ele>
        <time>2020-08-08T13:48:37Z</time>
      </trkpt>
      <trkpt lat="45.59838" lon="6.87402">
        <ele>908.3</ele>
        <time>2020-08-08T13:48:39Z</time>
      </trkpt>
      <trkpt lat="45.59843" lon="6.87382">
        <ele>908.1</ele>
        <time>2020-08-08T13:48:40Z</time>
      </trkpt>
      <trkpt lat="45.59853" lon="6.87343">
        <ele>907.6</ele>
        <time>2020-08-08T13:48:42Z</time>
      </trkpt>
      <trkpt lat="45.59858" lon="6.87324">
        <ele>907.4</ele>
        <time>2020-08-08T13:48:43Z</time>
      </trkpt>
      <trkpt lat="45.59867" lon="6.87287">
        <ele>907</ele>
        <time>2020-08-08T13:48:45Z</time>
      </trkpt>
      <trkpt lat="45.59877" lon="6.87252">
        <ele>906.7</ele>
        <time>2020-08-08T13:48:47Z</time>
      </trkpt>
      <trkpt lat="45.59885" lon="6.87219">
        <ele>906.4</ele>
        <time>2020-08-08T13:48:49Z</time>
      </trkpt>
      <trkpt lat="45.59889" lon="6.87202">
        <ele>906.1</ele>
        <time>2020-08-08T13:48:50Z</time>
      </trkpt>
      <trkpt lat="45.59898" lon="6.8717">
        <ele>905.5</ele>
        <time>2020-08-08T13:48:52Z</time>
      </trkpt>
      <trkpt lat="45.59907" lon="6.87137">
        <ele>904.9</ele>
        <time>2020-08-08T13:48:54Z</time>
      </trkpt>
      <trkpt lat="45.59911" lon="6.8712">
        <ele>904.6</ele>
        <time>2020-08-08T13:48:55Z</time>
      </trkpt>
      <trkpt lat="45.5992" lon="6.87088">
        <ele>904.3</ele>
        <time>2020-08-08T13:48:57Z</time>
      </trkpt>
      <trkpt lat="45.59925" lon="6.87072">
        <ele>904.1</ele>
        <time>2020-08-08T13:48:58Z</time>
      </trkpt>
      <trkpt lat="45.59929" lon="6.87056">
        <ele>904</ele>
        <time>2020-08-08T13:48:59Z</time>
      </trkpt>
      <trkpt lat="45.59938" lon="6.87025">
        <ele>903.7</ele>
        <time>2020-08-08T13:49:01Z</time>
      </trkpt>
      <trkpt lat="45.59942" lon="6.87009">
        <ele>903.5</ele>
        <time>2020-08-08T13:49:02Z</time>
      </trkpt>
      <trkpt lat="45.59951" lon="6.86977">
        <ele>903.1</ele>
        <time>2020-08-08T13:49:04Z</time>
      </trkpt>
      <trkpt lat="45.59955" lon="6.86961">
        <ele>902.9</ele>
        <time>2020-08-08T13:49:05Z</time>
      </trkpt>
      <trkpt lat="45.59962" lon="6.8693">
        <ele>902.5</ele>
        <time>2020-08-08T13:49:07Z</time>
      </trkpt>
      <trkpt lat="45.59968" lon="6.869">
        <ele>902.2</ele>
        <time>2020-08-08T13:49:09Z</time>
      </trkpt>
      <trkpt lat="45.59976" lon="6.86871">
        <ele>901.8</ele>
        <time>2020-08-08T13:49:11Z</time>
      </trkpt>
      <trkpt lat="45.59985" lon="6.86846">
        <ele>901.5</ele>
        <time>2020-08-08T13:49:13Z</time>
      </trkpt>
      <trkpt lat="45.59991" lon="6.86834">
        <ele>901.4</ele>
        <time>2020-08-08T13:49:14Z</time>
      </trkpt>
      <trkpt lat="45.60002" lon="6.8681">
        <ele>901.1</ele>
        <time>2020-08-08T13:49:16Z</time>
      </trkpt>
      <trkpt lat="45.60007" lon="6.86798">
        <ele>900.9</ele>
        <time>2020-08-08T13:49:17Z</time>
      </trkpt>
      <trkpt lat="45.60019" lon="6.86776">
        <ele>900.7</ele>
        <time>2020-08-08T13:49:19Z</time>
      </trkpt>
      <trkpt lat="45.60025" lon="6.86766">
        <ele>900.5</ele>
        <time>2020-08-08T13:49:20Z</time>
      </trkpt>
      <trkpt lat="45.60038" lon="6.86747">
        <ele>899.9</ele>
        <time>2020-08-08T13:49:22Z</time>
      </trkpt>
      <trkpt lat="45.60046" lon="6.86739">
        <ele>899.8</ele>
        <time>2020-08-08T13:49:23Z</time>
      </trkpt>
      <trkpt lat="45.60062" lon="6.86723">
        <ele>899.4</ele>
        <time>2020-08-08T13:49:25Z</time>
      </trkpt>
      <trkpt lat="45.60078" lon="6.86708">
        <ele>899.3</ele>
        <time>2020-08-08T13:49:27Z</time>
      </trkpt>
      <trkpt lat="45.60094" lon="6.86693">
        <ele>899.2</ele>
        <time>2020-08-08T13:49:29Z</time>
      </trkpt>
      <trkpt lat="45.6011" lon="6.86678">
        <ele>899</ele>
        <time>2020-08-08T13:49:31Z</time>
      </trkpt>
      <trkpt lat="45.60118" lon="6.8667">
        <ele>898.9</ele>
        <time>2020-08-08T13:49:32Z</time>
      </trkpt>
      <trkpt lat="45.60127" lon="6.86662">
        <ele>898.8</ele>
        <time>2020-08-08T13:49:33Z</time>
      </trkpt>
      <trkpt lat="45.60143" lon="6.86647">
        <ele>898.8</ele>
        <time>2020-08-08T13:49:35Z</time>
      </trkpt>
      <trkpt lat="45.6015" lon="6.8664">
        <ele>898.8</ele>
        <time>2020-08-08T13:49:36Z</time>
      </trkpt>
      <trkpt lat="45.60165" lon="6.86627">
        <ele>898.8</ele>
        <time>2020-08-08T13:49:38Z</time>
      </trkpt>
      <trkpt lat="45.60179" lon="6.86613">
        <ele>898.8</ele>
        <time>2020-08-08T13:49:40Z</time>
      </trkpt>
      <trkpt lat="45.60185" lon="6.86607">
        <ele>898.8</ele>
        <time>2020-08-08T13:49:41Z</time>
      </trkpt>
      <trkpt lat="45.60198" lon="6.86595">
        <ele>898.8</ele>
        <time>2020-08-08T13:49:43Z</time>
      </trkpt>
      <trkpt lat="45.60212" lon="6.86581">
        <ele>898.8</ele>
        <time>2020-08-08T13:49:45Z</time>
      </trkpt>
      <trkpt lat="45.60227" lon="6.86567">
        <ele>898.8</ele>
        <time>2020-08-08T13:49:47Z</time>
      </trkpt>
      <trkpt lat="45.60234" lon="6.86559">
        <ele>898.7</ele>
        <time>2020-08-08T13:49:48Z</time>
      </trkpt>
      <trkpt lat="45.60247" lon="6.86543">
        <ele>898.5</ele>
        <time>2020-08-08T13:49:50Z</time>
      </trkpt>
      <trkpt lat="45.60253" lon="6.86534">
        <ele>898.3</ele>
        <time>2020-08-08T13:49:51Z</time>
      </trkpt>
      <trkpt lat="45.60264" lon="6.86515">
        <ele>898</ele>
        <time>2020-08-08T13:49:53Z</time>
      </trkpt>
      <trkpt lat="45.60274" lon="6.86494">
        <ele>897.9</ele>
        <time>2020-08-08T13:49:55Z</time>
      </trkpt>
      <trkpt lat="45.60282" lon="6.86471">
        <ele>897.8</ele>
        <time>2020-08-08T13:49:57Z</time>
      </trkpt>
      <trkpt lat="45.60288" lon="6.86447">
        <ele>897.8</ele>
        <time>2020-08-08T13:49:59Z</time>
      </trkpt>
      <trkpt lat="45.60293" lon="6.86423">
        <ele>898</ele>
        <time>2020-08-08T13:50:01Z</time>
      </trkpt>
      <trkpt lat="45.60295" lon="6.86411">
        <ele>898</ele>
        <time>2020-08-08T13:50:02Z</time>
      </trkpt>
      <trkpt lat="45.603" lon="6.86388">
        <ele>898</ele>
        <time>2020-08-08T13:50:04Z</time>
      </trkpt>
      <trkpt lat="45.60302" lon="6.86376">
        <ele>898.2</ele>
        <time>2020-08-08T13:50:05Z</time>
      </trkpt>
      <trkpt lat="45.60305" lon="6.86353">
        <ele>898.5</ele>
        <time>2020-08-08T13:50:07Z</time>
      </trkpt>
      <trkpt lat="45.60307" lon="6.86342">
        <ele>898.7</ele>
        <time>2020-08-08T13:50:08Z</time>
      </trkpt>
      <trkpt lat="45.60312" lon="6.8632">
        <ele>899.1</ele>
        <time>2020-08-08T13:50:10Z</time>
      </trkpt>
      <trkpt lat="45.60313" lon="6.8631">
        <ele>899.3</ele>
        <time>2020-08-08T13:50:11Z</time>
      </trkpt>
      <trkpt lat="45.60315" lon="6.86299">
        <ele>899.5</ele>
        <time>2020-08-08T13:50:12Z</time>
      </trkpt>
      <trkpt lat="45.6032" lon="6.86277">
        <ele>899.9</ele>
        <time>2020-08-08T13:50:14Z</time>
      </trkpt>
      <trkpt lat="45.60322" lon="6.86266">
        <ele>900.1</ele>
        <time>2020-08-08T13:50:15Z</time>
      </trkpt>
      <trkpt lat="45.60324" lon="6.86256">
        <ele>900.2</ele>
        <time>2020-08-08T13:50:16Z</time>
      </trkpt>
      <trkpt lat="45.60327" lon="6.86236">
        <ele>899.9</ele>
        <time>2020-08-08T13:50:18Z</time>
      </trkpt>
      <trkpt lat="45.60329" lon="6.86226">
        <ele>899.8</ele>
        <time>2020-08-08T13:50:19Z</time>
      </trkpt>
      <trkpt lat="45.60331" lon="6.86217">
        <ele>899.7</ele>
        <time>2020-08-08T13:50:20Z</time>
      </trkpt>
      <trkpt lat="45.60335" lon="6.86199">
        <ele>899.5</ele>
        <time>2020-08-08T13:50:22Z</time>
      </trkpt>
      <trkpt lat="45.60338" lon="6.86183">
        <ele>899.3</ele>
        <time>2020-08-08T13:50:24Z</time>
      </trkpt>
      <trkpt lat="45.60339" lon="6.86174">
        <ele>899.1</ele>
        <time>2020-08-08T13:50:25Z</time>
      </trkpt>
      <trkpt lat="45.60342" lon="6.86158">
        <ele>898.8</ele>
        <time>2020-08-08T13:50:27Z</time>
      </trkpt>
      <trkpt lat="45.60344" lon="6.8615">
        <ele>898.7</ele>
        <time>2020-08-08T13:50:28Z</time>
      </trkpt>
      <trkpt lat="45.60346" lon="6.86142">
        <ele>898.5</ele>
        <time>2020-08-08T13:50:29Z</time>
      </trkpt>
      <trkpt lat="45.60349" lon="6.86125">
        <ele>898.2</ele>
        <time>2020-08-08T13:50:31Z</time>
      </trkpt>
      <trkpt lat="45.6035" lon="6.86116">
        <ele>898.1</ele>
        <time>2020-08-08T13:50:32Z</time>
      </trkpt>
      <trkpt lat="45.60353" lon="6.86098">
        <ele>898</ele>
        <time>2020-08-08T13:50:34Z</time>
      </trkpt>
      <trkpt lat="45.60355" lon="6.86089">
        <ele>897.9</ele>
        <time>2020-08-08T13:50:35Z</time>
      </trkpt>
      <trkpt lat="45.60356" lon="6.86071">
        <ele>897.7</ele>
        <time>2020-08-08T13:50:37Z</time>
      </trkpt>
      <trkpt lat="45.60357" lon="6.86062">
        <ele>897.6</ele>
        <time>2020-08-08T13:50:38Z</time>
      </trkpt>
      <trkpt lat="45.60357" lon="6.86044">
        <ele>897.5</ele>
        <time>2020-08-08T13:50:40Z</time>
      </trkpt>
      <trkpt lat="45.60356" lon="6.86025">
        <ele>897.3</ele>
        <time>2020-08-08T13:50:42Z</time>
      </trkpt>
      <trkpt lat="45.60355" lon="6.86015">
        <ele>897.2</ele>
        <time>2020-08-08T13:50:43Z</time>
      </trkpt>
      <trkpt lat="45.60355" lon="6.86006">
        <ele>897.1</ele>
        <time>2020-08-08T13:50:44Z</time>
      </trkpt>
      <trkpt lat="45.60354" lon="6.85996">
        <ele>897</ele>
        <time>2020-08-08T13:50:45Z</time>
      </trkpt>
      <trkpt lat="45.60354" lon="6.85977">
        <ele>896.8</ele>
        <time>2020-08-08T13:50:47Z</time>
      </trkpt>
      <trkpt lat="45.60354" lon="6.85966">
        <ele>896.7</ele>
        <time>2020-08-08T13:50:48Z</time>
      </trkpt>
      <trkpt lat="45.60354" lon="6.85945">
        <ele>896.6</ele>
        <time>2020-08-08T13:50:50Z</time>
      </trkpt>
      <trkpt lat="45.60354" lon="6.85934">
        <ele>896.5</ele>
        <time>2020-08-08T13:50:51Z</time>
      </trkpt>
      <trkpt lat="45.60356" lon="6.85913">
        <ele>896.4</ele>
        <time>2020-08-08T13:50:53Z</time>
      </trkpt>
      <trkpt lat="45.60358" lon="6.85902">
        <ele>896.4</ele>
        <time>2020-08-08T13:50:54Z</time>
      </trkpt>
      <trkpt lat="45.60362" lon="6.85881">
        <ele>896.3</ele>
        <time>2020-08-08T13:50:56Z</time>
      </trkpt>
      <trkpt lat="45.60368" lon="6.85861">
        <ele>896.2</ele>
        <time>2020-08-08T13:50:58Z</time>
      </trkpt>
      <trkpt lat="45.60371" lon="6.85851">
        <ele>896.2</ele>
        <time>2020-08-08T13:50:59Z</time>
      </trkpt>
      <trkpt lat="45.60375" lon="6.85841">
        <ele>896.1</ele>
        <time>2020-08-08T13:51:00Z</time>
      </trkpt>
      <trkpt lat="45.60378" lon="6.85832">
        <ele>896.1</ele>
        <time>2020-08-08T13:51:01Z</time>
      </trkpt>
      <trkpt lat="45.60385" lon="6.85812">
        <ele>896.1</ele>
        <time>2020-08-08T13:51:03Z</time>
      </trkpt>
      <trkpt lat="45.60393" lon="6.85793">
        <ele>896</ele>
        <time>2020-08-08T13:51:05Z</time>
      </trkpt>
      <trkpt lat="45.60401" lon="6.85775">
        <ele>896</ele>
        <time>2020-08-08T13:51:07Z</time>
      </trkpt>
      <trkpt lat="45.60409" lon="6.85757">
        <ele>896</ele>
        <time>2020-08-08T13:51:09Z</time>
      </trkpt>
      <trkpt lat="45.60414" lon="6.85748">
        <ele>896</ele>
        <time>2020-08-08T13:51:10Z</time>
      </trkpt>
      <trkpt lat="45.60418" lon="6.8574">
        <ele>896</ele>
        <time>2020-08-08T13:51:11Z</time>
      </trkpt>
      <trkpt lat="45.60427" lon="6.85723">
        <ele>896</ele>
        <time>2020-08-08T13:51:13Z</time>
      </trkpt>
      <trkpt lat="45.60437" lon="6.85707">
        <ele>895.9</ele>
        <time>2020-08-08T13:51:15Z</time>
      </trkpt>
      <trkpt lat="45.60443" lon="6.857">
        <ele>895.7</ele>
        <time>2020-08-08T13:51:16Z</time>
      </trkpt>
      <trkpt lat="45.60454" lon="6.85684">
        <ele>895.4</ele>
        <time>2020-08-08T13:51:18Z</time>
      </trkpt>
      <trkpt lat="45.60463" lon="6.85665">
        <ele>894.9</ele>
        <time>2020-08-08T13:51:20Z</time>
      </trkpt>
      <trkpt lat="45.60473" lon="6.85647">
        <ele>894.5</ele>
        <time>2020-08-08T13:51:22Z</time>
      </trkpt>
      <trkpt lat="45.60479" lon="6.85638">
        <ele>894.3</ele>
        <time>2020-08-08T13:51:23Z</time>
      </trkpt>
      <trkpt lat="45.6049" lon="6.85622">
        <ele>893.8</ele>
        <time>2020-08-08T13:51:25Z</time>
      </trkpt>
      <trkpt lat="45.60495" lon="6.85614">
        <ele>893.6</ele>
        <time>2020-08-08T13:51:26Z</time>
      </trkpt>
      <trkpt lat="45.60506" lon="6.85597">
        <ele>893.1</ele>
        <time>2020-08-08T13:51:28Z</time>
      </trkpt>
      <trkpt lat="45.60512" lon="6.85588">
        <ele>892.9</ele>
        <time>2020-08-08T13:51:29Z</time>
      </trkpt>
      <trkpt lat="45.60517" lon="6.85579">
        <ele>892.6</ele>
        <time>2020-08-08T13:51:30Z</time>
      </trkpt>
      <trkpt lat="45.60523" lon="6.85569">
        <ele>892.4</ele>
        <time>2020-08-08T13:51:31Z</time>
      </trkpt>
      <trkpt lat="45.60534" lon="6.8555">
        <ele>891.9</ele>
        <time>2020-08-08T13:51:33Z</time>
      </trkpt>
      <trkpt lat="45.60539" lon="6.85541">
        <ele>891.7</ele>
        <time>2020-08-08T13:51:34Z</time>
      </trkpt>
      <trkpt lat="45.6055" lon="6.85523">
        <ele>891.4</ele>
        <time>2020-08-08T13:51:36Z</time>
      </trkpt>
      <trkpt lat="45.60555" lon="6.85514">
        <ele>891.2</ele>
        <time>2020-08-08T13:51:37Z</time>
      </trkpt>
      <trkpt lat="45.60564" lon="6.85495">
        <ele>891.7</ele>
        <time>2020-08-08T13:51:39Z</time>
      </trkpt>
      <trkpt lat="45.60571" lon="6.85474">
        <ele>891.8</ele>
        <time>2020-08-08T13:51:41Z</time>
      </trkpt>
      <trkpt lat="45.60574" lon="6.85463">
        <ele>891.9</ele>
        <time>2020-08-08T13:51:42Z</time>
      </trkpt>
      <trkpt lat="45.60578" lon="6.85441">
        <ele>892</ele>
        <time>2020-08-08T13:51:44Z</time>
      </trkpt>
      <trkpt lat="45.6058" lon="6.8543">
        <ele>892.1</ele>
        <time>2020-08-08T13:51:45Z</time>
      </trkpt>
      <trkpt lat="45.60583" lon="6.85409">
        <ele>892.2</ele>
        <time>2020-08-08T13:51:47Z</time>
      </trkpt>
      <trkpt lat="45.60585" lon="6.85398">
        <ele>892.3</ele>
        <time>2020-08-08T13:51:48Z</time>
      </trkpt>
      <trkpt lat="45.60588" lon="6.85377">
        <ele>892.4</ele>
        <time>2020-08-08T13:51:50Z</time>
      </trkpt>
      <trkpt lat="45.6059" lon="6.85366">
        <ele>892.5</ele>
        <time>2020-08-08T13:51:51Z</time>
      </trkpt>
      <trkpt lat="45.60591" lon="6.85355">
        <ele>892.6</ele>
        <time>2020-08-08T13:51:52Z</time>
      </trkpt>
      <trkpt lat="45.60593" lon="6.85333">
        <ele>892.8</ele>
        <time>2020-08-08T13:51:54Z</time>
      </trkpt>
      <trkpt lat="45.60594" lon="6.85322">
        <ele>892.9</ele>
        <time>2020-08-08T13:51:55Z</time>
      </trkpt>
      <trkpt lat="45.60594" lon="6.85312">
        <ele>893</ele>
        <time>2020-08-08T13:51:56Z</time>
      </trkpt>
      <trkpt lat="45.60595" lon="6.85301">
        <ele>893.2</ele>
        <time>2020-08-08T13:51:57Z</time>
      </trkpt>
      <trkpt lat="45.60596" lon="6.85279">
        <ele>893.5</ele>
        <time>2020-08-08T13:51:59Z</time>
      </trkpt>
      <trkpt lat="45.60597" lon="6.85258">
        <ele>893.9</ele>
        <time>2020-08-08T13:52:01Z</time>
      </trkpt>
      <trkpt lat="45.60597" lon="6.85247">
        <ele>894.2</ele>
        <time>2020-08-08T13:52:02Z</time>
      </trkpt>
      <trkpt lat="45.60598" lon="6.85226">
        <ele>894.8</ele>
        <time>2020-08-08T13:52:04Z</time>
      </trkpt>
      <trkpt lat="45.60598" lon="6.85214">
        <ele>895.1</ele>
        <time>2020-08-08T13:52:05Z</time>
      </trkpt>
      <trkpt lat="45.60599" lon="6.85204">
        <ele>895.3</ele>
        <time>2020-08-08T13:52:06Z</time>
      </trkpt>
      <trkpt lat="45.60599" lon="6.85194">
        <ele>895.6</ele>
        <time>2020-08-08T13:52:07Z</time>
      </trkpt>
      <trkpt lat="45.606" lon="6.85184">
        <ele>895.8</ele>
        <time>2020-08-08T13:52:08Z</time>
      </trkpt>
      <trkpt lat="45.60602" lon="6.85166">
        <ele>896.3</ele>
        <time>2020-08-08T13:52:10Z</time>
      </trkpt>
      <trkpt lat="45.60604" lon="6.85157">
        <ele>896.6</ele>
        <time>2020-08-08T13:52:11Z</time>
      </trkpt>
      <trkpt lat="45.60607" lon="6.8514">
        <ele>897.2</ele>
        <time>2020-08-08T13:52:13Z</time>
      </trkpt>
      <trkpt lat="45.60609" lon="6.85132">
        <ele>897.4</ele>
        <time>2020-08-08T13:52:14Z</time>
      </trkpt>
      <trkpt lat="45.60613" lon="6.85116">
        <ele>897.9</ele>
        <time>2020-08-08T13:52:16Z</time>
      </trkpt>
      <trkpt lat="45.60619" lon="6.85101">
        <ele>898.3</ele>
        <time>2020-08-08T13:52:18Z</time>
      </trkpt>
      <trkpt lat="45.60622" lon="6.85093">
        <ele>898.5</ele>
        <time>2020-08-08T13:52:19Z</time>
      </trkpt>
      <trkpt lat="45.60625" lon="6.85086">
        <ele>898.7</ele>
        <time>2020-08-08T13:52:20Z</time>
      </trkpt>
      <trkpt lat="45.60631" lon="6.85072">
        <ele>898.9</ele>
        <time>2020-08-08T13:52:22Z</time>
      </trkpt>
      <trkpt lat="45.60634" lon="6.85065">
        <ele>899.1</ele>
        <time>2020-08-08T13:52:23Z</time>
      </trkpt>
      <trkpt lat="45.60641" lon="6.85051">
        <ele>899.3</ele>
        <time>2020-08-08T13:52:25Z</time>
      </trkpt>
      <trkpt lat="45.60648" lon="6.85035">
        <ele>899.5</ele>
        <time>2020-08-08T13:52:27Z</time>
      </trkpt>
      <trkpt lat="45.60651" lon="6.85026">
        <ele>899.7</ele>
        <time>2020-08-08T13:52:28Z</time>
      </trkpt>
      <trkpt lat="45.60653" lon="6.85017">
        <ele>899.9</ele>
        <time>2020-08-08T13:52:29Z</time>
      </trkpt>
      <trkpt lat="45.60655" lon="6.84998">
        <ele>900.1</ele>
        <time>2020-08-08T13:52:31Z</time>
      </trkpt>
      <trkpt lat="45.60657" lon="6.84989">
        <ele>900.3</ele>
        <time>2020-08-08T13:52:32Z</time>
      </trkpt>
      <trkpt lat="45.60658" lon="6.8498">
        <ele>900.4</ele>
        <time>2020-08-08T13:52:33Z</time>
      </trkpt>
      <trkpt lat="45.6066" lon="6.84962">
        <ele>900.6</ele>
        <time>2020-08-08T13:52:35Z</time>
      </trkpt>
      <trkpt lat="45.60661" lon="6.84954">
        <ele>900.7</ele>
        <time>2020-08-08T13:52:36Z</time>
      </trkpt>
      <trkpt lat="45.60663" lon="6.84945">
        <ele>900.9</ele>
        <time>2020-08-08T13:52:37Z</time>
      </trkpt>
      <trkpt lat="45.60664" lon="6.8493">
        <ele>901</ele>
        <time>2020-08-08T13:52:39Z</time>
      </trkpt>
      <trkpt lat="45.60665" lon="6.84922">
        <ele>901.1</ele>
        <time>2020-08-08T13:52:40Z</time>
      </trkpt>
      <trkpt lat="45.60667" lon="6.84905">
        <ele>901.2</ele>
        <time>2020-08-08T13:52:42Z</time>
      </trkpt>
      <trkpt lat="45.60668" lon="6.84888">
        <ele>901.3</ele>
        <time>2020-08-08T13:52:44Z</time>
      </trkpt>
      <trkpt lat="45.60669" lon="6.84869">
        <ele>901.1</ele>
        <time>2020-08-08T13:52:46Z</time>
      </trkpt>
      <trkpt lat="45.60671" lon="6.84851">
        <ele>900.8</ele>
        <time>2020-08-08T13:52:48Z</time>
      </trkpt>
      <trkpt lat="45.60674" lon="6.84833">
        <ele>900.4</ele>
        <time>2020-08-08T13:52:50Z</time>
      </trkpt>
      <trkpt lat="45.60676" lon="6.84823">
        <ele>900.2</ele>
        <time>2020-08-08T13:52:51Z</time>
      </trkpt>
      <trkpt lat="45.60681" lon="6.84804">
        <ele>899.8</ele>
        <time>2020-08-08T13:52:53Z</time>
      </trkpt>
      <trkpt lat="45.60683" lon="6.84795">
        <ele>899.5</ele>
        <time>2020-08-08T13:52:54Z</time>
      </trkpt>
      <trkpt lat="45.60688" lon="6.84775">
        <ele>898.9</ele>
        <time>2020-08-08T13:52:56Z</time>
      </trkpt>
      <trkpt lat="45.6069" lon="6.84765">
        <ele>898.6</ele>
        <time>2020-08-08T13:52:57Z</time>
      </trkpt>
      <trkpt lat="45.60695" lon="6.84744">
        <ele>897.7</ele>
        <time>2020-08-08T13:52:59Z</time>
      </trkpt>
      <trkpt lat="45.60698" lon="6.84733">
        <ele>897.3</ele>
        <time>2020-08-08T13:53:00Z</time>
      </trkpt>
      <trkpt lat="45.60703" lon="6.84711">
        <ele>896.5</ele>
        <time>2020-08-08T13:53:02Z</time>
      </trkpt>
      <trkpt lat="45.60709" lon="6.84688">
        <ele>895.7</ele>
        <time>2020-08-08T13:53:04Z</time>
      </trkpt>
      <trkpt lat="45.60711" lon="6.84677">
        <ele>895.3</ele>
        <time>2020-08-08T13:53:05Z</time>
      </trkpt>
      <trkpt lat="45.60714" lon="6.84666">
        <ele>894.9</ele>
        <time>2020-08-08T13:53:06Z</time>
      </trkpt>
      <trkpt lat="45.60721" lon="6.84644">
        <ele>894.1</ele>
        <time>2020-08-08T13:53:08Z</time>
      </trkpt>
      <trkpt lat="45.60729" lon="6.84621">
        <ele>893.3</ele>
        <time>2020-08-08T13:53:10Z</time>
      </trkpt>
      <trkpt lat="45.60737" lon="6.84598">
        <ele>892.6</ele>
        <time>2020-08-08T13:53:12Z</time>
      </trkpt>
      <trkpt lat="45.60741" lon="6.84586">
        <ele>892.2</ele>
        <time>2020-08-08T13:53:13Z</time>
      </trkpt>
      <trkpt lat="45.60748" lon="6.84562">
        <ele>891.6</ele>
        <time>2020-08-08T13:53:15Z</time>
      </trkpt>
      <trkpt lat="45.60752" lon="6.8455">
        <ele>891.3</ele>
        <time>2020-08-08T13:53:16Z</time>
      </trkpt>
      <trkpt lat="45.60758" lon="6.84526">
        <ele>890.8</ele>
        <time>2020-08-08T13:53:18Z</time>
      </trkpt>
      <trkpt lat="45.60764" lon="6.84501">
        <ele>890.3</ele>
        <time>2020-08-08T13:53:20Z</time>
      </trkpt>
      <trkpt lat="45.60767" lon="6.84489">
        <ele>890</ele>
        <time>2020-08-08T13:53:21Z</time>
      </trkpt>
      <trkpt lat="45.6077" lon="6.84476">
        <ele>889.8</ele>
        <time>2020-08-08T13:53:22Z</time>
      </trkpt>
      <trkpt lat="45.60772" lon="6.84463">
        <ele>889.5</ele>
        <time>2020-08-08T13:53:23Z</time>
      </trkpt>
      <trkpt lat="45.60777" lon="6.84437">
        <ele>889</ele>
        <time>2020-08-08T13:53:25Z</time>
      </trkpt>
      <trkpt lat="45.60781" lon="6.84409">
        <ele>888.6</ele>
        <time>2020-08-08T13:53:27Z</time>
      </trkpt>
      <trkpt lat="45.60784" lon="6.84396">
        <ele>888.3</ele>
        <time>2020-08-08T13:53:28Z</time>
      </trkpt>
      <trkpt lat="45.60788" lon="6.84368">
        <ele>887.6</ele>
        <time>2020-08-08T13:53:30Z</time>
      </trkpt>
      <trkpt lat="45.60791" lon="6.84353">
        <ele>887.2</ele>
        <time>2020-08-08T13:53:31Z</time>
      </trkpt>
      <trkpt lat="45.60796" lon="6.84323">
        <ele>886.3</ele>
        <time>2020-08-08T13:53:33Z</time>
      </trkpt>
      <trkpt lat="45.60798" lon="6.84307">
        <ele>885.9</ele>
        <time>2020-08-08T13:53:34Z</time>
      </trkpt>
      <trkpt lat="45.608" lon="6.84276">
        <ele>885</ele>
        <time>2020-08-08T13:53:36Z</time>
      </trkpt>
      <trkpt lat="45.608" lon="6.84244">
        <ele>884.1</ele>
        <time>2020-08-08T13:53:38Z</time>
      </trkpt>
      <trkpt lat="45.60801" lon="6.84227">
        <ele>883.5</ele>
        <time>2020-08-08T13:53:39Z</time>
      </trkpt>
      <trkpt lat="45.60803" lon="6.8421">
        <ele>882.8</ele>
        <time>2020-08-08T13:53:40Z</time>
      </trkpt>
      <trkpt lat="45.60811" lon="6.84177">
        <ele>881.6</ele>
        <time>2020-08-08T13:53:42Z</time>
      </trkpt>
      <trkpt lat="45.60821" lon="6.84145">
        <ele>880.5</ele>
        <time>2020-08-08T13:53:44Z</time>
      </trkpt>
      <trkpt lat="45.60826" lon="6.84129">
        <ele>879.9</ele>
        <time>2020-08-08T13:53:45Z</time>
      </trkpt>
      <trkpt lat="45.60834" lon="6.84098">
        <ele>878.8</ele>
        <time>2020-08-08T13:53:47Z</time>
      </trkpt>
      <trkpt lat="45.60838" lon="6.84081">
        <ele>878.1</ele>
        <time>2020-08-08T13:53:48Z</time>
      </trkpt>
      <trkpt lat="45.60845" lon="6.84048">
        <ele>877.1</ele>
        <time>2020-08-08T13:53:50Z</time>
      </trkpt>
      <trkpt lat="45.60848" lon="6.84031">
        <ele>876.6</ele>
        <time>2020-08-08T13:53:51Z</time>
      </trkpt>
      <trkpt lat="45.60852" lon="6.84014">
        <ele>876</ele>
        <time>2020-08-08T13:53:52Z</time>
      </trkpt>
      <trkpt lat="45.6086" lon="6.83981">
        <ele>874.9</ele>
        <time>2020-08-08T13:53:54Z</time>
      </trkpt>
      <trkpt lat="45.60869" lon="6.83948">
        <ele>873.9</ele>
        <time>2020-08-08T13:53:56Z</time>
      </trkpt>
      <trkpt lat="45.6088" lon="6.83918">
        <ele>872.8</ele>
        <time>2020-08-08T13:53:58Z</time>
      </trkpt>
      <trkpt lat="45.60896" lon="6.8389">
        <ele>871.5</ele>
        <time>2020-08-08T13:54:00Z</time>
      </trkpt>
      <trkpt lat="45.60904" lon="6.83876">
        <ele>870.9</ele>
        <time>2020-08-08T13:54:01Z</time>
      </trkpt>
      <trkpt lat="45.6092" lon="6.83849">
        <ele>869.6</ele>
        <time>2020-08-08T13:54:03Z</time>
      </trkpt>
      <trkpt lat="45.60933" lon="6.83818">
        <ele>868.4</ele>
        <time>2020-08-08T13:54:05Z</time>
      </trkpt>
      <trkpt lat="45.60946" lon="6.83786">
        <ele>867.4</ele>
        <time>2020-08-08T13:54:07Z</time>
      </trkpt>
      <trkpt lat="45.60952" lon="6.8377">
        <ele>867</ele>
        <time>2020-08-08T13:54:08Z</time>
      </trkpt>
      <trkpt lat="45.60964" lon="6.83739">
        <ele>866.5</ele>
        <time>2020-08-08T13:54:10Z</time>
      </trkpt>
      <trkpt lat="45.60972" lon="6.83725">
        <ele>866.5</ele>
        <time>2020-08-08T13:54:11Z</time>
      </trkpt>
      <trkpt lat="45.60988" lon="6.83699">
        <ele>866.2</ele>
        <time>2020-08-08T13:54:13Z</time>
      </trkpt>
      <trkpt lat="45.61004" lon="6.83675">
        <ele>865.8</ele>
        <time>2020-08-08T13:54:15Z</time>
      </trkpt>
      <trkpt lat="45.61012" lon="6.83664">
        <ele>865.9</ele>
        <time>2020-08-08T13:54:16Z</time>
      </trkpt>
      <trkpt lat="45.61028" lon="6.83643">
        <ele>866.2</ele>
        <time>2020-08-08T13:54:18Z</time>
      </trkpt>
      <trkpt lat="45.61035" lon="6.83633">
        <ele>866.3</ele>
        <time>2020-08-08T13:54:19Z</time>
      </trkpt>
      <trkpt lat="45.61043" lon="6.83624">
        <ele>866.4</ele>
        <time>2020-08-08T13:54:20Z</time>
      </trkpt>
      <trkpt lat="45.61057" lon="6.83604">
        <ele>866.6</ele>
        <time>2020-08-08T13:54:22Z</time>
      </trkpt>
      <trkpt lat="45.61069" lon="6.83584">
        <ele>866.9</ele>
        <time>2020-08-08T13:54:24Z</time>
      </trkpt>
      <trkpt lat="45.61079" lon="6.83563">
        <ele>867.1</ele>
        <time>2020-08-08T13:54:26Z</time>
      </trkpt>
      <trkpt lat="45.61087" lon="6.8354">
        <ele>867.2</ele>
        <time>2020-08-08T13:54:28Z</time>
      </trkpt>
      <trkpt lat="45.61094" lon="6.83517">
        <ele>867.4</ele>
        <time>2020-08-08T13:54:30Z</time>
      </trkpt>
      <trkpt lat="45.61102" lon="6.83495">
        <ele>867.5</ele>
        <time>2020-08-08T13:54:32Z</time>
      </trkpt>
      <trkpt lat="45.61109" lon="6.83474">
        <ele>867.5</ele>
        <time>2020-08-08T13:54:34Z</time>
      </trkpt>
      <trkpt lat="45.61116" lon="6.83451">
        <ele>867.5</ele>
        <time>2020-08-08T13:54:36Z</time>
      </trkpt>
      <trkpt lat="45.61119" lon="6.8344">
        <ele>867.4</ele>
        <time>2020-08-08T13:54:37Z</time>
      </trkpt>
      <trkpt lat="45.61127" lon="6.83418">
        <ele>867.2</ele>
        <time>2020-08-08T13:54:39Z</time>
      </trkpt>
      <trkpt lat="45.61131" lon="6.83406">
        <ele>867.2</ele>
        <time>2020-08-08T13:54:40Z</time>
      </trkpt>
      <trkpt lat="45.61139" lon="6.83383">
        <ele>866.9</ele>
        <time>2020-08-08T13:54:42Z</time>
      </trkpt>
      <trkpt lat="45.61147" lon="6.83359">
        <ele>866.5</ele>
        <time>2020-08-08T13:54:44Z</time>
      </trkpt>
      <trkpt lat="45.61151" lon="6.83346">
        <ele>866.4</ele>
        <time>2020-08-08T13:54:45Z</time>
      </trkpt>
      <trkpt lat="45.61159" lon="6.83323">
        <ele>866.2</ele>
        <time>2020-08-08T13:54:47Z</time>
      </trkpt>
      <trkpt lat="45.61166" lon="6.833">
        <ele>865.9</ele>
        <time>2020-08-08T13:54:49Z</time>
      </trkpt>
      <trkpt lat="45.61173" lon="6.83277">
        <ele>865.6</ele>
        <time>2020-08-08T13:54:51Z</time>
      </trkpt>
      <trkpt lat="45.61177" lon="6.83265">
        <ele>865.5</ele>
        <time>2020-08-08T13:54:52Z</time>
      </trkpt>
      <trkpt lat="45.61181" lon="6.83253">
        <ele>865.4</ele>
        <time>2020-08-08T13:54:53Z</time>
      </trkpt>
      <trkpt lat="45.61187" lon="6.83231">
        <ele>865.3</ele>
        <time>2020-08-08T13:54:55Z</time>
      </trkpt>
      <trkpt lat="45.61191" lon="6.83219">
        <ele>865.4</ele>
        <time>2020-08-08T13:54:56Z</time>
      </trkpt>
      <trkpt lat="45.61198" lon="6.83197">
        <ele>865.3</ele>
        <time>2020-08-08T13:54:58Z</time>
      </trkpt>
      <trkpt lat="45.61204" lon="6.83175">
        <ele>865.2</ele>
        <time>2020-08-08T13:55:00Z</time>
      </trkpt>
      <trkpt lat="45.61211" lon="6.83153">
        <ele>865</ele>
        <time>2020-08-08T13:55:02Z</time>
      </trkpt>
      <trkpt lat="45.61214" lon="6.83143">
        <ele>864.9</ele>
        <time>2020-08-08T13:55:03Z</time>
      </trkpt>
      <trkpt lat="45.6122" lon="6.83122">
        <ele>864.8</ele>
        <time>2020-08-08T13:55:05Z</time>
      </trkpt>
      <trkpt lat="45.61226" lon="6.83101">
        <ele>864.7</ele>
        <time>2020-08-08T13:55:07Z</time>
      </trkpt>
      <trkpt lat="45.61229" lon="6.83091">
        <ele>864.6</ele>
        <time>2020-08-08T13:55:08Z</time>
      </trkpt>
      <trkpt lat="45.61232" lon="6.83081">
        <ele>864.5</ele>
        <time>2020-08-08T13:55:09Z</time>
      </trkpt>
      <trkpt lat="45.61239" lon="6.83061">
        <ele>864.3</ele>
        <time>2020-08-08T13:55:11Z</time>
      </trkpt>
      <trkpt lat="45.61245" lon="6.83041">
        <ele>864.2</ele>
        <time>2020-08-08T13:55:13Z</time>
      </trkpt>
      <trkpt lat="45.61248" lon="6.8303">
        <ele>864.1</ele>
        <time>2020-08-08T13:55:14Z</time>
      </trkpt>
      <trkpt lat="45.61253" lon="6.83009">
        <ele>863.8</ele>
        <time>2020-08-08T13:55:16Z</time>
      </trkpt>
      <trkpt lat="45.61256" lon="6.82998">
        <ele>863.7</ele>
        <time>2020-08-08T13:55:17Z</time>
      </trkpt>
      <trkpt lat="45.61261" lon="6.82975">
        <ele>863.5</ele>
        <time>2020-08-08T13:55:19Z</time>
      </trkpt>
      <trkpt lat="45.61264" lon="6.82963">
        <ele>863.3</ele>
        <time>2020-08-08T13:55:20Z</time>
      </trkpt>
      <trkpt lat="45.61267" lon="6.82951">
        <ele>863.2</ele>
        <time>2020-08-08T13:55:21Z</time>
      </trkpt>
      <trkpt lat="45.61272" lon="6.82929">
        <ele>862.9</ele>
        <time>2020-08-08T13:55:23Z</time>
      </trkpt>
      <trkpt lat="45.61275" lon="6.82917">
        <ele>862.8</ele>
        <time>2020-08-08T13:55:24Z</time>
      </trkpt>
      <trkpt lat="45.61277" lon="6.82906">
        <ele>862.7</ele>
        <time>2020-08-08T13:55:25Z</time>
      </trkpt>
      <trkpt lat="45.61282" lon="6.82885">
        <ele>862.5</ele>
        <time>2020-08-08T13:55:27Z</time>
      </trkpt>
      <trkpt lat="45.61288" lon="6.82863">
        <ele>862.2</ele>
        <time>2020-08-08T13:55:29Z</time>
      </trkpt>
      <trkpt lat="45.6129" lon="6.82852">
        <ele>862.1</ele>
        <time>2020-08-08T13:55:30Z</time>
      </trkpt>
      <trkpt lat="45.61296" lon="6.82831">
        <ele>862.1</ele>
        <time>2020-08-08T13:55:32Z</time>
      </trkpt>
      <trkpt lat="45.61299" lon="6.82812">
        <ele>862.2</ele>
        <time>2020-08-08T13:55:34Z</time>
      </trkpt>
      <trkpt lat="45.61301" lon="6.82792">
        <ele>862</ele>
        <time>2020-08-08T13:55:36Z</time>
      </trkpt>
      <trkpt lat="45.61302" lon="6.82782">
        <ele>861.8</ele>
        <time>2020-08-08T13:55:37Z</time>
      </trkpt>
      <trkpt lat="45.61301" lon="6.82772">
        <ele>861.7</ele>
        <time>2020-08-08T13:55:38Z</time>
      </trkpt>
      <trkpt lat="45.61299" lon="6.82753">
        <ele>861.7</ele>
        <time>2020-08-08T13:55:40Z</time>
      </trkpt>
      <trkpt lat="45.61298" lon="6.82743">
        <ele>861.7</ele>
        <time>2020-08-08T13:55:41Z</time>
      </trkpt>
      <trkpt lat="45.61296" lon="6.82734">
        <ele>861.8</ele>
        <time>2020-08-08T13:55:42Z</time>
      </trkpt>
      <trkpt lat="45.61293" lon="6.82716">
        <ele>862</ele>
        <time>2020-08-08T13:55:44Z</time>
      </trkpt>
      <trkpt lat="45.6129" lon="6.82698">
        <ele>862.2</ele>
        <time>2020-08-08T13:55:46Z</time>
      </trkpt>
      <trkpt lat="45.61289" lon="6.82682">
        <ele>862.4</ele>
        <time>2020-08-08T13:55:48Z</time>
      </trkpt>
      <trkpt lat="45.61288" lon="6.82666">
        <ele>862.5</ele>
        <time>2020-08-08T13:55:50Z</time>
      </trkpt>
      <trkpt lat="45.61288" lon="6.82658">
        <ele>862.4</ele>
        <time>2020-08-08T13:55:51Z</time>
      </trkpt>
      <trkpt lat="45.61288" lon="6.8265">
        <ele>862.4</ele>
        <time>2020-08-08T13:55:52Z</time>
      </trkpt>
      <trkpt lat="45.61288" lon="6.82641">
        <ele>862.4</ele>
        <time>2020-08-08T13:55:53Z</time>
      </trkpt>
      <trkpt lat="45.61289" lon="6.82633">
        <ele>862.4</ele>
        <time>2020-08-08T13:55:54Z</time>
      </trkpt>
      <trkpt lat="45.61289" lon="6.82625">
        <ele>862.3</ele>
        <time>2020-08-08T13:55:55Z</time>
      </trkpt>
      <trkpt lat="45.61291" lon="6.82608">
        <ele>862.2</ele>
        <time>2020-08-08T13:55:57Z</time>
      </trkpt>
      <trkpt lat="45.61293" lon="6.82599">
        <ele>862.1</ele>
        <time>2020-08-08T13:55:58Z</time>
      </trkpt>
      <trkpt lat="45.61296" lon="6.82582">
        <ele>861.8</ele>
        <time>2020-08-08T13:56:00Z</time>
      </trkpt>
      <trkpt lat="45.613" lon="6.82563">
        <ele>861.3</ele>
        <time>2020-08-08T13:56:02Z</time>
      </trkpt>
      <trkpt lat="45.61306" lon="6.82545">
        <ele>860.9</ele>
        <time>2020-08-08T13:56:04Z</time>
      </trkpt>
      <trkpt lat="45.61308" lon="6.82535">
        <ele>860.6</ele>
        <time>2020-08-08T13:56:05Z</time>
      </trkpt>
      <trkpt lat="45.61314" lon="6.82516">
        <ele>860.2</ele>
        <time>2020-08-08T13:56:07Z</time>
      </trkpt>
      <trkpt lat="45.61317" lon="6.82506">
        <ele>859.9</ele>
        <time>2020-08-08T13:56:08Z</time>
      </trkpt>
      <trkpt lat="45.61324" lon="6.82485">
        <ele>859.4</ele>
        <time>2020-08-08T13:56:10Z</time>
      </trkpt>
      <trkpt lat="45.61332" lon="6.82464">
        <ele>858.8</ele>
        <time>2020-08-08T13:56:12Z</time>
      </trkpt>
      <trkpt lat="45.61336" lon="6.82452">
        <ele>858.5</ele>
        <time>2020-08-08T13:56:13Z</time>
      </trkpt>
      <trkpt lat="45.61345" lon="6.82431">
        <ele>857.8</ele>
        <time>2020-08-08T13:56:15Z</time>
      </trkpt>
      <trkpt lat="45.6135" lon="6.82421">
        <ele>857.4</ele>
        <time>2020-08-08T13:56:16Z</time>
      </trkpt>
      <trkpt lat="45.61362" lon="6.82401">
        <ele>856.6</ele>
        <time>2020-08-08T13:56:18Z</time>
      </trkpt>
      <trkpt lat="45.61374" lon="6.82383">
        <ele>855.8</ele>
        <time>2020-08-08T13:56:20Z</time>
      </trkpt>
      <trkpt lat="45.6138" lon="6.82374">
        <ele>855.4</ele>
        <time>2020-08-08T13:56:21Z</time>
      </trkpt>
      <trkpt lat="45.61386" lon="6.82366">
        <ele>855.1</ele>
        <time>2020-08-08T13:56:22Z</time>
      </trkpt>
      <trkpt lat="45.61399" lon="6.8235">
        <ele>854.3</ele>
        <time>2020-08-08T13:56:24Z</time>
      </trkpt>
      <trkpt lat="45.61413" lon="6.82334">
        <ele>853.7</ele>
        <time>2020-08-08T13:56:26Z</time>
      </trkpt>
      <trkpt lat="45.61427" lon="6.82317">
        <ele>853.2</ele>
        <time>2020-08-08T13:56:28Z</time>
      </trkpt>
      <trkpt lat="45.61434" lon="6.82308">
        <ele>853</ele>
        <time>2020-08-08T13:56:29Z</time>
      </trkpt>
      <trkpt lat="45.61447" lon="6.82292">
        <ele>852.7</ele>
        <time>2020-08-08T13:56:31Z</time>
      </trkpt>
      <trkpt lat="45.6146" lon="6.82276">
        <ele>852.6</ele>
        <time>2020-08-08T13:56:33Z</time>
      </trkpt>
      <trkpt lat="45.61466" lon="6.82268">
        <ele>852.7</ele>
        <time>2020-08-08T13:56:34Z</time>
      </trkpt>
      <trkpt lat="45.61479" lon="6.82253">
        <ele>852.6</ele>
        <time>2020-08-08T13:56:36Z</time>
      </trkpt>
      <trkpt lat="45.61485" lon="6.82245">
        <ele>852.6</ele>
        <time>2020-08-08T13:56:37Z</time>
      </trkpt>
      <trkpt lat="45.61498" lon="6.82229">
        <ele>852.7</ele>
        <time>2020-08-08T13:56:39Z</time>
      </trkpt>
      <trkpt lat="45.61504" lon="6.82221">
        <ele>852.7</ele>
        <time>2020-08-08T13:56:40Z</time>
      </trkpt>
      <trkpt lat="45.61516" lon="6.82205">
        <ele>852.8</ele>
        <time>2020-08-08T13:56:42Z</time>
      </trkpt>
      <trkpt lat="45.61527" lon="6.82188">
        <ele>852.9</ele>
        <time>2020-08-08T13:56:44Z</time>
      </trkpt>
      <trkpt lat="45.61537" lon="6.82169">
        <ele>853.3</ele>
        <time>2020-08-08T13:56:46Z</time>
      </trkpt>
      <trkpt lat="45.61542" lon="6.82159">
        <ele>853.5</ele>
        <time>2020-08-08T13:56:47Z</time>
      </trkpt>
      <trkpt lat="45.6155" lon="6.82139">
        <ele>853.6</ele>
        <time>2020-08-08T13:56:49Z</time>
      </trkpt>
      <trkpt lat="45.61554" lon="6.82128">
        <ele>853.8</ele>
        <time>2020-08-08T13:56:50Z</time>
      </trkpt>
      <trkpt lat="45.61561" lon="6.82107">
        <ele>853.3</ele>
        <time>2020-08-08T13:56:52Z</time>
      </trkpt>
      <trkpt lat="45.61568" lon="6.82086">
        <ele>852.9</ele>
        <time>2020-08-08T13:56:54Z</time>
      </trkpt>
      <trkpt lat="45.61574" lon="6.82065">
        <ele>852.9</ele>
        <time>2020-08-08T13:56:56Z</time>
      </trkpt>
      <trkpt lat="45.61581" lon="6.82045">
        <ele>853.1</ele>
        <time>2020-08-08T13:56:58Z</time>
      </trkpt>
      <trkpt lat="45.61588" lon="6.82025">
        <ele>853.2</ele>
        <time>2020-08-08T13:57:00Z</time>
      </trkpt>
      <trkpt lat="45.61595" lon="6.82006">
        <ele>853.4</ele>
        <time>2020-08-08T13:57:02Z</time>
      </trkpt>
      <trkpt lat="45.61598" lon="6.81997">
        <ele>853.6</ele>
        <time>2020-08-08T13:57:03Z</time>
      </trkpt>
      <trkpt lat="45.61604" lon="6.8198">
        <ele>853.9</ele>
        <time>2020-08-08T13:57:05Z</time>
      </trkpt>
      <trkpt lat="45.61609" lon="6.81962">
        <ele>854.2</ele>
        <time>2020-08-08T13:57:07Z</time>
      </trkpt>
      <trkpt lat="45.61615" lon="6.81945">
        <ele>854.6</ele>
        <time>2020-08-08T13:57:09Z</time>
      </trkpt>
      <trkpt lat="45.61618" lon="6.81936">
        <ele>854.8</ele>
        <time>2020-08-08T13:57:10Z</time>
      </trkpt>
      <trkpt lat="45.61623" lon="6.81919">
        <ele>855.1</ele>
        <time>2020-08-08T13:57:12Z</time>
      </trkpt>
      <trkpt lat="45.61627" lon="6.81911">
        <ele>855.2</ele>
        <time>2020-08-08T13:57:13Z</time>
      </trkpt>
      <trkpt lat="45.61633" lon="6.81894">
        <ele>855.6</ele>
        <time>2020-08-08T13:57:15Z</time>
      </trkpt>
      <trkpt lat="45.61638" lon="6.81878">
        <ele>855.9</ele>
        <time>2020-08-08T13:57:17Z</time>
      </trkpt>
      <trkpt lat="45.61641" lon="6.8187">
        <ele>856.1</ele>
        <time>2020-08-08T13:57:18Z</time>
      </trkpt>
      <trkpt lat="45.61647" lon="6.81853">
        <ele>856.5</ele>
        <time>2020-08-08T13:57:20Z</time>
      </trkpt>
      <trkpt lat="45.61649" lon="6.81846">
        <ele>856.7</ele>
        <time>2020-08-08T13:57:21Z</time>
      </trkpt>
      <trkpt lat="45.61651" lon="6.81838">
        <ele>856.9</ele>
        <time>2020-08-08T13:57:22Z</time>
      </trkpt>
      <trkpt lat="45.61656" lon="6.81824">
        <ele>857.3</ele>
        <time>2020-08-08T13:57:24Z</time>
      </trkpt>
      <trkpt lat="45.6166" lon="6.8181">
        <ele>857.7</ele>
        <time>2020-08-08T13:57:26Z</time>
      </trkpt>
      <trkpt lat="45.61663" lon="6.81803">
        <ele>857.8</ele>
        <time>2020-08-08T13:57:27Z</time>
      </trkpt>
      <trkpt lat="45.61667" lon="6.81789">
        <ele>858.3</ele>
        <time>2020-08-08T13:57:29Z</time>
      </trkpt>
      <trkpt lat="45.61669" lon="6.81783">
        <ele>858.5</ele>
        <time>2020-08-08T13:57:30Z</time>
      </trkpt>
      <trkpt lat="45.61671" lon="6.81776">
        <ele>858.6</ele>
        <time>2020-08-08T13:57:31Z</time>
      </trkpt>
      <trkpt lat="45.61675" lon="6.81765">
        <ele>858.9</ele>
        <time>2020-08-08T13:57:33Z</time>
      </trkpt>
      <trkpt lat="45.61677" lon="6.81758">
        <ele>859.1</ele>
        <time>2020-08-08T13:57:34Z</time>
      </trkpt>
      <trkpt lat="45.61681" lon="6.81746">
        <ele>859.5</ele>
        <time>2020-08-08T13:57:36Z</time>
      </trkpt>
      <trkpt lat="45.61685" lon="6.81734">
        <ele>859.8</ele>
        <time>2020-08-08T13:57:38Z</time>
      </trkpt>
      <trkpt lat="45.61687" lon="6.81728">
        <ele>860</ele>
        <time>2020-08-08T13:57:39Z</time>
      </trkpt>
      <trkpt lat="45.61689" lon="6.81722">
        <ele>860.2</ele>
        <time>2020-08-08T13:57:40Z</time>
      </trkpt>
      <trkpt lat="45.61691" lon="6.81716">
        <ele>860.3</ele>
        <time>2020-08-08T13:57:41Z</time>
      </trkpt>
      <trkpt lat="45.61694" lon="6.8171">
        <ele>860.5</ele>
        <time>2020-08-08T13:57:42Z</time>
      </trkpt>
      <trkpt lat="45.61697" lon="6.81698">
        <ele>860.9</ele>
        <time>2020-08-08T13:57:44Z</time>
      </trkpt>
      <trkpt lat="45.61698" lon="6.81694">
        <ele>861</ele>
        <time>2020-08-08T13:57:45Z</time>
      </trkpt>
      <trkpt lat="45.61701" lon="6.81681">
        <ele>861.3</ele>
        <time>2020-08-08T13:57:47Z</time>
      </trkpt>
      <trkpt lat="45.61702" lon="6.81675">
        <ele>861.5</ele>
        <time>2020-08-08T13:57:48Z</time>
      </trkpt>
      <trkpt lat="45.61704" lon="6.81664">
        <ele>861.8</ele>
        <time>2020-08-08T13:57:50Z</time>
      </trkpt>
      <trkpt lat="45.61705" lon="6.81655">
        <ele>862</ele>
        <time>2020-08-08T13:57:51Z</time>
      </trkpt>
      <trkpt lat="45.61704" lon="6.81655">
        <ele>862.1</ele>
        <time>2020-08-08T13:57:52Z</time>
      </trkpt>
      <trkpt lat="45.61706" lon="6.81647">
        <ele>862.3</ele>
        <time>2020-08-08T13:57:54Z</time>
      </trkpt>
      <trkpt lat="45.61709" lon="6.81634">
        <ele>862.6</ele>
        <time>2020-08-08T13:57:56Z</time>
      </trkpt>
      <trkpt lat="45.61711" lon="6.81618">
        <ele>863</ele>
        <time>2020-08-08T13:57:57Z</time>
      </trkpt>
      <trkpt lat="45.61711" lon="6.8161">
        <ele>863.2</ele>
        <time>2020-08-08T13:58:00Z</time>
      </trkpt>
      <trkpt lat="45.61712" lon="6.81593">
        <ele>863.6</ele>
        <time>2020-08-08T13:58:01Z</time>
      </trkpt>
      <trkpt lat="45.61713" lon="6.81586">
        <ele>863.8</ele>
        <time>2020-08-08T13:58:02Z</time>
      </trkpt>
      <trkpt lat="45.61714" lon="6.8158">
        <ele>864</ele>
        <time>2020-08-08T13:58:04Z</time>
      </trkpt>
      <trkpt lat="45.61714" lon="6.81574">
        <ele>864.2</ele>
        <time>2020-08-08T13:58:05Z</time>
      </trkpt>
      <trkpt lat="45.61715" lon="6.81568">
        <ele>864.4</ele>
        <time>2020-08-08T13:58:06Z</time>
      </trkpt>
      <trkpt lat="45.61715" lon="6.81561">
        <ele>864.5</ele>
        <time>2020-08-08T13:58:07Z</time>
      </trkpt>
      <trkpt lat="45.61715" lon="6.81555">
        <ele>864.7</ele>
        <time>2020-08-08T13:58:09Z</time>
      </trkpt>
      <trkpt lat="45.61716" lon="6.81533">
        <ele>865.3</ele>
        <time>2020-08-08T13:58:11Z</time>
      </trkpt>
      <trkpt lat="45.61717" lon="6.81525">
        <ele>865.5</ele>
        <time>2020-08-08T13:58:13Z</time>
      </trkpt>
      <trkpt lat="45.61717" lon="6.81516">
        <ele>865.7</ele>
        <time>2020-08-08T13:58:14Z</time>
      </trkpt>
      <trkpt lat="45.61717" lon="6.81506">
        <ele>865.9</ele>
        <time>2020-08-08T13:58:16Z</time>
      </trkpt>
      <trkpt lat="45.61718" lon="6.81499">
        <ele>866.1</ele>
        <time>2020-08-08T13:58:18Z</time>
      </trkpt>
      <trkpt lat="45.61718" lon="6.81493">
        <ele>866.3</ele>
        <time>2020-08-08T13:58:19Z</time>
      </trkpt>
      <trkpt lat="45.61719" lon="6.81477">
        <ele>866.8</ele>
        <time>2020-08-08T13:58:21Z</time>
      </trkpt>
      <trkpt lat="45.6172" lon="6.81463">
        <ele>867.2</ele>
        <time>2020-08-08T13:58:23Z</time>
      </trkpt>
      <trkpt lat="45.6172" lon="6.81456">
        <ele>867.4</ele>
        <time>2020-08-08T13:58:24Z</time>
      </trkpt>
      <trkpt lat="45.6172" lon="6.81449">
        <ele>867.6</ele>
        <time>2020-08-08T13:58:25Z</time>
      </trkpt>
      <trkpt lat="45.61721" lon="6.81436">
        <ele>868.1</ele>
        <time>2020-08-08T13:58:27Z</time>
      </trkpt>
      <trkpt lat="45.61721" lon="6.81422">
        <ele>868.6</ele>
        <time>2020-08-08T13:58:29Z</time>
      </trkpt>
      <trkpt lat="45.61722" lon="6.81408">
        <ele>869.1</ele>
        <time>2020-08-08T13:58:31Z</time>
      </trkpt>
      <trkpt lat="45.61724" lon="6.81395">
        <ele>869.6</ele>
        <time>2020-08-08T13:58:33Z</time>
      </trkpt>
      <trkpt lat="45.61724" lon="6.8139">
        <ele>869.8</ele>
        <time>2020-08-08T13:58:34Z</time>
      </trkpt>
      <trkpt lat="45.61726" lon="6.81377">
        <ele>870.2</ele>
        <time>2020-08-08T13:58:36Z</time>
      </trkpt>
      <trkpt lat="45.61727" lon="6.81364">
        <ele>870.7</ele>
        <time>2020-08-08T13:58:38Z</time>
      </trkpt>
      <trkpt lat="45.61728" lon="6.81351">
        <ele>871.1</ele>
        <time>2020-08-08T13:58:40Z</time>
      </trkpt>
      <trkpt lat="45.61728" lon="6.8134">
        <ele>871.5</ele>
        <time>2020-08-08T13:58:42Z</time>
      </trkpt>
      <trkpt lat="45.61729" lon="6.81333">
        <ele>871.7</ele>
        <time>2020-08-08T13:58:43Z</time>
      </trkpt>
      <trkpt lat="45.6173" lon="6.81318">
        <ele>872.2</ele>
        <time>2020-08-08T13:58:45Z</time>
      </trkpt>
      <trkpt lat="45.61731" lon="6.81305">
        <ele>872.6</ele>
        <time>2020-08-08T13:58:47Z</time>
      </trkpt>
      <trkpt lat="45.61732" lon="6.81298">
        <ele>872.8</ele>
        <time>2020-08-08T13:58:48Z</time>
      </trkpt>
      <trkpt lat="45.61733" lon="6.81284">
        <ele>873.2</ele>
        <time>2020-08-08T13:58:50Z</time>
      </trkpt>
      <trkpt lat="45.61734" lon="6.8127">
        <ele>873.4</ele>
        <time>2020-08-08T13:58:52Z</time>
      </trkpt>
      <trkpt lat="45.61734" lon="6.81256">
        <ele>873.6</ele>
        <time>2020-08-08T13:58:54Z</time>
      </trkpt>
      <trkpt lat="45.61735" lon="6.81249">
        <ele>873.7</ele>
        <time>2020-08-08T13:58:55Z</time>
      </trkpt>
      <trkpt lat="45.61736" lon="6.81235">
        <ele>873.9</ele>
        <time>2020-08-08T13:58:57Z</time>
      </trkpt>
      <trkpt lat="45.61737" lon="6.81228">
        <ele>874</ele>
        <time>2020-08-08T13:58:58Z</time>
      </trkpt>
      <trkpt lat="45.61738" lon="6.8122">
        <ele>874.2</ele>
        <time>2020-08-08T13:58:59Z</time>
      </trkpt>
      <trkpt lat="45.61739" lon="6.81213">
        <ele>874.3</ele>
        <time>2020-08-08T13:59:00Z</time>
      </trkpt>
      <trkpt lat="45.6174" lon="6.81198">
        <ele>874.5</ele>
        <time>2020-08-08T13:59:02Z</time>
      </trkpt>
      <trkpt lat="45.61741" lon="6.81191">
        <ele>874.6</ele>
        <time>2020-08-08T13:59:03Z</time>
      </trkpt>
      <trkpt lat="45.61743" lon="6.81176">
        <ele>874.8</ele>
        <time>2020-08-08T13:59:05Z</time>
      </trkpt>
      <trkpt lat="45.61745" lon="6.81161">
        <ele>875</ele>
        <time>2020-08-08T13:59:07Z</time>
      </trkpt>
      <trkpt lat="45.61746" lon="6.81152">
        <ele>875.1</ele>
        <time>2020-08-08T13:59:08Z</time>
      </trkpt>
      <trkpt lat="45.61749" lon="6.81136">
        <ele>875.3</ele>
        <time>2020-08-08T13:59:10Z</time>
      </trkpt>
      <trkpt lat="45.61752" lon="6.8112">
        <ele>875.5</ele>
        <time>2020-08-08T13:59:12Z</time>
      </trkpt>
      <trkpt lat="45.61754" lon="6.81104">
        <ele>875.7</ele>
        <time>2020-08-08T13:59:14Z</time>
      </trkpt>
      <trkpt lat="45.61756" lon="6.81096">
        <ele>875.8</ele>
        <time>2020-08-08T13:59:15Z</time>
      </trkpt>
      <trkpt lat="45.61757" lon="6.81088">
        <ele>875.9</ele>
        <time>2020-08-08T13:59:16Z</time>
      </trkpt>
      <trkpt lat="45.61759" lon="6.81072">
        <ele>876.1</ele>
        <time>2020-08-08T13:59:18Z</time>
      </trkpt>
      <trkpt lat="45.6176" lon="6.81064">
        <ele>876.2</ele>
        <time>2020-08-08T13:59:19Z</time>
      </trkpt>
      <trkpt lat="45.61763" lon="6.81048">
        <ele>876.5</ele>
        <time>2020-08-08T13:59:21Z</time>
      </trkpt>
      <trkpt lat="45.61764" lon="6.8104">
        <ele>876.6</ele>
        <time>2020-08-08T13:59:22Z</time>
      </trkpt>
      <trkpt lat="45.61766" lon="6.81023">
        <ele>877</ele>
        <time>2020-08-08T13:59:24Z</time>
      </trkpt>
      <trkpt lat="45.61769" lon="6.81007">
        <ele>877.3</ele>
        <time>2020-08-08T13:59:26Z</time>
      </trkpt>
      <trkpt lat="45.6177" lon="6.80999">
        <ele>877.4</ele>
        <time>2020-08-08T13:59:27Z</time>
      </trkpt>
      <trkpt lat="45.61773" lon="6.80983">
        <ele>877.6</ele>
        <time>2020-08-08T13:59:29Z</time>
      </trkpt>
      <trkpt lat="45.61775" lon="6.80966">
        <ele>877.9</ele>
        <time>2020-08-08T13:59:31Z</time>
      </trkpt>
      <trkpt lat="45.61776" lon="6.80958">
        <ele>878.1</ele>
        <time>2020-08-08T13:59:32Z</time>
      </trkpt>
      <trkpt lat="45.61779" lon="6.80942">
        <ele>878.4</ele>
        <time>2020-08-08T13:59:34Z</time>
      </trkpt>
      <trkpt lat="45.6178" lon="6.80933">
        <ele>878.5</ele>
        <time>2020-08-08T13:59:35Z</time>
      </trkpt>
      <trkpt lat="45.61782" lon="6.80916">
        <ele>878.8</ele>
        <time>2020-08-08T13:59:37Z</time>
      </trkpt>
      <trkpt lat="45.61784" lon="6.80907">
        <ele>879</ele>
        <time>2020-08-08T13:59:38Z</time>
      </trkpt>
      <trkpt lat="45.61786" lon="6.80891">
        <ele>879.3</ele>
        <time>2020-08-08T13:59:40Z</time>
      </trkpt>
      <trkpt lat="45.61787" lon="6.80882">
        <ele>879.3</ele>
        <time>2020-08-08T13:59:41Z</time>
      </trkpt>
      <trkpt lat="45.61788" lon="6.80873">
        <ele>879.3</ele>
        <time>2020-08-08T13:59:42Z</time>
      </trkpt>
      <trkpt lat="45.61791" lon="6.80856">
        <ele>879.4</ele>
        <time>2020-08-08T13:59:44Z</time>
      </trkpt>
      <trkpt lat="45.61794" lon="6.80839">
        <ele>879.7</ele>
        <time>2020-08-08T13:59:46Z</time>
      </trkpt>
      <trkpt lat="45.61798" lon="6.80824">
        <ele>880</ele>
        <time>2020-08-08T13:59:48Z</time>
      </trkpt>
      <trkpt lat="45.61803" lon="6.80809">
        <ele>880.3</ele>
        <time>2020-08-08T13:59:50Z</time>
      </trkpt>
      <trkpt lat="45.61808" lon="6.80795">
        <ele>880.6</ele>
        <time>2020-08-08T13:59:52Z</time>
      </trkpt>
      <trkpt lat="45.61814" lon="6.80781">
        <ele>880.8</ele>
        <time>2020-08-08T13:59:54Z</time>
      </trkpt>
      <trkpt lat="45.61817" lon="6.80774">
        <ele>880.8</ele>
        <time>2020-08-08T13:59:55Z</time>
      </trkpt>
      <trkpt lat="45.6182" lon="6.80767">
        <ele>880.9</ele>
        <time>2020-08-08T13:59:56Z</time>
      </trkpt>
      <trkpt lat="45.61823" lon="6.8076">
        <ele>880.9</ele>
        <time>2020-08-08T13:59:57Z</time>
      </trkpt>
      <trkpt lat="45.61829" lon="6.80746">
        <ele>881</ele>
        <time>2020-08-08T13:59:59Z</time>
      </trkpt>
      <trkpt lat="45.61834" lon="6.80732">
        <ele>881.1</ele>
        <time>2020-08-08T14:00:01Z</time>
      </trkpt>
      <trkpt lat="45.61837" lon="6.80725">
        <ele>881.2</ele>
        <time>2020-08-08T14:00:02Z</time>
      </trkpt>
      <trkpt lat="45.6184" lon="6.80718">
        <ele>881.3</ele>
        <time>2020-08-08T14:00:03Z</time>
      </trkpt>
      <trkpt lat="45.61846" lon="6.80704">
        <ele>881.6</ele>
        <time>2020-08-08T14:00:05Z</time>
      </trkpt>
      <trkpt lat="45.61852" lon="6.8069">
        <ele>881.8</ele>
        <time>2020-08-08T14:00:07Z</time>
      </trkpt>
      <trkpt lat="45.61855" lon="6.80682">
        <ele>881.9</ele>
        <time>2020-08-08T14:00:08Z</time>
      </trkpt>
      <trkpt lat="45.61858" lon="6.80675">
        <ele>882</ele>
        <time>2020-08-08T14:00:09Z</time>
      </trkpt>
      <trkpt lat="45.61864" lon="6.80661">
        <ele>882.2</ele>
        <time>2020-08-08T14:00:11Z</time>
      </trkpt>
      <trkpt lat="45.6187" lon="6.80647">
        <ele>882.4</ele>
        <time>2020-08-08T14:00:13Z</time>
      </trkpt>
      <trkpt lat="45.61873" lon="6.80639">
        <ele>882.6</ele>
        <time>2020-08-08T14:00:14Z</time>
      </trkpt>
      <trkpt lat="45.61876" lon="6.80632">
        <ele>882.7</ele>
        <time>2020-08-08T14:00:15Z</time>
      </trkpt>
      <trkpt lat="45.61882" lon="6.80618">
        <ele>883</ele>
        <time>2020-08-08T14:00:17Z</time>
      </trkpt>
      <trkpt lat="45.61888" lon="6.80604">
        <ele>883.2</ele>
        <time>2020-08-08T14:00:19Z</time>
      </trkpt>
      <trkpt lat="45.61894" lon="6.80589">
        <ele>883.5</ele>
        <time>2020-08-08T14:00:21Z</time>
      </trkpt>
      <trkpt lat="45.61901" lon="6.80575">
        <ele>883.7</ele>
        <time>2020-08-08T14:00:23Z</time>
      </trkpt>
      <trkpt lat="45.61906" lon="6.80561">
        <ele>884</ele>
        <time>2020-08-08T14:00:25Z</time>
      </trkpt>
      <trkpt lat="45.61913" lon="6.80546">
        <ele>884.2</ele>
        <time>2020-08-08T14:00:27Z</time>
      </trkpt>
      <trkpt lat="45.61919" lon="6.80532">
        <ele>884.4</ele>
        <time>2020-08-08T14:00:29Z</time>
      </trkpt>
      <trkpt lat="45.61922" lon="6.80524">
        <ele>884.6</ele>
        <time>2020-08-08T14:00:30Z</time>
      </trkpt>
      <trkpt lat="45.61925" lon="6.80517">
        <ele>884.8</ele>
        <time>2020-08-08T14:00:31Z</time>
      </trkpt>
      <trkpt lat="45.61931" lon="6.80504">
        <ele>885.2</ele>
        <time>2020-08-08T14:00:33Z</time>
      </trkpt>
      <trkpt lat="45.61937" lon="6.80489">
        <ele>885.5</ele>
        <time>2020-08-08T14:00:35Z</time>
      </trkpt>
      <trkpt lat="45.61943" lon="6.80476">
        <ele>885.9</ele>
        <time>2020-08-08T14:00:37Z</time>
      </trkpt>
      <trkpt lat="45.61946" lon="6.8047">
        <ele>886</ele>
        <time>2020-08-08T14:00:38Z</time>
      </trkpt>
      <trkpt lat="45.61949" lon="6.80463">
        <ele>886.2</ele>
        <time>2020-08-08T14:00:39Z</time>
      </trkpt>
      <trkpt lat="45.61955" lon="6.80449">
        <ele>886.6</ele>
        <time>2020-08-08T14:00:41Z</time>
      </trkpt>
      <trkpt lat="45.61961" lon="6.80435">
        <ele>887</ele>
        <time>2020-08-08T14:00:43Z</time>
      </trkpt>
      <trkpt lat="45.61964" lon="6.80428">
        <ele>887.2</ele>
        <time>2020-08-08T14:00:44Z</time>
      </trkpt>
      <trkpt lat="45.61967" lon="6.80421">
        <ele>887.4</ele>
        <time>2020-08-08T14:00:45Z</time>
      </trkpt>
      <trkpt lat="45.61973" lon="6.80407">
        <ele>887.8</ele>
        <time>2020-08-08T14:00:47Z</time>
      </trkpt>
      <trkpt lat="45.6198" lon="6.80394">
        <ele>888.2</ele>
        <time>2020-08-08T14:00:49Z</time>
      </trkpt>
      <trkpt lat="45.61986" lon="6.80381">
        <ele>888.5</ele>
        <time>2020-08-08T14:00:51Z</time>
      </trkpt>
      <trkpt lat="45.6199" lon="6.80375">
        <ele>888.7</ele>
        <time>2020-08-08T14:00:52Z</time>
      </trkpt>
      <trkpt lat="45.61997" lon="6.80363">
        <ele>889</ele>
        <time>2020-08-08T14:00:54Z</time>
      </trkpt>
      <trkpt lat="45.62" lon="6.80358">
        <ele>889.1</ele>
        <time>2020-08-08T14:00:55Z</time>
      </trkpt>
      <trkpt lat="45.62004" lon="6.80352">
        <ele>889.2</ele>
        <time>2020-08-08T14:00:56Z</time>
      </trkpt>
      <trkpt lat="45.62008" lon="6.80346">
        <ele>889.3</ele>
        <time>2020-08-08T14:00:57Z</time>
      </trkpt>
      <trkpt lat="45.62015" lon="6.80335">
        <ele>889.5</ele>
        <time>2020-08-08T14:00:59Z</time>
      </trkpt>
      <trkpt lat="45.62023" lon="6.80323">
        <ele>889.7</ele>
        <time>2020-08-08T14:01:01Z</time>
      </trkpt>
      <trkpt lat="45.62027" lon="6.80318">
        <ele>889.8</ele>
        <time>2020-08-08T14:01:02Z</time>
      </trkpt>
      <trkpt lat="45.62034" lon="6.80306">
        <ele>890.1</ele>
        <time>2020-08-08T14:01:04Z</time>
      </trkpt>
      <trkpt lat="45.62041" lon="6.80295">
        <ele>890.3</ele>
        <time>2020-08-08T14:01:06Z</time>
      </trkpt>
      <trkpt lat="45.62045" lon="6.80291">
        <ele>890.4</ele>
        <time>2020-08-08T14:01:07Z</time>
      </trkpt>
      <trkpt lat="45.62053" lon="6.80282">
        <ele>890.6</ele>
        <time>2020-08-08T14:01:09Z</time>
      </trkpt>
      <trkpt lat="45.62058" lon="6.80279">
        <ele>890.7</ele>
        <time>2020-08-08T14:01:10Z</time>
      </trkpt>
      <trkpt lat="45.62062" lon="6.80275">
        <ele>890.8</ele>
        <time>2020-08-08T14:01:11Z</time>
      </trkpt>
      <trkpt lat="45.62071" lon="6.80266">
        <ele>891</ele>
        <time>2020-08-08T14:01:13Z</time>
      </trkpt>
      <trkpt lat="45.62075" lon="6.80261">
        <ele>891.2</ele>
        <time>2020-08-08T14:01:14Z</time>
      </trkpt>
      <trkpt lat="45.62079" lon="6.80256">
        <ele>891.3</ele>
        <time>2020-08-08T14:01:15Z</time>
      </trkpt>
      <trkpt lat="45.62088" lon="6.80248">
        <ele>891.6</ele>
        <time>2020-08-08T14:01:17Z</time>
      </trkpt>
      <trkpt lat="45.62092" lon="6.80243">
        <ele>891.8</ele>
        <time>2020-08-08T14:01:18Z</time>
      </trkpt>
      <trkpt lat="45.62096" lon="6.80239">
        <ele>891.9</ele>
        <time>2020-08-08T14:01:19Z</time>
      </trkpt>
      <trkpt lat="45.62105" lon="6.80231">
        <ele>892.2</ele>
        <time>2020-08-08T14:01:21Z</time>
      </trkpt>
      <trkpt lat="45.62109" lon="6.80227">
        <ele>892.3</ele>
        <time>2020-08-08T14:01:22Z</time>
      </trkpt>
      <trkpt lat="45.62113" lon="6.80223">
        <ele>892.4</ele>
        <time>2020-08-08T14:01:23Z</time>
      </trkpt>
      <trkpt lat="45.62121" lon="6.80215">
        <ele>892.7</ele>
        <time>2020-08-08T14:01:25Z</time>
      </trkpt>
      <trkpt lat="45.62131" lon="6.80207">
        <ele>893</ele>
        <time>2020-08-08T14:01:27Z</time>
      </trkpt>
      <trkpt lat="45.62135" lon="6.80204">
        <ele>893.2</ele>
        <time>2020-08-08T14:01:28Z</time>
      </trkpt>
      <trkpt lat="45.62143" lon="6.80196">
        <ele>893.4</ele>
        <time>2020-08-08T14:01:30Z</time>
      </trkpt>
      <trkpt lat="45.62151" lon="6.80189">
        <ele>893.5</ele>
        <time>2020-08-08T14:01:32Z</time>
      </trkpt>
      <trkpt lat="45.62154" lon="6.80185">
        <ele>893.7</ele>
        <time>2020-08-08T14:01:33Z</time>
      </trkpt>
      <trkpt lat="45.62158" lon="6.80182">
        <ele>893.8</ele>
        <time>2020-08-08T14:01:34Z</time>
      </trkpt>
      <trkpt lat="45.62161" lon="6.8018">
        <ele>893.9</ele>
        <time>2020-08-08T14:01:35Z</time>
      </trkpt>
      <trkpt lat="45.6217" lon="6.80174">
        <ele>894.1</ele>
        <time>2020-08-08T14:01:37Z</time>
      </trkpt>
      <trkpt lat="45.62177" lon="6.80175">
        <ele>895.9</ele>
        <time>2020-08-08T14:01:39Z</time>
      </trkpt>
      <trkpt lat="45.62182" lon="6.80175">
        <ele>896</ele>
        <time>2020-08-08T14:01:40Z</time>
      </trkpt>
      <trkpt lat="45.62189" lon="6.80169">
        <ele>896</ele>
        <time>2020-08-08T14:01:42Z</time>
      </trkpt>
      <trkpt lat="45.62195" lon="6.80166">
        <ele>896</ele>
        <time>2020-08-08T14:01:44Z</time>
      </trkpt>
      <trkpt lat="45.62196" lon="6.80163">
        <ele>896</ele>
        <time>2020-08-08T14:01:45Z</time>
      </trkpt>
      <trkpt lat="45.62195" lon="6.80151">
        <ele>895.2</ele>
        <time>2020-08-08T14:01:47Z</time>
      </trkpt>
      <trkpt lat="45.62194" lon="6.80146">
        <ele>895</ele>
        <time>2020-08-08T14:01:48Z</time>
      </trkpt>
      <trkpt lat="45.62195" lon="6.80139">
        <ele>894.8</ele>
        <time>2020-08-08T14:01:49Z</time>
      </trkpt>
      <trkpt lat="45.62197" lon="6.80128">
        <ele>894.5</ele>
        <time>2020-08-08T14:01:51Z</time>
      </trkpt>
      <trkpt lat="45.62199" lon="6.80122">
        <ele>894.3</ele>
        <time>2020-08-08T14:01:52Z</time>
      </trkpt>
      <trkpt lat="45.62201" lon="6.80113">
        <ele>894</ele>
        <time>2020-08-08T14:01:53Z</time>
      </trkpt>
      <trkpt lat="45.62202" lon="6.80106">
        <ele>893.9</ele>
        <time>2020-08-08T14:01:54Z</time>
      </trkpt>
      <trkpt lat="45.62206" lon="6.80098">
        <ele>893.8</ele>
        <time>2020-08-08T14:01:56Z</time>
      </trkpt>
      <trkpt lat="45.62206" lon="6.80093">
        <ele>893.7</ele>
        <time>2020-08-08T14:01:57Z</time>
      </trkpt>
      <trkpt lat="45.62207" lon="6.80087">
        <ele>893.6</ele>
        <time>2020-08-08T14:01:58Z</time>
      </trkpt>
      <trkpt lat="45.62208" lon="6.80085">
        <ele>893.6</ele>
        <time>2020-08-08T14:02:01Z</time>
      </trkpt>
      <trkpt lat="45.62208" lon="6.80083">
        <ele>893.6</ele>
        <time>2020-08-08T14:02:03Z</time>
      </trkpt>
      <trkpt lat="45.62208" lon="6.80083">
        <ele>893.6</ele>
        <time>2020-08-08T14:02:05Z</time>
      </trkpt>
      <trkpt lat="45.62208" lon="6.80082">
        <ele>893.6</ele>
        <time>2020-08-08T14:02:08Z</time>
      </trkpt>
      <trkpt lat="45.62208" lon="6.80082">
        <ele>893.6</ele>
        <time>2020-08-08T14:02:09Z</time>
      </trkpt>
      <trkpt lat="45.62208" lon="6.80082">
        <ele>893.6</ele>
        <time>2020-08-08T14:02:11Z</time>
      </trkpt>
      <trkpt lat="45.62208" lon="6.80082">
        <ele>893.6</ele>
        <time>2020-08-08T14:02:13Z</time>
      </trkpt>
      <trkpt lat="45.62215" lon="6.80082">
        <ele>893.4</ele>
        <time>2020-08-08T14:05:56Z</time>
      </trkpt>
      <trkpt lat="45.62213" lon="6.80087">
        <ele>893.4</ele>
        <time>2020-08-08T14:05:58Z</time>
      </trkpt>
      <trkpt lat="45.62216" lon="6.80086">
        <ele>893.3</ele>
        <time>2020-08-08T14:06:00Z</time>
      </trkpt>
      <trkpt lat="45.62219" lon="6.80082">
        <ele>893.2</ele>
        <time>2020-08-08T14:06:01Z</time>
      </trkpt>
      <trkpt lat="45.62223" lon="6.80074">
        <ele>893.1</ele>
        <time>2020-08-08T14:06:03Z</time>
      </trkpt>
      <trkpt lat="45.62226" lon="6.80068">
        <ele>893</ele>
        <time>2020-08-08T14:06:05Z</time>
      </trkpt>
      <trkpt lat="45.62228" lon="6.80064">
        <ele>893</ele>
        <time>2020-08-08T14:06:06Z</time>
      </trkpt>
      <trkpt lat="45.62233" lon="6.80055">
        <ele>892.9</ele>
        <time>2020-08-08T14:06:07Z</time>
      </trkpt>
      <trkpt lat="45.62239" lon="6.80045">
        <ele>892.7</ele>
        <time>2020-08-08T14:06:09Z</time>
      </trkpt>
      <trkpt lat="45.62243" lon="6.80039">
        <ele>892.6</ele>
        <time>2020-08-08T14:06:12Z</time>
      </trkpt>
      <trkpt lat="45.62246" lon="6.80033">
        <ele>892.5</ele>
        <time>2020-08-08T14:06:14Z</time>
      </trkpt>
      <trkpt lat="45.62248" lon="6.80029">
        <ele>892.4</ele>
        <time>2020-08-08T14:06:16Z</time>
      </trkpt>
      <trkpt lat="45.62249" lon="6.80026">
        <ele>892.4</ele>
        <time>2020-08-08T14:06:18Z</time>
      </trkpt>
      <trkpt lat="45.62249" lon="6.80027">
        <ele>892.4</ele>
        <time>2020-08-08T14:06:19Z</time>
      </trkpt>
      <trkpt lat="45.62249" lon="6.80027">
        <ele>892.4</ele>
        <time>2020-08-08T14:06:21Z</time>
      </trkpt>
      <trkpt lat="45.62249" lon="6.80027">
        <ele>892.4</ele>
        <time>2020-08-08T14:06:22Z</time>
      </trkpt>
      <trkpt lat="45.62253" lon="6.80026">
        <ele>892.3</ele>
        <time>2020-08-08T14:06:24Z</time>
      </trkpt>
      <trkpt lat="45.62251" lon="6.80025">
        <ele>892.2</ele>
        <time>2020-08-08T14:06:27Z</time>
      </trkpt>
      <trkpt lat="45.62254" lon="6.80024">
        <ele>892.2</ele>
        <time>2020-08-08T14:06:28Z</time>
      </trkpt>
      <trkpt lat="45.62259" lon="6.80015">
        <ele>892</ele>
        <time>2020-08-08T14:06:29Z</time>
      </trkpt>
      <trkpt lat="45.62266" lon="6.80003">
        <ele>891.7</ele>
        <time>2020-08-08T14:06:30Z</time>
      </trkpt>
      <trkpt lat="45.62277" lon="6.79984">
        <ele>891.4</ele>
        <time>2020-08-08T14:06:32Z</time>
      </trkpt>
      <trkpt lat="45.62282" lon="6.79977">
        <ele>891.2</ele>
        <time>2020-08-08T14:06:33Z</time>
      </trkpt>
      <trkpt lat="45.62287" lon="6.7997">
        <ele>891</ele>
        <time>2020-08-08T14:06:34Z</time>
      </trkpt>
      <trkpt lat="45.62291" lon="6.79964">
        <ele>890.9</ele>
        <time>2020-08-08T14:06:35Z</time>
      </trkpt>
      <trkpt lat="45.62301" lon="6.79952">
        <ele>890.6</ele>
        <time>2020-08-08T14:06:37Z</time>
      </trkpt>
      <trkpt lat="45.62304" lon="6.79944">
        <ele>890.1</ele>
        <time>2020-08-08T14:06:38Z</time>
      </trkpt>
      <trkpt lat="45.62311" lon="6.79927">
        <ele>889.3</ele>
        <time>2020-08-08T14:06:40Z</time>
      </trkpt>
      <trkpt lat="45.62318" lon="6.79909">
        <ele>888.3</ele>
        <time>2020-08-08T14:06:42Z</time>
      </trkpt>
      <trkpt lat="45.62322" lon="6.799">
        <ele>887.9</ele>
        <time>2020-08-08T14:06:43Z</time>
      </trkpt>
      <trkpt lat="45.62329" lon="6.79882">
        <ele>886.9</ele>
        <time>2020-08-08T14:06:45Z</time>
      </trkpt>
      <trkpt lat="45.62339" lon="6.79864">
        <ele>886.1</ele>
        <time>2020-08-08T14:06:47Z</time>
      </trkpt>
      <trkpt lat="45.62343" lon="6.79855">
        <ele>885.8</ele>
        <time>2020-08-08T14:06:48Z</time>
      </trkpt>
      <trkpt lat="45.62352" lon="6.79838">
        <ele>885</ele>
        <time>2020-08-08T14:06:50Z</time>
      </trkpt>
      <trkpt lat="45.62357" lon="6.79829">
        <ele>884.5</ele>
        <time>2020-08-08T14:06:51Z</time>
      </trkpt>
      <trkpt lat="45.62361" lon="6.7982">
        <ele>884</ele>
        <time>2020-08-08T14:06:52Z</time>
      </trkpt>
      <trkpt lat="45.62365" lon="6.79812">
        <ele>883.5</ele>
        <time>2020-08-08T14:06:53Z</time>
      </trkpt>
      <trkpt lat="45.62373" lon="6.79794">
        <ele>882.5</ele>
        <time>2020-08-08T14:06:55Z</time>
      </trkpt>
      <trkpt lat="45.62382" lon="6.79776">
        <ele>881.2</ele>
        <time>2020-08-08T14:06:57Z</time>
      </trkpt>
      <trkpt lat="45.62386" lon="6.79766">
        <ele>880.5</ele>
        <time>2020-08-08T14:06:58Z</time>
      </trkpt>
      <trkpt lat="45.62391" lon="6.79756">
        <ele>880</ele>
        <time>2020-08-08T14:06:59Z</time>
      </trkpt>
      <trkpt lat="45.624" lon="6.79736">
        <ele>879.2</ele>
        <time>2020-08-08T14:07:01Z</time>
      </trkpt>
      <trkpt lat="45.62409" lon="6.79717">
        <ele>878.6</ele>
        <time>2020-08-08T14:07:03Z</time>
      </trkpt>
      <trkpt lat="45.62414" lon="6.79707">
        <ele>878.2</ele>
        <time>2020-08-08T14:07:04Z</time>
      </trkpt>
      <trkpt lat="45.62423" lon="6.79687">
        <ele>877.4</ele>
        <time>2020-08-08T14:07:06Z</time>
      </trkpt>
      <trkpt lat="45.62433" lon="6.79667">
        <ele>876.7</ele>
        <time>2020-08-08T14:07:08Z</time>
      </trkpt>
      <trkpt lat="45.62437" lon="6.79657">
        <ele>876.4</ele>
        <time>2020-08-08T14:07:09Z</time>
      </trkpt>
      <trkpt lat="45.62447" lon="6.79638">
        <ele>875.7</ele>
        <time>2020-08-08T14:07:11Z</time>
      </trkpt>
      <trkpt lat="45.62456" lon="6.79618">
        <ele>875</ele>
        <time>2020-08-08T14:07:13Z</time>
      </trkpt>
      <trkpt lat="45.62466" lon="6.79599">
        <ele>874.3</ele>
        <time>2020-08-08T14:07:15Z</time>
      </trkpt>
      <trkpt lat="45.62476" lon="6.79578">
        <ele>873.4</ele>
        <time>2020-08-08T14:07:17Z</time>
      </trkpt>
      <trkpt lat="45.62481" lon="6.79567">
        <ele>873</ele>
        <time>2020-08-08T14:07:18Z</time>
      </trkpt>
      <trkpt lat="45.62491" lon="6.79547">
        <ele>872.2</ele>
        <time>2020-08-08T14:07:20Z</time>
      </trkpt>
      <trkpt lat="45.62495" lon="6.79538">
        <ele>871.8</ele>
        <time>2020-08-08T14:07:21Z</time>
      </trkpt>
      <trkpt lat="45.625" lon="6.79529">
        <ele>871.5</ele>
        <time>2020-08-08T14:07:22Z</time>
      </trkpt>
      <trkpt lat="45.62509" lon="6.79509">
        <ele>870.7</ele>
        <time>2020-08-08T14:07:24Z</time>
      </trkpt>
      <trkpt lat="45.62519" lon="6.79491">
        <ele>870.2</ele>
        <time>2020-08-08T14:07:26Z</time>
      </trkpt>
      <trkpt lat="45.62524" lon="6.79483">
        <ele>870.1</ele>
        <time>2020-08-08T14:07:27Z</time>
      </trkpt>
      <trkpt lat="45.62529" lon="6.79477">
        <ele>870</ele>
        <time>2020-08-08T14:07:28Z</time>
      </trkpt>
      <trkpt lat="45.62534" lon="6.79473">
        <ele>870.1</ele>
        <time>2020-08-08T14:07:29Z</time>
      </trkpt>
      <trkpt lat="45.62544" lon="6.79464">
        <ele>870.2</ele>
        <time>2020-08-08T14:07:31Z</time>
      </trkpt>
      <trkpt lat="45.62545" lon="6.79448">
        <ele>869.7</ele>
        <time>2020-08-08T14:07:33Z</time>
      </trkpt>
      <trkpt lat="45.62541" lon="6.79441">
        <ele>869.5</ele>
        <time>2020-08-08T14:07:34Z</time>
      </trkpt>
      <trkpt lat="45.62534" lon="6.79438">
        <ele>869.4</ele>
        <time>2020-08-08T14:07:35Z</time>
      </trkpt>
      <trkpt lat="45.62521" lon="6.79444">
        <ele>869.4</ele>
        <time>2020-08-08T14:07:37Z</time>
      </trkpt>
      <trkpt lat="45.62515" lon="6.79447">
        <ele>869</ele>
        <time>2020-08-08T14:07:38Z</time>
      </trkpt>
      <trkpt lat="45.62503" lon="6.79451">
        <ele>867.9</ele>
        <time>2020-08-08T14:07:40Z</time>
      </trkpt>
      <trkpt lat="45.62487" lon="6.79454">
        <ele>866.7</ele>
        <time>2020-08-08T14:07:42Z</time>
      </trkpt>
      <trkpt lat="45.62471" lon="6.79457">
        <ele>865.7</ele>
        <time>2020-08-08T14:07:44Z</time>
      </trkpt>
      <trkpt lat="45.62463" lon="6.79459">
        <ele>865.2</ele>
        <time>2020-08-08T14:07:45Z</time>
      </trkpt>
      <trkpt lat="45.62445" lon="6.79462">
        <ele>864</ele>
        <time>2020-08-08T14:07:47Z</time>
      </trkpt>
      <trkpt lat="45.62435" lon="6.79464">
        <ele>863.5</ele>
        <time>2020-08-08T14:07:48Z</time>
      </trkpt>
      <trkpt lat="45.62425" lon="6.79466">
        <ele>862.9</ele>
        <time>2020-08-08T14:07:49Z</time>
      </trkpt>
      <trkpt lat="45.62405" lon="6.7947">
        <ele>861.6</ele>
        <time>2020-08-08T14:07:51Z</time>
      </trkpt>
      <trkpt lat="45.62395" lon="6.79472">
        <ele>860.9</ele>
        <time>2020-08-08T14:07:52Z</time>
      </trkpt>
      <trkpt lat="45.62373" lon="6.79476">
        <ele>859.5</ele>
        <time>2020-08-08T14:07:54Z</time>
      </trkpt>
      <trkpt lat="45.62362" lon="6.79478">
        <ele>858.8</ele>
        <time>2020-08-08T14:07:55Z</time>
      </trkpt>
      <trkpt lat="45.6234" lon="6.79482">
        <ele>857.5</ele>
        <time>2020-08-08T14:07:57Z</time>
      </trkpt>
      <trkpt lat="45.62328" lon="6.79484">
        <ele>856.8</ele>
        <time>2020-08-08T14:07:58Z</time>
      </trkpt>
      <trkpt lat="45.62316" lon="6.79486">
        <ele>856</ele>
        <time>2020-08-08T14:07:59Z</time>
      </trkpt>
      <trkpt lat="45.62304" lon="6.79489">
        <ele>855.2</ele>
        <time>2020-08-08T14:08:00Z</time>
      </trkpt>
      <trkpt lat="45.6228" lon="6.79494">
        <ele>853.5</ele>
        <time>2020-08-08T14:08:02Z</time>
      </trkpt>
      <trkpt lat="45.62255" lon="6.795">
        <ele>852</ele>
        <time>2020-08-08T14:08:04Z</time>
      </trkpt>
      <trkpt lat="45.62243" lon="6.79502">
        <ele>851.1</ele>
        <time>2020-08-08T14:08:05Z</time>
      </trkpt>
      <trkpt lat="45.62217" lon="6.79507">
        <ele>849.6</ele>
        <time>2020-08-08T14:08:07Z</time>
      </trkpt>
      <trkpt lat="45.62191" lon="6.79512">
        <ele>847.9</ele>
        <time>2020-08-08T14:08:09Z</time>
      </trkpt>
      <trkpt lat="45.62165" lon="6.79518">
        <ele>846.9</ele>
        <time>2020-08-08T14:08:11Z</time>
      </trkpt>
      <trkpt lat="45.62151" lon="6.79521">
        <ele>846.3</ele>
        <time>2020-08-08T14:08:12Z</time>
      </trkpt>
      <trkpt lat="45.62124" lon="6.79525">
        <ele>844.9</ele>
        <time>2020-08-08T14:08:14Z</time>
      </trkpt>
      <trkpt lat="45.62111" lon="6.79526">
        <ele>844.2</ele>
        <time>2020-08-08T14:08:15Z</time>
      </trkpt>
      <trkpt lat="45.6209" lon="6.7953">
        <ele>843.2</ele>
        <time>2020-08-08T14:08:17Z</time>
      </trkpt>
      <trkpt lat="45.6208" lon="6.79531">
        <ele>842.7</ele>
        <time>2020-08-08T14:08:18Z</time>
      </trkpt>
      <trkpt lat="45.62061" lon="6.79534">
        <ele>841.8</ele>
        <time>2020-08-08T14:08:20Z</time>
      </trkpt>
      <trkpt lat="45.62045" lon="6.79527">
        <ele>841</ele>
        <time>2020-08-08T14:08:22Z</time>
      </trkpt>
      <trkpt lat="45.62039" lon="6.79519">
        <ele>840.5</ele>
        <time>2020-08-08T14:08:23Z</time>
      </trkpt>
      <trkpt lat="45.62032" lon="6.79495">
        <ele>839.5</ele>
        <time>2020-08-08T14:08:25Z</time>
      </trkpt>
      <trkpt lat="45.62033" lon="6.79483">
        <ele>839</ele>
        <time>2020-08-08T14:08:26Z</time>
      </trkpt>
      <trkpt lat="45.62038" lon="6.79459">
        <ele>838</ele>
        <time>2020-08-08T14:08:28Z</time>
      </trkpt>
      <trkpt lat="45.62041" lon="6.79448">
        <ele>837.4</ele>
        <time>2020-08-08T14:08:29Z</time>
      </trkpt>
      <trkpt lat="45.62048" lon="6.79427">
        <ele>836.4</ele>
        <time>2020-08-08T14:08:31Z</time>
      </trkpt>
      <trkpt lat="45.62051" lon="6.79417">
        <ele>836</ele>
        <time>2020-08-08T14:08:32Z</time>
      </trkpt>
      <trkpt lat="45.62056" lon="6.79396">
        <ele>835</ele>
        <time>2020-08-08T14:08:34Z</time>
      </trkpt>
      <trkpt lat="45.62059" lon="6.79384">
        <ele>834.5</ele>
        <time>2020-08-08T14:08:35Z</time>
      </trkpt>
      <trkpt lat="45.62062" lon="6.79372">
        <ele>834</ele>
        <time>2020-08-08T14:08:36Z</time>
      </trkpt>
      <trkpt lat="45.62069" lon="6.79348">
        <ele>832.7</ele>
        <time>2020-08-08T14:08:38Z</time>
      </trkpt>
      <trkpt lat="45.62076" lon="6.79322">
        <ele>831.3</ele>
        <time>2020-08-08T14:08:40Z</time>
      </trkpt>
      <trkpt lat="45.6208" lon="6.79309">
        <ele>830.6</ele>
        <time>2020-08-08T14:08:41Z</time>
      </trkpt>
      <trkpt lat="45.62085" lon="6.79295">
        <ele>829.9</ele>
        <time>2020-08-08T14:08:42Z</time>
      </trkpt>
      <trkpt lat="45.62089" lon="6.79281">
        <ele>829.2</ele>
        <time>2020-08-08T14:08:43Z</time>
      </trkpt>
      <trkpt lat="45.62099" lon="6.79254">
        <ele>827.9</ele>
        <time>2020-08-08T14:08:45Z</time>
      </trkpt>
      <trkpt lat="45.62107" lon="6.79228">
        <ele>826.8</ele>
        <time>2020-08-08T14:08:47Z</time>
      </trkpt>
      <trkpt lat="45.6211" lon="6.79215">
        <ele>826.2</ele>
        <time>2020-08-08T14:08:48Z</time>
      </trkpt>
      <trkpt lat="45.62116" lon="6.79189">
        <ele>825</ele>
        <time>2020-08-08T14:08:50Z</time>
      </trkpt>
      <trkpt lat="45.62117" lon="6.79161">
        <ele>823.7</ele>
        <time>2020-08-08T14:08:52Z</time>
      </trkpt>
      <trkpt lat="45.62116" lon="6.79147">
        <ele>823</ele>
        <time>2020-08-08T14:08:53Z</time>
      </trkpt>
      <trkpt lat="45.62109" lon="6.79117">
        <ele>821.6</ele>
        <time>2020-08-08T14:08:55Z</time>
      </trkpt>
      <trkpt lat="45.621" lon="6.79088">
        <ele>820.2</ele>
        <time>2020-08-08T14:08:57Z</time>
      </trkpt>
      <trkpt lat="45.62095" lon="6.79073">
        <ele>819.6</ele>
        <time>2020-08-08T14:08:58Z</time>
      </trkpt>
      <trkpt lat="45.62085" lon="6.79042">
        <ele>818.3</ele>
        <time>2020-08-08T14:09:00Z</time>
      </trkpt>
      <trkpt lat="45.62079" lon="6.79027">
        <ele>817.7</ele>
        <time>2020-08-08T14:09:01Z</time>
      </trkpt>
      <trkpt lat="45.62071" lon="6.78999">
        <ele>816.5</ele>
        <time>2020-08-08T14:09:03Z</time>
      </trkpt>
      <trkpt lat="45.62066" lon="6.78986">
        <ele>815.9</ele>
        <time>2020-08-08T14:09:04Z</time>
      </trkpt>
      <trkpt lat="45.62057" lon="6.78964">
        <ele>815.2</ele>
        <time>2020-08-08T14:09:06Z</time>
      </trkpt>
      <trkpt lat="45.62053" lon="6.78954">
        <ele>814.9</ele>
        <time>2020-08-08T14:09:07Z</time>
      </trkpt>
      <trkpt lat="45.62047" lon="6.78937">
        <ele>814.7</ele>
        <time>2020-08-08T14:09:09Z</time>
      </trkpt>
      <trkpt lat="45.62041" lon="6.78923">
        <ele>814.4</ele>
        <time>2020-08-08T14:09:11Z</time>
      </trkpt>
      <trkpt lat="45.62039" lon="6.78907">
        <ele>814.4</ele>
        <time>2020-08-08T14:09:13Z</time>
      </trkpt>
      <trkpt lat="45.62041" lon="6.789">
        <ele>814.5</ele>
        <time>2020-08-08T14:09:14Z</time>
      </trkpt>
      <trkpt lat="45.6205" lon="6.7889">
        <ele>814.8</ele>
        <time>2020-08-08T14:09:16Z</time>
      </trkpt>
      <trkpt lat="45.62059" lon="6.78886">
        <ele>815.3</ele>
        <time>2020-08-08T14:09:18Z</time>
      </trkpt>
      <trkpt lat="45.62069" lon="6.78884">
        <ele>815.8</ele>
        <time>2020-08-08T14:09:20Z</time>
      </trkpt>
      <trkpt lat="45.62078" lon="6.7888">
        <ele>816.2</ele>
        <time>2020-08-08T14:09:22Z</time>
      </trkpt>
      <trkpt lat="45.62086" lon="6.78877">
        <ele>816.6</ele>
        <time>2020-08-08T14:09:24Z</time>
      </trkpt>
      <trkpt lat="45.62089" lon="6.78876">
        <ele>816.8</ele>
        <time>2020-08-08T14:09:25Z</time>
      </trkpt>
      <trkpt lat="45.62097" lon="6.78871">
        <ele>817.2</ele>
        <time>2020-08-08T14:09:27Z</time>
      </trkpt>
      <trkpt lat="45.62101" lon="6.78869">
        <ele>817.4</ele>
        <time>2020-08-08T14:09:28Z</time>
      </trkpt>
      <trkpt lat="45.62107" lon="6.7887">
        <ele>817.7</ele>
        <time>2020-08-08T14:09:30Z</time>
      </trkpt>
      <trkpt lat="45.6211" lon="6.78869">
        <ele>817.8</ele>
        <time>2020-08-08T14:09:32Z</time>
      </trkpt>
      <trkpt lat="45.6212" lon="6.78855">
        <ele>818.5</ele>
        <time>2020-08-08T14:09:34Z</time>
      </trkpt>
      <trkpt lat="45.62128" lon="6.78846">
        <ele>818.9</ele>
        <time>2020-08-08T14:09:36Z</time>
      </trkpt>
      <trkpt lat="45.62138" lon="6.78833">
        <ele>819.3</ele>
        <time>2020-08-08T14:09:38Z</time>
      </trkpt>
      <trkpt lat="45.62142" lon="6.78827">
        <ele>819.4</ele>
        <time>2020-08-08T14:09:39Z</time>
      </trkpt>
      <trkpt lat="45.62148" lon="6.78814">
        <ele>819.6</ele>
        <time>2020-08-08T14:09:41Z</time>
      </trkpt>
      <trkpt lat="45.6215" lon="6.78807">
        <ele>819.8</ele>
        <time>2020-08-08T14:09:42Z</time>
      </trkpt>
      <trkpt lat="45.62153" lon="6.78793">
        <ele>820.1</ele>
        <time>2020-08-08T14:09:44Z</time>
      </trkpt>
      <trkpt lat="45.62153" lon="6.78787">
        <ele>820.3</ele>
        <time>2020-08-08T14:09:45Z</time>
      </trkpt>
      <trkpt lat="45.62153" lon="6.78775">
        <ele>820.4</ele>
        <time>2020-08-08T14:09:47Z</time>
      </trkpt>
      <trkpt lat="45.62153" lon="6.78771">
        <ele>820.4</ele>
        <time>2020-08-08T14:09:48Z</time>
      </trkpt>
      <trkpt lat="45.62159" lon="6.78766">
        <ele>820.4</ele>
        <time>2020-08-08T14:09:50Z</time>
      </trkpt>
      <trkpt lat="45.62163" lon="6.78756">
        <ele>820.4</ele>
        <time>2020-08-08T14:09:51Z</time>
      </trkpt>
      <trkpt lat="45.62168" lon="6.78746">
        <ele>820.3</ele>
        <time>2020-08-08T14:09:54Z</time>
      </trkpt>
      <trkpt lat="45.62172" lon="6.7874">
        <ele>820.4</ele>
        <time>2020-08-08T14:09:55Z</time>
      </trkpt>
      <trkpt lat="45.62175" lon="6.78734">
        <ele>820.4</ele>
        <time>2020-08-08T14:09:56Z</time>
      </trkpt>
      <trkpt lat="45.62177" lon="6.78728">
        <ele>820.4</ele>
        <time>2020-08-08T14:09:57Z</time>
      </trkpt>
      <trkpt lat="45.6218" lon="6.78723">
        <ele>820.4</ele>
        <time>2020-08-08T14:09:58Z</time>
      </trkpt>
      <trkpt lat="45.62182" lon="6.78721">
        <ele>820.4</ele>
        <time>2020-08-08T14:09:59Z</time>
      </trkpt>
      <trkpt lat="45.62186" lon="6.78712">
        <ele>820.4</ele>
        <time>2020-08-08T14:10:01Z</time>
      </trkpt>
      <trkpt lat="45.62191" lon="6.78703">
        <ele>820.4</ele>
        <time>2020-08-08T14:10:03Z</time>
      </trkpt>
      <trkpt lat="45.62193" lon="6.78696">
        <ele>820.4</ele>
        <time>2020-08-08T14:10:04Z</time>
      </trkpt>
      <trkpt lat="45.62195" lon="6.78692">
        <ele>820.4</ele>
        <time>2020-08-08T14:10:05Z</time>
      </trkpt>
      <trkpt lat="45.62199" lon="6.78682">
        <ele>820.3</ele>
        <time>2020-08-08T14:10:07Z</time>
      </trkpt>
      <trkpt lat="45.62204" lon="6.78669">
        <ele>820.1</ele>
        <time>2020-08-08T14:10:09Z</time>
      </trkpt>
      <trkpt lat="45.62206" lon="6.7866">
        <ele>819.9</ele>
        <time>2020-08-08T14:10:11Z</time>
      </trkpt>
      <trkpt lat="45.62209" lon="6.7865">
        <ele>819.7</ele>
        <time>2020-08-08T14:10:13Z</time>
      </trkpt>
      <trkpt lat="45.62212" lon="6.78642">
        <ele>819.5</ele>
        <time>2020-08-08T14:10:14Z</time>
      </trkpt>
      <trkpt lat="45.62217" lon="6.78628">
        <ele>819.3</ele>
        <time>2020-08-08T14:10:16Z</time>
      </trkpt>
      <trkpt lat="45.62222" lon="6.78614">
        <ele>819.1</ele>
        <time>2020-08-08T14:10:18Z</time>
      </trkpt>
      <trkpt lat="45.62226" lon="6.78599">
        <ele>818.9</ele>
        <time>2020-08-08T14:10:20Z</time>
      </trkpt>
      <trkpt lat="45.62226" lon="6.78591">
        <ele>818.9</ele>
        <time>2020-08-08T14:10:21Z</time>
      </trkpt>
      <trkpt lat="45.62222" lon="6.78585">
        <ele>818.7</ele>
        <time>2020-08-08T14:10:22Z</time>
      </trkpt>
      <trkpt lat="45.62211" lon="6.7858">
        <ele>818.5</ele>
        <time>2020-08-08T14:10:24Z</time>
      </trkpt>
      <trkpt lat="45.62205" lon="6.7858">
        <ele>818.3</ele>
        <time>2020-08-08T14:10:25Z</time>
      </trkpt>
      <trkpt lat="45.62194" lon="6.78579">
        <ele>818</ele>
        <time>2020-08-08T14:10:27Z</time>
      </trkpt>
      <trkpt lat="45.62188" lon="6.78578">
        <ele>817.8</ele>
        <time>2020-08-08T14:10:28Z</time>
      </trkpt>
      <trkpt lat="45.62182" lon="6.78576">
        <ele>817.7</ele>
        <time>2020-08-08T14:10:29Z</time>
      </trkpt>
      <trkpt lat="45.6217" lon="6.78574">
        <ele>817.5</ele>
        <time>2020-08-08T14:10:31Z</time>
      </trkpt>
      <trkpt lat="45.62158" lon="6.78572">
        <ele>817.2</ele>
        <time>2020-08-08T14:10:33Z</time>
      </trkpt>
      <trkpt lat="45.62145" lon="6.78571">
        <ele>817</ele>
        <time>2020-08-08T14:10:35Z</time>
      </trkpt>
      <trkpt lat="45.62133" lon="6.78569">
        <ele>816.7</ele>
        <time>2020-08-08T14:10:37Z</time>
      </trkpt>
      <trkpt lat="45.6212" lon="6.78566">
        <ele>816.5</ele>
        <time>2020-08-08T14:10:39Z</time>
      </trkpt>
      <trkpt lat="45.62108" lon="6.78563">
        <ele>816.3</ele>
        <time>2020-08-08T14:10:41Z</time>
      </trkpt>
      <trkpt lat="45.62102" lon="6.78562">
        <ele>816.1</ele>
        <time>2020-08-08T14:10:42Z</time>
      </trkpt>
      <trkpt lat="45.62089" lon="6.7856">
        <ele>815.9</ele>
        <time>2020-08-08T14:10:44Z</time>
      </trkpt>
      <trkpt lat="45.62077" lon="6.78554">
        <ele>815.7</ele>
        <time>2020-08-08T14:10:46Z</time>
      </trkpt>
      <trkpt lat="45.62066" lon="6.78544">
        <ele>815.4</ele>
        <time>2020-08-08T14:10:48Z</time>
      </trkpt>
      <trkpt lat="45.62053" lon="6.7854">
        <ele>815.1</ele>
        <time>2020-08-08T14:10:50Z</time>
      </trkpt>
      <trkpt lat="45.62046" lon="6.78539">
        <ele>815</ele>
        <time>2020-08-08T14:10:51Z</time>
      </trkpt>
      <trkpt lat="45.62033" lon="6.78536">
        <ele>814.8</ele>
        <time>2020-08-08T14:10:53Z</time>
      </trkpt>
      <trkpt lat="45.62026" lon="6.78534">
        <ele>814.6</ele>
        <time>2020-08-08T14:10:54Z</time>
      </trkpt>
      <trkpt lat="45.62012" lon="6.78529">
        <ele>814.3</ele>
        <time>2020-08-08T14:10:56Z</time>
      </trkpt>
      <trkpt lat="45.61997" lon="6.78525">
        <ele>813.9</ele>
        <time>2020-08-08T14:10:58Z</time>
      </trkpt>
      <trkpt lat="45.61989" lon="6.78523">
        <ele>813.8</ele>
        <time>2020-08-08T14:10:59Z</time>
      </trkpt>
      <trkpt lat="45.61973" lon="6.78518">
        <ele>813.4</ele>
        <time>2020-08-08T14:11:01Z</time>
      </trkpt>
      <trkpt lat="45.61965" lon="6.78516">
        <ele>813.3</ele>
        <time>2020-08-08T14:11:02Z</time>
      </trkpt>
      <trkpt lat="45.61958" lon="6.78514">
        <ele>813.2</ele>
        <time>2020-08-08T14:11:03Z</time>
      </trkpt>
      <trkpt lat="45.6195" lon="6.78512">
        <ele>813.2</ele>
        <time>2020-08-08T14:11:04Z</time>
      </trkpt>
      <trkpt lat="45.61943" lon="6.78509">
        <ele>813.1</ele>
        <time>2020-08-08T14:11:05Z</time>
      </trkpt>
      <trkpt lat="45.61936" lon="6.78506">
        <ele>813.1</ele>
        <time>2020-08-08T14:11:06Z</time>
      </trkpt>
      <trkpt lat="45.61923" lon="6.785">
        <ele>813.1</ele>
        <time>2020-08-08T14:11:08Z</time>
      </trkpt>
      <trkpt lat="45.61912" lon="6.78496">
        <ele>813</ele>
        <time>2020-08-08T14:11:10Z</time>
      </trkpt>
      <trkpt lat="45.61907" lon="6.78494">
        <ele>813</ele>
        <time>2020-08-08T14:11:11Z</time>
      </trkpt>
      <trkpt lat="45.61897" lon="6.78489">
        <ele>813</ele>
        <time>2020-08-08T14:11:13Z</time>
      </trkpt>
      <trkpt lat="45.61892" lon="6.78487">
        <ele>813</ele>
        <time>2020-08-08T14:11:14Z</time>
      </trkpt>
      <trkpt lat="45.61887" lon="6.78486">
        <ele>813</ele>
        <time>2020-08-08T14:11:15Z</time>
      </trkpt>
      <trkpt lat="45.61877" lon="6.78482">
        <ele>812.9</ele>
        <time>2020-08-08T14:11:17Z</time>
      </trkpt>
      <trkpt lat="45.61871" lon="6.78478">
        <ele>812.9</ele>
        <time>2020-08-08T14:11:18Z</time>
      </trkpt>
      <trkpt lat="45.61867" lon="6.78472">
        <ele>812.9</ele>
        <time>2020-08-08T14:11:19Z</time>
      </trkpt>
      <trkpt lat="45.61858" lon="6.78456">
        <ele>812.7</ele>
        <time>2020-08-08T14:11:21Z</time>
      </trkpt>
      <trkpt lat="45.61855" lon="6.78448">
        <ele>812.7</ele>
        <time>2020-08-08T14:11:22Z</time>
      </trkpt>
      <trkpt lat="45.61847" lon="6.78433">
        <ele>812.4</ele>
        <time>2020-08-08T14:11:24Z</time>
      </trkpt>
      <trkpt lat="45.61838" lon="6.7842">
        <ele>812.2</ele>
        <time>2020-08-08T14:11:26Z</time>
      </trkpt>
      <trkpt lat="45.61834" lon="6.78415">
        <ele>812.1</ele>
        <time>2020-08-08T14:11:27Z</time>
      </trkpt>
      <trkpt lat="45.61822" lon="6.78409">
        <ele>811.8</ele>
        <time>2020-08-08T14:11:29Z</time>
      </trkpt>
      <trkpt lat="45.6181" lon="6.78402">
        <ele>811.6</ele>
        <time>2020-08-08T14:11:31Z</time>
      </trkpt>
      <trkpt lat="45.61803" lon="6.78397">
        <ele>811.5</ele>
        <time>2020-08-08T14:11:32Z</time>
      </trkpt>
      <trkpt lat="45.61797" lon="6.78393">
        <ele>811.3</ele>
        <time>2020-08-08T14:11:33Z</time>
      </trkpt>
      <trkpt lat="45.61786" lon="6.78385">
        <ele>811.1</ele>
        <time>2020-08-08T14:11:35Z</time>
      </trkpt>
      <trkpt lat="45.61781" lon="6.78381">
        <ele>810.9</ele>
        <time>2020-08-08T14:11:36Z</time>
      </trkpt>
      <trkpt lat="45.6177" lon="6.78373">
        <ele>810.6</ele>
        <time>2020-08-08T14:11:38Z</time>
      </trkpt>
      <trkpt lat="45.61758" lon="6.78367">
        <ele>810.4</ele>
        <time>2020-08-08T14:11:40Z</time>
      </trkpt>
      <trkpt lat="45.61747" lon="6.7836">
        <ele>810.1</ele>
        <time>2020-08-08T14:11:42Z</time>
      </trkpt>
      <trkpt lat="45.61743" lon="6.78354">
        <ele>809.9</ele>
        <time>2020-08-08T14:11:43Z</time>
      </trkpt>
      <trkpt lat="45.61739" lon="6.78346">
        <ele>809.8</ele>
        <time>2020-08-08T14:11:44Z</time>
      </trkpt>
      <trkpt lat="45.61733" lon="6.7833">
        <ele>809.6</ele>
        <time>2020-08-08T14:11:46Z</time>
      </trkpt>
      <trkpt lat="45.61731" lon="6.78321">
        <ele>809.6</ele>
        <time>2020-08-08T14:11:47Z</time>
      </trkpt>
      <trkpt lat="45.61728" lon="6.78302">
        <ele>809.5</ele>
        <time>2020-08-08T14:11:49Z</time>
      </trkpt>
      <trkpt lat="45.61725" lon="6.78285">
        <ele>809.5</ele>
        <time>2020-08-08T14:11:51Z</time>
      </trkpt>
      <trkpt lat="45.61723" lon="6.78276">
        <ele>809.5</ele>
        <time>2020-08-08T14:11:52Z</time>
      </trkpt>
      <trkpt lat="45.61718" lon="6.78259">
        <ele>809.5</ele>
        <time>2020-08-08T14:11:54Z</time>
      </trkpt>
      <trkpt lat="45.61714" lon="6.78244">
        <ele>809.4</ele>
        <time>2020-08-08T14:11:56Z</time>
      </trkpt>
      <trkpt lat="45.61711" lon="6.78228">
        <ele>809.4</ele>
        <time>2020-08-08T14:11:58Z</time>
      </trkpt>
      <trkpt lat="45.6171" lon="6.78219">
        <ele>809.4</ele>
        <time>2020-08-08T14:11:59Z</time>
      </trkpt>
      <trkpt lat="45.6171" lon="6.78201">
        <ele>809.4</ele>
        <time>2020-08-08T14:12:01Z</time>
      </trkpt>
      <trkpt lat="45.61709" lon="6.78183">
        <ele>809.4</ele>
        <time>2020-08-08T14:12:03Z</time>
      </trkpt>
      <trkpt lat="45.61708" lon="6.78165">
        <ele>809.4</ele>
        <time>2020-08-08T14:12:05Z</time>
      </trkpt>
      <trkpt lat="45.61707" lon="6.78147">
        <ele>809.4</ele>
        <time>2020-08-08T14:12:07Z</time>
      </trkpt>
      <trkpt lat="45.61706" lon="6.78129">
        <ele>809.4</ele>
        <time>2020-08-08T14:12:09Z</time>
      </trkpt>
      <trkpt lat="45.61706" lon="6.78121">
        <ele>809.4</ele>
        <time>2020-08-08T14:12:10Z</time>
      </trkpt>
      <trkpt lat="45.61705" lon="6.78104">
        <ele>809.5</ele>
        <time>2020-08-08T14:12:12Z</time>
      </trkpt>
      <trkpt lat="45.61704" lon="6.78087">
        <ele>809.5</ele>
        <time>2020-08-08T14:12:14Z</time>
      </trkpt>
      <trkpt lat="45.61704" lon="6.78072">
        <ele>809.6</ele>
        <time>2020-08-08T14:12:16Z</time>
      </trkpt>
      <trkpt lat="45.61706" lon="6.78064">
        <ele>809.6</ele>
        <time>2020-08-08T14:12:17Z</time>
      </trkpt>
      <trkpt lat="45.61709" lon="6.78058">
        <ele>809.6</ele>
        <time>2020-08-08T14:12:18Z</time>
      </trkpt>
      <trkpt lat="45.61719" lon="6.7805">
        <ele>809.7</ele>
        <time>2020-08-08T14:12:20Z</time>
      </trkpt>
      <trkpt lat="45.6173" lon="6.78042">
        <ele>809.7</ele>
        <time>2020-08-08T14:12:22Z</time>
      </trkpt>
      <trkpt lat="45.61741" lon="6.78035">
        <ele>809.7</ele>
        <time>2020-08-08T14:12:24Z</time>
      </trkpt>
      <trkpt lat="45.61751" lon="6.78027">
        <ele>809.8</ele>
        <time>2020-08-08T14:12:26Z</time>
      </trkpt>
      <trkpt lat="45.61756" lon="6.78023">
        <ele>809.8</ele>
        <time>2020-08-08T14:12:27Z</time>
      </trkpt>
      <trkpt lat="45.61766" lon="6.78015">
        <ele>809.7</ele>
        <time>2020-08-08T14:12:29Z</time>
      </trkpt>
      <trkpt lat="45.61776" lon="6.78008">
        <ele>809.7</ele>
        <time>2020-08-08T14:12:31Z</time>
      </trkpt>
      <trkpt lat="45.61781" lon="6.78004">
        <ele>809.7</ele>
        <time>2020-08-08T14:12:32Z</time>
      </trkpt>
      <trkpt lat="45.61786" lon="6.78">
        <ele>809.7</ele>
        <time>2020-08-08T14:12:33Z</time>
      </trkpt>
      <trkpt lat="45.61795" lon="6.77991">
        <ele>809.8</ele>
        <time>2020-08-08T14:12:35Z</time>
      </trkpt>
      <trkpt lat="45.618" lon="6.77986">
        <ele>809.8</ele>
        <time>2020-08-08T14:12:36Z</time>
      </trkpt>
      <trkpt lat="45.61807" lon="6.77973">
        <ele>809.8</ele>
        <time>2020-08-08T14:12:38Z</time>
      </trkpt>
      <trkpt lat="45.61809" lon="6.77965">
        <ele>809.8</ele>
        <time>2020-08-08T14:12:39Z</time>
      </trkpt>
      <trkpt lat="45.6181" lon="6.77948">
        <ele>809.8</ele>
        <time>2020-08-08T14:12:41Z</time>
      </trkpt>
      <trkpt lat="45.61811" lon="6.7794">
        <ele>809.8</ele>
        <time>2020-08-08T14:12:42Z</time>
      </trkpt>
      <trkpt lat="45.61812" lon="6.77932">
        <ele>809.8</ele>
        <time>2020-08-08T14:12:43Z</time>
      </trkpt>
      <trkpt lat="45.61813" lon="6.77923">
        <ele>809.8</ele>
        <time>2020-08-08T14:12:44Z</time>
      </trkpt>
      <trkpt lat="45.61814" lon="6.77915">
        <ele>809.8</ele>
        <time>2020-08-08T14:12:45Z</time>
      </trkpt>
      <trkpt lat="45.61816" lon="6.77899">
        <ele>809.8</ele>
        <time>2020-08-08T14:12:47Z</time>
      </trkpt>
      <trkpt lat="45.61819" lon="6.77883">
        <ele>809.8</ele>
        <time>2020-08-08T14:12:49Z</time>
      </trkpt>
      <trkpt lat="45.6182" lon="6.77874">
        <ele>809.8</ele>
        <time>2020-08-08T14:12:50Z</time>
      </trkpt>
      <trkpt lat="45.61821" lon="6.77857">
        <ele>809.8</ele>
        <time>2020-08-08T14:12:52Z</time>
      </trkpt>
      <trkpt lat="45.61823" lon="6.77841">
        <ele>809.8</ele>
        <time>2020-08-08T14:12:54Z</time>
      </trkpt>
      <trkpt lat="45.61825" lon="6.77826">
        <ele>809.7</ele>
        <time>2020-08-08T14:12:56Z</time>
      </trkpt>
      <trkpt lat="45.61826" lon="6.77817">
        <ele>809.7</ele>
        <time>2020-08-08T14:12:57Z</time>
      </trkpt>
      <trkpt lat="45.61829" lon="6.77801">
        <ele>809.6</ele>
        <time>2020-08-08T14:12:59Z</time>
      </trkpt>
      <trkpt lat="45.61831" lon="6.77785">
        <ele>809.6</ele>
        <time>2020-08-08T14:13:01Z</time>
      </trkpt>
      <trkpt lat="45.61832" lon="6.77777">
        <ele>809.5</ele>
        <time>2020-08-08T14:13:02Z</time>
      </trkpt>
      <trkpt lat="45.61834" lon="6.77759">
        <ele>809.6</ele>
        <time>2020-08-08T14:13:04Z</time>
      </trkpt>
      <trkpt lat="45.61835" lon="6.7775">
        <ele>809.6</ele>
        <time>2020-08-08T14:13:05Z</time>
      </trkpt>
      <trkpt lat="45.61836" lon="6.77742">
        <ele>809.6</ele>
        <time>2020-08-08T14:13:06Z</time>
      </trkpt>
      <trkpt lat="45.61838" lon="6.77726">
        <ele>809.7</ele>
        <time>2020-08-08T14:13:08Z</time>
      </trkpt>
      <trkpt lat="45.61839" lon="6.77718">
        <ele>809.7</ele>
        <time>2020-08-08T14:13:09Z</time>
      </trkpt>
      <trkpt lat="45.61841" lon="6.77703">
        <ele>809.7</ele>
        <time>2020-08-08T14:13:11Z</time>
      </trkpt>
      <trkpt lat="45.61843" lon="6.77695">
        <ele>809.7</ele>
        <time>2020-08-08T14:13:12Z</time>
      </trkpt>
      <trkpt lat="45.61845" lon="6.77678">
        <ele>809.6</ele>
        <time>2020-08-08T14:13:14Z</time>
      </trkpt>
      <trkpt lat="45.61848" lon="6.77659">
        <ele>809.5</ele>
        <time>2020-08-08T14:13:16Z</time>
      </trkpt>
      <trkpt lat="45.6185" lon="6.7764">
        <ele>809.3</ele>
        <time>2020-08-08T14:13:18Z</time>
      </trkpt>
      <trkpt lat="45.61851" lon="6.77631">
        <ele>809.2</ele>
        <time>2020-08-08T14:13:19Z</time>
      </trkpt>
      <trkpt lat="45.61854" lon="6.77613">
        <ele>809</ele>
        <time>2020-08-08T14:13:21Z</time>
      </trkpt>
      <trkpt lat="45.61856" lon="6.77604">
        <ele>809</ele>
        <time>2020-08-08T14:13:22Z</time>
      </trkpt>
      <trkpt lat="45.6186" lon="6.77587">
        <ele>809</ele>
        <time>2020-08-08T14:13:24Z</time>
      </trkpt>
      <trkpt lat="45.61864" lon="6.77579">
        <ele>809</ele>
        <time>2020-08-08T14:13:25Z</time>
      </trkpt>
      <trkpt lat="45.61871" lon="6.77564">
        <ele>809.1</ele>
        <time>2020-08-08T14:13:27Z</time>
      </trkpt>
      <trkpt lat="45.61878" lon="6.77551">
        <ele>809.1</ele>
        <time>2020-08-08T14:13:29Z</time>
      </trkpt>
      <trkpt lat="45.6188" lon="6.77544">
        <ele>809.1</ele>
        <time>2020-08-08T14:13:30Z</time>
      </trkpt>
      <trkpt lat="45.61877" lon="6.77528">
        <ele>809.1</ele>
        <time>2020-08-08T14:13:32Z</time>
      </trkpt>
      <trkpt lat="45.61873" lon="6.77519">
        <ele>809.1</ele>
        <time>2020-08-08T14:13:33Z</time>
      </trkpt>
      <trkpt lat="45.6187" lon="6.77511">
        <ele>809</ele>
        <time>2020-08-08T14:13:34Z</time>
      </trkpt>
      <trkpt lat="45.61867" lon="6.77502">
        <ele>809</ele>
        <time>2020-08-08T14:13:35Z</time>
      </trkpt>
      <trkpt lat="45.61862" lon="6.77485">
        <ele>808.9</ele>
        <time>2020-08-08T14:13:37Z</time>
      </trkpt>
      <trkpt lat="45.6186" lon="6.77476">
        <ele>808.9</ele>
        <time>2020-08-08T14:13:38Z</time>
      </trkpt>
      <trkpt lat="45.61856" lon="6.77459">
        <ele>808.9</ele>
        <time>2020-08-08T14:13:40Z</time>
      </trkpt>
      <trkpt lat="45.61852" lon="6.77443">
        <ele>809</ele>
        <time>2020-08-08T14:13:42Z</time>
      </trkpt>
      <trkpt lat="45.6185" lon="6.77435">
        <ele>808.9</ele>
        <time>2020-08-08T14:13:43Z</time>
      </trkpt>
      <trkpt lat="45.61846" lon="6.77418">
        <ele>808.9</ele>
        <time>2020-08-08T14:13:45Z</time>
      </trkpt>
      <trkpt lat="45.61842" lon="6.77403">
        <ele>808.8</ele>
        <time>2020-08-08T14:13:47Z</time>
      </trkpt>
      <trkpt lat="45.61838" lon="6.77387">
        <ele>808.8</ele>
        <time>2020-08-08T14:13:49Z</time>
      </trkpt>
      <trkpt lat="45.6183" lon="6.77378">
        <ele>808.7</ele>
        <time>2020-08-08T14:13:51Z</time>
      </trkpt>
      <trkpt lat="45.6182" lon="6.77384">
        <ele>808.7</ele>
        <time>2020-08-08T14:13:53Z</time>
      </trkpt>
      <trkpt lat="45.61811" lon="6.77394">
        <ele>808.6</ele>
        <time>2020-08-08T14:13:55Z</time>
      </trkpt>
      <trkpt lat="45.61799" lon="6.77403">
        <ele>808.6</ele>
        <time>2020-08-08T14:13:57Z</time>
      </trkpt>
      <trkpt lat="45.61793" lon="6.77407">
        <ele>808.7</ele>
        <time>2020-08-08T14:13:58Z</time>
      </trkpt>
      <trkpt lat="45.61787" lon="6.77412">
        <ele>808.7</ele>
        <time>2020-08-08T14:13:59Z</time>
      </trkpt>
      <trkpt lat="45.61781" lon="6.77417">
        <ele>808.7</ele>
        <time>2020-08-08T14:14:00Z</time>
      </trkpt>
      <trkpt lat="45.61768" lon="6.77428">
        <ele>808.6</ele>
        <time>2020-08-08T14:14:02Z</time>
      </trkpt>
      <trkpt lat="45.61757" lon="6.77438">
        <ele>808.6</ele>
        <time>2020-08-08T14:14:04Z</time>
      </trkpt>
      <trkpt lat="45.61751" lon="6.77443">
        <ele>808.6</ele>
        <time>2020-08-08T14:14:05Z</time>
      </trkpt>
      <trkpt lat="45.61739" lon="6.77449">
        <ele>808.7</ele>
        <time>2020-08-08T14:14:07Z</time>
      </trkpt>
      <trkpt lat="45.61733" lon="6.77451">
        <ele>808.8</ele>
        <time>2020-08-08T14:14:08Z</time>
      </trkpt>
      <trkpt lat="45.61721" lon="6.77453">
        <ele>808.8</ele>
        <time>2020-08-08T14:14:10Z</time>
      </trkpt>
      <trkpt lat="45.61715" lon="6.77454">
        <ele>808.7</ele>
        <time>2020-08-08T14:14:11Z</time>
      </trkpt>
      <trkpt lat="45.61702" lon="6.7746">
        <ele>808.6</ele>
        <time>2020-08-08T14:14:13Z</time>
      </trkpt>
      <trkpt lat="45.61696" lon="6.77464">
        <ele>808.5</ele>
        <time>2020-08-08T14:14:14Z</time>
      </trkpt>
      <trkpt lat="45.61685" lon="6.77472">
        <ele>808.4</ele>
        <time>2020-08-08T14:14:16Z</time>
      </trkpt>
      <trkpt lat="45.61674" lon="6.7748">
        <ele>808.3</ele>
        <time>2020-08-08T14:14:18Z</time>
      </trkpt>
      <trkpt lat="45.61668" lon="6.77484">
        <ele>808.3</ele>
        <time>2020-08-08T14:14:19Z</time>
      </trkpt>
      <trkpt lat="45.61656" lon="6.7749">
        <ele>808.4</ele>
        <time>2020-08-08T14:14:21Z</time>
      </trkpt>
      <trkpt lat="45.61649" lon="6.77494">
        <ele>808.5</ele>
        <time>2020-08-08T14:14:22Z</time>
      </trkpt>
      <trkpt lat="45.61637" lon="6.77498">
        <ele>808.7</ele>
        <time>2020-08-08T14:14:24Z</time>
      </trkpt>
      <trkpt lat="45.61625" lon="6.77499">
        <ele>808.9</ele>
        <time>2020-08-08T14:14:26Z</time>
      </trkpt>
      <trkpt lat="45.61618" lon="6.77499">
        <ele>809</ele>
        <time>2020-08-08T14:14:27Z</time>
      </trkpt>
      <trkpt lat="45.61607" lon="6.77498">
        <ele>809</ele>
        <time>2020-08-08T14:14:29Z</time>
      </trkpt>
      <trkpt lat="45.61595" lon="6.77497">
        <ele>808.9</ele>
        <time>2020-08-08T14:14:31Z</time>
      </trkpt>
      <trkpt lat="45.61588" lon="6.77497">
        <ele>808.8</ele>
        <time>2020-08-08T14:14:32Z</time>
      </trkpt>
      <trkpt lat="45.61576" lon="6.775">
        <ele>808.7</ele>
        <time>2020-08-08T14:14:34Z</time>
      </trkpt>
      <trkpt lat="45.61564" lon="6.77505">
        <ele>808.7</ele>
        <time>2020-08-08T14:14:36Z</time>
      </trkpt>
      <trkpt lat="45.61557" lon="6.77508">
        <ele>808.7</ele>
        <time>2020-08-08T14:14:37Z</time>
      </trkpt>
      <trkpt lat="45.61551" lon="6.77511">
        <ele>808.7</ele>
        <time>2020-08-08T14:14:38Z</time>
      </trkpt>
      <trkpt lat="45.6154" lon="6.77515">
        <ele>808.7</ele>
        <time>2020-08-08T14:14:40Z</time>
      </trkpt>
      <trkpt lat="45.61528" lon="6.77519">
        <ele>808.7</ele>
        <time>2020-08-08T14:14:42Z</time>
      </trkpt>
      <trkpt lat="45.61522" lon="6.77521">
        <ele>808.8</ele>
        <time>2020-08-08T14:14:43Z</time>
      </trkpt>
      <trkpt lat="45.61516" lon="6.77524">
        <ele>808.7</ele>
        <time>2020-08-08T14:14:44Z</time>
      </trkpt>
      <trkpt lat="45.61505" lon="6.77529">
        <ele>808.7</ele>
        <time>2020-08-08T14:14:46Z</time>
      </trkpt>
      <trkpt lat="45.61499" lon="6.77531">
        <ele>808.6</ele>
        <time>2020-08-08T14:14:47Z</time>
      </trkpt>
      <trkpt lat="45.61487" lon="6.77537">
        <ele>808.6</ele>
        <time>2020-08-08T14:14:49Z</time>
      </trkpt>
      <trkpt lat="45.61475" lon="6.77541">
        <ele>808.6</ele>
        <time>2020-08-08T14:14:51Z</time>
      </trkpt>
      <trkpt lat="45.61469" lon="6.77544">
        <ele>808.5</ele>
        <time>2020-08-08T14:14:52Z</time>
      </trkpt>
      <trkpt lat="45.61458" lon="6.77548">
        <ele>808.5</ele>
        <time>2020-08-08T14:14:54Z</time>
      </trkpt>
      <trkpt lat="45.61447" lon="6.77553">
        <ele>808.4</ele>
        <time>2020-08-08T14:14:56Z</time>
      </trkpt>
      <trkpt lat="45.61441" lon="6.77555">
        <ele>808.4</ele>
        <time>2020-08-08T14:14:57Z</time>
      </trkpt>
      <trkpt lat="45.61435" lon="6.77557">
        <ele>808.3</ele>
        <time>2020-08-08T14:14:58Z</time>
      </trkpt>
      <trkpt lat="45.61429" lon="6.77558">
        <ele>808.3</ele>
        <time>2020-08-08T14:14:59Z</time>
      </trkpt>
      <trkpt lat="45.61423" lon="6.7756">
        <ele>808.3</ele>
        <time>2020-08-08T14:15:00Z</time>
      </trkpt>
      <trkpt lat="45.61412" lon="6.77566">
        <ele>808.3</ele>
        <time>2020-08-08T14:15:02Z</time>
      </trkpt>
      <trkpt lat="45.61401" lon="6.77571">
        <ele>808.3</ele>
        <time>2020-08-08T14:15:04Z</time>
      </trkpt>
      <trkpt lat="45.61395" lon="6.77572">
        <ele>808.3</ele>
        <time>2020-08-08T14:15:05Z</time>
      </trkpt>
      <trkpt lat="45.61383" lon="6.77572">
        <ele>808.4</ele>
        <time>2020-08-08T14:15:07Z</time>
      </trkpt>
      <trkpt lat="45.61371" lon="6.7757">
        <ele>808.4</ele>
        <time>2020-08-08T14:15:09Z</time>
      </trkpt>
      <trkpt lat="45.61365" lon="6.77569">
        <ele>808.4</ele>
        <time>2020-08-08T14:15:10Z</time>
      </trkpt>
      <trkpt lat="45.6136" lon="6.77567">
        <ele>808.4</ele>
        <time>2020-08-08T14:15:11Z</time>
      </trkpt>
      <trkpt lat="45.61349" lon="6.77562">
        <ele>808.5</ele>
        <time>2020-08-08T14:15:13Z</time>
      </trkpt>
      <trkpt lat="45.61343" lon="6.7756">
        <ele>808.5</ele>
        <time>2020-08-08T14:15:14Z</time>
      </trkpt>
      <trkpt lat="45.61332" lon="6.77552">
        <ele>808.6</ele>
        <time>2020-08-08T14:15:16Z</time>
      </trkpt>
      <trkpt lat="45.61327" lon="6.77547">
        <ele>808.6</ele>
        <time>2020-08-08T14:15:17Z</time>
      </trkpt>
      <trkpt lat="45.61318" lon="6.77537">
        <ele>808.6</ele>
        <time>2020-08-08T14:15:19Z</time>
      </trkpt>
      <trkpt lat="45.61313" lon="6.77532">
        <ele>808.6</ele>
        <time>2020-08-08T14:15:20Z</time>
      </trkpt>
      <trkpt lat="45.61303" lon="6.77523">
        <ele>808.7</ele>
        <time>2020-08-08T14:15:22Z</time>
      </trkpt>
      <trkpt lat="45.61297" lon="6.77519">
        <ele>808.7</ele>
        <time>2020-08-08T14:15:23Z</time>
      </trkpt>
      <trkpt lat="45.61292" lon="6.77516">
        <ele>808.7</ele>
        <time>2020-08-08T14:15:24Z</time>
      </trkpt>
      <trkpt lat="45.61281" lon="6.77509">
        <ele>808.7</ele>
        <time>2020-08-08T14:15:26Z</time>
      </trkpt>
      <trkpt lat="45.61276" lon="6.77504">
        <ele>808.6</ele>
        <time>2020-08-08T14:15:27Z</time>
      </trkpt>
      <trkpt lat="45.61271" lon="6.77499">
        <ele>808.6</ele>
        <time>2020-08-08T14:15:28Z</time>
      </trkpt>
      <trkpt lat="45.61262" lon="6.77488">
        <ele>808.6</ele>
        <time>2020-08-08T14:15:30Z</time>
      </trkpt>
      <trkpt lat="45.61256" lon="6.77474">
        <ele>808.5</ele>
        <time>2020-08-08T14:15:32Z</time>
      </trkpt>
      <trkpt lat="45.61253" lon="6.77466">
        <ele>808.4</ele>
        <time>2020-08-08T14:15:33Z</time>
      </trkpt>
      <trkpt lat="45.61248" lon="6.77451">
        <ele>808.4</ele>
        <time>2020-08-08T14:15:35Z</time>
      </trkpt>
      <trkpt lat="45.61245" lon="6.77443">
        <ele>808.4</ele>
        <time>2020-08-08T14:15:36Z</time>
      </trkpt>
      <trkpt lat="45.61242" lon="6.77437">
        <ele>808.4</ele>
        <time>2020-08-08T14:15:37Z</time>
      </trkpt>
      <trkpt lat="45.61235" lon="6.77424">
        <ele>808.5</ele>
        <time>2020-08-08T14:15:39Z</time>
      </trkpt>
      <trkpt lat="45.61231" lon="6.77418">
        <ele>808.6</ele>
        <time>2020-08-08T14:15:40Z</time>
      </trkpt>
      <trkpt lat="45.61224" lon="6.77405">
        <ele>808.8</ele>
        <time>2020-08-08T14:15:42Z</time>
      </trkpt>
      <trkpt lat="45.6122" lon="6.77399">
        <ele>808.9</ele>
        <time>2020-08-08T14:15:43Z</time>
      </trkpt>
      <trkpt lat="45.61213" lon="6.77387">
        <ele>809</ele>
        <time>2020-08-08T14:15:45Z</time>
      </trkpt>
      <trkpt lat="45.61209" lon="6.77381">
        <ele>809.1</ele>
        <time>2020-08-08T14:15:46Z</time>
      </trkpt>
      <trkpt lat="45.61203" lon="6.77372">
        <ele>809.2</ele>
        <time>2020-08-08T14:15:48Z</time>
      </trkpt>
      <trkpt lat="45.612" lon="6.77369">
        <ele>809.2</ele>
        <time>2020-08-08T14:15:49Z</time>
      </trkpt>
      <trkpt lat="45.61195" lon="6.77363">
        <ele>809.3</ele>
        <time>2020-08-08T14:15:51Z</time>
      </trkpt>
      <trkpt lat="45.6119" lon="6.77359">
        <ele>809.4</ele>
        <time>2020-08-08T14:15:53Z</time>
      </trkpt>
      <trkpt lat="45.61185" lon="6.77359">
        <ele>809.5</ele>
        <time>2020-08-08T14:15:54Z</time>
      </trkpt>
      <trkpt lat="45.61177" lon="6.77355">
        <ele>809.6</ele>
        <time>2020-08-08T14:15:57Z</time>
      </trkpt>
      <trkpt lat="45.61174" lon="6.77354">
        <ele>809.6</ele>
        <time>2020-08-08T14:15:58Z</time>
      </trkpt>
      <trkpt lat="45.6117" lon="6.77353">
        <ele>809.7</ele>
        <time>2020-08-08T14:16:01Z</time>
      </trkpt>
      <trkpt lat="45.61167" lon="6.77349">
        <ele>809.7</ele>
        <time>2020-08-08T14:16:02Z</time>
      </trkpt>
      <trkpt lat="45.61166" lon="6.77341">
        <ele>809.7</ele>
        <time>2020-08-08T14:16:03Z</time>
      </trkpt>
      <trkpt lat="45.61166" lon="6.77327">
        <ele>809.7</ele>
        <time>2020-08-08T14:16:05Z</time>
      </trkpt>
      <trkpt lat="45.61161" lon="6.77313">
        <ele>809.7</ele>
        <time>2020-08-08T14:16:07Z</time>
      </trkpt>
      <trkpt lat="45.61153" lon="6.77303">
        <ele>809.9</ele>
        <time>2020-08-08T14:16:09Z</time>
      </trkpt>
      <trkpt lat="45.61149" lon="6.77299">
        <ele>810</ele>
        <time>2020-08-08T14:16:10Z</time>
      </trkpt>
      <trkpt lat="45.61145" lon="6.77294">
        <ele>810.1</ele>
        <time>2020-08-08T14:16:11Z</time>
      </trkpt>
      <trkpt lat="45.61136" lon="6.77284">
        <ele>810.2</ele>
        <time>2020-08-08T14:16:13Z</time>
      </trkpt>
      <trkpt lat="45.61132" lon="6.7728">
        <ele>810.2</ele>
        <time>2020-08-08T14:16:14Z</time>
      </trkpt>
      <trkpt lat="45.61128" lon="6.77275">
        <ele>810.3</ele>
        <time>2020-08-08T14:16:15Z</time>
      </trkpt>
      <trkpt lat="45.61123" lon="6.7727">
        <ele>810.3</ele>
        <time>2020-08-08T14:16:16Z</time>
      </trkpt>
      <trkpt lat="45.61119" lon="6.77265">
        <ele>810.3</ele>
        <time>2020-08-08T14:16:17Z</time>
      </trkpt>
      <trkpt lat="45.6111" lon="6.77256">
        <ele>810.3</ele>
        <time>2020-08-08T14:16:19Z</time>
      </trkpt>
      <trkpt lat="45.61105" lon="6.77252">
        <ele>810.3</ele>
        <time>2020-08-08T14:16:20Z</time>
      </trkpt>
      <trkpt lat="45.61094" lon="6.77245">
        <ele>810.3</ele>
        <time>2020-08-08T14:16:22Z</time>
      </trkpt>
      <trkpt lat="45.61084" lon="6.77238">
        <ele>810.2</ele>
        <time>2020-08-08T14:16:24Z</time>
      </trkpt>
      <trkpt lat="45.61079" lon="6.77235">
        <ele>810.2</ele>
        <time>2020-08-08T14:16:25Z</time>
      </trkpt>
      <trkpt lat="45.61073" lon="6.77231">
        <ele>810.1</ele>
        <time>2020-08-08T14:16:26Z</time>
      </trkpt>
      <trkpt lat="45.61062" lon="6.77223">
        <ele>810</ele>
        <time>2020-08-08T14:16:28Z</time>
      </trkpt>
      <trkpt lat="45.61051" lon="6.77216">
        <ele>809.9</ele>
        <time>2020-08-08T14:16:30Z</time>
      </trkpt>
      <trkpt lat="45.6104" lon="6.77209">
        <ele>809.7</ele>
        <time>2020-08-08T14:16:32Z</time>
      </trkpt>
      <trkpt lat="45.61028" lon="6.77203">
        <ele>809.6</ele>
        <time>2020-08-08T14:16:34Z</time>
      </trkpt>
      <trkpt lat="45.61022" lon="6.772">
        <ele>809.5</ele>
        <time>2020-08-08T14:16:35Z</time>
      </trkpt>
      <trkpt lat="45.6101" lon="6.77197">
        <ele>809.4</ele>
        <time>2020-08-08T14:16:37Z</time>
      </trkpt>
      <trkpt lat="45.60997" lon="6.77195">
        <ele>809.3</ele>
        <time>2020-08-08T14:16:39Z</time>
      </trkpt>
      <trkpt lat="45.60991" lon="6.77194">
        <ele>809.3</ele>
        <time>2020-08-08T14:16:40Z</time>
      </trkpt>
      <trkpt lat="45.60979" lon="6.7719">
        <ele>809.4</ele>
        <time>2020-08-08T14:16:42Z</time>
      </trkpt>
      <trkpt lat="45.60967" lon="6.77185">
        <ele>809.4</ele>
        <time>2020-08-08T14:16:44Z</time>
      </trkpt>
      <trkpt lat="45.6096" lon="6.77183">
        <ele>809.4</ele>
        <time>2020-08-08T14:16:45Z</time>
      </trkpt>
      <trkpt lat="45.60954" lon="6.77181">
        <ele>809.3</ele>
        <time>2020-08-08T14:16:46Z</time>
      </trkpt>
      <trkpt lat="45.60948" lon="6.77179">
        <ele>809.2</ele>
        <time>2020-08-08T14:16:47Z</time>
      </trkpt>
      <trkpt lat="45.60937" lon="6.77175">
        <ele>809</ele>
        <time>2020-08-08T14:16:49Z</time>
      </trkpt>
      <trkpt lat="45.60931" lon="6.77173">
        <ele>808.8</ele>
        <time>2020-08-08T14:16:50Z</time>
      </trkpt>
      <trkpt lat="45.60918" lon="6.77168">
        <ele>808.3</ele>
        <time>2020-08-08T14:16:52Z</time>
      </trkpt>
      <trkpt lat="45.60904" lon="6.77164">
        <ele>807.7</ele>
        <time>2020-08-08T14:16:54Z</time>
      </trkpt>
      <trkpt lat="45.60889" lon="6.77159">
        <ele>807.2</ele>
        <time>2020-08-08T14:16:56Z</time>
      </trkpt>
      <trkpt lat="45.60882" lon="6.77156">
        <ele>807</ele>
        <time>2020-08-08T14:16:57Z</time>
      </trkpt>
      <trkpt lat="45.60867" lon="6.77152">
        <ele>806.8</ele>
        <time>2020-08-08T14:16:59Z</time>
      </trkpt>
      <trkpt lat="45.6086" lon="6.77149">
        <ele>806.6</ele>
        <time>2020-08-08T14:17:00Z</time>
      </trkpt>
      <trkpt lat="45.60852" lon="6.77147">
        <ele>806.5</ele>
        <time>2020-08-08T14:17:01Z</time>
      </trkpt>
      <trkpt lat="45.60845" lon="6.77145">
        <ele>806.4</ele>
        <time>2020-08-08T14:17:02Z</time>
      </trkpt>
      <trkpt lat="45.60831" lon="6.77141">
        <ele>806.2</ele>
        <time>2020-08-08T14:17:04Z</time>
      </trkpt>
      <trkpt lat="45.60817" lon="6.77136">
        <ele>805.9</ele>
        <time>2020-08-08T14:17:06Z</time>
      </trkpt>
      <trkpt lat="45.6081" lon="6.77134">
        <ele>805.8</ele>
        <time>2020-08-08T14:17:07Z</time>
      </trkpt>
      <trkpt lat="45.60796" lon="6.77127">
        <ele>805.5</ele>
        <time>2020-08-08T14:17:09Z</time>
      </trkpt>
      <trkpt lat="45.60789" lon="6.77123">
        <ele>805.4</ele>
        <time>2020-08-08T14:17:10Z</time>
      </trkpt>
      <trkpt lat="45.60775" lon="6.77113">
        <ele>805.1</ele>
        <time>2020-08-08T14:17:12Z</time>
      </trkpt>
      <trkpt lat="45.60768" lon="6.77108">
        <ele>804.9</ele>
        <time>2020-08-08T14:17:13Z</time>
      </trkpt>
      <trkpt lat="45.60755" lon="6.77098">
        <ele>804.6</ele>
        <time>2020-08-08T14:17:15Z</time>
      </trkpt>
      <trkpt lat="45.60748" lon="6.77093">
        <ele>804.4</ele>
        <time>2020-08-08T14:17:16Z</time>
      </trkpt>
      <trkpt lat="45.60741" lon="6.77089">
        <ele>804.4</ele>
        <time>2020-08-08T14:17:17Z</time>
      </trkpt>
      <trkpt lat="45.60728" lon="6.77081">
        <ele>804.3</ele>
        <time>2020-08-08T14:17:19Z</time>
      </trkpt>
      <trkpt lat="45.60714" lon="6.77073">
        <ele>804.2</ele>
        <time>2020-08-08T14:17:21Z</time>
      </trkpt>
      <trkpt lat="45.60707" lon="6.7707">
        <ele>804.2</ele>
        <time>2020-08-08T14:17:22Z</time>
      </trkpt>
      <trkpt lat="45.60693" lon="6.77065">
        <ele>804.2</ele>
        <time>2020-08-08T14:17:24Z</time>
      </trkpt>
      <trkpt lat="45.6068" lon="6.7706">
        <ele>804</ele>
        <time>2020-08-08T14:17:26Z</time>
      </trkpt>
      <trkpt lat="45.60668" lon="6.77056">
        <ele>803.7</ele>
        <time>2020-08-08T14:17:28Z</time>
      </trkpt>
      <trkpt lat="45.60657" lon="6.77051">
        <ele>803.4</ele>
        <time>2020-08-08T14:17:30Z</time>
      </trkpt>
      <trkpt lat="45.60651" lon="6.77048">
        <ele>803.3</ele>
        <time>2020-08-08T14:17:31Z</time>
      </trkpt>
      <trkpt lat="45.60642" lon="6.77042">
        <ele>803</ele>
        <time>2020-08-08T14:17:33Z</time>
      </trkpt>
      <trkpt lat="45.60636" lon="6.77035">
        <ele>802.8</ele>
        <time>2020-08-08T14:17:35Z</time>
      </trkpt>
      <trkpt lat="45.60628" lon="6.77026">
        <ele>802.5</ele>
        <time>2020-08-08T14:17:37Z</time>
      </trkpt>
      <trkpt lat="45.60624" lon="6.7702">
        <ele>802.4</ele>
        <time>2020-08-08T14:17:38Z</time>
      </trkpt>
      <trkpt lat="45.60617" lon="6.77007">
        <ele>802</ele>
        <time>2020-08-08T14:17:40Z</time>
      </trkpt>
      <trkpt lat="45.60614" lon="6.77002">
        <ele>802</ele>
        <time>2020-08-08T14:17:41Z</time>
      </trkpt>
      <trkpt lat="45.60608" lon="6.76997">
        <ele>801.7</ele>
        <time>2020-08-08T14:17:43Z</time>
      </trkpt>
      <trkpt lat="45.60598" lon="6.76991">
        <ele>800.9</ele>
        <time>2020-08-08T14:17:45Z</time>
      </trkpt>
      <trkpt lat="45.60589" lon="6.76988">
        <ele>800.1</ele>
        <time>2020-08-08T14:17:48Z</time>
      </trkpt>
      <trkpt lat="45.60583" lon="6.76985">
        <ele>799.5</ele>
        <time>2020-08-08T14:17:49Z</time>
      </trkpt>
      <trkpt lat="45.60575" lon="6.76982">
        <ele>798.9</ele>
        <time>2020-08-08T14:17:50Z</time>
      </trkpt>
      <trkpt lat="45.60567" lon="6.76977">
        <ele>798.4</ele>
        <time>2020-08-08T14:17:51Z</time>
      </trkpt>
      <trkpt lat="45.60552" lon="6.76961">
        <ele>797.5</ele>
        <time>2020-08-08T14:17:53Z</time>
      </trkpt>
      <trkpt lat="45.6054" lon="6.76943">
        <ele>796.8</ele>
        <time>2020-08-08T14:17:55Z</time>
      </trkpt>
      <trkpt lat="45.60534" lon="6.76932">
        <ele>796.5</ele>
        <time>2020-08-08T14:17:56Z</time>
      </trkpt>
      <trkpt lat="45.6053" lon="6.76921">
        <ele>796.1</ele>
        <time>2020-08-08T14:17:57Z</time>
      </trkpt>
      <trkpt lat="45.60523" lon="6.76897">
        <ele>795.4</ele>
        <time>2020-08-08T14:17:59Z</time>
      </trkpt>
      <trkpt lat="45.60519" lon="6.76885">
        <ele>795.1</ele>
        <time>2020-08-08T14:18:00Z</time>
      </trkpt>
      <trkpt lat="45.60509" lon="6.76864">
        <ele>794.5</ele>
        <time>2020-08-08T14:18:02Z</time>
      </trkpt>
      <trkpt lat="45.60503" lon="6.76853">
        <ele>794.3</ele>
        <time>2020-08-08T14:18:03Z</time>
      </trkpt>
      <trkpt lat="45.6049" lon="6.76838">
        <ele>793.8</ele>
        <time>2020-08-08T14:18:05Z</time>
      </trkpt>
      <trkpt lat="45.60483" lon="6.76831">
        <ele>793.5</ele>
        <time>2020-08-08T14:18:06Z</time>
      </trkpt>
      <trkpt lat="45.60476" lon="6.76824">
        <ele>793.3</ele>
        <time>2020-08-08T14:18:07Z</time>
      </trkpt>
      <trkpt lat="45.60463" lon="6.76808">
        <ele>792.7</ele>
        <time>2020-08-08T14:18:09Z</time>
      </trkpt>
      <trkpt lat="45.60449" lon="6.76792">
        <ele>792.2</ele>
        <time>2020-08-08T14:18:11Z</time>
      </trkpt>
      <trkpt lat="45.60435" lon="6.76778">
        <ele>791.8</ele>
        <time>2020-08-08T14:18:13Z</time>
      </trkpt>
      <trkpt lat="45.60428" lon="6.76771">
        <ele>791.7</ele>
        <time>2020-08-08T14:18:14Z</time>
      </trkpt>
      <trkpt lat="45.60414" lon="6.76759">
        <ele>791.4</ele>
        <time>2020-08-08T14:18:16Z</time>
      </trkpt>
      <trkpt lat="45.604" lon="6.76746">
        <ele>791.3</ele>
        <time>2020-08-08T14:18:18Z</time>
      </trkpt>
      <trkpt lat="45.60393" lon="6.76739">
        <ele>791.5</ele>
        <time>2020-08-08T14:18:19Z</time>
      </trkpt>
      <trkpt lat="45.60383" lon="6.76722">
        <ele>792.2</ele>
        <time>2020-08-08T14:18:21Z</time>
      </trkpt>
      <trkpt lat="45.60378" lon="6.76704">
        <ele>792.9</ele>
        <time>2020-08-08T14:18:23Z</time>
      </trkpt>
      <trkpt lat="45.60375" lon="6.76696">
        <ele>793.2</ele>
        <time>2020-08-08T14:18:24Z</time>
      </trkpt>
      <trkpt lat="45.60369" lon="6.76683">
        <ele>793.2</ele>
        <time>2020-08-08T14:18:26Z</time>
      </trkpt>
      <trkpt lat="45.60365" lon="6.76677">
        <ele>793.1</ele>
        <time>2020-08-08T14:18:27Z</time>
      </trkpt>
      <trkpt lat="45.60361" lon="6.76672">
        <ele>792.9</ele>
        <time>2020-08-08T14:18:28Z</time>
      </trkpt>
      <trkpt lat="45.60352" lon="6.76661">
        <ele>792.4</ele>
        <time>2020-08-08T14:18:30Z</time>
      </trkpt>
      <trkpt lat="45.60348" lon="6.76654">
        <ele>792.1</ele>
        <time>2020-08-08T14:18:31Z</time>
      </trkpt>
      <trkpt lat="45.60343" lon="6.76648">
        <ele>791.7</ele>
        <time>2020-08-08T14:18:32Z</time>
      </trkpt>
      <trkpt lat="45.60332" lon="6.76635">
        <ele>790.9</ele>
        <time>2020-08-08T14:18:34Z</time>
      </trkpt>
      <trkpt lat="45.60327" lon="6.76629">
        <ele>790.5</ele>
        <time>2020-08-08T14:18:35Z</time>
      </trkpt>
      <trkpt lat="45.6032" lon="6.7662">
        <ele>790.1</ele>
        <time>2020-08-08T14:18:37Z</time>
      </trkpt>
      <trkpt lat="45.60317" lon="6.76617">
        <ele>790</ele>
        <time>2020-08-08T14:18:38Z</time>
      </trkpt>
      <trkpt lat="45.60313" lon="6.76614">
        <ele>789.8</ele>
        <time>2020-08-08T14:18:39Z</time>
      </trkpt>
      <trkpt lat="45.60309" lon="6.76613">
        <ele>787.6</ele>
        <time>2020-08-08T14:18:40Z</time>
      </trkpt>
      <trkpt lat="45.60302" lon="6.76618">
        <ele>787.6</ele>
        <time>2020-08-08T14:18:42Z</time>
      </trkpt>
      <trkpt lat="45.60296" lon="6.76627">
        <ele>787.5</ele>
        <time>2020-08-08T14:18:44Z</time>
      </trkpt>
      <trkpt lat="45.60294" lon="6.7663">
        <ele>787.5</ele>
        <time>2020-08-08T14:18:46Z</time>
      </trkpt>
      <trkpt lat="45.60292" lon="6.76636">
        <ele>787.4</ele>
        <time>2020-08-08T14:18:47Z</time>
      </trkpt>
      <trkpt lat="45.60289" lon="6.76643">
        <ele>787.4</ele>
        <time>2020-08-08T14:18:50Z</time>
      </trkpt>
      <trkpt lat="45.60286" lon="6.76649">
        <ele>787.3</ele>
        <time>2020-08-08T14:18:51Z</time>
      </trkpt>
      <trkpt lat="45.60282" lon="6.76658">
        <ele>787.3</ele>
        <time>2020-08-08T14:18:53Z</time>
      </trkpt>
      <trkpt lat="45.6028" lon="6.76662">
        <ele>787.3</ele>
        <time>2020-08-08T14:18:54Z</time>
      </trkpt>
      <trkpt lat="45.60278" lon="6.76666">
        <ele>787.3</ele>
        <time>2020-08-08T14:18:55Z</time>
      </trkpt>
      <trkpt lat="45.6027" lon="6.76679">
        <ele>787.4</ele>
        <time>2020-08-08T14:18:57Z</time>
      </trkpt>
      <trkpt lat="45.60266" lon="6.76686">
        <ele>787.6</ele>
        <time>2020-08-08T14:19:00Z</time>
      </trkpt>
      <trkpt lat="45.60263" lon="6.76688">
        <ele>787.6</ele>
        <time>2020-08-08T14:19:01Z</time>
      </trkpt>
      <trkpt lat="45.6026" lon="6.76688">
        <ele>787.7</ele>
        <time>2020-08-08T14:19:02Z</time>
      </trkpt>
      <trkpt lat="45.60255" lon="6.76687">
        <ele>787.8</ele>
        <time>2020-08-08T14:19:03Z</time>
      </trkpt>
      <trkpt lat="45.60246" lon="6.76685">
        <ele>787.9</ele>
        <time>2020-08-08T14:19:05Z</time>
      </trkpt>
      <trkpt lat="45.60237" lon="6.76682">
        <ele>788</ele>
        <time>2020-08-08T14:19:08Z</time>
      </trkpt>
      <trkpt lat="45.60232" lon="6.76679">
        <ele>788</ele>
        <time>2020-08-08T14:19:09Z</time>
      </trkpt>
      <trkpt lat="45.60222" lon="6.76675">
        <ele>788.1</ele>
        <time>2020-08-08T14:19:11Z</time>
      </trkpt>
      <trkpt lat="45.60214" lon="6.76671">
        <ele>788.2</ele>
        <time>2020-08-08T14:19:13Z</time>
      </trkpt>
      <trkpt lat="45.60209" lon="6.76669">
        <ele>788.2</ele>
        <time>2020-08-08T14:19:14Z</time>
      </trkpt>
      <trkpt lat="45.602" lon="6.76664">
        <ele>788.3</ele>
        <time>2020-08-08T14:19:16Z</time>
      </trkpt>
      <trkpt lat="45.60195" lon="6.76661">
        <ele>788.4</ele>
        <time>2020-08-08T14:19:17Z</time>
      </trkpt>
      <trkpt lat="45.6019" lon="6.76658">
        <ele>788.5</ele>
        <time>2020-08-08T14:19:18Z</time>
      </trkpt>
      <trkpt lat="45.60181" lon="6.76651">
        <ele>788.8</ele>
        <time>2020-08-08T14:19:20Z</time>
      </trkpt>
      <trkpt lat="45.60176" lon="6.76647">
        <ele>788.9</ele>
        <time>2020-08-08T14:19:21Z</time>
      </trkpt>
      <trkpt lat="45.60172" lon="6.76643">
        <ele>789</ele>
        <time>2020-08-08T14:19:22Z</time>
      </trkpt>
      <trkpt lat="45.60169" lon="6.7664">
        <ele>789.1</ele>
        <time>2020-08-08T14:19:23Z</time>
      </trkpt>
      <trkpt lat="45.60163" lon="6.76634">
        <ele>789.3</ele>
        <time>2020-08-08T14:19:25Z</time>
      </trkpt>
      <trkpt lat="45.60159" lon="6.76624">
        <ele>789</ele>
        <time>2020-08-08T14:19:27Z</time>
      </trkpt>
      <trkpt lat="45.60159" lon="6.76619">
        <ele>788.8</ele>
        <time>2020-08-08T14:19:28Z</time>
      </trkpt>
      <trkpt lat="45.60159" lon="6.76603">
        <ele>788</ele>
        <time>2020-08-08T14:19:30Z</time>
      </trkpt>
      <trkpt lat="45.60158" lon="6.76591">
        <ele>787.4</ele>
        <time>2020-08-08T14:19:31Z</time>
      </trkpt>
      <trkpt lat="45.6015" lon="6.76572">
        <ele>786.5</ele>
        <time>2020-08-08T14:19:33Z</time>
      </trkpt>
      <trkpt lat="45.60144" lon="6.76563">
        <ele>786</ele>
        <time>2020-08-08T14:19:34Z</time>
      </trkpt>
      <trkpt lat="45.60139" lon="6.76555">
        <ele>785.6</ele>
        <time>2020-08-08T14:19:35Z</time>
      </trkpt>
      <trkpt lat="45.60127" lon="6.76537">
        <ele>784.7</ele>
        <time>2020-08-08T14:19:37Z</time>
      </trkpt>
      <trkpt lat="45.60116" lon="6.7652">
        <ele>783.9</ele>
        <time>2020-08-08T14:19:39Z</time>
      </trkpt>
      <trkpt lat="45.60111" lon="6.7651">
        <ele>783.4</ele>
        <time>2020-08-08T14:19:40Z</time>
      </trkpt>
      <trkpt lat="45.60106" lon="6.765">
        <ele>783</ele>
        <time>2020-08-08T14:19:41Z</time>
      </trkpt>
      <trkpt lat="45.60096" lon="6.76482">
        <ele>782.3</ele>
        <time>2020-08-08T14:19:43Z</time>
      </trkpt>
      <trkpt lat="45.60091" lon="6.76473">
        <ele>782</ele>
        <time>2020-08-08T14:19:44Z</time>
      </trkpt>
      <trkpt lat="45.60086" lon="6.76465">
        <ele>781.7</ele>
        <time>2020-08-08T14:19:45Z</time>
      </trkpt>
      <trkpt lat="45.60082" lon="6.76458">
        <ele>781.4</ele>
        <time>2020-08-08T14:19:46Z</time>
      </trkpt>
      <trkpt lat="45.60077" lon="6.7645">
        <ele>781.2</ele>
        <time>2020-08-08T14:19:47Z</time>
      </trkpt>
      <trkpt lat="45.60069" lon="6.76432">
        <ele>780.7</ele>
        <time>2020-08-08T14:19:49Z</time>
      </trkpt>
      <trkpt lat="45.60063" lon="6.76412">
        <ele>780.3</ele>
        <time>2020-08-08T14:19:51Z</time>
      </trkpt>
      <trkpt lat="45.6006" lon="6.76402">
        <ele>780</ele>
        <time>2020-08-08T14:19:52Z</time>
      </trkpt>
      <trkpt lat="45.60056" lon="6.76381">
        <ele>779.3</ele>
        <time>2020-08-08T14:19:54Z</time>
      </trkpt>
      <trkpt lat="45.60061" lon="6.76362">
        <ele>778.8</ele>
        <time>2020-08-08T14:19:56Z</time>
      </trkpt>
      <trkpt lat="45.60073" lon="6.76348">
        <ele>778.4</ele>
        <time>2020-08-08T14:19:58Z</time>
      </trkpt>
      <trkpt lat="45.60083" lon="6.76335">
        <ele>778.2</ele>
        <time>2020-08-08T14:20:00Z</time>
      </trkpt>
      <trkpt lat="45.60086" lon="6.76326">
        <ele>778.2</ele>
        <time>2020-08-08T14:20:01Z</time>
      </trkpt>
      <trkpt lat="45.60087" lon="6.76306">
        <ele>778.1</ele>
        <time>2020-08-08T14:20:03Z</time>
      </trkpt>
      <trkpt lat="45.60087" lon="6.76296">
        <ele>778</ele>
        <time>2020-08-08T14:20:04Z</time>
      </trkpt>
      <trkpt lat="45.6009" lon="6.76273">
        <ele>778</ele>
        <time>2020-08-08T14:20:06Z</time>
      </trkpt>
      <trkpt lat="45.60091" lon="6.76249">
        <ele>778</ele>
        <time>2020-08-08T14:20:08Z</time>
      </trkpt>
      <trkpt lat="45.60085" lon="6.76224">
        <ele>777.9</ele>
        <time>2020-08-08T14:20:10Z</time>
      </trkpt>
      <trkpt lat="45.60082" lon="6.76212">
        <ele>777.9</ele>
        <time>2020-08-08T14:20:11Z</time>
      </trkpt>
      <trkpt lat="45.60078" lon="6.7619">
        <ele>777.9</ele>
        <time>2020-08-08T14:20:13Z</time>
      </trkpt>
      <trkpt lat="45.60075" lon="6.76169">
        <ele>777.9</ele>
        <time>2020-08-08T14:20:15Z</time>
      </trkpt>
      <trkpt lat="45.60074" lon="6.76148">
        <ele>777.6</ele>
        <time>2020-08-08T14:20:17Z</time>
      </trkpt>
      <trkpt lat="45.60074" lon="6.76127">
        <ele>777.1</ele>
        <time>2020-08-08T14:20:19Z</time>
      </trkpt>
      <trkpt lat="45.60076" lon="6.76105">
        <ele>776.6</ele>
        <time>2020-08-08T14:20:21Z</time>
      </trkpt>
      <trkpt lat="45.60076" lon="6.76083">
        <ele>776.5</ele>
        <time>2020-08-08T14:20:23Z</time>
      </trkpt>
      <trkpt lat="45.60074" lon="6.76072">
        <ele>776.5</ele>
        <time>2020-08-08T14:20:24Z</time>
      </trkpt>
      <trkpt lat="45.60065" lon="6.76055">
        <ele>776.6</ele>
        <time>2020-08-08T14:20:26Z</time>
      </trkpt>
      <trkpt lat="45.60061" lon="6.76047">
        <ele>776.6</ele>
        <time>2020-08-08T14:20:27Z</time>
      </trkpt>
      <trkpt lat="45.60052" lon="6.7603">
        <ele>776.4</ele>
        <time>2020-08-08T14:20:29Z</time>
      </trkpt>
      <trkpt lat="45.60042" lon="6.76014">
        <ele>776.4</ele>
        <time>2020-08-08T14:20:31Z</time>
      </trkpt>
      <trkpt lat="45.60037" lon="6.76008">
        <ele>776.4</ele>
        <time>2020-08-08T14:20:32Z</time>
      </trkpt>
      <trkpt lat="45.60025" lon="6.75996">
        <ele>776.4</ele>
        <time>2020-08-08T14:20:34Z</time>
      </trkpt>
      <trkpt lat="45.60014" lon="6.75984">
        <ele>776.3</ele>
        <time>2020-08-08T14:20:36Z</time>
      </trkpt>
      <trkpt lat="45.60008" lon="6.75978">
        <ele>776.3</ele>
        <time>2020-08-08T14:20:37Z</time>
      </trkpt>
      <trkpt lat="45.59998" lon="6.75964">
        <ele>776.3</ele>
        <time>2020-08-08T14:20:39Z</time>
      </trkpt>
      <trkpt lat="45.59993" lon="6.75958">
        <ele>776.4</ele>
        <time>2020-08-08T14:20:40Z</time>
      </trkpt>
      <trkpt lat="45.59988" lon="6.75952">
        <ele>776.4</ele>
        <time>2020-08-08T14:20:41Z</time>
      </trkpt>
      <trkpt lat="45.59976" lon="6.75944">
        <ele>776.3</ele>
        <time>2020-08-08T14:20:43Z</time>
      </trkpt>
      <trkpt lat="45.59971" lon="6.75941">
        <ele>776.2</ele>
        <time>2020-08-08T14:20:44Z</time>
      </trkpt>
      <trkpt lat="45.59961" lon="6.75932">
        <ele>775.6</ele>
        <time>2020-08-08T14:20:46Z</time>
      </trkpt>
      <trkpt lat="45.59959" lon="6.75922">
        <ele>775</ele>
        <time>2020-08-08T14:20:47Z</time>
      </trkpt>
      <trkpt lat="45.59956" lon="6.75912">
        <ele>774.3</ele>
        <time>2020-08-08T14:20:48Z</time>
      </trkpt>
      <trkpt lat="45.59952" lon="6.75903">
        <ele>773.6</ele>
        <time>2020-08-08T14:20:49Z</time>
      </trkpt>
      <trkpt lat="45.59945" lon="6.75894">
        <ele>773.3</ele>
        <time>2020-08-08T14:20:50Z</time>
      </trkpt>
      <trkpt lat="45.59934" lon="6.75884">
        <ele>773.5</ele>
        <time>2020-08-08T14:20:52Z</time>
      </trkpt>
      <trkpt lat="45.59929" lon="6.75882">
        <ele>773.6</ele>
        <time>2020-08-08T14:20:53Z</time>
      </trkpt>
      <trkpt lat="45.59917" lon="6.75884">
        <ele>773.8</ele>
        <time>2020-08-08T14:20:55Z</time>
      </trkpt>
      <trkpt lat="45.59911" lon="6.75885">
        <ele>773.8</ele>
        <time>2020-08-08T14:20:56Z</time>
      </trkpt>
      <trkpt lat="45.59902" lon="6.75885">
        <ele>773.7</ele>
        <time>2020-08-08T14:20:58Z</time>
      </trkpt>
      <trkpt lat="45.59901" lon="6.75884">
        <ele>773.6</ele>
        <time>2020-08-08T14:20:59Z</time>
      </trkpt>
      <trkpt lat="45.599" lon="6.75883">
        <ele>773.6</ele>
        <time>2020-08-08T14:21:00Z</time>
      </trkpt>
      <trkpt lat="45.59899" lon="6.75882">
        <ele>773.6</ele>
        <time>2020-08-08T14:21:02Z</time>
      </trkpt>
      <trkpt lat="45.59899" lon="6.75882">
        <ele>773.6</ele>
        <time>2020-08-08T14:21:03Z</time>
      </trkpt>
      <trkpt lat="45.599" lon="6.75883">
        <ele>773.5</ele>
        <time>2020-08-08T14:21:05Z</time>
      </trkpt>
      <trkpt lat="45.599" lon="6.75883">
        <ele>773.5</ele>
        <time>2020-08-08T14:21:07Z</time>
      </trkpt>
      <trkpt lat="45.599" lon="6.75883">
        <ele>773.5</ele>
        <time>2020-08-08T14:21:08Z</time>
      </trkpt>
      <trkpt lat="45.59898" lon="6.75882">
        <ele>773.5</ele>
        <time>2020-08-08T14:21:10Z</time>
      </trkpt>
      <trkpt lat="45.59899" lon="6.7588">
        <ele>773.4</ele>
        <time>2020-08-08T14:21:12Z</time>
      </trkpt>
      <trkpt lat="45.59895" lon="6.75869">
        <ele>773.1</ele>
        <time>2020-08-08T14:21:15Z</time>
      </trkpt>
      <trkpt lat="45.59893" lon="6.75864">
        <ele>772.9</ele>
        <time>2020-08-08T14:21:16Z</time>
      </trkpt>
      <trkpt lat="45.59885" lon="6.75846">
        <ele>772.1</ele>
        <time>2020-08-08T14:21:18Z</time>
      </trkpt>
      <trkpt lat="45.59877" lon="6.75828">
        <ele>771.4</ele>
        <time>2020-08-08T14:21:20Z</time>
      </trkpt>
      <trkpt lat="45.59871" lon="6.7582">
        <ele>771.2</ele>
        <time>2020-08-08T14:21:21Z</time>
      </trkpt>
      <trkpt lat="45.59858" lon="6.75805">
        <ele>770.8</ele>
        <time>2020-08-08T14:21:23Z</time>
      </trkpt>
      <trkpt lat="45.5985" lon="6.75799">
        <ele>770.5</ele>
        <time>2020-08-08T14:21:24Z</time>
      </trkpt>
      <trkpt lat="45.59842" lon="6.75793">
        <ele>770.2</ele>
        <time>2020-08-08T14:21:25Z</time>
      </trkpt>
      <trkpt lat="45.59834" lon="6.75772">
        <ele>769.7</ele>
        <time>2020-08-08T14:21:27Z</time>
      </trkpt>
      <trkpt lat="45.59833" lon="6.75759">
        <ele>769.3</ele>
        <time>2020-08-08T14:21:28Z</time>
      </trkpt>
      <trkpt lat="45.59829" lon="6.75747">
        <ele>769</ele>
        <time>2020-08-08T14:21:29Z</time>
      </trkpt>
      <trkpt lat="45.59823" lon="6.75738">
        <ele>768.7</ele>
        <time>2020-08-08T14:21:30Z</time>
      </trkpt>
      <trkpt lat="45.59815" lon="6.75731">
        <ele>768.4</ele>
        <time>2020-08-08T14:21:31Z</time>
      </trkpt>
      <trkpt lat="45.59803" lon="6.75712">
        <ele>768</ele>
        <time>2020-08-08T14:21:33Z</time>
      </trkpt>
      <trkpt lat="45.59801" lon="6.75699">
        <ele>767.8</ele>
        <time>2020-08-08T14:21:34Z</time>
      </trkpt>
      <trkpt lat="45.59801" lon="6.75673">
        <ele>767.4</ele>
        <time>2020-08-08T14:21:36Z</time>
      </trkpt>
      <trkpt lat="45.59802" lon="6.7566">
        <ele>767.2</ele>
        <time>2020-08-08T14:21:37Z</time>
      </trkpt>
      <trkpt lat="45.598" lon="6.75635">
        <ele>766.7</ele>
        <time>2020-08-08T14:21:39Z</time>
      </trkpt>
      <trkpt lat="45.59792" lon="6.75611">
        <ele>766.2</ele>
        <time>2020-08-08T14:21:41Z</time>
      </trkpt>
      <trkpt lat="45.59782" lon="6.75589">
        <ele>765.7</ele>
        <time>2020-08-08T14:21:43Z</time>
      </trkpt>
      <trkpt lat="45.59777" lon="6.75577">
        <ele>765.4</ele>
        <time>2020-08-08T14:21:44Z</time>
      </trkpt>
      <trkpt lat="45.59772" lon="6.75564">
        <ele>765.1</ele>
        <time>2020-08-08T14:21:45Z</time>
      </trkpt>
      <trkpt lat="45.59762" lon="6.7554">
        <ele>764.8</ele>
        <time>2020-08-08T14:21:47Z</time>
      </trkpt>
      <trkpt lat="45.5975" lon="6.75518">
        <ele>764.5</ele>
        <time>2020-08-08T14:21:49Z</time>
      </trkpt>
      <trkpt lat="45.59744" lon="6.75508">
        <ele>764.5</ele>
        <time>2020-08-08T14:21:50Z</time>
      </trkpt>
      <trkpt lat="45.59737" lon="6.75499">
        <ele>764.4</ele>
        <time>2020-08-08T14:21:51Z</time>
      </trkpt>
      <trkpt lat="45.59724" lon="6.75486">
        <ele>764.3</ele>
        <time>2020-08-08T14:21:53Z</time>
      </trkpt>
      <trkpt lat="45.5971" lon="6.75479">
        <ele>764.2</ele>
        <time>2020-08-08T14:21:55Z</time>
      </trkpt>
      <trkpt lat="45.59694" lon="6.75476">
        <ele>764</ele>
        <time>2020-08-08T14:21:57Z</time>
      </trkpt>
      <trkpt lat="45.59679" lon="6.7547">
        <ele>763.8</ele>
        <time>2020-08-08T14:21:59Z</time>
      </trkpt>
      <trkpt lat="45.59663" lon="6.75457">
        <ele>763.5</ele>
        <time>2020-08-08T14:22:01Z</time>
      </trkpt>
      <trkpt lat="45.59646" lon="6.75445">
        <ele>763.5</ele>
        <time>2020-08-08T14:22:03Z</time>
      </trkpt>
      <trkpt lat="45.59629" lon="6.75434">
        <ele>763.6</ele>
        <time>2020-08-08T14:22:05Z</time>
      </trkpt>
      <trkpt lat="45.59613" lon="6.75425">
        <ele>763.7</ele>
        <time>2020-08-08T14:22:07Z</time>
      </trkpt>
      <trkpt lat="45.59605" lon="6.7542">
        <ele>763.7</ele>
        <time>2020-08-08T14:22:08Z</time>
      </trkpt>
      <trkpt lat="45.59589" lon="6.75414">
        <ele>763.7</ele>
        <time>2020-08-08T14:22:10Z</time>
      </trkpt>
      <trkpt lat="45.59577" lon="6.75403">
        <ele>763.7</ele>
        <time>2020-08-08T14:22:12Z</time>
      </trkpt>
      <trkpt lat="45.59567" lon="6.75388">
        <ele>763.5</ele>
        <time>2020-08-08T14:22:14Z</time>
      </trkpt>
      <trkpt lat="45.59559" lon="6.75381">
        <ele>763.3</ele>
        <time>2020-08-08T14:22:15Z</time>
      </trkpt>
      <trkpt lat="45.59543" lon="6.7537">
        <ele>763</ele>
        <time>2020-08-08T14:22:17Z</time>
      </trkpt>
      <trkpt lat="45.59536" lon="6.75363">
        <ele>762.8</ele>
        <time>2020-08-08T14:22:18Z</time>
      </trkpt>
      <trkpt lat="45.59523" lon="6.75348">
        <ele>762.5</ele>
        <time>2020-08-08T14:22:20Z</time>
      </trkpt>
      <trkpt lat="45.5951" lon="6.75331">
        <ele>762.2</ele>
        <time>2020-08-08T14:22:22Z</time>
      </trkpt>
      <trkpt lat="45.59497" lon="6.75315">
        <ele>761.8</ele>
        <time>2020-08-08T14:22:24Z</time>
      </trkpt>
      <trkpt lat="45.5949" lon="6.75307">
        <ele>761.6</ele>
        <time>2020-08-08T14:22:25Z</time>
      </trkpt>
      <trkpt lat="45.59483" lon="6.753">
        <ele>761.4</ele>
        <time>2020-08-08T14:22:26Z</time>
      </trkpt>
      <trkpt lat="45.59469" lon="6.75286">
        <ele>761</ele>
        <time>2020-08-08T14:22:28Z</time>
      </trkpt>
      <trkpt lat="45.59456" lon="6.75272">
        <ele>760.8</ele>
        <time>2020-08-08T14:22:30Z</time>
      </trkpt>
      <trkpt lat="45.5945" lon="6.75264">
        <ele>760.7</ele>
        <time>2020-08-08T14:22:31Z</time>
      </trkpt>
      <trkpt lat="45.59444" lon="6.75255">
        <ele>760.7</ele>
        <time>2020-08-08T14:22:32Z</time>
      </trkpt>
      <trkpt lat="45.59435" lon="6.75239">
        <ele>760.6</ele>
        <time>2020-08-08T14:22:34Z</time>
      </trkpt>
      <trkpt lat="45.59431" lon="6.7523">
        <ele>760.5</ele>
        <time>2020-08-08T14:22:35Z</time>
      </trkpt>
      <trkpt lat="45.59423" lon="6.75213">
        <ele>760.5</ele>
        <time>2020-08-08T14:22:37Z</time>
      </trkpt>
      <trkpt lat="45.59412" lon="6.75199">
        <ele>760.6</ele>
        <time>2020-08-08T14:22:39Z</time>
      </trkpt>
      <trkpt lat="45.59405" lon="6.75194">
        <ele>760.7</ele>
        <time>2020-08-08T14:22:40Z</time>
      </trkpt>
      <trkpt lat="45.59391" lon="6.75189">
        <ele>760.8</ele>
        <time>2020-08-08T14:22:42Z</time>
      </trkpt>
      <trkpt lat="45.59384" lon="6.75188">
        <ele>760.8</ele>
        <time>2020-08-08T14:22:43Z</time>
      </trkpt>
      <trkpt lat="45.5937" lon="6.75186">
        <ele>760.7</ele>
        <time>2020-08-08T14:22:45Z</time>
      </trkpt>
      <trkpt lat="45.59357" lon="6.7518">
        <ele>760.5</ele>
        <time>2020-08-08T14:22:47Z</time>
      </trkpt>
      <trkpt lat="45.5935" lon="6.75176">
        <ele>760.4</ele>
        <time>2020-08-08T14:22:48Z</time>
      </trkpt>
      <trkpt lat="45.59338" lon="6.75169">
        <ele>760.4</ele>
        <time>2020-08-08T14:22:50Z</time>
      </trkpt>
      <trkpt lat="45.59331" lon="6.75165">
        <ele>760.3</ele>
        <time>2020-08-08T14:22:51Z</time>
      </trkpt>
      <trkpt lat="45.59324" lon="6.75162">
        <ele>760.3</ele>
        <time>2020-08-08T14:22:52Z</time>
      </trkpt>
      <trkpt lat="45.59311" lon="6.75157">
        <ele>760.2</ele>
        <time>2020-08-08T14:22:54Z</time>
      </trkpt>
      <trkpt lat="45.59305" lon="6.75155">
        <ele>760.1</ele>
        <time>2020-08-08T14:22:55Z</time>
      </trkpt>
      <trkpt lat="45.59298" lon="6.75154">
        <ele>760.1</ele>
        <time>2020-08-08T14:22:56Z</time>
      </trkpt>
      <trkpt lat="45.59285" lon="6.75151">
        <ele>759.9</ele>
        <time>2020-08-08T14:22:58Z</time>
      </trkpt>
      <trkpt lat="45.59279" lon="6.75147">
        <ele>759.8</ele>
        <time>2020-08-08T14:22:59Z</time>
      </trkpt>
      <trkpt lat="45.59267" lon="6.75138">
        <ele>759.4</ele>
        <time>2020-08-08T14:23:01Z</time>
      </trkpt>
      <trkpt lat="45.59262" lon="6.7513">
        <ele>759.2</ele>
        <time>2020-08-08T14:23:02Z</time>
      </trkpt>
      <trkpt lat="45.59254" lon="6.75113">
        <ele>758.9</ele>
        <time>2020-08-08T14:23:04Z</time>
      </trkpt>
      <trkpt lat="45.59245" lon="6.75098">
        <ele>758.6</ele>
        <time>2020-08-08T14:23:06Z</time>
      </trkpt>
      <trkpt lat="45.59236" lon="6.75083">
        <ele>758.3</ele>
        <time>2020-08-08T14:23:08Z</time>
      </trkpt>
      <trkpt lat="45.5923" lon="6.75077">
        <ele>758.2</ele>
        <time>2020-08-08T14:23:09Z</time>
      </trkpt>
      <trkpt lat="45.59218" lon="6.75063">
        <ele>757.8</ele>
        <time>2020-08-08T14:23:11Z</time>
      </trkpt>
      <trkpt lat="45.59205" lon="6.75051">
        <ele>757.7</ele>
        <time>2020-08-08T14:23:13Z</time>
      </trkpt>
      <trkpt lat="45.59199" lon="6.75045">
        <ele>757.6</ele>
        <time>2020-08-08T14:23:14Z</time>
      </trkpt>
      <trkpt lat="45.59194" lon="6.75038">
        <ele>757.6</ele>
        <time>2020-08-08T14:23:15Z</time>
      </trkpt>
      <trkpt lat="45.59183" lon="6.75025">
        <ele>757.4</ele>
        <time>2020-08-08T14:23:17Z</time>
      </trkpt>
      <trkpt lat="45.59172" lon="6.75014">
        <ele>757.2</ele>
        <time>2020-08-08T14:23:19Z</time>
      </trkpt>
      <trkpt lat="45.59165" lon="6.75011">
        <ele>757.1</ele>
        <time>2020-08-08T14:23:20Z</time>
      </trkpt>
      <trkpt lat="45.59158" lon="6.75008">
        <ele>756.9</ele>
        <time>2020-08-08T14:23:21Z</time>
      </trkpt>
      <trkpt lat="45.59152" lon="6.75007">
        <ele>756.8</ele>
        <time>2020-08-08T14:23:22Z</time>
      </trkpt>
      <trkpt lat="45.59138" lon="6.75004">
        <ele>756.6</ele>
        <time>2020-08-08T14:23:24Z</time>
      </trkpt>
      <trkpt lat="45.5913" lon="6.75003">
        <ele>756.5</ele>
        <time>2020-08-08T14:23:25Z</time>
      </trkpt>
      <trkpt lat="45.59123" lon="6.75002">
        <ele>756.5</ele>
        <time>2020-08-08T14:23:26Z</time>
      </trkpt>
      <trkpt lat="45.5911" lon="6.75">
        <ele>756.3</ele>
        <time>2020-08-08T14:23:28Z</time>
      </trkpt>
      <trkpt lat="45.59096" lon="6.74998">
        <ele>756.2</ele>
        <time>2020-08-08T14:23:30Z</time>
      </trkpt>
      <trkpt lat="45.59089" lon="6.74998">
        <ele>756.2</ele>
        <time>2020-08-08T14:23:31Z</time>
      </trkpt>
      <trkpt lat="45.59082" lon="6.74997">
        <ele>756.1</ele>
        <time>2020-08-08T14:23:32Z</time>
      </trkpt>
      <trkpt lat="45.59069" lon="6.74995">
        <ele>756.1</ele>
        <time>2020-08-08T14:23:34Z</time>
      </trkpt>
      <trkpt lat="45.59058" lon="6.74982">
        <ele>756.1</ele>
        <time>2020-08-08T14:23:36Z</time>
      </trkpt>
      <trkpt lat="45.59053" lon="6.74974">
        <ele>756.1</ele>
        <time>2020-08-08T14:23:37Z</time>
      </trkpt>
      <trkpt lat="45.59049" lon="6.74967">
        <ele>756</ele>
        <time>2020-08-08T14:23:38Z</time>
      </trkpt>
      <trkpt lat="45.59043" lon="6.74961">
        <ele>756.1</ele>
        <time>2020-08-08T14:23:39Z</time>
      </trkpt>
      <trkpt lat="45.59031" lon="6.74955">
        <ele>756.2</ele>
        <time>2020-08-08T14:23:41Z</time>
      </trkpt>
      <trkpt lat="45.59018" lon="6.74952">
        <ele>756.3</ele>
        <time>2020-08-08T14:23:43Z</time>
      </trkpt>
      <trkpt lat="45.59012" lon="6.7495">
        <ele>756.3</ele>
        <time>2020-08-08T14:23:44Z</time>
      </trkpt>
      <trkpt lat="45.58999" lon="6.74946">
        <ele>756.3</ele>
        <time>2020-08-08T14:23:46Z</time>
      </trkpt>
      <trkpt lat="45.58987" lon="6.74941">
        <ele>756.1</ele>
        <time>2020-08-08T14:23:48Z</time>
      </trkpt>
      <trkpt lat="45.58975" lon="6.74934">
        <ele>756</ele>
        <time>2020-08-08T14:23:50Z</time>
      </trkpt>
      <trkpt lat="45.58969" lon="6.7493">
        <ele>755.9</ele>
        <time>2020-08-08T14:23:51Z</time>
      </trkpt>
      <trkpt lat="45.58962" lon="6.74925">
        <ele>755.7</ele>
        <time>2020-08-08T14:23:52Z</time>
      </trkpt>
      <trkpt lat="45.58949" lon="6.74917">
        <ele>755.4</ele>
        <time>2020-08-08T14:23:54Z</time>
      </trkpt>
      <trkpt lat="45.58936" lon="6.74912">
        <ele>755.2</ele>
        <time>2020-08-08T14:23:56Z</time>
      </trkpt>
      <trkpt lat="45.58922" lon="6.74911">
        <ele>755</ele>
        <time>2020-08-08T14:23:58Z</time>
      </trkpt>
      <trkpt lat="45.58915" lon="6.74911">
        <ele>754.9</ele>
        <time>2020-08-08T14:23:59Z</time>
      </trkpt>
      <trkpt lat="45.58901" lon="6.74908">
        <ele>754.7</ele>
        <time>2020-08-08T14:24:01Z</time>
      </trkpt>
      <trkpt lat="45.58888" lon="6.74906">
        <ele>754.5</ele>
        <time>2020-08-08T14:24:03Z</time>
      </trkpt>
      <trkpt lat="45.58874" lon="6.74909">
        <ele>754.3</ele>
        <time>2020-08-08T14:24:05Z</time>
      </trkpt>
      <trkpt lat="45.58867" lon="6.7491">
        <ele>754.1</ele>
        <time>2020-08-08T14:24:06Z</time>
      </trkpt>
      <trkpt lat="45.58859" lon="6.74909">
        <ele>753.9</ele>
        <time>2020-08-08T14:24:07Z</time>
      </trkpt>
      <trkpt lat="45.58843" lon="6.74908">
        <ele>753.6</ele>
        <time>2020-08-08T14:24:09Z</time>
      </trkpt>
      <trkpt lat="45.58835" lon="6.74908">
        <ele>753.4</ele>
        <time>2020-08-08T14:24:10Z</time>
      </trkpt>
      <trkpt lat="45.5882" lon="6.74909">
        <ele>753.3</ele>
        <time>2020-08-08T14:24:12Z</time>
      </trkpt>
      <trkpt lat="45.58805" lon="6.7491">
        <ele>753.2</ele>
        <time>2020-08-08T14:24:14Z</time>
      </trkpt>
      <trkpt lat="45.58798" lon="6.74911">
        <ele>753.1</ele>
        <time>2020-08-08T14:24:15Z</time>
      </trkpt>
      <trkpt lat="45.58783" lon="6.74911">
        <ele>752.9</ele>
        <time>2020-08-08T14:24:17Z</time>
      </trkpt>
      <trkpt lat="45.5877" lon="6.74911">
        <ele>752.8</ele>
        <time>2020-08-08T14:24:19Z</time>
      </trkpt>
      <trkpt lat="45.58756" lon="6.74906">
        <ele>752.8</ele>
        <time>2020-08-08T14:24:21Z</time>
      </trkpt>
      <trkpt lat="45.58743" lon="6.749">
        <ele>752.7</ele>
        <time>2020-08-08T14:24:23Z</time>
      </trkpt>
      <trkpt lat="45.5873" lon="6.74898">
        <ele>752.5</ele>
        <time>2020-08-08T14:24:25Z</time>
      </trkpt>
      <trkpt lat="45.58716" lon="6.74898">
        <ele>752.3</ele>
        <time>2020-08-08T14:24:27Z</time>
      </trkpt>
      <trkpt lat="45.58709" lon="6.74898">
        <ele>752.2</ele>
        <time>2020-08-08T14:24:28Z</time>
      </trkpt>
      <trkpt lat="45.58702" lon="6.74898">
        <ele>752.1</ele>
        <time>2020-08-08T14:24:29Z</time>
      </trkpt>
      <trkpt lat="45.58688" lon="6.74896">
        <ele>752</ele>
        <time>2020-08-08T14:24:31Z</time>
      </trkpt>
      <trkpt lat="45.58681" lon="6.74895">
        <ele>752</ele>
        <time>2020-08-08T14:24:32Z</time>
      </trkpt>
      <trkpt lat="45.58674" lon="6.74894">
        <ele>752.1</ele>
        <time>2020-08-08T14:24:33Z</time>
      </trkpt>
      <trkpt lat="45.58667" lon="6.74894">
        <ele>752.1</ele>
        <time>2020-08-08T14:24:34Z</time>
      </trkpt>
      <trkpt lat="45.58654" lon="6.74896">
        <ele>752.1</ele>
        <time>2020-08-08T14:24:36Z</time>
      </trkpt>
      <trkpt lat="45.58647" lon="6.74896">
        <ele>752.1</ele>
        <time>2020-08-08T14:24:37Z</time>
      </trkpt>
      <trkpt lat="45.58634" lon="6.74895">
        <ele>752.1</ele>
        <time>2020-08-08T14:24:39Z</time>
      </trkpt>
      <trkpt lat="45.58627" lon="6.74895">
        <ele>752.1</ele>
        <time>2020-08-08T14:24:40Z</time>
      </trkpt>
      <trkpt lat="45.58621" lon="6.74894">
        <ele>752.1</ele>
        <time>2020-08-08T14:24:41Z</time>
      </trkpt>
      <trkpt lat="45.58615" lon="6.74892">
        <ele>752</ele>
        <time>2020-08-08T14:24:42Z</time>
      </trkpt>
      <trkpt lat="45.58603" lon="6.74888">
        <ele>752</ele>
        <time>2020-08-08T14:24:44Z</time>
      </trkpt>
      <trkpt lat="45.58591" lon="6.7488">
        <ele>751.9</ele>
        <time>2020-08-08T14:24:46Z</time>
      </trkpt>
      <trkpt lat="45.58582" lon="6.74869">
        <ele>751.8</ele>
        <time>2020-08-08T14:24:48Z</time>
      </trkpt>
      <trkpt lat="45.58577" lon="6.74864">
        <ele>751.7</ele>
        <time>2020-08-08T14:24:49Z</time>
      </trkpt>
      <trkpt lat="45.58572" lon="6.7486">
        <ele>751.6</ele>
        <time>2020-08-08T14:24:50Z</time>
      </trkpt>
      <trkpt lat="45.58562" lon="6.74852">
        <ele>751.5</ele>
        <time>2020-08-08T14:24:52Z</time>
      </trkpt>
      <trkpt lat="45.58556" lon="6.74849">
        <ele>751.4</ele>
        <time>2020-08-08T14:24:53Z</time>
      </trkpt>
      <trkpt lat="45.5855" lon="6.74847">
        <ele>751.4</ele>
        <time>2020-08-08T14:24:54Z</time>
      </trkpt>
      <trkpt lat="45.58538" lon="6.74843">
        <ele>751.3</ele>
        <time>2020-08-08T14:24:56Z</time>
      </trkpt>
      <trkpt lat="45.58532" lon="6.7484">
        <ele>751.2</ele>
        <time>2020-08-08T14:24:57Z</time>
      </trkpt>
      <trkpt lat="45.5852" lon="6.74834">
        <ele>751.1</ele>
        <time>2020-08-08T14:24:59Z</time>
      </trkpt>
      <trkpt lat="45.58515" lon="6.74828">
        <ele>751</ele>
        <time>2020-08-08T14:25:00Z</time>
      </trkpt>
      <trkpt lat="45.58508" lon="6.74815">
        <ele>750.9</ele>
        <time>2020-08-08T14:25:02Z</time>
      </trkpt>
      <trkpt lat="45.58498" lon="6.74804">
        <ele>750.7</ele>
        <time>2020-08-08T14:25:04Z</time>
      </trkpt>
      <trkpt lat="45.58485" lon="6.74799">
        <ele>750.3</ele>
        <time>2020-08-08T14:25:06Z</time>
      </trkpt>
      <trkpt lat="45.58478" lon="6.74797">
        <ele>750.1</ele>
        <time>2020-08-08T14:25:07Z</time>
      </trkpt>
      <trkpt lat="45.58465" lon="6.74794">
        <ele>749.9</ele>
        <time>2020-08-08T14:25:09Z</time>
      </trkpt>
      <trkpt lat="45.58458" lon="6.74792">
        <ele>749.8</ele>
        <time>2020-08-08T14:25:10Z</time>
      </trkpt>
      <trkpt lat="45.58445" lon="6.7479">
        <ele>749.7</ele>
        <time>2020-08-08T14:25:12Z</time>
      </trkpt>
      <trkpt lat="45.58437" lon="6.74788">
        <ele>749.6</ele>
        <time>2020-08-08T14:25:13Z</time>
      </trkpt>
      <trkpt lat="45.5843" lon="6.74787">
        <ele>749.5</ele>
        <time>2020-08-08T14:25:14Z</time>
      </trkpt>
      <trkpt lat="45.58417" lon="6.74783">
        <ele>749.4</ele>
        <time>2020-08-08T14:25:16Z</time>
      </trkpt>
      <trkpt lat="45.58402" lon="6.74781">
        <ele>749.3</ele>
        <time>2020-08-08T14:25:18Z</time>
      </trkpt>
      <trkpt lat="45.58388" lon="6.74779">
        <ele>749.3</ele>
        <time>2020-08-08T14:25:20Z</time>
      </trkpt>
      <trkpt lat="45.58375" lon="6.74776">
        <ele>749.4</ele>
        <time>2020-08-08T14:25:22Z</time>
      </trkpt>
      <trkpt lat="45.58363" lon="6.7477">
        <ele>749.5</ele>
        <time>2020-08-08T14:25:24Z</time>
      </trkpt>
      <trkpt lat="45.58352" lon="6.74762">
        <ele>749.5</ele>
        <time>2020-08-08T14:25:26Z</time>
      </trkpt>
      <trkpt lat="45.58346" lon="6.74758">
        <ele>749.5</ele>
        <time>2020-08-08T14:25:27Z</time>
      </trkpt>
      <trkpt lat="45.58334" lon="6.7475">
        <ele>749.5</ele>
        <time>2020-08-08T14:25:29Z</time>
      </trkpt>
      <trkpt lat="45.58327" lon="6.74746">
        <ele>749.4</ele>
        <time>2020-08-08T14:25:30Z</time>
      </trkpt>
      <trkpt lat="45.58321" lon="6.74743">
        <ele>749.3</ele>
        <time>2020-08-08T14:25:31Z</time>
      </trkpt>
      <trkpt lat="45.5831" lon="6.74735">
        <ele>749.1</ele>
        <time>2020-08-08T14:25:33Z</time>
      </trkpt>
      <trkpt lat="45.58304" lon="6.74729">
        <ele>749</ele>
        <time>2020-08-08T14:25:34Z</time>
      </trkpt>
      <trkpt lat="45.58299" lon="6.74724">
        <ele>749</ele>
        <time>2020-08-08T14:25:35Z</time>
      </trkpt>
      <trkpt lat="45.58289" lon="6.74712">
        <ele>748.9</ele>
        <time>2020-08-08T14:25:37Z</time>
      </trkpt>
      <trkpt lat="45.58279" lon="6.74701">
        <ele>748.9</ele>
        <time>2020-08-08T14:25:39Z</time>
      </trkpt>
      <trkpt lat="45.58268" lon="6.74689">
        <ele>748.8</ele>
        <time>2020-08-08T14:25:41Z</time>
      </trkpt>
      <trkpt lat="45.58263" lon="6.74683">
        <ele>748.7</ele>
        <time>2020-08-08T14:25:42Z</time>
      </trkpt>
      <trkpt lat="45.58257" lon="6.74677">
        <ele>748.7</ele>
        <time>2020-08-08T14:25:43Z</time>
      </trkpt>
      <trkpt lat="45.58246" lon="6.74668">
        <ele>748.7</ele>
        <time>2020-08-08T14:25:45Z</time>
      </trkpt>
      <trkpt lat="45.58241" lon="6.74662">
        <ele>748.6</ele>
        <time>2020-08-08T14:25:46Z</time>
      </trkpt>
      <trkpt lat="45.58232" lon="6.74648">
        <ele>748.5</ele>
        <time>2020-08-08T14:25:48Z</time>
      </trkpt>
      <trkpt lat="45.58229" lon="6.7464">
        <ele>748.5</ele>
        <time>2020-08-08T14:25:49Z</time>
      </trkpt>
      <trkpt lat="45.58223" lon="6.74624">
        <ele>748.3</ele>
        <time>2020-08-08T14:25:51Z</time>
      </trkpt>
      <trkpt lat="45.5822" lon="6.74605">
        <ele>748</ele>
        <time>2020-08-08T14:25:53Z</time>
      </trkpt>
      <trkpt lat="45.58219" lon="6.74596">
        <ele>747.8</ele>
        <time>2020-08-08T14:25:54Z</time>
      </trkpt>
      <trkpt lat="45.58212" lon="6.74578">
        <ele>747.6</ele>
        <time>2020-08-08T14:25:56Z</time>
      </trkpt>
      <trkpt lat="45.58208" lon="6.74569">
        <ele>747.5</ele>
        <time>2020-08-08T14:25:57Z</time>
      </trkpt>
      <trkpt lat="45.58202" lon="6.74551">
        <ele>747.4</ele>
        <time>2020-08-08T14:25:59Z</time>
      </trkpt>
      <trkpt lat="45.58197" lon="6.74532">
        <ele>747.3</ele>
        <time>2020-08-08T14:26:01Z</time>
      </trkpt>
      <trkpt lat="45.58194" lon="6.74512">
        <ele>747.1</ele>
        <time>2020-08-08T14:26:03Z</time>
      </trkpt>
      <trkpt lat="45.58194" lon="6.74502">
        <ele>747.1</ele>
        <time>2020-08-08T14:26:04Z</time>
      </trkpt>
      <trkpt lat="45.58192" lon="6.74482">
        <ele>747</ele>
        <time>2020-08-08T14:26:06Z</time>
      </trkpt>
      <trkpt lat="45.5819" lon="6.74462">
        <ele>747</ele>
        <time>2020-08-08T14:26:08Z</time>
      </trkpt>
      <trkpt lat="45.58183" lon="6.74442">
        <ele>746.9</ele>
        <time>2020-08-08T14:26:10Z</time>
      </trkpt>
      <trkpt lat="45.58174" lon="6.74426">
        <ele>746.8</ele>
        <time>2020-08-08T14:26:12Z</time>
      </trkpt>
      <trkpt lat="45.58167" lon="6.7441">
        <ele>746.8</ele>
        <time>2020-08-08T14:26:14Z</time>
      </trkpt>
      <trkpt lat="45.5816" lon="6.74394">
        <ele>746.7</ele>
        <time>2020-08-08T14:26:16Z</time>
      </trkpt>
      <trkpt lat="45.58157" lon="6.74386">
        <ele>746.6</ele>
        <time>2020-08-08T14:26:17Z</time>
      </trkpt>
      <trkpt lat="45.58149" lon="6.74369">
        <ele>746.6</ele>
        <time>2020-08-08T14:26:19Z</time>
      </trkpt>
      <trkpt lat="45.58145" lon="6.74361">
        <ele>746.6</ele>
        <time>2020-08-08T14:26:20Z</time>
      </trkpt>
      <trkpt lat="45.58137" lon="6.74344">
        <ele>746.6</ele>
        <time>2020-08-08T14:26:22Z</time>
      </trkpt>
      <trkpt lat="45.58131" lon="6.74328">
        <ele>746.6</ele>
        <time>2020-08-08T14:26:24Z</time>
      </trkpt>
      <trkpt lat="45.58128" lon="6.74319">
        <ele>746.6</ele>
        <time>2020-08-08T14:26:25Z</time>
      </trkpt>
      <trkpt lat="45.58124" lon="6.7431">
        <ele>746.6</ele>
        <time>2020-08-08T14:26:26Z</time>
      </trkpt>
      <trkpt lat="45.5812" lon="6.74293">
        <ele>746.7</ele>
        <time>2020-08-08T14:26:28Z</time>
      </trkpt>
      <trkpt lat="45.58119" lon="6.74283">
        <ele>746.8</ele>
        <time>2020-08-08T14:26:29Z</time>
      </trkpt>
      <trkpt lat="45.58118" lon="6.74266">
        <ele>746.7</ele>
        <time>2020-08-08T14:26:31Z</time>
      </trkpt>
      <trkpt lat="45.58117" lon="6.74257">
        <ele>746.6</ele>
        <time>2020-08-08T14:26:32Z</time>
      </trkpt>
      <trkpt lat="45.58114" lon="6.74238">
        <ele>746.4</ele>
        <time>2020-08-08T14:26:34Z</time>
      </trkpt>
      <trkpt lat="45.58111" lon="6.74228">
        <ele>746.2</ele>
        <time>2020-08-08T14:26:35Z</time>
      </trkpt>
      <trkpt lat="45.58104" lon="6.7421">
        <ele>746</ele>
        <time>2020-08-08T14:26:37Z</time>
      </trkpt>
      <trkpt lat="45.58101" lon="6.74201">
        <ele>745.9</ele>
        <time>2020-08-08T14:26:38Z</time>
      </trkpt>
      <trkpt lat="45.58095" lon="6.74185">
        <ele>745.8</ele>
        <time>2020-08-08T14:26:40Z</time>
      </trkpt>
      <trkpt lat="45.58092" lon="6.74176">
        <ele>745.8</ele>
        <time>2020-08-08T14:26:41Z</time>
      </trkpt>
      <trkpt lat="45.5809" lon="6.74167">
        <ele>745.8</ele>
        <time>2020-08-08T14:26:42Z</time>
      </trkpt>
      <trkpt lat="45.58087" lon="6.74158">
        <ele>745.7</ele>
        <time>2020-08-08T14:26:43Z</time>
      </trkpt>
      <trkpt lat="45.5808" lon="6.74141">
        <ele>745.5</ele>
        <time>2020-08-08T14:26:45Z</time>
      </trkpt>
      <trkpt lat="45.58067" lon="6.74128">
        <ele>745.2</ele>
        <time>2020-08-08T14:26:47Z</time>
      </trkpt>
      <trkpt lat="45.58061" lon="6.74123">
        <ele>745.1</ele>
        <time>2020-08-08T14:26:48Z</time>
      </trkpt>
      <trkpt lat="45.58047" lon="6.74117">
        <ele>744.8</ele>
        <time>2020-08-08T14:26:50Z</time>
      </trkpt>
      <trkpt lat="45.58039" lon="6.74114">
        <ele>744.7</ele>
        <time>2020-08-08T14:26:51Z</time>
      </trkpt>
      <trkpt lat="45.58024" lon="6.74108">
        <ele>744.6</ele>
        <time>2020-08-08T14:26:53Z</time>
      </trkpt>
      <trkpt lat="45.5801" lon="6.74103">
        <ele>744.4</ele>
        <time>2020-08-08T14:26:55Z</time>
      </trkpt>
      <trkpt lat="45.58002" lon="6.74101">
        <ele>744.2</ele>
        <time>2020-08-08T14:26:56Z</time>
      </trkpt>
      <trkpt lat="45.57987" lon="6.74097">
        <ele>744</ele>
        <time>2020-08-08T14:26:58Z</time>
      </trkpt>
      <trkpt lat="45.5798" lon="6.74097">
        <ele>743.9</ele>
        <time>2020-08-08T14:26:59Z</time>
      </trkpt>
      <trkpt lat="45.57972" lon="6.74096">
        <ele>743.8</ele>
        <time>2020-08-08T14:27:00Z</time>
      </trkpt>
      <trkpt lat="45.57957" lon="6.74095">
        <ele>743.5</ele>
        <time>2020-08-08T14:27:02Z</time>
      </trkpt>
      <trkpt lat="45.57941" lon="6.74097">
        <ele>743.3</ele>
        <time>2020-08-08T14:27:04Z</time>
      </trkpt>
      <trkpt lat="45.57933" lon="6.74099">
        <ele>743.2</ele>
        <time>2020-08-08T14:27:05Z</time>
      </trkpt>
      <trkpt lat="45.57926" lon="6.74103">
        <ele>743.2</ele>
        <time>2020-08-08T14:27:06Z</time>
      </trkpt>
      <trkpt lat="45.57911" lon="6.74113">
        <ele>743</ele>
        <time>2020-08-08T14:27:08Z</time>
      </trkpt>
      <trkpt lat="45.57904" lon="6.74119">
        <ele>743</ele>
        <time>2020-08-08T14:27:09Z</time>
      </trkpt>
      <trkpt lat="45.57896" lon="6.74123">
        <ele>742.9</ele>
        <time>2020-08-08T14:27:10Z</time>
      </trkpt>
      <trkpt lat="45.57881" lon="6.7413">
        <ele>742.8</ele>
        <time>2020-08-08T14:27:12Z</time>
      </trkpt>
      <trkpt lat="45.57873" lon="6.74133">
        <ele>742.8</ele>
        <time>2020-08-08T14:27:13Z</time>
      </trkpt>
      <trkpt lat="45.57865" lon="6.74136">
        <ele>742.8</ele>
        <time>2020-08-08T14:27:14Z</time>
      </trkpt>
      <trkpt lat="45.5785" lon="6.74141">
        <ele>742.8</ele>
        <time>2020-08-08T14:27:16Z</time>
      </trkpt>
      <trkpt lat="45.57837" lon="6.74148">
        <ele>742.9</ele>
        <time>2020-08-08T14:27:18Z</time>
      </trkpt>
      <trkpt lat="45.57822" lon="6.74153">
        <ele>743.4</ele>
        <time>2020-08-08T14:27:20Z</time>
      </trkpt>
      <trkpt lat="45.57816" lon="6.74154">
        <ele>743.8</ele>
        <time>2020-08-08T14:27:21Z</time>
      </trkpt>
      <trkpt lat="45.5781" lon="6.74153">
        <ele>744.2</ele>
        <time>2020-08-08T14:27:22Z</time>
      </trkpt>
      <trkpt lat="45.578" lon="6.74148">
        <ele>744.9</ele>
        <time>2020-08-08T14:27:24Z</time>
      </trkpt>
      <trkpt lat="45.57795" lon="6.74143">
        <ele>745.4</ele>
        <time>2020-08-08T14:27:25Z</time>
      </trkpt>
      <trkpt lat="45.57786" lon="6.74136">
        <ele>746</ele>
        <time>2020-08-08T14:27:27Z</time>
      </trkpt>
      <trkpt lat="45.57776" lon="6.7413">
        <ele>746.5</ele>
        <time>2020-08-08T14:27:29Z</time>
      </trkpt>
      <trkpt lat="45.57773" lon="6.74128">
        <ele>746.6</ele>
        <time>2020-08-08T14:27:30Z</time>
      </trkpt>
      <trkpt lat="45.5777" lon="6.74125">
        <ele>746.6</ele>
        <time>2020-08-08T14:27:31Z</time>
      </trkpt>
      <trkpt lat="45.5776" lon="6.74121">
        <ele>746.6</ele>
        <time>2020-08-08T14:27:33Z</time>
      </trkpt>
      <trkpt lat="45.57745" lon="6.74116">
        <ele>746</ele>
        <time>2020-08-08T14:27:35Z</time>
      </trkpt>
      <trkpt lat="45.57729" lon="6.74112">
        <ele>745.1</ele>
        <time>2020-08-08T14:27:37Z</time>
      </trkpt>
      <trkpt lat="45.57721" lon="6.74109">
        <ele>744.8</ele>
        <time>2020-08-08T14:27:38Z</time>
      </trkpt>
      <trkpt lat="45.57713" lon="6.74104">
        <ele>744.5</ele>
        <time>2020-08-08T14:27:39Z</time>
      </trkpt>
      <trkpt lat="45.577" lon="6.7409">
        <ele>743.9</ele>
        <time>2020-08-08T14:27:41Z</time>
      </trkpt>
      <trkpt lat="45.5769" lon="6.74075">
        <ele>743.4</ele>
        <time>2020-08-08T14:27:43Z</time>
      </trkpt>
      <trkpt lat="45.57685" lon="6.74066">
        <ele>743</ele>
        <time>2020-08-08T14:27:44Z</time>
      </trkpt>
      <trkpt lat="45.57681" lon="6.74056">
        <ele>742.7</ele>
        <time>2020-08-08T14:27:45Z</time>
      </trkpt>
      <trkpt lat="45.57675" lon="6.74033">
        <ele>741.8</ele>
        <time>2020-08-08T14:27:47Z</time>
      </trkpt>
      <trkpt lat="45.57673" lon="6.74021">
        <ele>741.4</ele>
        <time>2020-08-08T14:27:48Z</time>
      </trkpt>
      <trkpt lat="45.57666" lon="6.73995">
        <ele>740.6</ele>
        <time>2020-08-08T14:27:50Z</time>
      </trkpt>
      <trkpt lat="45.57662" lon="6.73982">
        <ele>740.3</ele>
        <time>2020-08-08T14:27:51Z</time>
      </trkpt>
      <trkpt lat="45.57655" lon="6.73957">
        <ele>739.8</ele>
        <time>2020-08-08T14:27:53Z</time>
      </trkpt>
      <trkpt lat="45.57652" lon="6.7393">
        <ele>739.5</ele>
        <time>2020-08-08T14:27:55Z</time>
      </trkpt>
      <trkpt lat="45.57651" lon="6.73918">
        <ele>739.5</ele>
        <time>2020-08-08T14:27:56Z</time>
      </trkpt>
      <trkpt lat="45.57651" lon="6.73893">
        <ele>739.4</ele>
        <time>2020-08-08T14:27:58Z</time>
      </trkpt>
      <trkpt lat="45.57651" lon="6.73881">
        <ele>739.4</ele>
        <time>2020-08-08T14:27:59Z</time>
      </trkpt>
      <trkpt lat="45.57652" lon="6.73859">
        <ele>739.5</ele>
        <time>2020-08-08T14:28:01Z</time>
      </trkpt>
      <trkpt lat="45.57653" lon="6.73848">
        <ele>739.6</ele>
        <time>2020-08-08T14:28:02Z</time>
      </trkpt>
      <trkpt lat="45.57655" lon="6.73829">
        <ele>739.6</ele>
        <time>2020-08-08T14:28:04Z</time>
      </trkpt>
      <trkpt lat="45.57659" lon="6.7381">
        <ele>739.6</ele>
        <time>2020-08-08T14:28:06Z</time>
      </trkpt>
      <trkpt lat="45.57665" lon="6.73791">
        <ele>739.6</ele>
        <time>2020-08-08T14:28:08Z</time>
      </trkpt>
      <trkpt lat="45.57668" lon="6.73782">
        <ele>739.7</ele>
        <time>2020-08-08T14:28:09Z</time>
      </trkpt>
      <trkpt lat="45.57675" lon="6.73763">
        <ele>739.9</ele>
        <time>2020-08-08T14:28:11Z</time>
      </trkpt>
      <trkpt lat="45.57677" lon="6.73754">
        <ele>740.1</ele>
        <time>2020-08-08T14:28:12Z</time>
      </trkpt>
      <trkpt lat="45.57678" lon="6.73736">
        <ele>740.2</ele>
        <time>2020-08-08T14:28:14Z</time>
      </trkpt>
      <trkpt lat="45.57677" lon="6.73727">
        <ele>740.2</ele>
        <time>2020-08-08T14:28:15Z</time>
      </trkpt>
      <trkpt lat="45.57677" lon="6.73713">
        <ele>739.9</ele>
        <time>2020-08-08T14:28:17Z</time>
      </trkpt>
      <trkpt lat="45.57686" lon="6.73704">
        <ele>739.4</ele>
        <time>2020-08-08T14:28:19Z</time>
      </trkpt>
      <trkpt lat="45.57697" lon="6.7369">
        <ele>738.9</ele>
        <time>2020-08-08T14:28:21Z</time>
      </trkpt>
      <trkpt lat="45.577" lon="6.7368">
        <ele>738.8</ele>
        <time>2020-08-08T14:28:22Z</time>
      </trkpt>
      <trkpt lat="45.57702" lon="6.73668">
        <ele>738.7</ele>
        <time>2020-08-08T14:28:23Z</time>
      </trkpt>
      <trkpt lat="45.57704" lon="6.73647">
        <ele>738.5</ele>
        <time>2020-08-08T14:28:25Z</time>
      </trkpt>
      <trkpt lat="45.57706" lon="6.73625">
        <ele>738.4</ele>
        <time>2020-08-08T14:28:27Z</time>
      </trkpt>
      <trkpt lat="45.57708" lon="6.73604">
        <ele>738.3</ele>
        <time>2020-08-08T14:28:29Z</time>
      </trkpt>
      <trkpt lat="45.57708" lon="6.73584">
        <ele>738.2</ele>
        <time>2020-08-08T14:28:31Z</time>
      </trkpt>
      <trkpt lat="45.57706" lon="6.73575">
        <ele>738.2</ele>
        <time>2020-08-08T14:28:32Z</time>
      </trkpt>
      <trkpt lat="45.57702" lon="6.73556">
        <ele>738.1</ele>
        <time>2020-08-08T14:28:34Z</time>
      </trkpt>
      <trkpt lat="45.57696" lon="6.73539">
        <ele>738.1</ele>
        <time>2020-08-08T14:28:36Z</time>
      </trkpt>
      <trkpt lat="45.57688" lon="6.73523">
        <ele>738.2</ele>
        <time>2020-08-08T14:28:38Z</time>
      </trkpt>
      <trkpt lat="45.57681" lon="6.73508">
        <ele>738.1</ele>
        <time>2020-08-08T14:28:40Z</time>
      </trkpt>
      <trkpt lat="45.57678" lon="6.73501">
        <ele>738.1</ele>
        <time>2020-08-08T14:28:41Z</time>
      </trkpt>
      <trkpt lat="45.57673" lon="6.73487">
        <ele>738</ele>
        <time>2020-08-08T14:28:43Z</time>
      </trkpt>
      <trkpt lat="45.57671" lon="6.73481">
        <ele>737.9</ele>
        <time>2020-08-08T14:28:44Z</time>
      </trkpt>
      <trkpt lat="45.57667" lon="6.73468">
        <ele>737.8</ele>
        <time>2020-08-08T14:28:46Z</time>
      </trkpt>
      <trkpt lat="45.57666" lon="6.73462">
        <ele>737.7</ele>
        <time>2020-08-08T14:28:47Z</time>
      </trkpt>
      <trkpt lat="45.57666" lon="6.73458">
        <ele>737.7</ele>
        <time>2020-08-08T14:28:48Z</time>
      </trkpt>
      <trkpt lat="45.57665" lon="6.73448">
        <ele>737.5</ele>
        <time>2020-08-08T14:28:50Z</time>
      </trkpt>
      <trkpt lat="45.5766" lon="6.73443">
        <ele>737.7</ele>
        <time>2020-08-08T14:28:52Z</time>
      </trkpt>
      <trkpt lat="45.57655" lon="6.73444">
        <ele>737.9</ele>
        <time>2020-08-08T14:28:54Z</time>
      </trkpt>
      <trkpt lat="45.57647" lon="6.73442">
        <ele>738.2</ele>
        <time>2020-08-08T14:28:56Z</time>
      </trkpt>
      <trkpt lat="45.57642" lon="6.73443">
        <ele>739.2</ele>
        <time>2020-08-08T14:28:59Z</time>
      </trkpt>
      <trkpt lat="45.5764" lon="6.73442">
        <ele>739.2</ele>
        <time>2020-08-08T14:29:02Z</time>
      </trkpt>
      <trkpt lat="45.57641" lon="6.7344">
        <ele>739.3</ele>
        <time>2020-08-08T14:29:03Z</time>
      </trkpt>
      <trkpt lat="45.57642" lon="6.73426">
        <ele>739.4</ele>
        <time>2020-08-08T14:29:06Z</time>
      </trkpt>
      <trkpt lat="45.57645" lon="6.73419">
        <ele>739.5</ele>
        <time>2020-08-08T14:29:07Z</time>
      </trkpt>
      <trkpt lat="45.57651" lon="6.73407">
        <ele>739.8</ele>
        <time>2020-08-08T14:29:09Z</time>
      </trkpt>
      <trkpt lat="45.57654" lon="6.73401">
        <ele>740.4</ele>
        <time>2020-08-08T14:29:10Z</time>
      </trkpt>
      <trkpt lat="45.57659" lon="6.7339">
        <ele>737.2</ele>
        <time>2020-08-08T14:29:12Z</time>
      </trkpt>
      <trkpt lat="45.57665" lon="6.73378">
        <ele>738.2</ele>
        <time>2020-08-08T14:29:14Z</time>
      </trkpt>
      <trkpt lat="45.57668" lon="6.73373">
        <ele>738.8</ele>
        <time>2020-08-08T14:29:15Z</time>
      </trkpt>
      <trkpt lat="45.57674" lon="6.73363">
        <ele>739.9</ele>
        <time>2020-08-08T14:29:17Z</time>
      </trkpt>
      <trkpt lat="45.57679" lon="6.73353">
        <ele>740.9</ele>
        <time>2020-08-08T14:29:19Z</time>
      </trkpt>
      <trkpt lat="45.57684" lon="6.73344">
        <ele>741.8</ele>
        <time>2020-08-08T14:29:21Z</time>
      </trkpt>
      <trkpt lat="45.57688" lon="6.73331">
        <ele>741.9</ele>
        <time>2020-08-08T14:29:23Z</time>
      </trkpt>
      <trkpt lat="45.57687" lon="6.73324">
        <ele>742</ele>
        <time>2020-08-08T14:29:24Z</time>
      </trkpt>
      <trkpt lat="45.57687" lon="6.73318">
        <ele>742.1</ele>
        <time>2020-08-08T14:29:25Z</time>
      </trkpt>
      <trkpt lat="45.57687" lon="6.73316">
        <ele>742.1</ele>
        <time>2020-08-08T14:29:27Z</time>
      </trkpt>
      <trkpt lat="45.57685" lon="6.73314">
        <ele>742.1</ele>
        <time>2020-08-08T14:29:28Z</time>
      </trkpt>
      <trkpt lat="45.57684" lon="6.73313">
        <ele>742.2</ele>
        <time>2020-08-08T14:29:29Z</time>
      </trkpt>
      <trkpt lat="45.57681" lon="6.73305">
        <ele>742.4</ele>
        <time>2020-08-08T14:29:31Z</time>
      </trkpt>
      <trkpt lat="45.57679" lon="6.73301">
        <ele>742.5</ele>
        <time>2020-08-08T14:29:33Z</time>
      </trkpt>
      <trkpt lat="45.57677" lon="6.73294">
        <ele>742.7</ele>
        <time>2020-08-08T14:29:34Z</time>
      </trkpt>
      <trkpt lat="45.57673" lon="6.73285">
        <ele>743.1</ele>
        <time>2020-08-08T14:29:36Z</time>
      </trkpt>
      <trkpt lat="45.57667" lon="6.73273">
        <ele>743.6</ele>
        <time>2020-08-08T14:29:37Z</time>
      </trkpt>
      <trkpt lat="45.57663" lon="6.73265">
        <ele>744</ele>
        <time>2020-08-08T14:29:39Z</time>
      </trkpt>
      <trkpt lat="45.57659" lon="6.73254">
        <ele>744.6</ele>
        <time>2020-08-08T14:29:40Z</time>
      </trkpt>
      <trkpt lat="45.57657" lon="6.7325">
        <ele>744.9</ele>
        <time>2020-08-08T14:29:41Z</time>
      </trkpt>
      <trkpt lat="45.57654" lon="6.73245">
        <ele>745.3</ele>
        <time>2020-08-08T14:29:42Z</time>
      </trkpt>
      <trkpt lat="45.5765" lon="6.73237">
        <ele>745.9</ele>
        <time>2020-08-08T14:29:45Z</time>
      </trkpt>
      <trkpt lat="45.57649" lon="6.73233">
        <ele>746.1</ele>
        <time>2020-08-08T14:29:46Z</time>
      </trkpt>
      <trkpt lat="45.57646" lon="6.73227">
        <ele>746.6</ele>
        <time>2020-08-08T14:29:48Z</time>
      </trkpt>
      <trkpt lat="45.57644" lon="6.7322">
        <ele>747</ele>
        <time>2020-08-08T14:29:49Z</time>
      </trkpt>
      <trkpt lat="45.57642" lon="6.73215">
        <ele>747.3</ele>
        <time>2020-08-08T14:29:51Z</time>
      </trkpt>
      <trkpt lat="45.5764" lon="6.73211">
        <ele>747.5</ele>
        <time>2020-08-08T14:29:52Z</time>
      </trkpt>
      <trkpt lat="45.57638" lon="6.73206">
        <ele>747.7</ele>
        <time>2020-08-08T14:29:53Z</time>
      </trkpt>
      <trkpt lat="45.57636" lon="6.73202">
        <ele>747.9</ele>
        <time>2020-08-08T14:29:54Z</time>
      </trkpt>
      <trkpt lat="45.57635" lon="6.73198">
        <ele>748</ele>
        <time>2020-08-08T14:29:55Z</time>
      </trkpt>
      <trkpt lat="45.57631" lon="6.73187">
        <ele>748.4</ele>
        <time>2020-08-08T14:29:58Z</time>
      </trkpt>
      <trkpt lat="45.57626" lon="6.73176">
        <ele>748.9</ele>
        <time>2020-08-08T14:30:01Z</time>
      </trkpt>
      <trkpt lat="45.57624" lon="6.73172">
        <ele>749.1</ele>
        <time>2020-08-08T14:30:04Z</time>
      </trkpt>
      <trkpt lat="45.5762" lon="6.7316">
        <ele>749.7</ele>
        <time>2020-08-08T14:30:06Z</time>
      </trkpt>
      <trkpt lat="45.57618" lon="6.73154">
        <ele>749.9</ele>
        <time>2020-08-08T14:30:07Z</time>
      </trkpt>
      <trkpt lat="45.57616" lon="6.73148">
        <ele>750.3</ele>
        <time>2020-08-08T14:30:09Z</time>
      </trkpt>
      <trkpt lat="45.57614" lon="6.73142">
        <ele>750.6</ele>
        <time>2020-08-08T14:30:10Z</time>
      </trkpt>
      <trkpt lat="45.57613" lon="6.73136">
        <ele>751</ele>
        <time>2020-08-08T14:30:11Z</time>
      </trkpt>
      <trkpt lat="45.57611" lon="6.73132">
        <ele>751.3</ele>
        <time>2020-08-08T14:30:13Z</time>
      </trkpt>
      <trkpt lat="45.57608" lon="6.73122">
        <ele>751.9</ele>
        <time>2020-08-08T14:30:15Z</time>
      </trkpt>
      <trkpt lat="45.57607" lon="6.73115">
        <ele>752.3</ele>
        <time>2020-08-08T14:30:16Z</time>
      </trkpt>
      <trkpt lat="45.57606" lon="6.73111">
        <ele>752.6</ele>
        <time>2020-08-08T14:30:19Z</time>
      </trkpt>
      <trkpt lat="45.57605" lon="6.73107">
        <ele>752.9</ele>
        <time>2020-08-08T14:30:20Z</time>
      </trkpt>
      <trkpt lat="45.57603" lon="6.73097">
        <ele>753.5</ele>
        <time>2020-08-08T14:30:21Z</time>
      </trkpt>
      <trkpt lat="45.57602" lon="6.73091">
        <ele>753.9</ele>
        <time>2020-08-08T14:30:24Z</time>
      </trkpt>
      <trkpt lat="45.57601" lon="6.73087">
        <ele>754.1</ele>
        <time>2020-08-08T14:30:25Z</time>
      </trkpt>
      <trkpt lat="45.576" lon="6.73084">
        <ele>754.4</ele>
        <time>2020-08-08T14:30:26Z</time>
      </trkpt>
      <trkpt lat="45.57597" lon="6.73075">
        <ele>755</ele>
        <time>2020-08-08T14:30:27Z</time>
      </trkpt>
      <trkpt lat="45.57595" lon="6.73065">
        <ele>755.6</ele>
        <time>2020-08-08T14:30:30Z</time>
      </trkpt>
      <trkpt lat="45.57594" lon="6.7306">
        <ele>755.9</ele>
        <time>2020-08-08T14:30:31Z</time>
      </trkpt>
      <trkpt lat="45.57592" lon="6.73051">
        <ele>756.5</ele>
        <time>2020-08-08T14:30:34Z</time>
      </trkpt>
      <trkpt lat="45.5759" lon="6.73044">
        <ele>756.9</ele>
        <time>2020-08-08T14:30:36Z</time>
      </trkpt>
      <trkpt lat="45.57588" lon="6.73038">
        <ele>757.3</ele>
        <time>2020-08-08T14:30:38Z</time>
      </trkpt>
      <trkpt lat="45.57586" lon="6.73031">
        <ele>757.8</ele>
        <time>2020-08-08T14:30:39Z</time>
      </trkpt>
      <trkpt lat="45.57584" lon="6.73021">
        <ele>758.3</ele>
        <time>2020-08-08T14:30:42Z</time>
      </trkpt>
      <trkpt lat="45.57583" lon="6.73017">
        <ele>758.6</ele>
        <time>2020-08-08T14:30:43Z</time>
      </trkpt>
      <trkpt lat="45.5758" lon="6.73004">
        <ele>759.3</ele>
        <time>2020-08-08T14:30:46Z</time>
      </trkpt>
      <trkpt lat="45.57579" lon="6.72999">
        <ele>759.6</ele>
        <time>2020-08-08T14:30:48Z</time>
      </trkpt>
      <trkpt lat="45.57578" lon="6.72989">
        <ele>760.2</ele>
        <time>2020-08-08T14:30:50Z</time>
      </trkpt>
      <trkpt lat="45.57575" lon="6.72978">
        <ele>760.9</ele>
        <time>2020-08-08T14:30:53Z</time>
      </trkpt>
      <trkpt lat="45.57573" lon="6.72973">
        <ele>761.2</ele>
        <time>2020-08-08T14:30:54Z</time>
      </trkpt>
      <trkpt lat="45.5757" lon="6.72963">
        <ele>761.9</ele>
        <time>2020-08-08T14:30:57Z</time>
      </trkpt>
      <trkpt lat="45.57568" lon="6.72958">
        <ele>762.2</ele>
        <time>2020-08-08T14:30:59Z</time>
      </trkpt>
      <trkpt lat="45.57565" lon="6.7295">
        <ele>762.8</ele>
        <time>2020-08-08T14:31:01Z</time>
      </trkpt>
      <trkpt lat="45.57563" lon="6.72945">
        <ele>763.1</ele>
        <time>2020-08-08T14:31:02Z</time>
      </trkpt>
      <trkpt lat="45.57563" lon="6.72943">
        <ele>763.3</ele>
        <time>2020-08-08T14:31:03Z</time>
      </trkpt>
      <trkpt lat="45.57562" lon="6.7294">
        <ele>763.5</ele>
        <time>2020-08-08T14:31:04Z</time>
      </trkpt>
      <trkpt lat="45.5756" lon="6.72936">
        <ele>763.8</ele>
        <time>2020-08-08T14:31:07Z</time>
      </trkpt>
      <trkpt lat="45.57558" lon="6.72931">
        <ele>764.1</ele>
        <time>2020-08-08T14:31:08Z</time>
      </trkpt>
      <trkpt lat="45.57558" lon="6.7293">
        <ele>764.2</ele>
        <time>2020-08-08T14:31:09Z</time>
      </trkpt>
      <trkpt lat="45.57556" lon="6.72924">
        <ele>764.6</ele>
        <time>2020-08-08T14:31:10Z</time>
      </trkpt>
      <trkpt lat="45.57553" lon="6.72918">
        <ele>765</ele>
        <time>2020-08-08T14:31:11Z</time>
      </trkpt>
      <trkpt lat="45.5755" lon="6.7291">
        <ele>765.6</ele>
        <time>2020-08-08T14:31:14Z</time>
      </trkpt>
      <trkpt lat="45.57547" lon="6.72904">
        <ele>766.2</ele>
        <time>2020-08-08T14:31:17Z</time>
      </trkpt>
      <trkpt lat="45.57546" lon="6.72902">
        <ele>766.3</ele>
        <time>2020-08-08T14:31:18Z</time>
      </trkpt>
      <trkpt lat="45.57545" lon="6.729">
        <ele>766.5</ele>
        <time>2020-08-08T14:31:19Z</time>
      </trkpt>
      <trkpt lat="45.57542" lon="6.72895">
        <ele>766.9</ele>
        <time>2020-08-08T14:31:21Z</time>
      </trkpt>
      <trkpt lat="45.5754" lon="6.7289">
        <ele>767.2</ele>
        <time>2020-08-08T14:31:23Z</time>
      </trkpt>
      <trkpt lat="45.57537" lon="6.72885">
        <ele>767.6</ele>
        <time>2020-08-08T14:31:24Z</time>
      </trkpt>
      <trkpt lat="45.57535" lon="6.72882">
        <ele>767.9</ele>
        <time>2020-08-08T14:31:25Z</time>
      </trkpt>
      <trkpt lat="45.57534" lon="6.72879">
        <ele>768.1</ele>
        <time>2020-08-08T14:31:27Z</time>
      </trkpt>
      <trkpt lat="45.5753" lon="6.72872">
        <ele>768.6</ele>
        <time>2020-08-08T14:31:29Z</time>
      </trkpt>
      <trkpt lat="45.57525" lon="6.72864">
        <ele>769.2</ele>
        <time>2020-08-08T14:31:32Z</time>
      </trkpt>
      <trkpt lat="45.57523" lon="6.72861">
        <ele>769.4</ele>
        <time>2020-08-08T14:31:33Z</time>
      </trkpt>
      <trkpt lat="45.5752" lon="6.72858">
        <ele>769.7</ele>
        <time>2020-08-08T14:31:34Z</time>
      </trkpt>
      <trkpt lat="45.57517" lon="6.72852">
        <ele>770.2</ele>
        <time>2020-08-08T14:31:37Z</time>
      </trkpt>
      <trkpt lat="45.57516" lon="6.7285">
        <ele>770.3</ele>
        <time>2020-08-08T14:31:38Z</time>
      </trkpt>
      <trkpt lat="45.57515" lon="6.72848">
        <ele>770.4</ele>
        <time>2020-08-08T14:31:39Z</time>
      </trkpt>
      <trkpt lat="45.5751" lon="6.72839">
        <ele>771.1</ele>
        <time>2020-08-08T14:31:41Z</time>
      </trkpt>
      <trkpt lat="45.57509" lon="6.72836">
        <ele>771.4</ele>
        <time>2020-08-08T14:31:44Z</time>
      </trkpt>
      <trkpt lat="45.57505" lon="6.7283">
        <ele>771.9</ele>
        <time>2020-08-08T14:31:46Z</time>
      </trkpt>
      <trkpt lat="45.57503" lon="6.72828">
        <ele>772</ele>
        <time>2020-08-08T14:31:48Z</time>
      </trkpt>
      <trkpt lat="45.57502" lon="6.72826">
        <ele>772.2</ele>
        <time>2020-08-08T14:31:50Z</time>
      </trkpt>
      <trkpt lat="45.575" lon="6.72822">
        <ele>772.5</ele>
        <time>2020-08-08T14:31:51Z</time>
      </trkpt>
      <trkpt lat="45.57495" lon="6.72815">
        <ele>773.1</ele>
        <time>2020-08-08T14:31:54Z</time>
      </trkpt>
      <trkpt lat="45.57492" lon="6.72811">
        <ele>773.4</ele>
        <time>2020-08-08T14:31:55Z</time>
      </trkpt>
      <trkpt lat="45.5749" lon="6.72806">
        <ele>773.7</ele>
        <time>2020-08-08T14:31:57Z</time>
      </trkpt>
      <trkpt lat="45.57488" lon="6.72802">
        <ele>774</ele>
        <time>2020-08-08T14:31:58Z</time>
      </trkpt>
      <trkpt lat="45.57486" lon="6.72797">
        <ele>774.3</ele>
        <time>2020-08-08T14:32:00Z</time>
      </trkpt>
      <trkpt lat="45.57481" lon="6.72782">
        <ele>775.3</ele>
        <time>2020-08-08T14:32:01Z</time>
      </trkpt>
      <trkpt lat="45.57481" lon="6.72774">
        <ele>775.8</ele>
        <time>2020-08-08T14:32:03Z</time>
      </trkpt>
      <trkpt lat="45.57485" lon="6.72771">
        <ele>776.2</ele>
        <time>2020-08-08T14:32:06Z</time>
      </trkpt>
      <trkpt lat="45.57488" lon="6.72772">
        <ele>777.1</ele>
        <time>2020-08-08T14:32:07Z</time>
      </trkpt>
      <trkpt lat="45.5749" lon="6.72778">
        <ele>777.3</ele>
        <time>2020-08-08T14:32:09Z</time>
      </trkpt>
      <trkpt lat="45.57493" lon="6.72786">
        <ele>777.6</ele>
        <time>2020-08-08T14:32:11Z</time>
      </trkpt>
      <trkpt lat="45.57496" lon="6.72791">
        <ele>777.8</ele>
        <time>2020-08-08T14:32:12Z</time>
      </trkpt>
      <trkpt lat="45.57498" lon="6.72795">
        <ele>778</ele>
        <time>2020-08-08T14:32:14Z</time>
      </trkpt>
      <trkpt lat="45.575" lon="6.72799">
        <ele>778.2</ele>
        <time>2020-08-08T14:32:15Z</time>
      </trkpt>
      <trkpt lat="45.57506" lon="6.72809">
        <ele>778.6</ele>
        <time>2020-08-08T14:32:17Z</time>
      </trkpt>
      <trkpt lat="45.5751" lon="6.72815">
        <ele>778.9</ele>
        <time>2020-08-08T14:32:19Z</time>
      </trkpt>
      <trkpt lat="45.57513" lon="6.72821">
        <ele>779.1</ele>
        <time>2020-08-08T14:32:21Z</time>
      </trkpt>
      <trkpt lat="45.57516" lon="6.72826">
        <ele>779.3</ele>
        <time>2020-08-08T14:32:22Z</time>
      </trkpt>
      <trkpt lat="45.57524" lon="6.72839">
        <ele>779.8</ele>
        <time>2020-08-08T14:32:24Z</time>
      </trkpt>
      <trkpt lat="45.57527" lon="6.72844">
        <ele>780</ele>
        <time>2020-08-08T14:32:25Z</time>
      </trkpt>
      <trkpt lat="45.57534" lon="6.72854">
        <ele>780.4</ele>
        <time>2020-08-08T14:32:27Z</time>
      </trkpt>
      <trkpt lat="45.5754" lon="6.72864">
        <ele>780.8</ele>
        <time>2020-08-08T14:32:29Z</time>
      </trkpt>
      <trkpt lat="45.57546" lon="6.72876">
        <ele>781.1</ele>
        <time>2020-08-08T14:32:31Z</time>
      </trkpt>
      <trkpt lat="45.57552" lon="6.72887">
        <ele>781.5</ele>
        <time>2020-08-08T14:32:33Z</time>
      </trkpt>
      <trkpt lat="45.57559" lon="6.72898">
        <ele>782</ele>
        <time>2020-08-08T14:32:35Z</time>
      </trkpt>
      <trkpt lat="45.57563" lon="6.72905">
        <ele>782.2</ele>
        <time>2020-08-08T14:32:36Z</time>
      </trkpt>
      <trkpt lat="45.57566" lon="6.72911">
        <ele>782.4</ele>
        <time>2020-08-08T14:32:37Z</time>
      </trkpt>
      <trkpt lat="45.57573" lon="6.72923">
        <ele>782.9</ele>
        <time>2020-08-08T14:32:39Z</time>
      </trkpt>
      <trkpt lat="45.57581" lon="6.72934">
        <ele>783.3</ele>
        <time>2020-08-08T14:32:41Z</time>
      </trkpt>
      <trkpt lat="45.57584" lon="6.7294">
        <ele>783.5</ele>
        <time>2020-08-08T14:32:42Z</time>
      </trkpt>
      <trkpt lat="45.57591" lon="6.72951">
        <ele>784</ele>
        <time>2020-08-08T14:32:44Z</time>
      </trkpt>
      <trkpt lat="45.57597" lon="6.72961">
        <ele>784.3</ele>
        <time>2020-08-08T14:32:46Z</time>
      </trkpt>
      <trkpt lat="45.576" lon="6.72966">
        <ele>784.5</ele>
        <time>2020-08-08T14:32:47Z</time>
      </trkpt>
      <trkpt lat="45.57603" lon="6.72971">
        <ele>784.6</ele>
        <time>2020-08-08T14:32:48Z</time>
      </trkpt>
      <trkpt lat="45.57608" lon="6.72981">
        <ele>785</ele>
        <time>2020-08-08T14:32:50Z</time>
      </trkpt>
      <trkpt lat="45.57613" lon="6.7299">
        <ele>785.3</ele>
        <time>2020-08-08T14:32:52Z</time>
      </trkpt>
      <trkpt lat="45.57618" lon="6.73">
        <ele>785.7</ele>
        <time>2020-08-08T14:32:54Z</time>
      </trkpt>
      <trkpt lat="45.57621" lon="6.73005">
        <ele>785.9</ele>
        <time>2020-08-08T14:32:55Z</time>
      </trkpt>
      <trkpt lat="45.57624" lon="6.73011">
        <ele>786.2</ele>
        <time>2020-08-08T14:32:56Z</time>
      </trkpt>
      <trkpt lat="45.57628" lon="6.73015">
        <ele>786.4</ele>
        <time>2020-08-08T14:32:57Z</time>
      </trkpt>
      <trkpt lat="45.57631" lon="6.73019">
        <ele>786.7</ele>
        <time>2020-08-08T14:32:58Z</time>
      </trkpt>
      <trkpt lat="45.57637" lon="6.7303">
        <ele>787.1</ele>
        <time>2020-08-08T14:33:00Z</time>
      </trkpt>
      <trkpt lat="45.5764" lon="6.73035">
        <ele>787.4</ele>
        <time>2020-08-08T14:33:01Z</time>
      </trkpt>
      <trkpt lat="45.57641" lon="6.73041">
        <ele>787.6</ele>
        <time>2020-08-08T14:33:02Z</time>
      </trkpt>
      <trkpt lat="45.57643" lon="6.73045">
        <ele>787.8</ele>
        <time>2020-08-08T14:33:03Z</time>
      </trkpt>
      <trkpt lat="45.57649" lon="6.73056">
        <ele>788.3</ele>
        <time>2020-08-08T14:33:05Z</time>
      </trkpt>
      <trkpt lat="45.57653" lon="6.73062">
        <ele>788.6</ele>
        <time>2020-08-08T14:33:06Z</time>
      </trkpt>
      <trkpt lat="45.57656" lon="6.73068">
        <ele>788.8</ele>
        <time>2020-08-08T14:33:07Z</time>
      </trkpt>
      <trkpt lat="45.57658" lon="6.73074">
        <ele>789</ele>
        <time>2020-08-08T14:33:08Z</time>
      </trkpt>
      <trkpt lat="45.57664" lon="6.73086">
        <ele>789.5</ele>
        <time>2020-08-08T14:33:10Z</time>
      </trkpt>
      <trkpt lat="45.57667" lon="6.73094">
        <ele>789.7</ele>
        <time>2020-08-08T14:33:11Z</time>
      </trkpt>
      <trkpt lat="45.57671" lon="6.73105">
        <ele>790.1</ele>
        <time>2020-08-08T14:33:13Z</time>
      </trkpt>
      <trkpt lat="45.57673" lon="6.73114">
        <ele>790.4</ele>
        <time>2020-08-08T14:33:15Z</time>
      </trkpt>
      <trkpt lat="45.57675" lon="6.7312">
        <ele>790.6</ele>
        <time>2020-08-08T14:33:16Z</time>
      </trkpt>
      <trkpt lat="45.57681" lon="6.73132">
        <ele>791</ele>
        <time>2020-08-08T14:33:18Z</time>
      </trkpt>
      <trkpt lat="45.57687" lon="6.73143">
        <ele>791.4</ele>
        <time>2020-08-08T14:33:20Z</time>
      </trkpt>
      <trkpt lat="45.57692" lon="6.73155">
        <ele>791.7</ele>
        <time>2020-08-08T14:33:22Z</time>
      </trkpt>
      <trkpt lat="45.57694" lon="6.73161">
        <ele>791.9</ele>
        <time>2020-08-08T14:33:23Z</time>
      </trkpt>
      <trkpt lat="45.57696" lon="6.73167">
        <ele>792</ele>
        <time>2020-08-08T14:33:24Z</time>
      </trkpt>
      <trkpt lat="45.57699" lon="6.73174">
        <ele>792.2</ele>
        <time>2020-08-08T14:33:25Z</time>
      </trkpt>
      <trkpt lat="45.57704" lon="6.73187">
        <ele>792.5</ele>
        <time>2020-08-08T14:33:27Z</time>
      </trkpt>
      <trkpt lat="45.57709" lon="6.73199">
        <ele>792.9</ele>
        <time>2020-08-08T14:33:29Z</time>
      </trkpt>
      <trkpt lat="45.57713" lon="6.73213">
        <ele>793.2</ele>
        <time>2020-08-08T14:33:31Z</time>
      </trkpt>
      <trkpt lat="45.57718" lon="6.73226">
        <ele>793.5</ele>
        <time>2020-08-08T14:33:33Z</time>
      </trkpt>
      <trkpt lat="45.57721" lon="6.73232">
        <ele>793.7</ele>
        <time>2020-08-08T14:33:34Z</time>
      </trkpt>
      <trkpt lat="45.57727" lon="6.73243">
        <ele>794</ele>
        <time>2020-08-08T14:33:36Z</time>
      </trkpt>
      <trkpt lat="45.5773" lon="6.73249">
        <ele>794.2</ele>
        <time>2020-08-08T14:33:37Z</time>
      </trkpt>
      <trkpt lat="45.57733" lon="6.73256">
        <ele>794.4</ele>
        <time>2020-08-08T14:33:38Z</time>
      </trkpt>
      <trkpt lat="45.57737" lon="6.73262">
        <ele>794.6</ele>
        <time>2020-08-08T14:33:39Z</time>
      </trkpt>
      <trkpt lat="45.57745" lon="6.73273">
        <ele>795</ele>
        <time>2020-08-08T14:33:41Z</time>
      </trkpt>
      <trkpt lat="45.57753" lon="6.73285">
        <ele>795.4</ele>
        <time>2020-08-08T14:33:43Z</time>
      </trkpt>
      <trkpt lat="45.57756" lon="6.73291">
        <ele>795.6</ele>
        <time>2020-08-08T14:33:44Z</time>
      </trkpt>
      <trkpt lat="45.5776" lon="6.73297">
        <ele>795.8</ele>
        <time>2020-08-08T14:33:45Z</time>
      </trkpt>
      <trkpt lat="45.57768" lon="6.73309">
        <ele>796.1</ele>
        <time>2020-08-08T14:33:47Z</time>
      </trkpt>
      <trkpt lat="45.57776" lon="6.7332">
        <ele>796.4</ele>
        <time>2020-08-08T14:33:49Z</time>
      </trkpt>
      <trkpt lat="45.57781" lon="6.73325">
        <ele>796.6</ele>
        <time>2020-08-08T14:33:50Z</time>
      </trkpt>
      <trkpt lat="45.57785" lon="6.73331">
        <ele>796.7</ele>
        <time>2020-08-08T14:33:51Z</time>
      </trkpt>
      <trkpt lat="45.57789" lon="6.73336">
        <ele>796.8</ele>
        <time>2020-08-08T14:33:52Z</time>
      </trkpt>
      <trkpt lat="45.57797" lon="6.73348">
        <ele>797.1</ele>
        <time>2020-08-08T14:33:54Z</time>
      </trkpt>
      <trkpt lat="45.57802" lon="6.73354">
        <ele>797.3</ele>
        <time>2020-08-08T14:33:55Z</time>
      </trkpt>
      <trkpt lat="45.57806" lon="6.73361">
        <ele>797.5</ele>
        <time>2020-08-08T14:33:56Z</time>
      </trkpt>
      <trkpt lat="45.57811" lon="6.73367">
        <ele>797.7</ele>
        <time>2020-08-08T14:33:57Z</time>
      </trkpt>
      <trkpt lat="45.57819" lon="6.7338">
        <ele>798.1</ele>
        <time>2020-08-08T14:33:59Z</time>
      </trkpt>
      <trkpt lat="45.57823" lon="6.73386">
        <ele>798.3</ele>
        <time>2020-08-08T14:34:00Z</time>
      </trkpt>
      <trkpt lat="45.57828" lon="6.73393">
        <ele>798.5</ele>
        <time>2020-08-08T14:34:01Z</time>
      </trkpt>
      <trkpt lat="45.57832" lon="6.73399">
        <ele>798.8</ele>
        <time>2020-08-08T14:34:02Z</time>
      </trkpt>
      <trkpt lat="45.57839" lon="6.73413">
        <ele>799.3</ele>
        <time>2020-08-08T14:34:04Z</time>
      </trkpt>
      <trkpt lat="45.57842" lon="6.73421">
        <ele>799.5</ele>
        <time>2020-08-08T14:34:05Z</time>
      </trkpt>
      <trkpt lat="45.57849" lon="6.73434">
        <ele>800</ele>
        <time>2020-08-08T14:34:07Z</time>
      </trkpt>
      <trkpt lat="45.57855" lon="6.73447">
        <ele>800.5</ele>
        <time>2020-08-08T14:34:09Z</time>
      </trkpt>
      <trkpt lat="45.57859" lon="6.73454">
        <ele>800.7</ele>
        <time>2020-08-08T14:34:10Z</time>
      </trkpt>
      <trkpt lat="45.57865" lon="6.73466">
        <ele>801.3</ele>
        <time>2020-08-08T14:34:12Z</time>
      </trkpt>
      <trkpt lat="45.57872" lon="6.73478">
        <ele>801.8</ele>
        <time>2020-08-08T14:34:14Z</time>
      </trkpt>
      <trkpt lat="45.57879" lon="6.7349">
        <ele>802.3</ele>
        <time>2020-08-08T14:34:16Z</time>
      </trkpt>
      <trkpt lat="45.57886" lon="6.73502">
        <ele>802.8</ele>
        <time>2020-08-08T14:34:18Z</time>
      </trkpt>
      <trkpt lat="45.5789" lon="6.73508">
        <ele>803.1</ele>
        <time>2020-08-08T14:34:19Z</time>
      </trkpt>
      <trkpt lat="45.57896" lon="6.73519">
        <ele>803.6</ele>
        <time>2020-08-08T14:34:21Z</time>
      </trkpt>
      <trkpt lat="45.579" lon="6.73524">
        <ele>803.8</ele>
        <time>2020-08-08T14:34:22Z</time>
      </trkpt>
      <trkpt lat="45.57907" lon="6.73535">
        <ele>804.3</ele>
        <time>2020-08-08T14:34:24Z</time>
      </trkpt>
      <trkpt lat="45.57911" lon="6.73541">
        <ele>804.5</ele>
        <time>2020-08-08T14:34:25Z</time>
      </trkpt>
      <trkpt lat="45.57915" lon="6.73547">
        <ele>804.8</ele>
        <time>2020-08-08T14:34:26Z</time>
      </trkpt>
      <trkpt lat="45.57919" lon="6.73552">
        <ele>805</ele>
        <time>2020-08-08T14:34:27Z</time>
      </trkpt>
      <trkpt lat="45.57927" lon="6.73563">
        <ele>805.6</ele>
        <time>2020-08-08T14:34:29Z</time>
      </trkpt>
      <trkpt lat="45.57931" lon="6.73568">
        <ele>805.8</ele>
        <time>2020-08-08T14:34:30Z</time>
      </trkpt>
      <trkpt lat="45.57936" lon="6.73572">
        <ele>806.1</ele>
        <time>2020-08-08T14:34:31Z</time>
      </trkpt>
      <trkpt lat="45.5794" lon="6.73577">
        <ele>806.3</ele>
        <time>2020-08-08T14:34:32Z</time>
      </trkpt>
      <trkpt lat="45.57948" lon="6.73587">
        <ele>806.8</ele>
        <time>2020-08-08T14:34:34Z</time>
      </trkpt>
      <trkpt lat="45.57956" lon="6.73596">
        <ele>807.3</ele>
        <time>2020-08-08T14:34:36Z</time>
      </trkpt>
      <trkpt lat="45.5796" lon="6.73601">
        <ele>807.5</ele>
        <time>2020-08-08T14:34:37Z</time>
      </trkpt>
      <trkpt lat="45.57969" lon="6.7361">
        <ele>808</ele>
        <time>2020-08-08T14:34:39Z</time>
      </trkpt>
      <trkpt lat="45.57973" lon="6.73615">
        <ele>808.3</ele>
        <time>2020-08-08T14:34:40Z</time>
      </trkpt>
      <trkpt lat="45.57981" lon="6.73624">
        <ele>808.9</ele>
        <time>2020-08-08T14:34:42Z</time>
      </trkpt>
      <trkpt lat="45.57985" lon="6.73628">
        <ele>809.2</ele>
        <time>2020-08-08T14:34:43Z</time>
      </trkpt>
      <trkpt lat="45.57993" lon="6.73637">
        <ele>809.3</ele>
        <time>2020-08-08T14:34:45Z</time>
      </trkpt>
      <trkpt lat="45.57997" lon="6.73642">
        <ele>809.3</ele>
        <time>2020-08-08T14:34:46Z</time>
      </trkpt>
      <trkpt lat="45.58001" lon="6.73646">
        <ele>809.4</ele>
        <time>2020-08-08T14:34:47Z</time>
      </trkpt>
      <trkpt lat="45.58005" lon="6.73651">
        <ele>809.4</ele>
        <time>2020-08-08T14:34:48Z</time>
      </trkpt>
      <trkpt lat="45.5801" lon="6.73663">
        <ele>809.7</ele>
        <time>2020-08-08T14:34:50Z</time>
      </trkpt>
      <trkpt lat="45.58015" lon="6.73677">
        <ele>809.9</ele>
        <time>2020-08-08T14:34:52Z</time>
      </trkpt>
      <trkpt lat="45.58018" lon="6.73683">
        <ele>810.1</ele>
        <time>2020-08-08T14:34:53Z</time>
      </trkpt>
      <trkpt lat="45.58022" lon="6.73689">
        <ele>810.3</ele>
        <time>2020-08-08T14:34:54Z</time>
      </trkpt>
      <trkpt lat="45.58029" lon="6.73702">
        <ele>810.6</ele>
        <time>2020-08-08T14:34:56Z</time>
      </trkpt>
      <trkpt lat="45.58033" lon="6.73708">
        <ele>810.8</ele>
        <time>2020-08-08T14:34:57Z</time>
      </trkpt>
      <trkpt lat="45.58036" lon="6.73714">
        <ele>811</ele>
        <time>2020-08-08T14:34:58Z</time>
      </trkpt>
      <trkpt lat="45.5804" lon="6.7372">
        <ele>811.2</ele>
        <time>2020-08-08T14:34:59Z</time>
      </trkpt>
      <trkpt lat="45.58047" lon="6.73729">
        <ele>811.5</ele>
        <time>2020-08-08T14:35:01Z</time>
      </trkpt>
      <trkpt lat="45.58051" lon="6.73733">
        <ele>811.7</ele>
        <time>2020-08-08T14:35:02Z</time>
      </trkpt>
      <trkpt lat="45.58055" lon="6.73737">
        <ele>811.8</ele>
        <time>2020-08-08T14:35:03Z</time>
      </trkpt>
      <trkpt lat="45.58065" lon="6.73742">
        <ele>812.2</ele>
        <time>2020-08-08T14:35:05Z</time>
      </trkpt>
      <trkpt lat="45.5807" lon="6.73745">
        <ele>812.5</ele>
        <time>2020-08-08T14:35:06Z</time>
      </trkpt>
      <trkpt lat="45.5808" lon="6.73751">
        <ele>812.8</ele>
        <time>2020-08-08T14:35:08Z</time>
      </trkpt>
      <trkpt lat="45.58085" lon="6.73754">
        <ele>813</ele>
        <time>2020-08-08T14:35:09Z</time>
      </trkpt>
      <trkpt lat="45.58089" lon="6.73756">
        <ele>813.2</ele>
        <time>2020-08-08T14:35:10Z</time>
      </trkpt>
      <trkpt lat="45.58096" lon="6.73761">
        <ele>813.4</ele>
        <time>2020-08-08T14:35:12Z</time>
      </trkpt>
      <trkpt lat="45.58101" lon="6.73764">
        <ele>813.6</ele>
        <time>2020-08-08T14:35:13Z</time>
      </trkpt>
      <trkpt lat="45.58105" lon="6.73768">
        <ele>814</ele>
        <time>2020-08-08T14:35:14Z</time>
      </trkpt>
      <trkpt lat="45.5811" lon="6.73776">
        <ele>814.3</ele>
        <time>2020-08-08T14:35:16Z</time>
      </trkpt>
      <trkpt lat="45.58112" lon="6.73779">
        <ele>814.4</ele>
        <time>2020-08-08T14:35:17Z</time>
      </trkpt>
      <trkpt lat="45.58116" lon="6.73786">
        <ele>814.6</ele>
        <time>2020-08-08T14:35:19Z</time>
      </trkpt>
      <trkpt lat="45.58117" lon="6.73803">
        <ele>815</ele>
        <time>2020-08-08T14:35:20Z</time>
      </trkpt>
      <trkpt lat="45.58121" lon="6.73819">
        <ele>815.3</ele>
        <time>2020-08-08T14:35:23Z</time>
      </trkpt>
      <trkpt lat="45.58123" lon="6.73826">
        <ele>815.5</ele>
        <time>2020-08-08T14:35:25Z</time>
      </trkpt>
      <trkpt lat="45.58125" lon="6.7383">
        <ele>815.6</ele>
        <time>2020-08-08T14:35:26Z</time>
      </trkpt>
      <trkpt lat="45.58127" lon="6.73835">
        <ele>815.7</ele>
        <time>2020-08-08T14:35:28Z</time>
      </trkpt>
      <trkpt lat="45.58129" lon="6.73841">
        <ele>815.8</ele>
        <time>2020-08-08T14:35:30Z</time>
      </trkpt>
      <trkpt lat="45.58132" lon="6.73844">
        <ele>815.9</ele>
        <time>2020-08-08T14:35:31Z</time>
      </trkpt>
      <trkpt lat="45.58133" lon="6.73845">
        <ele>816</ele>
        <time>2020-08-08T14:35:32Z</time>
      </trkpt>
      <trkpt lat="45.58134" lon="6.73846">
        <ele>816</ele>
        <time>2020-08-08T14:35:34Z</time>
      </trkpt>
      <trkpt lat="45.58134" lon="6.73846">
        <ele>816</ele>
        <time>2020-08-08T14:35:36Z</time>
      </trkpt>
      <trkpt lat="45.58134" lon="6.73846">
        <ele>816</ele>
        <time>2020-08-08T14:35:38Z</time>
      </trkpt>
      <trkpt lat="45.58134" lon="6.73846">
        <ele>816</ele>
        <time>2020-08-08T14:35:39Z</time>
      </trkpt>
      <trkpt lat="45.58134" lon="6.73847">
        <ele>816.1</ele>
        <time>2020-08-08T14:35:40Z</time>
      </trkpt>
      <trkpt lat="45.58134" lon="6.73849">
        <ele>816.1</ele>
        <time>2020-08-08T14:35:41Z</time>
      </trkpt>
      <trkpt lat="45.58134" lon="6.7385">
        <ele>816.1</ele>
        <time>2020-08-08T14:35:43Z</time>
      </trkpt>
      <trkpt lat="45.58134" lon="6.73851">
        <ele>816.2</ele>
        <time>2020-08-08T14:35:44Z</time>
      </trkpt>
      <trkpt lat="45.58135" lon="6.73852">
        <ele>816.2</ele>
        <time>2020-08-08T14:35:46Z</time>
      </trkpt>
      <trkpt lat="45.58136" lon="6.73852">
        <ele>816.2</ele>
        <time>2020-08-08T14:35:48Z</time>
      </trkpt>
      <trkpt lat="45.58137" lon="6.73852">
        <ele>816.2</ele>
        <time>2020-08-08T14:35:49Z</time>
      </trkpt>
      <trkpt lat="45.58137" lon="6.73852">
        <ele>816.3</ele>
        <time>2020-08-08T14:35:50Z</time>
      </trkpt>
      <trkpt lat="45.58137" lon="6.73851">
        <ele>816.3</ele>
        <time>2020-08-08T14:35:52Z</time>
      </trkpt>
      <trkpt lat="45.58135" lon="6.73846">
        <ele>816.4</ele>
        <time>2020-08-08T14:35:56Z</time>
      </trkpt>
      <trkpt lat="45.58134" lon="6.73845">
        <ele>816.4</ele>
        <time>2020-08-08T14:35:58Z</time>
      </trkpt>
      <trkpt lat="45.58133" lon="6.73842">
        <ele>816.5</ele>
        <time>2020-08-08T14:36:00Z</time>
      </trkpt>
      <trkpt lat="45.58133" lon="6.73842">
        <ele>816.5</ele>
        <time>2020-08-08T14:36:01Z</time>
      </trkpt>
      <trkpt lat="45.58133" lon="6.73841">
        <ele>816.5</ele>
        <time>2020-08-08T14:36:03Z</time>
      </trkpt>
      <trkpt lat="45.58133" lon="6.7384">
        <ele>816.6</ele>
        <time>2020-08-08T14:36:05Z</time>
      </trkpt>
      <trkpt lat="45.58134" lon="6.7384">
        <ele>816.6</ele>
        <time>2020-08-08T14:36:06Z</time>
      </trkpt>
      <trkpt lat="45.58135" lon="6.73841">
        <ele>816.6</ele>
        <time>2020-08-08T14:36:10Z</time>
      </trkpt>
      <trkpt lat="45.58135" lon="6.73841">
        <ele>816.6</ele>
        <time>2020-08-08T14:36:12Z</time>
      </trkpt>
      <trkpt lat="45.58135" lon="6.73842">
        <ele>816.7</ele>
        <time>2020-08-08T14:36:13Z</time>
      </trkpt>
      <trkpt lat="45.58135" lon="6.73843">
        <ele>816.7</ele>
        <time>2020-08-08T14:36:15Z</time>
      </trkpt>
      <trkpt lat="45.58135" lon="6.73838">
        <ele>816.8</ele>
        <time>2020-08-08T14:36:40Z</time>
      </trkpt>
      <trkpt lat="45.58135" lon="6.73837">
        <ele>816.8</ele>
        <time>2020-08-08T14:36:42Z</time>
      </trkpt>
      <trkpt lat="45.58135" lon="6.73837">
        <ele>816.8</ele>
        <time>2020-08-08T14:36:44Z</time>
      </trkpt>
      <trkpt lat="45.58136" lon="6.73837">
        <ele>816.9</ele>
        <time>2020-08-08T14:36:46Z</time>
      </trkpt>
      <trkpt lat="45.58136" lon="6.73837">
        <ele>816.9</ele>
        <time>2020-08-08T14:36:47Z</time>
      </trkpt>
      <trkpt lat="45.58136" lon="6.73839">
        <ele>816.9</ele>
        <time>2020-08-08T14:36:50Z</time>
      </trkpt>
      <trkpt lat="45.58136" lon="6.73839">
        <ele>816.9</ele>
        <time>2020-08-08T14:36:52Z</time>
      </trkpt>
      <trkpt lat="45.58136" lon="6.7384">
        <ele>816.9</ele>
        <time>2020-08-08T14:36:54Z</time>
      </trkpt>
      <trkpt lat="45.58136" lon="6.7384">
        <ele>816.9</ele>
        <time>2020-08-08T14:36:55Z</time>
      </trkpt>
      <trkpt lat="45.58136" lon="6.7384">
        <ele>816.9</ele>
        <time>2020-08-08T14:36:57Z</time>
      </trkpt>
      <trkpt lat="45.58136" lon="6.7384">
        <ele>816.9</ele>
        <time>2020-08-08T14:37:00Z</time>
      </trkpt>
      <trkpt lat="45.58136" lon="6.7384">
        <ele>816.9</ele>
        <time>2020-08-08T14:37:02Z</time>
      </trkpt>
      <trkpt lat="45.58136" lon="6.73841">
        <ele>817</ele>
        <time>2020-08-08T14:37:03Z</time>
      </trkpt>
      <trkpt lat="45.58137" lon="6.7384">
        <ele>817</ele>
        <time>2020-08-08T14:37:05Z</time>
      </trkpt>
      <trkpt lat="45.58137" lon="6.7384">
        <ele>817</ele>
        <time>2020-08-08T14:37:07Z</time>
      </trkpt>
      <trkpt lat="45.58137" lon="6.73839">
        <ele>817</ele>
        <time>2020-08-08T14:37:09Z</time>
      </trkpt>
      <trkpt lat="45.58137" lon="6.73839">
        <ele>817</ele>
        <time>2020-08-08T14:37:10Z</time>
      </trkpt>
      <trkpt lat="45.58137" lon="6.73839">
        <ele>817</ele>
        <time>2020-08-08T14:37:12Z</time>
      </trkpt>
      <trkpt lat="45.58137" lon="6.73839">
        <ele>817</ele>
        <time>2020-08-08T14:37:14Z</time>
      </trkpt>
      <trkpt lat="45.58137" lon="6.73839">
        <ele>817</ele>
        <time>2020-08-08T14:37:16Z</time>
      </trkpt>
      <trkpt lat="45.58138" lon="6.73839">
        <ele>817</ele>
        <time>2020-08-08T14:37:17Z</time>
      </trkpt>
      <trkpt lat="45.58138" lon="6.7384">
        <ele>817.1</ele>
        <time>2020-08-08T14:37:19Z</time>
      </trkpt>
      <trkpt lat="45.58139" lon="6.73841">
        <ele>817.1</ele>
        <time>2020-08-08T14:37:21Z</time>
      </trkpt>
      <trkpt lat="45.58139" lon="6.73841">
        <ele>817.1</ele>
        <time>2020-08-08T14:37:22Z</time>
      </trkpt>
      <trkpt lat="45.58139" lon="6.73841">
        <ele>817.1</ele>
        <time>2020-08-08T14:37:25Z</time>
      </trkpt>
      <trkpt lat="45.58139" lon="6.73841">
        <ele>817.1</ele>
        <time>2020-08-08T14:37:27Z</time>
      </trkpt>
    </trkseg>
  </trk>
</gpx>